<?xml version="1.0" encoding="UTF-8"?>
<gpx version="1.1" creator="https://www.youtrack.es" xsi:schemaLocation="http://www.topografix.com/GPX/1/1 http://www.topografix.com/GPX/1/1/gpx.xsd http://www.garmin.com/xmlschemas/GpxExtensions/v3 http://www.garmin.com/xmlschemas/GpxExtensionsv3.xsd http://www.garmin.com/xmlschemas/TrackPointExtension/v1 http://www.garmin.com/xmlschemas/TrackPointExtensionv1.xsd" xmlns:gpxtpx="http://www.garmin.com/xmlschemas/TrackPointExtension/v1" xmlns:gpxx="http://www.garmin.com/xmlschemas/GpxExtensions/v3" xmlns:xsi="http://www.w3.org/2001/XMLSchema-instance">
  <metadata>
    <link href="https://www.youtrack.es">
      <text>YouTrack.es</text>
    </link>
    <time>2026-05-09T04:50:42Z</time>
  </metadata>
  <trk>
    <src>https://www.youtrack.es</src>
    <link href="https://www.youtrack.es/ruta/10486-campo-abajo">
      <text>YouTrack.es</text>
    </link>
    <trkseg>
      <trkpt lat="37.28131667" lon="-7.14605333">
        <ele>24.0</ele>
        <time>2020-01-18T07:51:23.007Z</time>
      </trkpt>
      <trkpt lat="37.28131667" lon="-7.14605333">
        <ele>24.0</ele>
        <time>2020-01-18T07:51:23.982Z</time>
      </trkpt>
      <trkpt lat="37.28133833" lon="-7.145985">
        <ele>22.0</ele>
        <time>2020-01-18T07:51:24.993Z</time>
      </trkpt>
      <trkpt lat="37.281345" lon="-7.14597167">
        <ele>22.0</ele>
        <time>2020-01-18T07:51:26.006Z</time>
      </trkpt>
      <trkpt lat="37.281345" lon="-7.14597167">
        <ele>22.0</ele>
        <time>2020-01-18T07:51:26.995Z</time>
      </trkpt>
      <trkpt lat="37.28136833" lon="-7.14593667">
        <ele>21.0</ele>
        <time>2020-01-18T07:51:28.006Z</time>
      </trkpt>
      <trkpt lat="37.28138167" lon="-7.14591667">
        <ele>21.0</ele>
        <time>2020-01-18T07:51:29.004Z</time>
      </trkpt>
      <trkpt lat="37.28138167" lon="-7.14591667">
        <ele>21.0</ele>
        <time>2020-01-18T07:51:30.003Z</time>
      </trkpt>
      <trkpt lat="37.281405" lon="-7.14587667">
        <ele>21.0</ele>
        <time>2020-01-18T07:51:31.006Z</time>
      </trkpt>
      <trkpt lat="37.281405" lon="-7.14587667">
        <ele>21.0</ele>
        <time>2020-01-18T07:51:32.001Z</time>
      </trkpt>
      <trkpt lat="37.28143167" lon="-7.14583333">
        <ele>21.0</ele>
        <time>2020-01-18T07:51:33.004Z</time>
      </trkpt>
      <trkpt lat="37.281445" lon="-7.14580833">
        <ele>21.0</ele>
        <time>2020-01-18T07:51:34.004Z</time>
      </trkpt>
      <trkpt lat="37.281445" lon="-7.14580833">
        <ele>21.0</ele>
        <time>2020-01-18T07:51:35.000Z</time>
      </trkpt>
      <trkpt lat="37.28145833" lon="-7.14574833">
        <ele>21.0</ele>
        <time>2020-01-18T07:51:36.003Z</time>
      </trkpt>
      <trkpt lat="37.28146" lon="-7.14571333">
        <ele>21.0</ele>
        <time>2020-01-18T07:51:37.041Z</time>
      </trkpt>
      <trkpt lat="37.28146" lon="-7.14571333">
        <ele>21.0</ele>
        <time>2020-01-18T07:51:38.013Z</time>
      </trkpt>
      <trkpt lat="37.28145" lon="-7.14565333">
        <ele>20.0</ele>
        <time>2020-01-18T07:51:39.003Z</time>
      </trkpt>
      <trkpt lat="37.28145" lon="-7.14565333">
        <ele>20.0</ele>
        <time>2020-01-18T07:51:39.999Z</time>
      </trkpt>
      <trkpt lat="37.28141167" lon="-7.14560833">
        <ele>21.0</ele>
        <time>2020-01-18T07:51:41.003Z</time>
      </trkpt>
      <trkpt lat="37.28141167" lon="-7.14560833">
        <ele>21.0</ele>
        <time>2020-01-18T07:51:41.999Z</time>
      </trkpt>
      <trkpt lat="37.28136167" lon="-7.14557">
        <ele>20.0</ele>
        <time>2020-01-18T07:51:42.980Z</time>
      </trkpt>
      <trkpt lat="37.28136167" lon="-7.14557">
        <ele>20.0</ele>
        <time>2020-01-18T07:51:44.002Z</time>
      </trkpt>
      <trkpt lat="37.28130667" lon="-7.14553">
        <ele>20.0</ele>
        <time>2020-01-18T07:51:45.001Z</time>
      </trkpt>
      <trkpt lat="37.28130667" lon="-7.14553">
        <ele>20.0</ele>
        <time>2020-01-18T07:51:46.000Z</time>
      </trkpt>
      <trkpt lat="37.28124833" lon="-7.14549167">
        <ele>20.0</ele>
        <time>2020-01-18T07:51:47.002Z</time>
      </trkpt>
      <trkpt lat="37.28124833" lon="-7.14549167">
        <ele>20.0</ele>
        <time>2020-01-18T07:51:47.999Z</time>
      </trkpt>
      <trkpt lat="37.28119167" lon="-7.14545667">
        <ele>20.0</ele>
        <time>2020-01-18T07:51:48.978Z</time>
      </trkpt>
      <trkpt lat="37.28119167" lon="-7.14545667">
        <ele>20.0</ele>
        <time>2020-01-18T07:51:50.001Z</time>
      </trkpt>
      <trkpt lat="37.28114167" lon="-7.14542167">
        <ele>19.0</ele>
        <time>2020-01-18T07:51:51.004Z</time>
      </trkpt>
      <trkpt lat="37.28114167" lon="-7.14542167">
        <ele>19.0</ele>
        <time>2020-01-18T07:51:51.979Z</time>
      </trkpt>
      <trkpt lat="37.28108667" lon="-7.14538833">
        <ele>19.0</ele>
        <time>2020-01-18T07:51:53.009Z</time>
      </trkpt>
      <trkpt lat="37.28106" lon="-7.14536667">
        <ele>19.0</ele>
        <time>2020-01-18T07:51:54.003Z</time>
      </trkpt>
      <trkpt lat="37.28103667" lon="-7.14534833">
        <ele>20.0</ele>
        <time>2020-01-18T07:51:55.006Z</time>
      </trkpt>
      <trkpt lat="37.28103667" lon="-7.14534833">
        <ele>20.0</ele>
        <time>2020-01-18T07:51:55.996Z</time>
      </trkpt>
      <trkpt lat="37.28099333" lon="-7.14528167">
        <ele>19.0</ele>
        <time>2020-01-18T07:51:57.015Z</time>
      </trkpt>
      <trkpt lat="37.28099333" lon="-7.14528167">
        <ele>19.0</ele>
        <time>2020-01-18T07:51:58.000Z</time>
      </trkpt>
      <trkpt lat="37.280965" lon="-7.14521">
        <ele>20.0</ele>
        <time>2020-01-18T07:51:59.003Z</time>
      </trkpt>
      <trkpt lat="37.280965" lon="-7.14521">
        <ele>20.0</ele>
        <time>2020-01-18T07:52:00.017Z</time>
      </trkpt>
      <trkpt lat="37.28096833" lon="-7.14512333">
        <ele>20.0</ele>
        <time>2020-01-18T07:52:01.014Z</time>
      </trkpt>
      <trkpt lat="37.280985" lon="-7.14508167">
        <ele>19.0</ele>
        <time>2020-01-18T07:52:02.015Z</time>
      </trkpt>
      <trkpt lat="37.280985" lon="-7.14508167">
        <ele>19.0</ele>
        <time>2020-01-18T07:52:02.996Z</time>
      </trkpt>
      <trkpt lat="37.28104167" lon="-7.14501667">
        <ele>19.0</ele>
        <time>2020-01-18T07:52:04.005Z</time>
      </trkpt>
      <trkpt lat="37.28104167" lon="-7.14501667">
        <ele>19.0</ele>
        <time>2020-01-18T07:52:05.011Z</time>
      </trkpt>
      <trkpt lat="37.28111" lon="-7.14496833">
        <ele>19.0</ele>
        <time>2020-01-18T07:52:05.977Z</time>
      </trkpt>
      <trkpt lat="37.28114833" lon="-7.14495">
        <ele>19.0</ele>
        <time>2020-01-18T07:52:07.002Z</time>
      </trkpt>
      <trkpt lat="37.28114833" lon="-7.14495">
        <ele>19.0</ele>
        <time>2020-01-18T07:52:08.000Z</time>
      </trkpt>
      <trkpt lat="37.28122667" lon="-7.14493833">
        <ele>19.0</ele>
        <time>2020-01-18T07:52:08.978Z</time>
      </trkpt>
      <trkpt lat="37.28122667" lon="-7.14493833">
        <ele>19.0</ele>
        <time>2020-01-18T07:52:09.997Z</time>
      </trkpt>
      <trkpt lat="37.28130833" lon="-7.14496333">
        <ele>19.0</ele>
        <time>2020-01-18T07:52:11.015Z</time>
      </trkpt>
      <trkpt lat="37.28135167" lon="-7.144985">
        <ele>18.0</ele>
        <time>2020-01-18T07:52:12.000Z</time>
      </trkpt>
      <trkpt lat="37.28135167" lon="-7.144985">
        <ele>18.0</ele>
        <time>2020-01-18T07:52:12.978Z</time>
      </trkpt>
      <trkpt lat="37.28144" lon="-7.14503333">
        <ele>18.0</ele>
        <time>2020-01-18T07:52:14.002Z</time>
      </trkpt>
      <trkpt lat="37.28148667" lon="-7.14506167">
        <ele>18.0</ele>
        <time>2020-01-18T07:52:15.004Z</time>
      </trkpt>
      <trkpt lat="37.28148667" lon="-7.14506167">
        <ele>18.0</ele>
        <time>2020-01-18T07:52:15.977Z</time>
      </trkpt>
      <trkpt lat="37.281585" lon="-7.14511667">
        <ele>18.0</ele>
        <time>2020-01-18T07:52:17.002Z</time>
      </trkpt>
      <trkpt lat="37.281585" lon="-7.14511667">
        <ele>18.0</ele>
        <time>2020-01-18T07:52:17.997Z</time>
      </trkpt>
      <trkpt lat="37.28169" lon="-7.14517833">
        <ele>18.0</ele>
        <time>2020-01-18T07:52:19.015Z</time>
      </trkpt>
      <trkpt lat="37.28169" lon="-7.14517833">
        <ele>18.0</ele>
        <time>2020-01-18T07:52:19.999Z</time>
      </trkpt>
      <trkpt lat="37.2818" lon="-7.14524667">
        <ele>17.0</ele>
        <time>2020-01-18T07:52:20.976Z</time>
      </trkpt>
      <trkpt lat="37.2818" lon="-7.14524667">
        <ele>17.0</ele>
        <time>2020-01-18T07:52:22.000Z</time>
      </trkpt>
      <trkpt lat="37.281905" lon="-7.14531833">
        <ele>16.0</ele>
        <time>2020-01-18T07:52:23.015Z</time>
      </trkpt>
      <trkpt lat="37.281905" lon="-7.14531833">
        <ele>16.0</ele>
        <time>2020-01-18T07:52:24.000Z</time>
      </trkpt>
      <trkpt lat="37.28203167" lon="-7.14538167">
        <ele>16.0</ele>
        <time>2020-01-18T07:52:24.976Z</time>
      </trkpt>
      <trkpt lat="37.28203167" lon="-7.14538167">
        <ele>16.0</ele>
        <time>2020-01-18T07:52:26.000Z</time>
      </trkpt>
      <trkpt lat="37.28215833" lon="-7.145445">
        <ele>14.0</ele>
        <time>2020-01-18T07:52:27.003Z</time>
      </trkpt>
      <trkpt lat="37.28215833" lon="-7.145445">
        <ele>14.0</ele>
        <time>2020-01-18T07:52:27.997Z</time>
      </trkpt>
      <trkpt lat="37.28228667" lon="-7.14550833">
        <ele>13.0</ele>
        <time>2020-01-18T07:52:29.010Z</time>
      </trkpt>
      <trkpt lat="37.28228667" lon="-7.14550833">
        <ele>13.0</ele>
        <time>2020-01-18T07:52:29.999Z</time>
      </trkpt>
      <trkpt lat="37.28241" lon="-7.145575">
        <ele>12.0</ele>
        <time>2020-01-18T07:52:31.005Z</time>
      </trkpt>
      <trkpt lat="37.28247167" lon="-7.14560833">
        <ele>12.0</ele>
        <time>2020-01-18T07:52:31.979Z</time>
      </trkpt>
      <trkpt lat="37.28247167" lon="-7.14560833">
        <ele>12.0</ele>
        <time>2020-01-18T07:52:33.001Z</time>
      </trkpt>
      <trkpt lat="37.28259" lon="-7.14568167">
        <ele>11.0</ele>
        <time>2020-01-18T07:52:34.007Z</time>
      </trkpt>
      <trkpt lat="37.28259" lon="-7.14568167">
        <ele>11.0</ele>
        <time>2020-01-18T07:52:35.012Z</time>
      </trkpt>
      <trkpt lat="37.28271667" lon="-7.14573667">
        <ele>11.0</ele>
        <time>2020-01-18T07:52:35.978Z</time>
      </trkpt>
      <trkpt lat="37.28278" lon="-7.14576833">
        <ele>11.0</ele>
        <time>2020-01-18T07:52:37.010Z</time>
      </trkpt>
      <trkpt lat="37.28278" lon="-7.14576833">
        <ele>11.0</ele>
        <time>2020-01-18T07:52:37.999Z</time>
      </trkpt>
      <trkpt lat="37.28291" lon="-7.14583333">
        <ele>11.0</ele>
        <time>2020-01-18T07:52:38.976Z</time>
      </trkpt>
      <trkpt lat="37.28291" lon="-7.14583333">
        <ele>11.0</ele>
        <time>2020-01-18T07:52:39.999Z</time>
      </trkpt>
      <trkpt lat="37.28304" lon="-7.14589167">
        <ele>11.0</ele>
        <time>2020-01-18T07:52:41.014Z</time>
      </trkpt>
      <trkpt lat="37.28304" lon="-7.14589167">
        <ele>11.0</ele>
        <time>2020-01-18T07:52:41.997Z</time>
      </trkpt>
      <trkpt lat="37.283165" lon="-7.14594833">
        <ele>11.0</ele>
        <time>2020-01-18T07:52:43.015Z</time>
      </trkpt>
      <trkpt lat="37.283165" lon="-7.14594833">
        <ele>11.0</ele>
        <time>2020-01-18T07:52:43.999Z</time>
      </trkpt>
      <trkpt lat="37.28328667" lon="-7.14600333">
        <ele>11.0</ele>
        <time>2020-01-18T07:52:45.015Z</time>
      </trkpt>
      <trkpt lat="37.28328667" lon="-7.14600333">
        <ele>11.0</ele>
        <time>2020-01-18T07:52:46.005Z</time>
      </trkpt>
      <trkpt lat="37.283405" lon="-7.14603167">
        <ele>11.0</ele>
        <time>2020-01-18T07:52:46.977Z</time>
      </trkpt>
      <trkpt lat="37.283405" lon="-7.14603167">
        <ele>11.0</ele>
        <time>2020-01-18T07:52:48.000Z</time>
      </trkpt>
      <trkpt lat="37.28351833" lon="-7.14607667">
        <ele>11.0</ele>
        <time>2020-01-18T07:52:49.015Z</time>
      </trkpt>
      <trkpt lat="37.28351833" lon="-7.14607667">
        <ele>11.0</ele>
        <time>2020-01-18T07:52:49.997Z</time>
      </trkpt>
      <trkpt lat="37.28362167" lon="-7.14614833">
        <ele>11.0</ele>
        <time>2020-01-18T07:52:51.013Z</time>
      </trkpt>
      <trkpt lat="37.28362167" lon="-7.14614833">
        <ele>11.0</ele>
        <time>2020-01-18T07:52:52.012Z</time>
      </trkpt>
      <trkpt lat="37.283725" lon="-7.14623">
        <ele>10.0</ele>
        <time>2020-01-18T07:52:53.011Z</time>
      </trkpt>
      <trkpt lat="37.283775" lon="-7.14627">
        <ele>10.0</ele>
        <time>2020-01-18T07:52:54.002Z</time>
      </trkpt>
      <trkpt lat="37.283825" lon="-7.14630667">
        <ele>10.0</ele>
        <time>2020-01-18T07:52:54.977Z</time>
      </trkpt>
      <trkpt lat="37.283825" lon="-7.14630667">
        <ele>10.0</ele>
        <time>2020-01-18T07:52:55.999Z</time>
      </trkpt>
      <trkpt lat="37.28392" lon="-7.14639">
        <ele>11.0</ele>
        <time>2020-01-18T07:52:57.015Z</time>
      </trkpt>
      <trkpt lat="37.28392" lon="-7.14639">
        <ele>11.0</ele>
        <time>2020-01-18T07:52:57.998Z</time>
      </trkpt>
      <trkpt lat="37.284015" lon="-7.14647167">
        <ele>11.0</ele>
        <time>2020-01-18T07:52:59.015Z</time>
      </trkpt>
      <trkpt lat="37.284015" lon="-7.14647167">
        <ele>11.0</ele>
        <time>2020-01-18T07:52:59.998Z</time>
      </trkpt>
      <trkpt lat="37.284115" lon="-7.14647667">
        <ele>12.0</ele>
        <time>2020-01-18T07:53:01.006Z</time>
      </trkpt>
      <trkpt lat="37.284115" lon="-7.14647667">
        <ele>12.0</ele>
        <time>2020-01-18T07:53:02.003Z</time>
      </trkpt>
      <trkpt lat="37.28420667" lon="-7.14641167">
        <ele>12.0</ele>
        <time>2020-01-18T07:53:03.004Z</time>
      </trkpt>
      <trkpt lat="37.28420667" lon="-7.14641167">
        <ele>12.0</ele>
        <time>2020-01-18T07:53:03.998Z</time>
      </trkpt>
      <trkpt lat="37.28429667" lon="-7.14634167">
        <ele>13.0</ele>
        <time>2020-01-18T07:53:05.015Z</time>
      </trkpt>
      <trkpt lat="37.28434" lon="-7.14631167">
        <ele>13.0</ele>
        <time>2020-01-18T07:53:06.003Z</time>
      </trkpt>
      <trkpt lat="37.28434" lon="-7.14631167">
        <ele>13.0</ele>
        <time>2020-01-18T07:53:07.000Z</time>
      </trkpt>
      <trkpt lat="37.28443167" lon="-7.14625">
        <ele>14.0</ele>
        <time>2020-01-18T07:53:07.983Z</time>
      </trkpt>
      <trkpt lat="37.28447833" lon="-7.14621833">
        <ele>14.0</ele>
        <time>2020-01-18T07:53:09.004Z</time>
      </trkpt>
      <trkpt lat="37.28447833" lon="-7.14621833">
        <ele>14.0</ele>
        <time>2020-01-18T07:53:09.997Z</time>
      </trkpt>
      <trkpt lat="37.28457" lon="-7.14616333">
        <ele>14.0</ele>
        <time>2020-01-18T07:53:11.013Z</time>
      </trkpt>
      <trkpt lat="37.28461667" lon="-7.146145">
        <ele>14.0</ele>
        <time>2020-01-18T07:53:12.003Z</time>
      </trkpt>
      <trkpt lat="37.28461667" lon="-7.146145">
        <ele>14.0</ele>
        <time>2020-01-18T07:53:13.006Z</time>
      </trkpt>
      <trkpt lat="37.28471" lon="-7.14615667">
        <ele>14.0</ele>
        <time>2020-01-18T07:53:14.005Z</time>
      </trkpt>
      <trkpt lat="37.28475" lon="-7.14619167">
        <ele>14.0</ele>
        <time>2020-01-18T07:53:14.978Z</time>
      </trkpt>
      <trkpt lat="37.28475" lon="-7.14619167">
        <ele>14.0</ele>
        <time>2020-01-18T07:53:15.999Z</time>
      </trkpt>
      <trkpt lat="37.28483167" lon="-7.14627333">
        <ele>14.0</ele>
        <time>2020-01-18T07:53:17.015Z</time>
      </trkpt>
      <trkpt lat="37.28483167" lon="-7.14627333">
        <ele>14.0</ele>
        <time>2020-01-18T07:53:17.997Z</time>
      </trkpt>
      <trkpt lat="37.284915" lon="-7.14635667">
        <ele>15.0</ele>
        <time>2020-01-18T07:53:18.985Z</time>
      </trkpt>
      <trkpt lat="37.284915" lon="-7.14635667">
        <ele>15.0</ele>
        <time>2020-01-18T07:53:19.999Z</time>
      </trkpt>
      <trkpt lat="37.28499667" lon="-7.14643">
        <ele>16.0</ele>
        <time>2020-01-18T07:53:21.003Z</time>
      </trkpt>
      <trkpt lat="37.28499667" lon="-7.14643">
        <ele>16.0</ele>
        <time>2020-01-18T07:53:21.979Z</time>
      </trkpt>
      <trkpt lat="37.28507833" lon="-7.14650167">
        <ele>16.0</ele>
        <time>2020-01-18T07:53:23.008Z</time>
      </trkpt>
      <trkpt lat="37.28511833" lon="-7.14653833">
        <ele>17.0</ele>
        <time>2020-01-18T07:53:24.002Z</time>
      </trkpt>
      <trkpt lat="37.28515833" lon="-7.146575">
        <ele>17.0</ele>
        <time>2020-01-18T07:53:24.976Z</time>
      </trkpt>
      <trkpt lat="37.28515833" lon="-7.146575">
        <ele>17.0</ele>
        <time>2020-01-18T07:53:25.997Z</time>
      </trkpt>
      <trkpt lat="37.28523167" lon="-7.14664167">
        <ele>18.0</ele>
        <time>2020-01-18T07:53:27.016Z</time>
      </trkpt>
      <trkpt lat="37.28527" lon="-7.14667167">
        <ele>19.0</ele>
        <time>2020-01-18T07:53:28.004Z</time>
      </trkpt>
      <trkpt lat="37.28527" lon="-7.14667167">
        <ele>19.0</ele>
        <time>2020-01-18T07:53:28.999Z</time>
      </trkpt>
      <trkpt lat="37.285345" lon="-7.14672667">
        <ele>19.0</ele>
        <time>2020-01-18T07:53:29.987Z</time>
      </trkpt>
      <trkpt lat="37.285385" lon="-7.14674833">
        <ele>20.0</ele>
        <time>2020-01-18T07:53:31.004Z</time>
      </trkpt>
      <trkpt lat="37.285385" lon="-7.14674833">
        <ele>20.0</ele>
        <time>2020-01-18T07:53:31.979Z</time>
      </trkpt>
      <trkpt lat="37.28546167" lon="-7.14679333">
        <ele>20.0</ele>
        <time>2020-01-18T07:53:33.012Z</time>
      </trkpt>
      <trkpt lat="37.28546167" lon="-7.14679333">
        <ele>20.0</ele>
        <time>2020-01-18T07:53:33.997Z</time>
      </trkpt>
      <trkpt lat="37.285535" lon="-7.14684">
        <ele>21.0</ele>
        <time>2020-01-18T07:53:34.997Z</time>
      </trkpt>
      <trkpt lat="37.28557167" lon="-7.14686667">
        <ele>21.0</ele>
        <time>2020-01-18T07:53:36.008Z</time>
      </trkpt>
      <trkpt lat="37.28560333" lon="-7.14689167">
        <ele>21.0</ele>
        <time>2020-01-18T07:53:37.003Z</time>
      </trkpt>
      <trkpt lat="37.28560333" lon="-7.14689167">
        <ele>21.0</ele>
        <time>2020-01-18T07:53:37.979Z</time>
      </trkpt>
      <trkpt lat="37.285655" lon="-7.14693667">
        <ele>21.0</ele>
        <time>2020-01-18T07:53:39.003Z</time>
      </trkpt>
      <trkpt lat="37.285655" lon="-7.14693667">
        <ele>21.0</ele>
        <time>2020-01-18T07:53:40.015Z</time>
      </trkpt>
      <trkpt lat="37.28570167" lon="-7.14694667">
        <ele>21.0</ele>
        <time>2020-01-18T07:53:41.003Z</time>
      </trkpt>
      <trkpt lat="37.28570167" lon="-7.14694667">
        <ele>21.0</ele>
        <time>2020-01-18T07:53:41.979Z</time>
      </trkpt>
      <trkpt lat="37.28576" lon="-7.14693333">
        <ele>22.0</ele>
        <time>2020-01-18T07:53:43.008Z</time>
      </trkpt>
      <trkpt lat="37.28576" lon="-7.14693333">
        <ele>22.0</ele>
        <time>2020-01-18T07:53:44.000Z</time>
      </trkpt>
      <trkpt lat="37.28582167" lon="-7.14689">
        <ele>22.0</ele>
        <time>2020-01-18T07:53:45.015Z</time>
      </trkpt>
      <trkpt lat="37.28582167" lon="-7.14689">
        <ele>22.0</ele>
        <time>2020-01-18T07:53:46.000Z</time>
      </trkpt>
      <trkpt lat="37.28586833" lon="-7.14682333">
        <ele>22.0</ele>
        <time>2020-01-18T07:53:47.015Z</time>
      </trkpt>
      <trkpt lat="37.28588833" lon="-7.14678333">
        <ele>22.0</ele>
        <time>2020-01-18T07:53:48.003Z</time>
      </trkpt>
      <trkpt lat="37.28590833" lon="-7.14674167">
        <ele>22.0</ele>
        <time>2020-01-18T07:53:48.979Z</time>
      </trkpt>
      <trkpt lat="37.28590833" lon="-7.14674167">
        <ele>22.0</ele>
        <time>2020-01-18T07:53:49.999Z</time>
      </trkpt>
      <trkpt lat="37.28594333" lon="-7.14665">
        <ele>22.0</ele>
        <time>2020-01-18T07:53:51.014Z</time>
      </trkpt>
      <trkpt lat="37.28594333" lon="-7.14665">
        <ele>22.0</ele>
        <time>2020-01-18T07:53:51.997Z</time>
      </trkpt>
      <trkpt lat="37.28597667" lon="-7.14654833">
        <ele>23.0</ele>
        <time>2020-01-18T07:53:53.010Z</time>
      </trkpt>
      <trkpt lat="37.285995" lon="-7.146495">
        <ele>23.0</ele>
        <time>2020-01-18T07:53:54.003Z</time>
      </trkpt>
      <trkpt lat="37.28601667" lon="-7.146445">
        <ele>23.0</ele>
        <time>2020-01-18T07:53:54.978Z</time>
      </trkpt>
      <trkpt lat="37.28603667" lon="-7.14639167">
        <ele>23.0</ele>
        <time>2020-01-18T07:53:56.003Z</time>
      </trkpt>
      <trkpt lat="37.28603667" lon="-7.14639167">
        <ele>23.0</ele>
        <time>2020-01-18T07:53:56.977Z</time>
      </trkpt>
      <trkpt lat="37.28608" lon="-7.14628833">
        <ele>23.0</ele>
        <time>2020-01-18T07:53:58.014Z</time>
      </trkpt>
      <trkpt lat="37.28608" lon="-7.14628833">
        <ele>23.0</ele>
        <time>2020-01-18T07:53:59.000Z</time>
      </trkpt>
      <trkpt lat="37.28612833" lon="-7.14620333">
        <ele>23.0</ele>
        <time>2020-01-18T07:54:00.019Z</time>
      </trkpt>
      <trkpt lat="37.28615667" lon="-7.14616167">
        <ele>23.0</ele>
        <time>2020-01-18T07:54:01.005Z</time>
      </trkpt>
      <trkpt lat="37.28615667" lon="-7.14616167">
        <ele>23.0</ele>
        <time>2020-01-18T07:54:01.979Z</time>
      </trkpt>
      <trkpt lat="37.286205" lon="-7.146075">
        <ele>23.0</ele>
        <time>2020-01-18T07:54:03.002Z</time>
      </trkpt>
      <trkpt lat="37.286205" lon="-7.146075">
        <ele>23.0</ele>
        <time>2020-01-18T07:54:03.978Z</time>
      </trkpt>
      <trkpt lat="37.28625167" lon="-7.145975">
        <ele>22.0</ele>
        <time>2020-01-18T07:54:05.005Z</time>
      </trkpt>
      <trkpt lat="37.286275" lon="-7.145925">
        <ele>21.0</ele>
        <time>2020-01-18T07:54:06.003Z</time>
      </trkpt>
      <trkpt lat="37.286295" lon="-7.14588">
        <ele>21.0</ele>
        <time>2020-01-18T07:54:07.005Z</time>
      </trkpt>
      <trkpt lat="37.286295" lon="-7.14588">
        <ele>21.0</ele>
        <time>2020-01-18T07:54:07.998Z</time>
      </trkpt>
      <trkpt lat="37.28635" lon="-7.14582667">
        <ele>20.0</ele>
        <time>2020-01-18T07:54:09.014Z</time>
      </trkpt>
      <trkpt lat="37.28635" lon="-7.14582667">
        <ele>20.0</ele>
        <time>2020-01-18T07:54:09.986Z</time>
      </trkpt>
      <trkpt lat="37.28642" lon="-7.14582">
        <ele>19.0</ele>
        <time>2020-01-18T07:54:11.003Z</time>
      </trkpt>
      <trkpt lat="37.28642" lon="-7.14582">
        <ele>19.0</ele>
        <time>2020-01-18T07:54:12.000Z</time>
      </trkpt>
      <trkpt lat="37.286495" lon="-7.145865">
        <ele>19.0</ele>
        <time>2020-01-18T07:54:12.976Z</time>
      </trkpt>
      <trkpt lat="37.286495" lon="-7.145865">
        <ele>19.0</ele>
        <time>2020-01-18T07:54:13.999Z</time>
      </trkpt>
      <trkpt lat="37.28657333" lon="-7.145925">
        <ele>20.0</ele>
        <time>2020-01-18T07:54:14.976Z</time>
      </trkpt>
      <trkpt lat="37.28657333" lon="-7.145925">
        <ele>20.0</ele>
        <time>2020-01-18T07:54:16.001Z</time>
      </trkpt>
      <trkpt lat="37.28665667" lon="-7.145985">
        <ele>20.0</ele>
        <time>2020-01-18T07:54:16.977Z</time>
      </trkpt>
      <trkpt lat="37.28665667" lon="-7.145985">
        <ele>20.0</ele>
        <time>2020-01-18T07:54:18.000Z</time>
      </trkpt>
      <trkpt lat="37.28674" lon="-7.14604833">
        <ele>21.0</ele>
        <time>2020-01-18T07:54:19.015Z</time>
      </trkpt>
      <trkpt lat="37.28674" lon="-7.14604833">
        <ele>21.0</ele>
        <time>2020-01-18T07:54:19.997Z</time>
      </trkpt>
      <trkpt lat="37.28682" lon="-7.14611667">
        <ele>22.0</ele>
        <time>2020-01-18T07:54:21.015Z</time>
      </trkpt>
      <trkpt lat="37.28682" lon="-7.14611667">
        <ele>22.0</ele>
        <time>2020-01-18T07:54:22.001Z</time>
      </trkpt>
      <trkpt lat="37.28690167" lon="-7.14617667">
        <ele>23.0</ele>
        <time>2020-01-18T07:54:23.011Z</time>
      </trkpt>
      <trkpt lat="37.28694333" lon="-7.14620833">
        <ele>23.0</ele>
        <time>2020-01-18T07:54:24.004Z</time>
      </trkpt>
      <trkpt lat="37.28694333" lon="-7.14620833">
        <ele>23.0</ele>
        <time>2020-01-18T07:54:24.976Z</time>
      </trkpt>
      <trkpt lat="37.28702833" lon="-7.14627333">
        <ele>24.0</ele>
        <time>2020-01-18T07:54:26.004Z</time>
      </trkpt>
      <trkpt lat="37.28702833" lon="-7.14627333">
        <ele>24.0</ele>
        <time>2020-01-18T07:54:27.015Z</time>
      </trkpt>
      <trkpt lat="37.287115" lon="-7.14633333">
        <ele>25.0</ele>
        <time>2020-01-18T07:54:27.981Z</time>
      </trkpt>
      <trkpt lat="37.287115" lon="-7.14633333">
        <ele>25.0</ele>
        <time>2020-01-18T07:54:28.999Z</time>
      </trkpt>
      <trkpt lat="37.28719833" lon="-7.14639833">
        <ele>27.0</ele>
        <time>2020-01-18T07:54:30.014Z</time>
      </trkpt>
      <trkpt lat="37.28724167" lon="-7.14642833">
        <ele>27.0</ele>
        <time>2020-01-18T07:54:31.003Z</time>
      </trkpt>
      <trkpt lat="37.28724167" lon="-7.14642833">
        <ele>27.0</ele>
        <time>2020-01-18T07:54:31.980Z</time>
      </trkpt>
      <trkpt lat="37.287325" lon="-7.14649167">
        <ele>28.0</ele>
        <time>2020-01-18T07:54:33.005Z</time>
      </trkpt>
      <trkpt lat="37.287365" lon="-7.14652167">
        <ele>29.0</ele>
        <time>2020-01-18T07:54:33.976Z</time>
      </trkpt>
      <trkpt lat="37.287365" lon="-7.14652167">
        <ele>29.0</ele>
        <time>2020-01-18T07:54:35.004Z</time>
      </trkpt>
      <trkpt lat="37.28745333" lon="-7.14657333">
        <ele>29.0</ele>
        <time>2020-01-18T07:54:36.004Z</time>
      </trkpt>
      <trkpt lat="37.28749833" lon="-7.14659833">
        <ele>29.0</ele>
        <time>2020-01-18T07:54:36.979Z</time>
      </trkpt>
      <trkpt lat="37.28749833" lon="-7.14659833">
        <ele>29.0</ele>
        <time>2020-01-18T07:54:38.000Z</time>
      </trkpt>
      <trkpt lat="37.28759" lon="-7.14665167">
        <ele>30.0</ele>
        <time>2020-01-18T07:54:38.982Z</time>
      </trkpt>
      <trkpt lat="37.28759" lon="-7.14665167">
        <ele>30.0</ele>
        <time>2020-01-18T07:54:39.999Z</time>
      </trkpt>
      <trkpt lat="37.28767333" lon="-7.14671">
        <ele>31.0</ele>
        <time>2020-01-18T07:54:41.004Z</time>
      </trkpt>
      <trkpt lat="37.28767333" lon="-7.14671">
        <ele>31.0</ele>
        <time>2020-01-18T07:54:42.015Z</time>
      </trkpt>
      <trkpt lat="37.28776333" lon="-7.14674333">
        <ele>32.0</ele>
        <time>2020-01-18T07:54:43.004Z</time>
      </trkpt>
      <trkpt lat="37.28776333" lon="-7.14674333">
        <ele>32.0</ele>
        <time>2020-01-18T07:54:44.015Z</time>
      </trkpt>
      <trkpt lat="37.28786167" lon="-7.14677667">
        <ele>32.0</ele>
        <time>2020-01-18T07:54:45.001Z</time>
      </trkpt>
      <trkpt lat="37.28786167" lon="-7.14677667">
        <ele>32.0</ele>
        <time>2020-01-18T07:54:46.015Z</time>
      </trkpt>
      <trkpt lat="37.28795667" lon="-7.14681">
        <ele>31.0</ele>
        <time>2020-01-18T07:54:47.003Z</time>
      </trkpt>
      <trkpt lat="37.28795667" lon="-7.14681">
        <ele>31.0</ele>
        <time>2020-01-18T07:54:47.998Z</time>
      </trkpt>
      <trkpt lat="37.288045" lon="-7.14684167">
        <ele>31.0</ele>
        <time>2020-01-18T07:54:49.015Z</time>
      </trkpt>
      <trkpt lat="37.288045" lon="-7.14684167">
        <ele>31.0</ele>
        <time>2020-01-18T07:54:50.000Z</time>
      </trkpt>
      <trkpt lat="37.28813" lon="-7.14688">
        <ele>30.0</ele>
        <time>2020-01-18T07:54:50.976Z</time>
      </trkpt>
      <trkpt lat="37.28813" lon="-7.14688">
        <ele>30.0</ele>
        <time>2020-01-18T07:54:51.997Z</time>
      </trkpt>
      <trkpt lat="37.28820833" lon="-7.14692667">
        <ele>30.0</ele>
        <time>2020-01-18T07:54:53.012Z</time>
      </trkpt>
      <trkpt lat="37.28824333" lon="-7.146955">
        <ele>31.0</ele>
        <time>2020-01-18T07:54:54.005Z</time>
      </trkpt>
      <trkpt lat="37.28827667" lon="-7.14698833">
        <ele>30.0</ele>
        <time>2020-01-18T07:54:54.979Z</time>
      </trkpt>
      <trkpt lat="37.28827667" lon="-7.14698833">
        <ele>30.0</ele>
        <time>2020-01-18T07:54:55.999Z</time>
      </trkpt>
      <trkpt lat="37.28833333" lon="-7.14704333">
        <ele>31.0</ele>
        <time>2020-01-18T07:54:57.015Z</time>
      </trkpt>
      <trkpt lat="37.28833333" lon="-7.14704333">
        <ele>31.0</ele>
        <time>2020-01-18T07:54:58.000Z</time>
      </trkpt>
      <trkpt lat="37.28838167" lon="-7.14708833">
        <ele>31.0</ele>
        <time>2020-01-18T07:54:59.016Z</time>
      </trkpt>
      <trkpt lat="37.28838167" lon="-7.14708833">
        <ele>31.0</ele>
        <time>2020-01-18T07:55:00.011Z</time>
      </trkpt>
      <trkpt lat="37.28841167" lon="-7.14711667">
        <ele>30.0</ele>
        <time>2020-01-18T07:55:01.004Z</time>
      </trkpt>
      <trkpt lat="37.28841167" lon="-7.14711667">
        <ele>30.0</ele>
        <time>2020-01-18T07:55:01.981Z</time>
      </trkpt>
      <trkpt lat="37.28842667" lon="-7.14712833">
        <ele>30.0</ele>
        <time>2020-01-18T07:55:03.003Z</time>
      </trkpt>
      <trkpt lat="37.28842667" lon="-7.14712833">
        <ele>30.0</ele>
        <time>2020-01-18T07:55:03.978Z</time>
      </trkpt>
      <trkpt lat="37.28842667" lon="-7.14712833">
        <ele>30.0</ele>
        <time>2020-01-18T07:55:05.011Z</time>
      </trkpt>
      <trkpt lat="37.28853" lon="-7.14722">
        <ele>30.0</ele>
        <time>2020-01-18T07:55:06.006Z</time>
      </trkpt>
      <trkpt lat="37.28853" lon="-7.14722">
        <ele>30.0</ele>
        <time>2020-01-18T07:55:06.992Z</time>
      </trkpt>
      <trkpt lat="37.28856333" lon="-7.147285">
        <ele>30.0</ele>
        <time>2020-01-18T07:55:08.013Z</time>
      </trkpt>
      <trkpt lat="37.28856333" lon="-7.147285">
        <ele>30.0</ele>
        <time>2020-01-18T07:55:08.992Z</time>
      </trkpt>
      <trkpt lat="37.28861" lon="-7.14729667">
        <ele>31.0</ele>
        <time>2020-01-18T07:55:10.008Z</time>
      </trkpt>
      <trkpt lat="37.28861" lon="-7.14729667">
        <ele>31.0</ele>
        <time>2020-01-18T07:55:10.992Z</time>
      </trkpt>
      <trkpt lat="37.288655" lon="-7.14727333">
        <ele>31.0</ele>
        <time>2020-01-18T07:55:12.009Z</time>
      </trkpt>
      <trkpt lat="37.288655" lon="-7.14727333">
        <ele>31.0</ele>
        <time>2020-01-18T07:55:12.990Z</time>
      </trkpt>
      <trkpt lat="37.28870333" lon="-7.14726833">
        <ele>32.0</ele>
        <time>2020-01-18T07:55:14.008Z</time>
      </trkpt>
      <trkpt lat="37.28870333" lon="-7.14726833">
        <ele>32.0</ele>
        <time>2020-01-18T07:55:14.992Z</time>
      </trkpt>
      <trkpt lat="37.28876167" lon="-7.147275">
        <ele>32.0</ele>
        <time>2020-01-18T07:55:15.977Z</time>
      </trkpt>
      <trkpt lat="37.28876167" lon="-7.147275">
        <ele>32.0</ele>
        <time>2020-01-18T07:55:16.993Z</time>
      </trkpt>
      <trkpt lat="37.28883" lon="-7.14727333">
        <ele>32.0</ele>
        <time>2020-01-18T07:55:18.008Z</time>
      </trkpt>
      <trkpt lat="37.28883" lon="-7.14727333">
        <ele>32.0</ele>
        <time>2020-01-18T07:55:18.992Z</time>
      </trkpt>
      <trkpt lat="37.28890333" lon="-7.14727667">
        <ele>31.0</ele>
        <time>2020-01-18T07:55:20.008Z</time>
      </trkpt>
      <trkpt lat="37.28890333" lon="-7.14727667">
        <ele>31.0</ele>
        <time>2020-01-18T07:55:20.990Z</time>
      </trkpt>
      <trkpt lat="37.28897667" lon="-7.14729333">
        <ele>31.0</ele>
        <time>2020-01-18T07:55:22.005Z</time>
      </trkpt>
      <trkpt lat="37.28897667" lon="-7.14729333">
        <ele>31.0</ele>
        <time>2020-01-18T07:55:23.012Z</time>
      </trkpt>
      <trkpt lat="37.28905167" lon="-7.147305">
        <ele>31.0</ele>
        <time>2020-01-18T07:55:23.996Z</time>
      </trkpt>
      <trkpt lat="37.28905167" lon="-7.147305">
        <ele>31.0</ele>
        <time>2020-01-18T07:55:24.991Z</time>
      </trkpt>
      <trkpt lat="37.28912167" lon="-7.14731167">
        <ele>31.0</ele>
        <time>2020-01-18T07:55:26.006Z</time>
      </trkpt>
      <trkpt lat="37.28912167" lon="-7.14731167">
        <ele>31.0</ele>
        <time>2020-01-18T07:55:26.995Z</time>
      </trkpt>
      <trkpt lat="37.28915333" lon="-7.14733333">
        <ele>34.0</ele>
        <time>2020-01-18T07:55:27.996Z</time>
      </trkpt>
      <trkpt lat="37.28915333" lon="-7.14733333">
        <ele>34.0</ele>
        <time>2020-01-18T07:55:28.980Z</time>
      </trkpt>
      <trkpt lat="37.28918" lon="-7.14726833">
        <ele>33.0</ele>
        <time>2020-01-18T07:55:30.006Z</time>
      </trkpt>
      <trkpt lat="37.28918" lon="-7.14726833">
        <ele>33.0</ele>
        <time>2020-01-18T07:55:30.992Z</time>
      </trkpt>
      <trkpt lat="37.28919167" lon="-7.14719833">
        <ele>33.0</ele>
        <time>2020-01-18T07:55:32.006Z</time>
      </trkpt>
      <trkpt lat="37.28919167" lon="-7.14719833">
        <ele>33.0</ele>
        <time>2020-01-18T07:55:32.992Z</time>
      </trkpt>
      <trkpt lat="37.28920833" lon="-7.14711833">
        <ele>32.0</ele>
        <time>2020-01-18T07:55:34.008Z</time>
      </trkpt>
      <trkpt lat="37.28920833" lon="-7.14711833">
        <ele>32.0</ele>
        <time>2020-01-18T07:55:34.992Z</time>
      </trkpt>
      <trkpt lat="37.28923333" lon="-7.147025">
        <ele>32.0</ele>
        <time>2020-01-18T07:55:36.006Z</time>
      </trkpt>
      <trkpt lat="37.28923333" lon="-7.147025">
        <ele>32.0</ele>
        <time>2020-01-18T07:55:36.992Z</time>
      </trkpt>
      <trkpt lat="37.28925667" lon="-7.14692833">
        <ele>31.0</ele>
        <time>2020-01-18T07:55:38.006Z</time>
      </trkpt>
      <trkpt lat="37.28925667" lon="-7.14692833">
        <ele>31.0</ele>
        <time>2020-01-18T07:55:38.992Z</time>
      </trkpt>
      <trkpt lat="37.289295" lon="-7.146815">
        <ele>31.0</ele>
        <time>2020-01-18T07:55:40.006Z</time>
      </trkpt>
      <trkpt lat="37.289295" lon="-7.146815">
        <ele>31.0</ele>
        <time>2020-01-18T07:55:40.992Z</time>
      </trkpt>
      <trkpt lat="37.28932" lon="-7.14671833">
        <ele>30.0</ele>
        <time>2020-01-18T07:55:42.006Z</time>
      </trkpt>
      <trkpt lat="37.28932" lon="-7.14671833">
        <ele>30.0</ele>
        <time>2020-01-18T07:55:42.992Z</time>
      </trkpt>
      <trkpt lat="37.28935" lon="-7.14665167">
        <ele>32.0</ele>
        <time>2020-01-18T07:55:44.006Z</time>
      </trkpt>
      <trkpt lat="37.28935" lon="-7.14665167">
        <ele>32.0</ele>
        <time>2020-01-18T07:55:44.993Z</time>
      </trkpt>
      <trkpt lat="37.289375" lon="-7.14655">
        <ele>31.0</ele>
        <time>2020-01-18T07:55:46.009Z</time>
      </trkpt>
      <trkpt lat="37.289385" lon="-7.146495">
        <ele>31.0</ele>
        <time>2020-01-18T07:55:46.994Z</time>
      </trkpt>
      <trkpt lat="37.28939333" lon="-7.14644167">
        <ele>31.0</ele>
        <time>2020-01-18T07:55:48.009Z</time>
      </trkpt>
      <trkpt lat="37.28939333" lon="-7.14644167">
        <ele>31.0</ele>
        <time>2020-01-18T07:55:48.992Z</time>
      </trkpt>
      <trkpt lat="37.28940333" lon="-7.14633167">
        <ele>30.0</ele>
        <time>2020-01-18T07:55:50.008Z</time>
      </trkpt>
      <trkpt lat="37.28940333" lon="-7.14633167">
        <ele>30.0</ele>
        <time>2020-01-18T07:55:50.992Z</time>
      </trkpt>
      <trkpt lat="37.289415" lon="-7.146225">
        <ele>29.0</ele>
        <time>2020-01-18T07:55:52.008Z</time>
      </trkpt>
      <trkpt lat="37.28942167" lon="-7.14617167">
        <ele>29.0</ele>
        <time>2020-01-18T07:55:53.008Z</time>
      </trkpt>
      <trkpt lat="37.28942833" lon="-7.14611833">
        <ele>29.0</ele>
        <time>2020-01-18T07:55:53.996Z</time>
      </trkpt>
      <trkpt lat="37.28942833" lon="-7.14611833">
        <ele>29.0</ele>
        <time>2020-01-18T07:55:55.015Z</time>
      </trkpt>
      <trkpt lat="37.28944833" lon="-7.14601">
        <ele>28.0</ele>
        <time>2020-01-18T07:55:55.996Z</time>
      </trkpt>
      <trkpt lat="37.28945667" lon="-7.14595167">
        <ele>28.0</ele>
        <time>2020-01-18T07:55:57.007Z</time>
      </trkpt>
      <trkpt lat="37.28945667" lon="-7.14595167">
        <ele>28.0</ele>
        <time>2020-01-18T07:55:57.990Z</time>
      </trkpt>
      <trkpt lat="37.289475" lon="-7.14583167">
        <ele>27.0</ele>
        <time>2020-01-18T07:55:59.005Z</time>
      </trkpt>
      <trkpt lat="37.289485" lon="-7.14577">
        <ele>27.0</ele>
        <time>2020-01-18T07:55:59.996Z</time>
      </trkpt>
      <trkpt lat="37.289485" lon="-7.14577">
        <ele>27.0</ele>
        <time>2020-01-18T07:56:00.992Z</time>
      </trkpt>
      <trkpt lat="37.289505" lon="-7.14565333">
        <ele>28.0</ele>
        <time>2020-01-18T07:56:02.008Z</time>
      </trkpt>
      <trkpt lat="37.289505" lon="-7.14565333">
        <ele>28.0</ele>
        <time>2020-01-18T07:56:02.992Z</time>
      </trkpt>
      <trkpt lat="37.289515" lon="-7.14553667">
        <ele>27.0</ele>
        <time>2020-01-18T07:56:04.008Z</time>
      </trkpt>
      <trkpt lat="37.289515" lon="-7.14553667">
        <ele>27.0</ele>
        <time>2020-01-18T07:56:04.992Z</time>
      </trkpt>
      <trkpt lat="37.28952833" lon="-7.14542">
        <ele>27.0</ele>
        <time>2020-01-18T07:56:06.008Z</time>
      </trkpt>
      <trkpt lat="37.28952833" lon="-7.14542">
        <ele>27.0</ele>
        <time>2020-01-18T07:56:06.993Z</time>
      </trkpt>
      <trkpt lat="37.28953167" lon="-7.145305">
        <ele>27.0</ele>
        <time>2020-01-18T07:56:08.009Z</time>
      </trkpt>
      <trkpt lat="37.28953167" lon="-7.145305">
        <ele>27.0</ele>
        <time>2020-01-18T07:56:08.993Z</time>
      </trkpt>
      <trkpt lat="37.28954667" lon="-7.14518">
        <ele>27.0</ele>
        <time>2020-01-18T07:56:10.009Z</time>
      </trkpt>
      <trkpt lat="37.28954667" lon="-7.14518">
        <ele>27.0</ele>
        <time>2020-01-18T07:56:10.990Z</time>
      </trkpt>
      <trkpt lat="37.28956667" lon="-7.14505333">
        <ele>26.0</ele>
        <time>2020-01-18T07:56:12.005Z</time>
      </trkpt>
      <trkpt lat="37.28956667" lon="-7.14505333">
        <ele>26.0</ele>
        <time>2020-01-18T07:56:12.993Z</time>
      </trkpt>
      <trkpt lat="37.28958667" lon="-7.14491667">
        <ele>26.0</ele>
        <time>2020-01-18T07:56:14.008Z</time>
      </trkpt>
      <trkpt lat="37.28958667" lon="-7.14491667">
        <ele>26.0</ele>
        <time>2020-01-18T07:56:14.990Z</time>
      </trkpt>
      <trkpt lat="37.28960333" lon="-7.14477">
        <ele>25.0</ele>
        <time>2020-01-18T07:56:16.004Z</time>
      </trkpt>
      <trkpt lat="37.28960833" lon="-7.14470333">
        <ele>25.0</ele>
        <time>2020-01-18T07:56:16.995Z</time>
      </trkpt>
      <trkpt lat="37.28961167" lon="-7.14463833">
        <ele>24.0</ele>
        <time>2020-01-18T07:56:18.009Z</time>
      </trkpt>
      <trkpt lat="37.28961833" lon="-7.14457333">
        <ele>24.0</ele>
        <time>2020-01-18T07:56:18.980Z</time>
      </trkpt>
      <trkpt lat="37.28961833" lon="-7.14457333">
        <ele>24.0</ele>
        <time>2020-01-18T07:56:19.995Z</time>
      </trkpt>
      <trkpt lat="37.28963667" lon="-7.14444333">
        <ele>23.0</ele>
        <time>2020-01-18T07:56:21.009Z</time>
      </trkpt>
      <trkpt lat="37.28963667" lon="-7.14444333">
        <ele>23.0</ele>
        <time>2020-01-18T07:56:21.992Z</time>
      </trkpt>
      <trkpt lat="37.28965833" lon="-7.14430833">
        <ele>23.0</ele>
        <time>2020-01-18T07:56:22.995Z</time>
      </trkpt>
      <trkpt lat="37.28967" lon="-7.14424167">
        <ele>23.0</ele>
        <time>2020-01-18T07:56:24.010Z</time>
      </trkpt>
      <trkpt lat="37.28967" lon="-7.14424167">
        <ele>23.0</ele>
        <time>2020-01-18T07:56:24.992Z</time>
      </trkpt>
      <trkpt lat="37.289685" lon="-7.14410667">
        <ele>22.0</ele>
        <time>2020-01-18T07:56:26.007Z</time>
      </trkpt>
      <trkpt lat="37.289685" lon="-7.14410667">
        <ele>22.0</ele>
        <time>2020-01-18T07:56:26.992Z</time>
      </trkpt>
      <trkpt lat="37.2897" lon="-7.14397167">
        <ele>22.0</ele>
        <time>2020-01-18T07:56:28.009Z</time>
      </trkpt>
      <trkpt lat="37.2897" lon="-7.14397167">
        <ele>22.0</ele>
        <time>2020-01-18T07:56:28.992Z</time>
      </trkpt>
      <trkpt lat="37.28972167" lon="-7.14384333">
        <ele>21.0</ele>
        <time>2020-01-18T07:56:30.008Z</time>
      </trkpt>
      <trkpt lat="37.28972167" lon="-7.14384333">
        <ele>21.0</ele>
        <time>2020-01-18T07:56:30.993Z</time>
      </trkpt>
      <trkpt lat="37.28973833" lon="-7.14372667">
        <ele>21.0</ele>
        <time>2020-01-18T07:56:32.008Z</time>
      </trkpt>
      <trkpt lat="37.28973833" lon="-7.14372667">
        <ele>21.0</ele>
        <time>2020-01-18T07:56:32.990Z</time>
      </trkpt>
      <trkpt lat="37.28975833" lon="-7.14363">
        <ele>21.0</ele>
        <time>2020-01-18T07:56:34.005Z</time>
      </trkpt>
      <trkpt lat="37.28975833" lon="-7.14363">
        <ele>21.0</ele>
        <time>2020-01-18T07:56:34.992Z</time>
      </trkpt>
      <trkpt lat="37.28977" lon="-7.143545">
        <ele>21.0</ele>
        <time>2020-01-18T07:56:36.009Z</time>
      </trkpt>
      <trkpt lat="37.28977" lon="-7.143545">
        <ele>21.0</ele>
        <time>2020-01-18T07:56:36.990Z</time>
      </trkpt>
      <trkpt lat="37.28977833" lon="-7.14348">
        <ele>21.0</ele>
        <time>2020-01-18T07:56:38.007Z</time>
      </trkpt>
      <trkpt lat="37.28977833" lon="-7.14348">
        <ele>21.0</ele>
        <time>2020-01-18T07:56:38.992Z</time>
      </trkpt>
      <trkpt lat="37.28978833" lon="-7.14343333">
        <ele>21.0</ele>
        <time>2020-01-18T07:56:40.006Z</time>
      </trkpt>
      <trkpt lat="37.28978833" lon="-7.14343333">
        <ele>21.0</ele>
        <time>2020-01-18T07:56:40.990Z</time>
      </trkpt>
      <trkpt lat="37.28979167" lon="-7.1434">
        <ele>21.0</ele>
        <time>2020-01-18T07:56:42.004Z</time>
      </trkpt>
      <trkpt lat="37.28979167" lon="-7.1434">
        <ele>21.0</ele>
        <time>2020-01-18T07:56:42.993Z</time>
      </trkpt>
      <trkpt lat="37.28979667" lon="-7.14339">
        <ele>21.0</ele>
        <time>2020-01-18T07:56:44.007Z</time>
      </trkpt>
      <trkpt lat="37.28979667" lon="-7.14339">
        <ele>21.0</ele>
        <time>2020-01-18T07:56:44.988Z</time>
      </trkpt>
      <trkpt lat="37.28979667" lon="-7.14339">
        <ele>21.0</ele>
        <time>2020-01-18T07:56:45.978Z</time>
      </trkpt>
      <trkpt lat="37.28987167" lon="-7.14335333">
        <ele>23.0</ele>
        <time>2020-01-18T07:56:46.994Z</time>
      </trkpt>
      <trkpt lat="37.28987167" lon="-7.14335333">
        <ele>23.0</ele>
        <time>2020-01-18T07:56:47.980Z</time>
      </trkpt>
      <trkpt lat="37.28986667" lon="-7.14342167">
        <ele>24.0</ele>
        <time>2020-01-18T07:56:48.995Z</time>
      </trkpt>
      <trkpt lat="37.28986667" lon="-7.14342167">
        <ele>24.0</ele>
        <time>2020-01-18T07:56:49.985Z</time>
      </trkpt>
      <trkpt lat="37.28984833" lon="-7.14350833">
        <ele>25.0</ele>
        <time>2020-01-18T07:56:51.001Z</time>
      </trkpt>
      <trkpt lat="37.28984833" lon="-7.14350833">
        <ele>25.0</ele>
        <time>2020-01-18T07:56:51.981Z</time>
      </trkpt>
      <trkpt lat="37.28982833" lon="-7.14360833">
        <ele>25.0</ele>
        <time>2020-01-18T07:56:52.996Z</time>
      </trkpt>
      <trkpt lat="37.28982833" lon="-7.14360833">
        <ele>25.0</ele>
        <time>2020-01-18T07:56:53.981Z</time>
      </trkpt>
      <trkpt lat="37.28981167" lon="-7.143715">
        <ele>25.0</ele>
        <time>2020-01-18T07:56:54.995Z</time>
      </trkpt>
      <trkpt lat="37.28980167" lon="-7.14377">
        <ele>26.0</ele>
        <time>2020-01-18T07:56:55.981Z</time>
      </trkpt>
      <trkpt lat="37.28980167" lon="-7.14377">
        <ele>26.0</ele>
        <time>2020-01-18T07:56:56.997Z</time>
      </trkpt>
      <trkpt lat="37.28978833" lon="-7.14388167">
        <ele>26.0</ele>
        <time>2020-01-18T07:56:57.981Z</time>
      </trkpt>
      <trkpt lat="37.28978" lon="-7.14393833">
        <ele>26.0</ele>
        <time>2020-01-18T07:56:58.995Z</time>
      </trkpt>
      <trkpt lat="37.28978" lon="-7.14393833">
        <ele>26.0</ele>
        <time>2020-01-18T07:56:59.981Z</time>
      </trkpt>
      <trkpt lat="37.28976333" lon="-7.144055">
        <ele>27.0</ele>
        <time>2020-01-18T07:57:00.995Z</time>
      </trkpt>
      <trkpt lat="37.28976333" lon="-7.144055">
        <ele>27.0</ele>
        <time>2020-01-18T07:57:01.980Z</time>
      </trkpt>
      <trkpt lat="37.28974167" lon="-7.14417333">
        <ele>27.0</ele>
        <time>2020-01-18T07:57:02.996Z</time>
      </trkpt>
      <trkpt lat="37.28974167" lon="-7.14417333">
        <ele>27.0</ele>
        <time>2020-01-18T07:57:03.981Z</time>
      </trkpt>
      <trkpt lat="37.28972333" lon="-7.14429333">
        <ele>27.0</ele>
        <time>2020-01-18T07:57:04.996Z</time>
      </trkpt>
      <trkpt lat="37.28972333" lon="-7.14429333">
        <ele>27.0</ele>
        <time>2020-01-18T07:57:05.981Z</time>
      </trkpt>
      <trkpt lat="37.28970167" lon="-7.14441333">
        <ele>28.0</ele>
        <time>2020-01-18T07:57:06.995Z</time>
      </trkpt>
      <trkpt lat="37.28970167" lon="-7.14441333">
        <ele>28.0</ele>
        <time>2020-01-18T07:57:07.979Z</time>
      </trkpt>
      <trkpt lat="37.28968167" lon="-7.14454167">
        <ele>28.0</ele>
        <time>2020-01-18T07:57:08.997Z</time>
      </trkpt>
      <trkpt lat="37.28968167" lon="-7.14454167">
        <ele>28.0</ele>
        <time>2020-01-18T07:57:09.981Z</time>
      </trkpt>
      <trkpt lat="37.28966333" lon="-7.14466667">
        <ele>28.0</ele>
        <time>2020-01-18T07:57:10.996Z</time>
      </trkpt>
      <trkpt lat="37.28966333" lon="-7.14466667">
        <ele>28.0</ele>
        <time>2020-01-18T07:57:11.980Z</time>
      </trkpt>
      <trkpt lat="37.28964333" lon="-7.144795">
        <ele>28.0</ele>
        <time>2020-01-18T07:57:12.993Z</time>
      </trkpt>
      <trkpt lat="37.28964333" lon="-7.144795">
        <ele>28.0</ele>
        <time>2020-01-18T07:57:13.997Z</time>
      </trkpt>
      <trkpt lat="37.28962333" lon="-7.14492167">
        <ele>28.0</ele>
        <time>2020-01-18T07:57:14.985Z</time>
      </trkpt>
      <trkpt lat="37.28961333" lon="-7.14498333">
        <ele>28.0</ele>
        <time>2020-01-18T07:57:15.992Z</time>
      </trkpt>
      <trkpt lat="37.28961333" lon="-7.14498333">
        <ele>28.0</ele>
        <time>2020-01-18T07:57:17.000Z</time>
      </trkpt>
      <trkpt lat="37.28959167" lon="-7.14510833">
        <ele>28.0</ele>
        <time>2020-01-18T07:57:17.982Z</time>
      </trkpt>
      <trkpt lat="37.28959167" lon="-7.14510833">
        <ele>28.0</ele>
        <time>2020-01-18T07:57:18.988Z</time>
      </trkpt>
      <trkpt lat="37.28957167" lon="-7.14522833">
        <ele>28.0</ele>
        <time>2020-01-18T07:57:20.008Z</time>
      </trkpt>
      <trkpt lat="37.28957167" lon="-7.14522833">
        <ele>28.0</ele>
        <time>2020-01-18T07:57:20.983Z</time>
      </trkpt>
      <trkpt lat="37.28955167" lon="-7.14534667">
        <ele>28.0</ele>
        <time>2020-01-18T07:57:22.000Z</time>
      </trkpt>
      <trkpt lat="37.28954333" lon="-7.14540667">
        <ele>28.0</ele>
        <time>2020-01-18T07:57:22.984Z</time>
      </trkpt>
      <trkpt lat="37.28954333" lon="-7.14540667">
        <ele>28.0</ele>
        <time>2020-01-18T07:57:23.999Z</time>
      </trkpt>
      <trkpt lat="37.28952833" lon="-7.14552667">
        <ele>28.0</ele>
        <time>2020-01-18T07:57:24.984Z</time>
      </trkpt>
      <trkpt lat="37.28952833" lon="-7.14552667">
        <ele>28.0</ele>
        <time>2020-01-18T07:57:25.998Z</time>
      </trkpt>
      <trkpt lat="37.28950833" lon="-7.14564833">
        <ele>29.0</ele>
        <time>2020-01-18T07:57:26.985Z</time>
      </trkpt>
      <trkpt lat="37.28950833" lon="-7.14564833">
        <ele>29.0</ele>
        <time>2020-01-18T07:57:28.000Z</time>
      </trkpt>
      <trkpt lat="37.289495" lon="-7.14577833">
        <ele>28.0</ele>
        <time>2020-01-18T07:57:28.995Z</time>
      </trkpt>
      <trkpt lat="37.289495" lon="-7.14577833">
        <ele>28.0</ele>
        <time>2020-01-18T07:57:30.014Z</time>
      </trkpt>
      <trkpt lat="37.28948167" lon="-7.145905">
        <ele>29.0</ele>
        <time>2020-01-18T07:57:30.989Z</time>
      </trkpt>
      <trkpt lat="37.28948167" lon="-7.145905">
        <ele>29.0</ele>
        <time>2020-01-18T07:57:31.984Z</time>
      </trkpt>
      <trkpt lat="37.289465" lon="-7.14603167">
        <ele>29.0</ele>
        <time>2020-01-18T07:57:32.998Z</time>
      </trkpt>
      <trkpt lat="37.289465" lon="-7.14603167">
        <ele>29.0</ele>
        <time>2020-01-18T07:57:33.984Z</time>
      </trkpt>
      <trkpt lat="37.28944667" lon="-7.14616833">
        <ele>29.0</ele>
        <time>2020-01-18T07:57:34.999Z</time>
      </trkpt>
      <trkpt lat="37.28944667" lon="-7.14616833">
        <ele>29.0</ele>
        <time>2020-01-18T07:57:35.977Z</time>
      </trkpt>
      <trkpt lat="37.28943" lon="-7.14630167">
        <ele>28.0</ele>
        <time>2020-01-18T07:57:36.998Z</time>
      </trkpt>
      <trkpt lat="37.28942" lon="-7.146365">
        <ele>28.0</ele>
        <time>2020-01-18T07:57:37.983Z</time>
      </trkpt>
      <trkpt lat="37.28940833" lon="-7.14642667">
        <ele>28.0</ele>
        <time>2020-01-18T07:57:38.983Z</time>
      </trkpt>
      <trkpt lat="37.28940833" lon="-7.14642667">
        <ele>28.0</ele>
        <time>2020-01-18T07:57:39.997Z</time>
      </trkpt>
      <trkpt lat="37.28938833" lon="-7.14655">
        <ele>28.0</ele>
        <time>2020-01-18T07:57:40.984Z</time>
      </trkpt>
      <trkpt lat="37.28938833" lon="-7.14655">
        <ele>28.0</ele>
        <time>2020-01-18T07:57:41.998Z</time>
      </trkpt>
      <trkpt lat="37.289365" lon="-7.14667333">
        <ele>29.0</ele>
        <time>2020-01-18T07:57:42.983Z</time>
      </trkpt>
      <trkpt lat="37.289365" lon="-7.14667333">
        <ele>29.0</ele>
        <time>2020-01-18T07:57:44.000Z</time>
      </trkpt>
      <trkpt lat="37.28934333" lon="-7.14679333">
        <ele>29.0</ele>
        <time>2020-01-18T07:57:44.984Z</time>
      </trkpt>
      <trkpt lat="37.28934333" lon="-7.14679333">
        <ele>29.0</ele>
        <time>2020-01-18T07:57:45.981Z</time>
      </trkpt>
      <trkpt lat="37.289325" lon="-7.146915">
        <ele>29.0</ele>
        <time>2020-01-18T07:57:46.998Z</time>
      </trkpt>
      <trkpt lat="37.289325" lon="-7.146915">
        <ele>29.0</ele>
        <time>2020-01-18T07:57:47.981Z</time>
      </trkpt>
      <trkpt lat="37.28930667" lon="-7.14703167">
        <ele>29.0</ele>
        <time>2020-01-18T07:57:49.006Z</time>
      </trkpt>
      <trkpt lat="37.28929667" lon="-7.14709">
        <ele>29.0</ele>
        <time>2020-01-18T07:57:49.984Z</time>
      </trkpt>
      <trkpt lat="37.28928833" lon="-7.147145">
        <ele>29.0</ele>
        <time>2020-01-18T07:57:50.998Z</time>
      </trkpt>
      <trkpt lat="37.28928833" lon="-7.147145">
        <ele>29.0</ele>
        <time>2020-01-18T07:57:51.981Z</time>
      </trkpt>
      <trkpt lat="37.28928167" lon="-7.14725667">
        <ele>29.0</ele>
        <time>2020-01-18T07:57:52.996Z</time>
      </trkpt>
      <trkpt lat="37.28928167" lon="-7.14725667">
        <ele>29.0</ele>
        <time>2020-01-18T07:57:53.981Z</time>
      </trkpt>
      <trkpt lat="37.28927667" lon="-7.14736667">
        <ele>29.0</ele>
        <time>2020-01-18T07:57:54.996Z</time>
      </trkpt>
      <trkpt lat="37.28927667" lon="-7.14736667">
        <ele>29.0</ele>
        <time>2020-01-18T07:57:55.981Z</time>
      </trkpt>
      <trkpt lat="37.28927" lon="-7.14748">
        <ele>29.0</ele>
        <time>2020-01-18T07:57:56.982Z</time>
      </trkpt>
      <trkpt lat="37.28927167" lon="-7.14753833">
        <ele>29.0</ele>
        <time>2020-01-18T07:57:57.996Z</time>
      </trkpt>
      <trkpt lat="37.28927667" lon="-7.1476">
        <ele>28.0</ele>
        <time>2020-01-18T07:57:58.987Z</time>
      </trkpt>
      <trkpt lat="37.28927667" lon="-7.1476">
        <ele>28.0</ele>
        <time>2020-01-18T07:57:59.980Z</time>
      </trkpt>
      <trkpt lat="37.28928667" lon="-7.14772333">
        <ele>28.0</ele>
        <time>2020-01-18T07:58:00.995Z</time>
      </trkpt>
      <trkpt lat="37.28928667" lon="-7.14772333">
        <ele>28.0</ele>
        <time>2020-01-18T07:58:01.981Z</time>
      </trkpt>
      <trkpt lat="37.289295" lon="-7.147845">
        <ele>28.0</ele>
        <time>2020-01-18T07:58:02.996Z</time>
      </trkpt>
      <trkpt lat="37.289295" lon="-7.147845">
        <ele>28.0</ele>
        <time>2020-01-18T07:58:03.981Z</time>
      </trkpt>
      <trkpt lat="37.28929667" lon="-7.14796667">
        <ele>28.0</ele>
        <time>2020-01-18T07:58:04.995Z</time>
      </trkpt>
      <trkpt lat="37.28929667" lon="-7.14796667">
        <ele>28.0</ele>
        <time>2020-01-18T07:58:05.978Z</time>
      </trkpt>
      <trkpt lat="37.28929167" lon="-7.14808667">
        <ele>28.0</ele>
        <time>2020-01-18T07:58:06.998Z</time>
      </trkpt>
      <trkpt lat="37.28929167" lon="-7.14808667">
        <ele>28.0</ele>
        <time>2020-01-18T07:58:07.981Z</time>
      </trkpt>
      <trkpt lat="37.28928333" lon="-7.14820333">
        <ele>28.0</ele>
        <time>2020-01-18T07:58:09.010Z</time>
      </trkpt>
      <trkpt lat="37.28928333" lon="-7.14820333">
        <ele>28.0</ele>
        <time>2020-01-18T07:58:09.984Z</time>
      </trkpt>
      <trkpt lat="37.289275" lon="-7.14832333">
        <ele>28.0</ele>
        <time>2020-01-18T07:58:10.999Z</time>
      </trkpt>
      <trkpt lat="37.289275" lon="-7.14832333">
        <ele>28.0</ele>
        <time>2020-01-18T07:58:11.981Z</time>
      </trkpt>
      <trkpt lat="37.28927" lon="-7.14844167">
        <ele>28.0</ele>
        <time>2020-01-18T07:58:12.996Z</time>
      </trkpt>
      <trkpt lat="37.28927" lon="-7.14844167">
        <ele>28.0</ele>
        <time>2020-01-18T07:58:13.998Z</time>
      </trkpt>
      <trkpt lat="37.28925833" lon="-7.148555">
        <ele>29.0</ele>
        <time>2020-01-18T07:58:14.985Z</time>
      </trkpt>
      <trkpt lat="37.28925833" lon="-7.148555">
        <ele>29.0</ele>
        <time>2020-01-18T07:58:15.981Z</time>
      </trkpt>
      <trkpt lat="37.289245" lon="-7.14866667">
        <ele>30.0</ele>
        <time>2020-01-18T07:58:16.999Z</time>
      </trkpt>
      <trkpt lat="37.28923667" lon="-7.14872333">
        <ele>31.0</ele>
        <time>2020-01-18T07:58:17.984Z</time>
      </trkpt>
      <trkpt lat="37.28923667" lon="-7.14872333">
        <ele>31.0</ele>
        <time>2020-01-18T07:58:19.004Z</time>
      </trkpt>
      <trkpt lat="37.28921833" lon="-7.14884167">
        <ele>30.0</ele>
        <time>2020-01-18T07:58:19.983Z</time>
      </trkpt>
      <trkpt lat="37.28920667" lon="-7.14890333">
        <ele>31.0</ele>
        <time>2020-01-18T07:58:20.997Z</time>
      </trkpt>
      <trkpt lat="37.28920667" lon="-7.14890333">
        <ele>31.0</ele>
        <time>2020-01-18T07:58:21.981Z</time>
      </trkpt>
      <trkpt lat="37.28919333" lon="-7.14902333">
        <ele>32.0</ele>
        <time>2020-01-18T07:58:22.995Z</time>
      </trkpt>
      <trkpt lat="37.28919333" lon="-7.14902333">
        <ele>32.0</ele>
        <time>2020-01-18T07:58:23.980Z</time>
      </trkpt>
      <trkpt lat="37.28918" lon="-7.14914167">
        <ele>34.0</ele>
        <time>2020-01-18T07:58:25.004Z</time>
      </trkpt>
      <trkpt lat="37.28917" lon="-7.14921">
        <ele>34.0</ele>
        <time>2020-01-18T07:58:25.984Z</time>
      </trkpt>
      <trkpt lat="37.28916167" lon="-7.14927333">
        <ele>34.0</ele>
        <time>2020-01-18T07:58:26.998Z</time>
      </trkpt>
      <trkpt lat="37.28916167" lon="-7.14927333">
        <ele>34.0</ele>
        <time>2020-01-18T07:58:27.981Z</time>
      </trkpt>
      <trkpt lat="37.28914333" lon="-7.14939833">
        <ele>35.0</ele>
        <time>2020-01-18T07:58:29.004Z</time>
      </trkpt>
      <trkpt lat="37.28913167" lon="-7.14946333">
        <ele>35.0</ele>
        <time>2020-01-18T07:58:29.984Z</time>
      </trkpt>
      <trkpt lat="37.28913167" lon="-7.14946333">
        <ele>35.0</ele>
        <time>2020-01-18T07:58:31.004Z</time>
      </trkpt>
      <trkpt lat="37.28911167" lon="-7.14959167">
        <ele>35.0</ele>
        <time>2020-01-18T07:58:31.984Z</time>
      </trkpt>
      <trkpt lat="37.28910167" lon="-7.14965667">
        <ele>36.0</ele>
        <time>2020-01-18T07:58:32.998Z</time>
      </trkpt>
      <trkpt lat="37.28910167" lon="-7.14965667">
        <ele>36.0</ele>
        <time>2020-01-18T07:58:33.979Z</time>
      </trkpt>
      <trkpt lat="37.28907667" lon="-7.14977">
        <ele>37.0</ele>
        <time>2020-01-18T07:58:34.995Z</time>
      </trkpt>
      <trkpt lat="37.28907667" lon="-7.14977">
        <ele>37.0</ele>
        <time>2020-01-18T07:58:35.981Z</time>
      </trkpt>
      <trkpt lat="37.289055" lon="-7.14989167">
        <ele>38.0</ele>
        <time>2020-01-18T07:58:36.982Z</time>
      </trkpt>
      <trkpt lat="37.28904833" lon="-7.14996167">
        <ele>38.0</ele>
        <time>2020-01-18T07:58:37.984Z</time>
      </trkpt>
      <trkpt lat="37.28904167" lon="-7.15003167">
        <ele>38.0</ele>
        <time>2020-01-18T07:58:39.004Z</time>
      </trkpt>
      <trkpt lat="37.28904167" lon="-7.15003167">
        <ele>38.0</ele>
        <time>2020-01-18T07:58:39.981Z</time>
      </trkpt>
      <trkpt lat="37.28902833" lon="-7.150165">
        <ele>38.0</ele>
        <time>2020-01-18T07:58:40.995Z</time>
      </trkpt>
      <trkpt lat="37.28902833" lon="-7.150165">
        <ele>38.0</ele>
        <time>2020-01-18T07:58:41.983Z</time>
      </trkpt>
      <trkpt lat="37.28902667" lon="-7.150295">
        <ele>38.0</ele>
        <time>2020-01-18T07:58:42.998Z</time>
      </trkpt>
      <trkpt lat="37.28902667" lon="-7.150295">
        <ele>38.0</ele>
        <time>2020-01-18T07:58:43.981Z</time>
      </trkpt>
      <trkpt lat="37.289045" lon="-7.150405">
        <ele>36.0</ele>
        <time>2020-01-18T07:58:44.996Z</time>
      </trkpt>
      <trkpt lat="37.289045" lon="-7.150405">
        <ele>36.0</ele>
        <time>2020-01-18T07:58:45.978Z</time>
      </trkpt>
      <trkpt lat="37.28908" lon="-7.15048">
        <ele>35.0</ele>
        <time>2020-01-18T07:58:46.999Z</time>
      </trkpt>
      <trkpt lat="37.28908" lon="-7.15048">
        <ele>35.0</ele>
        <time>2020-01-18T07:58:47.981Z</time>
      </trkpt>
      <trkpt lat="37.28914167" lon="-7.15048667">
        <ele>34.0</ele>
        <time>2020-01-18T07:58:49.005Z</time>
      </trkpt>
      <trkpt lat="37.28914167" lon="-7.15048667">
        <ele>34.0</ele>
        <time>2020-01-18T07:58:49.980Z</time>
      </trkpt>
      <trkpt lat="37.289215" lon="-7.150475">
        <ele>33.0</ele>
        <time>2020-01-18T07:58:50.995Z</time>
      </trkpt>
      <trkpt lat="37.289215" lon="-7.150475">
        <ele>33.0</ele>
        <time>2020-01-18T07:58:51.981Z</time>
      </trkpt>
      <trkpt lat="37.28929" lon="-7.15045833">
        <ele>33.0</ele>
        <time>2020-01-18T07:58:52.996Z</time>
      </trkpt>
      <trkpt lat="37.28929" lon="-7.15045833">
        <ele>33.0</ele>
        <time>2020-01-18T07:58:53.981Z</time>
      </trkpt>
      <trkpt lat="37.28936833" lon="-7.15043167">
        <ele>33.0</ele>
        <time>2020-01-18T07:58:54.996Z</time>
      </trkpt>
      <trkpt lat="37.28940833" lon="-7.15042167">
        <ele>33.0</ele>
        <time>2020-01-18T07:58:55.984Z</time>
      </trkpt>
      <trkpt lat="37.28944833" lon="-7.15041167">
        <ele>33.0</ele>
        <time>2020-01-18T07:58:56.998Z</time>
      </trkpt>
      <trkpt lat="37.28944833" lon="-7.15041167">
        <ele>33.0</ele>
        <time>2020-01-18T07:58:57.981Z</time>
      </trkpt>
      <trkpt lat="37.28953167" lon="-7.15038833">
        <ele>33.0</ele>
        <time>2020-01-18T07:58:58.995Z</time>
      </trkpt>
      <trkpt lat="37.28953167" lon="-7.15038833">
        <ele>33.0</ele>
        <time>2020-01-18T07:58:59.979Z</time>
      </trkpt>
      <trkpt lat="37.28961" lon="-7.15036333">
        <ele>33.0</ele>
        <time>2020-01-18T07:59:00.993Z</time>
      </trkpt>
      <trkpt lat="37.28961" lon="-7.15036333">
        <ele>33.0</ele>
        <time>2020-01-18T07:59:01.984Z</time>
      </trkpt>
      <trkpt lat="37.28969" lon="-7.150355">
        <ele>34.0</ele>
        <time>2020-01-18T07:59:02.998Z</time>
      </trkpt>
      <trkpt lat="37.28969" lon="-7.150355">
        <ele>34.0</ele>
        <time>2020-01-18T07:59:03.978Z</time>
      </trkpt>
      <trkpt lat="37.28977167" lon="-7.15034667">
        <ele>35.0</ele>
        <time>2020-01-18T07:59:04.996Z</time>
      </trkpt>
      <trkpt lat="37.28977167" lon="-7.15034667">
        <ele>35.0</ele>
        <time>2020-01-18T07:59:05.981Z</time>
      </trkpt>
      <trkpt lat="37.28986333" lon="-7.15032333">
        <ele>34.0</ele>
        <time>2020-01-18T07:59:06.996Z</time>
      </trkpt>
      <trkpt lat="37.28986333" lon="-7.15032333">
        <ele>34.0</ele>
        <time>2020-01-18T07:59:07.981Z</time>
      </trkpt>
      <trkpt lat="37.28995667" lon="-7.150295">
        <ele>34.0</ele>
        <time>2020-01-18T07:59:08.998Z</time>
      </trkpt>
      <trkpt lat="37.28995667" lon="-7.150295">
        <ele>34.0</ele>
        <time>2020-01-18T07:59:09.981Z</time>
      </trkpt>
      <trkpt lat="37.29004667" lon="-7.15025833">
        <ele>34.0</ele>
        <time>2020-01-18T07:59:10.996Z</time>
      </trkpt>
      <trkpt lat="37.29004667" lon="-7.15025833">
        <ele>34.0</ele>
        <time>2020-01-18T07:59:11.981Z</time>
      </trkpt>
      <trkpt lat="37.290135" lon="-7.15021333">
        <ele>34.0</ele>
        <time>2020-01-18T07:59:12.996Z</time>
      </trkpt>
      <trkpt lat="37.290135" lon="-7.15021333">
        <ele>34.0</ele>
        <time>2020-01-18T07:59:13.984Z</time>
      </trkpt>
      <trkpt lat="37.290225" lon="-7.15016167">
        <ele>33.0</ele>
        <time>2020-01-18T07:59:14.999Z</time>
      </trkpt>
      <trkpt lat="37.290225" lon="-7.15016167">
        <ele>33.0</ele>
        <time>2020-01-18T07:59:15.979Z</time>
      </trkpt>
      <trkpt lat="37.29031333" lon="-7.150115">
        <ele>33.0</ele>
        <time>2020-01-18T07:59:16.999Z</time>
      </trkpt>
      <trkpt lat="37.29035667" lon="-7.15009">
        <ele>33.0</ele>
        <time>2020-01-18T07:59:17.982Z</time>
      </trkpt>
      <trkpt lat="37.29040333" lon="-7.15006667">
        <ele>33.0</ele>
        <time>2020-01-18T07:59:18.997Z</time>
      </trkpt>
      <trkpt lat="37.29040333" lon="-7.15006667">
        <ele>33.0</ele>
        <time>2020-01-18T07:59:20.015Z</time>
      </trkpt>
      <trkpt lat="37.29050333" lon="-7.150025">
        <ele>33.0</ele>
        <time>2020-01-18T07:59:20.990Z</time>
      </trkpt>
      <trkpt lat="37.29050333" lon="-7.150025">
        <ele>33.0</ele>
        <time>2020-01-18T07:59:21.981Z</time>
      </trkpt>
      <trkpt lat="37.2906" lon="-7.149975">
        <ele>33.0</ele>
        <time>2020-01-18T07:59:22.997Z</time>
      </trkpt>
      <trkpt lat="37.29064667" lon="-7.14994833">
        <ele>33.0</ele>
        <time>2020-01-18T07:59:23.981Z</time>
      </trkpt>
      <trkpt lat="37.29064667" lon="-7.14994833">
        <ele>33.0</ele>
        <time>2020-01-18T07:59:24.997Z</time>
      </trkpt>
      <trkpt lat="37.29074" lon="-7.14989167">
        <ele>32.0</ele>
        <time>2020-01-18T07:59:25.985Z</time>
      </trkpt>
      <trkpt lat="37.29078167" lon="-7.14986">
        <ele>32.0</ele>
        <time>2020-01-18T07:59:27.000Z</time>
      </trkpt>
      <trkpt lat="37.29078167" lon="-7.14986">
        <ele>32.0</ele>
        <time>2020-01-18T07:59:27.978Z</time>
      </trkpt>
      <trkpt lat="37.29085" lon="-7.149775">
        <ele>32.0</ele>
        <time>2020-01-18T07:59:29.005Z</time>
      </trkpt>
      <trkpt lat="37.29085" lon="-7.149775">
        <ele>32.0</ele>
        <time>2020-01-18T07:59:29.991Z</time>
      </trkpt>
      <trkpt lat="37.29091" lon="-7.14967833">
        <ele>32.0</ele>
        <time>2020-01-18T07:59:30.984Z</time>
      </trkpt>
      <trkpt lat="37.29091" lon="-7.14967833">
        <ele>32.0</ele>
        <time>2020-01-18T07:59:32.000Z</time>
      </trkpt>
      <trkpt lat="37.29096833" lon="-7.14958333">
        <ele>31.0</ele>
        <time>2020-01-18T07:59:32.984Z</time>
      </trkpt>
      <trkpt lat="37.29096833" lon="-7.14958333">
        <ele>31.0</ele>
        <time>2020-01-18T07:59:34.000Z</time>
      </trkpt>
      <trkpt lat="37.29102667" lon="-7.14948333">
        <ele>31.0</ele>
        <time>2020-01-18T07:59:34.984Z</time>
      </trkpt>
      <trkpt lat="37.29102667" lon="-7.14948333">
        <ele>31.0</ele>
        <time>2020-01-18T07:59:35.998Z</time>
      </trkpt>
      <trkpt lat="37.29107667" lon="-7.14938">
        <ele>31.0</ele>
        <time>2020-01-18T07:59:36.986Z</time>
      </trkpt>
      <trkpt lat="37.29110167" lon="-7.14933167">
        <ele>31.0</ele>
        <time>2020-01-18T07:59:38.000Z</time>
      </trkpt>
      <trkpt lat="37.291125" lon="-7.14928333">
        <ele>31.0</ele>
        <time>2020-01-18T07:59:38.984Z</time>
      </trkpt>
      <trkpt lat="37.291125" lon="-7.14928333">
        <ele>31.0</ele>
        <time>2020-01-18T07:59:40.008Z</time>
      </trkpt>
      <trkpt lat="37.29116833" lon="-7.149185">
        <ele>31.0</ele>
        <time>2020-01-18T07:59:40.984Z</time>
      </trkpt>
      <trkpt lat="37.29116833" lon="-7.149185">
        <ele>31.0</ele>
        <time>2020-01-18T07:59:41.998Z</time>
      </trkpt>
      <trkpt lat="37.29121333" lon="-7.149085">
        <ele>31.0</ele>
        <time>2020-01-18T07:59:42.984Z</time>
      </trkpt>
      <trkpt lat="37.29121333" lon="-7.149085">
        <ele>31.0</ele>
        <time>2020-01-18T07:59:44.006Z</time>
      </trkpt>
      <trkpt lat="37.29126" lon="-7.14898167">
        <ele>31.0</ele>
        <time>2020-01-18T07:59:44.990Z</time>
      </trkpt>
      <trkpt lat="37.29128167" lon="-7.14893">
        <ele>31.0</ele>
        <time>2020-01-18T07:59:46.015Z</time>
      </trkpt>
      <trkpt lat="37.29128167" lon="-7.14893">
        <ele>31.0</ele>
        <time>2020-01-18T07:59:46.992Z</time>
      </trkpt>
      <trkpt lat="37.29132667" lon="-7.148825">
        <ele>31.0</ele>
        <time>2020-01-18T07:59:48.003Z</time>
      </trkpt>
      <trkpt lat="37.29132667" lon="-7.148825">
        <ele>31.0</ele>
        <time>2020-01-18T07:59:49.014Z</time>
      </trkpt>
      <trkpt lat="37.29137333" lon="-7.14871667">
        <ele>31.0</ele>
        <time>2020-01-18T07:59:49.998Z</time>
      </trkpt>
      <trkpt lat="37.29139833" lon="-7.14866333">
        <ele>31.0</ele>
        <time>2020-01-18T07:59:51.011Z</time>
      </trkpt>
      <trkpt lat="37.29139833" lon="-7.14866333">
        <ele>31.0</ele>
        <time>2020-01-18T07:59:51.989Z</time>
      </trkpt>
      <trkpt lat="37.29145" lon="-7.14855333">
        <ele>31.0</ele>
        <time>2020-01-18T07:59:53.000Z</time>
      </trkpt>
      <trkpt lat="37.29145" lon="-7.14855333">
        <ele>31.0</ele>
        <time>2020-01-18T07:59:54.013Z</time>
      </trkpt>
      <trkpt lat="37.291505" lon="-7.14844667">
        <ele>31.0</ele>
        <time>2020-01-18T07:59:54.984Z</time>
      </trkpt>
      <trkpt lat="37.291505" lon="-7.14844667">
        <ele>31.0</ele>
        <time>2020-01-18T07:59:55.995Z</time>
      </trkpt>
      <trkpt lat="37.29156333" lon="-7.14833667">
        <ele>31.0</ele>
        <time>2020-01-18T07:59:57.001Z</time>
      </trkpt>
      <trkpt lat="37.29156333" lon="-7.14833667">
        <ele>31.0</ele>
        <time>2020-01-18T07:59:57.994Z</time>
      </trkpt>
      <trkpt lat="37.29162167" lon="-7.14823">
        <ele>31.0</ele>
        <time>2020-01-18T07:59:58.984Z</time>
      </trkpt>
      <trkpt lat="37.29162167" lon="-7.14823">
        <ele>31.0</ele>
        <time>2020-01-18T07:59:59.999Z</time>
      </trkpt>
      <trkpt lat="37.291685" lon="-7.14812333">
        <ele>31.0</ele>
        <time>2020-01-18T08:00:00.985Z</time>
      </trkpt>
      <trkpt lat="37.291685" lon="-7.14812333">
        <ele>31.0</ele>
        <time>2020-01-18T08:00:02.000Z</time>
      </trkpt>
      <trkpt lat="37.29174833" lon="-7.14802">
        <ele>31.0</ele>
        <time>2020-01-18T08:00:02.984Z</time>
      </trkpt>
      <trkpt lat="37.29174833" lon="-7.14802">
        <ele>31.0</ele>
        <time>2020-01-18T08:00:04.004Z</time>
      </trkpt>
      <trkpt lat="37.29181167" lon="-7.14791333">
        <ele>31.0</ele>
        <time>2020-01-18T08:00:04.984Z</time>
      </trkpt>
      <trkpt lat="37.29181167" lon="-7.14791333">
        <ele>31.0</ele>
        <time>2020-01-18T08:00:05.999Z</time>
      </trkpt>
      <trkpt lat="37.29187333" lon="-7.14781">
        <ele>31.0</ele>
        <time>2020-01-18T08:00:06.990Z</time>
      </trkpt>
      <trkpt lat="37.291905" lon="-7.14775667">
        <ele>31.0</ele>
        <time>2020-01-18T08:00:07.983Z</time>
      </trkpt>
      <trkpt lat="37.29193333" lon="-7.14770333">
        <ele>31.0</ele>
        <time>2020-01-18T08:00:08.999Z</time>
      </trkpt>
      <trkpt lat="37.29193333" lon="-7.14770333">
        <ele>31.0</ele>
        <time>2020-01-18T08:00:09.981Z</time>
      </trkpt>
      <trkpt lat="37.291995" lon="-7.14760333">
        <ele>31.0</ele>
        <time>2020-01-18T08:00:10.995Z</time>
      </trkpt>
      <trkpt lat="37.292025" lon="-7.14755333">
        <ele>31.0</ele>
        <time>2020-01-18T08:00:11.983Z</time>
      </trkpt>
      <trkpt lat="37.292025" lon="-7.14755333">
        <ele>31.0</ele>
        <time>2020-01-18T08:00:12.997Z</time>
      </trkpt>
      <trkpt lat="37.292085" lon="-7.14745333">
        <ele>31.0</ele>
        <time>2020-01-18T08:00:14.002Z</time>
      </trkpt>
      <trkpt lat="37.29211333" lon="-7.14740333">
        <ele>31.0</ele>
        <time>2020-01-18T08:00:14.986Z</time>
      </trkpt>
      <trkpt lat="37.29214333" lon="-7.14735167">
        <ele>31.0</ele>
        <time>2020-01-18T08:00:15.978Z</time>
      </trkpt>
      <trkpt lat="37.29214333" lon="-7.14735167">
        <ele>31.0</ele>
        <time>2020-01-18T08:00:16.998Z</time>
      </trkpt>
      <trkpt lat="37.292205" lon="-7.14725167">
        <ele>31.0</ele>
        <time>2020-01-18T08:00:18.008Z</time>
      </trkpt>
      <trkpt lat="37.292205" lon="-7.14725167">
        <ele>31.0</ele>
        <time>2020-01-18T08:00:18.981Z</time>
      </trkpt>
      <trkpt lat="37.29226833" lon="-7.14714833">
        <ele>31.0</ele>
        <time>2020-01-18T08:00:19.996Z</time>
      </trkpt>
      <trkpt lat="37.29229833" lon="-7.1471">
        <ele>31.0</ele>
        <time>2020-01-18T08:00:20.984Z</time>
      </trkpt>
      <trkpt lat="37.29229833" lon="-7.1471">
        <ele>31.0</ele>
        <time>2020-01-18T08:00:21.998Z</time>
      </trkpt>
      <trkpt lat="37.292355" lon="-7.147">
        <ele>31.0</ele>
        <time>2020-01-18T08:00:22.985Z</time>
      </trkpt>
      <trkpt lat="37.292355" lon="-7.147">
        <ele>31.0</ele>
        <time>2020-01-18T08:00:24.000Z</time>
      </trkpt>
      <trkpt lat="37.29241333" lon="-7.14690333">
        <ele>31.0</ele>
        <time>2020-01-18T08:00:24.984Z</time>
      </trkpt>
      <trkpt lat="37.29241333" lon="-7.14690333">
        <ele>31.0</ele>
        <time>2020-01-18T08:00:25.999Z</time>
      </trkpt>
      <trkpt lat="37.29246833" lon="-7.14681167">
        <ele>31.0</ele>
        <time>2020-01-18T08:00:26.987Z</time>
      </trkpt>
      <trkpt lat="37.29249667" lon="-7.146765">
        <ele>30.0</ele>
        <time>2020-01-18T08:00:27.983Z</time>
      </trkpt>
      <trkpt lat="37.29252667" lon="-7.14672">
        <ele>30.0</ele>
        <time>2020-01-18T08:00:28.999Z</time>
      </trkpt>
      <trkpt lat="37.29252667" lon="-7.14672">
        <ele>30.0</ele>
        <time>2020-01-18T08:00:29.981Z</time>
      </trkpt>
      <trkpt lat="37.29258" lon="-7.14662667">
        <ele>30.0</ele>
        <time>2020-01-18T08:00:31.005Z</time>
      </trkpt>
      <trkpt lat="37.29258" lon="-7.14662667">
        <ele>30.0</ele>
        <time>2020-01-18T08:00:31.980Z</time>
      </trkpt>
      <trkpt lat="37.29263833" lon="-7.14654167">
        <ele>30.0</ele>
        <time>2020-01-18T08:00:32.995Z</time>
      </trkpt>
      <trkpt lat="37.29263833" lon="-7.14654167">
        <ele>30.0</ele>
        <time>2020-01-18T08:00:33.980Z</time>
      </trkpt>
      <trkpt lat="37.292695" lon="-7.14645667">
        <ele>30.0</ele>
        <time>2020-01-18T08:00:34.995Z</time>
      </trkpt>
      <trkpt lat="37.292695" lon="-7.14645667">
        <ele>30.0</ele>
        <time>2020-01-18T08:00:35.981Z</time>
      </trkpt>
      <trkpt lat="37.292755" lon="-7.14636833">
        <ele>31.0</ele>
        <time>2020-01-18T08:00:36.999Z</time>
      </trkpt>
      <trkpt lat="37.292785" lon="-7.14632167">
        <ele>31.0</ele>
        <time>2020-01-18T08:00:37.983Z</time>
      </trkpt>
      <trkpt lat="37.292815" lon="-7.14627833">
        <ele>31.0</ele>
        <time>2020-01-18T08:00:38.997Z</time>
      </trkpt>
      <trkpt lat="37.292815" lon="-7.14627833">
        <ele>31.0</ele>
        <time>2020-01-18T08:00:39.990Z</time>
      </trkpt>
      <trkpt lat="37.292875" lon="-7.14619">
        <ele>31.0</ele>
        <time>2020-01-18T08:00:40.982Z</time>
      </trkpt>
      <trkpt lat="37.292875" lon="-7.14619">
        <ele>31.0</ele>
        <time>2020-01-18T08:00:41.997Z</time>
      </trkpt>
      <trkpt lat="37.29294" lon="-7.14610167">
        <ele>31.0</ele>
        <time>2020-01-18T08:00:42.984Z</time>
      </trkpt>
      <trkpt lat="37.29294" lon="-7.14610167">
        <ele>31.0</ele>
        <time>2020-01-18T08:00:43.999Z</time>
      </trkpt>
      <trkpt lat="37.29300167" lon="-7.146015">
        <ele>31.0</ele>
        <time>2020-01-18T08:00:44.986Z</time>
      </trkpt>
      <trkpt lat="37.29303333" lon="-7.14596833">
        <ele>31.0</ele>
        <time>2020-01-18T08:00:45.978Z</time>
      </trkpt>
      <trkpt lat="37.29303333" lon="-7.14596833">
        <ele>31.0</ele>
        <time>2020-01-18T08:00:46.992Z</time>
      </trkpt>
      <trkpt lat="37.29309833" lon="-7.14587833">
        <ele>31.0</ele>
        <time>2020-01-18T08:00:47.984Z</time>
      </trkpt>
      <trkpt lat="37.29309833" lon="-7.14587833">
        <ele>31.0</ele>
        <time>2020-01-18T08:00:48.999Z</time>
      </trkpt>
      <trkpt lat="37.293165" lon="-7.14579167">
        <ele>31.0</ele>
        <time>2020-01-18T08:00:49.984Z</time>
      </trkpt>
      <trkpt lat="37.293165" lon="-7.14579167">
        <ele>31.0</ele>
        <time>2020-01-18T08:00:50.999Z</time>
      </trkpt>
      <trkpt lat="37.29323333" lon="-7.145705">
        <ele>31.0</ele>
        <time>2020-01-18T08:00:51.984Z</time>
      </trkpt>
      <trkpt lat="37.29326833" lon="-7.145665">
        <ele>31.0</ele>
        <time>2020-01-18T08:00:52.999Z</time>
      </trkpt>
      <trkpt lat="37.29326833" lon="-7.145665">
        <ele>31.0</ele>
        <time>2020-01-18T08:00:53.978Z</time>
      </trkpt>
      <trkpt lat="37.29333833" lon="-7.14558167">
        <ele>31.0</ele>
        <time>2020-01-18T08:00:54.993Z</time>
      </trkpt>
      <trkpt lat="37.29333833" lon="-7.14558167">
        <ele>31.0</ele>
        <time>2020-01-18T08:00:55.981Z</time>
      </trkpt>
      <trkpt lat="37.29340667" lon="-7.14549833">
        <ele>31.0</ele>
        <time>2020-01-18T08:00:56.980Z</time>
      </trkpt>
      <trkpt lat="37.29340667" lon="-7.14549833">
        <ele>31.0</ele>
        <time>2020-01-18T08:00:57.994Z</time>
      </trkpt>
      <trkpt lat="37.29348" lon="-7.145415">
        <ele>31.0</ele>
        <time>2020-01-18T08:00:58.986Z</time>
      </trkpt>
      <trkpt lat="37.29348" lon="-7.145415">
        <ele>31.0</ele>
        <time>2020-01-18T08:00:59.999Z</time>
      </trkpt>
      <trkpt lat="37.293555" lon="-7.14533667">
        <ele>31.0</ele>
        <time>2020-01-18T08:01:00.977Z</time>
      </trkpt>
      <trkpt lat="37.29359333" lon="-7.14529333">
        <ele>31.0</ele>
        <time>2020-01-18T08:01:01.990Z</time>
      </trkpt>
      <trkpt lat="37.29363167" lon="-7.14524833">
        <ele>31.0</ele>
        <time>2020-01-18T08:01:02.984Z</time>
      </trkpt>
      <trkpt lat="37.29363167" lon="-7.14524833">
        <ele>31.0</ele>
        <time>2020-01-18T08:01:04.000Z</time>
      </trkpt>
      <trkpt lat="37.29371333" lon="-7.14516333">
        <ele>31.0</ele>
        <time>2020-01-18T08:01:04.984Z</time>
      </trkpt>
      <trkpt lat="37.29371333" lon="-7.14516333">
        <ele>31.0</ele>
        <time>2020-01-18T08:01:05.997Z</time>
      </trkpt>
      <trkpt lat="37.293795" lon="-7.14507833">
        <ele>31.0</ele>
        <time>2020-01-18T08:01:06.984Z</time>
      </trkpt>
      <trkpt lat="37.293795" lon="-7.14507833">
        <ele>31.0</ele>
        <time>2020-01-18T08:01:08.008Z</time>
      </trkpt>
      <trkpt lat="37.29387833" lon="-7.145">
        <ele>31.0</ele>
        <time>2020-01-18T08:01:08.982Z</time>
      </trkpt>
      <trkpt lat="37.29392" lon="-7.14496167">
        <ele>31.0</ele>
        <time>2020-01-18T08:01:10.005Z</time>
      </trkpt>
      <trkpt lat="37.29392" lon="-7.14496167">
        <ele>31.0</ele>
        <time>2020-01-18T08:01:10.984Z</time>
      </trkpt>
      <trkpt lat="37.294005" lon="-7.14488667">
        <ele>31.0</ele>
        <time>2020-01-18T08:01:11.998Z</time>
      </trkpt>
      <trkpt lat="37.294005" lon="-7.14488667">
        <ele>31.0</ele>
        <time>2020-01-18T08:01:12.981Z</time>
      </trkpt>
      <trkpt lat="37.29409" lon="-7.14481333">
        <ele>31.0</ele>
        <time>2020-01-18T08:01:14.004Z</time>
      </trkpt>
      <trkpt lat="37.29409" lon="-7.14481333">
        <ele>31.0</ele>
        <time>2020-01-18T08:01:14.982Z</time>
      </trkpt>
      <trkpt lat="37.294175" lon="-7.14474">
        <ele>31.0</ele>
        <time>2020-01-18T08:01:16.006Z</time>
      </trkpt>
      <trkpt lat="37.294175" lon="-7.14474">
        <ele>31.0</ele>
        <time>2020-01-18T08:01:17.013Z</time>
      </trkpt>
      <trkpt lat="37.29426167" lon="-7.14467">
        <ele>30.0</ele>
        <time>2020-01-18T08:01:17.979Z</time>
      </trkpt>
      <trkpt lat="37.29426167" lon="-7.14467">
        <ele>30.0</ele>
        <time>2020-01-18T08:01:18.985Z</time>
      </trkpt>
      <trkpt lat="37.29435" lon="-7.144605">
        <ele>30.0</ele>
        <time>2020-01-18T08:01:19.984Z</time>
      </trkpt>
      <trkpt lat="37.29439333" lon="-7.14457333">
        <ele>30.0</ele>
        <time>2020-01-18T08:01:20.999Z</time>
      </trkpt>
      <trkpt lat="37.29439333" lon="-7.14457333">
        <ele>30.0</ele>
        <time>2020-01-18T08:01:21.981Z</time>
      </trkpt>
      <trkpt lat="37.29447833" lon="-7.14451167">
        <ele>30.0</ele>
        <time>2020-01-18T08:01:22.986Z</time>
      </trkpt>
      <trkpt lat="37.29447833" lon="-7.14451167">
        <ele>30.0</ele>
        <time>2020-01-18T08:01:23.981Z</time>
      </trkpt>
      <trkpt lat="37.29456" lon="-7.14445667">
        <ele>30.0</ele>
        <time>2020-01-18T08:01:25.001Z</time>
      </trkpt>
      <trkpt lat="37.29456" lon="-7.14445667">
        <ele>30.0</ele>
        <time>2020-01-18T08:01:25.979Z</time>
      </trkpt>
      <trkpt lat="37.29464" lon="-7.14439833">
        <ele>31.0</ele>
        <time>2020-01-18T08:01:26.995Z</time>
      </trkpt>
      <trkpt lat="37.29464" lon="-7.14439833">
        <ele>31.0</ele>
        <time>2020-01-18T08:01:27.981Z</time>
      </trkpt>
      <trkpt lat="37.29472333" lon="-7.14433667">
        <ele>31.0</ele>
        <time>2020-01-18T08:01:28.997Z</time>
      </trkpt>
      <trkpt lat="37.29472333" lon="-7.14433667">
        <ele>31.0</ele>
        <time>2020-01-18T08:01:29.984Z</time>
      </trkpt>
      <trkpt lat="37.29480333" lon="-7.14427667">
        <ele>31.0</ele>
        <time>2020-01-18T08:01:30.978Z</time>
      </trkpt>
      <trkpt lat="37.29480333" lon="-7.14427667">
        <ele>31.0</ele>
        <time>2020-01-18T08:01:31.992Z</time>
      </trkpt>
      <trkpt lat="37.29487833" lon="-7.14421333">
        <ele>30.0</ele>
        <time>2020-01-18T08:01:32.985Z</time>
      </trkpt>
      <trkpt lat="37.29490667" lon="-7.14417">
        <ele>30.0</ele>
        <time>2020-01-18T08:01:34.013Z</time>
      </trkpt>
      <trkpt lat="37.29492667" lon="-7.14412167">
        <ele>30.0</ele>
        <time>2020-01-18T08:01:35.006Z</time>
      </trkpt>
      <trkpt lat="37.29492667" lon="-7.14412167">
        <ele>30.0</ele>
        <time>2020-01-18T08:01:35.996Z</time>
      </trkpt>
      <trkpt lat="37.29496167" lon="-7.14401333">
        <ele>30.0</ele>
        <time>2020-01-18T08:01:36.983Z</time>
      </trkpt>
      <trkpt lat="37.29496167" lon="-7.14401333">
        <ele>30.0</ele>
        <time>2020-01-18T08:01:37.997Z</time>
      </trkpt>
      <trkpt lat="37.29502667" lon="-7.14393833">
        <ele>31.0</ele>
        <time>2020-01-18T08:01:38.986Z</time>
      </trkpt>
      <trkpt lat="37.29507" lon="-7.14392833">
        <ele>31.0</ele>
        <time>2020-01-18T08:01:39.985Z</time>
      </trkpt>
      <trkpt lat="37.29507" lon="-7.14392833">
        <ele>31.0</ele>
        <time>2020-01-18T08:01:40.999Z</time>
      </trkpt>
      <trkpt lat="37.29516833" lon="-7.14392667">
        <ele>31.0</ele>
        <time>2020-01-18T08:01:41.983Z</time>
      </trkpt>
      <trkpt lat="37.29516833" lon="-7.14392667">
        <ele>31.0</ele>
        <time>2020-01-18T08:01:42.997Z</time>
      </trkpt>
      <trkpt lat="37.295255" lon="-7.143865">
        <ele>32.0</ele>
        <time>2020-01-18T08:01:43.986Z</time>
      </trkpt>
      <trkpt lat="37.29529333" lon="-7.143825">
        <ele>32.0</ele>
        <time>2020-01-18T08:01:45.000Z</time>
      </trkpt>
      <trkpt lat="37.29529333" lon="-7.143825">
        <ele>32.0</ele>
        <time>2020-01-18T08:01:45.982Z</time>
      </trkpt>
      <trkpt lat="37.29537" lon="-7.14374167">
        <ele>32.0</ele>
        <time>2020-01-18T08:01:46.996Z</time>
      </trkpt>
      <trkpt lat="37.29541" lon="-7.143705">
        <ele>32.0</ele>
        <time>2020-01-18T08:01:47.984Z</time>
      </trkpt>
      <trkpt lat="37.29541" lon="-7.143705">
        <ele>32.0</ele>
        <time>2020-01-18T08:01:48.998Z</time>
      </trkpt>
      <trkpt lat="37.29549333" lon="-7.14363167">
        <ele>32.0</ele>
        <time>2020-01-18T08:01:49.985Z</time>
      </trkpt>
      <trkpt lat="37.29553333" lon="-7.14359333">
        <ele>32.0</ele>
        <time>2020-01-18T08:01:50.999Z</time>
      </trkpt>
      <trkpt lat="37.29553333" lon="-7.14359333">
        <ele>32.0</ele>
        <time>2020-01-18T08:01:51.979Z</time>
      </trkpt>
      <trkpt lat="37.29561333" lon="-7.14351">
        <ele>32.0</ele>
        <time>2020-01-18T08:01:53.010Z</time>
      </trkpt>
      <trkpt lat="37.29561333" lon="-7.14351">
        <ele>32.0</ele>
        <time>2020-01-18T08:01:53.984Z</time>
      </trkpt>
      <trkpt lat="37.29569667" lon="-7.14343167">
        <ele>32.0</ele>
        <time>2020-01-18T08:01:54.998Z</time>
      </trkpt>
      <trkpt lat="37.29573833" lon="-7.14339167">
        <ele>32.0</ele>
        <time>2020-01-18T08:01:55.984Z</time>
      </trkpt>
      <trkpt lat="37.29573833" lon="-7.14339167">
        <ele>32.0</ele>
        <time>2020-01-18T08:01:56.999Z</time>
      </trkpt>
      <trkpt lat="37.29582" lon="-7.14331167">
        <ele>32.0</ele>
        <time>2020-01-18T08:01:57.984Z</time>
      </trkpt>
      <trkpt lat="37.29586167" lon="-7.14327167">
        <ele>32.0</ele>
        <time>2020-01-18T08:01:58.998Z</time>
      </trkpt>
      <trkpt lat="37.29586167" lon="-7.14327167">
        <ele>32.0</ele>
        <time>2020-01-18T08:01:59.979Z</time>
      </trkpt>
      <trkpt lat="37.295945" lon="-7.14319167">
        <ele>32.0</ele>
        <time>2020-01-18T08:02:00.994Z</time>
      </trkpt>
      <trkpt lat="37.295985" lon="-7.14315">
        <ele>31.0</ele>
        <time>2020-01-18T08:02:01.984Z</time>
      </trkpt>
      <trkpt lat="37.29602667" lon="-7.14311">
        <ele>32.0</ele>
        <time>2020-01-18T08:02:02.998Z</time>
      </trkpt>
      <trkpt lat="37.29602667" lon="-7.14311">
        <ele>32.0</ele>
        <time>2020-01-18T08:02:03.980Z</time>
      </trkpt>
      <trkpt lat="37.29610833" lon="-7.14302833">
        <ele>31.0</ele>
        <time>2020-01-18T08:02:05.002Z</time>
      </trkpt>
      <trkpt lat="37.29610833" lon="-7.14302833">
        <ele>31.0</ele>
        <time>2020-01-18T08:02:05.981Z</time>
      </trkpt>
      <trkpt lat="37.29619167" lon="-7.14294833">
        <ele>31.0</ele>
        <time>2020-01-18T08:02:06.996Z</time>
      </trkpt>
      <trkpt lat="37.29623167" lon="-7.14290833">
        <ele>31.0</ele>
        <time>2020-01-18T08:02:07.982Z</time>
      </trkpt>
      <trkpt lat="37.29623167" lon="-7.14290833">
        <ele>31.0</ele>
        <time>2020-01-18T08:02:08.996Z</time>
      </trkpt>
      <trkpt lat="37.296315" lon="-7.14282333">
        <ele>31.0</ele>
        <time>2020-01-18T08:02:09.985Z</time>
      </trkpt>
      <trkpt lat="37.29635667" lon="-7.14278167">
        <ele>31.0</ele>
        <time>2020-01-18T08:02:10.999Z</time>
      </trkpt>
      <trkpt lat="37.29635667" lon="-7.14278167">
        <ele>31.0</ele>
        <time>2020-01-18T08:02:11.992Z</time>
      </trkpt>
      <trkpt lat="37.29643833" lon="-7.1427">
        <ele>31.0</ele>
        <time>2020-01-18T08:02:12.984Z</time>
      </trkpt>
      <trkpt lat="37.29648" lon="-7.14265667">
        <ele>31.0</ele>
        <time>2020-01-18T08:02:14.003Z</time>
      </trkpt>
      <trkpt lat="37.29652167" lon="-7.14261667">
        <ele>31.0</ele>
        <time>2020-01-18T08:02:14.985Z</time>
      </trkpt>
      <trkpt lat="37.29652167" lon="-7.14261667">
        <ele>31.0</ele>
        <time>2020-01-18T08:02:16.004Z</time>
      </trkpt>
      <trkpt lat="37.2966" lon="-7.14253">
        <ele>31.0</ele>
        <time>2020-01-18T08:02:16.991Z</time>
      </trkpt>
      <trkpt lat="37.29664" lon="-7.14248667">
        <ele>31.0</ele>
        <time>2020-01-18T08:02:17.982Z</time>
      </trkpt>
      <trkpt lat="37.29664" lon="-7.14248667">
        <ele>31.0</ele>
        <time>2020-01-18T08:02:18.997Z</time>
      </trkpt>
      <trkpt lat="37.29671667" lon="-7.14240167">
        <ele>31.0</ele>
        <time>2020-01-18T08:02:19.984Z</time>
      </trkpt>
      <trkpt lat="37.29675333" lon="-7.14235833">
        <ele>31.0</ele>
        <time>2020-01-18T08:02:20.998Z</time>
      </trkpt>
      <trkpt lat="37.29679167" lon="-7.142315">
        <ele>31.0</ele>
        <time>2020-01-18T08:02:21.986Z</time>
      </trkpt>
      <trkpt lat="37.29679167" lon="-7.142315">
        <ele>31.0</ele>
        <time>2020-01-18T08:02:22.979Z</time>
      </trkpt>
      <trkpt lat="37.296865" lon="-7.14222667">
        <ele>31.0</ele>
        <time>2020-01-18T08:02:23.994Z</time>
      </trkpt>
      <trkpt lat="37.296865" lon="-7.14222667">
        <ele>31.0</ele>
        <time>2020-01-18T08:02:24.981Z</time>
      </trkpt>
      <trkpt lat="37.29693833" lon="-7.14213833">
        <ele>31.0</ele>
        <time>2020-01-18T08:02:25.996Z</time>
      </trkpt>
      <trkpt lat="37.29693833" lon="-7.14213833">
        <ele>31.0</ele>
        <time>2020-01-18T08:02:26.986Z</time>
      </trkpt>
      <trkpt lat="37.29701" lon="-7.14205167">
        <ele>31.0</ele>
        <time>2020-01-18T08:02:28.001Z</time>
      </trkpt>
      <trkpt lat="37.29704667" lon="-7.14200833">
        <ele>31.0</ele>
        <time>2020-01-18T08:02:28.987Z</time>
      </trkpt>
      <trkpt lat="37.29704667" lon="-7.14200833">
        <ele>31.0</ele>
        <time>2020-01-18T08:02:29.979Z</time>
      </trkpt>
      <trkpt lat="37.29711833" lon="-7.14192">
        <ele>31.0</ele>
        <time>2020-01-18T08:02:30.994Z</time>
      </trkpt>
      <trkpt lat="37.29715667" lon="-7.141875">
        <ele>31.0</ele>
        <time>2020-01-18T08:02:31.983Z</time>
      </trkpt>
      <trkpt lat="37.29719333" lon="-7.14183">
        <ele>31.0</ele>
        <time>2020-01-18T08:02:33.010Z</time>
      </trkpt>
      <trkpt lat="37.29719333" lon="-7.14183">
        <ele>31.0</ele>
        <time>2020-01-18T08:02:33.984Z</time>
      </trkpt>
      <trkpt lat="37.29726667" lon="-7.14174">
        <ele>31.0</ele>
        <time>2020-01-18T08:02:34.998Z</time>
      </trkpt>
      <trkpt lat="37.29726667" lon="-7.14174">
        <ele>31.0</ele>
        <time>2020-01-18T08:02:35.981Z</time>
      </trkpt>
      <trkpt lat="37.29733667" lon="-7.14164667">
        <ele>32.0</ele>
        <time>2020-01-18T08:02:36.996Z</time>
      </trkpt>
      <trkpt lat="37.29733667" lon="-7.14164667">
        <ele>32.0</ele>
        <time>2020-01-18T08:02:37.984Z</time>
      </trkpt>
      <trkpt lat="37.29740167" lon="-7.14155">
        <ele>32.0</ele>
        <time>2020-01-18T08:02:39.000Z</time>
      </trkpt>
      <trkpt lat="37.29740167" lon="-7.14155">
        <ele>32.0</ele>
        <time>2020-01-18T08:02:39.981Z</time>
      </trkpt>
      <trkpt lat="37.29746" lon="-7.14144667">
        <ele>32.0</ele>
        <time>2020-01-18T08:02:40.996Z</time>
      </trkpt>
      <trkpt lat="37.29746" lon="-7.14144667">
        <ele>32.0</ele>
        <time>2020-01-18T08:02:41.984Z</time>
      </trkpt>
      <trkpt lat="37.297515" lon="-7.14133667">
        <ele>32.0</ele>
        <time>2020-01-18T08:02:42.998Z</time>
      </trkpt>
      <trkpt lat="37.297515" lon="-7.14133667">
        <ele>32.0</ele>
        <time>2020-01-18T08:02:43.981Z</time>
      </trkpt>
      <trkpt lat="37.29757167" lon="-7.141225">
        <ele>32.0</ele>
        <time>2020-01-18T08:02:44.996Z</time>
      </trkpt>
      <trkpt lat="37.29757167" lon="-7.141225">
        <ele>32.0</ele>
        <time>2020-01-18T08:02:45.982Z</time>
      </trkpt>
      <trkpt lat="37.29762" lon="-7.14111667">
        <ele>32.0</ele>
        <time>2020-01-18T08:02:46.995Z</time>
      </trkpt>
      <trkpt lat="37.29762" lon="-7.14111667">
        <ele>32.0</ele>
        <time>2020-01-18T08:02:47.979Z</time>
      </trkpt>
      <trkpt lat="37.29766667" lon="-7.14100833">
        <ele>33.0</ele>
        <time>2020-01-18T08:02:48.995Z</time>
      </trkpt>
      <trkpt lat="37.29766667" lon="-7.14100833">
        <ele>33.0</ele>
        <time>2020-01-18T08:02:50.006Z</time>
      </trkpt>
      <trkpt lat="37.29770667" lon="-7.14090667">
        <ele>33.0</ele>
        <time>2020-01-18T08:02:50.985Z</time>
      </trkpt>
      <trkpt lat="37.29770667" lon="-7.14090667">
        <ele>33.0</ele>
        <time>2020-01-18T08:02:52.001Z</time>
      </trkpt>
      <trkpt lat="37.29774333" lon="-7.14080167">
        <ele>33.0</ele>
        <time>2020-01-18T08:02:52.985Z</time>
      </trkpt>
      <trkpt lat="37.29774333" lon="-7.14080167">
        <ele>33.0</ele>
        <time>2020-01-18T08:02:53.999Z</time>
      </trkpt>
      <trkpt lat="37.29778" lon="-7.14069833">
        <ele>33.0</ele>
        <time>2020-01-18T08:02:54.985Z</time>
      </trkpt>
      <trkpt lat="37.29778" lon="-7.14069833">
        <ele>33.0</ele>
        <time>2020-01-18T08:02:56.003Z</time>
      </trkpt>
      <trkpt lat="37.29781667" lon="-7.14059333">
        <ele>33.0</ele>
        <time>2020-01-18T08:02:56.987Z</time>
      </trkpt>
      <trkpt lat="37.29781667" lon="-7.14059333">
        <ele>33.0</ele>
        <time>2020-01-18T08:02:57.981Z</time>
      </trkpt>
      <trkpt lat="37.297855" lon="-7.14048667">
        <ele>33.0</ele>
        <time>2020-01-18T08:02:58.996Z</time>
      </trkpt>
      <trkpt lat="37.297855" lon="-7.14048667">
        <ele>33.0</ele>
        <time>2020-01-18T08:02:59.978Z</time>
      </trkpt>
      <trkpt lat="37.29789333" lon="-7.14038333">
        <ele>33.0</ele>
        <time>2020-01-18T08:03:00.993Z</time>
      </trkpt>
      <trkpt lat="37.29789333" lon="-7.14038333">
        <ele>33.0</ele>
        <time>2020-01-18T08:03:01.982Z</time>
      </trkpt>
      <trkpt lat="37.29793167" lon="-7.14027667">
        <ele>33.0</ele>
        <time>2020-01-18T08:03:02.996Z</time>
      </trkpt>
      <trkpt lat="37.29793167" lon="-7.14027667">
        <ele>33.0</ele>
        <time>2020-01-18T08:03:03.979Z</time>
      </trkpt>
      <trkpt lat="37.29795333" lon="-7.14017167">
        <ele>34.0</ele>
        <time>2020-01-18T08:03:04.995Z</time>
      </trkpt>
      <trkpt lat="37.29795333" lon="-7.14017167">
        <ele>34.0</ele>
        <time>2020-01-18T08:03:05.982Z</time>
      </trkpt>
      <trkpt lat="37.29791167" lon="-7.14009667">
        <ele>34.0</ele>
        <time>2020-01-18T08:03:06.996Z</time>
      </trkpt>
      <trkpt lat="37.29791167" lon="-7.14009667">
        <ele>34.0</ele>
        <time>2020-01-18T08:03:07.982Z</time>
      </trkpt>
      <trkpt lat="37.29783333" lon="-7.14009">
        <ele>35.0</ele>
        <time>2020-01-18T08:03:08.996Z</time>
      </trkpt>
      <trkpt lat="37.29783333" lon="-7.14009">
        <ele>35.0</ele>
        <time>2020-01-18T08:03:09.981Z</time>
      </trkpt>
      <trkpt lat="37.297745" lon="-7.14012333">
        <ele>35.0</ele>
        <time>2020-01-18T08:03:10.996Z</time>
      </trkpt>
      <trkpt lat="37.297745" lon="-7.14012333">
        <ele>35.0</ele>
        <time>2020-01-18T08:03:11.983Z</time>
      </trkpt>
      <trkpt lat="37.29765333" lon="-7.14016833">
        <ele>35.0</ele>
        <time>2020-01-18T08:03:12.997Z</time>
      </trkpt>
      <trkpt lat="37.29765333" lon="-7.14016833">
        <ele>35.0</ele>
        <time>2020-01-18T08:03:13.993Z</time>
      </trkpt>
      <trkpt lat="37.29755833" lon="-7.14021667">
        <ele>35.0</ele>
        <time>2020-01-18T08:03:14.982Z</time>
      </trkpt>
      <trkpt lat="37.29755833" lon="-7.14021667">
        <ele>35.0</ele>
        <time>2020-01-18T08:03:15.996Z</time>
      </trkpt>
      <trkpt lat="37.297455" lon="-7.14026333">
        <ele>35.0</ele>
        <time>2020-01-18T08:03:16.985Z</time>
      </trkpt>
      <trkpt lat="37.297455" lon="-7.14026333">
        <ele>35.0</ele>
        <time>2020-01-18T08:03:18.000Z</time>
      </trkpt>
      <trkpt lat="37.29734667" lon="-7.14031">
        <ele>35.0</ele>
        <time>2020-01-18T08:03:18.981Z</time>
      </trkpt>
      <trkpt lat="37.29734667" lon="-7.14031">
        <ele>35.0</ele>
        <time>2020-01-18T08:03:19.995Z</time>
      </trkpt>
      <trkpt lat="37.29723833" lon="-7.14036333">
        <ele>34.0</ele>
        <time>2020-01-18T08:03:20.986Z</time>
      </trkpt>
      <trkpt lat="37.29723833" lon="-7.14036333">
        <ele>34.0</ele>
        <time>2020-01-18T08:03:22.001Z</time>
      </trkpt>
      <trkpt lat="37.29712833" lon="-7.140425">
        <ele>34.0</ele>
        <time>2020-01-18T08:03:22.982Z</time>
      </trkpt>
      <trkpt lat="37.29712833" lon="-7.140425">
        <ele>34.0</ele>
        <time>2020-01-18T08:03:24.004Z</time>
      </trkpt>
      <trkpt lat="37.29701333" lon="-7.14048167">
        <ele>34.0</ele>
        <time>2020-01-18T08:03:24.982Z</time>
      </trkpt>
      <trkpt lat="37.29701333" lon="-7.14048167">
        <ele>34.0</ele>
        <time>2020-01-18T08:03:26.000Z</time>
      </trkpt>
      <trkpt lat="37.2969" lon="-7.14054333">
        <ele>34.0</ele>
        <time>2020-01-18T08:03:26.989Z</time>
      </trkpt>
      <trkpt lat="37.29684" lon="-7.14057333">
        <ele>34.0</ele>
        <time>2020-01-18T08:03:27.984Z</time>
      </trkpt>
      <trkpt lat="37.29678167" lon="-7.14060333">
        <ele>34.0</ele>
        <time>2020-01-18T08:03:28.999Z</time>
      </trkpt>
      <trkpt lat="37.29678167" lon="-7.14060333">
        <ele>34.0</ele>
        <time>2020-01-18T08:03:29.982Z</time>
      </trkpt>
      <trkpt lat="37.29666167" lon="-7.14066333">
        <ele>34.0</ele>
        <time>2020-01-18T08:03:30.996Z</time>
      </trkpt>
      <trkpt lat="37.29666167" lon="-7.14066333">
        <ele>34.0</ele>
        <time>2020-01-18T08:03:31.982Z</time>
      </trkpt>
      <trkpt lat="37.29653833" lon="-7.14072667">
        <ele>34.0</ele>
        <time>2020-01-18T08:03:32.995Z</time>
      </trkpt>
      <trkpt lat="37.29653833" lon="-7.14072667">
        <ele>34.0</ele>
        <time>2020-01-18T08:03:33.979Z</time>
      </trkpt>
      <trkpt lat="37.29641333" lon="-7.140795">
        <ele>33.0</ele>
        <time>2020-01-18T08:03:34.995Z</time>
      </trkpt>
      <trkpt lat="37.29641333" lon="-7.140795">
        <ele>33.0</ele>
        <time>2020-01-18T08:03:35.982Z</time>
      </trkpt>
      <trkpt lat="37.29628333" lon="-7.14086833">
        <ele>33.0</ele>
        <time>2020-01-18T08:03:36.995Z</time>
      </trkpt>
      <trkpt lat="37.29628333" lon="-7.14086833">
        <ele>33.0</ele>
        <time>2020-01-18T08:03:37.979Z</time>
      </trkpt>
      <trkpt lat="37.29615167" lon="-7.14095">
        <ele>32.0</ele>
        <time>2020-01-18T08:03:38.996Z</time>
      </trkpt>
      <trkpt lat="37.29608333" lon="-7.14099">
        <ele>32.0</ele>
        <time>2020-01-18T08:03:40.005Z</time>
      </trkpt>
      <trkpt lat="37.29608333" lon="-7.14099">
        <ele>32.0</ele>
        <time>2020-01-18T08:03:40.994Z</time>
      </trkpt>
      <trkpt lat="37.29594333" lon="-7.14107333">
        <ele>31.0</ele>
        <time>2020-01-18T08:03:41.983Z</time>
      </trkpt>
      <trkpt lat="37.29587167" lon="-7.141115">
        <ele>31.0</ele>
        <time>2020-01-18T08:03:43.001Z</time>
      </trkpt>
      <trkpt lat="37.29587167" lon="-7.141115">
        <ele>31.0</ele>
        <time>2020-01-18T08:03:43.982Z</time>
      </trkpt>
      <trkpt lat="37.29572333" lon="-7.1412">
        <ele>31.0</ele>
        <time>2020-01-18T08:03:44.997Z</time>
      </trkpt>
      <trkpt lat="37.29572333" lon="-7.1412">
        <ele>31.0</ele>
        <time>2020-01-18T08:03:45.982Z</time>
      </trkpt>
      <trkpt lat="37.29557333" lon="-7.14128">
        <ele>30.0</ele>
        <time>2020-01-18T08:03:47.000Z</time>
      </trkpt>
      <trkpt lat="37.29549667" lon="-7.14131">
        <ele>30.0</ele>
        <time>2020-01-18T08:03:47.984Z</time>
      </trkpt>
      <trkpt lat="37.29549667" lon="-7.14131">
        <ele>30.0</ele>
        <time>2020-01-18T08:03:48.999Z</time>
      </trkpt>
      <trkpt lat="37.29533667" lon="-7.14133333">
        <ele>29.0</ele>
        <time>2020-01-18T08:03:49.981Z</time>
      </trkpt>
      <trkpt lat="37.29525667" lon="-7.14132333">
        <ele>29.0</ele>
        <time>2020-01-18T08:03:50.996Z</time>
      </trkpt>
      <trkpt lat="37.29525667" lon="-7.14132333">
        <ele>29.0</ele>
        <time>2020-01-18T08:03:51.981Z</time>
      </trkpt>
      <trkpt lat="37.2951" lon="-7.14126667">
        <ele>29.0</ele>
        <time>2020-01-18T08:03:52.996Z</time>
      </trkpt>
      <trkpt lat="37.2951" lon="-7.14126667">
        <ele>29.0</ele>
        <time>2020-01-18T08:03:53.982Z</time>
      </trkpt>
      <trkpt lat="37.29495167" lon="-7.141195">
        <ele>28.0</ele>
        <time>2020-01-18T08:03:54.996Z</time>
      </trkpt>
      <trkpt lat="37.29495167" lon="-7.141195">
        <ele>28.0</ele>
        <time>2020-01-18T08:03:55.981Z</time>
      </trkpt>
      <trkpt lat="37.29480833" lon="-7.141115">
        <ele>28.0</ele>
        <time>2020-01-18T08:03:56.996Z</time>
      </trkpt>
      <trkpt lat="37.29480833" lon="-7.141115">
        <ele>28.0</ele>
        <time>2020-01-18T08:03:57.982Z</time>
      </trkpt>
      <trkpt lat="37.294665" lon="-7.141035">
        <ele>28.0</ele>
        <time>2020-01-18T08:03:59.007Z</time>
      </trkpt>
      <trkpt lat="37.294665" lon="-7.141035">
        <ele>28.0</ele>
        <time>2020-01-18T08:03:59.982Z</time>
      </trkpt>
      <trkpt lat="37.29452333" lon="-7.140955">
        <ele>27.0</ele>
        <time>2020-01-18T08:04:00.996Z</time>
      </trkpt>
      <trkpt lat="37.29445" lon="-7.140915">
        <ele>27.0</ele>
        <time>2020-01-18T08:04:01.984Z</time>
      </trkpt>
      <trkpt lat="37.29437667" lon="-7.14087667">
        <ele>27.0</ele>
        <time>2020-01-18T08:04:02.998Z</time>
      </trkpt>
      <trkpt lat="37.29437667" lon="-7.14087667">
        <ele>27.0</ele>
        <time>2020-01-18T08:04:03.979Z</time>
      </trkpt>
      <trkpt lat="37.29422667" lon="-7.1408">
        <ele>26.0</ele>
        <time>2020-01-18T08:04:04.995Z</time>
      </trkpt>
      <trkpt lat="37.29422667" lon="-7.1408">
        <ele>26.0</ele>
        <time>2020-01-18T08:04:05.981Z</time>
      </trkpt>
      <trkpt lat="37.29407667" lon="-7.14072333">
        <ele>26.0</ele>
        <time>2020-01-18T08:04:06.996Z</time>
      </trkpt>
      <trkpt lat="37.29400333" lon="-7.140685">
        <ele>25.0</ele>
        <time>2020-01-18T08:04:07.984Z</time>
      </trkpt>
      <trkpt lat="37.29400333" lon="-7.140685">
        <ele>25.0</ele>
        <time>2020-01-18T08:04:08.998Z</time>
      </trkpt>
      <trkpt lat="37.293855" lon="-7.14060667">
        <ele>25.0</ele>
        <time>2020-01-18T08:04:09.994Z</time>
      </trkpt>
      <trkpt lat="37.293855" lon="-7.14060667">
        <ele>25.0</ele>
        <time>2020-01-18T08:04:10.976Z</time>
      </trkpt>
      <trkpt lat="37.29371167" lon="-7.14053167">
        <ele>25.0</ele>
        <time>2020-01-18T08:04:11.995Z</time>
      </trkpt>
      <trkpt lat="37.29364" lon="-7.14049333">
        <ele>25.0</ele>
        <time>2020-01-18T08:04:12.982Z</time>
      </trkpt>
      <trkpt lat="37.29364" lon="-7.14049333">
        <ele>25.0</ele>
        <time>2020-01-18T08:04:14.007Z</time>
      </trkpt>
      <trkpt lat="37.29350333" lon="-7.14041333">
        <ele>24.0</ele>
        <time>2020-01-18T08:04:14.986Z</time>
      </trkpt>
      <trkpt lat="37.29350333" lon="-7.14041333">
        <ele>24.0</ele>
        <time>2020-01-18T08:04:16.000Z</time>
      </trkpt>
      <trkpt lat="37.29337167" lon="-7.14033">
        <ele>24.0</ele>
        <time>2020-01-18T08:04:16.984Z</time>
      </trkpt>
      <trkpt lat="37.29330667" lon="-7.14028667">
        <ele>24.0</ele>
        <time>2020-01-18T08:04:17.981Z</time>
      </trkpt>
      <trkpt lat="37.29324333" lon="-7.14024333">
        <ele>24.0</ele>
        <time>2020-01-18T08:04:18.996Z</time>
      </trkpt>
      <trkpt lat="37.29324333" lon="-7.14024333">
        <ele>24.0</ele>
        <time>2020-01-18T08:04:19.994Z</time>
      </trkpt>
      <trkpt lat="37.29311667" lon="-7.14015833">
        <ele>24.0</ele>
        <time>2020-01-18T08:04:20.985Z</time>
      </trkpt>
      <trkpt lat="37.29311667" lon="-7.14015833">
        <ele>24.0</ele>
        <time>2020-01-18T08:04:22.001Z</time>
      </trkpt>
      <trkpt lat="37.29299833" lon="-7.14006833">
        <ele>24.0</ele>
        <time>2020-01-18T08:04:22.999Z</time>
      </trkpt>
      <trkpt lat="37.29294333" lon="-7.14002">
        <ele>24.0</ele>
        <time>2020-01-18T08:04:23.984Z</time>
      </trkpt>
      <trkpt lat="37.29294333" lon="-7.14002">
        <ele>24.0</ele>
        <time>2020-01-18T08:04:25.004Z</time>
      </trkpt>
      <trkpt lat="37.29283667" lon="-7.13992333">
        <ele>24.0</ele>
        <time>2020-01-18T08:04:25.985Z</time>
      </trkpt>
      <trkpt lat="37.29283667" lon="-7.13992333">
        <ele>24.0</ele>
        <time>2020-01-18T08:04:27.002Z</time>
      </trkpt>
      <trkpt lat="37.29273833" lon="-7.13982833">
        <ele>25.0</ele>
        <time>2020-01-18T08:04:27.984Z</time>
      </trkpt>
      <trkpt lat="37.29269167" lon="-7.13978167">
        <ele>25.0</ele>
        <time>2020-01-18T08:04:28.985Z</time>
      </trkpt>
      <trkpt lat="37.29269167" lon="-7.13978167">
        <ele>25.0</ele>
        <time>2020-01-18T08:04:29.998Z</time>
      </trkpt>
      <trkpt lat="37.292605" lon="-7.13969667">
        <ele>25.0</ele>
        <time>2020-01-18T08:04:30.984Z</time>
      </trkpt>
      <trkpt lat="37.292605" lon="-7.13969667">
        <ele>25.0</ele>
        <time>2020-01-18T08:04:32.011Z</time>
      </trkpt>
      <trkpt lat="37.29251833" lon="-7.13961">
        <ele>25.0</ele>
        <time>2020-01-18T08:04:32.987Z</time>
      </trkpt>
      <trkpt lat="37.29251833" lon="-7.13961">
        <ele>25.0</ele>
        <time>2020-01-18T08:04:34.005Z</time>
      </trkpt>
      <trkpt lat="37.29243167" lon="-7.13952667">
        <ele>26.0</ele>
        <time>2020-01-18T08:04:34.985Z</time>
      </trkpt>
      <trkpt lat="37.29243167" lon="-7.13952667">
        <ele>26.0</ele>
        <time>2020-01-18T08:04:36.008Z</time>
      </trkpt>
      <trkpt lat="37.292345" lon="-7.13944833">
        <ele>26.0</ele>
        <time>2020-01-18T08:04:36.993Z</time>
      </trkpt>
      <trkpt lat="37.292345" lon="-7.13944833">
        <ele>26.0</ele>
        <time>2020-01-18T08:04:37.982Z</time>
      </trkpt>
      <trkpt lat="37.29225" lon="-7.13937833">
        <ele>26.0</ele>
        <time>2020-01-18T08:04:38.996Z</time>
      </trkpt>
      <trkpt lat="37.2922" lon="-7.13934667">
        <ele>26.0</ele>
        <time>2020-01-18T08:04:39.985Z</time>
      </trkpt>
      <trkpt lat="37.29215" lon="-7.139315">
        <ele>26.0</ele>
        <time>2020-01-18T08:04:41.000Z</time>
      </trkpt>
      <trkpt lat="37.29215" lon="-7.139315">
        <ele>26.0</ele>
        <time>2020-01-18T08:04:41.982Z</time>
      </trkpt>
      <trkpt lat="37.292045" lon="-7.139255">
        <ele>26.0</ele>
        <time>2020-01-18T08:04:42.996Z</time>
      </trkpt>
      <trkpt lat="37.292045" lon="-7.139255">
        <ele>26.0</ele>
        <time>2020-01-18T08:04:43.979Z</time>
      </trkpt>
      <trkpt lat="37.29193667" lon="-7.13920167">
        <ele>26.0</ele>
        <time>2020-01-18T08:04:44.994Z</time>
      </trkpt>
      <trkpt lat="37.29193667" lon="-7.13920167">
        <ele>26.0</ele>
        <time>2020-01-18T08:04:45.982Z</time>
      </trkpt>
      <trkpt lat="37.291825" lon="-7.13915">
        <ele>25.0</ele>
        <time>2020-01-18T08:04:46.996Z</time>
      </trkpt>
      <trkpt lat="37.291825" lon="-7.13915">
        <ele>25.0</ele>
        <time>2020-01-18T08:04:47.981Z</time>
      </trkpt>
      <trkpt lat="37.29171" lon="-7.13910667">
        <ele>25.0</ele>
        <time>2020-01-18T08:04:48.996Z</time>
      </trkpt>
      <trkpt lat="37.29171" lon="-7.13910667">
        <ele>25.0</ele>
        <time>2020-01-18T08:04:49.981Z</time>
      </trkpt>
      <trkpt lat="37.29158833" lon="-7.13906333">
        <ele>25.0</ele>
        <time>2020-01-18T08:04:50.996Z</time>
      </trkpt>
      <trkpt lat="37.29158833" lon="-7.13906333">
        <ele>25.0</ele>
        <time>2020-01-18T08:04:51.981Z</time>
      </trkpt>
      <trkpt lat="37.29146333" lon="-7.13902">
        <ele>24.0</ele>
        <time>2020-01-18T08:04:52.996Z</time>
      </trkpt>
      <trkpt lat="37.29146333" lon="-7.13902">
        <ele>24.0</ele>
        <time>2020-01-18T08:04:53.979Z</time>
      </trkpt>
      <trkpt lat="37.291335" lon="-7.138975">
        <ele>24.0</ele>
        <time>2020-01-18T08:04:54.993Z</time>
      </trkpt>
      <trkpt lat="37.291335" lon="-7.138975">
        <ele>24.0</ele>
        <time>2020-01-18T08:04:55.978Z</time>
      </trkpt>
      <trkpt lat="37.29120333" lon="-7.13892833">
        <ele>23.0</ele>
        <time>2020-01-18T08:04:56.994Z</time>
      </trkpt>
      <trkpt lat="37.29113667" lon="-7.138905">
        <ele>23.0</ele>
        <time>2020-01-18T08:04:57.984Z</time>
      </trkpt>
      <trkpt lat="37.29107" lon="-7.13888667">
        <ele>23.0</ele>
        <time>2020-01-18T08:04:58.998Z</time>
      </trkpt>
      <trkpt lat="37.29107" lon="-7.13888667">
        <ele>23.0</ele>
        <time>2020-01-18T08:04:59.982Z</time>
      </trkpt>
      <trkpt lat="37.290945" lon="-7.13890167">
        <ele>22.0</ele>
        <time>2020-01-18T08:05:00.992Z</time>
      </trkpt>
      <trkpt lat="37.29089333" lon="-7.13894833">
        <ele>21.0</ele>
        <time>2020-01-18T08:05:01.985Z</time>
      </trkpt>
      <trkpt lat="37.29089333" lon="-7.13894833">
        <ele>21.0</ele>
        <time>2020-01-18T08:05:02.999Z</time>
      </trkpt>
      <trkpt lat="37.290825" lon="-7.13909167">
        <ele>20.0</ele>
        <time>2020-01-18T08:05:03.985Z</time>
      </trkpt>
      <trkpt lat="37.290825" lon="-7.13909167">
        <ele>20.0</ele>
        <time>2020-01-18T08:05:04.999Z</time>
      </trkpt>
      <trkpt lat="37.29077833" lon="-7.13925833">
        <ele>20.0</ele>
        <time>2020-01-18T08:05:05.985Z</time>
      </trkpt>
      <trkpt lat="37.29077833" lon="-7.13925833">
        <ele>20.0</ele>
        <time>2020-01-18T08:05:07.001Z</time>
      </trkpt>
      <trkpt lat="37.29072333" lon="-7.139425">
        <ele>20.0</ele>
        <time>2020-01-18T08:05:07.984Z</time>
      </trkpt>
      <trkpt lat="37.29069667" lon="-7.13950667">
        <ele>20.0</ele>
        <time>2020-01-18T08:05:08.999Z</time>
      </trkpt>
      <trkpt lat="37.29069667" lon="-7.13950667">
        <ele>20.0</ele>
        <time>2020-01-18T08:05:09.979Z</time>
      </trkpt>
      <trkpt lat="37.29064667" lon="-7.13967333">
        <ele>20.0</ele>
        <time>2020-01-18T08:05:10.995Z</time>
      </trkpt>
      <trkpt lat="37.29064667" lon="-7.13967333">
        <ele>20.0</ele>
        <time>2020-01-18T08:05:11.981Z</time>
      </trkpt>
      <trkpt lat="37.29059833" lon="-7.13984">
        <ele>20.0</ele>
        <time>2020-01-18T08:05:13.004Z</time>
      </trkpt>
      <trkpt lat="37.29059833" lon="-7.13984">
        <ele>20.0</ele>
        <time>2020-01-18T08:05:14.003Z</time>
      </trkpt>
      <trkpt lat="37.29055167" lon="-7.14000667">
        <ele>20.0</ele>
        <time>2020-01-18T08:05:14.984Z</time>
      </trkpt>
      <trkpt lat="37.29055167" lon="-7.14000667">
        <ele>20.0</ele>
        <time>2020-01-18T08:05:15.998Z</time>
      </trkpt>
      <trkpt lat="37.290505" lon="-7.140175">
        <ele>21.0</ele>
        <time>2020-01-18T08:05:16.989Z</time>
      </trkpt>
      <trkpt lat="37.290485" lon="-7.14025833">
        <ele>21.0</ele>
        <time>2020-01-18T08:05:17.983Z</time>
      </trkpt>
      <trkpt lat="37.290465" lon="-7.14034333">
        <ele>21.0</ele>
        <time>2020-01-18T08:05:18.997Z</time>
      </trkpt>
      <trkpt lat="37.290465" lon="-7.14034333">
        <ele>21.0</ele>
        <time>2020-01-18T08:05:19.980Z</time>
      </trkpt>
      <trkpt lat="37.290435" lon="-7.14051">
        <ele>21.0</ele>
        <time>2020-01-18T08:05:20.996Z</time>
      </trkpt>
      <trkpt lat="37.290435" lon="-7.14051">
        <ele>21.0</ele>
        <time>2020-01-18T08:05:21.982Z</time>
      </trkpt>
      <trkpt lat="37.29042167" lon="-7.14066333">
        <ele>21.0</ele>
        <time>2020-01-18T08:05:22.987Z</time>
      </trkpt>
      <trkpt lat="37.29042167" lon="-7.14066333">
        <ele>21.0</ele>
        <time>2020-01-18T08:05:23.982Z</time>
      </trkpt>
      <trkpt lat="37.29046" lon="-7.14078333">
        <ele>22.0</ele>
        <time>2020-01-18T08:05:24.999Z</time>
      </trkpt>
      <trkpt lat="37.29046" lon="-7.14078333">
        <ele>22.0</ele>
        <time>2020-01-18T08:05:25.981Z</time>
      </trkpt>
      <trkpt lat="37.29053833" lon="-7.14088">
        <ele>23.0</ele>
        <time>2020-01-18T08:05:26.999Z</time>
      </trkpt>
      <trkpt lat="37.29057333" lon="-7.140935">
        <ele>22.0</ele>
        <time>2020-01-18T08:05:27.985Z</time>
      </trkpt>
      <trkpt lat="37.2906" lon="-7.14099833">
        <ele>23.0</ele>
        <time>2020-01-18T08:05:29.002Z</time>
      </trkpt>
      <trkpt lat="37.2906" lon="-7.14099833">
        <ele>23.0</ele>
        <time>2020-01-18T08:05:29.982Z</time>
      </trkpt>
      <trkpt lat="37.29063833" lon="-7.14113667">
        <ele>23.0</ele>
        <time>2020-01-18T08:05:30.996Z</time>
      </trkpt>
      <trkpt lat="37.29063833" lon="-7.14113667">
        <ele>23.0</ele>
        <time>2020-01-18T08:05:31.979Z</time>
      </trkpt>
      <trkpt lat="37.29067333" lon="-7.14127667">
        <ele>23.0</ele>
        <time>2020-01-18T08:05:32.995Z</time>
      </trkpt>
      <trkpt lat="37.29069167" lon="-7.14134667">
        <ele>23.0</ele>
        <time>2020-01-18T08:05:34.016Z</time>
      </trkpt>
      <trkpt lat="37.29069167" lon="-7.14134667">
        <ele>23.0</ele>
        <time>2020-01-18T08:05:34.989Z</time>
      </trkpt>
      <trkpt lat="37.290745" lon="-7.14148333">
        <ele>23.0</ele>
        <time>2020-01-18T08:05:35.984Z</time>
      </trkpt>
      <trkpt lat="37.290775" lon="-7.14154667">
        <ele>23.0</ele>
        <time>2020-01-18T08:05:37.001Z</time>
      </trkpt>
      <trkpt lat="37.290775" lon="-7.14154667">
        <ele>23.0</ele>
        <time>2020-01-18T08:05:37.981Z</time>
      </trkpt>
      <trkpt lat="37.29082167" lon="-7.14168333">
        <ele>23.0</ele>
        <time>2020-01-18T08:05:38.998Z</time>
      </trkpt>
      <trkpt lat="37.29082167" lon="-7.14168333">
        <ele>23.0</ele>
        <time>2020-01-18T08:05:39.982Z</time>
      </trkpt>
      <trkpt lat="37.29082667" lon="-7.14182833">
        <ele>23.0</ele>
        <time>2020-01-18T08:05:40.996Z</time>
      </trkpt>
      <trkpt lat="37.29082667" lon="-7.14182833">
        <ele>23.0</ele>
        <time>2020-01-18T08:05:41.979Z</time>
      </trkpt>
      <trkpt lat="37.29078333" lon="-7.14196167">
        <ele>24.0</ele>
        <time>2020-01-18T08:05:42.995Z</time>
      </trkpt>
      <trkpt lat="37.29078333" lon="-7.14196167">
        <ele>24.0</ele>
        <time>2020-01-18T08:05:43.980Z</time>
      </trkpt>
      <trkpt lat="37.2907" lon="-7.14206667">
        <ele>24.0</ele>
        <time>2020-01-18T08:05:44.996Z</time>
      </trkpt>
      <trkpt lat="37.2907" lon="-7.14206667">
        <ele>24.0</ele>
        <time>2020-01-18T08:05:45.979Z</time>
      </trkpt>
      <trkpt lat="37.2906" lon="-7.142155">
        <ele>24.0</ele>
        <time>2020-01-18T08:05:46.997Z</time>
      </trkpt>
      <trkpt lat="37.29055333" lon="-7.14220833">
        <ele>24.0</ele>
        <time>2020-01-18T08:05:47.985Z</time>
      </trkpt>
      <trkpt lat="37.29055333" lon="-7.14220833">
        <ele>24.0</ele>
        <time>2020-01-18T08:05:48.981Z</time>
      </trkpt>
      <trkpt lat="37.29047333" lon="-7.14233">
        <ele>24.0</ele>
        <time>2020-01-18T08:05:49.995Z</time>
      </trkpt>
      <trkpt lat="37.29047333" lon="-7.14233">
        <ele>24.0</ele>
        <time>2020-01-18T08:05:50.982Z</time>
      </trkpt>
      <trkpt lat="37.29039167" lon="-7.142455">
        <ele>23.0</ele>
        <time>2020-01-18T08:05:51.996Z</time>
      </trkpt>
      <trkpt lat="37.29034167" lon="-7.14251167">
        <ele>23.0</ele>
        <time>2020-01-18T08:05:52.985Z</time>
      </trkpt>
      <trkpt lat="37.29034167" lon="-7.14251167">
        <ele>23.0</ele>
        <time>2020-01-18T08:05:54.000Z</time>
      </trkpt>
      <trkpt lat="37.29021833" lon="-7.1426">
        <ele>22.0</ele>
        <time>2020-01-18T08:05:54.984Z</time>
      </trkpt>
      <trkpt lat="37.29021833" lon="-7.1426">
        <ele>22.0</ele>
        <time>2020-01-18T08:05:55.999Z</time>
      </trkpt>
      <trkpt lat="37.29008833" lon="-7.14267667">
        <ele>22.0</ele>
        <time>2020-01-18T08:05:56.984Z</time>
      </trkpt>
      <trkpt lat="37.29008833" lon="-7.14267667">
        <ele>22.0</ele>
        <time>2020-01-18T08:05:57.998Z</time>
      </trkpt>
      <trkpt lat="37.28998333" lon="-7.14279667">
        <ele>21.0</ele>
        <time>2020-01-18T08:05:58.985Z</time>
      </trkpt>
      <trkpt lat="37.28995333" lon="-7.14286833">
        <ele>20.0</ele>
        <time>2020-01-18T08:06:00.004Z</time>
      </trkpt>
      <trkpt lat="37.28992667" lon="-7.14294333">
        <ele>20.0</ele>
        <time>2020-01-18T08:06:00.985Z</time>
      </trkpt>
      <trkpt lat="37.28992667" lon="-7.14294333">
        <ele>20.0</ele>
        <time>2020-01-18T08:06:01.999Z</time>
      </trkpt>
      <trkpt lat="37.28988333" lon="-7.14308833">
        <ele>19.0</ele>
        <time>2020-01-18T08:06:02.986Z</time>
      </trkpt>
      <trkpt lat="37.28988333" lon="-7.14308833">
        <ele>19.0</ele>
        <time>2020-01-18T08:06:03.981Z</time>
      </trkpt>
      <trkpt lat="37.28984" lon="-7.14321">
        <ele>18.0</ele>
        <time>2020-01-18T08:06:04.998Z</time>
      </trkpt>
      <trkpt lat="37.28982167" lon="-7.14325333">
        <ele>17.0</ele>
        <time>2020-01-18T08:06:05.985Z</time>
      </trkpt>
      <trkpt lat="37.28982167" lon="-7.14325333">
        <ele>17.0</ele>
        <time>2020-01-18T08:06:07.000Z</time>
      </trkpt>
      <trkpt lat="37.28980833" lon="-7.14332">
        <ele>18.0</ele>
        <time>2020-01-18T08:06:07.986Z</time>
      </trkpt>
      <trkpt lat="37.28980833" lon="-7.14332">
        <ele>18.0</ele>
        <time>2020-01-18T08:06:09.000Z</time>
      </trkpt>
      <trkpt lat="37.28979833" lon="-7.14336833">
        <ele>19.0</ele>
        <time>2020-01-18T08:06:09.984Z</time>
      </trkpt>
      <trkpt lat="37.28979" lon="-7.14338">
        <ele>19.0</ele>
        <time>2020-01-18T08:06:11.003Z</time>
      </trkpt>
      <trkpt lat="37.28979" lon="-7.14338">
        <ele>19.0</ele>
        <time>2020-01-18T08:06:11.980Z</time>
      </trkpt>
      <trkpt lat="37.28977667" lon="-7.14338167">
        <ele>20.0</ele>
        <time>2020-01-18T08:06:12.994Z</time>
      </trkpt>
      <trkpt lat="37.28977667" lon="-7.14338167">
        <ele>20.0</ele>
        <time>2020-01-18T08:06:14.010Z</time>
      </trkpt>
      <trkpt lat="37.28982667" lon="-7.14332333">
        <ele>20.0</ele>
        <time>2020-01-18T08:06:14.992Z</time>
      </trkpt>
      <trkpt lat="37.28982667" lon="-7.14332333">
        <ele>20.0</ele>
        <time>2020-01-18T08:06:15.989Z</time>
      </trkpt>
      <trkpt lat="37.28984333" lon="-7.14326167">
        <ele>20.0</ele>
        <time>2020-01-18T08:06:17.007Z</time>
      </trkpt>
      <trkpt lat="37.28984333" lon="-7.14326167">
        <ele>20.0</ele>
        <time>2020-01-18T08:06:17.989Z</time>
      </trkpt>
      <trkpt lat="37.28985" lon="-7.14318833">
        <ele>20.0</ele>
        <time>2020-01-18T08:06:19.005Z</time>
      </trkpt>
      <trkpt lat="37.28985" lon="-7.14318833">
        <ele>20.0</ele>
        <time>2020-01-18T08:06:19.989Z</time>
      </trkpt>
      <trkpt lat="37.28987333" lon="-7.143105">
        <ele>21.0</ele>
        <time>2020-01-18T08:06:21.004Z</time>
      </trkpt>
      <trkpt lat="37.28987333" lon="-7.143105">
        <ele>21.0</ele>
        <time>2020-01-18T08:06:21.989Z</time>
      </trkpt>
      <trkpt lat="37.28988" lon="-7.14302667">
        <ele>22.0</ele>
        <time>2020-01-18T08:06:22.995Z</time>
      </trkpt>
      <trkpt lat="37.28988" lon="-7.14302667">
        <ele>22.0</ele>
        <time>2020-01-18T08:06:23.988Z</time>
      </trkpt>
      <trkpt lat="37.28987833" lon="-7.14295333">
        <ele>22.0</ele>
        <time>2020-01-18T08:06:25.004Z</time>
      </trkpt>
      <trkpt lat="37.28987833" lon="-7.14295333">
        <ele>22.0</ele>
        <time>2020-01-18T08:06:25.993Z</time>
      </trkpt>
      <trkpt lat="37.28988" lon="-7.142875">
        <ele>22.0</ele>
        <time>2020-01-18T08:06:27.004Z</time>
      </trkpt>
      <trkpt lat="37.28988" lon="-7.142875">
        <ele>22.0</ele>
        <time>2020-01-18T08:06:27.987Z</time>
      </trkpt>
      <trkpt lat="37.28988333" lon="-7.142805">
        <ele>22.0</ele>
        <time>2020-01-18T08:06:29.003Z</time>
      </trkpt>
      <trkpt lat="37.28988333" lon="-7.142805">
        <ele>22.0</ele>
        <time>2020-01-18T08:06:29.987Z</time>
      </trkpt>
      <trkpt lat="37.289885" lon="-7.14273667">
        <ele>23.0</ele>
        <time>2020-01-18T08:06:31.002Z</time>
      </trkpt>
      <trkpt lat="37.289885" lon="-7.14273667">
        <ele>23.0</ele>
        <time>2020-01-18T08:06:31.987Z</time>
      </trkpt>
      <trkpt lat="37.289895" lon="-7.14266833">
        <ele>23.0</ele>
        <time>2020-01-18T08:06:32.990Z</time>
      </trkpt>
      <trkpt lat="37.289895" lon="-7.14266833">
        <ele>23.0</ele>
        <time>2020-01-18T08:06:34.001Z</time>
      </trkpt>
      <trkpt lat="37.28990167" lon="-7.14260167">
        <ele>23.0</ele>
        <time>2020-01-18T08:06:34.996Z</time>
      </trkpt>
      <trkpt lat="37.28990167" lon="-7.14260167">
        <ele>23.0</ele>
        <time>2020-01-18T08:06:35.991Z</time>
      </trkpt>
      <trkpt lat="37.28991" lon="-7.14253">
        <ele>23.0</ele>
        <time>2020-01-18T08:06:37.006Z</time>
      </trkpt>
      <trkpt lat="37.28991" lon="-7.14253">
        <ele>23.0</ele>
        <time>2020-01-18T08:06:37.989Z</time>
      </trkpt>
      <trkpt lat="37.28992" lon="-7.14245833">
        <ele>23.0</ele>
        <time>2020-01-18T08:06:39.003Z</time>
      </trkpt>
      <trkpt lat="37.28992" lon="-7.14245833">
        <ele>23.0</ele>
        <time>2020-01-18T08:06:39.988Z</time>
      </trkpt>
      <trkpt lat="37.28993167" lon="-7.14238667">
        <ele>23.0</ele>
        <time>2020-01-18T08:06:41.004Z</time>
      </trkpt>
      <trkpt lat="37.28993333" lon="-7.14235">
        <ele>23.0</ele>
        <time>2020-01-18T08:06:41.994Z</time>
      </trkpt>
      <trkpt lat="37.28993333" lon="-7.14235">
        <ele>23.0</ele>
        <time>2020-01-18T08:06:43.007Z</time>
      </trkpt>
      <trkpt lat="37.28994333" lon="-7.14228167">
        <ele>22.0</ele>
        <time>2020-01-18T08:06:43.994Z</time>
      </trkpt>
      <trkpt lat="37.28994333" lon="-7.14224667">
        <ele>22.0</ele>
        <time>2020-01-18T08:06:45.006Z</time>
      </trkpt>
      <trkpt lat="37.28994333" lon="-7.14224667">
        <ele>22.0</ele>
        <time>2020-01-18T08:06:45.990Z</time>
      </trkpt>
      <trkpt lat="37.28998167" lon="-7.14216833">
        <ele>23.0</ele>
        <time>2020-01-18T08:06:47.004Z</time>
      </trkpt>
      <trkpt lat="37.28999" lon="-7.14213333">
        <ele>24.0</ele>
        <time>2020-01-18T08:06:47.994Z</time>
      </trkpt>
      <trkpt lat="37.28999" lon="-7.14213333">
        <ele>24.0</ele>
        <time>2020-01-18T08:06:48.979Z</time>
      </trkpt>
      <trkpt lat="37.28999833" lon="-7.14206">
        <ele>24.0</ele>
        <time>2020-01-18T08:06:49.994Z</time>
      </trkpt>
      <trkpt lat="37.29000167" lon="-7.14202667">
        <ele>24.0</ele>
        <time>2020-01-18T08:06:51.006Z</time>
      </trkpt>
      <trkpt lat="37.29000167" lon="-7.14202667">
        <ele>24.0</ele>
        <time>2020-01-18T08:06:51.989Z</time>
      </trkpt>
      <trkpt lat="37.29000667" lon="-7.14195667">
        <ele>24.0</ele>
        <time>2020-01-18T08:06:52.992Z</time>
      </trkpt>
      <trkpt lat="37.29001" lon="-7.14192167">
        <ele>24.0</ele>
        <time>2020-01-18T08:06:54.008Z</time>
      </trkpt>
      <trkpt lat="37.29000833" lon="-7.141885">
        <ele>24.0</ele>
        <time>2020-01-18T08:06:54.995Z</time>
      </trkpt>
      <trkpt lat="37.29000833" lon="-7.141885">
        <ele>24.0</ele>
        <time>2020-01-18T08:06:56.007Z</time>
      </trkpt>
      <trkpt lat="37.28999167" lon="-7.14182333">
        <ele>24.0</ele>
        <time>2020-01-18T08:06:56.994Z</time>
      </trkpt>
      <trkpt lat="37.28999167" lon="-7.14182333">
        <ele>24.0</ele>
        <time>2020-01-18T08:06:58.011Z</time>
      </trkpt>
      <trkpt lat="37.289945" lon="-7.14178333">
        <ele>24.0</ele>
        <time>2020-01-18T08:06:58.993Z</time>
      </trkpt>
      <trkpt lat="37.289945" lon="-7.14178333">
        <ele>24.0</ele>
        <time>2020-01-18T08:07:00.006Z</time>
      </trkpt>
      <trkpt lat="37.28988" lon="-7.141765">
        <ele>24.0</ele>
        <time>2020-01-18T08:07:00.995Z</time>
      </trkpt>
      <trkpt lat="37.28988" lon="-7.141765">
        <ele>24.0</ele>
        <time>2020-01-18T08:07:02.015Z</time>
      </trkpt>
      <trkpt lat="37.289805" lon="-7.141745">
        <ele>23.0</ele>
        <time>2020-01-18T08:07:02.996Z</time>
      </trkpt>
      <trkpt lat="37.289765" lon="-7.141735">
        <ele>23.0</ele>
        <time>2020-01-18T08:07:03.994Z</time>
      </trkpt>
      <trkpt lat="37.289725" lon="-7.141725">
        <ele>22.0</ele>
        <time>2020-01-18T08:07:05.010Z</time>
      </trkpt>
      <trkpt lat="37.28968167" lon="-7.14171667">
        <ele>22.0</ele>
        <time>2020-01-18T08:07:05.995Z</time>
      </trkpt>
      <trkpt lat="37.28968167" lon="-7.14171667">
        <ele>22.0</ele>
        <time>2020-01-18T08:07:06.992Z</time>
      </trkpt>
      <trkpt lat="37.28959333" lon="-7.14169667">
        <ele>21.0</ele>
        <time>2020-01-18T08:07:07.994Z</time>
      </trkpt>
      <trkpt lat="37.28954833" lon="-7.14168333">
        <ele>21.0</ele>
        <time>2020-01-18T08:07:09.007Z</time>
      </trkpt>
      <trkpt lat="37.28954833" lon="-7.14168333">
        <ele>21.0</ele>
        <time>2020-01-18T08:07:09.989Z</time>
      </trkpt>
      <trkpt lat="37.28945833" lon="-7.14165167">
        <ele>21.0</ele>
        <time>2020-01-18T08:07:11.010Z</time>
      </trkpt>
      <trkpt lat="37.28945833" lon="-7.14165167">
        <ele>21.0</ele>
        <time>2020-01-18T08:07:11.988Z</time>
      </trkpt>
      <trkpt lat="37.28937" lon="-7.141605">
        <ele>20.0</ele>
        <time>2020-01-18T08:07:13.005Z</time>
      </trkpt>
      <trkpt lat="37.28937" lon="-7.141605">
        <ele>20.0</ele>
        <time>2020-01-18T08:07:13.989Z</time>
      </trkpt>
      <trkpt lat="37.28928333" lon="-7.14155167">
        <ele>21.0</ele>
        <time>2020-01-18T08:07:15.005Z</time>
      </trkpt>
      <trkpt lat="37.28928333" lon="-7.14155167">
        <ele>21.0</ele>
        <time>2020-01-18T08:07:15.990Z</time>
      </trkpt>
      <trkpt lat="37.28919333" lon="-7.14150667">
        <ele>20.0</ele>
        <time>2020-01-18T08:07:17.005Z</time>
      </trkpt>
      <trkpt lat="37.28919333" lon="-7.14150667">
        <ele>20.0</ele>
        <time>2020-01-18T08:07:17.989Z</time>
      </trkpt>
      <trkpt lat="37.28910167" lon="-7.14148">
        <ele>22.0</ele>
        <time>2020-01-18T08:07:19.007Z</time>
      </trkpt>
      <trkpt lat="37.28910167" lon="-7.14148">
        <ele>22.0</ele>
        <time>2020-01-18T08:07:19.989Z</time>
      </trkpt>
      <trkpt lat="37.28900333" lon="-7.141455">
        <ele>22.0</ele>
        <time>2020-01-18T08:07:21.004Z</time>
      </trkpt>
      <trkpt lat="37.28900333" lon="-7.141455">
        <ele>22.0</ele>
        <time>2020-01-18T08:07:21.988Z</time>
      </trkpt>
      <trkpt lat="37.288905" lon="-7.14143833">
        <ele>23.0</ele>
        <time>2020-01-18T08:07:22.998Z</time>
      </trkpt>
      <trkpt lat="37.288905" lon="-7.14143833">
        <ele>23.0</ele>
        <time>2020-01-18T08:07:23.998Z</time>
      </trkpt>
      <trkpt lat="37.28879333" lon="-7.14142667">
        <ele>22.0</ele>
        <time>2020-01-18T08:07:25.012Z</time>
      </trkpt>
      <trkpt lat="37.28879333" lon="-7.14142667">
        <ele>22.0</ele>
        <time>2020-01-18T08:07:25.990Z</time>
      </trkpt>
      <trkpt lat="37.288685" lon="-7.14143">
        <ele>22.0</ele>
        <time>2020-01-18T08:07:27.004Z</time>
      </trkpt>
      <trkpt lat="37.28862667" lon="-7.14144">
        <ele>22.0</ele>
        <time>2020-01-18T08:07:27.994Z</time>
      </trkpt>
      <trkpt lat="37.28857167" lon="-7.14146167">
        <ele>22.0</ele>
        <time>2020-01-18T08:07:29.007Z</time>
      </trkpt>
      <trkpt lat="37.28857167" lon="-7.14146167">
        <ele>22.0</ele>
        <time>2020-01-18T08:07:29.987Z</time>
      </trkpt>
      <trkpt lat="37.28847667" lon="-7.14154167">
        <ele>22.0</ele>
        <time>2020-01-18T08:07:31.003Z</time>
      </trkpt>
      <trkpt lat="37.28847667" lon="-7.14154167">
        <ele>22.0</ele>
        <time>2020-01-18T08:07:31.988Z</time>
      </trkpt>
      <trkpt lat="37.28841" lon="-7.14165833">
        <ele>22.0</ele>
        <time>2020-01-18T08:07:33.004Z</time>
      </trkpt>
      <trkpt lat="37.28841" lon="-7.14165833">
        <ele>22.0</ele>
        <time>2020-01-18T08:07:33.990Z</time>
      </trkpt>
      <trkpt lat="37.28831667" lon="-7.141755">
        <ele>22.0</ele>
        <time>2020-01-18T08:07:35.004Z</time>
      </trkpt>
      <trkpt lat="37.28826833" lon="-7.14178667">
        <ele>22.0</ele>
        <time>2020-01-18T08:07:35.994Z</time>
      </trkpt>
      <trkpt lat="37.288215" lon="-7.14179833">
        <ele>22.0</ele>
        <time>2020-01-18T08:07:37.010Z</time>
      </trkpt>
      <trkpt lat="37.288215" lon="-7.14179833">
        <ele>22.0</ele>
        <time>2020-01-18T08:07:37.989Z</time>
      </trkpt>
      <trkpt lat="37.28811333" lon="-7.14178167">
        <ele>23.0</ele>
        <time>2020-01-18T08:07:39.005Z</time>
      </trkpt>
      <trkpt lat="37.28811333" lon="-7.14178167">
        <ele>23.0</ele>
        <time>2020-01-18T08:07:39.988Z</time>
      </trkpt>
      <trkpt lat="37.28801833" lon="-7.14172">
        <ele>23.0</ele>
        <time>2020-01-18T08:07:41.004Z</time>
      </trkpt>
      <trkpt lat="37.28801833" lon="-7.14172">
        <ele>23.0</ele>
        <time>2020-01-18T08:07:41.988Z</time>
      </trkpt>
      <trkpt lat="37.28794667" lon="-7.14162833">
        <ele>23.0</ele>
        <time>2020-01-18T08:07:43.005Z</time>
      </trkpt>
      <trkpt lat="37.28794667" lon="-7.14162833">
        <ele>23.0</ele>
        <time>2020-01-18T08:07:43.988Z</time>
      </trkpt>
      <trkpt lat="37.28789833" lon="-7.14151167">
        <ele>23.0</ele>
        <time>2020-01-18T08:07:45.004Z</time>
      </trkpt>
      <trkpt lat="37.28789833" lon="-7.14151167">
        <ele>23.0</ele>
        <time>2020-01-18T08:07:45.989Z</time>
      </trkpt>
      <trkpt lat="37.28785167" lon="-7.14139333">
        <ele>23.0</ele>
        <time>2020-01-18T08:07:47.003Z</time>
      </trkpt>
      <trkpt lat="37.28781333" lon="-7.14134667">
        <ele>24.0</ele>
        <time>2020-01-18T08:07:47.994Z</time>
      </trkpt>
      <trkpt lat="37.28781333" lon="-7.14134667">
        <ele>24.0</ele>
        <time>2020-01-18T08:07:49.009Z</time>
      </trkpt>
      <trkpt lat="37.28772" lon="-7.14128333">
        <ele>23.0</ele>
        <time>2020-01-18T08:07:49.995Z</time>
      </trkpt>
      <trkpt lat="37.28772" lon="-7.14128333">
        <ele>23.0</ele>
        <time>2020-01-18T08:07:50.988Z</time>
      </trkpt>
      <trkpt lat="37.28761667" lon="-7.14126333">
        <ele>23.0</ele>
        <time>2020-01-18T08:07:51.994Z</time>
      </trkpt>
      <trkpt lat="37.28761667" lon="-7.14126333">
        <ele>23.0</ele>
        <time>2020-01-18T08:07:53.007Z</time>
      </trkpt>
      <trkpt lat="37.28751333" lon="-7.14125167">
        <ele>24.0</ele>
        <time>2020-01-18T08:07:53.994Z</time>
      </trkpt>
      <trkpt lat="37.28745833" lon="-7.14124833">
        <ele>23.0</ele>
        <time>2020-01-18T08:07:55.015Z</time>
      </trkpt>
      <trkpt lat="37.28745833" lon="-7.14124833">
        <ele>23.0</ele>
        <time>2020-01-18T08:07:55.990Z</time>
      </trkpt>
      <trkpt lat="37.28735" lon="-7.14125">
        <ele>23.0</ele>
        <time>2020-01-18T08:07:57.013Z</time>
      </trkpt>
      <trkpt lat="37.28729333" lon="-7.14125667">
        <ele>23.0</ele>
        <time>2020-01-18T08:07:57.994Z</time>
      </trkpt>
      <trkpt lat="37.28723833" lon="-7.141265">
        <ele>23.0</ele>
        <time>2020-01-18T08:07:59.006Z</time>
      </trkpt>
      <trkpt lat="37.28723833" lon="-7.141265">
        <ele>23.0</ele>
        <time>2020-01-18T08:07:59.988Z</time>
      </trkpt>
      <trkpt lat="37.28712833" lon="-7.14128">
        <ele>23.0</ele>
        <time>2020-01-18T08:08:00.995Z</time>
      </trkpt>
      <trkpt lat="37.28712833" lon="-7.14128">
        <ele>23.0</ele>
        <time>2020-01-18T08:08:02.007Z</time>
      </trkpt>
      <trkpt lat="37.28701833" lon="-7.14128833">
        <ele>23.0</ele>
        <time>2020-01-18T08:08:03.012Z</time>
      </trkpt>
      <trkpt lat="37.286965" lon="-7.14128833">
        <ele>23.0</ele>
        <time>2020-01-18T08:08:03.995Z</time>
      </trkpt>
      <trkpt lat="37.286965" lon="-7.14128833">
        <ele>23.0</ele>
        <time>2020-01-18T08:08:05.007Z</time>
      </trkpt>
      <trkpt lat="37.28686167" lon="-7.14128">
        <ele>24.0</ele>
        <time>2020-01-18T08:08:05.994Z</time>
      </trkpt>
      <trkpt lat="37.28686167" lon="-7.14128">
        <ele>24.0</ele>
        <time>2020-01-18T08:08:07.008Z</time>
      </trkpt>
      <trkpt lat="37.28676667" lon="-7.14129333">
        <ele>24.0</ele>
        <time>2020-01-18T08:08:07.994Z</time>
      </trkpt>
      <trkpt lat="37.28672667" lon="-7.14130667">
        <ele>24.0</ele>
        <time>2020-01-18T08:08:09.006Z</time>
      </trkpt>
      <trkpt lat="37.28672667" lon="-7.14130667">
        <ele>24.0</ele>
        <time>2020-01-18T08:08:09.988Z</time>
      </trkpt>
      <trkpt lat="37.28664833" lon="-7.14132333">
        <ele>25.0</ele>
        <time>2020-01-18T08:08:11.004Z</time>
      </trkpt>
      <trkpt lat="37.28664833" lon="-7.14132333">
        <ele>25.0</ele>
        <time>2020-01-18T08:08:11.988Z</time>
      </trkpt>
      <trkpt lat="37.28657333" lon="-7.14133">
        <ele>24.0</ele>
        <time>2020-01-18T08:08:13.005Z</time>
      </trkpt>
      <trkpt lat="37.28657333" lon="-7.14133">
        <ele>24.0</ele>
        <time>2020-01-18T08:08:13.988Z</time>
      </trkpt>
      <trkpt lat="37.28651" lon="-7.141335">
        <ele>24.0</ele>
        <time>2020-01-18T08:08:15.003Z</time>
      </trkpt>
      <trkpt lat="37.28651" lon="-7.141335">
        <ele>24.0</ele>
        <time>2020-01-18T08:08:15.988Z</time>
      </trkpt>
      <trkpt lat="37.286455" lon="-7.14130333">
        <ele>25.0</ele>
        <time>2020-01-18T08:08:17.005Z</time>
      </trkpt>
      <trkpt lat="37.28643167" lon="-7.141275">
        <ele>24.0</ele>
        <time>2020-01-18T08:08:17.995Z</time>
      </trkpt>
      <trkpt lat="37.28643167" lon="-7.141275">
        <ele>24.0</ele>
        <time>2020-01-18T08:08:19.008Z</time>
      </trkpt>
      <trkpt lat="37.28639833" lon="-7.14121667">
        <ele>24.0</ele>
        <time>2020-01-18T08:08:19.995Z</time>
      </trkpt>
      <trkpt lat="37.28638833" lon="-7.14118833">
        <ele>24.0</ele>
        <time>2020-01-18T08:08:21.007Z</time>
      </trkpt>
      <trkpt lat="37.28638833" lon="-7.14118833">
        <ele>24.0</ele>
        <time>2020-01-18T08:08:21.990Z</time>
      </trkpt>
      <trkpt lat="37.28636" lon="-7.141155">
        <ele>26.0</ele>
        <time>2020-01-18T08:08:23.006Z</time>
      </trkpt>
      <trkpt lat="37.28636" lon="-7.141155">
        <ele>26.0</ele>
        <time>2020-01-18T08:08:23.989Z</time>
      </trkpt>
      <trkpt lat="37.286335" lon="-7.14118833">
        <ele>27.0</ele>
        <time>2020-01-18T08:08:25.008Z</time>
      </trkpt>
      <trkpt lat="37.286335" lon="-7.14118833">
        <ele>27.0</ele>
        <time>2020-01-18T08:08:25.989Z</time>
      </trkpt>
      <trkpt lat="37.28632333" lon="-7.14126833">
        <ele>28.0</ele>
        <time>2020-01-18T08:08:27.004Z</time>
      </trkpt>
      <trkpt lat="37.28632333" lon="-7.14126833">
        <ele>28.0</ele>
        <time>2020-01-18T08:08:27.989Z</time>
      </trkpt>
      <trkpt lat="37.28629833" lon="-7.14134333">
        <ele>27.0</ele>
        <time>2020-01-18T08:08:29.004Z</time>
      </trkpt>
      <trkpt lat="37.28629833" lon="-7.14134333">
        <ele>27.0</ele>
        <time>2020-01-18T08:08:29.989Z</time>
      </trkpt>
      <trkpt lat="37.286265" lon="-7.14141833">
        <ele>27.0</ele>
        <time>2020-01-18T08:08:31.004Z</time>
      </trkpt>
      <trkpt lat="37.286265" lon="-7.14141833">
        <ele>27.0</ele>
        <time>2020-01-18T08:08:31.988Z</time>
      </trkpt>
      <trkpt lat="37.286225" lon="-7.14150333">
        <ele>27.0</ele>
        <time>2020-01-18T08:08:33.004Z</time>
      </trkpt>
      <trkpt lat="37.286225" lon="-7.14150333">
        <ele>27.0</ele>
        <time>2020-01-18T08:08:33.988Z</time>
      </trkpt>
      <trkpt lat="37.28619" lon="-7.14158">
        <ele>28.0</ele>
        <time>2020-01-18T08:08:35.004Z</time>
      </trkpt>
      <trkpt lat="37.286175" lon="-7.14161">
        <ele>28.0</ele>
        <time>2020-01-18T08:08:35.995Z</time>
      </trkpt>
      <trkpt lat="37.286175" lon="-7.14161">
        <ele>28.0</ele>
        <time>2020-01-18T08:08:37.010Z</time>
      </trkpt>
      <trkpt lat="37.28615833" lon="-7.141655">
        <ele>28.0</ele>
        <time>2020-01-18T08:08:37.994Z</time>
      </trkpt>
      <trkpt lat="37.28615333" lon="-7.141675">
        <ele>29.0</ele>
        <time>2020-01-18T08:08:39.007Z</time>
      </trkpt>
      <trkpt lat="37.28615333" lon="-7.141675">
        <ele>29.0</ele>
        <time>2020-01-18T08:08:39.989Z</time>
      </trkpt>
      <trkpt lat="37.28615167" lon="-7.14174167">
        <ele>29.0</ele>
        <time>2020-01-18T08:08:41.004Z</time>
      </trkpt>
      <trkpt lat="37.28615167" lon="-7.14174167">
        <ele>29.0</ele>
        <time>2020-01-18T08:08:42.008Z</time>
      </trkpt>
      <trkpt lat="37.28611167" lon="-7.14183333">
        <ele>28.0</ele>
        <time>2020-01-18T08:08:42.996Z</time>
      </trkpt>
      <trkpt lat="37.28611167" lon="-7.14183333">
        <ele>28.0</ele>
        <time>2020-01-18T08:08:43.989Z</time>
      </trkpt>
      <trkpt lat="37.28602167" lon="-7.14191333">
        <ele>27.0</ele>
        <time>2020-01-18T08:08:45.004Z</time>
      </trkpt>
      <trkpt lat="37.28597167" lon="-7.14195667">
        <ele>27.0</ele>
        <time>2020-01-18T08:08:45.994Z</time>
      </trkpt>
      <trkpt lat="37.28597167" lon="-7.14195667">
        <ele>27.0</ele>
        <time>2020-01-18T08:08:46.994Z</time>
      </trkpt>
      <trkpt lat="37.285865" lon="-7.14204667">
        <ele>27.0</ele>
        <time>2020-01-18T08:08:48.008Z</time>
      </trkpt>
      <trkpt lat="37.28580833" lon="-7.14209167">
        <ele>27.0</ele>
        <time>2020-01-18T08:08:48.996Z</time>
      </trkpt>
      <trkpt lat="37.28580833" lon="-7.14209167">
        <ele>27.0</ele>
        <time>2020-01-18T08:08:50.015Z</time>
      </trkpt>
      <trkpt lat="37.28570167" lon="-7.14219167">
        <ele>27.0</ele>
        <time>2020-01-18T08:08:50.994Z</time>
      </trkpt>
      <trkpt lat="37.28570167" lon="-7.14219167">
        <ele>27.0</ele>
        <time>2020-01-18T08:08:52.010Z</time>
      </trkpt>
      <trkpt lat="37.28559167" lon="-7.14228167">
        <ele>27.0</ele>
        <time>2020-01-18T08:08:52.994Z</time>
      </trkpt>
      <trkpt lat="37.28559167" lon="-7.14228167">
        <ele>27.0</ele>
        <time>2020-01-18T08:08:54.010Z</time>
      </trkpt>
      <trkpt lat="37.28548667" lon="-7.142365">
        <ele>27.0</ele>
        <time>2020-01-18T08:08:54.995Z</time>
      </trkpt>
      <trkpt lat="37.28548667" lon="-7.142365">
        <ele>27.0</ele>
        <time>2020-01-18T08:08:56.010Z</time>
      </trkpt>
      <trkpt lat="37.285385" lon="-7.14244333">
        <ele>26.0</ele>
        <time>2020-01-18T08:08:56.995Z</time>
      </trkpt>
      <trkpt lat="37.285385" lon="-7.14244333">
        <ele>26.0</ele>
        <time>2020-01-18T08:08:58.008Z</time>
      </trkpt>
      <trkpt lat="37.285295" lon="-7.14254167">
        <ele>27.0</ele>
        <time>2020-01-18T08:08:58.995Z</time>
      </trkpt>
      <trkpt lat="37.285295" lon="-7.14254167">
        <ele>27.0</ele>
        <time>2020-01-18T08:09:00.008Z</time>
      </trkpt>
      <trkpt lat="37.28523" lon="-7.14265833">
        <ele>27.0</ele>
        <time>2020-01-18T08:09:00.997Z</time>
      </trkpt>
      <trkpt lat="37.28523" lon="-7.14265833">
        <ele>27.0</ele>
        <time>2020-01-18T08:09:01.989Z</time>
      </trkpt>
      <trkpt lat="37.28520667" lon="-7.14280333">
        <ele>28.0</ele>
        <time>2020-01-18T08:09:03.009Z</time>
      </trkpt>
      <trkpt lat="37.28519333" lon="-7.14287667">
        <ele>28.0</ele>
        <time>2020-01-18T08:09:03.994Z</time>
      </trkpt>
      <trkpt lat="37.28517" lon="-7.14295333">
        <ele>27.0</ele>
        <time>2020-01-18T08:09:05.010Z</time>
      </trkpt>
      <trkpt lat="37.28517" lon="-7.14295333">
        <ele>27.0</ele>
        <time>2020-01-18T08:09:05.989Z</time>
      </trkpt>
      <trkpt lat="37.28509333" lon="-7.143075">
        <ele>27.0</ele>
        <time>2020-01-18T08:09:07.004Z</time>
      </trkpt>
      <trkpt lat="37.28509333" lon="-7.143075">
        <ele>27.0</ele>
        <time>2020-01-18T08:09:07.988Z</time>
      </trkpt>
      <trkpt lat="37.28498667" lon="-7.14314">
        <ele>26.0</ele>
        <time>2020-01-18T08:09:09.003Z</time>
      </trkpt>
      <trkpt lat="37.28498667" lon="-7.14314">
        <ele>26.0</ele>
        <time>2020-01-18T08:09:09.990Z</time>
      </trkpt>
      <trkpt lat="37.28486833" lon="-7.143145">
        <ele>26.0</ele>
        <time>2020-01-18T08:09:11.011Z</time>
      </trkpt>
      <trkpt lat="37.28486833" lon="-7.143145">
        <ele>26.0</ele>
        <time>2020-01-18T08:09:11.990Z</time>
      </trkpt>
      <trkpt lat="37.28474667" lon="-7.143105">
        <ele>25.0</ele>
        <time>2020-01-18T08:09:13.005Z</time>
      </trkpt>
      <trkpt lat="37.28474667" lon="-7.143105">
        <ele>25.0</ele>
        <time>2020-01-18T08:09:13.990Z</time>
      </trkpt>
      <trkpt lat="37.28462167" lon="-7.1431">
        <ele>25.0</ele>
        <time>2020-01-18T08:09:15.006Z</time>
      </trkpt>
      <trkpt lat="37.28462167" lon="-7.1431">
        <ele>25.0</ele>
        <time>2020-01-18T08:09:15.988Z</time>
      </trkpt>
      <trkpt lat="37.28450667" lon="-7.14315167">
        <ele>25.0</ele>
        <time>2020-01-18T08:09:17.003Z</time>
      </trkpt>
      <trkpt lat="37.28450667" lon="-7.14315167">
        <ele>25.0</ele>
        <time>2020-01-18T08:09:17.988Z</time>
      </trkpt>
      <trkpt lat="37.284395" lon="-7.14322333">
        <ele>25.0</ele>
        <time>2020-01-18T08:09:19.004Z</time>
      </trkpt>
      <trkpt lat="37.284395" lon="-7.14322333">
        <ele>25.0</ele>
        <time>2020-01-18T08:09:19.989Z</time>
      </trkpt>
      <trkpt lat="37.28428167" lon="-7.143295">
        <ele>24.0</ele>
        <time>2020-01-18T08:09:20.995Z</time>
      </trkpt>
      <trkpt lat="37.28428167" lon="-7.143295">
        <ele>24.0</ele>
        <time>2020-01-18T08:09:22.010Z</time>
      </trkpt>
      <trkpt lat="37.28415833" lon="-7.14337167">
        <ele>24.0</ele>
        <time>2020-01-18T08:09:22.994Z</time>
      </trkpt>
      <trkpt lat="37.28415833" lon="-7.14337167">
        <ele>24.0</ele>
        <time>2020-01-18T08:09:23.992Z</time>
      </trkpt>
      <trkpt lat="37.28403" lon="-7.14345">
        <ele>24.0</ele>
        <time>2020-01-18T08:09:25.006Z</time>
      </trkpt>
      <trkpt lat="37.28403" lon="-7.14345">
        <ele>24.0</ele>
        <time>2020-01-18T08:09:25.990Z</time>
      </trkpt>
      <trkpt lat="37.283895" lon="-7.14352667">
        <ele>23.0</ele>
        <time>2020-01-18T08:09:27.004Z</time>
      </trkpt>
      <trkpt lat="37.283895" lon="-7.14352667">
        <ele>23.0</ele>
        <time>2020-01-18T08:09:27.990Z</time>
      </trkpt>
      <trkpt lat="37.28375833" lon="-7.14360167">
        <ele>23.0</ele>
        <time>2020-01-18T08:09:29.004Z</time>
      </trkpt>
      <trkpt lat="37.28375833" lon="-7.14360167">
        <ele>23.0</ele>
        <time>2020-01-18T08:09:29.988Z</time>
      </trkpt>
      <trkpt lat="37.28361833" lon="-7.143675">
        <ele>23.0</ele>
        <time>2020-01-18T08:09:31.003Z</time>
      </trkpt>
      <trkpt lat="37.28361833" lon="-7.143675">
        <ele>23.0</ele>
        <time>2020-01-18T08:09:31.989Z</time>
      </trkpt>
      <trkpt lat="37.28347667" lon="-7.143745">
        <ele>22.0</ele>
        <time>2020-01-18T08:09:33.005Z</time>
      </trkpt>
      <trkpt lat="37.28347667" lon="-7.143745">
        <ele>22.0</ele>
        <time>2020-01-18T08:09:33.989Z</time>
      </trkpt>
      <trkpt lat="37.283335" lon="-7.14381167">
        <ele>22.0</ele>
        <time>2020-01-18T08:09:35.003Z</time>
      </trkpt>
      <trkpt lat="37.283335" lon="-7.14381167">
        <ele>22.0</ele>
        <time>2020-01-18T08:09:35.989Z</time>
      </trkpt>
      <trkpt lat="37.28319" lon="-7.143875">
        <ele>21.0</ele>
        <time>2020-01-18T08:09:37.005Z</time>
      </trkpt>
      <trkpt lat="37.28319" lon="-7.143875">
        <ele>21.0</ele>
        <time>2020-01-18T08:09:37.985Z</time>
      </trkpt>
      <trkpt lat="37.28304333" lon="-7.143935">
        <ele>21.0</ele>
        <time>2020-01-18T08:09:39.000Z</time>
      </trkpt>
      <trkpt lat="37.28304333" lon="-7.143935">
        <ele>21.0</ele>
        <time>2020-01-18T08:09:40.014Z</time>
      </trkpt>
      <trkpt lat="37.282895" lon="-7.143995">
        <ele>21.0</ele>
        <time>2020-01-18T08:09:40.994Z</time>
      </trkpt>
      <trkpt lat="37.282895" lon="-7.143995">
        <ele>21.0</ele>
        <time>2020-01-18T08:09:42.007Z</time>
      </trkpt>
      <trkpt lat="37.28274167" lon="-7.14405333">
        <ele>20.0</ele>
        <time>2020-01-18T08:09:42.994Z</time>
      </trkpt>
      <trkpt lat="37.28274167" lon="-7.14405333">
        <ele>20.0</ele>
        <time>2020-01-18T08:09:44.010Z</time>
      </trkpt>
      <trkpt lat="37.28258833" lon="-7.14411167">
        <ele>20.0</ele>
        <time>2020-01-18T08:09:44.994Z</time>
      </trkpt>
      <trkpt lat="37.28258833" lon="-7.14411167">
        <ele>20.0</ele>
        <time>2020-01-18T08:09:45.988Z</time>
      </trkpt>
      <trkpt lat="37.28243333" lon="-7.14417">
        <ele>20.0</ele>
        <time>2020-01-18T08:09:47.003Z</time>
      </trkpt>
      <trkpt lat="37.28243333" lon="-7.14417">
        <ele>20.0</ele>
        <time>2020-01-18T08:09:47.993Z</time>
      </trkpt>
      <trkpt lat="37.28228167" lon="-7.14423167">
        <ele>19.0</ele>
        <time>2020-01-18T08:09:49.004Z</time>
      </trkpt>
      <trkpt lat="37.28228167" lon="-7.14423167">
        <ele>19.0</ele>
        <time>2020-01-18T08:09:49.988Z</time>
      </trkpt>
      <trkpt lat="37.28213333" lon="-7.14429333">
        <ele>19.0</ele>
        <time>2020-01-18T08:09:51.003Z</time>
      </trkpt>
      <trkpt lat="37.28213333" lon="-7.14429333">
        <ele>19.0</ele>
        <time>2020-01-18T08:09:52.007Z</time>
      </trkpt>
      <trkpt lat="37.28199" lon="-7.14435167">
        <ele>19.0</ele>
        <time>2020-01-18T08:09:53.004Z</time>
      </trkpt>
      <trkpt lat="37.28199" lon="-7.14435167">
        <ele>19.0</ele>
        <time>2020-01-18T08:09:53.989Z</time>
      </trkpt>
      <trkpt lat="37.28185167" lon="-7.14441667">
        <ele>19.0</ele>
        <time>2020-01-18T08:09:55.004Z</time>
      </trkpt>
      <trkpt lat="37.28185167" lon="-7.14441667">
        <ele>19.0</ele>
        <time>2020-01-18T08:09:55.988Z</time>
      </trkpt>
      <trkpt lat="37.281715" lon="-7.14448">
        <ele>18.0</ele>
        <time>2020-01-18T08:09:57.003Z</time>
      </trkpt>
      <trkpt lat="37.281715" lon="-7.14448">
        <ele>18.0</ele>
        <time>2020-01-18T08:09:57.989Z</time>
      </trkpt>
      <trkpt lat="37.28158667" lon="-7.14455">
        <ele>18.0</ele>
        <time>2020-01-18T08:09:59.005Z</time>
      </trkpt>
      <trkpt lat="37.28158667" lon="-7.14455">
        <ele>18.0</ele>
        <time>2020-01-18T08:09:59.991Z</time>
      </trkpt>
      <trkpt lat="37.28146333" lon="-7.14461">
        <ele>18.0</ele>
        <time>2020-01-18T08:10:01.006Z</time>
      </trkpt>
      <trkpt lat="37.28146333" lon="-7.14461">
        <ele>18.0</ele>
        <time>2020-01-18T08:10:01.989Z</time>
      </trkpt>
      <trkpt lat="37.28134667" lon="-7.14467">
        <ele>18.0</ele>
        <time>2020-01-18T08:10:03.004Z</time>
      </trkpt>
      <trkpt lat="37.28134667" lon="-7.14467">
        <ele>18.0</ele>
        <time>2020-01-18T08:10:03.988Z</time>
      </trkpt>
      <trkpt lat="37.281235" lon="-7.14473667">
        <ele>18.0</ele>
        <time>2020-01-18T08:10:05.002Z</time>
      </trkpt>
      <trkpt lat="37.28117667" lon="-7.14477">
        <ele>17.0</ele>
        <time>2020-01-18T08:10:05.996Z</time>
      </trkpt>
      <trkpt lat="37.28117667" lon="-7.14477">
        <ele>17.0</ele>
        <time>2020-01-18T08:10:07.009Z</time>
      </trkpt>
      <trkpt lat="37.28105833" lon="-7.144835">
        <ele>17.0</ele>
        <time>2020-01-18T08:10:07.994Z</time>
      </trkpt>
      <trkpt lat="37.28099667" lon="-7.14486167">
        <ele>17.0</ele>
        <time>2020-01-18T08:10:08.994Z</time>
      </trkpt>
      <trkpt lat="37.28099667" lon="-7.14486167">
        <ele>17.0</ele>
        <time>2020-01-18T08:10:10.007Z</time>
      </trkpt>
      <trkpt lat="37.28087" lon="-7.14492167">
        <ele>17.0</ele>
        <time>2020-01-18T08:10:10.992Z</time>
      </trkpt>
      <trkpt lat="37.28087" lon="-7.14492167">
        <ele>17.0</ele>
        <time>2020-01-18T08:10:12.003Z</time>
      </trkpt>
      <trkpt lat="37.28074667" lon="-7.14497667">
        <ele>17.0</ele>
        <time>2020-01-18T08:10:12.995Z</time>
      </trkpt>
      <trkpt lat="37.28074667" lon="-7.14497667">
        <ele>17.0</ele>
        <time>2020-01-18T08:10:14.009Z</time>
      </trkpt>
      <trkpt lat="37.280625" lon="-7.14495667">
        <ele>16.0</ele>
        <time>2020-01-18T08:10:14.995Z</time>
      </trkpt>
      <trkpt lat="37.280625" lon="-7.14495667">
        <ele>16.0</ele>
        <time>2020-01-18T08:10:16.007Z</time>
      </trkpt>
      <trkpt lat="37.28052833" lon="-7.144865">
        <ele>16.0</ele>
        <time>2020-01-18T08:10:16.994Z</time>
      </trkpt>
      <trkpt lat="37.28052833" lon="-7.144865">
        <ele>16.0</ele>
        <time>2020-01-18T08:10:18.008Z</time>
      </trkpt>
      <trkpt lat="37.28045833" lon="-7.14476333">
        <ele>15.0</ele>
        <time>2020-01-18T08:10:18.995Z</time>
      </trkpt>
      <trkpt lat="37.28045833" lon="-7.14476333">
        <ele>15.0</ele>
        <time>2020-01-18T08:10:19.979Z</time>
      </trkpt>
      <trkpt lat="37.280405" lon="-7.14465333">
        <ele>15.0</ele>
        <time>2020-01-18T08:10:20.995Z</time>
      </trkpt>
      <trkpt lat="37.280405" lon="-7.14465333">
        <ele>15.0</ele>
        <time>2020-01-18T08:10:21.992Z</time>
      </trkpt>
      <trkpt lat="37.28035833" lon="-7.14454667">
        <ele>15.0</ele>
        <time>2020-01-18T08:10:23.004Z</time>
      </trkpt>
      <trkpt lat="37.28035833" lon="-7.14454667">
        <ele>15.0</ele>
        <time>2020-01-18T08:10:24.000Z</time>
      </trkpt>
      <trkpt lat="37.28031667" lon="-7.14443667">
        <ele>16.0</ele>
        <time>2020-01-18T08:10:24.976Z</time>
      </trkpt>
      <trkpt lat="37.28031667" lon="-7.14443667">
        <ele>16.0</ele>
        <time>2020-01-18T08:10:25.991Z</time>
      </trkpt>
      <trkpt lat="37.280275" lon="-7.14432">
        <ele>16.0</ele>
        <time>2020-01-18T08:10:26.979Z</time>
      </trkpt>
      <trkpt lat="37.280275" lon="-7.14432">
        <ele>16.0</ele>
        <time>2020-01-18T08:10:27.991Z</time>
      </trkpt>
      <trkpt lat="37.28024167" lon="-7.14419167">
        <ele>16.0</ele>
        <time>2020-01-18T08:10:29.005Z</time>
      </trkpt>
      <trkpt lat="37.28024167" lon="-7.14419167">
        <ele>16.0</ele>
        <time>2020-01-18T08:10:29.988Z</time>
      </trkpt>
      <trkpt lat="37.28022" lon="-7.14405333">
        <ele>16.0</ele>
        <time>2020-01-18T08:10:31.005Z</time>
      </trkpt>
      <trkpt lat="37.28022" lon="-7.14405333">
        <ele>16.0</ele>
        <time>2020-01-18T08:10:31.990Z</time>
      </trkpt>
      <trkpt lat="37.28020833" lon="-7.14391833">
        <ele>16.0</ele>
        <time>2020-01-18T08:10:33.004Z</time>
      </trkpt>
      <trkpt lat="37.28021" lon="-7.14385">
        <ele>16.0</ele>
        <time>2020-01-18T08:10:33.994Z</time>
      </trkpt>
      <trkpt lat="37.28021" lon="-7.14385">
        <ele>16.0</ele>
        <time>2020-01-18T08:10:35.008Z</time>
      </trkpt>
      <trkpt lat="37.28021667" lon="-7.14371">
        <ele>17.0</ele>
        <time>2020-01-18T08:10:35.994Z</time>
      </trkpt>
      <trkpt lat="37.28022167" lon="-7.14364167">
        <ele>17.0</ele>
        <time>2020-01-18T08:10:37.006Z</time>
      </trkpt>
      <trkpt lat="37.28022167" lon="-7.14364167">
        <ele>17.0</ele>
        <time>2020-01-18T08:10:37.989Z</time>
      </trkpt>
      <trkpt lat="37.28024" lon="-7.14351">
        <ele>17.0</ele>
        <time>2020-01-18T08:10:39.003Z</time>
      </trkpt>
      <trkpt lat="37.28024" lon="-7.14351">
        <ele>17.0</ele>
        <time>2020-01-18T08:10:39.989Z</time>
      </trkpt>
      <trkpt lat="37.280255" lon="-7.14338333">
        <ele>18.0</ele>
        <time>2020-01-18T08:10:41.003Z</time>
      </trkpt>
      <trkpt lat="37.280255" lon="-7.14338333">
        <ele>18.0</ele>
        <time>2020-01-18T08:10:41.989Z</time>
      </trkpt>
      <trkpt lat="37.28026667" lon="-7.14327">
        <ele>18.0</ele>
        <time>2020-01-18T08:10:43.005Z</time>
      </trkpt>
      <trkpt lat="37.28026667" lon="-7.14327">
        <ele>18.0</ele>
        <time>2020-01-18T08:10:43.989Z</time>
      </trkpt>
      <trkpt lat="37.28027833" lon="-7.14317333">
        <ele>18.0</ele>
        <time>2020-01-18T08:10:45.004Z</time>
      </trkpt>
      <trkpt lat="37.28027833" lon="-7.14317333">
        <ele>18.0</ele>
        <time>2020-01-18T08:10:45.989Z</time>
      </trkpt>
      <trkpt lat="37.28028667" lon="-7.14308667">
        <ele>19.0</ele>
        <time>2020-01-18T08:10:47.003Z</time>
      </trkpt>
      <trkpt lat="37.28028667" lon="-7.14308667">
        <ele>19.0</ele>
        <time>2020-01-18T08:10:47.989Z</time>
      </trkpt>
      <trkpt lat="37.28029333" lon="-7.14300667">
        <ele>19.0</ele>
        <time>2020-01-18T08:10:49.004Z</time>
      </trkpt>
      <trkpt lat="37.28029333" lon="-7.14300667">
        <ele>19.0</ele>
        <time>2020-01-18T08:10:49.989Z</time>
      </trkpt>
      <trkpt lat="37.280305" lon="-7.14296167">
        <ele>19.0</ele>
        <time>2020-01-18T08:10:51.004Z</time>
      </trkpt>
      <trkpt lat="37.280305" lon="-7.14296167">
        <ele>19.0</ele>
        <time>2020-01-18T08:10:52.009Z</time>
      </trkpt>
      <trkpt lat="37.280305" lon="-7.14291333">
        <ele>19.0</ele>
        <time>2020-01-18T08:10:52.995Z</time>
      </trkpt>
      <trkpt lat="37.280305" lon="-7.14291333">
        <ele>19.0</ele>
        <time>2020-01-18T08:10:54.009Z</time>
      </trkpt>
      <trkpt lat="37.28029667" lon="-7.14288167">
        <ele>19.0</ele>
        <time>2020-01-18T08:10:54.997Z</time>
      </trkpt>
      <trkpt lat="37.28029667" lon="-7.14288167">
        <ele>19.0</ele>
        <time>2020-01-18T08:10:55.989Z</time>
      </trkpt>
      <trkpt lat="37.28029333" lon="-7.14288">
        <ele>19.0</ele>
        <time>2020-01-18T08:10:57.003Z</time>
      </trkpt>
      <trkpt lat="37.28029333" lon="-7.14288">
        <ele>19.0</ele>
        <time>2020-01-18T08:10:57.988Z</time>
      </trkpt>
      <trkpt lat="37.28032167" lon="-7.14277">
        <ele>19.0</ele>
        <time>2020-01-18T08:21:31.143Z</time>
      </trkpt>
      <trkpt lat="37.28032167" lon="-7.14277">
        <ele>19.0</ele>
        <time>2020-01-18T08:21:32.166Z</time>
      </trkpt>
      <trkpt lat="37.280325" lon="-7.14272">
        <ele>19.0</ele>
        <time>2020-01-18T08:21:33.149Z</time>
      </trkpt>
      <trkpt lat="37.28033" lon="-7.14269">
        <ele>18.0</ele>
        <time>2020-01-18T08:21:34.158Z</time>
      </trkpt>
      <trkpt lat="37.28033" lon="-7.14269">
        <ele>18.0</ele>
        <time>2020-01-18T08:21:35.129Z</time>
      </trkpt>
      <trkpt lat="37.280335" lon="-7.14262167">
        <ele>19.0</ele>
        <time>2020-01-18T08:21:36.153Z</time>
      </trkpt>
      <trkpt lat="37.28033667" lon="-7.14258667">
        <ele>19.0</ele>
        <time>2020-01-18T08:21:37.157Z</time>
      </trkpt>
      <trkpt lat="37.28034333" lon="-7.142555">
        <ele>19.0</ele>
        <time>2020-01-18T08:21:38.167Z</time>
      </trkpt>
      <trkpt lat="37.280345" lon="-7.14253167">
        <ele>19.0</ele>
        <time>2020-01-18T08:21:39.156Z</time>
      </trkpt>
      <trkpt lat="37.280345" lon="-7.14253167">
        <ele>19.0</ele>
        <time>2020-01-18T08:21:40.144Z</time>
      </trkpt>
      <trkpt lat="37.28034333" lon="-7.14249833">
        <ele>20.0</ele>
        <time>2020-01-18T08:21:41.148Z</time>
      </trkpt>
      <trkpt lat="37.28034333" lon="-7.14249833">
        <ele>20.0</ele>
        <time>2020-01-18T08:21:42.143Z</time>
      </trkpt>
      <trkpt lat="37.28034333" lon="-7.14249833">
        <ele>19.0</ele>
        <time>2020-01-18T08:21:43.160Z</time>
      </trkpt>
      <trkpt lat="37.28034167" lon="-7.14249833">
        <ele>19.0</ele>
        <time>2020-01-18T08:21:44.149Z</time>
      </trkpt>
      <trkpt lat="37.28034167" lon="-7.14249833">
        <ele>19.0</ele>
        <time>2020-01-18T08:21:45.169Z</time>
      </trkpt>
      <trkpt lat="37.28034167" lon="-7.14249833">
        <ele>19.0</ele>
        <time>2020-01-18T08:21:46.163Z</time>
      </trkpt>
      <trkpt lat="37.28035167" lon="-7.14237833">
        <ele>19.0</ele>
        <time>2020-01-18T08:21:47.159Z</time>
      </trkpt>
      <trkpt lat="37.28035167" lon="-7.14237833">
        <ele>19.0</ele>
        <time>2020-01-18T08:21:48.145Z</time>
      </trkpt>
      <trkpt lat="37.28036" lon="-7.14230667">
        <ele>19.0</ele>
        <time>2020-01-18T08:21:49.167Z</time>
      </trkpt>
      <trkpt lat="37.28036333" lon="-7.142265">
        <ele>19.0</ele>
        <time>2020-01-18T08:21:50.158Z</time>
      </trkpt>
      <trkpt lat="37.28036667" lon="-7.14222333">
        <ele>19.0</ele>
        <time>2020-01-18T08:21:51.159Z</time>
      </trkpt>
      <trkpt lat="37.28036667" lon="-7.14222333">
        <ele>19.0</ele>
        <time>2020-01-18T08:21:52.164Z</time>
      </trkpt>
      <trkpt lat="37.280375" lon="-7.14213">
        <ele>19.0</ele>
        <time>2020-01-18T08:21:53.152Z</time>
      </trkpt>
      <trkpt lat="37.280375" lon="-7.14213">
        <ele>19.0</ele>
        <time>2020-01-18T08:21:54.144Z</time>
      </trkpt>
      <trkpt lat="37.28038333" lon="-7.14203667">
        <ele>20.0</ele>
        <time>2020-01-18T08:21:55.134Z</time>
      </trkpt>
      <trkpt lat="37.28038333" lon="-7.14203667">
        <ele>20.0</ele>
        <time>2020-01-18T08:21:56.150Z</time>
      </trkpt>
      <trkpt lat="37.28039167" lon="-7.141945">
        <ele>20.0</ele>
        <time>2020-01-18T08:21:57.157Z</time>
      </trkpt>
      <trkpt lat="37.28039167" lon="-7.141945">
        <ele>20.0</ele>
        <time>2020-01-18T08:21:58.145Z</time>
      </trkpt>
      <trkpt lat="37.2804" lon="-7.14185167">
        <ele>20.0</ele>
        <time>2020-01-18T08:21:59.129Z</time>
      </trkpt>
      <trkpt lat="37.2804" lon="-7.14185167">
        <ele>20.0</ele>
        <time>2020-01-18T08:22:00.146Z</time>
      </trkpt>
      <trkpt lat="37.28040833" lon="-7.14175833">
        <ele>20.0</ele>
        <time>2020-01-18T08:22:01.166Z</time>
      </trkpt>
      <trkpt lat="37.28040833" lon="-7.14175833">
        <ele>20.0</ele>
        <time>2020-01-18T08:22:02.147Z</time>
      </trkpt>
      <trkpt lat="37.28041667" lon="-7.14166667">
        <ele>20.0</ele>
        <time>2020-01-18T08:22:03.136Z</time>
      </trkpt>
      <trkpt lat="37.28041667" lon="-7.14166667">
        <ele>20.0</ele>
        <time>2020-01-18T08:22:04.153Z</time>
      </trkpt>
      <trkpt lat="37.28042333" lon="-7.14157167">
        <ele>21.0</ele>
        <time>2020-01-18T08:22:05.150Z</time>
      </trkpt>
      <trkpt lat="37.28042333" lon="-7.14157167">
        <ele>21.0</ele>
        <time>2020-01-18T08:22:06.144Z</time>
      </trkpt>
      <trkpt lat="37.28043167" lon="-7.14148167">
        <ele>21.0</ele>
        <time>2020-01-18T08:22:07.147Z</time>
      </trkpt>
      <trkpt lat="37.28043167" lon="-7.14148167">
        <ele>21.0</ele>
        <time>2020-01-18T08:22:08.132Z</time>
      </trkpt>
      <trkpt lat="37.28043667" lon="-7.14139">
        <ele>22.0</ele>
        <time>2020-01-18T08:22:09.154Z</time>
      </trkpt>
      <trkpt lat="37.28043833" lon="-7.141345">
        <ele>22.0</ele>
        <time>2020-01-18T08:22:10.154Z</time>
      </trkpt>
      <trkpt lat="37.28043833" lon="-7.141345">
        <ele>22.0</ele>
        <time>2020-01-18T08:22:11.160Z</time>
      </trkpt>
      <trkpt lat="37.28044667" lon="-7.14124833">
        <ele>21.0</ele>
        <time>2020-01-18T08:22:12.167Z</time>
      </trkpt>
      <trkpt lat="37.28045167" lon="-7.1412">
        <ele>21.0</ele>
        <time>2020-01-18T08:22:13.137Z</time>
      </trkpt>
      <trkpt lat="37.28045167" lon="-7.1412">
        <ele>21.0</ele>
        <time>2020-01-18T08:22:14.168Z</time>
      </trkpt>
      <trkpt lat="37.28045833" lon="-7.14110167">
        <ele>21.0</ele>
        <time>2020-01-18T08:22:15.154Z</time>
      </trkpt>
      <trkpt lat="37.28045833" lon="-7.14110167">
        <ele>21.0</ele>
        <time>2020-01-18T08:22:16.144Z</time>
      </trkpt>
      <trkpt lat="37.28046667" lon="-7.14099333">
        <ele>21.0</ele>
        <time>2020-01-18T08:22:17.168Z</time>
      </trkpt>
      <trkpt lat="37.28046667" lon="-7.14099333">
        <ele>21.0</ele>
        <time>2020-01-18T08:22:18.146Z</time>
      </trkpt>
      <trkpt lat="37.28047667" lon="-7.14087667">
        <ele>21.0</ele>
        <time>2020-01-18T08:22:19.168Z</time>
      </trkpt>
      <trkpt lat="37.28047667" lon="-7.14087667">
        <ele>21.0</ele>
        <time>2020-01-18T08:22:20.145Z</time>
      </trkpt>
      <trkpt lat="37.28049" lon="-7.14075833">
        <ele>21.0</ele>
        <time>2020-01-18T08:22:21.135Z</time>
      </trkpt>
      <trkpt lat="37.28049" lon="-7.14075833">
        <ele>21.0</ele>
        <time>2020-01-18T08:22:22.149Z</time>
      </trkpt>
      <trkpt lat="37.28050333" lon="-7.140635">
        <ele>21.0</ele>
        <time>2020-01-18T08:22:23.135Z</time>
      </trkpt>
      <trkpt lat="37.28050333" lon="-7.140635">
        <ele>21.0</ele>
        <time>2020-01-18T08:22:24.149Z</time>
      </trkpt>
      <trkpt lat="37.28051667" lon="-7.14050833">
        <ele>20.0</ele>
        <time>2020-01-18T08:22:25.135Z</time>
      </trkpt>
      <trkpt lat="37.28051667" lon="-7.14050833">
        <ele>20.0</ele>
        <time>2020-01-18T08:22:26.152Z</time>
      </trkpt>
      <trkpt lat="37.28053167" lon="-7.14037833">
        <ele>20.0</ele>
        <time>2020-01-18T08:22:27.154Z</time>
      </trkpt>
      <trkpt lat="37.28053167" lon="-7.14037833">
        <ele>20.0</ele>
        <time>2020-01-18T08:22:28.163Z</time>
      </trkpt>
      <trkpt lat="37.280545" lon="-7.14025">
        <ele>19.0</ele>
        <time>2020-01-18T08:22:29.151Z</time>
      </trkpt>
      <trkpt lat="37.280545" lon="-7.14025">
        <ele>19.0</ele>
        <time>2020-01-18T08:22:30.163Z</time>
      </trkpt>
      <trkpt lat="37.28056" lon="-7.14012167">
        <ele>19.0</ele>
        <time>2020-01-18T08:22:31.165Z</time>
      </trkpt>
      <trkpt lat="37.28056667" lon="-7.140055">
        <ele>19.0</ele>
        <time>2020-01-18T08:22:32.156Z</time>
      </trkpt>
      <trkpt lat="37.28057333" lon="-7.13999">
        <ele>18.0</ele>
        <time>2020-01-18T08:22:33.168Z</time>
      </trkpt>
      <trkpt lat="37.28057333" lon="-7.13999">
        <ele>18.0</ele>
        <time>2020-01-18T08:22:34.144Z</time>
      </trkpt>
      <trkpt lat="37.280585" lon="-7.13986">
        <ele>18.0</ele>
        <time>2020-01-18T08:22:35.129Z</time>
      </trkpt>
      <trkpt lat="37.280585" lon="-7.13986">
        <ele>18.0</ele>
        <time>2020-01-18T08:22:36.144Z</time>
      </trkpt>
      <trkpt lat="37.28059667" lon="-7.13972833">
        <ele>18.0</ele>
        <time>2020-01-18T08:22:37.163Z</time>
      </trkpt>
      <trkpt lat="37.28060167" lon="-7.13966167">
        <ele>17.0</ele>
        <time>2020-01-18T08:22:38.152Z</time>
      </trkpt>
      <trkpt lat="37.28060667" lon="-7.13959667">
        <ele>17.0</ele>
        <time>2020-01-18T08:22:39.135Z</time>
      </trkpt>
      <trkpt lat="37.28060667" lon="-7.13959667">
        <ele>17.0</ele>
        <time>2020-01-18T08:22:40.150Z</time>
      </trkpt>
      <trkpt lat="37.280605" lon="-7.13946667">
        <ele>17.0</ele>
        <time>2020-01-18T08:22:41.168Z</time>
      </trkpt>
      <trkpt lat="37.280605" lon="-7.13946667">
        <ele>17.0</ele>
        <time>2020-01-18T08:22:42.144Z</time>
      </trkpt>
      <trkpt lat="37.28059" lon="-7.13933667">
        <ele>16.0</ele>
        <time>2020-01-18T08:22:43.135Z</time>
      </trkpt>
      <trkpt lat="37.28059" lon="-7.13933667">
        <ele>16.0</ele>
        <time>2020-01-18T08:22:44.150Z</time>
      </trkpt>
      <trkpt lat="37.28055667" lon="-7.13920833">
        <ele>16.0</ele>
        <time>2020-01-18T08:22:45.136Z</time>
      </trkpt>
      <trkpt lat="37.28055667" lon="-7.13920833">
        <ele>16.0</ele>
        <time>2020-01-18T08:22:46.151Z</time>
      </trkpt>
      <trkpt lat="37.28050167" lon="-7.13908167">
        <ele>15.0</ele>
        <time>2020-01-18T08:22:47.154Z</time>
      </trkpt>
      <trkpt lat="37.28050167" lon="-7.13908167">
        <ele>15.0</ele>
        <time>2020-01-18T08:22:48.169Z</time>
      </trkpt>
      <trkpt lat="37.28042833" lon="-7.138975">
        <ele>15.0</ele>
        <time>2020-01-18T08:22:49.152Z</time>
      </trkpt>
      <trkpt lat="37.28042833" lon="-7.138975">
        <ele>15.0</ele>
        <time>2020-01-18T08:22:50.145Z</time>
      </trkpt>
      <trkpt lat="37.28033" lon="-7.13889167">
        <ele>15.0</ele>
        <time>2020-01-18T08:22:51.165Z</time>
      </trkpt>
      <trkpt lat="37.28027667" lon="-7.13885333">
        <ele>15.0</ele>
        <time>2020-01-18T08:22:52.157Z</time>
      </trkpt>
      <trkpt lat="37.28022167" lon="-7.13881667">
        <ele>15.0</ele>
        <time>2020-01-18T08:22:53.154Z</time>
      </trkpt>
      <trkpt lat="37.28022167" lon="-7.13881667">
        <ele>15.0</ele>
        <time>2020-01-18T08:22:54.144Z</time>
      </trkpt>
      <trkpt lat="37.28011" lon="-7.13875667">
        <ele>14.0</ele>
        <time>2020-01-18T08:22:55.129Z</time>
      </trkpt>
      <trkpt lat="37.28011" lon="-7.13875667">
        <ele>14.0</ele>
        <time>2020-01-18T08:22:56.144Z</time>
      </trkpt>
      <trkpt lat="37.27999667" lon="-7.13871167">
        <ele>14.0</ele>
        <time>2020-01-18T08:22:57.136Z</time>
      </trkpt>
      <trkpt lat="37.27999667" lon="-7.13871167">
        <ele>14.0</ele>
        <time>2020-01-18T08:22:58.150Z</time>
      </trkpt>
      <trkpt lat="37.27987667" lon="-7.13867">
        <ele>13.0</ele>
        <time>2020-01-18T08:22:59.166Z</time>
      </trkpt>
      <trkpt lat="37.27987667" lon="-7.13867">
        <ele>13.0</ele>
        <time>2020-01-18T08:23:00.145Z</time>
      </trkpt>
      <trkpt lat="37.27975167" lon="-7.13864">
        <ele>13.0</ele>
        <time>2020-01-18T08:23:01.135Z</time>
      </trkpt>
      <trkpt lat="37.27975167" lon="-7.13864">
        <ele>13.0</ele>
        <time>2020-01-18T08:23:02.148Z</time>
      </trkpt>
      <trkpt lat="37.279625" lon="-7.13860833">
        <ele>12.0</ele>
        <time>2020-01-18T08:23:03.135Z</time>
      </trkpt>
      <trkpt lat="37.279625" lon="-7.13860833">
        <ele>12.0</ele>
        <time>2020-01-18T08:23:04.148Z</time>
      </trkpt>
      <trkpt lat="37.27949833" lon="-7.138575">
        <ele>12.0</ele>
        <time>2020-01-18T08:23:05.166Z</time>
      </trkpt>
      <trkpt lat="37.27949833" lon="-7.138575">
        <ele>12.0</ele>
        <time>2020-01-18T08:23:06.143Z</time>
      </trkpt>
      <trkpt lat="37.27937333" lon="-7.13853667">
        <ele>11.0</ele>
        <time>2020-01-18T08:23:07.168Z</time>
      </trkpt>
      <trkpt lat="37.27931" lon="-7.13851333">
        <ele>11.0</ele>
        <time>2020-01-18T08:23:08.150Z</time>
      </trkpt>
      <trkpt lat="37.27924667" lon="-7.13848667">
        <ele>11.0</ele>
        <time>2020-01-18T08:23:09.165Z</time>
      </trkpt>
      <trkpt lat="37.27924667" lon="-7.13848667">
        <ele>11.0</ele>
        <time>2020-01-18T08:23:10.144Z</time>
      </trkpt>
      <trkpt lat="37.27912333" lon="-7.13842">
        <ele>10.0</ele>
        <time>2020-01-18T08:23:11.143Z</time>
      </trkpt>
      <trkpt lat="37.27912333" lon="-7.13842">
        <ele>10.0</ele>
        <time>2020-01-18T08:23:12.165Z</time>
      </trkpt>
      <trkpt lat="37.27900167" lon="-7.138335">
        <ele>10.0</ele>
        <time>2020-01-18T08:23:13.155Z</time>
      </trkpt>
      <trkpt lat="37.27900167" lon="-7.138335">
        <ele>10.0</ele>
        <time>2020-01-18T08:23:14.144Z</time>
      </trkpt>
      <trkpt lat="37.27888833" lon="-7.138225">
        <ele>10.0</ele>
        <time>2020-01-18T08:23:15.168Z</time>
      </trkpt>
      <trkpt lat="37.27888833" lon="-7.138225">
        <ele>10.0</ele>
        <time>2020-01-18T08:23:16.149Z</time>
      </trkpt>
      <trkpt lat="37.278795" lon="-7.1381">
        <ele>10.0</ele>
        <time>2020-01-18T08:23:17.166Z</time>
      </trkpt>
      <trkpt lat="37.27875167" lon="-7.13803167">
        <ele>10.0</ele>
        <time>2020-01-18T08:23:18.157Z</time>
      </trkpt>
      <trkpt lat="37.27875167" lon="-7.13803167">
        <ele>10.0</ele>
        <time>2020-01-18T08:23:19.146Z</time>
      </trkpt>
      <trkpt lat="37.27867333" lon="-7.13788833">
        <ele>10.0</ele>
        <time>2020-01-18T08:23:20.131Z</time>
      </trkpt>
      <trkpt lat="37.27867333" lon="-7.13788833">
        <ele>10.0</ele>
        <time>2020-01-18T08:23:21.152Z</time>
      </trkpt>
      <trkpt lat="37.278605" lon="-7.13773833">
        <ele>10.0</ele>
        <time>2020-01-18T08:23:22.168Z</time>
      </trkpt>
      <trkpt lat="37.278575" lon="-7.137665">
        <ele>10.0</ele>
        <time>2020-01-18T08:23:23.152Z</time>
      </trkpt>
      <trkpt lat="37.278575" lon="-7.137665">
        <ele>10.0</ele>
        <time>2020-01-18T08:23:24.164Z</time>
      </trkpt>
      <trkpt lat="37.27852" lon="-7.13752333">
        <ele>11.0</ele>
        <time>2020-01-18T08:23:25.150Z</time>
      </trkpt>
      <trkpt lat="37.27849333" lon="-7.13745333">
        <ele>11.0</ele>
        <time>2020-01-18T08:23:26.131Z</time>
      </trkpt>
      <trkpt lat="37.27846833" lon="-7.13738667">
        <ele>12.0</ele>
        <time>2020-01-18T08:23:27.152Z</time>
      </trkpt>
      <trkpt lat="37.27846833" lon="-7.13738667">
        <ele>12.0</ele>
        <time>2020-01-18T08:23:28.166Z</time>
      </trkpt>
      <trkpt lat="37.278425" lon="-7.13725833">
        <ele>13.0</ele>
        <time>2020-01-18T08:23:29.149Z</time>
      </trkpt>
      <trkpt lat="37.278425" lon="-7.13725833">
        <ele>13.0</ele>
        <time>2020-01-18T08:23:30.165Z</time>
      </trkpt>
      <trkpt lat="37.27838667" lon="-7.13714167">
        <ele>13.0</ele>
        <time>2020-01-18T08:23:31.151Z</time>
      </trkpt>
      <trkpt lat="37.27836833" lon="-7.13708833">
        <ele>14.0</ele>
        <time>2020-01-18T08:23:32.132Z</time>
      </trkpt>
      <trkpt lat="37.27835167" lon="-7.13703833">
        <ele>14.0</ele>
        <time>2020-01-18T08:23:33.152Z</time>
      </trkpt>
      <trkpt lat="37.27835167" lon="-7.13703833">
        <ele>14.0</ele>
        <time>2020-01-18T08:23:34.165Z</time>
      </trkpt>
      <trkpt lat="37.27832" lon="-7.13693167">
        <ele>16.0</ele>
        <time>2020-01-18T08:23:35.157Z</time>
      </trkpt>
      <trkpt lat="37.27830333" lon="-7.13688">
        <ele>16.0</ele>
        <time>2020-01-18T08:23:36.157Z</time>
      </trkpt>
      <trkpt lat="37.27830333" lon="-7.13688">
        <ele>16.0</ele>
        <time>2020-01-18T08:23:37.144Z</time>
      </trkpt>
      <trkpt lat="37.27827833" lon="-7.136785">
        <ele>17.0</ele>
        <time>2020-01-18T08:23:38.140Z</time>
      </trkpt>
      <trkpt lat="37.278265" lon="-7.13674">
        <ele>17.0</ele>
        <time>2020-01-18T08:23:39.156Z</time>
      </trkpt>
      <trkpt lat="37.278265" lon="-7.13674">
        <ele>17.0</ele>
        <time>2020-01-18T08:23:40.146Z</time>
      </trkpt>
      <trkpt lat="37.278245" lon="-7.13663833">
        <ele>19.0</ele>
        <time>2020-01-18T08:23:41.135Z</time>
      </trkpt>
      <trkpt lat="37.278245" lon="-7.13663833">
        <ele>19.0</ele>
        <time>2020-01-18T08:23:42.148Z</time>
      </trkpt>
      <trkpt lat="37.27823333" lon="-7.13653667">
        <ele>20.0</ele>
        <time>2020-01-18T08:23:43.165Z</time>
      </trkpt>
      <trkpt lat="37.27823333" lon="-7.13653667">
        <ele>20.0</ele>
        <time>2020-01-18T08:23:44.144Z</time>
      </trkpt>
      <trkpt lat="37.278225" lon="-7.136425">
        <ele>21.0</ele>
        <time>2020-01-18T08:23:45.135Z</time>
      </trkpt>
      <trkpt lat="37.278225" lon="-7.136425">
        <ele>21.0</ele>
        <time>2020-01-18T08:23:46.149Z</time>
      </trkpt>
      <trkpt lat="37.27821667" lon="-7.13630833">
        <ele>22.0</ele>
        <time>2020-01-18T08:23:47.165Z</time>
      </trkpt>
      <trkpt lat="37.27821667" lon="-7.13630833">
        <ele>22.0</ele>
        <time>2020-01-18T08:23:48.144Z</time>
      </trkpt>
      <trkpt lat="37.27821167" lon="-7.13619333">
        <ele>22.0</ele>
        <time>2020-01-18T08:23:49.135Z</time>
      </trkpt>
      <trkpt lat="37.27821167" lon="-7.13619333">
        <ele>22.0</ele>
        <time>2020-01-18T08:23:50.148Z</time>
      </trkpt>
      <trkpt lat="37.278205" lon="-7.13607833">
        <ele>23.0</ele>
        <time>2020-01-18T08:23:51.134Z</time>
      </trkpt>
      <trkpt lat="37.278205" lon="-7.13607833">
        <ele>23.0</ele>
        <time>2020-01-18T08:23:52.147Z</time>
      </trkpt>
      <trkpt lat="37.27820167" lon="-7.13595667">
        <ele>23.0</ele>
        <time>2020-01-18T08:23:53.129Z</time>
      </trkpt>
      <trkpt lat="37.2782" lon="-7.135895">
        <ele>24.0</ele>
        <time>2020-01-18T08:23:54.155Z</time>
      </trkpt>
      <trkpt lat="37.2782" lon="-7.135895">
        <ele>24.0</ele>
        <time>2020-01-18T08:23:55.144Z</time>
      </trkpt>
      <trkpt lat="37.27819167" lon="-7.13577167">
        <ele>24.0</ele>
        <time>2020-01-18T08:23:56.134Z</time>
      </trkpt>
      <trkpt lat="37.27818167" lon="-7.13571167">
        <ele>24.0</ele>
        <time>2020-01-18T08:23:57.149Z</time>
      </trkpt>
      <trkpt lat="37.27818167" lon="-7.13571167">
        <ele>24.0</ele>
        <time>2020-01-18T08:23:58.161Z</time>
      </trkpt>
      <trkpt lat="37.27815333" lon="-7.13560167">
        <ele>24.0</ele>
        <time>2020-01-18T08:23:59.150Z</time>
      </trkpt>
      <trkpt lat="37.27815333" lon="-7.13560167">
        <ele>24.0</ele>
        <time>2020-01-18T08:24:00.163Z</time>
      </trkpt>
      <trkpt lat="37.278125" lon="-7.13548833">
        <ele>25.0</ele>
        <time>2020-01-18T08:24:01.150Z</time>
      </trkpt>
      <trkpt lat="37.27810667" lon="-7.13543167">
        <ele>25.0</ele>
        <time>2020-01-18T08:24:02.165Z</time>
      </trkpt>
      <trkpt lat="37.27809" lon="-7.13537333">
        <ele>26.0</ele>
        <time>2020-01-18T08:24:03.156Z</time>
      </trkpt>
      <trkpt lat="37.27809" lon="-7.13537333">
        <ele>26.0</ele>
        <time>2020-01-18T08:24:04.144Z</time>
      </trkpt>
      <trkpt lat="37.27805333" lon="-7.13526333">
        <ele>27.0</ele>
        <time>2020-01-18T08:24:05.165Z</time>
      </trkpt>
      <trkpt lat="37.27803167" lon="-7.13521167">
        <ele>27.0</ele>
        <time>2020-01-18T08:24:06.167Z</time>
      </trkpt>
      <trkpt lat="37.27803167" lon="-7.13521167">
        <ele>27.0</ele>
        <time>2020-01-18T08:24:07.145Z</time>
      </trkpt>
      <trkpt lat="37.27799" lon="-7.13510333">
        <ele>27.0</ele>
        <time>2020-01-18T08:24:08.167Z</time>
      </trkpt>
      <trkpt lat="37.277965" lon="-7.13505">
        <ele>27.0</ele>
        <time>2020-01-18T08:24:09.150Z</time>
      </trkpt>
      <trkpt lat="37.277965" lon="-7.13505">
        <ele>27.0</ele>
        <time>2020-01-18T08:24:10.166Z</time>
      </trkpt>
      <trkpt lat="37.27791167" lon="-7.13494333">
        <ele>27.0</ele>
        <time>2020-01-18T08:24:11.157Z</time>
      </trkpt>
      <trkpt lat="37.27791167" lon="-7.13494333">
        <ele>27.0</ele>
        <time>2020-01-18T08:24:12.147Z</time>
      </trkpt>
      <trkpt lat="37.27785333" lon="-7.13483667">
        <ele>27.0</ele>
        <time>2020-01-18T08:24:13.166Z</time>
      </trkpt>
      <trkpt lat="37.27782" lon="-7.13478333">
        <ele>27.0</ele>
        <time>2020-01-18T08:24:14.150Z</time>
      </trkpt>
      <trkpt lat="37.277785" lon="-7.13473">
        <ele>27.0</ele>
        <time>2020-01-18T08:24:15.167Z</time>
      </trkpt>
      <trkpt lat="37.277785" lon="-7.13473">
        <ele>27.0</ele>
        <time>2020-01-18T08:24:16.148Z</time>
      </trkpt>
      <trkpt lat="37.27770333" lon="-7.13462833">
        <ele>26.0</ele>
        <time>2020-01-18T08:24:17.135Z</time>
      </trkpt>
      <trkpt lat="37.27770333" lon="-7.13462833">
        <ele>26.0</ele>
        <time>2020-01-18T08:24:18.149Z</time>
      </trkpt>
      <trkpt lat="37.27761833" lon="-7.13452333">
        <ele>26.0</ele>
        <time>2020-01-18T08:24:19.144Z</time>
      </trkpt>
      <trkpt lat="37.27761833" lon="-7.13452333">
        <ele>26.0</ele>
        <time>2020-01-18T08:24:20.157Z</time>
      </trkpt>
      <trkpt lat="37.27752833" lon="-7.134415">
        <ele>25.0</ele>
        <time>2020-01-18T08:24:21.150Z</time>
      </trkpt>
      <trkpt lat="37.27752833" lon="-7.134415">
        <ele>25.0</ele>
        <time>2020-01-18T08:24:22.164Z</time>
      </trkpt>
      <trkpt lat="37.277435" lon="-7.13430167">
        <ele>24.0</ele>
        <time>2020-01-18T08:24:23.151Z</time>
      </trkpt>
      <trkpt lat="37.277435" lon="-7.13430167">
        <ele>24.0</ele>
        <time>2020-01-18T08:24:24.165Z</time>
      </trkpt>
      <trkpt lat="37.27733833" lon="-7.13419">
        <ele>23.0</ele>
        <time>2020-01-18T08:24:25.150Z</time>
      </trkpt>
      <trkpt lat="37.27733833" lon="-7.13419">
        <ele>23.0</ele>
        <time>2020-01-18T08:24:26.164Z</time>
      </trkpt>
      <trkpt lat="37.27724167" lon="-7.13407833">
        <ele>22.0</ele>
        <time>2020-01-18T08:24:27.152Z</time>
      </trkpt>
      <trkpt lat="37.27724167" lon="-7.13407833">
        <ele>22.0</ele>
        <time>2020-01-18T08:24:28.134Z</time>
      </trkpt>
      <trkpt lat="37.27714667" lon="-7.13396833">
        <ele>21.0</ele>
        <time>2020-01-18T08:24:29.165Z</time>
      </trkpt>
      <trkpt lat="37.27710167" lon="-7.13391333">
        <ele>21.0</ele>
        <time>2020-01-18T08:24:30.154Z</time>
      </trkpt>
      <trkpt lat="37.277055" lon="-7.13385833">
        <ele>21.0</ele>
        <time>2020-01-18T08:24:31.163Z</time>
      </trkpt>
      <trkpt lat="37.277055" lon="-7.13385833">
        <ele>21.0</ele>
        <time>2020-01-18T08:24:32.146Z</time>
      </trkpt>
      <trkpt lat="37.27696167" lon="-7.133745">
        <ele>20.0</ele>
        <time>2020-01-18T08:24:33.135Z</time>
      </trkpt>
      <trkpt lat="37.27696167" lon="-7.133745">
        <ele>20.0</ele>
        <time>2020-01-18T08:24:34.164Z</time>
      </trkpt>
      <trkpt lat="37.27687333" lon="-7.13363167">
        <ele>20.0</ele>
        <time>2020-01-18T08:24:35.153Z</time>
      </trkpt>
      <trkpt lat="37.27687333" lon="-7.13363167">
        <ele>20.0</ele>
        <time>2020-01-18T08:24:36.166Z</time>
      </trkpt>
      <trkpt lat="37.27678167" lon="-7.13351833">
        <ele>19.0</ele>
        <time>2020-01-18T08:24:37.153Z</time>
      </trkpt>
      <trkpt lat="37.27678167" lon="-7.13351833">
        <ele>19.0</ele>
        <time>2020-01-18T08:24:38.135Z</time>
      </trkpt>
      <trkpt lat="37.276695" lon="-7.13340333">
        <ele>19.0</ele>
        <time>2020-01-18T08:24:39.140Z</time>
      </trkpt>
      <trkpt lat="37.27665167" lon="-7.133345">
        <ele>19.0</ele>
        <time>2020-01-18T08:24:40.164Z</time>
      </trkpt>
      <trkpt lat="37.27665167" lon="-7.133345">
        <ele>19.0</ele>
        <time>2020-01-18T08:24:41.149Z</time>
      </trkpt>
      <trkpt lat="37.27656833" lon="-7.13323">
        <ele>19.0</ele>
        <time>2020-01-18T08:24:42.138Z</time>
      </trkpt>
      <trkpt lat="37.27652667" lon="-7.13317333">
        <ele>19.0</ele>
        <time>2020-01-18T08:24:43.131Z</time>
      </trkpt>
      <trkpt lat="37.27652667" lon="-7.13317333">
        <ele>19.0</ele>
        <time>2020-01-18T08:24:44.146Z</time>
      </trkpt>
      <trkpt lat="37.276445" lon="-7.13305667">
        <ele>19.0</ele>
        <time>2020-01-18T08:24:45.132Z</time>
      </trkpt>
      <trkpt lat="37.276445" lon="-7.13305667">
        <ele>19.0</ele>
        <time>2020-01-18T08:24:46.147Z</time>
      </trkpt>
      <trkpt lat="37.276365" lon="-7.132945">
        <ele>19.0</ele>
        <time>2020-01-18T08:24:47.135Z</time>
      </trkpt>
      <trkpt lat="37.276365" lon="-7.132945">
        <ele>19.0</ele>
        <time>2020-01-18T08:24:48.149Z</time>
      </trkpt>
      <trkpt lat="37.27628667" lon="-7.13284">
        <ele>19.0</ele>
        <time>2020-01-18T08:24:49.135Z</time>
      </trkpt>
      <trkpt lat="37.27628667" lon="-7.13284">
        <ele>19.0</ele>
        <time>2020-01-18T08:24:50.151Z</time>
      </trkpt>
      <trkpt lat="37.27621333" lon="-7.13273">
        <ele>19.0</ele>
        <time>2020-01-18T08:24:51.135Z</time>
      </trkpt>
      <trkpt lat="37.27621333" lon="-7.13273">
        <ele>19.0</ele>
        <time>2020-01-18T08:24:52.148Z</time>
      </trkpt>
      <trkpt lat="37.27614" lon="-7.13261833">
        <ele>19.0</ele>
        <time>2020-01-18T08:24:53.135Z</time>
      </trkpt>
      <trkpt lat="37.27614" lon="-7.13261833">
        <ele>19.0</ele>
        <time>2020-01-18T08:24:54.149Z</time>
      </trkpt>
      <trkpt lat="37.27606833" lon="-7.13250333">
        <ele>20.0</ele>
        <time>2020-01-18T08:24:55.129Z</time>
      </trkpt>
      <trkpt lat="37.27606833" lon="-7.13250333">
        <ele>20.0</ele>
        <time>2020-01-18T08:24:56.143Z</time>
      </trkpt>
      <trkpt lat="37.275995" lon="-7.13238833">
        <ele>20.0</ele>
        <time>2020-01-18T08:24:57.134Z</time>
      </trkpt>
      <trkpt lat="37.275995" lon="-7.13238833">
        <ele>20.0</ele>
        <time>2020-01-18T08:24:58.155Z</time>
      </trkpt>
      <trkpt lat="37.27592167" lon="-7.132275">
        <ele>20.0</ele>
        <time>2020-01-18T08:24:59.129Z</time>
      </trkpt>
      <trkpt lat="37.27588667" lon="-7.13221667">
        <ele>20.0</ele>
        <time>2020-01-18T08:25:00.163Z</time>
      </trkpt>
      <trkpt lat="37.27588667" lon="-7.13221667">
        <ele>20.0</ele>
        <time>2020-01-18T08:25:01.156Z</time>
      </trkpt>
      <trkpt lat="37.275815" lon="-7.13209667">
        <ele>20.0</ele>
        <time>2020-01-18T08:25:02.129Z</time>
      </trkpt>
      <trkpt lat="37.27578167" lon="-7.13203667">
        <ele>20.0</ele>
        <time>2020-01-18T08:25:03.160Z</time>
      </trkpt>
      <trkpt lat="37.27578167" lon="-7.13203667">
        <ele>20.0</ele>
        <time>2020-01-18T08:25:04.148Z</time>
      </trkpt>
      <trkpt lat="37.27571333" lon="-7.13192167">
        <ele>20.0</ele>
        <time>2020-01-18T08:25:05.153Z</time>
      </trkpt>
      <trkpt lat="37.27567833" lon="-7.131865">
        <ele>20.0</ele>
        <time>2020-01-18T08:25:06.154Z</time>
      </trkpt>
      <trkpt lat="37.27567833" lon="-7.131865">
        <ele>20.0</ele>
        <time>2020-01-18T08:25:07.152Z</time>
      </trkpt>
      <trkpt lat="37.27561" lon="-7.13175167">
        <ele>21.0</ele>
        <time>2020-01-18T08:25:08.160Z</time>
      </trkpt>
      <trkpt lat="37.27561" lon="-7.13175167">
        <ele>21.0</ele>
        <time>2020-01-18T08:25:09.151Z</time>
      </trkpt>
      <trkpt lat="37.27554167" lon="-7.13163167">
        <ele>22.0</ele>
        <time>2020-01-18T08:25:10.156Z</time>
      </trkpt>
      <trkpt lat="37.27551" lon="-7.13157333">
        <ele>22.0</ele>
        <time>2020-01-18T08:25:11.159Z</time>
      </trkpt>
      <trkpt lat="37.27551" lon="-7.13157333">
        <ele>22.0</ele>
        <time>2020-01-18T08:25:12.144Z</time>
      </trkpt>
      <trkpt lat="37.27544333" lon="-7.13146167">
        <ele>23.0</ele>
        <time>2020-01-18T08:25:13.138Z</time>
      </trkpt>
      <trkpt lat="37.27540667" lon="-7.131405">
        <ele>23.0</ele>
        <time>2020-01-18T08:25:14.135Z</time>
      </trkpt>
      <trkpt lat="37.27537" lon="-7.131345">
        <ele>23.0</ele>
        <time>2020-01-18T08:25:15.134Z</time>
      </trkpt>
      <trkpt lat="37.27537" lon="-7.131345">
        <ele>23.0</ele>
        <time>2020-01-18T08:25:16.152Z</time>
      </trkpt>
      <trkpt lat="37.27530167" lon="-7.13123167">
        <ele>24.0</ele>
        <time>2020-01-18T08:25:17.152Z</time>
      </trkpt>
      <trkpt lat="37.27530167" lon="-7.13123167">
        <ele>24.0</ele>
        <time>2020-01-18T08:25:18.148Z</time>
      </trkpt>
      <trkpt lat="37.275235" lon="-7.13111833">
        <ele>25.0</ele>
        <time>2020-01-18T08:25:19.137Z</time>
      </trkpt>
      <trkpt lat="37.2752" lon="-7.13106167">
        <ele>25.0</ele>
        <time>2020-01-18T08:25:20.157Z</time>
      </trkpt>
      <trkpt lat="37.2752" lon="-7.13106167">
        <ele>25.0</ele>
        <time>2020-01-18T08:25:21.147Z</time>
      </trkpt>
      <trkpt lat="37.275135" lon="-7.130945">
        <ele>26.0</ele>
        <time>2020-01-18T08:25:22.150Z</time>
      </trkpt>
      <trkpt lat="37.27510167" lon="-7.13088667">
        <ele>27.0</ele>
        <time>2020-01-18T08:25:23.150Z</time>
      </trkpt>
      <trkpt lat="37.27510167" lon="-7.13088667">
        <ele>27.0</ele>
        <time>2020-01-18T08:25:24.145Z</time>
      </trkpt>
      <trkpt lat="37.27503333" lon="-7.13077833">
        <ele>28.0</ele>
        <time>2020-01-18T08:25:25.167Z</time>
      </trkpt>
      <trkpt lat="37.27499833" lon="-7.130725">
        <ele>28.0</ele>
        <time>2020-01-18T08:25:26.155Z</time>
      </trkpt>
      <trkpt lat="37.27496667" lon="-7.13067">
        <ele>28.0</ele>
        <time>2020-01-18T08:25:27.152Z</time>
      </trkpt>
      <trkpt lat="37.27496667" lon="-7.13067">
        <ele>28.0</ele>
        <time>2020-01-18T08:25:28.145Z</time>
      </trkpt>
      <trkpt lat="37.27490167" lon="-7.13056">
        <ele>30.0</ele>
        <time>2020-01-18T08:25:29.160Z</time>
      </trkpt>
      <trkpt lat="37.27490167" lon="-7.13056">
        <ele>30.0</ele>
        <time>2020-01-18T08:25:30.148Z</time>
      </trkpt>
      <trkpt lat="37.27483333" lon="-7.13045333">
        <ele>30.0</ele>
        <time>2020-01-18T08:25:31.149Z</time>
      </trkpt>
      <trkpt lat="37.27479667" lon="-7.13039667">
        <ele>29.0</ele>
        <time>2020-01-18T08:25:32.156Z</time>
      </trkpt>
      <trkpt lat="37.27479667" lon="-7.13039667">
        <ele>29.0</ele>
        <time>2020-01-18T08:25:33.162Z</time>
      </trkpt>
      <trkpt lat="37.27473333" lon="-7.13028667">
        <ele>31.0</ele>
        <time>2020-01-18T08:25:34.129Z</time>
      </trkpt>
      <trkpt lat="37.27469667" lon="-7.130235">
        <ele>31.0</ele>
        <time>2020-01-18T08:25:35.151Z</time>
      </trkpt>
      <trkpt lat="37.27465833" lon="-7.13018167">
        <ele>30.0</ele>
        <time>2020-01-18T08:25:36.167Z</time>
      </trkpt>
      <trkpt lat="37.27465833" lon="-7.13018167">
        <ele>30.0</ele>
        <time>2020-01-18T08:25:37.149Z</time>
      </trkpt>
      <trkpt lat="37.27458333" lon="-7.13008333">
        <ele>30.0</ele>
        <time>2020-01-18T08:25:38.141Z</time>
      </trkpt>
      <trkpt lat="37.27454667" lon="-7.130035">
        <ele>30.0</ele>
        <time>2020-01-18T08:25:39.137Z</time>
      </trkpt>
      <trkpt lat="37.27454667" lon="-7.130035">
        <ele>30.0</ele>
        <time>2020-01-18T08:25:40.152Z</time>
      </trkpt>
      <trkpt lat="37.27447" lon="-7.12993833">
        <ele>30.0</ele>
        <time>2020-01-18T08:25:41.134Z</time>
      </trkpt>
      <trkpt lat="37.27443" lon="-7.12989167">
        <ele>30.0</ele>
        <time>2020-01-18T08:25:42.154Z</time>
      </trkpt>
      <trkpt lat="37.27443" lon="-7.12989167">
        <ele>30.0</ele>
        <time>2020-01-18T08:25:43.148Z</time>
      </trkpt>
      <trkpt lat="37.27434833" lon="-7.12980333">
        <ele>29.0</ele>
        <time>2020-01-18T08:25:44.168Z</time>
      </trkpt>
      <trkpt lat="37.27430833" lon="-7.12976167">
        <ele>30.0</ele>
        <time>2020-01-18T08:25:45.153Z</time>
      </trkpt>
      <trkpt lat="37.27430833" lon="-7.12976167">
        <ele>30.0</ele>
        <time>2020-01-18T08:25:46.154Z</time>
      </trkpt>
      <trkpt lat="37.274225" lon="-7.12968">
        <ele>30.0</ele>
        <time>2020-01-18T08:25:47.156Z</time>
      </trkpt>
      <trkpt lat="37.274225" lon="-7.12968">
        <ele>30.0</ele>
        <time>2020-01-18T08:25:48.147Z</time>
      </trkpt>
      <trkpt lat="37.27413667" lon="-7.1296">
        <ele>29.0</ele>
        <time>2020-01-18T08:25:49.137Z</time>
      </trkpt>
      <trkpt lat="37.27413667" lon="-7.1296">
        <ele>29.0</ele>
        <time>2020-01-18T08:25:50.148Z</time>
      </trkpt>
      <trkpt lat="37.27404" lon="-7.12952333">
        <ele>29.0</ele>
        <time>2020-01-18T08:25:51.145Z</time>
      </trkpt>
      <trkpt lat="37.27399333" lon="-7.12948">
        <ele>28.0</ele>
        <time>2020-01-18T08:25:52.130Z</time>
      </trkpt>
      <trkpt lat="37.273945" lon="-7.12943833">
        <ele>28.0</ele>
        <time>2020-01-18T08:25:53.151Z</time>
      </trkpt>
      <trkpt lat="37.273945" lon="-7.12943833">
        <ele>28.0</ele>
        <time>2020-01-18T08:25:54.158Z</time>
      </trkpt>
      <trkpt lat="37.27385167" lon="-7.12935667">
        <ele>27.0</ele>
        <time>2020-01-18T08:25:55.156Z</time>
      </trkpt>
      <trkpt lat="37.27385167" lon="-7.12935667">
        <ele>27.0</ele>
        <time>2020-01-18T08:25:56.146Z</time>
      </trkpt>
      <trkpt lat="37.27375667" lon="-7.12927333">
        <ele>26.0</ele>
        <time>2020-01-18T08:25:57.129Z</time>
      </trkpt>
      <trkpt lat="37.27375667" lon="-7.12927333">
        <ele>26.0</ele>
        <time>2020-01-18T08:25:58.146Z</time>
      </trkpt>
      <trkpt lat="37.27365833" lon="-7.12918667">
        <ele>26.0</ele>
        <time>2020-01-18T08:25:59.168Z</time>
      </trkpt>
      <trkpt lat="37.27365833" lon="-7.12918667">
        <ele>26.0</ele>
        <time>2020-01-18T08:26:00.146Z</time>
      </trkpt>
      <trkpt lat="37.27355667" lon="-7.1291">
        <ele>26.0</ele>
        <time>2020-01-18T08:26:01.166Z</time>
      </trkpt>
      <trkpt lat="37.27350167" lon="-7.12905167">
        <ele>25.0</ele>
        <time>2020-01-18T08:26:02.150Z</time>
      </trkpt>
      <trkpt lat="37.27344833" lon="-7.12900333">
        <ele>25.0</ele>
        <time>2020-01-18T08:26:03.130Z</time>
      </trkpt>
      <trkpt lat="37.27344833" lon="-7.12900333">
        <ele>25.0</ele>
        <time>2020-01-18T08:26:04.144Z</time>
      </trkpt>
      <trkpt lat="37.27334167" lon="-7.12890667">
        <ele>24.0</ele>
        <time>2020-01-18T08:26:05.168Z</time>
      </trkpt>
      <trkpt lat="37.27334167" lon="-7.12890667">
        <ele>24.0</ele>
        <time>2020-01-18T08:26:06.146Z</time>
      </trkpt>
      <trkpt lat="37.27322833" lon="-7.1288">
        <ele>23.0</ele>
        <time>2020-01-18T08:26:07.135Z</time>
      </trkpt>
      <trkpt lat="37.27322833" lon="-7.1288">
        <ele>23.0</ele>
        <time>2020-01-18T08:26:08.148Z</time>
      </trkpt>
      <trkpt lat="37.273115" lon="-7.12869333">
        <ele>23.0</ele>
        <time>2020-01-18T08:26:09.166Z</time>
      </trkpt>
      <trkpt lat="37.273115" lon="-7.12869333">
        <ele>23.0</ele>
        <time>2020-01-18T08:26:10.147Z</time>
      </trkpt>
      <trkpt lat="37.273" lon="-7.128585">
        <ele>22.0</ele>
        <time>2020-01-18T08:26:11.162Z</time>
      </trkpt>
      <trkpt lat="37.27294" lon="-7.12853">
        <ele>22.0</ele>
        <time>2020-01-18T08:26:12.152Z</time>
      </trkpt>
      <trkpt lat="37.27287833" lon="-7.128475">
        <ele>21.0</ele>
        <time>2020-01-18T08:26:13.167Z</time>
      </trkpt>
      <trkpt lat="37.27281333" lon="-7.12841833">
        <ele>21.0</ele>
        <time>2020-01-18T08:26:14.152Z</time>
      </trkpt>
      <trkpt lat="37.27281333" lon="-7.12841833">
        <ele>21.0</ele>
        <time>2020-01-18T08:26:15.165Z</time>
      </trkpt>
      <trkpt lat="37.27267667" lon="-7.128315">
        <ele>20.0</ele>
        <time>2020-01-18T08:26:16.149Z</time>
      </trkpt>
      <trkpt lat="37.272605" lon="-7.128265">
        <ele>20.0</ele>
        <time>2020-01-18T08:26:17.133Z</time>
      </trkpt>
      <trkpt lat="37.27253167" lon="-7.128215">
        <ele>19.0</ele>
        <time>2020-01-18T08:26:18.151Z</time>
      </trkpt>
      <trkpt lat="37.27245833" lon="-7.12816833">
        <ele>19.0</ele>
        <time>2020-01-18T08:26:19.166Z</time>
      </trkpt>
      <trkpt lat="37.27245833" lon="-7.12816833">
        <ele>19.0</ele>
        <time>2020-01-18T08:26:20.145Z</time>
      </trkpt>
      <trkpt lat="37.27231333" lon="-7.12807667">
        <ele>18.0</ele>
        <time>2020-01-18T08:26:21.157Z</time>
      </trkpt>
      <trkpt lat="37.27223833" lon="-7.128035">
        <ele>17.0</ele>
        <time>2020-01-18T08:26:22.154Z</time>
      </trkpt>
      <trkpt lat="37.272165" lon="-7.127985">
        <ele>17.0</ele>
        <time>2020-01-18T08:26:23.159Z</time>
      </trkpt>
      <trkpt lat="37.272165" lon="-7.127985">
        <ele>17.0</ele>
        <time>2020-01-18T08:26:24.147Z</time>
      </trkpt>
      <trkpt lat="37.27203333" lon="-7.12787833">
        <ele>16.0</ele>
        <time>2020-01-18T08:26:25.168Z</time>
      </trkpt>
      <trkpt lat="37.27203333" lon="-7.12787833">
        <ele>16.0</ele>
        <time>2020-01-18T08:26:26.146Z</time>
      </trkpt>
      <trkpt lat="37.27191667" lon="-7.12777833">
        <ele>15.0</ele>
        <time>2020-01-18T08:26:27.166Z</time>
      </trkpt>
      <trkpt lat="37.27191667" lon="-7.12777833">
        <ele>15.0</ele>
        <time>2020-01-18T08:26:28.153Z</time>
      </trkpt>
      <trkpt lat="37.27179667" lon="-7.12770833">
        <ele>15.0</ele>
        <time>2020-01-18T08:26:29.166Z</time>
      </trkpt>
      <trkpt lat="37.27173333" lon="-7.12769167">
        <ele>14.0</ele>
        <time>2020-01-18T08:26:30.131Z</time>
      </trkpt>
      <trkpt lat="37.27173333" lon="-7.12769167">
        <ele>14.0</ele>
        <time>2020-01-18T08:26:31.156Z</time>
      </trkpt>
      <trkpt lat="37.2716" lon="-7.12766333">
        <ele>14.0</ele>
        <time>2020-01-18T08:26:32.162Z</time>
      </trkpt>
      <trkpt lat="37.2716" lon="-7.12766333">
        <ele>14.0</ele>
        <time>2020-01-18T08:26:33.168Z</time>
      </trkpt>
      <trkpt lat="37.271465" lon="-7.12764667">
        <ele>13.0</ele>
        <time>2020-01-18T08:26:34.160Z</time>
      </trkpt>
      <trkpt lat="37.27139833" lon="-7.12765">
        <ele>13.0</ele>
        <time>2020-01-18T08:26:35.150Z</time>
      </trkpt>
      <trkpt lat="37.27139833" lon="-7.12765">
        <ele>13.0</ele>
        <time>2020-01-18T08:26:36.164Z</time>
      </trkpt>
      <trkpt lat="37.271265" lon="-7.12766333">
        <ele>13.0</ele>
        <time>2020-01-18T08:26:37.151Z</time>
      </trkpt>
      <trkpt lat="37.271265" lon="-7.12766333">
        <ele>13.0</ele>
        <time>2020-01-18T08:26:38.143Z</time>
      </trkpt>
      <trkpt lat="37.27112833" lon="-7.12767167">
        <ele>12.0</ele>
        <time>2020-01-18T08:26:39.166Z</time>
      </trkpt>
      <trkpt lat="37.27112833" lon="-7.12767167">
        <ele>12.0</ele>
        <time>2020-01-18T08:26:40.149Z</time>
      </trkpt>
      <trkpt lat="37.27099" lon="-7.12766167">
        <ele>11.0</ele>
        <time>2020-01-18T08:26:41.168Z</time>
      </trkpt>
      <trkpt lat="37.27099" lon="-7.12766167">
        <ele>11.0</ele>
        <time>2020-01-18T08:26:42.148Z</time>
      </trkpt>
      <trkpt lat="37.270855" lon="-7.12764">
        <ele>11.0</ele>
        <time>2020-01-18T08:26:43.129Z</time>
      </trkpt>
      <trkpt lat="37.270855" lon="-7.12764">
        <ele>11.0</ele>
        <time>2020-01-18T08:26:44.146Z</time>
      </trkpt>
      <trkpt lat="37.27071833" lon="-7.12762">
        <ele>10.0</ele>
        <time>2020-01-18T08:26:45.166Z</time>
      </trkpt>
      <trkpt lat="37.27071833" lon="-7.12762">
        <ele>10.0</ele>
        <time>2020-01-18T08:26:46.148Z</time>
      </trkpt>
      <trkpt lat="37.27057667" lon="-7.12761833">
        <ele>9.0</ele>
        <time>2020-01-18T08:26:47.135Z</time>
      </trkpt>
      <trkpt lat="37.27057667" lon="-7.12761833">
        <ele>9.0</ele>
        <time>2020-01-18T08:26:48.150Z</time>
      </trkpt>
      <trkpt lat="37.270425" lon="-7.127615">
        <ele>9.0</ele>
        <time>2020-01-18T08:26:49.167Z</time>
      </trkpt>
      <trkpt lat="37.270425" lon="-7.127615">
        <ele>9.0</ele>
        <time>2020-01-18T08:26:50.149Z</time>
      </trkpt>
      <trkpt lat="37.27028" lon="-7.1276">
        <ele>8.0</ele>
        <time>2020-01-18T08:26:51.167Z</time>
      </trkpt>
      <trkpt lat="37.27028" lon="-7.1276">
        <ele>8.0</ele>
        <time>2020-01-18T08:26:52.148Z</time>
      </trkpt>
      <trkpt lat="37.27013833" lon="-7.12757833">
        <ele>7.0</ele>
        <time>2020-01-18T08:26:53.168Z</time>
      </trkpt>
      <trkpt lat="37.27006833" lon="-7.127565">
        <ele>7.0</ele>
        <time>2020-01-18T08:26:54.148Z</time>
      </trkpt>
      <trkpt lat="37.27006833" lon="-7.127565">
        <ele>7.0</ele>
        <time>2020-01-18T08:26:55.163Z</time>
      </trkpt>
      <trkpt lat="37.269925" lon="-7.12752333">
        <ele>7.0</ele>
        <time>2020-01-18T08:26:56.150Z</time>
      </trkpt>
      <trkpt lat="37.26985667" lon="-7.12749833">
        <ele>7.0</ele>
        <time>2020-01-18T08:26:57.135Z</time>
      </trkpt>
      <trkpt lat="37.26985667" lon="-7.12749833">
        <ele>7.0</ele>
        <time>2020-01-18T08:26:58.151Z</time>
      </trkpt>
      <trkpt lat="37.26973" lon="-7.12744333">
        <ele>6.0</ele>
        <time>2020-01-18T08:26:59.144Z</time>
      </trkpt>
      <trkpt lat="37.26973" lon="-7.12744333">
        <ele>6.0</ele>
        <time>2020-01-18T08:27:00.158Z</time>
      </trkpt>
      <trkpt lat="37.26960333" lon="-7.12738333">
        <ele>6.0</ele>
        <time>2020-01-18T08:27:01.156Z</time>
      </trkpt>
      <trkpt lat="37.26954" lon="-7.12735667">
        <ele>6.0</ele>
        <time>2020-01-18T08:27:02.150Z</time>
      </trkpt>
      <trkpt lat="37.26947333" lon="-7.12733667">
        <ele>6.0</ele>
        <time>2020-01-18T08:27:03.135Z</time>
      </trkpt>
      <trkpt lat="37.26947333" lon="-7.12733667">
        <ele>6.0</ele>
        <time>2020-01-18T08:27:04.148Z</time>
      </trkpt>
      <trkpt lat="37.26934167" lon="-7.127315">
        <ele>5.0</ele>
        <time>2020-01-18T08:27:05.165Z</time>
      </trkpt>
      <trkpt lat="37.26934167" lon="-7.127315">
        <ele>5.0</ele>
        <time>2020-01-18T08:27:06.148Z</time>
      </trkpt>
      <trkpt lat="37.26921333" lon="-7.12730167">
        <ele>5.0</ele>
        <time>2020-01-18T08:27:07.167Z</time>
      </trkpt>
      <trkpt lat="37.26921333" lon="-7.12730167">
        <ele>5.0</ele>
        <time>2020-01-18T08:27:08.147Z</time>
      </trkpt>
      <trkpt lat="37.26908667" lon="-7.12728167">
        <ele>6.0</ele>
        <time>2020-01-18T08:27:09.129Z</time>
      </trkpt>
      <trkpt lat="37.26908667" lon="-7.12728167">
        <ele>6.0</ele>
        <time>2020-01-18T08:27:10.147Z</time>
      </trkpt>
      <trkpt lat="37.268965" lon="-7.12724833">
        <ele>6.0</ele>
        <time>2020-01-18T08:27:11.129Z</time>
      </trkpt>
      <trkpt lat="37.268965" lon="-7.12724833">
        <ele>6.0</ele>
        <time>2020-01-18T08:27:12.149Z</time>
      </trkpt>
      <trkpt lat="37.26884667" lon="-7.12720333">
        <ele>6.0</ele>
        <time>2020-01-18T08:27:13.136Z</time>
      </trkpt>
      <trkpt lat="37.26884667" lon="-7.12720333">
        <ele>6.0</ele>
        <time>2020-01-18T08:27:14.151Z</time>
      </trkpt>
      <trkpt lat="37.268725" lon="-7.12715167">
        <ele>6.0</ele>
        <time>2020-01-18T08:27:15.130Z</time>
      </trkpt>
      <trkpt lat="37.268725" lon="-7.12715167">
        <ele>6.0</ele>
        <time>2020-01-18T08:27:16.148Z</time>
      </trkpt>
      <trkpt lat="37.26861" lon="-7.12710833">
        <ele>6.0</ele>
        <time>2020-01-18T08:27:17.135Z</time>
      </trkpt>
      <trkpt lat="37.26861" lon="-7.12710833">
        <ele>6.0</ele>
        <time>2020-01-18T08:27:18.150Z</time>
      </trkpt>
      <trkpt lat="37.26852167" lon="-7.12706667">
        <ele>6.0</ele>
        <time>2020-01-18T08:27:19.129Z</time>
      </trkpt>
      <trkpt lat="37.26852167" lon="-7.12706667">
        <ele>6.0</ele>
        <time>2020-01-18T08:27:20.147Z</time>
      </trkpt>
      <trkpt lat="37.26844" lon="-7.12701333">
        <ele>6.0</ele>
        <time>2020-01-18T08:27:21.129Z</time>
      </trkpt>
      <trkpt lat="37.26844" lon="-7.12701333">
        <ele>6.0</ele>
        <time>2020-01-18T08:27:22.146Z</time>
      </trkpt>
      <trkpt lat="37.26837" lon="-7.12693667">
        <ele>6.0</ele>
        <time>2020-01-18T08:27:23.168Z</time>
      </trkpt>
      <trkpt lat="37.26837" lon="-7.12693667">
        <ele>6.0</ele>
        <time>2020-01-18T08:27:24.149Z</time>
      </trkpt>
      <trkpt lat="37.26831" lon="-7.12685">
        <ele>7.0</ele>
        <time>2020-01-18T08:27:25.147Z</time>
      </trkpt>
      <trkpt lat="37.26831" lon="-7.12685">
        <ele>7.0</ele>
        <time>2020-01-18T08:27:26.161Z</time>
      </trkpt>
      <trkpt lat="37.268255" lon="-7.12675667">
        <ele>8.0</ele>
        <time>2020-01-18T08:27:27.153Z</time>
      </trkpt>
      <trkpt lat="37.268255" lon="-7.12675667">
        <ele>8.0</ele>
        <time>2020-01-18T08:27:28.134Z</time>
      </trkpt>
      <trkpt lat="37.268205" lon="-7.12665833">
        <ele>8.0</ele>
        <time>2020-01-18T08:27:29.156Z</time>
      </trkpt>
      <trkpt lat="37.268205" lon="-7.12665833">
        <ele>8.0</ele>
        <time>2020-01-18T08:27:30.146Z</time>
      </trkpt>
      <trkpt lat="37.26815" lon="-7.12656">
        <ele>8.0</ele>
        <time>2020-01-18T08:27:31.142Z</time>
      </trkpt>
      <trkpt lat="37.26815" lon="-7.12656">
        <ele>8.0</ele>
        <time>2020-01-18T08:27:32.155Z</time>
      </trkpt>
      <trkpt lat="37.26808333" lon="-7.12647333">
        <ele>8.0</ele>
        <time>2020-01-18T08:27:33.152Z</time>
      </trkpt>
      <trkpt lat="37.26808333" lon="-7.12647333">
        <ele>8.0</ele>
        <time>2020-01-18T08:27:34.165Z</time>
      </trkpt>
      <trkpt lat="37.26801333" lon="-7.126395">
        <ele>8.0</ele>
        <time>2020-01-18T08:27:35.151Z</time>
      </trkpt>
      <trkpt lat="37.26797833" lon="-7.126355">
        <ele>8.0</ele>
        <time>2020-01-18T08:27:36.165Z</time>
      </trkpt>
      <trkpt lat="37.26797833" lon="-7.126355">
        <ele>8.0</ele>
        <time>2020-01-18T08:27:37.146Z</time>
      </trkpt>
      <trkpt lat="37.26790167" lon="-7.12628167">
        <ele>8.0</ele>
        <time>2020-01-18T08:27:38.136Z</time>
      </trkpt>
      <trkpt lat="37.26786" lon="-7.12624833">
        <ele>8.0</ele>
        <time>2020-01-18T08:27:39.151Z</time>
      </trkpt>
      <trkpt lat="37.26786" lon="-7.12624833">
        <ele>8.0</ele>
        <time>2020-01-18T08:27:40.166Z</time>
      </trkpt>
      <trkpt lat="37.26778" lon="-7.12618">
        <ele>9.0</ele>
        <time>2020-01-18T08:27:41.151Z</time>
      </trkpt>
      <trkpt lat="37.26778" lon="-7.12618">
        <ele>9.0</ele>
        <time>2020-01-18T08:27:42.165Z</time>
      </trkpt>
      <trkpt lat="37.26769667" lon="-7.12612">
        <ele>9.0</ele>
        <time>2020-01-18T08:27:43.153Z</time>
      </trkpt>
      <trkpt lat="37.26769667" lon="-7.12612">
        <ele>9.0</ele>
        <time>2020-01-18T08:27:44.165Z</time>
      </trkpt>
      <trkpt lat="37.26761167" lon="-7.12606667">
        <ele>10.0</ele>
        <time>2020-01-18T08:27:45.151Z</time>
      </trkpt>
      <trkpt lat="37.26761167" lon="-7.12606667">
        <ele>10.0</ele>
        <time>2020-01-18T08:27:46.165Z</time>
      </trkpt>
      <trkpt lat="37.26752" lon="-7.12602667">
        <ele>10.0</ele>
        <time>2020-01-18T08:27:47.151Z</time>
      </trkpt>
      <trkpt lat="37.26752" lon="-7.12602667">
        <ele>10.0</ele>
        <time>2020-01-18T08:27:48.164Z</time>
      </trkpt>
      <trkpt lat="37.26743167" lon="-7.12599">
        <ele>11.0</ele>
        <time>2020-01-18T08:27:49.150Z</time>
      </trkpt>
      <trkpt lat="37.26739" lon="-7.12597333">
        <ele>11.0</ele>
        <time>2020-01-18T08:27:50.168Z</time>
      </trkpt>
      <trkpt lat="37.26739" lon="-7.12597333">
        <ele>11.0</ele>
        <time>2020-01-18T08:27:51.145Z</time>
      </trkpt>
      <trkpt lat="37.26730333" lon="-7.12594333">
        <ele>11.0</ele>
        <time>2020-01-18T08:27:52.137Z</time>
      </trkpt>
      <trkpt lat="37.26725833" lon="-7.12593167">
        <ele>11.0</ele>
        <time>2020-01-18T08:27:53.154Z</time>
      </trkpt>
      <trkpt lat="37.26725833" lon="-7.12593167">
        <ele>11.0</ele>
        <time>2020-01-18T08:27:54.145Z</time>
      </trkpt>
      <trkpt lat="37.26716833" lon="-7.12590833">
        <ele>11.0</ele>
        <time>2020-01-18T08:27:55.168Z</time>
      </trkpt>
      <trkpt lat="37.26716833" lon="-7.12590833">
        <ele>11.0</ele>
        <time>2020-01-18T08:27:56.145Z</time>
      </trkpt>
      <trkpt lat="37.26707833" lon="-7.12588333">
        <ele>12.0</ele>
        <time>2020-01-18T08:27:57.163Z</time>
      </trkpt>
      <trkpt lat="37.26707833" lon="-7.12588333">
        <ele>12.0</ele>
        <time>2020-01-18T08:27:58.149Z</time>
      </trkpt>
      <trkpt lat="37.26698833" lon="-7.12586">
        <ele>12.0</ele>
        <time>2020-01-18T08:27:59.135Z</time>
      </trkpt>
      <trkpt lat="37.26698833" lon="-7.12586">
        <ele>12.0</ele>
        <time>2020-01-18T08:28:00.131Z</time>
      </trkpt>
      <trkpt lat="37.26690333" lon="-7.12584167">
        <ele>13.0</ele>
        <time>2020-01-18T08:28:01.130Z</time>
      </trkpt>
      <trkpt lat="37.26686" lon="-7.125835">
        <ele>13.0</ele>
        <time>2020-01-18T08:28:02.152Z</time>
      </trkpt>
      <trkpt lat="37.26681667" lon="-7.12582833">
        <ele>13.0</ele>
        <time>2020-01-18T08:28:03.135Z</time>
      </trkpt>
      <trkpt lat="37.26681667" lon="-7.12582833">
        <ele>13.0</ele>
        <time>2020-01-18T08:28:04.149Z</time>
      </trkpt>
      <trkpt lat="37.26672833" lon="-7.12581833">
        <ele>13.0</ele>
        <time>2020-01-18T08:28:05.167Z</time>
      </trkpt>
      <trkpt lat="37.26672833" lon="-7.12581833">
        <ele>13.0</ele>
        <time>2020-01-18T08:28:06.145Z</time>
      </trkpt>
      <trkpt lat="37.26664167" lon="-7.12580333">
        <ele>14.0</ele>
        <time>2020-01-18T08:28:07.135Z</time>
      </trkpt>
      <trkpt lat="37.26659833" lon="-7.12579333">
        <ele>14.0</ele>
        <time>2020-01-18T08:28:08.161Z</time>
      </trkpt>
      <trkpt lat="37.26659833" lon="-7.12579333">
        <ele>14.0</ele>
        <time>2020-01-18T08:28:09.147Z</time>
      </trkpt>
      <trkpt lat="37.26651167" lon="-7.12577667">
        <ele>14.0</ele>
        <time>2020-01-18T08:28:10.130Z</time>
      </trkpt>
      <trkpt lat="37.26646833" lon="-7.12577">
        <ele>14.0</ele>
        <time>2020-01-18T08:28:11.151Z</time>
      </trkpt>
      <trkpt lat="37.26646833" lon="-7.12577">
        <ele>14.0</ele>
        <time>2020-01-18T08:28:12.164Z</time>
      </trkpt>
      <trkpt lat="37.26638167" lon="-7.12576">
        <ele>15.0</ele>
        <time>2020-01-18T08:28:13.157Z</time>
      </trkpt>
      <trkpt lat="37.26638167" lon="-7.12576">
        <ele>15.0</ele>
        <time>2020-01-18T08:28:14.142Z</time>
      </trkpt>
      <trkpt lat="37.26629667" lon="-7.12574833">
        <ele>15.0</ele>
        <time>2020-01-18T08:28:15.135Z</time>
      </trkpt>
      <trkpt lat="37.26629667" lon="-7.12574833">
        <ele>15.0</ele>
        <time>2020-01-18T08:28:16.148Z</time>
      </trkpt>
      <trkpt lat="37.26621167" lon="-7.12574333">
        <ele>15.0</ele>
        <time>2020-01-18T08:28:17.135Z</time>
      </trkpt>
      <trkpt lat="37.26621167" lon="-7.12574333">
        <ele>15.0</ele>
        <time>2020-01-18T08:28:18.149Z</time>
      </trkpt>
      <trkpt lat="37.26612667" lon="-7.12574">
        <ele>16.0</ele>
        <time>2020-01-18T08:28:19.130Z</time>
      </trkpt>
      <trkpt lat="37.26612667" lon="-7.12574">
        <ele>16.0</ele>
        <time>2020-01-18T08:28:20.147Z</time>
      </trkpt>
      <trkpt lat="37.26603667" lon="-7.125735">
        <ele>16.0</ele>
        <time>2020-01-18T08:28:21.164Z</time>
      </trkpt>
      <trkpt lat="37.26603667" lon="-7.125735">
        <ele>16.0</ele>
        <time>2020-01-18T08:28:22.146Z</time>
      </trkpt>
      <trkpt lat="37.26595167" lon="-7.12572833">
        <ele>16.0</ele>
        <time>2020-01-18T08:28:23.129Z</time>
      </trkpt>
      <trkpt lat="37.26595167" lon="-7.12572833">
        <ele>16.0</ele>
        <time>2020-01-18T08:28:24.146Z</time>
      </trkpt>
      <trkpt lat="37.26586667" lon="-7.12572333">
        <ele>17.0</ele>
        <time>2020-01-18T08:28:25.135Z</time>
      </trkpt>
      <trkpt lat="37.265825" lon="-7.12572">
        <ele>17.0</ele>
        <time>2020-01-18T08:28:26.167Z</time>
      </trkpt>
      <trkpt lat="37.265825" lon="-7.12572">
        <ele>17.0</ele>
        <time>2020-01-18T08:28:27.150Z</time>
      </trkpt>
      <trkpt lat="37.26574167" lon="-7.12571667">
        <ele>17.0</ele>
        <time>2020-01-18T08:28:28.166Z</time>
      </trkpt>
      <trkpt lat="37.26574167" lon="-7.12571667">
        <ele>17.0</ele>
        <time>2020-01-18T08:28:29.145Z</time>
      </trkpt>
      <trkpt lat="37.265665" lon="-7.12571333">
        <ele>18.0</ele>
        <time>2020-01-18T08:28:30.129Z</time>
      </trkpt>
      <trkpt lat="37.265665" lon="-7.12571333">
        <ele>18.0</ele>
        <time>2020-01-18T08:28:31.162Z</time>
      </trkpt>
      <trkpt lat="37.26559" lon="-7.125705">
        <ele>18.0</ele>
        <time>2020-01-18T08:28:32.151Z</time>
      </trkpt>
      <trkpt lat="37.26555167" lon="-7.1257">
        <ele>19.0</ele>
        <time>2020-01-18T08:28:33.135Z</time>
      </trkpt>
      <trkpt lat="37.26555167" lon="-7.1257">
        <ele>19.0</ele>
        <time>2020-01-18T08:28:34.149Z</time>
      </trkpt>
      <trkpt lat="37.265475" lon="-7.12569">
        <ele>19.0</ele>
        <time>2020-01-18T08:28:35.166Z</time>
      </trkpt>
      <trkpt lat="37.26543833" lon="-7.12568667">
        <ele>19.0</ele>
        <time>2020-01-18T08:28:36.150Z</time>
      </trkpt>
      <trkpt lat="37.26543833" lon="-7.12568667">
        <ele>19.0</ele>
        <time>2020-01-18T08:28:37.165Z</time>
      </trkpt>
      <trkpt lat="37.26536167" lon="-7.12567667">
        <ele>20.0</ele>
        <time>2020-01-18T08:28:38.148Z</time>
      </trkpt>
      <trkpt lat="37.26532333" lon="-7.12567333">
        <ele>20.0</ele>
        <time>2020-01-18T08:28:39.129Z</time>
      </trkpt>
      <trkpt lat="37.26532333" lon="-7.12567333">
        <ele>20.0</ele>
        <time>2020-01-18T08:28:40.145Z</time>
      </trkpt>
      <trkpt lat="37.265245" lon="-7.12566167">
        <ele>21.0</ele>
        <time>2020-01-18T08:28:41.165Z</time>
      </trkpt>
      <trkpt lat="37.265205" lon="-7.12565667">
        <ele>21.0</ele>
        <time>2020-01-18T08:28:42.159Z</time>
      </trkpt>
      <trkpt lat="37.265205" lon="-7.12565667">
        <ele>21.0</ele>
        <time>2020-01-18T08:28:43.146Z</time>
      </trkpt>
      <trkpt lat="37.26512833" lon="-7.12564">
        <ele>21.0</ele>
        <time>2020-01-18T08:28:44.160Z</time>
      </trkpt>
      <trkpt lat="37.26509167" lon="-7.12563167">
        <ele>22.0</ele>
        <time>2020-01-18T08:28:45.152Z</time>
      </trkpt>
      <trkpt lat="37.26509167" lon="-7.12563167">
        <ele>22.0</ele>
        <time>2020-01-18T08:28:46.166Z</time>
      </trkpt>
      <trkpt lat="37.26501667" lon="-7.12561333">
        <ele>22.0</ele>
        <time>2020-01-18T08:28:47.151Z</time>
      </trkpt>
      <trkpt lat="37.26498" lon="-7.12560333">
        <ele>22.0</ele>
        <time>2020-01-18T08:28:48.168Z</time>
      </trkpt>
      <trkpt lat="37.26498" lon="-7.12560333">
        <ele>22.0</ele>
        <time>2020-01-18T08:28:49.152Z</time>
      </trkpt>
      <trkpt lat="37.26490333" lon="-7.12558333">
        <ele>23.0</ele>
        <time>2020-01-18T08:28:50.135Z</time>
      </trkpt>
      <trkpt lat="37.26490333" lon="-7.12558333">
        <ele>23.0</ele>
        <time>2020-01-18T08:28:51.150Z</time>
      </trkpt>
      <trkpt lat="37.26482333" lon="-7.12556">
        <ele>23.0</ele>
        <time>2020-01-18T08:28:52.135Z</time>
      </trkpt>
      <trkpt lat="37.26482333" lon="-7.12556">
        <ele>23.0</ele>
        <time>2020-01-18T08:28:53.150Z</time>
      </trkpt>
      <trkpt lat="37.26474667" lon="-7.12553167">
        <ele>23.0</ele>
        <time>2020-01-18T08:28:54.167Z</time>
      </trkpt>
      <trkpt lat="37.26470833" lon="-7.12551833">
        <ele>23.0</ele>
        <time>2020-01-18T08:28:55.162Z</time>
      </trkpt>
      <trkpt lat="37.26470833" lon="-7.12551833">
        <ele>23.0</ele>
        <time>2020-01-18T08:28:56.145Z</time>
      </trkpt>
      <trkpt lat="37.26463167" lon="-7.12549333">
        <ele>23.0</ele>
        <time>2020-01-18T08:28:57.136Z</time>
      </trkpt>
      <trkpt lat="37.264595" lon="-7.12548">
        <ele>23.0</ele>
        <time>2020-01-18T08:28:58.156Z</time>
      </trkpt>
      <trkpt lat="37.264595" lon="-7.12548">
        <ele>23.0</ele>
        <time>2020-01-18T08:28:59.146Z</time>
      </trkpt>
      <trkpt lat="37.26451833" lon="-7.12544">
        <ele>24.0</ele>
        <time>2020-01-18T08:29:00.138Z</time>
      </trkpt>
      <trkpt lat="37.26451833" lon="-7.12544">
        <ele>24.0</ele>
        <time>2020-01-18T08:29:01.150Z</time>
      </trkpt>
      <trkpt lat="37.26443667" lon="-7.12540833">
        <ele>24.0</ele>
        <time>2020-01-18T08:29:02.130Z</time>
      </trkpt>
      <trkpt lat="37.26443667" lon="-7.12540833">
        <ele>24.0</ele>
        <time>2020-01-18T08:29:03.147Z</time>
      </trkpt>
      <trkpt lat="37.26436333" lon="-7.125375">
        <ele>25.0</ele>
        <time>2020-01-18T08:29:04.168Z</time>
      </trkpt>
      <trkpt lat="37.26432667" lon="-7.12535667">
        <ele>25.0</ele>
        <time>2020-01-18T08:29:05.151Z</time>
      </trkpt>
      <trkpt lat="37.26432667" lon="-7.12535667">
        <ele>25.0</ele>
        <time>2020-01-18T08:29:06.163Z</time>
      </trkpt>
      <trkpt lat="37.26425167" lon="-7.12532333">
        <ele>25.0</ele>
        <time>2020-01-18T08:29:07.160Z</time>
      </trkpt>
      <trkpt lat="37.26425167" lon="-7.12532333">
        <ele>25.0</ele>
        <time>2020-01-18T08:29:08.145Z</time>
      </trkpt>
      <trkpt lat="37.26417667" lon="-7.12529167">
        <ele>25.0</ele>
        <time>2020-01-18T08:29:09.130Z</time>
      </trkpt>
      <trkpt lat="37.26417667" lon="-7.12529167">
        <ele>25.0</ele>
        <time>2020-01-18T08:29:10.146Z</time>
      </trkpt>
      <trkpt lat="37.26410833" lon="-7.12526167">
        <ele>25.0</ele>
        <time>2020-01-18T08:29:11.136Z</time>
      </trkpt>
      <trkpt lat="37.26407333" lon="-7.12525">
        <ele>25.0</ele>
        <time>2020-01-18T08:29:12.160Z</time>
      </trkpt>
      <trkpt lat="37.26407333" lon="-7.12525">
        <ele>25.0</ele>
        <time>2020-01-18T08:29:13.149Z</time>
      </trkpt>
      <trkpt lat="37.26400667" lon="-7.12522667">
        <ele>26.0</ele>
        <time>2020-01-18T08:29:14.166Z</time>
      </trkpt>
      <trkpt lat="37.26397333" lon="-7.12522">
        <ele>26.0</ele>
        <time>2020-01-18T08:29:15.152Z</time>
      </trkpt>
      <trkpt lat="37.26394333" lon="-7.12522">
        <ele>26.0</ele>
        <time>2020-01-18T08:29:16.130Z</time>
      </trkpt>
      <trkpt lat="37.26394333" lon="-7.12522">
        <ele>26.0</ele>
        <time>2020-01-18T08:29:17.146Z</time>
      </trkpt>
      <trkpt lat="37.263885" lon="-7.12522">
        <ele>27.0</ele>
        <time>2020-01-18T08:29:18.129Z</time>
      </trkpt>
      <trkpt lat="37.263885" lon="-7.12522">
        <ele>27.0</ele>
        <time>2020-01-18T08:29:19.147Z</time>
      </trkpt>
      <trkpt lat="37.26382333" lon="-7.12521833">
        <ele>27.0</ele>
        <time>2020-01-18T08:29:20.129Z</time>
      </trkpt>
      <trkpt lat="37.26379" lon="-7.12521833">
        <ele>28.0</ele>
        <time>2020-01-18T08:29:21.135Z</time>
      </trkpt>
      <trkpt lat="37.26379" lon="-7.12521833">
        <ele>28.0</ele>
        <time>2020-01-18T08:29:22.150Z</time>
      </trkpt>
      <trkpt lat="37.26372667" lon="-7.1252">
        <ele>28.0</ele>
        <time>2020-01-18T08:29:23.145Z</time>
      </trkpt>
      <trkpt lat="37.26372667" lon="-7.1252">
        <ele>28.0</ele>
        <time>2020-01-18T08:29:24.159Z</time>
      </trkpt>
      <trkpt lat="37.26367167" lon="-7.12516333">
        <ele>29.0</ele>
        <time>2020-01-18T08:29:25.157Z</time>
      </trkpt>
      <trkpt lat="37.26367167" lon="-7.12516333">
        <ele>29.0</ele>
        <time>2020-01-18T08:29:26.146Z</time>
      </trkpt>
      <trkpt lat="37.26364667" lon="-7.12511333">
        <ele>29.0</ele>
        <time>2020-01-18T08:29:27.129Z</time>
      </trkpt>
      <trkpt lat="37.26364667" lon="-7.12511333">
        <ele>29.0</ele>
        <time>2020-01-18T08:29:28.148Z</time>
      </trkpt>
      <trkpt lat="37.263655" lon="-7.12505667">
        <ele>30.0</ele>
        <time>2020-01-18T08:29:29.168Z</time>
      </trkpt>
      <trkpt lat="37.263655" lon="-7.12505667">
        <ele>30.0</ele>
        <time>2020-01-18T08:29:30.146Z</time>
      </trkpt>
      <trkpt lat="37.26366833" lon="-7.12497167">
        <ele>31.0</ele>
        <time>2020-01-18T08:29:31.157Z</time>
      </trkpt>
      <trkpt lat="37.26366833" lon="-7.12497167">
        <ele>31.0</ele>
        <time>2020-01-18T08:29:32.168Z</time>
      </trkpt>
      <trkpt lat="37.263675" lon="-7.12489167">
        <ele>32.0</ele>
        <time>2020-01-18T08:29:33.142Z</time>
      </trkpt>
      <trkpt lat="37.263675" lon="-7.12489167">
        <ele>32.0</ele>
        <time>2020-01-18T08:29:34.147Z</time>
      </trkpt>
      <trkpt lat="37.263685" lon="-7.12482">
        <ele>32.0</ele>
        <time>2020-01-18T08:29:35.135Z</time>
      </trkpt>
      <trkpt lat="37.263685" lon="-7.12482">
        <ele>32.0</ele>
        <time>2020-01-18T08:29:36.155Z</time>
      </trkpt>
      <trkpt lat="37.263695" lon="-7.12472167">
        <ele>33.0</ele>
        <time>2020-01-18T08:29:37.157Z</time>
      </trkpt>
      <trkpt lat="37.26369667" lon="-7.12468333">
        <ele>33.0</ele>
        <time>2020-01-18T08:29:38.152Z</time>
      </trkpt>
      <trkpt lat="37.2637" lon="-7.12465">
        <ele>33.0</ele>
        <time>2020-01-18T08:29:39.135Z</time>
      </trkpt>
      <trkpt lat="37.263705" lon="-7.12461">
        <ele>34.0</ele>
        <time>2020-01-18T08:29:40.163Z</time>
      </trkpt>
      <trkpt lat="37.263705" lon="-7.12456667">
        <ele>34.0</ele>
        <time>2020-01-18T08:29:41.152Z</time>
      </trkpt>
      <trkpt lat="37.263705" lon="-7.12456667">
        <ele>34.0</ele>
        <time>2020-01-18T08:29:42.167Z</time>
      </trkpt>
      <trkpt lat="37.263715" lon="-7.12449">
        <ele>34.0</ele>
        <time>2020-01-18T08:29:43.151Z</time>
      </trkpt>
      <trkpt lat="37.263715" lon="-7.12449">
        <ele>34.0</ele>
        <time>2020-01-18T08:29:44.164Z</time>
      </trkpt>
      <trkpt lat="37.26371333" lon="-7.12441333">
        <ele>35.0</ele>
        <time>2020-01-18T08:29:45.162Z</time>
      </trkpt>
      <trkpt lat="37.26371333" lon="-7.12441333">
        <ele>35.0</ele>
        <time>2020-01-18T08:29:46.148Z</time>
      </trkpt>
      <trkpt lat="37.26370833" lon="-7.12434833">
        <ele>35.0</ele>
        <time>2020-01-18T08:29:47.129Z</time>
      </trkpt>
      <trkpt lat="37.26370833" lon="-7.12434833">
        <ele>35.0</ele>
        <time>2020-01-18T08:29:48.148Z</time>
      </trkpt>
      <trkpt lat="37.26369667" lon="-7.12429167">
        <ele>36.0</ele>
        <time>2020-01-18T08:29:49.130Z</time>
      </trkpt>
      <trkpt lat="37.26369667" lon="-7.12429167">
        <ele>36.0</ele>
        <time>2020-01-18T08:29:50.142Z</time>
      </trkpt>
      <trkpt lat="37.263685" lon="-7.12422">
        <ele>36.0</ele>
        <time>2020-01-18T08:29:51.160Z</time>
      </trkpt>
      <trkpt lat="37.263685" lon="-7.12422">
        <ele>36.0</ele>
        <time>2020-01-18T08:29:52.160Z</time>
      </trkpt>
      <trkpt lat="37.26367333" lon="-7.12415333">
        <ele>36.0</ele>
        <time>2020-01-18T08:29:53.161Z</time>
      </trkpt>
      <trkpt lat="37.26366667" lon="-7.12412167">
        <ele>36.0</ele>
        <time>2020-01-18T08:29:54.150Z</time>
      </trkpt>
      <trkpt lat="37.263655" lon="-7.12408333">
        <ele>37.0</ele>
        <time>2020-01-18T08:29:55.129Z</time>
      </trkpt>
      <trkpt lat="37.263655" lon="-7.12408333">
        <ele>37.0</ele>
        <time>2020-01-18T08:29:56.145Z</time>
      </trkpt>
      <trkpt lat="37.26363667" lon="-7.124015">
        <ele>37.0</ele>
        <time>2020-01-18T08:29:57.131Z</time>
      </trkpt>
      <trkpt lat="37.26363167" lon="-7.12398667">
        <ele>37.0</ele>
        <time>2020-01-18T08:29:58.152Z</time>
      </trkpt>
      <trkpt lat="37.26363167" lon="-7.12398667">
        <ele>37.0</ele>
        <time>2020-01-18T08:29:59.164Z</time>
      </trkpt>
      <trkpt lat="37.26361167" lon="-7.12392833">
        <ele>38.0</ele>
        <time>2020-01-18T08:30:00.152Z</time>
      </trkpt>
      <trkpt lat="37.26361167" lon="-7.12392833">
        <ele>38.0</ele>
        <time>2020-01-18T08:30:01.166Z</time>
      </trkpt>
      <trkpt lat="37.26358833" lon="-7.12386833">
        <ele>39.0</ele>
        <time>2020-01-18T08:30:02.139Z</time>
      </trkpt>
      <trkpt lat="37.26358167" lon="-7.12384167">
        <ele>39.0</ele>
        <time>2020-01-18T08:30:03.152Z</time>
      </trkpt>
      <trkpt lat="37.26358167" lon="-7.12384167">
        <ele>39.0</ele>
        <time>2020-01-18T08:30:04.165Z</time>
      </trkpt>
      <trkpt lat="37.263565" lon="-7.12379333">
        <ele>40.0</ele>
        <time>2020-01-18T08:30:05.151Z</time>
      </trkpt>
      <trkpt lat="37.263565" lon="-7.12379333">
        <ele>40.0</ele>
        <time>2020-01-18T08:30:06.163Z</time>
      </trkpt>
      <trkpt lat="37.26356" lon="-7.123755">
        <ele>41.0</ele>
        <time>2020-01-18T08:30:07.163Z</time>
      </trkpt>
      <trkpt lat="37.26356" lon="-7.123755">
        <ele>41.0</ele>
        <time>2020-01-18T08:30:08.145Z</time>
      </trkpt>
      <trkpt lat="37.26354333" lon="-7.12371167">
        <ele>41.0</ele>
        <time>2020-01-18T08:30:09.167Z</time>
      </trkpt>
      <trkpt lat="37.26354333" lon="-7.12371167">
        <ele>41.0</ele>
        <time>2020-01-18T08:30:10.149Z</time>
      </trkpt>
      <trkpt lat="37.26352167" lon="-7.12366667">
        <ele>42.0</ele>
        <time>2020-01-18T08:30:11.138Z</time>
      </trkpt>
      <trkpt lat="37.26350833" lon="-7.12364667">
        <ele>42.0</ele>
        <time>2020-01-18T08:30:12.161Z</time>
      </trkpt>
      <trkpt lat="37.26350833" lon="-7.12364667">
        <ele>42.0</ele>
        <time>2020-01-18T08:30:13.146Z</time>
      </trkpt>
      <trkpt lat="37.26348167" lon="-7.123605">
        <ele>42.0</ele>
        <time>2020-01-18T08:30:14.168Z</time>
      </trkpt>
      <trkpt lat="37.26346667" lon="-7.123585">
        <ele>42.0</ele>
        <time>2020-01-18T08:30:15.151Z</time>
      </trkpt>
      <trkpt lat="37.26345333" lon="-7.123565">
        <ele>42.0</ele>
        <time>2020-01-18T08:30:16.135Z</time>
      </trkpt>
      <trkpt lat="37.26345333" lon="-7.123565">
        <ele>42.0</ele>
        <time>2020-01-18T08:30:17.148Z</time>
      </trkpt>
      <trkpt lat="37.26342333" lon="-7.12352667">
        <ele>42.0</ele>
        <time>2020-01-18T08:30:18.157Z</time>
      </trkpt>
      <trkpt lat="37.26342333" lon="-7.12352667">
        <ele>42.0</ele>
        <time>2020-01-18T08:30:19.143Z</time>
      </trkpt>
      <trkpt lat="37.26339833" lon="-7.12349">
        <ele>43.0</ele>
        <time>2020-01-18T08:30:20.130Z</time>
      </trkpt>
      <trkpt lat="37.26339833" lon="-7.12349">
        <ele>43.0</ele>
        <time>2020-01-18T08:30:21.157Z</time>
      </trkpt>
      <trkpt lat="37.26337333" lon="-7.12345333">
        <ele>43.0</ele>
        <time>2020-01-18T08:30:22.154Z</time>
      </trkpt>
      <trkpt lat="37.26337333" lon="-7.12345333">
        <ele>43.0</ele>
        <time>2020-01-18T08:30:23.148Z</time>
      </trkpt>
      <trkpt lat="37.26335" lon="-7.12341167">
        <ele>44.0</ele>
        <time>2020-01-18T08:30:24.167Z</time>
      </trkpt>
      <trkpt lat="37.26335" lon="-7.12341167">
        <ele>44.0</ele>
        <time>2020-01-18T08:30:25.150Z</time>
      </trkpt>
      <trkpt lat="37.26333167" lon="-7.12337167">
        <ele>44.0</ele>
        <time>2020-01-18T08:30:26.135Z</time>
      </trkpt>
      <trkpt lat="37.26333167" lon="-7.12337167">
        <ele>44.0</ele>
        <time>2020-01-18T08:30:27.149Z</time>
      </trkpt>
      <trkpt lat="37.26331" lon="-7.12332667">
        <ele>45.0</ele>
        <time>2020-01-18T08:30:28.136Z</time>
      </trkpt>
      <trkpt lat="37.26331" lon="-7.12332667">
        <ele>45.0</ele>
        <time>2020-01-18T08:30:29.149Z</time>
      </trkpt>
      <trkpt lat="37.26329333" lon="-7.12326833">
        <ele>45.0</ele>
        <time>2020-01-18T08:30:30.131Z</time>
      </trkpt>
      <trkpt lat="37.26329333" lon="-7.12326833">
        <ele>45.0</ele>
        <time>2020-01-18T08:30:31.135Z</time>
      </trkpt>
      <trkpt lat="37.26328667" lon="-7.12318167">
        <ele>46.0</ele>
        <time>2020-01-18T08:30:32.154Z</time>
      </trkpt>
      <trkpt lat="37.26329167" lon="-7.12311667">
        <ele>46.0</ele>
        <time>2020-01-18T08:30:33.131Z</time>
      </trkpt>
      <trkpt lat="37.26328333" lon="-7.12305167">
        <ele>46.0</ele>
        <time>2020-01-18T08:30:34.150Z</time>
      </trkpt>
      <trkpt lat="37.26326833" lon="-7.12299667">
        <ele>46.0</ele>
        <time>2020-01-18T08:30:35.135Z</time>
      </trkpt>
      <trkpt lat="37.26326833" lon="-7.12299667">
        <ele>46.0</ele>
        <time>2020-01-18T08:30:36.148Z</time>
      </trkpt>
      <trkpt lat="37.26324333" lon="-7.12291833">
        <ele>47.0</ele>
        <time>2020-01-18T08:30:37.135Z</time>
      </trkpt>
      <trkpt lat="37.26323667" lon="-7.122895">
        <ele>47.0</ele>
        <time>2020-01-18T08:30:38.150Z</time>
      </trkpt>
      <trkpt lat="37.26323667" lon="-7.122895">
        <ele>47.0</ele>
        <time>2020-01-18T08:30:39.163Z</time>
      </trkpt>
      <trkpt lat="37.26321667" lon="-7.12284167">
        <ele>47.0</ele>
        <time>2020-01-18T08:30:40.149Z</time>
      </trkpt>
      <trkpt lat="37.26320333" lon="-7.12281833">
        <ele>47.0</ele>
        <time>2020-01-18T08:30:41.129Z</time>
      </trkpt>
      <trkpt lat="37.26320333" lon="-7.12281833">
        <ele>47.0</ele>
        <time>2020-01-18T08:30:42.154Z</time>
      </trkpt>
      <trkpt lat="37.26319167" lon="-7.12276333">
        <ele>48.0</ele>
        <time>2020-01-18T08:30:43.130Z</time>
      </trkpt>
      <trkpt lat="37.26319" lon="-7.12273833">
        <ele>48.0</ele>
        <time>2020-01-18T08:30:44.151Z</time>
      </trkpt>
      <trkpt lat="37.26319" lon="-7.12273833">
        <ele>48.0</ele>
        <time>2020-01-18T08:30:45.163Z</time>
      </trkpt>
      <trkpt lat="37.26319667" lon="-7.12267167">
        <ele>48.0</ele>
        <time>2020-01-18T08:30:46.151Z</time>
      </trkpt>
      <trkpt lat="37.26319667" lon="-7.12267167">
        <ele>48.0</ele>
        <time>2020-01-18T08:30:47.163Z</time>
      </trkpt>
      <trkpt lat="37.26321" lon="-7.122605">
        <ele>48.0</ele>
        <time>2020-01-18T08:30:48.130Z</time>
      </trkpt>
      <trkpt lat="37.263215" lon="-7.12257333">
        <ele>48.0</ele>
        <time>2020-01-18T08:30:49.151Z</time>
      </trkpt>
      <trkpt lat="37.263215" lon="-7.12257333">
        <ele>48.0</ele>
        <time>2020-01-18T08:30:50.164Z</time>
      </trkpt>
      <trkpt lat="37.263225" lon="-7.12251333">
        <ele>48.0</ele>
        <time>2020-01-18T08:30:51.162Z</time>
      </trkpt>
      <trkpt lat="37.26322167" lon="-7.12248333">
        <ele>48.0</ele>
        <time>2020-01-18T08:30:52.157Z</time>
      </trkpt>
      <trkpt lat="37.26322167" lon="-7.12248333">
        <ele>48.0</ele>
        <time>2020-01-18T08:30:53.149Z</time>
      </trkpt>
      <trkpt lat="37.26320167" lon="-7.122425">
        <ele>48.0</ele>
        <time>2020-01-18T08:30:54.135Z</time>
      </trkpt>
      <trkpt lat="37.26320167" lon="-7.122425">
        <ele>48.0</ele>
        <time>2020-01-18T08:30:55.148Z</time>
      </trkpt>
      <trkpt lat="37.26318333" lon="-7.12237167">
        <ele>48.0</ele>
        <time>2020-01-18T08:30:56.129Z</time>
      </trkpt>
      <trkpt lat="37.26318333" lon="-7.12237167">
        <ele>48.0</ele>
        <time>2020-01-18T08:30:57.147Z</time>
      </trkpt>
      <trkpt lat="37.26315333" lon="-7.12231833">
        <ele>49.0</ele>
        <time>2020-01-18T08:30:58.133Z</time>
      </trkpt>
      <trkpt lat="37.26315333" lon="-7.12231833">
        <ele>49.0</ele>
        <time>2020-01-18T08:30:59.146Z</time>
      </trkpt>
      <trkpt lat="37.26312833" lon="-7.12227833">
        <ele>50.0</ele>
        <time>2020-01-18T08:31:00.168Z</time>
      </trkpt>
      <trkpt lat="37.26312833" lon="-7.12227833">
        <ele>50.0</ele>
        <time>2020-01-18T08:31:01.155Z</time>
      </trkpt>
      <trkpt lat="37.26310333" lon="-7.12224833">
        <ele>51.0</ele>
        <time>2020-01-18T08:31:02.155Z</time>
      </trkpt>
      <trkpt lat="37.26308833" lon="-7.12223167">
        <ele>51.0</ele>
        <time>2020-01-18T08:31:03.151Z</time>
      </trkpt>
      <trkpt lat="37.26307667" lon="-7.12219667">
        <ele>51.0</ele>
        <time>2020-01-18T08:31:04.129Z</time>
      </trkpt>
      <trkpt lat="37.26307667" lon="-7.12219667">
        <ele>51.0</ele>
        <time>2020-01-18T08:31:05.146Z</time>
      </trkpt>
      <trkpt lat="37.26304333" lon="-7.12216">
        <ele>52.0</ele>
        <time>2020-01-18T08:31:06.167Z</time>
      </trkpt>
      <trkpt lat="37.263025" lon="-7.12213833">
        <ele>52.0</ele>
        <time>2020-01-18T08:31:07.159Z</time>
      </trkpt>
      <trkpt lat="37.263025" lon="-7.12213833">
        <ele>52.0</ele>
        <time>2020-01-18T08:31:08.148Z</time>
      </trkpt>
      <trkpt lat="37.262995" lon="-7.12209333">
        <ele>52.0</ele>
        <time>2020-01-18T08:31:09.142Z</time>
      </trkpt>
      <trkpt lat="37.262985" lon="-7.12207667">
        <ele>53.0</ele>
        <time>2020-01-18T08:31:10.129Z</time>
      </trkpt>
      <trkpt lat="37.262985" lon="-7.12207667">
        <ele>53.0</ele>
        <time>2020-01-18T08:31:11.155Z</time>
      </trkpt>
      <trkpt lat="37.26296" lon="-7.122055">
        <ele>54.0</ele>
        <time>2020-01-18T08:31:12.153Z</time>
      </trkpt>
      <trkpt lat="37.26296" lon="-7.122055">
        <ele>54.0</ele>
        <time>2020-01-18T08:31:13.163Z</time>
      </trkpt>
      <trkpt lat="37.262925" lon="-7.12202667">
        <ele>54.0</ele>
        <time>2020-01-18T08:31:14.152Z</time>
      </trkpt>
      <trkpt lat="37.262925" lon="-7.12202667">
        <ele>54.0</ele>
        <time>2020-01-18T08:31:15.165Z</time>
      </trkpt>
      <trkpt lat="37.26289" lon="-7.12199333">
        <ele>55.0</ele>
        <time>2020-01-18T08:31:16.157Z</time>
      </trkpt>
      <trkpt lat="37.26289" lon="-7.12199333">
        <ele>55.0</ele>
        <time>2020-01-18T08:31:17.146Z</time>
      </trkpt>
      <trkpt lat="37.26284833" lon="-7.12196333">
        <ele>55.0</ele>
        <time>2020-01-18T08:31:18.130Z</time>
      </trkpt>
      <trkpt lat="37.26284833" lon="-7.12196333">
        <ele>55.0</ele>
        <time>2020-01-18T08:31:19.147Z</time>
      </trkpt>
      <trkpt lat="37.26280667" lon="-7.12191333">
        <ele>56.0</ele>
        <time>2020-01-18T08:31:20.129Z</time>
      </trkpt>
      <trkpt lat="37.26280667" lon="-7.12191333">
        <ele>56.0</ele>
        <time>2020-01-18T08:31:21.147Z</time>
      </trkpt>
      <trkpt lat="37.26276667" lon="-7.12185">
        <ele>56.0</ele>
        <time>2020-01-18T08:31:22.129Z</time>
      </trkpt>
      <trkpt lat="37.26276667" lon="-7.12185">
        <ele>56.0</ele>
        <time>2020-01-18T08:31:23.150Z</time>
      </trkpt>
      <trkpt lat="37.26273333" lon="-7.12180167">
        <ele>57.0</ele>
        <time>2020-01-18T08:31:24.167Z</time>
      </trkpt>
      <trkpt lat="37.26273333" lon="-7.12180167">
        <ele>57.0</ele>
        <time>2020-01-18T08:31:25.150Z</time>
      </trkpt>
      <trkpt lat="37.26270333" lon="-7.12176167">
        <ele>57.0</ele>
        <time>2020-01-18T08:31:26.135Z</time>
      </trkpt>
      <trkpt lat="37.26270333" lon="-7.12176167">
        <ele>57.0</ele>
        <time>2020-01-18T08:31:27.150Z</time>
      </trkpt>
      <trkpt lat="37.26267" lon="-7.12172833">
        <ele>58.0</ele>
        <time>2020-01-18T08:31:28.138Z</time>
      </trkpt>
      <trkpt lat="37.26265167" lon="-7.12171167">
        <ele>58.0</ele>
        <time>2020-01-18T08:31:29.161Z</time>
      </trkpt>
      <trkpt lat="37.26265167" lon="-7.12171167">
        <ele>58.0</ele>
        <time>2020-01-18T08:31:30.146Z</time>
      </trkpt>
      <trkpt lat="37.262615" lon="-7.12167333">
        <ele>58.0</ele>
        <time>2020-01-18T08:31:31.152Z</time>
      </trkpt>
      <trkpt lat="37.262615" lon="-7.12167333">
        <ele>58.0</ele>
        <time>2020-01-18T08:31:32.129Z</time>
      </trkpt>
      <trkpt lat="37.26257" lon="-7.12163333">
        <ele>57.0</ele>
        <time>2020-01-18T08:31:33.145Z</time>
      </trkpt>
      <trkpt lat="37.26255333" lon="-7.121615">
        <ele>57.0</ele>
        <time>2020-01-18T08:31:34.135Z</time>
      </trkpt>
      <trkpt lat="37.26252667" lon="-7.12159167">
        <ele>57.0</ele>
        <time>2020-01-18T08:31:35.158Z</time>
      </trkpt>
      <trkpt lat="37.26252667" lon="-7.12159167">
        <ele>57.0</ele>
        <time>2020-01-18T08:31:36.147Z</time>
      </trkpt>
      <trkpt lat="37.26249333" lon="-7.12154167">
        <ele>58.0</ele>
        <time>2020-01-18T08:31:37.167Z</time>
      </trkpt>
      <trkpt lat="37.262475" lon="-7.12152">
        <ele>57.0</ele>
        <time>2020-01-18T08:31:38.154Z</time>
      </trkpt>
      <trkpt lat="37.262475" lon="-7.12152">
        <ele>57.0</ele>
        <time>2020-01-18T08:31:39.167Z</time>
      </trkpt>
      <trkpt lat="37.26243833" lon="-7.121475">
        <ele>57.0</ele>
        <time>2020-01-18T08:31:40.161Z</time>
      </trkpt>
      <trkpt lat="37.26243833" lon="-7.121475">
        <ele>57.0</ele>
        <time>2020-01-18T08:31:41.142Z</time>
      </trkpt>
      <trkpt lat="37.26240333" lon="-7.12142833">
        <ele>58.0</ele>
        <time>2020-01-18T08:31:42.154Z</time>
      </trkpt>
      <trkpt lat="37.26238667" lon="-7.12140667">
        <ele>58.0</ele>
        <time>2020-01-18T08:31:43.146Z</time>
      </trkpt>
      <trkpt lat="37.26238667" lon="-7.12140667">
        <ele>58.0</ele>
        <time>2020-01-18T08:31:44.158Z</time>
      </trkpt>
      <trkpt lat="37.26235833" lon="-7.121345">
        <ele>59.0</ele>
        <time>2020-01-18T08:31:45.152Z</time>
      </trkpt>
      <trkpt lat="37.26235833" lon="-7.121345">
        <ele>59.0</ele>
        <time>2020-01-18T08:31:46.148Z</time>
      </trkpt>
      <trkpt lat="37.26234167" lon="-7.12127333">
        <ele>59.0</ele>
        <time>2020-01-18T08:31:47.135Z</time>
      </trkpt>
      <trkpt lat="37.26233667" lon="-7.12124167">
        <ele>59.0</ele>
        <time>2020-01-18T08:31:48.150Z</time>
      </trkpt>
      <trkpt lat="37.26232833" lon="-7.12121333">
        <ele>58.0</ele>
        <time>2020-01-18T08:31:49.129Z</time>
      </trkpt>
      <trkpt lat="37.26232833" lon="-7.12121333">
        <ele>58.0</ele>
        <time>2020-01-18T08:31:50.146Z</time>
      </trkpt>
      <trkpt lat="37.262295" lon="-7.12116833">
        <ele>58.0</ele>
        <time>2020-01-18T08:31:51.129Z</time>
      </trkpt>
      <trkpt lat="37.26226833" lon="-7.12114333">
        <ele>57.0</ele>
        <time>2020-01-18T08:31:52.162Z</time>
      </trkpt>
      <trkpt lat="37.26226833" lon="-7.12114333">
        <ele>57.0</ele>
        <time>2020-01-18T08:31:53.153Z</time>
      </trkpt>
      <trkpt lat="37.26221" lon="-7.1211">
        <ele>57.0</ele>
        <time>2020-01-18T08:31:54.135Z</time>
      </trkpt>
      <trkpt lat="37.26221" lon="-7.1211">
        <ele>57.0</ele>
        <time>2020-01-18T08:31:55.150Z</time>
      </trkpt>
      <trkpt lat="37.26214333" lon="-7.12105833">
        <ele>56.0</ele>
        <time>2020-01-18T08:31:56.135Z</time>
      </trkpt>
      <trkpt lat="37.26214333" lon="-7.12105833">
        <ele>56.0</ele>
        <time>2020-01-18T08:31:57.150Z</time>
      </trkpt>
      <trkpt lat="37.26206833" lon="-7.12101667">
        <ele>55.0</ele>
        <time>2020-01-18T08:31:58.130Z</time>
      </trkpt>
      <trkpt lat="37.26203333" lon="-7.121">
        <ele>54.0</ele>
        <time>2020-01-18T08:31:59.151Z</time>
      </trkpt>
      <trkpt lat="37.26203333" lon="-7.121">
        <ele>54.0</ele>
        <time>2020-01-18T08:32:00.164Z</time>
      </trkpt>
      <trkpt lat="37.26196667" lon="-7.12097333">
        <ele>53.0</ele>
        <time>2020-01-18T08:32:01.153Z</time>
      </trkpt>
      <trkpt lat="37.26196667" lon="-7.12097333">
        <ele>53.0</ele>
        <time>2020-01-18T08:32:02.165Z</time>
      </trkpt>
      <trkpt lat="37.26191167" lon="-7.12094167">
        <ele>52.0</ele>
        <time>2020-01-18T08:32:03.160Z</time>
      </trkpt>
      <trkpt lat="37.26191167" lon="-7.12094167">
        <ele>52.0</ele>
        <time>2020-01-18T08:32:04.145Z</time>
      </trkpt>
      <trkpt lat="37.261845" lon="-7.12091">
        <ele>51.0</ele>
        <time>2020-01-18T08:32:05.135Z</time>
      </trkpt>
      <trkpt lat="37.261845" lon="-7.12091">
        <ele>51.0</ele>
        <time>2020-01-18T08:32:06.148Z</time>
      </trkpt>
      <trkpt lat="37.26177833" lon="-7.12088167">
        <ele>51.0</ele>
        <time>2020-01-18T08:32:07.135Z</time>
      </trkpt>
      <trkpt lat="37.26177833" lon="-7.12088167">
        <ele>51.0</ele>
        <time>2020-01-18T08:32:08.156Z</time>
      </trkpt>
      <trkpt lat="37.26168833" lon="-7.12088">
        <ele>50.0</ele>
        <time>2020-01-18T08:32:09.152Z</time>
      </trkpt>
      <trkpt lat="37.26164833" lon="-7.120885">
        <ele>50.0</ele>
        <time>2020-01-18T08:32:10.130Z</time>
      </trkpt>
      <trkpt lat="37.26164833" lon="-7.120885">
        <ele>50.0</ele>
        <time>2020-01-18T08:32:11.155Z</time>
      </trkpt>
      <trkpt lat="37.26157667" lon="-7.120885">
        <ele>50.0</ele>
        <time>2020-01-18T08:32:12.151Z</time>
      </trkpt>
      <trkpt lat="37.26153833" lon="-7.12089">
        <ele>50.0</ele>
        <time>2020-01-18T08:32:13.137Z</time>
      </trkpt>
      <trkpt lat="37.26153833" lon="-7.12089">
        <ele>50.0</ele>
        <time>2020-01-18T08:32:14.150Z</time>
      </trkpt>
      <trkpt lat="37.26146833" lon="-7.12090167">
        <ele>50.0</ele>
        <time>2020-01-18T08:32:15.135Z</time>
      </trkpt>
      <trkpt lat="37.26146833" lon="-7.12090167">
        <ele>50.0</ele>
        <time>2020-01-18T08:32:16.148Z</time>
      </trkpt>
      <trkpt lat="37.26140833" lon="-7.12091833">
        <ele>49.0</ele>
        <time>2020-01-18T08:32:17.166Z</time>
      </trkpt>
      <trkpt lat="37.26140833" lon="-7.12091833">
        <ele>49.0</ele>
        <time>2020-01-18T08:32:18.148Z</time>
      </trkpt>
      <trkpt lat="37.261355" lon="-7.12093833">
        <ele>48.0</ele>
        <time>2020-01-18T08:32:19.168Z</time>
      </trkpt>
      <trkpt lat="37.261355" lon="-7.12093833">
        <ele>48.0</ele>
        <time>2020-01-18T08:32:20.148Z</time>
      </trkpt>
      <trkpt lat="37.2613" lon="-7.12096667">
        <ele>47.0</ele>
        <time>2020-01-18T08:32:21.164Z</time>
      </trkpt>
      <trkpt lat="37.2613" lon="-7.12096667">
        <ele>47.0</ele>
        <time>2020-01-18T08:32:22.146Z</time>
      </trkpt>
      <trkpt lat="37.26124" lon="-7.12099333">
        <ele>47.0</ele>
        <time>2020-01-18T08:32:23.134Z</time>
      </trkpt>
      <trkpt lat="37.26120833" lon="-7.121015">
        <ele>47.0</ele>
        <time>2020-01-18T08:32:24.152Z</time>
      </trkpt>
      <trkpt lat="37.26120833" lon="-7.121015">
        <ele>47.0</ele>
        <time>2020-01-18T08:32:25.165Z</time>
      </trkpt>
      <trkpt lat="37.26114333" lon="-7.12107333">
        <ele>46.0</ele>
        <time>2020-01-18T08:32:26.166Z</time>
      </trkpt>
      <trkpt lat="37.26111333" lon="-7.12110167">
        <ele>46.0</ele>
        <time>2020-01-18T08:32:27.152Z</time>
      </trkpt>
      <trkpt lat="37.26108667" lon="-7.12112167">
        <ele>46.0</ele>
        <time>2020-01-18T08:32:28.167Z</time>
      </trkpt>
      <trkpt lat="37.26106167" lon="-7.12113667">
        <ele>46.0</ele>
        <time>2020-01-18T08:32:29.152Z</time>
      </trkpt>
      <trkpt lat="37.26106167" lon="-7.12113667">
        <ele>46.0</ele>
        <time>2020-01-18T08:32:30.164Z</time>
      </trkpt>
      <trkpt lat="37.26101667" lon="-7.12116167">
        <ele>46.0</ele>
        <time>2020-01-18T08:32:31.135Z</time>
      </trkpt>
      <trkpt lat="37.26099167" lon="-7.12117">
        <ele>46.0</ele>
        <time>2020-01-18T08:32:32.162Z</time>
      </trkpt>
      <trkpt lat="37.26099167" lon="-7.12117">
        <ele>46.0</ele>
        <time>2020-01-18T08:32:33.153Z</time>
      </trkpt>
      <trkpt lat="37.260935" lon="-7.12118333">
        <ele>46.0</ele>
        <time>2020-01-18T08:32:34.129Z</time>
      </trkpt>
      <trkpt lat="37.26089833" lon="-7.12119333">
        <ele>46.0</ele>
        <time>2020-01-18T08:32:35.150Z</time>
      </trkpt>
      <trkpt lat="37.26089833" lon="-7.12119333">
        <ele>46.0</ele>
        <time>2020-01-18T08:32:36.163Z</time>
      </trkpt>
      <trkpt lat="37.260835" lon="-7.12121333">
        <ele>45.0</ele>
        <time>2020-01-18T08:32:37.152Z</time>
      </trkpt>
      <trkpt lat="37.260835" lon="-7.12121333">
        <ele>45.0</ele>
        <time>2020-01-18T08:32:38.137Z</time>
      </trkpt>
      <trkpt lat="37.26075" lon="-7.12122833">
        <ele>45.0</ele>
        <time>2020-01-18T08:32:39.153Z</time>
      </trkpt>
      <trkpt lat="37.26070667" lon="-7.121235">
        <ele>44.0</ele>
        <time>2020-01-18T08:32:40.135Z</time>
      </trkpt>
      <trkpt lat="37.26070667" lon="-7.121235">
        <ele>44.0</ele>
        <time>2020-01-18T08:32:41.152Z</time>
      </trkpt>
      <trkpt lat="37.26064" lon="-7.12123333">
        <ele>44.0</ele>
        <time>2020-01-18T08:32:42.168Z</time>
      </trkpt>
      <trkpt lat="37.26060667" lon="-7.121235">
        <ele>44.0</ele>
        <time>2020-01-18T08:32:43.156Z</time>
      </trkpt>
      <trkpt lat="37.260575" lon="-7.121235">
        <ele>43.0</ele>
        <time>2020-01-18T08:32:44.135Z</time>
      </trkpt>
      <trkpt lat="37.26054333" lon="-7.12122667">
        <ele>43.0</ele>
        <time>2020-01-18T08:32:45.158Z</time>
      </trkpt>
      <trkpt lat="37.26054333" lon="-7.12122667">
        <ele>43.0</ele>
        <time>2020-01-18T08:32:46.146Z</time>
      </trkpt>
      <trkpt lat="37.260485" lon="-7.12120833">
        <ele>43.0</ele>
        <time>2020-01-18T08:32:47.131Z</time>
      </trkpt>
      <trkpt lat="37.260455" lon="-7.1212">
        <ele>43.0</ele>
        <time>2020-01-18T08:32:48.151Z</time>
      </trkpt>
      <trkpt lat="37.26042167" lon="-7.12118833">
        <ele>43.0</ele>
        <time>2020-01-18T08:32:49.165Z</time>
      </trkpt>
      <trkpt lat="37.26042167" lon="-7.12118833">
        <ele>43.0</ele>
        <time>2020-01-18T08:32:50.146Z</time>
      </trkpt>
      <trkpt lat="37.26036167" lon="-7.12114833">
        <ele>43.0</ele>
        <time>2020-01-18T08:32:51.167Z</time>
      </trkpt>
      <trkpt lat="37.26036167" lon="-7.12114833">
        <ele>43.0</ele>
        <time>2020-01-18T08:32:52.146Z</time>
      </trkpt>
      <trkpt lat="37.26032833" lon="-7.12110167">
        <ele>43.0</ele>
        <time>2020-01-18T08:32:53.141Z</time>
      </trkpt>
      <trkpt lat="37.26032833" lon="-7.12110167">
        <ele>43.0</ele>
        <time>2020-01-18T08:32:54.151Z</time>
      </trkpt>
      <trkpt lat="37.26031" lon="-7.12105">
        <ele>43.0</ele>
        <time>2020-01-18T08:32:55.135Z</time>
      </trkpt>
      <trkpt lat="37.26031" lon="-7.12105">
        <ele>43.0</ele>
        <time>2020-01-18T08:32:56.149Z</time>
      </trkpt>
      <trkpt lat="37.26026333" lon="-7.120995">
        <ele>42.0</ele>
        <time>2020-01-18T08:32:57.129Z</time>
      </trkpt>
      <trkpt lat="37.26024333" lon="-7.12096833">
        <ele>42.0</ele>
        <time>2020-01-18T08:32:58.154Z</time>
      </trkpt>
      <trkpt lat="37.26024333" lon="-7.12096833">
        <ele>42.0</ele>
        <time>2020-01-18T08:32:59.166Z</time>
      </trkpt>
      <trkpt lat="37.26019833" lon="-7.1209">
        <ele>43.0</ele>
        <time>2020-01-18T08:33:00.162Z</time>
      </trkpt>
      <trkpt lat="37.26019833" lon="-7.1209">
        <ele>43.0</ele>
        <time>2020-01-18T08:33:01.142Z</time>
      </trkpt>
      <trkpt lat="37.26014333" lon="-7.12080667">
        <ele>43.0</ele>
        <time>2020-01-18T08:33:02.155Z</time>
      </trkpt>
      <trkpt lat="37.26011333" lon="-7.12075833">
        <ele>43.0</ele>
        <time>2020-01-18T08:33:03.143Z</time>
      </trkpt>
      <trkpt lat="37.26011333" lon="-7.12075833">
        <ele>43.0</ele>
        <time>2020-01-18T08:33:04.149Z</time>
      </trkpt>
      <trkpt lat="37.260045" lon="-7.12066667">
        <ele>43.0</ele>
        <time>2020-01-18T08:33:05.139Z</time>
      </trkpt>
      <trkpt lat="37.260045" lon="-7.12066667">
        <ele>43.0</ele>
        <time>2020-01-18T08:33:06.151Z</time>
      </trkpt>
      <trkpt lat="37.25998333" lon="-7.12058667">
        <ele>43.0</ele>
        <time>2020-01-18T08:33:07.168Z</time>
      </trkpt>
      <trkpt lat="37.25998333" lon="-7.12058667">
        <ele>43.0</ele>
        <time>2020-01-18T08:33:08.146Z</time>
      </trkpt>
      <trkpt lat="37.25992667" lon="-7.12052333">
        <ele>43.0</ele>
        <time>2020-01-18T08:33:09.129Z</time>
      </trkpt>
      <trkpt lat="37.259895" lon="-7.12049667">
        <ele>43.0</ele>
        <time>2020-01-18T08:33:10.151Z</time>
      </trkpt>
      <trkpt lat="37.259895" lon="-7.12049667">
        <ele>43.0</ele>
        <time>2020-01-18T08:33:11.167Z</time>
      </trkpt>
      <trkpt lat="37.259835" lon="-7.12042">
        <ele>43.0</ele>
        <time>2020-01-18T08:33:12.162Z</time>
      </trkpt>
      <trkpt lat="37.259835" lon="-7.12042">
        <ele>43.0</ele>
        <time>2020-01-18T08:33:13.146Z</time>
      </trkpt>
      <trkpt lat="37.25978167" lon="-7.12033833">
        <ele>44.0</ele>
        <time>2020-01-18T08:33:14.137Z</time>
      </trkpt>
      <trkpt lat="37.25975667" lon="-7.12029833">
        <ele>44.0</ele>
        <time>2020-01-18T08:33:15.152Z</time>
      </trkpt>
      <trkpt lat="37.25975667" lon="-7.12029833">
        <ele>44.0</ele>
        <time>2020-01-18T08:33:16.164Z</time>
      </trkpt>
      <trkpt lat="37.25970167" lon="-7.12022333">
        <ele>44.0</ele>
        <time>2020-01-18T08:33:17.161Z</time>
      </trkpt>
      <trkpt lat="37.25970167" lon="-7.12022333">
        <ele>44.0</ele>
        <time>2020-01-18T08:33:18.165Z</time>
      </trkpt>
      <trkpt lat="37.25966" lon="-7.12014833">
        <ele>45.0</ele>
        <time>2020-01-18T08:33:19.152Z</time>
      </trkpt>
      <trkpt lat="37.25966" lon="-7.12014833">
        <ele>45.0</ele>
        <time>2020-01-18T08:33:20.165Z</time>
      </trkpt>
      <trkpt lat="37.25963167" lon="-7.120075">
        <ele>45.0</ele>
        <time>2020-01-18T08:33:21.152Z</time>
      </trkpt>
      <trkpt lat="37.25963167" lon="-7.120075">
        <ele>45.0</ele>
        <time>2020-01-18T08:33:22.165Z</time>
      </trkpt>
      <trkpt lat="37.25960333" lon="-7.11999333">
        <ele>45.0</ele>
        <time>2020-01-18T08:33:23.155Z</time>
      </trkpt>
      <trkpt lat="37.259585" lon="-7.11995667">
        <ele>45.0</ele>
        <time>2020-01-18T08:33:24.163Z</time>
      </trkpt>
      <trkpt lat="37.259565" lon="-7.119915">
        <ele>45.0</ele>
        <time>2020-01-18T08:33:25.153Z</time>
      </trkpt>
      <trkpt lat="37.259565" lon="-7.119915">
        <ele>45.0</ele>
        <time>2020-01-18T08:33:26.165Z</time>
      </trkpt>
      <trkpt lat="37.25951833" lon="-7.119845">
        <ele>45.0</ele>
        <time>2020-01-18T08:33:27.156Z</time>
      </trkpt>
      <trkpt lat="37.25951833" lon="-7.119845">
        <ele>45.0</ele>
        <time>2020-01-18T08:33:28.131Z</time>
      </trkpt>
      <trkpt lat="37.25947667" lon="-7.11978167">
        <ele>45.0</ele>
        <time>2020-01-18T08:33:29.152Z</time>
      </trkpt>
      <trkpt lat="37.25947667" lon="-7.11978167">
        <ele>45.0</ele>
        <time>2020-01-18T08:33:30.165Z</time>
      </trkpt>
      <trkpt lat="37.259435" lon="-7.11973167">
        <ele>46.0</ele>
        <time>2020-01-18T08:33:31.159Z</time>
      </trkpt>
      <trkpt lat="37.259435" lon="-7.11973167">
        <ele>46.0</ele>
        <time>2020-01-18T08:33:32.146Z</time>
      </trkpt>
      <trkpt lat="37.25939833" lon="-7.11969167">
        <ele>46.0</ele>
        <time>2020-01-18T08:33:33.129Z</time>
      </trkpt>
      <trkpt lat="37.25939833" lon="-7.11969167">
        <ele>46.0</ele>
        <time>2020-01-18T08:33:34.148Z</time>
      </trkpt>
      <trkpt lat="37.259355" lon="-7.11965833">
        <ele>46.0</ele>
        <time>2020-01-18T08:33:35.130Z</time>
      </trkpt>
      <trkpt lat="37.25933333" lon="-7.11964167">
        <ele>46.0</ele>
        <time>2020-01-18T08:33:36.152Z</time>
      </trkpt>
      <trkpt lat="37.25933333" lon="-7.11964167">
        <ele>46.0</ele>
        <time>2020-01-18T08:33:37.165Z</time>
      </trkpt>
      <trkpt lat="37.25928333" lon="-7.1196">
        <ele>46.0</ele>
        <time>2020-01-18T08:33:38.153Z</time>
      </trkpt>
      <trkpt lat="37.25925333" lon="-7.11957">
        <ele>46.0</ele>
        <time>2020-01-18T08:33:39.135Z</time>
      </trkpt>
      <trkpt lat="37.25925333" lon="-7.11957">
        <ele>46.0</ele>
        <time>2020-01-18T08:33:40.149Z</time>
      </trkpt>
      <trkpt lat="37.259205" lon="-7.11954">
        <ele>46.0</ele>
        <time>2020-01-18T08:33:41.135Z</time>
      </trkpt>
      <trkpt lat="37.259205" lon="-7.11954">
        <ele>46.0</ele>
        <time>2020-01-18T08:33:42.148Z</time>
      </trkpt>
      <trkpt lat="37.259165" lon="-7.11952167">
        <ele>47.0</ele>
        <time>2020-01-18T08:33:43.135Z</time>
      </trkpt>
      <trkpt lat="37.259165" lon="-7.11952167">
        <ele>47.0</ele>
        <time>2020-01-18T08:33:44.152Z</time>
      </trkpt>
      <trkpt lat="37.25913833" lon="-7.1195">
        <ele>47.0</ele>
        <time>2020-01-18T08:33:45.135Z</time>
      </trkpt>
      <trkpt lat="37.25913833" lon="-7.1195">
        <ele>47.0</ele>
        <time>2020-01-18T08:33:46.150Z</time>
      </trkpt>
      <trkpt lat="37.259115" lon="-7.119495">
        <ele>47.0</ele>
        <time>2020-01-18T08:33:47.130Z</time>
      </trkpt>
      <trkpt lat="37.259115" lon="-7.119495">
        <ele>47.0</ele>
        <time>2020-01-18T08:33:48.146Z</time>
      </trkpt>
      <trkpt lat="37.25893167" lon="-7.119435">
        <ele>45.0</ele>
        <time>2020-01-18T08:33:49.143Z</time>
      </trkpt>
      <trkpt lat="37.25893167" lon="-7.119435">
        <ele>45.0</ele>
        <time>2020-01-18T08:33:50.149Z</time>
      </trkpt>
      <trkpt lat="37.25892667" lon="-7.11941833">
        <ele>45.0</ele>
        <time>2020-01-18T08:33:51.165Z</time>
      </trkpt>
      <trkpt lat="37.25892333" lon="-7.119415">
        <ele>45.0</ele>
        <time>2020-01-18T08:33:52.159Z</time>
      </trkpt>
      <trkpt lat="37.25892333" lon="-7.119415">
        <ele>45.0</ele>
        <time>2020-01-18T08:33:53.144Z</time>
      </trkpt>
      <trkpt lat="37.25891167" lon="-7.11941">
        <ele>45.0</ele>
        <time>2020-01-18T08:33:54.167Z</time>
      </trkpt>
      <trkpt lat="37.25891167" lon="-7.11941">
        <ele>45.0</ele>
        <time>2020-01-18T08:33:55.144Z</time>
      </trkpt>
      <trkpt lat="37.2589" lon="-7.11940667">
        <ele>46.0</ele>
        <time>2020-01-18T08:33:56.168Z</time>
      </trkpt>
      <trkpt lat="37.2589" lon="-7.11940667">
        <ele>46.0</ele>
        <time>2020-01-18T08:33:57.148Z</time>
      </trkpt>
      <trkpt lat="37.25889667" lon="-7.11941">
        <ele>46.0</ele>
        <time>2020-01-18T08:33:58.165Z</time>
      </trkpt>
      <trkpt lat="37.25889" lon="-7.119405">
        <ele>46.0</ele>
        <time>2020-01-18T08:33:59.150Z</time>
      </trkpt>
      <trkpt lat="37.25888333" lon="-7.119405">
        <ele>46.0</ele>
        <time>2020-01-18T08:34:00.134Z</time>
      </trkpt>
      <trkpt lat="37.25888333" lon="-7.119405">
        <ele>46.0</ele>
        <time>2020-01-18T08:34:01.147Z</time>
      </trkpt>
      <trkpt lat="37.25886833" lon="-7.11939667">
        <ele>47.0</ele>
        <time>2020-01-18T08:34:02.167Z</time>
      </trkpt>
      <trkpt lat="37.25886" lon="-7.11939333">
        <ele>47.0</ele>
        <time>2020-01-18T08:34:03.161Z</time>
      </trkpt>
      <trkpt lat="37.25886" lon="-7.11939333">
        <ele>47.0</ele>
        <time>2020-01-18T08:34:04.146Z</time>
      </trkpt>
      <trkpt lat="37.25884667" lon="-7.119385">
        <ele>47.0</ele>
        <time>2020-01-18T08:34:05.140Z</time>
      </trkpt>
      <trkpt lat="37.25884667" lon="-7.119385">
        <ele>47.0</ele>
        <time>2020-01-18T08:34:06.153Z</time>
      </trkpt>
      <trkpt lat="37.25883667" lon="-7.11937333">
        <ele>47.0</ele>
        <time>2020-01-18T08:34:07.149Z</time>
      </trkpt>
      <trkpt lat="37.25883167" lon="-7.11937">
        <ele>48.0</ele>
        <time>2020-01-18T08:34:08.142Z</time>
      </trkpt>
      <trkpt lat="37.25883167" lon="-7.11937">
        <ele>48.0</ele>
        <time>2020-01-18T08:34:09.155Z</time>
      </trkpt>
      <trkpt lat="37.25882" lon="-7.11935333">
        <ele>48.0</ele>
        <time>2020-01-18T08:34:10.151Z</time>
      </trkpt>
      <trkpt lat="37.25882" lon="-7.11935333">
        <ele>48.0</ele>
        <time>2020-01-18T08:34:11.163Z</time>
      </trkpt>
      <trkpt lat="37.25881" lon="-7.11933167">
        <ele>48.0</ele>
        <time>2020-01-18T08:34:12.151Z</time>
      </trkpt>
      <trkpt lat="37.25881" lon="-7.11933167">
        <ele>48.0</ele>
        <time>2020-01-18T08:34:13.132Z</time>
      </trkpt>
      <trkpt lat="37.25881" lon="-7.11931167">
        <ele>48.0</ele>
        <time>2020-01-18T08:34:14.150Z</time>
      </trkpt>
      <trkpt lat="37.25881" lon="-7.11931167">
        <ele>48.0</ele>
        <time>2020-01-18T08:34:15.163Z</time>
      </trkpt>
      <trkpt lat="37.258805" lon="-7.11929833">
        <ele>48.0</ele>
        <time>2020-01-18T08:34:16.149Z</time>
      </trkpt>
      <trkpt lat="37.25880333" lon="-7.11929">
        <ele>48.0</ele>
        <time>2020-01-18T08:34:17.133Z</time>
      </trkpt>
      <trkpt lat="37.25880333" lon="-7.11929">
        <ele>48.0</ele>
        <time>2020-01-18T08:34:18.152Z</time>
      </trkpt>
      <trkpt lat="37.258795" lon="-7.11927167">
        <ele>49.0</ele>
        <time>2020-01-18T08:34:19.139Z</time>
      </trkpt>
      <trkpt lat="37.258795" lon="-7.11927167">
        <ele>49.0</ele>
        <time>2020-01-18T08:34:20.152Z</time>
      </trkpt>
      <trkpt lat="37.25878167" lon="-7.119255">
        <ele>49.0</ele>
        <time>2020-01-18T08:34:21.167Z</time>
      </trkpt>
      <trkpt lat="37.25878167" lon="-7.119255">
        <ele>49.0</ele>
        <time>2020-01-18T08:34:22.140Z</time>
      </trkpt>
      <trkpt lat="37.25876833" lon="-7.119245">
        <ele>49.0</ele>
        <time>2020-01-18T08:34:23.166Z</time>
      </trkpt>
      <trkpt lat="37.25876333" lon="-7.11923833">
        <ele>49.0</ele>
        <time>2020-01-18T08:34:24.158Z</time>
      </trkpt>
      <trkpt lat="37.25876333" lon="-7.11923833">
        <ele>49.0</ele>
        <time>2020-01-18T08:34:25.147Z</time>
      </trkpt>
      <trkpt lat="37.25875333" lon="-7.11922333">
        <ele>49.0</ele>
        <time>2020-01-18T08:34:26.133Z</time>
      </trkpt>
      <trkpt lat="37.25875333" lon="-7.11922333">
        <ele>49.0</ele>
        <time>2020-01-18T08:34:27.147Z</time>
      </trkpt>
      <trkpt lat="37.25874667" lon="-7.11920833">
        <ele>49.0</ele>
        <time>2020-01-18T08:34:28.164Z</time>
      </trkpt>
      <trkpt lat="37.25873833" lon="-7.11919833">
        <ele>49.0</ele>
        <time>2020-01-18T08:34:29.151Z</time>
      </trkpt>
      <trkpt lat="37.25873833" lon="-7.11919833">
        <ele>49.0</ele>
        <time>2020-01-18T08:34:30.150Z</time>
      </trkpt>
      <trkpt lat="37.25873" lon="-7.11918167">
        <ele>50.0</ele>
        <time>2020-01-18T08:34:31.151Z</time>
      </trkpt>
      <trkpt lat="37.25873" lon="-7.11918167">
        <ele>50.0</ele>
        <time>2020-01-18T08:34:32.165Z</time>
      </trkpt>
      <trkpt lat="37.258725" lon="-7.119165">
        <ele>50.0</ele>
        <time>2020-01-18T08:34:33.156Z</time>
      </trkpt>
      <trkpt lat="37.25871833" lon="-7.119155">
        <ele>50.0</ele>
        <time>2020-01-18T08:34:34.150Z</time>
      </trkpt>
      <trkpt lat="37.25871833" lon="-7.119155">
        <ele>50.0</ele>
        <time>2020-01-18T08:34:35.164Z</time>
      </trkpt>
      <trkpt lat="37.25870333" lon="-7.11914333">
        <ele>50.0</ele>
        <time>2020-01-18T08:34:36.162Z</time>
      </trkpt>
      <trkpt lat="37.2587" lon="-7.119135">
        <ele>50.0</ele>
        <time>2020-01-18T08:34:37.150Z</time>
      </trkpt>
      <trkpt lat="37.2587" lon="-7.119135">
        <ele>50.0</ele>
        <time>2020-01-18T08:34:38.162Z</time>
      </trkpt>
      <trkpt lat="37.25869167" lon="-7.11912">
        <ele>50.0</ele>
        <time>2020-01-18T08:34:39.148Z</time>
      </trkpt>
      <trkpt lat="37.25868667" lon="-7.11912">
        <ele>51.0</ele>
        <time>2020-01-18T08:34:40.133Z</time>
      </trkpt>
      <trkpt lat="37.25868667" lon="-7.11912">
        <ele>51.0</ele>
        <time>2020-01-18T08:34:41.147Z</time>
      </trkpt>
      <trkpt lat="37.25868333" lon="-7.11911">
        <ele>51.0</ele>
        <time>2020-01-18T08:34:42.134Z</time>
      </trkpt>
      <trkpt lat="37.25868333" lon="-7.11911">
        <ele>51.0</ele>
        <time>2020-01-18T08:34:43.147Z</time>
      </trkpt>
      <trkpt lat="37.258685" lon="-7.11909667">
        <ele>51.0</ele>
        <time>2020-01-18T08:34:44.166Z</time>
      </trkpt>
      <trkpt lat="37.25868333" lon="-7.11909333">
        <ele>52.0</ele>
        <time>2020-01-18T08:34:45.150Z</time>
      </trkpt>
      <trkpt lat="37.25868333" lon="-7.11909333">
        <ele>52.0</ele>
        <time>2020-01-18T08:34:46.162Z</time>
      </trkpt>
      <trkpt lat="37.25867833" lon="-7.11908333">
        <ele>52.0</ele>
        <time>2020-01-18T08:34:47.149Z</time>
      </trkpt>
      <trkpt lat="37.25867167" lon="-7.11908">
        <ele>52.0</ele>
        <time>2020-01-18T08:34:48.161Z</time>
      </trkpt>
      <trkpt lat="37.25867167" lon="-7.11908">
        <ele>52.0</ele>
        <time>2020-01-18T08:34:49.144Z</time>
      </trkpt>
      <trkpt lat="37.25866" lon="-7.11907">
        <ele>52.0</ele>
        <time>2020-01-18T08:34:50.158Z</time>
      </trkpt>
      <trkpt lat="37.25866" lon="-7.11907">
        <ele>52.0</ele>
        <time>2020-01-18T08:34:51.144Z</time>
      </trkpt>
      <trkpt lat="37.25865667" lon="-7.119055">
        <ele>53.0</ele>
        <time>2020-01-18T08:34:52.169Z</time>
      </trkpt>
      <trkpt lat="37.25865667" lon="-7.119055">
        <ele>53.0</ele>
        <time>2020-01-18T08:34:53.144Z</time>
      </trkpt>
      <trkpt lat="37.25864333" lon="-7.11903667">
        <ele>53.0</ele>
        <time>2020-01-18T08:34:54.166Z</time>
      </trkpt>
      <trkpt lat="37.25864" lon="-7.11903">
        <ele>53.0</ele>
        <time>2020-01-18T08:34:55.150Z</time>
      </trkpt>
      <trkpt lat="37.25864" lon="-7.11903">
        <ele>53.0</ele>
        <time>2020-01-18T08:34:56.162Z</time>
      </trkpt>
      <trkpt lat="37.25863167" lon="-7.11901667">
        <ele>53.0</ele>
        <time>2020-01-18T08:34:57.149Z</time>
      </trkpt>
      <trkpt lat="37.25863167" lon="-7.11901667">
        <ele>53.0</ele>
        <time>2020-01-18T08:34:58.162Z</time>
      </trkpt>
      <trkpt lat="37.25861333" lon="-7.11900333">
        <ele>53.0</ele>
        <time>2020-01-18T08:34:59.149Z</time>
      </trkpt>
      <trkpt lat="37.25861333" lon="-7.11900333">
        <ele>53.0</ele>
        <time>2020-01-18T08:35:00.161Z</time>
      </trkpt>
      <trkpt lat="37.258595" lon="-7.119">
        <ele>53.0</ele>
        <time>2020-01-18T08:35:01.149Z</time>
      </trkpt>
      <trkpt lat="37.258595" lon="-7.119">
        <ele>53.0</ele>
        <time>2020-01-18T08:35:02.134Z</time>
      </trkpt>
      <trkpt lat="37.258595" lon="-7.11899">
        <ele>53.0</ele>
        <time>2020-01-18T08:35:03.149Z</time>
      </trkpt>
      <trkpt lat="37.258595" lon="-7.11899">
        <ele>53.0</ele>
        <time>2020-01-18T08:35:04.161Z</time>
      </trkpt>
      <trkpt lat="37.25857667" lon="-7.11898333">
        <ele>53.0</ele>
        <time>2020-01-18T08:35:05.153Z</time>
      </trkpt>
      <trkpt lat="37.25857167" lon="-7.11898">
        <ele>53.0</ele>
        <time>2020-01-18T08:35:06.146Z</time>
      </trkpt>
      <trkpt lat="37.25857167" lon="-7.11898">
        <ele>53.0</ele>
        <time>2020-01-18T08:35:07.158Z</time>
      </trkpt>
      <trkpt lat="37.25857" lon="-7.11897833">
        <ele>53.0</ele>
        <time>2020-01-18T08:35:08.158Z</time>
      </trkpt>
      <trkpt lat="37.25857" lon="-7.11897833">
        <ele>53.0</ele>
        <time>2020-01-18T08:35:09.144Z</time>
      </trkpt>
      <trkpt lat="37.25857" lon="-7.11897833">
        <ele>53.0</ele>
        <time>2020-01-18T08:35:10.157Z</time>
      </trkpt>
      <trkpt lat="37.25857" lon="-7.11897833">
        <ele>53.0</ele>
        <time>2020-01-18T08:35:11.147Z</time>
      </trkpt>
      <trkpt lat="37.25857" lon="-7.11897833">
        <ele>53.0</ele>
        <time>2020-01-18T08:35:12.159Z</time>
      </trkpt>
      <trkpt lat="37.25857" lon="-7.11897833">
        <ele>53.0</ele>
        <time>2020-01-18T08:35:13.146Z</time>
      </trkpt>
      <trkpt lat="37.25857" lon="-7.11897833">
        <ele>53.0</ele>
        <time>2020-01-18T08:35:14.161Z</time>
      </trkpt>
      <trkpt lat="37.25857" lon="-7.11897833">
        <ele>53.0</ele>
        <time>2020-01-18T08:35:15.152Z</time>
      </trkpt>
      <trkpt lat="37.25857" lon="-7.11897833">
        <ele>53.0</ele>
        <time>2020-01-18T08:35:16.165Z</time>
      </trkpt>
      <trkpt lat="37.25857" lon="-7.11897833">
        <ele>53.0</ele>
        <time>2020-01-18T08:35:17.149Z</time>
      </trkpt>
      <trkpt lat="37.25857" lon="-7.11897833">
        <ele>53.0</ele>
        <time>2020-01-18T08:35:18.162Z</time>
      </trkpt>
      <trkpt lat="37.25857" lon="-7.11897833">
        <ele>53.0</ele>
        <time>2020-01-18T08:35:19.146Z</time>
      </trkpt>
      <trkpt lat="37.25857" lon="-7.11897833">
        <ele>53.0</ele>
        <time>2020-01-18T08:35:20.160Z</time>
      </trkpt>
      <trkpt lat="37.25857" lon="-7.11897833">
        <ele>53.0</ele>
        <time>2020-01-18T08:35:21.150Z</time>
      </trkpt>
      <trkpt lat="37.25857" lon="-7.11897833">
        <ele>53.0</ele>
        <time>2020-01-18T08:35:22.162Z</time>
      </trkpt>
      <trkpt lat="37.25857" lon="-7.11897833">
        <ele>53.0</ele>
        <time>2020-01-18T08:35:23.150Z</time>
      </trkpt>
      <trkpt lat="37.25857" lon="-7.11897833">
        <ele>53.0</ele>
        <time>2020-01-18T08:35:24.164Z</time>
      </trkpt>
      <trkpt lat="37.25857" lon="-7.11897833">
        <ele>53.0</ele>
        <time>2020-01-18T08:35:25.145Z</time>
      </trkpt>
      <trkpt lat="37.25857" lon="-7.11897833">
        <ele>53.0</ele>
        <time>2020-01-18T08:35:26.157Z</time>
      </trkpt>
      <trkpt lat="37.25857" lon="-7.11897833">
        <ele>53.0</ele>
        <time>2020-01-18T08:35:27.146Z</time>
      </trkpt>
      <trkpt lat="37.25857" lon="-7.11897833">
        <ele>53.0</ele>
        <time>2020-01-18T08:35:28.161Z</time>
      </trkpt>
      <trkpt lat="37.25857" lon="-7.11897833">
        <ele>53.0</ele>
        <time>2020-01-18T08:35:29.149Z</time>
      </trkpt>
      <trkpt lat="37.25857" lon="-7.11897833">
        <ele>53.0</ele>
        <time>2020-01-18T08:35:30.162Z</time>
      </trkpt>
      <trkpt lat="37.25854333" lon="-7.11894333">
        <ele>54.0</ele>
        <time>2020-01-18T08:35:31.165Z</time>
      </trkpt>
      <trkpt lat="37.25853833" lon="-7.11894">
        <ele>54.0</ele>
        <time>2020-01-18T08:35:32.150Z</time>
      </trkpt>
      <trkpt lat="37.25853833" lon="-7.11894">
        <ele>54.0</ele>
        <time>2020-01-18T08:35:33.160Z</time>
      </trkpt>
      <trkpt lat="37.258535" lon="-7.11893833">
        <ele>54.0</ele>
        <time>2020-01-18T08:35:34.149Z</time>
      </trkpt>
      <trkpt lat="37.25853333" lon="-7.11893833">
        <ele>54.0</ele>
        <time>2020-01-18T08:35:35.166Z</time>
      </trkpt>
      <trkpt lat="37.25853333" lon="-7.11893833">
        <ele>54.0</ele>
        <time>2020-01-18T08:35:36.156Z</time>
      </trkpt>
      <trkpt lat="37.25853333" lon="-7.11893833">
        <ele>54.0</ele>
        <time>2020-01-18T08:35:37.149Z</time>
      </trkpt>
      <trkpt lat="37.25853333" lon="-7.11893833">
        <ele>54.0</ele>
        <time>2020-01-18T08:35:38.162Z</time>
      </trkpt>
      <trkpt lat="37.25853333" lon="-7.11893833">
        <ele>54.0</ele>
        <time>2020-01-18T08:35:39.146Z</time>
      </trkpt>
      <trkpt lat="37.25853333" lon="-7.11893833">
        <ele>54.0</ele>
        <time>2020-01-18T08:35:40.166Z</time>
      </trkpt>
      <trkpt lat="37.25853333" lon="-7.11893833">
        <ele>54.0</ele>
        <time>2020-01-18T08:35:41.146Z</time>
      </trkpt>
      <trkpt lat="37.25853333" lon="-7.11893833">
        <ele>54.0</ele>
        <time>2020-01-18T08:35:42.158Z</time>
      </trkpt>
      <trkpt lat="37.25853333" lon="-7.11893833">
        <ele>54.0</ele>
        <time>2020-01-18T08:35:43.146Z</time>
      </trkpt>
      <trkpt lat="37.25853333" lon="-7.11893833">
        <ele>54.0</ele>
        <time>2020-01-18T08:35:44.158Z</time>
      </trkpt>
      <trkpt lat="37.25853333" lon="-7.11893833">
        <ele>54.0</ele>
        <time>2020-01-18T08:35:45.146Z</time>
      </trkpt>
      <trkpt lat="37.25853333" lon="-7.11893833">
        <ele>54.0</ele>
        <time>2020-01-18T08:35:46.158Z</time>
      </trkpt>
      <trkpt lat="37.25853333" lon="-7.11893833">
        <ele>54.0</ele>
        <time>2020-01-18T08:35:47.150Z</time>
      </trkpt>
      <trkpt lat="37.25853333" lon="-7.11893833">
        <ele>54.0</ele>
        <time>2020-01-18T08:35:48.162Z</time>
      </trkpt>
      <trkpt lat="37.25853333" lon="-7.11893833">
        <ele>54.0</ele>
        <time>2020-01-18T08:35:49.150Z</time>
      </trkpt>
      <trkpt lat="37.25853333" lon="-7.11893833">
        <ele>54.0</ele>
        <time>2020-01-18T08:35:50.162Z</time>
      </trkpt>
      <trkpt lat="37.25853333" lon="-7.11893833">
        <ele>54.0</ele>
        <time>2020-01-18T08:35:51.143Z</time>
      </trkpt>
      <trkpt lat="37.25853333" lon="-7.11893833">
        <ele>54.0</ele>
        <time>2020-01-18T08:35:52.157Z</time>
      </trkpt>
      <trkpt lat="37.25853333" lon="-7.11893833">
        <ele>54.0</ele>
        <time>2020-01-18T08:35:53.131Z</time>
      </trkpt>
      <trkpt lat="37.25853333" lon="-7.11893833">
        <ele>54.0</ele>
        <time>2020-01-18T08:35:54.149Z</time>
      </trkpt>
      <trkpt lat="37.25853333" lon="-7.11893833">
        <ele>54.0</ele>
        <time>2020-01-18T08:35:55.161Z</time>
      </trkpt>
      <trkpt lat="37.25853333" lon="-7.11893833">
        <ele>54.0</ele>
        <time>2020-01-18T08:35:56.150Z</time>
      </trkpt>
      <trkpt lat="37.25853333" lon="-7.11893833">
        <ele>54.0</ele>
        <time>2020-01-18T08:35:57.162Z</time>
      </trkpt>
      <trkpt lat="37.25853333" lon="-7.11893833">
        <ele>54.0</ele>
        <time>2020-01-18T08:35:58.149Z</time>
      </trkpt>
      <trkpt lat="37.25853333" lon="-7.11893833">
        <ele>54.0</ele>
        <time>2020-01-18T08:35:59.163Z</time>
      </trkpt>
      <trkpt lat="37.258515" lon="-7.118935">
        <ele>52.0</ele>
        <time>2020-01-18T08:36:00.150Z</time>
      </trkpt>
      <trkpt lat="37.258515" lon="-7.118935">
        <ele>52.0</ele>
        <time>2020-01-18T08:36:01.162Z</time>
      </trkpt>
      <trkpt lat="37.258465" lon="-7.118925">
        <ele>52.0</ele>
        <time>2020-01-18T08:36:02.150Z</time>
      </trkpt>
      <trkpt lat="37.258465" lon="-7.118925">
        <ele>52.0</ele>
        <time>2020-01-18T08:36:03.163Z</time>
      </trkpt>
      <trkpt lat="37.258365" lon="-7.11889">
        <ele>52.0</ele>
        <time>2020-01-18T08:36:04.147Z</time>
      </trkpt>
      <trkpt lat="37.25831" lon="-7.11887167">
        <ele>52.0</ele>
        <time>2020-01-18T08:36:05.157Z</time>
      </trkpt>
      <trkpt lat="37.25831" lon="-7.11887167">
        <ele>52.0</ele>
        <time>2020-01-18T08:36:06.163Z</time>
      </trkpt>
      <trkpt lat="37.25818667" lon="-7.11883">
        <ele>52.0</ele>
        <time>2020-01-18T08:36:07.129Z</time>
      </trkpt>
      <trkpt lat="37.25818667" lon="-7.11883">
        <ele>52.0</ele>
        <time>2020-01-18T08:36:08.137Z</time>
      </trkpt>
      <trkpt lat="37.25811333" lon="-7.11880167">
        <ele>52.0</ele>
        <time>2020-01-18T08:36:09.149Z</time>
      </trkpt>
      <trkpt lat="37.25811333" lon="-7.11880167">
        <ele>52.0</ele>
        <time>2020-01-18T08:36:10.137Z</time>
      </trkpt>
      <trkpt lat="37.25808" lon="-7.118795">
        <ele>52.0</ele>
        <time>2020-01-18T08:36:11.153Z</time>
      </trkpt>
      <trkpt lat="37.25807" lon="-7.11879333">
        <ele>52.0</ele>
        <time>2020-01-18T08:36:12.147Z</time>
      </trkpt>
      <trkpt lat="37.25807" lon="-7.11879333">
        <ele>52.0</ele>
        <time>2020-01-18T08:36:13.160Z</time>
      </trkpt>
      <trkpt lat="37.25804333" lon="-7.11878167">
        <ele>52.0</ele>
        <time>2020-01-18T08:36:14.150Z</time>
      </trkpt>
      <trkpt lat="37.25804333" lon="-7.11878167">
        <ele>52.0</ele>
        <time>2020-01-18T08:36:15.163Z</time>
      </trkpt>
      <trkpt lat="37.258035" lon="-7.11877333">
        <ele>52.0</ele>
        <time>2020-01-18T08:36:16.158Z</time>
      </trkpt>
      <trkpt lat="37.258035" lon="-7.11877333">
        <ele>52.0</ele>
        <time>2020-01-18T08:36:17.146Z</time>
      </trkpt>
      <trkpt lat="37.258035" lon="-7.11876833">
        <ele>52.0</ele>
        <time>2020-01-18T08:36:18.158Z</time>
      </trkpt>
      <trkpt lat="37.25802833" lon="-7.11875833">
        <ele>52.0</ele>
        <time>2020-01-18T08:36:19.136Z</time>
      </trkpt>
      <trkpt lat="37.25769" lon="-7.118495">
        <ele>53.0</ele>
        <time>2020-01-18T08:36:20.146Z</time>
      </trkpt>
      <trkpt lat="37.25765833" lon="-7.11849167">
        <ele>53.0</ele>
        <time>2020-01-18T08:36:21.159Z</time>
      </trkpt>
      <trkpt lat="37.25765833" lon="-7.11849167">
        <ele>53.0</ele>
        <time>2020-01-18T08:36:22.151Z</time>
      </trkpt>
      <trkpt lat="37.25758" lon="-7.11847833">
        <ele>52.0</ele>
        <time>2020-01-18T08:36:23.141Z</time>
      </trkpt>
      <trkpt lat="37.25758" lon="-7.11847833">
        <ele>52.0</ele>
        <time>2020-01-18T08:36:24.154Z</time>
      </trkpt>
      <trkpt lat="37.25749" lon="-7.11845333">
        <ele>52.0</ele>
        <time>2020-01-18T08:36:25.140Z</time>
      </trkpt>
      <trkpt lat="37.257445" lon="-7.11844167">
        <ele>52.0</ele>
        <time>2020-01-18T08:36:26.153Z</time>
      </trkpt>
      <trkpt lat="37.257445" lon="-7.11844167">
        <ele>52.0</ele>
        <time>2020-01-18T08:36:27.143Z</time>
      </trkpt>
      <trkpt lat="37.25736167" lon="-7.11841333">
        <ele>52.0</ele>
        <time>2020-01-18T08:36:28.136Z</time>
      </trkpt>
      <trkpt lat="37.25736167" lon="-7.11841333">
        <ele>52.0</ele>
        <time>2020-01-18T08:36:29.149Z</time>
      </trkpt>
      <trkpt lat="37.25728667" lon="-7.11838667">
        <ele>52.0</ele>
        <time>2020-01-18T08:36:30.140Z</time>
      </trkpt>
      <trkpt lat="37.25726" lon="-7.11837667">
        <ele>51.0</ele>
        <time>2020-01-18T08:36:31.141Z</time>
      </trkpt>
      <trkpt lat="37.25726" lon="-7.11837667">
        <ele>51.0</ele>
        <time>2020-01-18T08:36:32.154Z</time>
      </trkpt>
      <trkpt lat="37.25722833" lon="-7.11835833">
        <ele>51.0</ele>
        <time>2020-01-18T08:36:33.139Z</time>
      </trkpt>
      <trkpt lat="37.25721167" lon="-7.118355">
        <ele>51.0</ele>
        <time>2020-01-18T08:36:34.163Z</time>
      </trkpt>
      <trkpt lat="37.25721167" lon="-7.118355">
        <ele>51.0</ele>
        <time>2020-01-18T08:36:35.136Z</time>
      </trkpt>
      <trkpt lat="37.25717333" lon="-7.11835">
        <ele>50.0</ele>
        <time>2020-01-18T08:36:36.161Z</time>
      </trkpt>
      <trkpt lat="37.25717333" lon="-7.11835">
        <ele>50.0</ele>
        <time>2020-01-18T08:36:37.136Z</time>
      </trkpt>
      <trkpt lat="37.25711667" lon="-7.11834">
        <ele>50.0</ele>
        <time>2020-01-18T08:36:38.129Z</time>
      </trkpt>
      <trkpt lat="37.25711667" lon="-7.11834">
        <ele>50.0</ele>
        <time>2020-01-18T08:36:39.143Z</time>
      </trkpt>
      <trkpt lat="37.25703833" lon="-7.11830667">
        <ele>49.0</ele>
        <time>2020-01-18T08:36:40.161Z</time>
      </trkpt>
      <trkpt lat="37.25699667" lon="-7.11828333">
        <ele>48.0</ele>
        <time>2020-01-18T08:36:41.140Z</time>
      </trkpt>
      <trkpt lat="37.25699667" lon="-7.11828333">
        <ele>48.0</ele>
        <time>2020-01-18T08:36:42.153Z</time>
      </trkpt>
      <trkpt lat="37.25692667" lon="-7.118255">
        <ele>48.0</ele>
        <time>2020-01-18T08:36:43.148Z</time>
      </trkpt>
      <trkpt lat="37.25689167" lon="-7.11824833">
        <ele>47.0</ele>
        <time>2020-01-18T08:36:44.140Z</time>
      </trkpt>
      <trkpt lat="37.25689167" lon="-7.11824833">
        <ele>47.0</ele>
        <time>2020-01-18T08:36:45.152Z</time>
      </trkpt>
      <trkpt lat="37.25682167" lon="-7.11821">
        <ele>46.0</ele>
        <time>2020-01-18T08:36:46.145Z</time>
      </trkpt>
      <trkpt lat="37.25682167" lon="-7.11821">
        <ele>46.0</ele>
        <time>2020-01-18T08:36:47.137Z</time>
      </trkpt>
      <trkpt lat="37.256725" lon="-7.11815">
        <ele>45.0</ele>
        <time>2020-01-18T08:36:48.163Z</time>
      </trkpt>
      <trkpt lat="37.256725" lon="-7.11815">
        <ele>45.0</ele>
        <time>2020-01-18T08:36:49.137Z</time>
      </trkpt>
      <trkpt lat="37.25662333" lon="-7.118075">
        <ele>44.0</ele>
        <time>2020-01-18T08:36:50.157Z</time>
      </trkpt>
      <trkpt lat="37.25662333" lon="-7.118075">
        <ele>44.0</ele>
        <time>2020-01-18T08:36:51.134Z</time>
      </trkpt>
      <trkpt lat="37.25652" lon="-7.11798333">
        <ele>42.0</ele>
        <time>2020-01-18T08:36:52.157Z</time>
      </trkpt>
      <trkpt lat="37.25646833" lon="-7.117935">
        <ele>42.0</ele>
        <time>2020-01-18T08:36:53.140Z</time>
      </trkpt>
      <trkpt lat="37.25646833" lon="-7.117935">
        <ele>42.0</ele>
        <time>2020-01-18T08:36:54.152Z</time>
      </trkpt>
      <trkpt lat="37.25636833" lon="-7.11783167">
        <ele>41.0</ele>
        <time>2020-01-18T08:36:55.140Z</time>
      </trkpt>
      <trkpt lat="37.25631833" lon="-7.117775">
        <ele>40.0</ele>
        <time>2020-01-18T08:36:56.158Z</time>
      </trkpt>
      <trkpt lat="37.25631833" lon="-7.117775">
        <ele>40.0</ele>
        <time>2020-01-18T08:36:57.137Z</time>
      </trkpt>
      <trkpt lat="37.25622" lon="-7.11765833">
        <ele>40.0</ele>
        <time>2020-01-18T08:36:58.156Z</time>
      </trkpt>
      <trkpt lat="37.25622" lon="-7.11765833">
        <ele>40.0</ele>
        <time>2020-01-18T08:36:59.134Z</time>
      </trkpt>
      <trkpt lat="37.25612833" lon="-7.11754167">
        <ele>39.0</ele>
        <time>2020-01-18T08:37:00.162Z</time>
      </trkpt>
      <trkpt lat="37.25612833" lon="-7.11754167">
        <ele>39.0</ele>
        <time>2020-01-18T08:37:01.134Z</time>
      </trkpt>
      <trkpt lat="37.25603833" lon="-7.117435">
        <ele>38.0</ele>
        <time>2020-01-18T08:37:02.154Z</time>
      </trkpt>
      <trkpt lat="37.25603833" lon="-7.117435">
        <ele>38.0</ele>
        <time>2020-01-18T08:37:03.136Z</time>
      </trkpt>
      <trkpt lat="37.255955" lon="-7.11733333">
        <ele>38.0</ele>
        <time>2020-01-18T08:37:04.154Z</time>
      </trkpt>
      <trkpt lat="37.255955" lon="-7.11733333">
        <ele>38.0</ele>
        <time>2020-01-18T08:37:05.136Z</time>
      </trkpt>
      <trkpt lat="37.25587333" lon="-7.11723167">
        <ele>37.0</ele>
        <time>2020-01-18T08:37:06.163Z</time>
      </trkpt>
      <trkpt lat="37.25587333" lon="-7.11723167">
        <ele>37.0</ele>
        <time>2020-01-18T08:37:07.138Z</time>
      </trkpt>
      <trkpt lat="37.25578667" lon="-7.11716">
        <ele>37.0</ele>
        <time>2020-01-18T08:37:08.154Z</time>
      </trkpt>
      <trkpt lat="37.25578667" lon="-7.11716">
        <ele>37.0</ele>
        <time>2020-01-18T08:37:09.138Z</time>
      </trkpt>
      <trkpt lat="37.25570833" lon="-7.11708667">
        <ele>37.0</ele>
        <time>2020-01-18T08:37:10.156Z</time>
      </trkpt>
      <trkpt lat="37.25567333" lon="-7.11704667">
        <ele>37.0</ele>
        <time>2020-01-18T08:37:11.143Z</time>
      </trkpt>
      <trkpt lat="37.25563667" lon="-7.11700667">
        <ele>36.0</ele>
        <time>2020-01-18T08:37:12.157Z</time>
      </trkpt>
      <trkpt lat="37.25563667" lon="-7.11700667">
        <ele>36.0</ele>
        <time>2020-01-18T08:37:13.135Z</time>
      </trkpt>
      <trkpt lat="37.25557167" lon="-7.11692833">
        <ele>36.0</ele>
        <time>2020-01-18T08:37:14.158Z</time>
      </trkpt>
      <trkpt lat="37.25557167" lon="-7.11692833">
        <ele>36.0</ele>
        <time>2020-01-18T08:37:15.135Z</time>
      </trkpt>
      <trkpt lat="37.25551" lon="-7.11686167">
        <ele>36.0</ele>
        <time>2020-01-18T08:37:16.157Z</time>
      </trkpt>
      <trkpt lat="37.25551" lon="-7.11686167">
        <ele>36.0</ele>
        <time>2020-01-18T08:37:17.136Z</time>
      </trkpt>
      <trkpt lat="37.25544833" lon="-7.1168">
        <ele>36.0</ele>
        <time>2020-01-18T08:37:18.152Z</time>
      </trkpt>
      <trkpt lat="37.25544833" lon="-7.1168">
        <ele>36.0</ele>
        <time>2020-01-18T08:37:19.137Z</time>
      </trkpt>
      <trkpt lat="37.25538833" lon="-7.11674167">
        <ele>35.0</ele>
        <time>2020-01-18T08:37:20.131Z</time>
      </trkpt>
      <trkpt lat="37.25538833" lon="-7.11674167">
        <ele>35.0</ele>
        <time>2020-01-18T08:37:21.143Z</time>
      </trkpt>
      <trkpt lat="37.25532833" lon="-7.11668">
        <ele>35.0</ele>
        <time>2020-01-18T08:37:22.163Z</time>
      </trkpt>
      <trkpt lat="37.25532833" lon="-7.11668">
        <ele>35.0</ele>
        <time>2020-01-18T08:37:23.137Z</time>
      </trkpt>
      <trkpt lat="37.255265" lon="-7.11661167">
        <ele>35.0</ele>
        <time>2020-01-18T08:37:24.163Z</time>
      </trkpt>
      <trkpt lat="37.25523333" lon="-7.11657">
        <ele>36.0</ele>
        <time>2020-01-18T08:37:25.147Z</time>
      </trkpt>
      <trkpt lat="37.25520667" lon="-7.116525">
        <ele>36.0</ele>
        <time>2020-01-18T08:37:26.164Z</time>
      </trkpt>
      <trkpt lat="37.25520667" lon="-7.116525">
        <ele>36.0</ele>
        <time>2020-01-18T08:37:27.137Z</time>
      </trkpt>
      <trkpt lat="37.25517" lon="-7.11641">
        <ele>36.0</ele>
        <time>2020-01-18T08:37:28.162Z</time>
      </trkpt>
      <trkpt lat="37.25517" lon="-7.11641">
        <ele>36.0</ele>
        <time>2020-01-18T08:37:29.137Z</time>
      </trkpt>
      <trkpt lat="37.25518167" lon="-7.11629667">
        <ele>36.0</ele>
        <time>2020-01-18T08:37:30.157Z</time>
      </trkpt>
      <trkpt lat="37.25518167" lon="-7.11629667">
        <ele>36.0</ele>
        <time>2020-01-18T08:37:31.143Z</time>
      </trkpt>
      <trkpt lat="37.25520333" lon="-7.11620833">
        <ele>36.0</ele>
        <time>2020-01-18T08:37:32.157Z</time>
      </trkpt>
      <trkpt lat="37.25520333" lon="-7.11620833">
        <ele>36.0</ele>
        <time>2020-01-18T08:37:33.138Z</time>
      </trkpt>
      <trkpt lat="37.25521667" lon="-7.11611">
        <ele>36.0</ele>
        <time>2020-01-18T08:37:34.154Z</time>
      </trkpt>
      <trkpt lat="37.255225" lon="-7.11606">
        <ele>36.0</ele>
        <time>2020-01-18T08:37:35.141Z</time>
      </trkpt>
      <trkpt lat="37.25523" lon="-7.116005">
        <ele>36.0</ele>
        <time>2020-01-18T08:37:36.163Z</time>
      </trkpt>
      <trkpt lat="37.25523" lon="-7.116005">
        <ele>36.0</ele>
        <time>2020-01-18T08:37:37.137Z</time>
      </trkpt>
      <trkpt lat="37.255265" lon="-7.11590167">
        <ele>35.0</ele>
        <time>2020-01-18T08:37:38.156Z</time>
      </trkpt>
      <trkpt lat="37.255265" lon="-7.11590167">
        <ele>35.0</ele>
        <time>2020-01-18T08:37:39.136Z</time>
      </trkpt>
      <trkpt lat="37.25531833" lon="-7.11583167">
        <ele>35.0</ele>
        <time>2020-01-18T08:37:40.154Z</time>
      </trkpt>
      <trkpt lat="37.25534833" lon="-7.11579667">
        <ele>35.0</ele>
        <time>2020-01-18T08:37:41.140Z</time>
      </trkpt>
      <trkpt lat="37.25534833" lon="-7.11579667">
        <ele>35.0</ele>
        <time>2020-01-18T08:37:42.154Z</time>
      </trkpt>
      <trkpt lat="37.25539167" lon="-7.11573667">
        <ele>35.0</ele>
        <time>2020-01-18T08:37:43.145Z</time>
      </trkpt>
      <trkpt lat="37.25542333" lon="-7.11571667">
        <ele>35.0</ele>
        <time>2020-01-18T08:37:44.145Z</time>
      </trkpt>
      <trkpt lat="37.25542333" lon="-7.11571667">
        <ele>35.0</ele>
        <time>2020-01-18T08:37:45.137Z</time>
      </trkpt>
      <trkpt lat="37.25548333" lon="-7.11567667">
        <ele>36.0</ele>
        <time>2020-01-18T08:37:46.155Z</time>
      </trkpt>
      <trkpt lat="37.25548333" lon="-7.11567667">
        <ele>36.0</ele>
        <time>2020-01-18T08:37:47.135Z</time>
      </trkpt>
      <trkpt lat="37.25554167" lon="-7.11563333">
        <ele>36.0</ele>
        <time>2020-01-18T08:37:48.163Z</time>
      </trkpt>
      <trkpt lat="37.25554167" lon="-7.11563333">
        <ele>36.0</ele>
        <time>2020-01-18T08:37:49.135Z</time>
      </trkpt>
      <trkpt lat="37.2556" lon="-7.11556833">
        <ele>36.0</ele>
        <time>2020-01-18T08:37:50.154Z</time>
      </trkpt>
      <trkpt lat="37.2556" lon="-7.11556833">
        <ele>36.0</ele>
        <time>2020-01-18T08:37:51.140Z</time>
      </trkpt>
      <trkpt lat="37.25567" lon="-7.11548667">
        <ele>36.0</ele>
        <time>2020-01-18T08:37:52.153Z</time>
      </trkpt>
      <trkpt lat="37.25567" lon="-7.11548667">
        <ele>36.0</ele>
        <time>2020-01-18T08:37:53.137Z</time>
      </trkpt>
      <trkpt lat="37.255735" lon="-7.115405">
        <ele>36.0</ele>
        <time>2020-01-18T08:37:54.163Z</time>
      </trkpt>
      <trkpt lat="37.255735" lon="-7.115405">
        <ele>36.0</ele>
        <time>2020-01-18T08:37:55.138Z</time>
      </trkpt>
      <trkpt lat="37.2558" lon="-7.11533667">
        <ele>36.0</ele>
        <time>2020-01-18T08:37:56.164Z</time>
      </trkpt>
      <trkpt lat="37.2558" lon="-7.11533667">
        <ele>36.0</ele>
        <time>2020-01-18T08:37:57.138Z</time>
      </trkpt>
      <trkpt lat="37.25587167" lon="-7.11529833">
        <ele>37.0</ele>
        <time>2020-01-18T08:37:58.158Z</time>
      </trkpt>
      <trkpt lat="37.25587167" lon="-7.11529833">
        <ele>37.0</ele>
        <time>2020-01-18T08:37:59.135Z</time>
      </trkpt>
      <trkpt lat="37.255935" lon="-7.115235">
        <ele>37.0</ele>
        <time>2020-01-18T08:38:00.157Z</time>
      </trkpt>
      <trkpt lat="37.255935" lon="-7.115235">
        <ele>37.0</ele>
        <time>2020-01-18T08:38:01.136Z</time>
      </trkpt>
      <trkpt lat="37.256" lon="-7.11516333">
        <ele>38.0</ele>
        <time>2020-01-18T08:38:02.154Z</time>
      </trkpt>
      <trkpt lat="37.256" lon="-7.11516333">
        <ele>38.0</ele>
        <time>2020-01-18T08:38:03.138Z</time>
      </trkpt>
      <trkpt lat="37.256065" lon="-7.11510333">
        <ele>39.0</ele>
        <time>2020-01-18T08:38:04.163Z</time>
      </trkpt>
      <trkpt lat="37.256065" lon="-7.11510333">
        <ele>39.0</ele>
        <time>2020-01-18T08:38:05.137Z</time>
      </trkpt>
      <trkpt lat="37.25614333" lon="-7.11505333">
        <ele>39.0</ele>
        <time>2020-01-18T08:38:06.163Z</time>
      </trkpt>
      <trkpt lat="37.25614333" lon="-7.11505333">
        <ele>39.0</ele>
        <time>2020-01-18T08:38:07.138Z</time>
      </trkpt>
      <trkpt lat="37.25621667" lon="-7.11500667">
        <ele>40.0</ele>
        <time>2020-01-18T08:38:08.163Z</time>
      </trkpt>
      <trkpt lat="37.25621667" lon="-7.11500667">
        <ele>40.0</ele>
        <time>2020-01-18T08:38:09.138Z</time>
      </trkpt>
      <trkpt lat="37.25628167" lon="-7.11495">
        <ele>41.0</ele>
        <time>2020-01-18T08:38:10.158Z</time>
      </trkpt>
      <trkpt lat="37.25628167" lon="-7.11495">
        <ele>41.0</ele>
        <time>2020-01-18T08:38:11.140Z</time>
      </trkpt>
      <trkpt lat="37.25632667" lon="-7.11488">
        <ele>42.0</ele>
        <time>2020-01-18T08:38:12.164Z</time>
      </trkpt>
      <trkpt lat="37.25632667" lon="-7.11488">
        <ele>42.0</ele>
        <time>2020-01-18T08:38:13.138Z</time>
      </trkpt>
      <trkpt lat="37.25636833" lon="-7.11480833">
        <ele>42.0</ele>
        <time>2020-01-18T08:38:14.163Z</time>
      </trkpt>
      <trkpt lat="37.25636833" lon="-7.11480833">
        <ele>42.0</ele>
        <time>2020-01-18T08:38:15.138Z</time>
      </trkpt>
      <trkpt lat="37.25641167" lon="-7.11473333">
        <ele>43.0</ele>
        <time>2020-01-18T08:38:16.157Z</time>
      </trkpt>
      <trkpt lat="37.25641167" lon="-7.11473333">
        <ele>43.0</ele>
        <time>2020-01-18T08:38:17.135Z</time>
      </trkpt>
      <trkpt lat="37.25645833" lon="-7.114665">
        <ele>44.0</ele>
        <time>2020-01-18T08:38:18.155Z</time>
      </trkpt>
      <trkpt lat="37.25648" lon="-7.114635">
        <ele>44.0</ele>
        <time>2020-01-18T08:38:19.148Z</time>
      </trkpt>
      <trkpt lat="37.25648" lon="-7.114635">
        <ele>44.0</ele>
        <time>2020-01-18T08:38:20.138Z</time>
      </trkpt>
      <trkpt lat="37.25653167" lon="-7.11459">
        <ele>45.0</ele>
        <time>2020-01-18T08:38:21.149Z</time>
      </trkpt>
      <trkpt lat="37.25653167" lon="-7.11459">
        <ele>45.0</ele>
        <time>2020-01-18T08:38:22.137Z</time>
      </trkpt>
      <trkpt lat="37.25658" lon="-7.11454333">
        <ele>45.0</ele>
        <time>2020-01-18T08:38:23.163Z</time>
      </trkpt>
      <trkpt lat="37.25660833" lon="-7.11451333">
        <ele>46.0</ele>
        <time>2020-01-18T08:38:24.141Z</time>
      </trkpt>
      <trkpt lat="37.25660833" lon="-7.11451333">
        <ele>46.0</ele>
        <time>2020-01-18T08:38:25.153Z</time>
      </trkpt>
      <trkpt lat="37.256665" lon="-7.11447">
        <ele>46.0</ele>
        <time>2020-01-18T08:38:26.141Z</time>
      </trkpt>
      <trkpt lat="37.256665" lon="-7.11447">
        <ele>46.0</ele>
        <time>2020-01-18T08:38:27.153Z</time>
      </trkpt>
      <trkpt lat="37.25673833" lon="-7.11445">
        <ele>47.0</ele>
        <time>2020-01-18T08:38:28.139Z</time>
      </trkpt>
      <trkpt lat="37.25677" lon="-7.114445">
        <ele>47.0</ele>
        <time>2020-01-18T08:38:29.157Z</time>
      </trkpt>
      <trkpt lat="37.25677" lon="-7.114445">
        <ele>47.0</ele>
        <time>2020-01-18T08:38:30.138Z</time>
      </trkpt>
      <trkpt lat="37.25682833" lon="-7.11444667">
        <ele>48.0</ele>
        <time>2020-01-18T08:38:31.145Z</time>
      </trkpt>
      <trkpt lat="37.25686" lon="-7.114445">
        <ele>48.0</ele>
        <time>2020-01-18T08:38:32.148Z</time>
      </trkpt>
      <trkpt lat="37.25686" lon="-7.114445">
        <ele>48.0</ele>
        <time>2020-01-18T08:38:33.138Z</time>
      </trkpt>
      <trkpt lat="37.25692667" lon="-7.11443333">
        <ele>49.0</ele>
        <time>2020-01-18T08:38:34.157Z</time>
      </trkpt>
      <trkpt lat="37.25692667" lon="-7.11443333">
        <ele>49.0</ele>
        <time>2020-01-18T08:38:35.136Z</time>
      </trkpt>
      <trkpt lat="37.25698" lon="-7.11442167">
        <ele>49.0</ele>
        <time>2020-01-18T08:38:36.164Z</time>
      </trkpt>
      <trkpt lat="37.257015" lon="-7.11441167">
        <ele>49.0</ele>
        <time>2020-01-18T08:38:37.144Z</time>
      </trkpt>
      <trkpt lat="37.25705333" lon="-7.114395">
        <ele>49.0</ele>
        <time>2020-01-18T08:38:38.163Z</time>
      </trkpt>
      <trkpt lat="37.25705333" lon="-7.114395">
        <ele>49.0</ele>
        <time>2020-01-18T08:38:39.137Z</time>
      </trkpt>
      <trkpt lat="37.25712" lon="-7.11436333">
        <ele>50.0</ele>
        <time>2020-01-18T08:38:40.152Z</time>
      </trkpt>
      <trkpt lat="37.25712" lon="-7.11436333">
        <ele>50.0</ele>
        <time>2020-01-18T08:38:41.133Z</time>
      </trkpt>
      <trkpt lat="37.25718333" lon="-7.11432">
        <ele>51.0</ele>
        <time>2020-01-18T08:38:42.164Z</time>
      </trkpt>
      <trkpt lat="37.25718333" lon="-7.11432">
        <ele>51.0</ele>
        <time>2020-01-18T08:38:43.137Z</time>
      </trkpt>
      <trkpt lat="37.25723167" lon="-7.11425167">
        <ele>52.0</ele>
        <time>2020-01-18T08:38:44.159Z</time>
      </trkpt>
      <trkpt lat="37.25723167" lon="-7.11425167">
        <ele>52.0</ele>
        <time>2020-01-18T08:38:45.136Z</time>
      </trkpt>
      <trkpt lat="37.25725833" lon="-7.11417833">
        <ele>53.0</ele>
        <time>2020-01-18T08:38:46.156Z</time>
      </trkpt>
      <trkpt lat="37.25726667" lon="-7.11414">
        <ele>53.0</ele>
        <time>2020-01-18T08:38:47.145Z</time>
      </trkpt>
      <trkpt lat="37.25726667" lon="-7.11414">
        <ele>53.0</ele>
        <time>2020-01-18T08:38:48.158Z</time>
      </trkpt>
      <trkpt lat="37.25728" lon="-7.11407">
        <ele>54.0</ele>
        <time>2020-01-18T08:38:49.141Z</time>
      </trkpt>
      <trkpt lat="37.25728333" lon="-7.114035">
        <ele>54.0</ele>
        <time>2020-01-18T08:38:50.158Z</time>
      </trkpt>
      <trkpt lat="37.25728333" lon="-7.114035">
        <ele>54.0</ele>
        <time>2020-01-18T08:38:51.139Z</time>
      </trkpt>
      <trkpt lat="37.25728667" lon="-7.11396833">
        <ele>54.0</ele>
        <time>2020-01-18T08:38:52.160Z</time>
      </trkpt>
      <trkpt lat="37.25728667" lon="-7.11396833">
        <ele>54.0</ele>
        <time>2020-01-18T08:38:53.135Z</time>
      </trkpt>
      <trkpt lat="37.25729667" lon="-7.11390833">
        <ele>55.0</ele>
        <time>2020-01-18T08:38:54.164Z</time>
      </trkpt>
      <trkpt lat="37.25729667" lon="-7.11390833">
        <ele>55.0</ele>
        <time>2020-01-18T08:38:55.137Z</time>
      </trkpt>
      <trkpt lat="37.257315" lon="-7.11383667">
        <ele>55.0</ele>
        <time>2020-01-18T08:38:56.163Z</time>
      </trkpt>
      <trkpt lat="37.257315" lon="-7.11383667">
        <ele>55.0</ele>
        <time>2020-01-18T08:38:57.138Z</time>
      </trkpt>
      <trkpt lat="37.25733167" lon="-7.113755">
        <ele>54.0</ele>
        <time>2020-01-18T08:38:58.164Z</time>
      </trkpt>
      <trkpt lat="37.25733167" lon="-7.113755">
        <ele>54.0</ele>
        <time>2020-01-18T08:38:59.138Z</time>
      </trkpt>
      <trkpt lat="37.25737667" lon="-7.113655">
        <ele>52.0</ele>
        <time>2020-01-18T08:39:00.157Z</time>
      </trkpt>
      <trkpt lat="37.25737667" lon="-7.113655">
        <ele>52.0</ele>
        <time>2020-01-18T08:39:01.136Z</time>
      </trkpt>
      <trkpt lat="37.25739167" lon="-7.11357">
        <ele>53.0</ele>
        <time>2020-01-18T08:39:02.155Z</time>
      </trkpt>
      <trkpt lat="37.2574" lon="-7.11352667">
        <ele>53.0</ele>
        <time>2020-01-18T08:39:03.140Z</time>
      </trkpt>
      <trkpt lat="37.2574" lon="-7.11352667">
        <ele>53.0</ele>
        <time>2020-01-18T08:39:04.153Z</time>
      </trkpt>
      <trkpt lat="37.25741333" lon="-7.11345">
        <ele>53.0</ele>
        <time>2020-01-18T08:39:05.148Z</time>
      </trkpt>
      <trkpt lat="37.25741333" lon="-7.11345">
        <ele>53.0</ele>
        <time>2020-01-18T08:39:06.138Z</time>
      </trkpt>
      <trkpt lat="37.25743167" lon="-7.11339">
        <ele>54.0</ele>
        <time>2020-01-18T08:39:07.157Z</time>
      </trkpt>
      <trkpt lat="37.257435" lon="-7.11336">
        <ele>53.0</ele>
        <time>2020-01-18T08:39:08.140Z</time>
      </trkpt>
      <trkpt lat="37.257435" lon="-7.11336">
        <ele>53.0</ele>
        <time>2020-01-18T08:39:09.153Z</time>
      </trkpt>
      <trkpt lat="37.25742333" lon="-7.113305">
        <ele>53.0</ele>
        <time>2020-01-18T08:39:10.148Z</time>
      </trkpt>
      <trkpt lat="37.25742333" lon="-7.113305">
        <ele>53.0</ele>
        <time>2020-01-18T08:39:11.153Z</time>
      </trkpt>
      <trkpt lat="37.25741167" lon="-7.11325667">
        <ele>52.0</ele>
        <time>2020-01-18T08:39:12.143Z</time>
      </trkpt>
      <trkpt lat="37.25741167" lon="-7.11322667">
        <ele>52.0</ele>
        <time>2020-01-18T08:39:13.156Z</time>
      </trkpt>
      <trkpt lat="37.25741167" lon="-7.11322667">
        <ele>52.0</ele>
        <time>2020-01-18T08:39:14.139Z</time>
      </trkpt>
      <trkpt lat="37.257405" lon="-7.11315833">
        <ele>52.0</ele>
        <time>2020-01-18T08:39:15.163Z</time>
      </trkpt>
      <trkpt lat="37.257405" lon="-7.11315833">
        <ele>52.0</ele>
        <time>2020-01-18T08:39:16.138Z</time>
      </trkpt>
      <trkpt lat="37.25740167" lon="-7.11309667">
        <ele>53.0</ele>
        <time>2020-01-18T08:39:17.164Z</time>
      </trkpt>
      <trkpt lat="37.25740167" lon="-7.11309667">
        <ele>53.0</ele>
        <time>2020-01-18T08:39:18.138Z</time>
      </trkpt>
      <trkpt lat="37.25739833" lon="-7.11303833">
        <ele>53.0</ele>
        <time>2020-01-18T08:39:19.163Z</time>
      </trkpt>
      <trkpt lat="37.25739167" lon="-7.11301333">
        <ele>53.0</ele>
        <time>2020-01-18T08:39:20.141Z</time>
      </trkpt>
      <trkpt lat="37.25739167" lon="-7.11301333">
        <ele>53.0</ele>
        <time>2020-01-18T08:39:21.153Z</time>
      </trkpt>
      <trkpt lat="37.25738167" lon="-7.11295833">
        <ele>53.0</ele>
        <time>2020-01-18T08:39:22.166Z</time>
      </trkpt>
      <trkpt lat="37.25737667" lon="-7.11292833">
        <ele>54.0</ele>
        <time>2020-01-18T08:39:23.141Z</time>
      </trkpt>
      <trkpt lat="37.25737667" lon="-7.11292833">
        <ele>54.0</ele>
        <time>2020-01-18T08:39:24.165Z</time>
      </trkpt>
      <trkpt lat="37.25737333" lon="-7.112875">
        <ele>54.0</ele>
        <time>2020-01-18T08:39:25.132Z</time>
      </trkpt>
      <trkpt lat="37.25737333" lon="-7.112875">
        <ele>54.0</ele>
        <time>2020-01-18T08:39:26.139Z</time>
      </trkpt>
      <trkpt lat="37.25738333" lon="-7.112815">
        <ele>55.0</ele>
        <time>2020-01-18T08:39:27.159Z</time>
      </trkpt>
      <trkpt lat="37.25738667" lon="-7.112795">
        <ele>55.0</ele>
        <time>2020-01-18T08:39:28.135Z</time>
      </trkpt>
      <trkpt lat="37.25738667" lon="-7.112795">
        <ele>55.0</ele>
        <time>2020-01-18T08:39:29.141Z</time>
      </trkpt>
      <trkpt lat="37.257405" lon="-7.11273833">
        <ele>55.0</ele>
        <time>2020-01-18T08:39:30.147Z</time>
      </trkpt>
      <trkpt lat="37.25740833" lon="-7.11271833">
        <ele>55.0</ele>
        <time>2020-01-18T08:39:31.165Z</time>
      </trkpt>
      <trkpt lat="37.25740833" lon="-7.11271833">
        <ele>55.0</ele>
        <time>2020-01-18T08:39:32.132Z</time>
      </trkpt>
      <trkpt lat="37.25741833" lon="-7.11267667">
        <ele>56.0</ele>
        <time>2020-01-18T08:39:33.143Z</time>
      </trkpt>
      <trkpt lat="37.25741833" lon="-7.11267667">
        <ele>56.0</ele>
        <time>2020-01-18T08:39:34.159Z</time>
      </trkpt>
      <trkpt lat="37.25741333" lon="-7.11261333">
        <ele>57.0</ele>
        <time>2020-01-18T08:39:35.166Z</time>
      </trkpt>
      <trkpt lat="37.25741333" lon="-7.11261333">
        <ele>57.0</ele>
        <time>2020-01-18T08:39:36.132Z</time>
      </trkpt>
      <trkpt lat="37.25740833" lon="-7.11255333">
        <ele>57.0</ele>
        <time>2020-01-18T08:39:37.155Z</time>
      </trkpt>
      <trkpt lat="37.257405" lon="-7.11251833">
        <ele>57.0</ele>
        <time>2020-01-18T08:39:38.151Z</time>
      </trkpt>
      <trkpt lat="37.257405" lon="-7.11251833">
        <ele>57.0</ele>
        <time>2020-01-18T08:39:39.138Z</time>
      </trkpt>
      <trkpt lat="37.25738667" lon="-7.1124">
        <ele>58.0</ele>
        <time>2020-01-18T08:39:40.156Z</time>
      </trkpt>
      <trkpt lat="37.25738667" lon="-7.1124">
        <ele>58.0</ele>
        <time>2020-01-18T08:39:41.136Z</time>
      </trkpt>
      <trkpt lat="37.257395" lon="-7.11232833">
        <ele>58.0</ele>
        <time>2020-01-18T08:39:42.158Z</time>
      </trkpt>
      <trkpt lat="37.257395" lon="-7.11232833">
        <ele>58.0</ele>
        <time>2020-01-18T08:39:43.139Z</time>
      </trkpt>
      <trkpt lat="37.25739167" lon="-7.11225667">
        <ele>59.0</ele>
        <time>2020-01-18T08:39:44.158Z</time>
      </trkpt>
      <trkpt lat="37.25739167" lon="-7.11223">
        <ele>59.0</ele>
        <time>2020-01-18T08:39:45.154Z</time>
      </trkpt>
      <trkpt lat="37.25739167" lon="-7.11223">
        <ele>59.0</ele>
        <time>2020-01-18T08:39:46.138Z</time>
      </trkpt>
      <trkpt lat="37.257385" lon="-7.11216167">
        <ele>60.0</ele>
        <time>2020-01-18T08:39:47.157Z</time>
      </trkpt>
      <trkpt lat="37.257385" lon="-7.11216167">
        <ele>60.0</ele>
        <time>2020-01-18T08:39:48.136Z</time>
      </trkpt>
      <trkpt lat="37.257375" lon="-7.112095">
        <ele>60.0</ele>
        <time>2020-01-18T08:39:49.149Z</time>
      </trkpt>
      <trkpt lat="37.25737167" lon="-7.11206833">
        <ele>61.0</ele>
        <time>2020-01-18T08:39:50.146Z</time>
      </trkpt>
      <trkpt lat="37.25737167" lon="-7.11206833">
        <ele>61.0</ele>
        <time>2020-01-18T08:39:51.138Z</time>
      </trkpt>
      <trkpt lat="37.25736667" lon="-7.11201">
        <ele>61.0</ele>
        <time>2020-01-18T08:39:52.159Z</time>
      </trkpt>
      <trkpt lat="37.25736667" lon="-7.11201">
        <ele>61.0</ele>
        <time>2020-01-18T08:39:53.137Z</time>
      </trkpt>
      <trkpt lat="37.25737333" lon="-7.11194167">
        <ele>61.0</ele>
        <time>2020-01-18T08:39:54.167Z</time>
      </trkpt>
      <trkpt lat="37.25737333" lon="-7.11194167">
        <ele>61.0</ele>
        <time>2020-01-18T08:39:55.152Z</time>
      </trkpt>
      <trkpt lat="37.25737333" lon="-7.111885">
        <ele>62.0</ele>
        <time>2020-01-18T08:39:56.143Z</time>
      </trkpt>
      <trkpt lat="37.25737333" lon="-7.111885">
        <ele>62.0</ele>
        <time>2020-01-18T08:39:57.156Z</time>
      </trkpt>
      <trkpt lat="37.25736333" lon="-7.111825">
        <ele>63.0</ele>
        <time>2020-01-18T08:39:58.143Z</time>
      </trkpt>
      <trkpt lat="37.25736333" lon="-7.111825">
        <ele>63.0</ele>
        <time>2020-01-18T08:39:59.155Z</time>
      </trkpt>
      <trkpt lat="37.25736167" lon="-7.11176167">
        <ele>63.0</ele>
        <time>2020-01-18T08:40:00.144Z</time>
      </trkpt>
      <trkpt lat="37.25736167" lon="-7.11176167">
        <ele>63.0</ele>
        <time>2020-01-18T08:40:01.164Z</time>
      </trkpt>
      <trkpt lat="37.25735667" lon="-7.11169833">
        <ele>64.0</ele>
        <time>2020-01-18T08:40:02.142Z</time>
      </trkpt>
      <trkpt lat="37.25735667" lon="-7.11169833">
        <ele>64.0</ele>
        <time>2020-01-18T08:40:03.156Z</time>
      </trkpt>
      <trkpt lat="37.25735333" lon="-7.11163333">
        <ele>64.0</ele>
        <time>2020-01-18T08:40:04.141Z</time>
      </trkpt>
      <trkpt lat="37.25735333" lon="-7.11163333">
        <ele>64.0</ele>
        <time>2020-01-18T08:40:05.154Z</time>
      </trkpt>
      <trkpt lat="37.25735667" lon="-7.11156333">
        <ele>65.0</ele>
        <time>2020-01-18T08:40:06.142Z</time>
      </trkpt>
      <trkpt lat="37.257355" lon="-7.11152333">
        <ele>65.0</ele>
        <time>2020-01-18T08:40:07.157Z</time>
      </trkpt>
      <trkpt lat="37.257355" lon="-7.11148667">
        <ele>65.0</ele>
        <time>2020-01-18T08:40:08.141Z</time>
      </trkpt>
      <trkpt lat="37.257355" lon="-7.11148667">
        <ele>65.0</ele>
        <time>2020-01-18T08:40:09.154Z</time>
      </trkpt>
      <trkpt lat="37.25735333" lon="-7.11137667">
        <ele>65.0</ele>
        <time>2020-01-18T08:40:10.141Z</time>
      </trkpt>
      <trkpt lat="37.25735333" lon="-7.11132833">
        <ele>64.0</ele>
        <time>2020-01-18T08:40:11.132Z</time>
      </trkpt>
      <trkpt lat="37.25735333" lon="-7.11128667">
        <ele>64.0</ele>
        <time>2020-01-18T08:40:12.167Z</time>
      </trkpt>
      <trkpt lat="37.25735333" lon="-7.11128667">
        <ele>64.0</ele>
        <time>2020-01-18T08:40:13.140Z</time>
      </trkpt>
      <trkpt lat="37.257355" lon="-7.111215">
        <ele>64.0</ele>
        <time>2020-01-18T08:40:14.135Z</time>
      </trkpt>
      <trkpt lat="37.25735167" lon="-7.11118333">
        <ele>64.0</ele>
        <time>2020-01-18T08:40:15.157Z</time>
      </trkpt>
      <trkpt lat="37.25735167" lon="-7.11118333">
        <ele>64.0</ele>
        <time>2020-01-18T08:40:16.138Z</time>
      </trkpt>
      <trkpt lat="37.25734833" lon="-7.11112167">
        <ele>64.0</ele>
        <time>2020-01-18T08:40:17.166Z</time>
      </trkpt>
      <trkpt lat="37.25734833" lon="-7.11112167">
        <ele>64.0</ele>
        <time>2020-01-18T08:40:18.139Z</time>
      </trkpt>
      <trkpt lat="37.25734667" lon="-7.11106333">
        <ele>64.0</ele>
        <time>2020-01-18T08:40:19.163Z</time>
      </trkpt>
      <trkpt lat="37.257345" lon="-7.11103833">
        <ele>64.0</ele>
        <time>2020-01-18T08:40:20.142Z</time>
      </trkpt>
      <trkpt lat="37.25734167" lon="-7.11101333">
        <ele>64.0</ele>
        <time>2020-01-18T08:40:21.157Z</time>
      </trkpt>
      <trkpt lat="37.25734167" lon="-7.11101333">
        <ele>64.0</ele>
        <time>2020-01-18T08:40:22.131Z</time>
      </trkpt>
      <trkpt lat="37.25734833" lon="-7.11096667">
        <ele>63.0</ele>
        <time>2020-01-18T08:40:23.158Z</time>
      </trkpt>
      <trkpt lat="37.25735" lon="-7.110945">
        <ele>63.0</ele>
        <time>2020-01-18T08:40:24.163Z</time>
      </trkpt>
      <trkpt lat="37.25735" lon="-7.110945">
        <ele>63.0</ele>
        <time>2020-01-18T08:40:25.137Z</time>
      </trkpt>
      <trkpt lat="37.25736167" lon="-7.11088833">
        <ele>63.0</ele>
        <time>2020-01-18T08:40:26.163Z</time>
      </trkpt>
      <trkpt lat="37.25736167" lon="-7.11088833">
        <ele>63.0</ele>
        <time>2020-01-18T08:40:27.138Z</time>
      </trkpt>
      <trkpt lat="37.25737333" lon="-7.11083333">
        <ele>63.0</ele>
        <time>2020-01-18T08:40:28.132Z</time>
      </trkpt>
      <trkpt lat="37.257375" lon="-7.11080833">
        <ele>63.0</ele>
        <time>2020-01-18T08:40:29.158Z</time>
      </trkpt>
      <trkpt lat="37.257375" lon="-7.11080833">
        <ele>63.0</ele>
        <time>2020-01-18T08:40:30.136Z</time>
      </trkpt>
      <trkpt lat="37.257385" lon="-7.11075833">
        <ele>63.0</ele>
        <time>2020-01-18T08:40:31.141Z</time>
      </trkpt>
      <trkpt lat="37.257385" lon="-7.11075833">
        <ele>63.0</ele>
        <time>2020-01-18T08:40:32.154Z</time>
      </trkpt>
      <trkpt lat="37.257395" lon="-7.11070667">
        <ele>62.0</ele>
        <time>2020-01-18T08:40:33.156Z</time>
      </trkpt>
      <trkpt lat="37.257395" lon="-7.11070667">
        <ele>62.0</ele>
        <time>2020-01-18T08:40:34.138Z</time>
      </trkpt>
      <trkpt lat="37.25739167" lon="-7.11065333">
        <ele>62.0</ele>
        <time>2020-01-18T08:40:35.155Z</time>
      </trkpt>
      <trkpt lat="37.25739167" lon="-7.11065333">
        <ele>62.0</ele>
        <time>2020-01-18T08:40:36.139Z</time>
      </trkpt>
      <trkpt lat="37.257395" lon="-7.11059833">
        <ele>62.0</ele>
        <time>2020-01-18T08:40:37.155Z</time>
      </trkpt>
      <trkpt lat="37.25739667" lon="-7.110575">
        <ele>62.0</ele>
        <time>2020-01-18T08:40:38.137Z</time>
      </trkpt>
      <trkpt lat="37.25739667" lon="-7.110575">
        <ele>62.0</ele>
        <time>2020-01-18T08:40:39.150Z</time>
      </trkpt>
      <trkpt lat="37.25739333" lon="-7.110525">
        <ele>61.0</ele>
        <time>2020-01-18T08:40:40.142Z</time>
      </trkpt>
      <trkpt lat="37.25739333" lon="-7.110525">
        <ele>61.0</ele>
        <time>2020-01-18T08:40:41.155Z</time>
      </trkpt>
      <trkpt lat="37.25739333" lon="-7.11049">
        <ele>61.0</ele>
        <time>2020-01-18T08:40:42.131Z</time>
      </trkpt>
      <trkpt lat="37.257385" lon="-7.11046667">
        <ele>61.0</ele>
        <time>2020-01-18T08:40:43.156Z</time>
      </trkpt>
      <trkpt lat="37.257385" lon="-7.11046667">
        <ele>61.0</ele>
        <time>2020-01-18T08:40:44.140Z</time>
      </trkpt>
      <trkpt lat="37.25737" lon="-7.11040833">
        <ele>60.0</ele>
        <time>2020-01-18T08:40:45.157Z</time>
      </trkpt>
      <trkpt lat="37.25737" lon="-7.11040833">
        <ele>60.0</ele>
        <time>2020-01-18T08:40:46.139Z</time>
      </trkpt>
      <trkpt lat="37.25735167" lon="-7.11037167">
        <ele>60.0</ele>
        <time>2020-01-18T08:40:47.163Z</time>
      </trkpt>
      <trkpt lat="37.25735167" lon="-7.11034667">
        <ele>60.0</ele>
        <time>2020-01-18T08:40:48.144Z</time>
      </trkpt>
      <trkpt lat="37.25735167" lon="-7.11034667">
        <ele>60.0</ele>
        <time>2020-01-18T08:40:49.156Z</time>
      </trkpt>
      <trkpt lat="37.25733167" lon="-7.11029833">
        <ele>60.0</ele>
        <time>2020-01-18T08:40:50.155Z</time>
      </trkpt>
      <trkpt lat="37.25733167" lon="-7.11029833">
        <ele>60.0</ele>
        <time>2020-01-18T08:40:51.136Z</time>
      </trkpt>
      <trkpt lat="37.257315" lon="-7.110255">
        <ele>60.0</ele>
        <time>2020-01-18T08:40:52.160Z</time>
      </trkpt>
      <trkpt lat="37.25730833" lon="-7.11023167">
        <ele>60.0</ele>
        <time>2020-01-18T08:40:53.143Z</time>
      </trkpt>
      <trkpt lat="37.25730833" lon="-7.11023167">
        <ele>60.0</ele>
        <time>2020-01-18T08:40:54.155Z</time>
      </trkpt>
      <trkpt lat="37.25728833" lon="-7.11018667">
        <ele>60.0</ele>
        <time>2020-01-18T08:40:55.142Z</time>
      </trkpt>
      <trkpt lat="37.25727667" lon="-7.11016667">
        <ele>61.0</ele>
        <time>2020-01-18T08:40:56.160Z</time>
      </trkpt>
      <trkpt lat="37.25727667" lon="-7.11016667">
        <ele>61.0</ele>
        <time>2020-01-18T08:40:57.143Z</time>
      </trkpt>
      <trkpt lat="37.25725333" lon="-7.110125">
        <ele>61.0</ele>
        <time>2020-01-18T08:40:58.141Z</time>
      </trkpt>
      <trkpt lat="37.25724667" lon="-7.11010333">
        <ele>61.0</ele>
        <time>2020-01-18T08:40:59.158Z</time>
      </trkpt>
      <trkpt lat="37.25724167" lon="-7.11008">
        <ele>61.0</ele>
        <time>2020-01-18T08:41:00.142Z</time>
      </trkpt>
      <trkpt lat="37.25724167" lon="-7.11008">
        <ele>61.0</ele>
        <time>2020-01-18T08:41:01.164Z</time>
      </trkpt>
      <trkpt lat="37.257235" lon="-7.110035">
        <ele>61.0</ele>
        <time>2020-01-18T08:41:02.141Z</time>
      </trkpt>
      <trkpt lat="37.257235" lon="-7.110035">
        <ele>61.0</ele>
        <time>2020-01-18T08:41:03.154Z</time>
      </trkpt>
      <trkpt lat="37.25722333" lon="-7.10998833">
        <ele>61.0</ele>
        <time>2020-01-18T08:41:04.157Z</time>
      </trkpt>
      <trkpt lat="37.25722" lon="-7.10996">
        <ele>61.0</ele>
        <time>2020-01-18T08:41:05.141Z</time>
      </trkpt>
      <trkpt lat="37.25721667" lon="-7.10993">
        <ele>61.0</ele>
        <time>2020-01-18T08:41:06.163Z</time>
      </trkpt>
      <trkpt lat="37.25721667" lon="-7.10993">
        <ele>61.0</ele>
        <time>2020-01-18T08:41:07.138Z</time>
      </trkpt>
      <trkpt lat="37.25721667" lon="-7.10988167">
        <ele>61.0</ele>
        <time>2020-01-18T08:41:08.163Z</time>
      </trkpt>
      <trkpt lat="37.25721667" lon="-7.10988167">
        <ele>61.0</ele>
        <time>2020-01-18T08:41:09.139Z</time>
      </trkpt>
      <trkpt lat="37.25722333" lon="-7.10984333">
        <ele>61.0</ele>
        <time>2020-01-18T08:41:10.163Z</time>
      </trkpt>
      <trkpt lat="37.25722333" lon="-7.10984333">
        <ele>61.0</ele>
        <time>2020-01-18T08:41:11.142Z</time>
      </trkpt>
      <trkpt lat="37.25721833" lon="-7.10980167">
        <ele>62.0</ele>
        <time>2020-01-18T08:41:12.163Z</time>
      </trkpt>
      <trkpt lat="37.25721833" lon="-7.10980167">
        <ele>62.0</ele>
        <time>2020-01-18T08:41:13.139Z</time>
      </trkpt>
      <trkpt lat="37.257215" lon="-7.109735">
        <ele>62.0</ele>
        <time>2020-01-18T08:41:14.163Z</time>
      </trkpt>
      <trkpt lat="37.257215" lon="-7.109735">
        <ele>62.0</ele>
        <time>2020-01-18T08:41:15.139Z</time>
      </trkpt>
      <trkpt lat="37.25722333" lon="-7.10967333">
        <ele>62.0</ele>
        <time>2020-01-18T08:41:16.161Z</time>
      </trkpt>
      <trkpt lat="37.25723167" lon="-7.10964333">
        <ele>63.0</ele>
        <time>2020-01-18T08:41:17.142Z</time>
      </trkpt>
      <trkpt lat="37.25723167" lon="-7.10964333">
        <ele>63.0</ele>
        <time>2020-01-18T08:41:18.153Z</time>
      </trkpt>
      <trkpt lat="37.25723333" lon="-7.109585">
        <ele>62.0</ele>
        <time>2020-01-18T08:41:19.152Z</time>
      </trkpt>
      <trkpt lat="37.25723333" lon="-7.10956">
        <ele>62.0</ele>
        <time>2020-01-18T08:41:20.140Z</time>
      </trkpt>
      <trkpt lat="37.25723333" lon="-7.10956">
        <ele>62.0</ele>
        <time>2020-01-18T08:41:21.153Z</time>
      </trkpt>
      <trkpt lat="37.257235" lon="-7.10950167">
        <ele>60.0</ele>
        <time>2020-01-18T08:41:22.141Z</time>
      </trkpt>
      <trkpt lat="37.25723" lon="-7.10947667">
        <ele>59.0</ele>
        <time>2020-01-18T08:41:23.164Z</time>
      </trkpt>
      <trkpt lat="37.25723" lon="-7.10947667">
        <ele>59.0</ele>
        <time>2020-01-18T08:41:24.139Z</time>
      </trkpt>
      <trkpt lat="37.25721833" lon="-7.109435">
        <ele>58.0</ele>
        <time>2020-01-18T08:41:25.158Z</time>
      </trkpt>
      <trkpt lat="37.25721333" lon="-7.10943">
        <ele>58.0</ele>
        <time>2020-01-18T08:41:26.143Z</time>
      </trkpt>
      <trkpt lat="37.25721167" lon="-7.10942833">
        <ele>58.0</ele>
        <time>2020-01-18T08:41:27.166Z</time>
      </trkpt>
      <trkpt lat="37.25721167" lon="-7.10942833">
        <ele>58.0</ele>
        <time>2020-01-18T08:41:28.139Z</time>
      </trkpt>
      <trkpt lat="37.25720833" lon="-7.10943167">
        <ele>58.0</ele>
        <time>2020-01-18T08:41:29.163Z</time>
      </trkpt>
      <trkpt lat="37.25728167" lon="-7.10947167">
        <ele>56.0</ele>
        <time>2020-01-18T08:41:30.161Z</time>
      </trkpt>
      <trkpt lat="37.25728167" lon="-7.10947167">
        <ele>56.0</ele>
        <time>2020-01-18T08:41:31.154Z</time>
      </trkpt>
      <trkpt lat="37.25731" lon="-7.10949833">
        <ele>56.0</ele>
        <time>2020-01-18T08:41:32.149Z</time>
      </trkpt>
      <trkpt lat="37.257325" lon="-7.109515">
        <ele>56.0</ele>
        <time>2020-01-18T08:41:33.163Z</time>
      </trkpt>
      <trkpt lat="37.257325" lon="-7.109515">
        <ele>56.0</ele>
        <time>2020-01-18T08:41:34.148Z</time>
      </trkpt>
      <trkpt lat="37.25735167" lon="-7.10956">
        <ele>56.0</ele>
        <time>2020-01-18T08:41:35.132Z</time>
      </trkpt>
      <trkpt lat="37.25735167" lon="-7.10956">
        <ele>56.0</ele>
        <time>2020-01-18T08:41:36.148Z</time>
      </trkpt>
      <trkpt lat="37.25737167" lon="-7.10959333">
        <ele>55.0</ele>
        <time>2020-01-18T08:41:37.162Z</time>
      </trkpt>
      <trkpt lat="37.25738167" lon="-7.10960833">
        <ele>55.0</ele>
        <time>2020-01-18T08:41:38.130Z</time>
      </trkpt>
      <trkpt lat="37.25738167" lon="-7.10960833">
        <ele>55.0</ele>
        <time>2020-01-18T08:41:39.137Z</time>
      </trkpt>
      <trkpt lat="37.25740333" lon="-7.10964167">
        <ele>55.0</ele>
        <time>2020-01-18T08:41:40.143Z</time>
      </trkpt>
      <trkpt lat="37.257415" lon="-7.10965833">
        <ele>56.0</ele>
        <time>2020-01-18T08:41:41.166Z</time>
      </trkpt>
      <trkpt lat="37.257415" lon="-7.10965833">
        <ele>56.0</ele>
        <time>2020-01-18T08:41:42.145Z</time>
      </trkpt>
      <trkpt lat="37.25744333" lon="-7.10968833">
        <ele>56.0</ele>
        <time>2020-01-18T08:41:43.167Z</time>
      </trkpt>
      <trkpt lat="37.25744333" lon="-7.10968833">
        <ele>56.0</ele>
        <time>2020-01-18T08:41:44.145Z</time>
      </trkpt>
      <trkpt lat="37.25747667" lon="-7.10971">
        <ele>56.0</ele>
        <time>2020-01-18T08:41:45.165Z</time>
      </trkpt>
      <trkpt lat="37.25747667" lon="-7.10971">
        <ele>56.0</ele>
        <time>2020-01-18T08:41:46.145Z</time>
      </trkpt>
      <trkpt lat="37.25750667" lon="-7.10974">
        <ele>56.0</ele>
        <time>2020-01-18T08:41:47.139Z</time>
      </trkpt>
      <trkpt lat="37.25752333" lon="-7.10975333">
        <ele>56.0</ele>
        <time>2020-01-18T08:41:48.151Z</time>
      </trkpt>
      <trkpt lat="37.25752333" lon="-7.10975333">
        <ele>56.0</ele>
        <time>2020-01-18T08:41:49.164Z</time>
      </trkpt>
      <trkpt lat="37.257555" lon="-7.10978333">
        <ele>57.0</ele>
        <time>2020-01-18T08:41:50.160Z</time>
      </trkpt>
      <trkpt lat="37.257555" lon="-7.10978333">
        <ele>57.0</ele>
        <time>2020-01-18T08:41:51.147Z</time>
      </trkpt>
      <trkpt lat="37.25758333" lon="-7.10981">
        <ele>57.0</ele>
        <time>2020-01-18T08:41:52.132Z</time>
      </trkpt>
      <trkpt lat="37.25758333" lon="-7.10981">
        <ele>57.0</ele>
        <time>2020-01-18T08:41:53.152Z</time>
      </trkpt>
      <trkpt lat="37.25761333" lon="-7.10983667">
        <ele>57.0</ele>
        <time>2020-01-18T08:41:54.153Z</time>
      </trkpt>
      <trkpt lat="37.25761333" lon="-7.10983667">
        <ele>57.0</ele>
        <time>2020-01-18T08:41:55.130Z</time>
      </trkpt>
      <trkpt lat="37.25764167" lon="-7.10986">
        <ele>58.0</ele>
        <time>2020-01-18T08:41:56.150Z</time>
      </trkpt>
      <trkpt lat="37.25765833" lon="-7.109875">
        <ele>58.0</ele>
        <time>2020-01-18T08:41:57.148Z</time>
      </trkpt>
      <trkpt lat="37.25765833" lon="-7.109875">
        <ele>58.0</ele>
        <time>2020-01-18T08:41:58.148Z</time>
      </trkpt>
      <trkpt lat="37.25769333" lon="-7.10990667">
        <ele>58.0</ele>
        <time>2020-01-18T08:41:59.132Z</time>
      </trkpt>
      <trkpt lat="37.25771" lon="-7.10992333">
        <ele>58.0</ele>
        <time>2020-01-18T08:42:00.152Z</time>
      </trkpt>
      <trkpt lat="37.25771" lon="-7.10992333">
        <ele>58.0</ele>
        <time>2020-01-18T08:42:01.147Z</time>
      </trkpt>
      <trkpt lat="37.25774" lon="-7.10994833">
        <ele>58.0</ele>
        <time>2020-01-18T08:42:02.166Z</time>
      </trkpt>
      <trkpt lat="37.25775167" lon="-7.10995833">
        <ele>58.0</ele>
        <time>2020-01-18T08:42:03.151Z</time>
      </trkpt>
      <trkpt lat="37.25775167" lon="-7.10995833">
        <ele>58.0</ele>
        <time>2020-01-18T08:42:04.165Z</time>
      </trkpt>
      <trkpt lat="37.25778333" lon="-7.10998167">
        <ele>59.0</ele>
        <time>2020-01-18T08:42:05.151Z</time>
      </trkpt>
      <trkpt lat="37.25778333" lon="-7.10998167">
        <ele>59.0</ele>
        <time>2020-01-18T08:42:06.165Z</time>
      </trkpt>
      <trkpt lat="37.257825" lon="-7.11000833">
        <ele>59.0</ele>
        <time>2020-01-18T08:42:07.161Z</time>
      </trkpt>
      <trkpt lat="37.257825" lon="-7.11000833">
        <ele>59.0</ele>
        <time>2020-01-18T08:42:08.151Z</time>
      </trkpt>
      <trkpt lat="37.25787167" lon="-7.11004833">
        <ele>59.0</ele>
        <time>2020-01-18T08:42:09.167Z</time>
      </trkpt>
      <trkpt lat="37.25789" lon="-7.11006833">
        <ele>59.0</ele>
        <time>2020-01-18T08:42:10.150Z</time>
      </trkpt>
      <trkpt lat="37.25791167" lon="-7.11009">
        <ele>59.0</ele>
        <time>2020-01-18T08:42:11.132Z</time>
      </trkpt>
      <trkpt lat="37.25791167" lon="-7.11009">
        <ele>59.0</ele>
        <time>2020-01-18T08:42:12.148Z</time>
      </trkpt>
      <trkpt lat="37.25795" lon="-7.11012667">
        <ele>59.0</ele>
        <time>2020-01-18T08:42:13.132Z</time>
      </trkpt>
      <trkpt lat="37.25795" lon="-7.11012667">
        <ele>59.0</ele>
        <time>2020-01-18T08:42:14.147Z</time>
      </trkpt>
      <trkpt lat="37.257975" lon="-7.11015333">
        <ele>58.0</ele>
        <time>2020-01-18T08:42:15.133Z</time>
      </trkpt>
      <trkpt lat="37.25798167" lon="-7.11016167">
        <ele>58.0</ele>
        <time>2020-01-18T08:42:16.151Z</time>
      </trkpt>
      <trkpt lat="37.25798167" lon="-7.11016167">
        <ele>58.0</ele>
        <time>2020-01-18T08:42:17.165Z</time>
      </trkpt>
      <trkpt lat="37.25798333" lon="-7.11017">
        <ele>58.0</ele>
        <time>2020-01-18T08:42:18.162Z</time>
      </trkpt>
      <trkpt lat="37.25798333" lon="-7.11017">
        <ele>58.0</ele>
        <time>2020-01-18T08:42:19.131Z</time>
      </trkpt>
      <trkpt lat="37.25798333" lon="-7.11017">
        <ele>58.0</ele>
        <time>2020-01-18T08:42:20.139Z</time>
      </trkpt>
      <trkpt lat="37.25798333" lon="-7.11017333">
        <ele>59.0</ele>
        <time>2020-01-18T08:42:21.144Z</time>
      </trkpt>
      <trkpt lat="37.25798333" lon="-7.11017333">
        <ele>59.0</ele>
        <time>2020-01-18T08:42:22.150Z</time>
      </trkpt>
      <trkpt lat="37.25798333" lon="-7.11017333">
        <ele>59.0</ele>
        <time>2020-01-18T08:42:23.162Z</time>
      </trkpt>
      <trkpt lat="37.25798333" lon="-7.11017333">
        <ele>59.0</ele>
        <time>2020-01-18T08:42:24.145Z</time>
      </trkpt>
      <trkpt lat="37.25798333" lon="-7.11017333">
        <ele>59.0</ele>
        <time>2020-01-18T08:42:25.166Z</time>
      </trkpt>
      <trkpt lat="37.25798333" lon="-7.11017333">
        <ele>59.0</ele>
        <time>2020-01-18T08:42:26.132Z</time>
      </trkpt>
      <trkpt lat="37.25798333" lon="-7.11017333">
        <ele>59.0</ele>
        <time>2020-01-18T08:42:27.162Z</time>
      </trkpt>
      <trkpt lat="37.25798333" lon="-7.11017333">
        <ele>59.0</ele>
        <time>2020-01-18T08:42:28.142Z</time>
      </trkpt>
      <trkpt lat="37.25798333" lon="-7.11017333">
        <ele>59.0</ele>
        <time>2020-01-18T08:42:29.155Z</time>
      </trkpt>
      <trkpt lat="37.25798333" lon="-7.11017333">
        <ele>59.0</ele>
        <time>2020-01-18T08:42:30.169Z</time>
      </trkpt>
      <trkpt lat="37.25798333" lon="-7.11017333">
        <ele>59.0</ele>
        <time>2020-01-18T08:42:31.167Z</time>
      </trkpt>
      <trkpt lat="37.25798333" lon="-7.11017333">
        <ele>59.0</ele>
        <time>2020-01-18T08:42:32.134Z</time>
      </trkpt>
      <trkpt lat="37.25798333" lon="-7.11017333">
        <ele>59.0</ele>
        <time>2020-01-18T08:42:33.140Z</time>
      </trkpt>
      <trkpt lat="37.25798333" lon="-7.11017333">
        <ele>59.0</ele>
        <time>2020-01-18T08:42:34.146Z</time>
      </trkpt>
      <trkpt lat="37.25798333" lon="-7.11017333">
        <ele>59.0</ele>
        <time>2020-01-18T08:42:35.162Z</time>
      </trkpt>
      <trkpt lat="37.25798333" lon="-7.11017333">
        <ele>59.0</ele>
        <time>2020-01-18T08:42:36.133Z</time>
      </trkpt>
      <trkpt lat="37.25798333" lon="-7.11017333">
        <ele>59.0</ele>
        <time>2020-01-18T08:42:37.145Z</time>
      </trkpt>
      <trkpt lat="37.25798333" lon="-7.11017333">
        <ele>59.0</ele>
        <time>2020-01-18T08:42:38.135Z</time>
      </trkpt>
      <trkpt lat="37.25798333" lon="-7.11017333">
        <ele>59.0</ele>
        <time>2020-01-18T08:42:39.160Z</time>
      </trkpt>
      <trkpt lat="37.25798333" lon="-7.11017333">
        <ele>59.0</ele>
        <time>2020-01-18T08:42:40.145Z</time>
      </trkpt>
      <trkpt lat="37.25798333" lon="-7.11017333">
        <ele>59.0</ele>
        <time>2020-01-18T08:42:41.167Z</time>
      </trkpt>
      <trkpt lat="37.25798333" lon="-7.11017333">
        <ele>59.0</ele>
        <time>2020-01-18T08:42:42.139Z</time>
      </trkpt>
      <trkpt lat="37.25798333" lon="-7.11017333">
        <ele>59.0</ele>
        <time>2020-01-18T08:42:43.167Z</time>
      </trkpt>
      <trkpt lat="37.25798333" lon="-7.11017333">
        <ele>59.0</ele>
        <time>2020-01-18T08:42:44.141Z</time>
      </trkpt>
      <trkpt lat="37.25798333" lon="-7.11017333">
        <ele>59.0</ele>
        <time>2020-01-18T08:42:45.159Z</time>
      </trkpt>
      <trkpt lat="37.25798333" lon="-7.11017333">
        <ele>59.0</ele>
        <time>2020-01-18T08:42:46.142Z</time>
      </trkpt>
      <trkpt lat="37.25798333" lon="-7.11017333">
        <ele>59.0</ele>
        <time>2020-01-18T08:42:47.131Z</time>
      </trkpt>
      <trkpt lat="37.25798333" lon="-7.11017333">
        <ele>59.0</ele>
        <time>2020-01-18T08:42:48.148Z</time>
      </trkpt>
      <trkpt lat="37.25798333" lon="-7.11017333">
        <ele>59.0</ele>
        <time>2020-01-18T08:42:49.132Z</time>
      </trkpt>
      <trkpt lat="37.25798333" lon="-7.11017333">
        <ele>59.0</ele>
        <time>2020-01-18T08:42:50.144Z</time>
      </trkpt>
      <trkpt lat="37.25798333" lon="-7.11017333">
        <ele>59.0</ele>
        <time>2020-01-18T08:42:51.129Z</time>
      </trkpt>
      <trkpt lat="37.25798333" lon="-7.11017333">
        <ele>59.0</ele>
        <time>2020-01-18T08:42:52.142Z</time>
      </trkpt>
      <trkpt lat="37.25798333" lon="-7.11017333">
        <ele>59.0</ele>
        <time>2020-01-18T08:42:53.166Z</time>
      </trkpt>
      <trkpt lat="37.25798333" lon="-7.11017333">
        <ele>59.0</ele>
        <time>2020-01-18T08:42:54.139Z</time>
      </trkpt>
      <trkpt lat="37.25798333" lon="-7.11017333">
        <ele>59.0</ele>
        <time>2020-01-18T08:42:55.129Z</time>
      </trkpt>
      <trkpt lat="37.25798333" lon="-7.11017333">
        <ele>59.0</ele>
        <time>2020-01-18T08:42:56.141Z</time>
      </trkpt>
      <trkpt lat="37.25798333" lon="-7.11017333">
        <ele>59.0</ele>
        <time>2020-01-18T08:42:57.129Z</time>
      </trkpt>
      <trkpt lat="37.25798333" lon="-7.11017333">
        <ele>59.0</ele>
        <time>2020-01-18T08:42:58.141Z</time>
      </trkpt>
      <trkpt lat="37.25798333" lon="-7.11017333">
        <ele>59.0</ele>
        <time>2020-01-18T08:42:59.131Z</time>
      </trkpt>
      <trkpt lat="37.25798333" lon="-7.11017333">
        <ele>59.0</ele>
        <time>2020-01-18T08:43:00.144Z</time>
      </trkpt>
      <trkpt lat="37.25798333" lon="-7.11017333">
        <ele>59.0</ele>
        <time>2020-01-18T08:43:01.132Z</time>
      </trkpt>
      <trkpt lat="37.25798333" lon="-7.11017333">
        <ele>59.0</ele>
        <time>2020-01-18T08:43:02.145Z</time>
      </trkpt>
      <trkpt lat="37.25798333" lon="-7.11017333">
        <ele>59.0</ele>
        <time>2020-01-18T08:43:03.132Z</time>
      </trkpt>
      <trkpt lat="37.25798333" lon="-7.11017333">
        <ele>59.0</ele>
        <time>2020-01-18T08:43:04.144Z</time>
      </trkpt>
      <trkpt lat="37.25798333" lon="-7.11017333">
        <ele>59.0</ele>
        <time>2020-01-18T08:43:05.131Z</time>
      </trkpt>
      <trkpt lat="37.25798333" lon="-7.11017333">
        <ele>59.0</ele>
        <time>2020-01-18T08:43:06.144Z</time>
      </trkpt>
      <trkpt lat="37.25798333" lon="-7.11017333">
        <ele>59.0</ele>
        <time>2020-01-18T08:43:07.132Z</time>
      </trkpt>
      <trkpt lat="37.25798333" lon="-7.11017333">
        <ele>59.0</ele>
        <time>2020-01-18T08:43:08.147Z</time>
      </trkpt>
      <trkpt lat="37.25798333" lon="-7.11017333">
        <ele>59.0</ele>
        <time>2020-01-18T08:43:09.139Z</time>
      </trkpt>
      <trkpt lat="37.25798333" lon="-7.11017333">
        <ele>59.0</ele>
        <time>2020-01-18T08:43:10.130Z</time>
      </trkpt>
      <trkpt lat="37.25798333" lon="-7.11017333">
        <ele>59.0</ele>
        <time>2020-01-18T08:43:11.144Z</time>
      </trkpt>
      <trkpt lat="37.25798333" lon="-7.11017333">
        <ele>59.0</ele>
        <time>2020-01-18T08:43:12.132Z</time>
      </trkpt>
      <trkpt lat="37.25798333" lon="-7.11017333">
        <ele>59.0</ele>
        <time>2020-01-18T08:43:13.144Z</time>
      </trkpt>
      <trkpt lat="37.25798333" lon="-7.11017333">
        <ele>59.0</ele>
        <time>2020-01-18T08:43:14.131Z</time>
      </trkpt>
      <trkpt lat="37.25798333" lon="-7.11017333">
        <ele>59.0</ele>
        <time>2020-01-18T08:43:15.144Z</time>
      </trkpt>
      <trkpt lat="37.25798333" lon="-7.11017333">
        <ele>59.0</ele>
        <time>2020-01-18T08:43:16.166Z</time>
      </trkpt>
      <trkpt lat="37.25798333" lon="-7.11017333">
        <ele>59.0</ele>
        <time>2020-01-18T08:43:17.139Z</time>
      </trkpt>
      <trkpt lat="37.25798333" lon="-7.11017333">
        <ele>59.0</ele>
        <time>2020-01-18T08:43:18.168Z</time>
      </trkpt>
      <trkpt lat="37.25798333" lon="-7.11017333">
        <ele>59.0</ele>
        <time>2020-01-18T08:43:19.144Z</time>
      </trkpt>
      <trkpt lat="37.25798333" lon="-7.11017333">
        <ele>59.0</ele>
        <time>2020-01-18T08:43:20.131Z</time>
      </trkpt>
      <trkpt lat="37.25798333" lon="-7.11017333">
        <ele>59.0</ele>
        <time>2020-01-18T08:43:21.144Z</time>
      </trkpt>
      <trkpt lat="37.25798333" lon="-7.11017333">
        <ele>59.0</ele>
        <time>2020-01-18T08:43:22.129Z</time>
      </trkpt>
      <trkpt lat="37.25798333" lon="-7.11017333">
        <ele>59.0</ele>
        <time>2020-01-18T08:43:23.141Z</time>
      </trkpt>
      <trkpt lat="37.25798333" lon="-7.11017333">
        <ele>59.0</ele>
        <time>2020-01-18T08:43:24.129Z</time>
      </trkpt>
      <trkpt lat="37.25798333" lon="-7.11017333">
        <ele>59.0</ele>
        <time>2020-01-18T08:43:25.144Z</time>
      </trkpt>
      <trkpt lat="37.25798333" lon="-7.11017333">
        <ele>59.0</ele>
        <time>2020-01-18T08:43:26.129Z</time>
      </trkpt>
      <trkpt lat="37.25798333" lon="-7.11017333">
        <ele>59.0</ele>
        <time>2020-01-18T08:43:27.141Z</time>
      </trkpt>
      <trkpt lat="37.25798333" lon="-7.11017333">
        <ele>59.0</ele>
        <time>2020-01-18T08:43:28.167Z</time>
      </trkpt>
      <trkpt lat="37.25799" lon="-7.11016">
        <ele>57.0</ele>
        <time>2020-01-18T08:43:29.151Z</time>
      </trkpt>
      <trkpt lat="37.25798167" lon="-7.11015333">
        <ele>57.0</ele>
        <time>2020-01-18T08:43:30.163Z</time>
      </trkpt>
      <trkpt lat="37.25797" lon="-7.11014167">
        <ele>57.0</ele>
        <time>2020-01-18T08:43:31.151Z</time>
      </trkpt>
      <trkpt lat="37.25797" lon="-7.11014167">
        <ele>57.0</ele>
        <time>2020-01-18T08:43:32.159Z</time>
      </trkpt>
      <trkpt lat="37.25793667" lon="-7.11012167">
        <ele>57.0</ele>
        <time>2020-01-18T08:43:33.142Z</time>
      </trkpt>
      <trkpt lat="37.25793667" lon="-7.11012167">
        <ele>57.0</ele>
        <time>2020-01-18T08:43:34.148Z</time>
      </trkpt>
      <trkpt lat="37.25790667" lon="-7.110095">
        <ele>57.0</ele>
        <time>2020-01-18T08:43:35.149Z</time>
      </trkpt>
      <trkpt lat="37.25789" lon="-7.11008167">
        <ele>57.0</ele>
        <time>2020-01-18T08:43:36.132Z</time>
      </trkpt>
      <trkpt lat="37.25787" lon="-7.11006333">
        <ele>57.0</ele>
        <time>2020-01-18T08:43:37.158Z</time>
      </trkpt>
      <trkpt lat="37.25787" lon="-7.11006333">
        <ele>57.0</ele>
        <time>2020-01-18T08:43:38.164Z</time>
      </trkpt>
      <trkpt lat="37.25783667" lon="-7.11002667">
        <ele>57.0</ele>
        <time>2020-01-18T08:43:39.143Z</time>
      </trkpt>
      <trkpt lat="37.25782167" lon="-7.11000833">
        <ele>57.0</ele>
        <time>2020-01-18T08:43:40.162Z</time>
      </trkpt>
      <trkpt lat="37.25782167" lon="-7.11000833">
        <ele>57.0</ele>
        <time>2020-01-18T08:43:41.169Z</time>
      </trkpt>
      <trkpt lat="37.25778833" lon="-7.10997833">
        <ele>58.0</ele>
        <time>2020-01-18T08:43:42.148Z</time>
      </trkpt>
      <trkpt lat="37.25777167" lon="-7.10996333">
        <ele>58.0</ele>
        <time>2020-01-18T08:43:43.134Z</time>
      </trkpt>
      <trkpt lat="37.25777167" lon="-7.10996333">
        <ele>58.0</ele>
        <time>2020-01-18T08:43:44.145Z</time>
      </trkpt>
      <trkpt lat="37.257745" lon="-7.10994">
        <ele>58.0</ele>
        <time>2020-01-18T08:43:45.149Z</time>
      </trkpt>
      <trkpt lat="37.257745" lon="-7.10994">
        <ele>58.0</ele>
        <time>2020-01-18T08:43:46.157Z</time>
      </trkpt>
      <trkpt lat="37.257715" lon="-7.109915">
        <ele>59.0</ele>
        <time>2020-01-18T08:43:47.140Z</time>
      </trkpt>
      <trkpt lat="37.257715" lon="-7.109915">
        <ele>59.0</ele>
        <time>2020-01-18T08:43:48.159Z</time>
      </trkpt>
      <trkpt lat="37.25767833" lon="-7.10988333">
        <ele>59.0</ele>
        <time>2020-01-18T08:43:49.134Z</time>
      </trkpt>
      <trkpt lat="37.25767833" lon="-7.10988333">
        <ele>59.0</ele>
        <time>2020-01-18T08:43:50.143Z</time>
      </trkpt>
      <trkpt lat="37.25763667" lon="-7.10984833">
        <ele>59.0</ele>
        <time>2020-01-18T08:43:51.167Z</time>
      </trkpt>
      <trkpt lat="37.25761167" lon="-7.10982667">
        <ele>59.0</ele>
        <time>2020-01-18T08:43:52.155Z</time>
      </trkpt>
      <trkpt lat="37.25761167" lon="-7.10982667">
        <ele>59.0</ele>
        <time>2020-01-18T08:43:53.164Z</time>
      </trkpt>
      <trkpt lat="37.25755833" lon="-7.10977667">
        <ele>59.0</ele>
        <time>2020-01-18T08:43:54.169Z</time>
      </trkpt>
      <trkpt lat="37.25755833" lon="-7.10977667">
        <ele>59.0</ele>
        <time>2020-01-18T08:43:55.135Z</time>
      </trkpt>
      <trkpt lat="37.25750333" lon="-7.10972833">
        <ele>59.0</ele>
        <time>2020-01-18T08:43:56.163Z</time>
      </trkpt>
      <trkpt lat="37.25750333" lon="-7.10972833">
        <ele>59.0</ele>
        <time>2020-01-18T08:43:57.133Z</time>
      </trkpt>
      <trkpt lat="37.25744833" lon="-7.10968667">
        <ele>58.0</ele>
        <time>2020-01-18T08:43:58.156Z</time>
      </trkpt>
      <trkpt lat="37.25742333" lon="-7.10966167">
        <ele>58.0</ele>
        <time>2020-01-18T08:43:59.139Z</time>
      </trkpt>
      <trkpt lat="37.25742333" lon="-7.10966167">
        <ele>58.0</ele>
        <time>2020-01-18T08:44:00.147Z</time>
      </trkpt>
      <trkpt lat="37.25738167" lon="-7.10960833">
        <ele>58.0</ele>
        <time>2020-01-18T08:44:01.161Z</time>
      </trkpt>
      <trkpt lat="37.25738167" lon="-7.10960833">
        <ele>58.0</ele>
        <time>2020-01-18T08:44:02.137Z</time>
      </trkpt>
      <trkpt lat="37.25733833" lon="-7.10956667">
        <ele>59.0</ele>
        <time>2020-01-18T08:44:03.146Z</time>
      </trkpt>
      <trkpt lat="37.25733833" lon="-7.10956667">
        <ele>59.0</ele>
        <time>2020-01-18T08:44:04.134Z</time>
      </trkpt>
      <trkpt lat="37.25730667" lon="-7.10951333">
        <ele>59.0</ele>
        <time>2020-01-18T08:44:05.153Z</time>
      </trkpt>
      <trkpt lat="37.25730667" lon="-7.10951333">
        <ele>59.0</ele>
        <time>2020-01-18T08:44:06.162Z</time>
      </trkpt>
      <trkpt lat="37.25727667" lon="-7.109465">
        <ele>59.0</ele>
        <time>2020-01-18T08:44:07.152Z</time>
      </trkpt>
      <trkpt lat="37.25727667" lon="-7.109465">
        <ele>59.0</ele>
        <time>2020-01-18T08:44:08.164Z</time>
      </trkpt>
      <trkpt lat="37.257245" lon="-7.10942667">
        <ele>59.0</ele>
        <time>2020-01-18T08:44:09.147Z</time>
      </trkpt>
      <trkpt lat="37.25723" lon="-7.10941">
        <ele>59.0</ele>
        <time>2020-01-18T08:44:10.163Z</time>
      </trkpt>
      <trkpt lat="37.25721833" lon="-7.10939667">
        <ele>59.0</ele>
        <time>2020-01-18T08:44:11.135Z</time>
      </trkpt>
      <trkpt lat="37.25721833" lon="-7.10939667">
        <ele>59.0</ele>
        <time>2020-01-18T08:44:12.147Z</time>
      </trkpt>
      <trkpt lat="37.25719167" lon="-7.10936">
        <ele>59.0</ele>
        <time>2020-01-18T08:44:13.152Z</time>
      </trkpt>
      <trkpt lat="37.25719167" lon="-7.10936">
        <ele>59.0</ele>
        <time>2020-01-18T08:44:14.162Z</time>
      </trkpt>
      <trkpt lat="37.25717" lon="-7.109325">
        <ele>59.0</ele>
        <time>2020-01-18T08:44:15.137Z</time>
      </trkpt>
      <trkpt lat="37.25716167" lon="-7.10930333">
        <ele>59.0</ele>
        <time>2020-01-18T08:44:16.131Z</time>
      </trkpt>
      <trkpt lat="37.25716167" lon="-7.10930333">
        <ele>59.0</ele>
        <time>2020-01-18T08:44:17.152Z</time>
      </trkpt>
      <trkpt lat="37.25714" lon="-7.109265">
        <ele>59.0</ele>
        <time>2020-01-18T08:44:18.149Z</time>
      </trkpt>
      <trkpt lat="37.25714" lon="-7.109265">
        <ele>59.0</ele>
        <time>2020-01-18T08:44:19.143Z</time>
      </trkpt>
      <trkpt lat="37.257115" lon="-7.10920667">
        <ele>59.0</ele>
        <time>2020-01-18T08:44:20.162Z</time>
      </trkpt>
      <trkpt lat="37.257115" lon="-7.10920667">
        <ele>59.0</ele>
        <time>2020-01-18T08:44:21.129Z</time>
      </trkpt>
      <trkpt lat="37.25710667" lon="-7.109145">
        <ele>59.0</ele>
        <time>2020-01-18T08:44:22.167Z</time>
      </trkpt>
      <trkpt lat="37.25710333" lon="-7.10911667">
        <ele>58.0</ele>
        <time>2020-01-18T08:44:23.154Z</time>
      </trkpt>
      <trkpt lat="37.25710333" lon="-7.10911667">
        <ele>58.0</ele>
        <time>2020-01-18T08:44:24.162Z</time>
      </trkpt>
      <trkpt lat="37.257105" lon="-7.10905167">
        <ele>58.0</ele>
        <time>2020-01-18T08:44:25.153Z</time>
      </trkpt>
      <trkpt lat="37.257105" lon="-7.10905167">
        <ele>58.0</ele>
        <time>2020-01-18T08:44:26.161Z</time>
      </trkpt>
      <trkpt lat="37.25709167" lon="-7.10897">
        <ele>57.0</ele>
        <time>2020-01-18T08:44:27.147Z</time>
      </trkpt>
      <trkpt lat="37.25709167" lon="-7.10892833">
        <ele>57.0</ele>
        <time>2020-01-18T08:44:28.139Z</time>
      </trkpt>
      <trkpt lat="37.25709167" lon="-7.10892833">
        <ele>57.0</ele>
        <time>2020-01-18T08:44:29.145Z</time>
      </trkpt>
      <trkpt lat="37.25709" lon="-7.10883833">
        <ele>57.0</ele>
        <time>2020-01-18T08:44:30.134Z</time>
      </trkpt>
      <trkpt lat="37.25708333" lon="-7.10879333">
        <ele>57.0</ele>
        <time>2020-01-18T08:44:31.142Z</time>
      </trkpt>
      <trkpt lat="37.25708333" lon="-7.10879333">
        <ele>57.0</ele>
        <time>2020-01-18T08:44:32.150Z</time>
      </trkpt>
      <trkpt lat="37.25705833" lon="-7.10871167">
        <ele>56.0</ele>
        <time>2020-01-18T08:44:33.147Z</time>
      </trkpt>
      <trkpt lat="37.25704333" lon="-7.10867">
        <ele>56.0</ele>
        <time>2020-01-18T08:44:34.135Z</time>
      </trkpt>
      <trkpt lat="37.257035" lon="-7.10863">
        <ele>56.0</ele>
        <time>2020-01-18T08:44:35.165Z</time>
      </trkpt>
      <trkpt lat="37.257035" lon="-7.10863">
        <ele>56.0</ele>
        <time>2020-01-18T08:44:36.132Z</time>
      </trkpt>
      <trkpt lat="37.257045" lon="-7.10857167">
        <ele>57.0</ele>
        <time>2020-01-18T08:44:37.142Z</time>
      </trkpt>
      <trkpt lat="37.257045" lon="-7.10857167">
        <ele>57.0</ele>
        <time>2020-01-18T08:44:38.147Z</time>
      </trkpt>
      <trkpt lat="37.25709333" lon="-7.10852167">
        <ele>56.0</ele>
        <time>2020-01-18T08:44:39.141Z</time>
      </trkpt>
      <trkpt lat="37.25711667" lon="-7.10849833">
        <ele>56.0</ele>
        <time>2020-01-18T08:44:40.166Z</time>
      </trkpt>
      <trkpt lat="37.25711667" lon="-7.10849833">
        <ele>56.0</ele>
        <time>2020-01-18T08:44:41.134Z</time>
      </trkpt>
      <trkpt lat="37.25717333" lon="-7.10844167">
        <ele>56.0</ele>
        <time>2020-01-18T08:44:42.132Z</time>
      </trkpt>
      <trkpt lat="37.25717333" lon="-7.10844167">
        <ele>56.0</ele>
        <time>2020-01-18T08:44:43.139Z</time>
      </trkpt>
      <trkpt lat="37.25725167" lon="-7.10837333">
        <ele>57.0</ele>
        <time>2020-01-18T08:44:44.159Z</time>
      </trkpt>
      <trkpt lat="37.25725167" lon="-7.10837333">
        <ele>57.0</ele>
        <time>2020-01-18T08:44:45.167Z</time>
      </trkpt>
      <trkpt lat="37.25734" lon="-7.10831667">
        <ele>58.0</ele>
        <time>2020-01-18T08:44:46.167Z</time>
      </trkpt>
      <trkpt lat="37.25734" lon="-7.10831667">
        <ele>58.0</ele>
        <time>2020-01-18T08:44:47.133Z</time>
      </trkpt>
      <trkpt lat="37.25741833" lon="-7.108255">
        <ele>58.0</ele>
        <time>2020-01-18T08:44:48.140Z</time>
      </trkpt>
      <trkpt lat="37.25744833" lon="-7.10820667">
        <ele>58.0</ele>
        <time>2020-01-18T08:44:49.132Z</time>
      </trkpt>
      <trkpt lat="37.25744833" lon="-7.10820667">
        <ele>58.0</ele>
        <time>2020-01-18T08:44:50.138Z</time>
      </trkpt>
      <trkpt lat="37.25751333" lon="-7.10812333">
        <ele>59.0</ele>
        <time>2020-01-18T08:44:51.132Z</time>
      </trkpt>
      <trkpt lat="37.257555" lon="-7.10809333">
        <ele>59.0</ele>
        <time>2020-01-18T08:44:52.163Z</time>
      </trkpt>
      <trkpt lat="37.25759333" lon="-7.108065">
        <ele>59.0</ele>
        <time>2020-01-18T08:44:53.147Z</time>
      </trkpt>
      <trkpt lat="37.25759333" lon="-7.108065">
        <ele>59.0</ele>
        <time>2020-01-18T08:44:54.159Z</time>
      </trkpt>
      <trkpt lat="37.25767333" lon="-7.10798167">
        <ele>60.0</ele>
        <time>2020-01-18T08:44:55.137Z</time>
      </trkpt>
      <trkpt lat="37.25767333" lon="-7.10798167">
        <ele>60.0</ele>
        <time>2020-01-18T08:44:56.143Z</time>
      </trkpt>
      <trkpt lat="37.25774333" lon="-7.10788">
        <ele>60.0</ele>
        <time>2020-01-18T08:44:57.149Z</time>
      </trkpt>
      <trkpt lat="37.25778" lon="-7.10782333">
        <ele>60.0</ele>
        <time>2020-01-18T08:44:58.135Z</time>
      </trkpt>
      <trkpt lat="37.25778" lon="-7.10782333">
        <ele>60.0</ele>
        <time>2020-01-18T08:44:59.140Z</time>
      </trkpt>
      <trkpt lat="37.257855" lon="-7.107715">
        <ele>61.0</ele>
        <time>2020-01-18T08:45:00.162Z</time>
      </trkpt>
      <trkpt lat="37.257895" lon="-7.10766333">
        <ele>62.0</ele>
        <time>2020-01-18T08:45:01.143Z</time>
      </trkpt>
      <trkpt lat="37.257895" lon="-7.10766333">
        <ele>62.0</ele>
        <time>2020-01-18T08:45:02.149Z</time>
      </trkpt>
      <trkpt lat="37.257975" lon="-7.107575">
        <ele>63.0</ele>
        <time>2020-01-18T08:45:03.157Z</time>
      </trkpt>
      <trkpt lat="37.25801167" lon="-7.10753">
        <ele>63.0</ele>
        <time>2020-01-18T08:45:04.140Z</time>
      </trkpt>
      <trkpt lat="37.25801167" lon="-7.10753">
        <ele>63.0</ele>
        <time>2020-01-18T08:45:05.145Z</time>
      </trkpt>
      <trkpt lat="37.25810833" lon="-7.10745833">
        <ele>64.0</ele>
        <time>2020-01-18T08:45:06.132Z</time>
      </trkpt>
      <trkpt lat="37.25810833" lon="-7.10745833">
        <ele>64.0</ele>
        <time>2020-01-18T08:45:07.135Z</time>
      </trkpt>
      <trkpt lat="37.25819167" lon="-7.10740833">
        <ele>64.0</ele>
        <time>2020-01-18T08:45:08.168Z</time>
      </trkpt>
      <trkpt lat="37.25819167" lon="-7.10740833">
        <ele>64.0</ele>
        <time>2020-01-18T08:45:09.134Z</time>
      </trkpt>
      <trkpt lat="37.25827" lon="-7.10736">
        <ele>65.0</ele>
        <time>2020-01-18T08:45:10.129Z</time>
      </trkpt>
      <trkpt lat="37.25827" lon="-7.10736">
        <ele>65.0</ele>
        <time>2020-01-18T08:45:11.134Z</time>
      </trkpt>
      <trkpt lat="37.25835667" lon="-7.10734333">
        <ele>66.0</ele>
        <time>2020-01-18T08:45:12.158Z</time>
      </trkpt>
      <trkpt lat="37.25835667" lon="-7.10734333">
        <ele>66.0</ele>
        <time>2020-01-18T08:45:13.165Z</time>
      </trkpt>
      <trkpt lat="37.25845667" lon="-7.10734">
        <ele>66.0</ele>
        <time>2020-01-18T08:45:14.146Z</time>
      </trkpt>
      <trkpt lat="37.25845667" lon="-7.10734">
        <ele>66.0</ele>
        <time>2020-01-18T08:45:15.152Z</time>
      </trkpt>
      <trkpt lat="37.25855167" lon="-7.10736167">
        <ele>67.0</ele>
        <time>2020-01-18T08:45:16.136Z</time>
      </trkpt>
      <trkpt lat="37.25860167" lon="-7.10737833">
        <ele>67.0</ele>
        <time>2020-01-18T08:45:17.163Z</time>
      </trkpt>
      <trkpt lat="37.25860167" lon="-7.10737833">
        <ele>67.0</ele>
        <time>2020-01-18T08:45:18.129Z</time>
      </trkpt>
      <trkpt lat="37.25869833" lon="-7.10740167">
        <ele>68.0</ele>
        <time>2020-01-18T08:45:19.158Z</time>
      </trkpt>
      <trkpt lat="37.25869833" lon="-7.10740167">
        <ele>68.0</ele>
        <time>2020-01-18T08:45:20.164Z</time>
      </trkpt>
      <trkpt lat="37.25879167" lon="-7.107465">
        <ele>69.0</ele>
        <time>2020-01-18T08:45:21.160Z</time>
      </trkpt>
      <trkpt lat="37.25879167" lon="-7.107465">
        <ele>69.0</ele>
        <time>2020-01-18T08:45:22.166Z</time>
      </trkpt>
      <trkpt lat="37.25886333" lon="-7.107585">
        <ele>70.0</ele>
        <time>2020-01-18T08:45:23.168Z</time>
      </trkpt>
      <trkpt lat="37.25886333" lon="-7.107585">
        <ele>70.0</ele>
        <time>2020-01-18T08:45:24.135Z</time>
      </trkpt>
      <trkpt lat="37.25892" lon="-7.10771167">
        <ele>70.0</ele>
        <time>2020-01-18T08:45:25.159Z</time>
      </trkpt>
      <trkpt lat="37.25892" lon="-7.10771167">
        <ele>70.0</ele>
        <time>2020-01-18T08:45:26.166Z</time>
      </trkpt>
      <trkpt lat="37.25898333" lon="-7.107815">
        <ele>71.0</ele>
        <time>2020-01-18T08:45:27.160Z</time>
      </trkpt>
      <trkpt lat="37.25901333" lon="-7.10786167">
        <ele>71.0</ele>
        <time>2020-01-18T08:45:28.167Z</time>
      </trkpt>
      <trkpt lat="37.25901333" lon="-7.10786167">
        <ele>71.0</ele>
        <time>2020-01-18T08:45:29.134Z</time>
      </trkpt>
      <trkpt lat="37.25906" lon="-7.107965">
        <ele>71.0</ele>
        <time>2020-01-18T08:45:30.152Z</time>
      </trkpt>
      <trkpt lat="37.25908333" lon="-7.108025">
        <ele>71.0</ele>
        <time>2020-01-18T08:45:31.161Z</time>
      </trkpt>
      <trkpt lat="37.25908333" lon="-7.108025">
        <ele>71.0</ele>
        <time>2020-01-18T08:45:32.129Z</time>
      </trkpt>
      <trkpt lat="37.25911167" lon="-7.10813667">
        <ele>71.0</ele>
        <time>2020-01-18T08:45:33.157Z</time>
      </trkpt>
      <trkpt lat="37.25911167" lon="-7.10813667">
        <ele>71.0</ele>
        <time>2020-01-18T08:45:34.163Z</time>
      </trkpt>
      <trkpt lat="37.25914833" lon="-7.10825167">
        <ele>70.0</ele>
        <time>2020-01-18T08:45:35.157Z</time>
      </trkpt>
      <trkpt lat="37.25914833" lon="-7.10825167">
        <ele>70.0</ele>
        <time>2020-01-18T08:45:36.163Z</time>
      </trkpt>
      <trkpt lat="37.25919833" lon="-7.10834833">
        <ele>70.0</ele>
        <time>2020-01-18T08:45:37.154Z</time>
      </trkpt>
      <trkpt lat="37.25919833" lon="-7.10834833">
        <ele>70.0</ele>
        <time>2020-01-18T08:45:38.161Z</time>
      </trkpt>
      <trkpt lat="37.25922667" lon="-7.10839833">
        <ele>71.0</ele>
        <time>2020-01-18T08:45:39.159Z</time>
      </trkpt>
      <trkpt lat="37.25923" lon="-7.10841833">
        <ele>71.0</ele>
        <time>2020-01-18T08:45:40.149Z</time>
      </trkpt>
      <trkpt lat="37.25923" lon="-7.10841833">
        <ele>71.0</ele>
        <time>2020-01-18T08:45:41.154Z</time>
      </trkpt>
      <trkpt lat="37.25921833" lon="-7.10846167">
        <ele>71.0</ele>
        <time>2020-01-18T08:45:42.142Z</time>
      </trkpt>
      <trkpt lat="37.25921167" lon="-7.10848">
        <ele>71.0</ele>
        <time>2020-01-18T08:45:43.143Z</time>
      </trkpt>
      <trkpt lat="37.25921167" lon="-7.10848">
        <ele>71.0</ele>
        <time>2020-01-18T08:45:44.148Z</time>
      </trkpt>
      <trkpt lat="37.25920167" lon="-7.10850167">
        <ele>71.0</ele>
        <time>2020-01-18T08:45:45.133Z</time>
      </trkpt>
      <trkpt lat="37.25920167" lon="-7.10850167">
        <ele>71.0</ele>
        <time>2020-01-18T08:45:46.139Z</time>
      </trkpt>
      <trkpt lat="37.259215" lon="-7.10853167">
        <ele>71.0</ele>
        <time>2020-01-18T08:45:47.145Z</time>
      </trkpt>
      <trkpt lat="37.259215" lon="-7.10853167">
        <ele>71.0</ele>
        <time>2020-01-18T08:45:48.151Z</time>
      </trkpt>
      <trkpt lat="37.25925" lon="-7.10854">
        <ele>72.0</ele>
        <time>2020-01-18T08:45:49.132Z</time>
      </trkpt>
      <trkpt lat="37.25925" lon="-7.10854">
        <ele>72.0</ele>
        <time>2020-01-18T08:45:50.152Z</time>
      </trkpt>
      <trkpt lat="37.25928667" lon="-7.10854333">
        <ele>72.0</ele>
        <time>2020-01-18T08:45:51.143Z</time>
      </trkpt>
      <trkpt lat="37.25928667" lon="-7.10854333">
        <ele>72.0</ele>
        <time>2020-01-18T08:45:52.148Z</time>
      </trkpt>
      <trkpt lat="37.25933167" lon="-7.10854333">
        <ele>72.0</ele>
        <time>2020-01-18T08:45:53.139Z</time>
      </trkpt>
      <trkpt lat="37.25935833" lon="-7.10854">
        <ele>72.0</ele>
        <time>2020-01-18T08:45:54.161Z</time>
      </trkpt>
      <trkpt lat="37.259385" lon="-7.10854167">
        <ele>72.0</ele>
        <time>2020-01-18T08:45:55.152Z</time>
      </trkpt>
      <trkpt lat="37.259385" lon="-7.10854167">
        <ele>72.0</ele>
        <time>2020-01-18T08:45:56.160Z</time>
      </trkpt>
      <trkpt lat="37.25943667" lon="-7.108555">
        <ele>73.0</ele>
        <time>2020-01-18T08:45:57.146Z</time>
      </trkpt>
      <trkpt lat="37.25946167" lon="-7.10856333">
        <ele>73.0</ele>
        <time>2020-01-18T08:45:58.140Z</time>
      </trkpt>
      <trkpt lat="37.25946167" lon="-7.10856333">
        <ele>73.0</ele>
        <time>2020-01-18T08:45:59.147Z</time>
      </trkpt>
      <trkpt lat="37.25951" lon="-7.10859833">
        <ele>73.0</ele>
        <time>2020-01-18T08:46:00.139Z</time>
      </trkpt>
      <trkpt lat="37.25952833" lon="-7.108625">
        <ele>72.0</ele>
        <time>2020-01-18T08:46:01.159Z</time>
      </trkpt>
      <trkpt lat="37.25952833" lon="-7.108625">
        <ele>72.0</ele>
        <time>2020-01-18T08:46:02.166Z</time>
      </trkpt>
      <trkpt lat="37.25956167" lon="-7.10868333">
        <ele>72.0</ele>
        <time>2020-01-18T08:46:03.164Z</time>
      </trkpt>
      <trkpt lat="37.25956167" lon="-7.10868333">
        <ele>72.0</ele>
        <time>2020-01-18T08:46:04.130Z</time>
      </trkpt>
      <trkpt lat="37.25958667" lon="-7.10874">
        <ele>71.0</ele>
        <time>2020-01-18T08:46:05.157Z</time>
      </trkpt>
      <trkpt lat="37.25958667" lon="-7.10874">
        <ele>71.0</ele>
        <time>2020-01-18T08:46:06.163Z</time>
      </trkpt>
      <trkpt lat="37.25962167" lon="-7.10881333">
        <ele>71.0</ele>
        <time>2020-01-18T08:46:07.152Z</time>
      </trkpt>
      <trkpt lat="37.25962167" lon="-7.10881333">
        <ele>71.0</ele>
        <time>2020-01-18T08:46:08.161Z</time>
      </trkpt>
      <trkpt lat="37.25963667" lon="-7.10886">
        <ele>71.0</ele>
        <time>2020-01-18T08:46:09.162Z</time>
      </trkpt>
      <trkpt lat="37.25963667" lon="-7.10886">
        <ele>71.0</ele>
        <time>2020-01-18T08:46:10.167Z</time>
      </trkpt>
      <trkpt lat="37.259645" lon="-7.108885">
        <ele>70.0</ele>
        <time>2020-01-18T08:46:11.156Z</time>
      </trkpt>
      <trkpt lat="37.259645" lon="-7.108885">
        <ele>70.0</ele>
        <time>2020-01-18T08:46:12.162Z</time>
      </trkpt>
      <trkpt lat="37.25964333" lon="-7.10891667">
        <ele>70.0</ele>
        <time>2020-01-18T08:46:13.151Z</time>
      </trkpt>
      <trkpt lat="37.25964333" lon="-7.10891667">
        <ele>70.0</ele>
        <time>2020-01-18T08:46:14.163Z</time>
      </trkpt>
      <trkpt lat="37.25964333" lon="-7.10895667">
        <ele>70.0</ele>
        <time>2020-01-18T08:46:15.150Z</time>
      </trkpt>
      <trkpt lat="37.25964333" lon="-7.10895667">
        <ele>70.0</ele>
        <time>2020-01-18T08:46:16.145Z</time>
      </trkpt>
      <trkpt lat="37.25964" lon="-7.109005">
        <ele>70.0</ele>
        <time>2020-01-18T08:46:17.132Z</time>
      </trkpt>
      <trkpt lat="37.25964" lon="-7.109005">
        <ele>70.0</ele>
        <time>2020-01-18T08:46:18.138Z</time>
      </trkpt>
      <trkpt lat="37.25962" lon="-7.10904833">
        <ele>70.0</ele>
        <time>2020-01-18T08:46:19.161Z</time>
      </trkpt>
      <trkpt lat="37.259615" lon="-7.10906833">
        <ele>70.0</ele>
        <time>2020-01-18T08:46:20.166Z</time>
      </trkpt>
      <trkpt lat="37.259615" lon="-7.10906833">
        <ele>70.0</ele>
        <time>2020-01-18T08:46:21.137Z</time>
      </trkpt>
      <trkpt lat="37.25960333" lon="-7.1091">
        <ele>69.0</ele>
        <time>2020-01-18T08:46:22.130Z</time>
      </trkpt>
      <trkpt lat="37.25960333" lon="-7.1091">
        <ele>69.0</ele>
        <time>2020-01-18T08:46:23.135Z</time>
      </trkpt>
      <trkpt lat="37.25959167" lon="-7.10911333">
        <ele>70.0</ele>
        <time>2020-01-18T08:46:24.145Z</time>
      </trkpt>
      <trkpt lat="37.25959167" lon="-7.10911333">
        <ele>70.0</ele>
        <time>2020-01-18T08:46:25.151Z</time>
      </trkpt>
      <trkpt lat="37.25958333" lon="-7.10912667">
        <ele>70.0</ele>
        <time>2020-01-18T08:46:26.139Z</time>
      </trkpt>
      <trkpt lat="37.25958333" lon="-7.10912667">
        <ele>70.0</ele>
        <time>2020-01-18T08:46:27.144Z</time>
      </trkpt>
      <trkpt lat="37.25946" lon="-7.10923833">
        <ele>71.0</ele>
        <time>2020-01-18T08:46:28.131Z</time>
      </trkpt>
      <trkpt lat="37.259455" lon="-7.109255">
        <ele>71.0</ele>
        <time>2020-01-18T08:46:29.143Z</time>
      </trkpt>
      <trkpt lat="37.259455" lon="-7.109255">
        <ele>71.0</ele>
        <time>2020-01-18T08:46:30.149Z</time>
      </trkpt>
      <trkpt lat="37.25943667" lon="-7.10928667">
        <ele>70.0</ele>
        <time>2020-01-18T08:46:31.131Z</time>
      </trkpt>
      <trkpt lat="37.25941833" lon="-7.10930333">
        <ele>70.0</ele>
        <time>2020-01-18T08:46:32.164Z</time>
      </trkpt>
      <trkpt lat="37.25941833" lon="-7.10930333">
        <ele>70.0</ele>
        <time>2020-01-18T08:46:33.160Z</time>
      </trkpt>
      <trkpt lat="37.25938833" lon="-7.10935333">
        <ele>70.0</ele>
        <time>2020-01-18T08:46:34.131Z</time>
      </trkpt>
      <trkpt lat="37.25938333" lon="-7.10937667">
        <ele>70.0</ele>
        <time>2020-01-18T08:46:35.169Z</time>
      </trkpt>
      <trkpt lat="37.25938333" lon="-7.10937667">
        <ele>70.0</ele>
        <time>2020-01-18T08:46:36.167Z</time>
      </trkpt>
      <trkpt lat="37.259375" lon="-7.109395">
        <ele>70.0</ele>
        <time>2020-01-18T08:46:37.140Z</time>
      </trkpt>
      <trkpt lat="37.259375" lon="-7.109395">
        <ele>70.0</ele>
        <time>2020-01-18T08:46:38.138Z</time>
      </trkpt>
      <trkpt lat="37.25936833" lon="-7.10941">
        <ele>69.0</ele>
        <time>2020-01-18T08:46:39.153Z</time>
      </trkpt>
      <trkpt lat="37.25936833" lon="-7.10941">
        <ele>69.0</ele>
        <time>2020-01-18T08:46:40.136Z</time>
      </trkpt>
      <trkpt lat="37.25936833" lon="-7.10941">
        <ele>69.0</ele>
        <time>2020-01-18T08:46:41.131Z</time>
      </trkpt>
      <trkpt lat="37.2595" lon="-7.10951667">
        <ele>66.0</ele>
        <time>2020-01-18T08:46:42.155Z</time>
      </trkpt>
      <trkpt lat="37.2595" lon="-7.10951667">
        <ele>66.0</ele>
        <time>2020-01-18T08:46:43.168Z</time>
      </trkpt>
      <trkpt lat="37.25952667" lon="-7.10958333">
        <ele>65.0</ele>
        <time>2020-01-18T08:46:44.148Z</time>
      </trkpt>
      <trkpt lat="37.25953167" lon="-7.109635">
        <ele>65.0</ele>
        <time>2020-01-18T08:46:45.138Z</time>
      </trkpt>
      <trkpt lat="37.25953167" lon="-7.109635">
        <ele>65.0</ele>
        <time>2020-01-18T08:46:46.157Z</time>
      </trkpt>
      <trkpt lat="37.25955167" lon="-7.109745">
        <ele>65.0</ele>
        <time>2020-01-18T08:46:47.131Z</time>
      </trkpt>
      <trkpt lat="37.25955167" lon="-7.109745">
        <ele>65.0</ele>
        <time>2020-01-18T08:46:48.156Z</time>
      </trkpt>
      <trkpt lat="37.25959" lon="-7.109835">
        <ele>65.0</ele>
        <time>2020-01-18T08:46:49.166Z</time>
      </trkpt>
      <trkpt lat="37.25961333" lon="-7.109865">
        <ele>65.0</ele>
        <time>2020-01-18T08:46:50.146Z</time>
      </trkpt>
      <trkpt lat="37.25961333" lon="-7.109865">
        <ele>65.0</ele>
        <time>2020-01-18T08:46:51.131Z</time>
      </trkpt>
      <trkpt lat="37.259645" lon="-7.10991167">
        <ele>65.0</ele>
        <time>2020-01-18T08:46:52.141Z</time>
      </trkpt>
      <trkpt lat="37.259645" lon="-7.10991167">
        <ele>65.0</ele>
        <time>2020-01-18T08:46:53.167Z</time>
      </trkpt>
      <trkpt lat="37.2597" lon="-7.10996833">
        <ele>65.0</ele>
        <time>2020-01-18T08:46:54.138Z</time>
      </trkpt>
      <trkpt lat="37.2597" lon="-7.10996833">
        <ele>65.0</ele>
        <time>2020-01-18T08:46:55.164Z</time>
      </trkpt>
      <trkpt lat="37.25974833" lon="-7.11002667">
        <ele>65.0</ele>
        <time>2020-01-18T08:46:56.144Z</time>
      </trkpt>
      <trkpt lat="37.25974833" lon="-7.11002667">
        <ele>65.0</ele>
        <time>2020-01-18T08:46:57.143Z</time>
      </trkpt>
      <trkpt lat="37.25979333" lon="-7.110085">
        <ele>65.0</ele>
        <time>2020-01-18T08:46:58.163Z</time>
      </trkpt>
      <trkpt lat="37.25981167" lon="-7.11010333">
        <ele>65.0</ele>
        <time>2020-01-18T08:46:59.152Z</time>
      </trkpt>
      <trkpt lat="37.25981167" lon="-7.11010333">
        <ele>65.0</ele>
        <time>2020-01-18T08:47:00.137Z</time>
      </trkpt>
      <trkpt lat="37.25985" lon="-7.11011">
        <ele>65.0</ele>
        <time>2020-01-18T08:47:01.132Z</time>
      </trkpt>
      <trkpt lat="37.259865" lon="-7.110105">
        <ele>65.0</ele>
        <time>2020-01-18T08:47:02.132Z</time>
      </trkpt>
      <trkpt lat="37.259865" lon="-7.110105">
        <ele>65.0</ele>
        <time>2020-01-18T08:47:03.153Z</time>
      </trkpt>
      <trkpt lat="37.25989333" lon="-7.11008667">
        <ele>66.0</ele>
        <time>2020-01-18T08:47:04.132Z</time>
      </trkpt>
      <trkpt lat="37.25989333" lon="-7.11008667">
        <ele>66.0</ele>
        <time>2020-01-18T08:47:05.145Z</time>
      </trkpt>
      <trkpt lat="37.25992167" lon="-7.11006833">
        <ele>66.0</ele>
        <time>2020-01-18T08:47:06.157Z</time>
      </trkpt>
      <trkpt lat="37.25992167" lon="-7.11006833">
        <ele>66.0</ele>
        <time>2020-01-18T08:47:07.159Z</time>
      </trkpt>
      <trkpt lat="37.25996167" lon="-7.11004167">
        <ele>66.0</ele>
        <time>2020-01-18T08:47:08.131Z</time>
      </trkpt>
      <trkpt lat="37.25996167" lon="-7.11004167">
        <ele>66.0</ele>
        <time>2020-01-18T08:47:09.130Z</time>
      </trkpt>
      <trkpt lat="37.25999833" lon="-7.10999667">
        <ele>66.0</ele>
        <time>2020-01-18T08:47:10.145Z</time>
      </trkpt>
      <trkpt lat="37.26003333" lon="-7.10997833">
        <ele>66.0</ele>
        <time>2020-01-18T08:47:11.145Z</time>
      </trkpt>
      <trkpt lat="37.26006667" lon="-7.10995667">
        <ele>66.0</ele>
        <time>2020-01-18T08:47:12.151Z</time>
      </trkpt>
      <trkpt lat="37.26006667" lon="-7.10995667">
        <ele>66.0</ele>
        <time>2020-01-18T08:47:13.167Z</time>
      </trkpt>
      <trkpt lat="37.260125" lon="-7.10990667">
        <ele>67.0</ele>
        <time>2020-01-18T08:47:14.137Z</time>
      </trkpt>
      <trkpt lat="37.260125" lon="-7.10990667">
        <ele>67.0</ele>
        <time>2020-01-18T08:47:15.159Z</time>
      </trkpt>
      <trkpt lat="37.26017833" lon="-7.10985333">
        <ele>67.0</ele>
        <time>2020-01-18T08:47:16.131Z</time>
      </trkpt>
      <trkpt lat="37.26020667" lon="-7.10983167">
        <ele>68.0</ele>
        <time>2020-01-18T08:47:17.139Z</time>
      </trkpt>
      <trkpt lat="37.26020667" lon="-7.10983167">
        <ele>68.0</ele>
        <time>2020-01-18T08:47:18.158Z</time>
      </trkpt>
      <trkpt lat="37.26027167" lon="-7.10981167">
        <ele>68.0</ele>
        <time>2020-01-18T08:47:19.167Z</time>
      </trkpt>
      <trkpt lat="37.26030167" lon="-7.109815">
        <ele>68.0</ele>
        <time>2020-01-18T08:47:20.164Z</time>
      </trkpt>
      <trkpt lat="37.26030167" lon="-7.109815">
        <ele>68.0</ele>
        <time>2020-01-18T08:47:21.145Z</time>
      </trkpt>
      <trkpt lat="37.260365" lon="-7.10981833">
        <ele>69.0</ele>
        <time>2020-01-18T08:47:22.163Z</time>
      </trkpt>
      <trkpt lat="37.260365" lon="-7.10981833">
        <ele>69.0</ele>
        <time>2020-01-18T08:47:23.165Z</time>
      </trkpt>
      <trkpt lat="37.26040167" lon="-7.10984">
        <ele>69.0</ele>
        <time>2020-01-18T08:47:24.148Z</time>
      </trkpt>
      <trkpt lat="37.26040167" lon="-7.10984">
        <ele>69.0</ele>
        <time>2020-01-18T08:47:25.168Z</time>
      </trkpt>
      <trkpt lat="37.26044167" lon="-7.10985667">
        <ele>70.0</ele>
        <time>2020-01-18T08:47:26.144Z</time>
      </trkpt>
      <trkpt lat="37.26044167" lon="-7.10985667">
        <ele>70.0</ele>
        <time>2020-01-18T08:47:27.133Z</time>
      </trkpt>
      <trkpt lat="37.26048" lon="-7.10989">
        <ele>70.0</ele>
        <time>2020-01-18T08:47:28.143Z</time>
      </trkpt>
      <trkpt lat="37.26048" lon="-7.10989">
        <ele>70.0</ele>
        <time>2020-01-18T08:47:29.141Z</time>
      </trkpt>
      <trkpt lat="37.26052833" lon="-7.10992">
        <ele>70.0</ele>
        <time>2020-01-18T08:47:30.155Z</time>
      </trkpt>
      <trkpt lat="37.26052833" lon="-7.10992">
        <ele>70.0</ele>
        <time>2020-01-18T08:47:31.145Z</time>
      </trkpt>
      <trkpt lat="37.26058333" lon="-7.10996">
        <ele>70.0</ele>
        <time>2020-01-18T08:47:32.169Z</time>
      </trkpt>
      <trkpt lat="37.26058333" lon="-7.10996">
        <ele>70.0</ele>
        <time>2020-01-18T08:47:33.130Z</time>
      </trkpt>
      <trkpt lat="37.26064333" lon="-7.11">
        <ele>69.0</ele>
        <time>2020-01-18T08:47:34.142Z</time>
      </trkpt>
      <trkpt lat="37.26066833" lon="-7.11003667">
        <ele>69.0</ele>
        <time>2020-01-18T08:47:35.142Z</time>
      </trkpt>
      <trkpt lat="37.26066833" lon="-7.11003667">
        <ele>69.0</ele>
        <time>2020-01-18T08:47:36.164Z</time>
      </trkpt>
      <trkpt lat="37.26070667" lon="-7.11007833">
        <ele>69.0</ele>
        <time>2020-01-18T08:47:37.145Z</time>
      </trkpt>
      <trkpt lat="37.260725" lon="-7.11009167">
        <ele>69.0</ele>
        <time>2020-01-18T08:47:38.184Z</time>
      </trkpt>
      <trkpt lat="37.260725" lon="-7.11009167">
        <ele>69.0</ele>
        <time>2020-01-18T08:47:39.159Z</time>
      </trkpt>
      <trkpt lat="37.26076333" lon="-7.11012167">
        <ele>69.0</ele>
        <time>2020-01-18T08:47:40.132Z</time>
      </trkpt>
      <trkpt lat="37.26076333" lon="-7.11012167">
        <ele>69.0</ele>
        <time>2020-01-18T08:47:41.131Z</time>
      </trkpt>
      <trkpt lat="37.26081" lon="-7.110145">
        <ele>70.0</ele>
        <time>2020-01-18T08:47:42.148Z</time>
      </trkpt>
      <trkpt lat="37.26082833" lon="-7.11015667">
        <ele>70.0</ele>
        <time>2020-01-18T08:47:43.163Z</time>
      </trkpt>
      <trkpt lat="37.26082833" lon="-7.11015667">
        <ele>70.0</ele>
        <time>2020-01-18T08:47:44.162Z</time>
      </trkpt>
      <trkpt lat="37.26086" lon="-7.11017333">
        <ele>70.0</ele>
        <time>2020-01-18T08:47:45.134Z</time>
      </trkpt>
      <trkpt lat="37.26086" lon="-7.11017333">
        <ele>70.0</ele>
        <time>2020-01-18T08:47:46.135Z</time>
      </trkpt>
      <trkpt lat="37.2609" lon="-7.11017667">
        <ele>69.0</ele>
        <time>2020-01-18T08:47:47.150Z</time>
      </trkpt>
      <trkpt lat="37.26092" lon="-7.11016833">
        <ele>69.0</ele>
        <time>2020-01-18T08:47:48.162Z</time>
      </trkpt>
      <trkpt lat="37.26092" lon="-7.11016833">
        <ele>69.0</ele>
        <time>2020-01-18T08:47:49.140Z</time>
      </trkpt>
      <trkpt lat="37.26096167" lon="-7.11015833">
        <ele>69.0</ele>
        <time>2020-01-18T08:47:50.157Z</time>
      </trkpt>
      <trkpt lat="37.26096167" lon="-7.11015833">
        <ele>69.0</ele>
        <time>2020-01-18T08:47:51.143Z</time>
      </trkpt>
      <trkpt lat="37.26099333" lon="-7.11013833">
        <ele>69.0</ele>
        <time>2020-01-18T08:47:52.162Z</time>
      </trkpt>
      <trkpt lat="37.26099333" lon="-7.11013833">
        <ele>69.0</ele>
        <time>2020-01-18T08:47:53.160Z</time>
      </trkpt>
      <trkpt lat="37.26101" lon="-7.11013167">
        <ele>69.0</ele>
        <time>2020-01-18T08:47:54.140Z</time>
      </trkpt>
      <trkpt lat="37.26101" lon="-7.11013167">
        <ele>69.0</ele>
        <time>2020-01-18T08:47:55.157Z</time>
      </trkpt>
      <trkpt lat="37.261015" lon="-7.110135">
        <ele>68.0</ele>
        <time>2020-01-18T08:47:56.169Z</time>
      </trkpt>
      <trkpt lat="37.261015" lon="-7.110135">
        <ele>68.0</ele>
        <time>2020-01-18T08:47:57.129Z</time>
      </trkpt>
      <trkpt lat="37.26141667" lon="-7.11015667">
        <ele>62.0</ele>
        <time>2020-01-18T08:47:58.135Z</time>
      </trkpt>
      <trkpt lat="37.26141667" lon="-7.11015667">
        <ele>62.0</ele>
        <time>2020-01-18T08:47:59.149Z</time>
      </trkpt>
      <trkpt lat="37.261455" lon="-7.11018333">
        <ele>62.0</ele>
        <time>2020-01-18T08:48:00.137Z</time>
      </trkpt>
      <trkpt lat="37.26147833" lon="-7.11019833">
        <ele>62.0</ele>
        <time>2020-01-18T08:48:01.155Z</time>
      </trkpt>
      <trkpt lat="37.26147833" lon="-7.11019833">
        <ele>62.0</ele>
        <time>2020-01-18T08:48:02.163Z</time>
      </trkpt>
      <trkpt lat="37.26151833" lon="-7.11022">
        <ele>62.0</ele>
        <time>2020-01-18T08:48:03.133Z</time>
      </trkpt>
      <trkpt lat="37.26151833" lon="-7.11022">
        <ele>62.0</ele>
        <time>2020-01-18T08:48:04.161Z</time>
      </trkpt>
      <trkpt lat="37.261545" lon="-7.11023167">
        <ele>62.0</ele>
        <time>2020-01-18T08:48:05.134Z</time>
      </trkpt>
      <trkpt lat="37.261545" lon="-7.11023167">
        <ele>62.0</ele>
        <time>2020-01-18T08:48:06.168Z</time>
      </trkpt>
      <trkpt lat="37.26156" lon="-7.11023667">
        <ele>63.0</ele>
        <time>2020-01-18T08:48:07.138Z</time>
      </trkpt>
      <trkpt lat="37.26156" lon="-7.11023667">
        <ele>63.0</ele>
        <time>2020-01-18T08:48:08.131Z</time>
      </trkpt>
      <trkpt lat="37.26158333" lon="-7.11025833">
        <ele>63.0</ele>
        <time>2020-01-18T08:48:09.146Z</time>
      </trkpt>
      <trkpt lat="37.26160333" lon="-7.11027">
        <ele>63.0</ele>
        <time>2020-01-18T08:48:10.137Z</time>
      </trkpt>
      <trkpt lat="37.26160333" lon="-7.11027">
        <ele>63.0</ele>
        <time>2020-01-18T08:48:11.129Z</time>
      </trkpt>
      <trkpt lat="37.261845" lon="-7.11032333">
        <ele>66.0</ele>
        <time>2020-01-18T08:48:12.135Z</time>
      </trkpt>
      <trkpt lat="37.261845" lon="-7.11032333">
        <ele>66.0</ele>
        <time>2020-01-18T08:48:13.141Z</time>
      </trkpt>
      <trkpt lat="37.26190667" lon="-7.11030667">
        <ele>66.0</ele>
        <time>2020-01-18T08:48:14.149Z</time>
      </trkpt>
      <trkpt lat="37.26190667" lon="-7.11030667">
        <ele>66.0</ele>
        <time>2020-01-18T08:48:15.158Z</time>
      </trkpt>
      <trkpt lat="37.26196333" lon="-7.11029">
        <ele>66.0</ele>
        <time>2020-01-18T08:48:16.164Z</time>
      </trkpt>
      <trkpt lat="37.26196333" lon="-7.11029">
        <ele>66.0</ele>
        <time>2020-01-18T08:48:17.130Z</time>
      </trkpt>
      <trkpt lat="37.26201833" lon="-7.110285">
        <ele>67.0</ele>
        <time>2020-01-18T08:48:18.163Z</time>
      </trkpt>
      <trkpt lat="37.26201833" lon="-7.110285">
        <ele>67.0</ele>
        <time>2020-01-18T08:48:19.129Z</time>
      </trkpt>
      <trkpt lat="37.26208333" lon="-7.11029333">
        <ele>68.0</ele>
        <time>2020-01-18T08:48:20.160Z</time>
      </trkpt>
      <trkpt lat="37.26208333" lon="-7.11029333">
        <ele>68.0</ele>
        <time>2020-01-18T08:48:21.168Z</time>
      </trkpt>
      <trkpt lat="37.26214" lon="-7.11029833">
        <ele>69.0</ele>
        <time>2020-01-18T08:48:22.157Z</time>
      </trkpt>
      <trkpt lat="37.262165" lon="-7.110305">
        <ele>69.0</ele>
        <time>2020-01-18T08:48:23.152Z</time>
      </trkpt>
      <trkpt lat="37.262165" lon="-7.110305">
        <ele>69.0</ele>
        <time>2020-01-18T08:48:24.159Z</time>
      </trkpt>
      <trkpt lat="37.26221" lon="-7.11032167">
        <ele>69.0</ele>
        <time>2020-01-18T08:48:25.151Z</time>
      </trkpt>
      <trkpt lat="37.26221" lon="-7.11032167">
        <ele>69.0</ele>
        <time>2020-01-18T08:48:26.160Z</time>
      </trkpt>
      <trkpt lat="37.26226667" lon="-7.11034">
        <ele>69.0</ele>
        <time>2020-01-18T08:48:27.153Z</time>
      </trkpt>
      <trkpt lat="37.26226667" lon="-7.11034">
        <ele>69.0</ele>
        <time>2020-01-18T08:48:28.159Z</time>
      </trkpt>
      <trkpt lat="37.26232" lon="-7.11035833">
        <ele>70.0</ele>
        <time>2020-01-18T08:48:29.138Z</time>
      </trkpt>
      <trkpt lat="37.26232" lon="-7.11035833">
        <ele>70.0</ele>
        <time>2020-01-18T08:48:30.144Z</time>
      </trkpt>
      <trkpt lat="37.26237333" lon="-7.11037667">
        <ele>70.0</ele>
        <time>2020-01-18T08:48:31.165Z</time>
      </trkpt>
      <trkpt lat="37.26237333" lon="-7.11037667">
        <ele>70.0</ele>
        <time>2020-01-18T08:48:32.133Z</time>
      </trkpt>
      <trkpt lat="37.26243" lon="-7.11040833">
        <ele>70.0</ele>
        <time>2020-01-18T08:48:33.160Z</time>
      </trkpt>
      <trkpt lat="37.26246" lon="-7.11042167">
        <ele>70.0</ele>
        <time>2020-01-18T08:48:34.150Z</time>
      </trkpt>
      <trkpt lat="37.26246" lon="-7.11042167">
        <ele>70.0</ele>
        <time>2020-01-18T08:48:35.156Z</time>
      </trkpt>
      <trkpt lat="37.262515" lon="-7.11045167">
        <ele>70.0</ele>
        <time>2020-01-18T08:48:36.134Z</time>
      </trkpt>
      <trkpt lat="37.262515" lon="-7.11045167">
        <ele>70.0</ele>
        <time>2020-01-18T08:48:37.141Z</time>
      </trkpt>
      <trkpt lat="37.26258" lon="-7.11046833">
        <ele>70.0</ele>
        <time>2020-01-18T08:48:38.131Z</time>
      </trkpt>
      <trkpt lat="37.26258" lon="-7.11046833">
        <ele>70.0</ele>
        <time>2020-01-18T08:48:39.139Z</time>
      </trkpt>
      <trkpt lat="37.26265833" lon="-7.11048">
        <ele>70.0</ele>
        <time>2020-01-18T08:48:40.130Z</time>
      </trkpt>
      <trkpt lat="37.26265833" lon="-7.11048">
        <ele>70.0</ele>
        <time>2020-01-18T08:48:41.142Z</time>
      </trkpt>
      <trkpt lat="37.26272833" lon="-7.11048667">
        <ele>70.0</ele>
        <time>2020-01-18T08:48:42.138Z</time>
      </trkpt>
      <trkpt lat="37.26276" lon="-7.11049167">
        <ele>71.0</ele>
        <time>2020-01-18T08:48:43.161Z</time>
      </trkpt>
      <trkpt lat="37.26276" lon="-7.11049167">
        <ele>71.0</ele>
        <time>2020-01-18T08:48:44.166Z</time>
      </trkpt>
      <trkpt lat="37.26282" lon="-7.110525">
        <ele>71.0</ele>
        <time>2020-01-18T08:48:45.152Z</time>
      </trkpt>
      <trkpt lat="37.26284333" lon="-7.11054333">
        <ele>71.0</ele>
        <time>2020-01-18T08:48:46.149Z</time>
      </trkpt>
      <trkpt lat="37.26284333" lon="-7.11054333">
        <ele>71.0</ele>
        <time>2020-01-18T08:48:47.154Z</time>
      </trkpt>
      <trkpt lat="37.26291333" lon="-7.110595">
        <ele>71.0</ele>
        <time>2020-01-18T08:48:48.147Z</time>
      </trkpt>
      <trkpt lat="37.26295167" lon="-7.11063333">
        <ele>71.0</ele>
        <time>2020-01-18T08:48:49.129Z</time>
      </trkpt>
      <trkpt lat="37.26295167" lon="-7.11063333">
        <ele>71.0</ele>
        <time>2020-01-18T08:48:50.136Z</time>
      </trkpt>
      <trkpt lat="37.26301333" lon="-7.11072333">
        <ele>72.0</ele>
        <time>2020-01-18T08:48:51.167Z</time>
      </trkpt>
      <trkpt lat="37.26305" lon="-7.110765">
        <ele>72.0</ele>
        <time>2020-01-18T08:48:52.153Z</time>
      </trkpt>
      <trkpt lat="37.26305" lon="-7.110765">
        <ele>72.0</ele>
        <time>2020-01-18T08:48:53.158Z</time>
      </trkpt>
      <trkpt lat="37.26312" lon="-7.11085833">
        <ele>73.0</ele>
        <time>2020-01-18T08:48:54.141Z</time>
      </trkpt>
      <trkpt lat="37.26314833" lon="-7.11089833">
        <ele>73.0</ele>
        <time>2020-01-18T08:48:55.164Z</time>
      </trkpt>
      <trkpt lat="37.26317167" lon="-7.11092667">
        <ele>73.0</ele>
        <time>2020-01-18T08:48:56.165Z</time>
      </trkpt>
      <trkpt lat="37.26317167" lon="-7.11092667">
        <ele>73.0</ele>
        <time>2020-01-18T08:48:57.130Z</time>
      </trkpt>
      <trkpt lat="37.263195" lon="-7.11096333">
        <ele>74.0</ele>
        <time>2020-01-18T08:48:58.160Z</time>
      </trkpt>
      <trkpt lat="37.26320333" lon="-7.110985">
        <ele>74.0</ele>
        <time>2020-01-18T08:48:59.140Z</time>
      </trkpt>
      <trkpt lat="37.26321333" lon="-7.11100333">
        <ele>74.0</ele>
        <time>2020-01-18T08:49:00.130Z</time>
      </trkpt>
      <trkpt lat="37.26321333" lon="-7.11100333">
        <ele>74.0</ele>
        <time>2020-01-18T08:49:01.139Z</time>
      </trkpt>
      <trkpt lat="37.26323833" lon="-7.11104">
        <ele>75.0</ele>
        <time>2020-01-18T08:49:02.130Z</time>
      </trkpt>
      <trkpt lat="37.26323833" lon="-7.11104">
        <ele>75.0</ele>
        <time>2020-01-18T08:49:03.137Z</time>
      </trkpt>
      <trkpt lat="37.26326333" lon="-7.11106833">
        <ele>75.0</ele>
        <time>2020-01-18T08:49:04.160Z</time>
      </trkpt>
      <trkpt lat="37.26326333" lon="-7.11106833">
        <ele>75.0</ele>
        <time>2020-01-18T08:49:05.166Z</time>
      </trkpt>
      <trkpt lat="37.26328833" lon="-7.1111">
        <ele>76.0</ele>
        <time>2020-01-18T08:49:06.167Z</time>
      </trkpt>
      <trkpt lat="37.26328833" lon="-7.1111">
        <ele>76.0</ele>
        <time>2020-01-18T08:49:07.133Z</time>
      </trkpt>
      <trkpt lat="37.26331833" lon="-7.11112167">
        <ele>76.0</ele>
        <time>2020-01-18T08:49:08.160Z</time>
      </trkpt>
      <trkpt lat="37.26333333" lon="-7.11112667">
        <ele>76.0</ele>
        <time>2020-01-18T08:49:09.151Z</time>
      </trkpt>
      <trkpt lat="37.26335" lon="-7.111135">
        <ele>76.0</ele>
        <time>2020-01-18T08:49:10.129Z</time>
      </trkpt>
      <trkpt lat="37.26335" lon="-7.111135">
        <ele>76.0</ele>
        <time>2020-01-18T08:49:11.137Z</time>
      </trkpt>
      <trkpt lat="37.26339167" lon="-7.11115167">
        <ele>76.0</ele>
        <time>2020-01-18T08:49:12.158Z</time>
      </trkpt>
      <trkpt lat="37.26339167" lon="-7.11115167">
        <ele>76.0</ele>
        <time>2020-01-18T08:49:13.166Z</time>
      </trkpt>
      <trkpt lat="37.26342167" lon="-7.11115833">
        <ele>76.0</ele>
        <time>2020-01-18T08:49:14.160Z</time>
      </trkpt>
      <trkpt lat="37.26342167" lon="-7.11115833">
        <ele>76.0</ele>
        <time>2020-01-18T08:49:15.168Z</time>
      </trkpt>
      <trkpt lat="37.26345" lon="-7.11116">
        <ele>75.0</ele>
        <time>2020-01-18T08:49:16.133Z</time>
      </trkpt>
      <trkpt lat="37.26345" lon="-7.11116">
        <ele>75.0</ele>
        <time>2020-01-18T08:49:17.141Z</time>
      </trkpt>
      <trkpt lat="37.26347667" lon="-7.11116">
        <ele>75.0</ele>
        <time>2020-01-18T08:49:18.161Z</time>
      </trkpt>
      <trkpt lat="37.26349833" lon="-7.11115333">
        <ele>73.0</ele>
        <time>2020-01-18T08:49:19.152Z</time>
      </trkpt>
      <trkpt lat="37.263495" lon="-7.11117333">
        <ele>72.0</ele>
        <time>2020-01-18T08:49:20.141Z</time>
      </trkpt>
      <trkpt lat="37.263495" lon="-7.11117333">
        <ele>72.0</ele>
        <time>2020-01-18T08:49:21.147Z</time>
      </trkpt>
      <trkpt lat="37.26350167" lon="-7.11117833">
        <ele>72.0</ele>
        <time>2020-01-18T08:49:22.168Z</time>
      </trkpt>
      <trkpt lat="37.26350167" lon="-7.11117833">
        <ele>72.0</ele>
        <time>2020-01-18T08:49:23.130Z</time>
      </trkpt>
      <trkpt lat="37.26393" lon="-7.11120167">
        <ele>69.0</ele>
        <time>2020-01-18T08:49:24.180Z</time>
      </trkpt>
      <trkpt lat="37.26393" lon="-7.11120167">
        <ele>69.0</ele>
        <time>2020-01-18T08:49:25.151Z</time>
      </trkpt>
      <trkpt lat="37.26394" lon="-7.11120333">
        <ele>68.0</ele>
        <time>2020-01-18T08:49:26.168Z</time>
      </trkpt>
      <trkpt lat="37.26394" lon="-7.11120333">
        <ele>68.0</ele>
        <time>2020-01-18T08:49:27.158Z</time>
      </trkpt>
      <trkpt lat="37.26394667" lon="-7.111205">
        <ele>68.0</ele>
        <time>2020-01-18T08:49:28.132Z</time>
      </trkpt>
      <trkpt lat="37.26394667" lon="-7.111205">
        <ele>68.0</ele>
        <time>2020-01-18T08:49:29.150Z</time>
      </trkpt>
      <trkpt lat="37.26405333" lon="-7.11123167">
        <ele>68.0</ele>
        <time>2020-01-18T08:49:30.133Z</time>
      </trkpt>
      <trkpt lat="37.26405333" lon="-7.11123167">
        <ele>68.0</ele>
        <time>2020-01-18T08:49:31.143Z</time>
      </trkpt>
      <trkpt lat="37.26409" lon="-7.11124667">
        <ele>68.0</ele>
        <time>2020-01-18T08:49:32.168Z</time>
      </trkpt>
      <trkpt lat="37.26409" lon="-7.11124667">
        <ele>68.0</ele>
        <time>2020-01-18T08:49:33.159Z</time>
      </trkpt>
      <trkpt lat="37.264135" lon="-7.11126833">
        <ele>68.0</ele>
        <time>2020-01-18T08:49:34.130Z</time>
      </trkpt>
      <trkpt lat="37.264135" lon="-7.11126833">
        <ele>68.0</ele>
        <time>2020-01-18T08:49:35.166Z</time>
      </trkpt>
      <trkpt lat="37.26419" lon="-7.11129">
        <ele>68.0</ele>
        <time>2020-01-18T08:49:36.135Z</time>
      </trkpt>
      <trkpt lat="37.26422" lon="-7.11130333">
        <ele>68.0</ele>
        <time>2020-01-18T08:49:37.167Z</time>
      </trkpt>
      <trkpt lat="37.26422" lon="-7.11130333">
        <ele>68.0</ele>
        <time>2020-01-18T08:49:38.131Z</time>
      </trkpt>
      <trkpt lat="37.26428167" lon="-7.11131667">
        <ele>68.0</ele>
        <time>2020-01-18T08:49:39.148Z</time>
      </trkpt>
      <trkpt lat="37.26431167" lon="-7.11132667">
        <ele>69.0</ele>
        <time>2020-01-18T08:49:40.132Z</time>
      </trkpt>
      <trkpt lat="37.26431167" lon="-7.11132667">
        <ele>69.0</ele>
        <time>2020-01-18T08:49:41.167Z</time>
      </trkpt>
      <trkpt lat="37.26437833" lon="-7.11134833">
        <ele>69.0</ele>
        <time>2020-01-18T08:49:42.145Z</time>
      </trkpt>
      <trkpt lat="37.26437833" lon="-7.11134833">
        <ele>69.0</ele>
        <time>2020-01-18T08:49:43.133Z</time>
      </trkpt>
      <trkpt lat="37.264445" lon="-7.11133167">
        <ele>67.0</ele>
        <time>2020-01-18T08:49:44.152Z</time>
      </trkpt>
      <trkpt lat="37.26446833" lon="-7.11130667">
        <ele>66.0</ele>
        <time>2020-01-18T08:49:45.163Z</time>
      </trkpt>
      <trkpt lat="37.26446833" lon="-7.11130667">
        <ele>66.0</ele>
        <time>2020-01-18T08:49:46.148Z</time>
      </trkpt>
      <trkpt lat="37.26449833" lon="-7.11124167">
        <ele>66.0</ele>
        <time>2020-01-18T08:49:47.158Z</time>
      </trkpt>
      <trkpt lat="37.26449333" lon="-7.11121333">
        <ele>65.0</ele>
        <time>2020-01-18T08:49:48.168Z</time>
      </trkpt>
      <trkpt lat="37.26449333" lon="-7.11121333">
        <ele>65.0</ele>
        <time>2020-01-18T08:49:49.155Z</time>
      </trkpt>
      <trkpt lat="37.26447" lon="-7.11116">
        <ele>66.0</ele>
        <time>2020-01-18T08:49:50.155Z</time>
      </trkpt>
      <trkpt lat="37.26447" lon="-7.11116">
        <ele>66.0</ele>
        <time>2020-01-18T08:49:51.136Z</time>
      </trkpt>
      <trkpt lat="37.26443167" lon="-7.111115">
        <ele>66.0</ele>
        <time>2020-01-18T08:49:52.159Z</time>
      </trkpt>
      <trkpt lat="37.26440833" lon="-7.11108">
        <ele>66.0</ele>
        <time>2020-01-18T08:49:53.129Z</time>
      </trkpt>
      <trkpt lat="37.26440833" lon="-7.11108">
        <ele>66.0</ele>
        <time>2020-01-18T08:49:54.165Z</time>
      </trkpt>
      <trkpt lat="37.26438333" lon="-7.11101833">
        <ele>66.0</ele>
        <time>2020-01-18T08:49:55.135Z</time>
      </trkpt>
      <trkpt lat="37.26436833" lon="-7.11098833">
        <ele>66.0</ele>
        <time>2020-01-18T08:49:56.157Z</time>
      </trkpt>
      <trkpt lat="37.26436833" lon="-7.11098833">
        <ele>66.0</ele>
        <time>2020-01-18T08:49:57.155Z</time>
      </trkpt>
      <trkpt lat="37.26435" lon="-7.11094167">
        <ele>67.0</ele>
        <time>2020-01-18T08:49:58.129Z</time>
      </trkpt>
      <trkpt lat="37.26435" lon="-7.11094167">
        <ele>67.0</ele>
        <time>2020-01-18T08:49:59.145Z</time>
      </trkpt>
      <trkpt lat="37.26433667" lon="-7.11090833">
        <ele>67.0</ele>
        <time>2020-01-18T08:50:00.143Z</time>
      </trkpt>
      <trkpt lat="37.26432833" lon="-7.11089167">
        <ele>67.0</ele>
        <time>2020-01-18T08:50:01.146Z</time>
      </trkpt>
      <trkpt lat="37.26432833" lon="-7.11089167">
        <ele>67.0</ele>
        <time>2020-01-18T08:50:02.142Z</time>
      </trkpt>
      <trkpt lat="37.26431333" lon="-7.11086167">
        <ele>67.0</ele>
        <time>2020-01-18T08:50:03.167Z</time>
      </trkpt>
      <trkpt lat="37.26431333" lon="-7.11086167">
        <ele>67.0</ele>
        <time>2020-01-18T08:50:04.164Z</time>
      </trkpt>
      <trkpt lat="37.26431333" lon="-7.11085333">
        <ele>67.0</ele>
        <time>2020-01-18T08:50:05.137Z</time>
      </trkpt>
      <trkpt lat="37.26431167" lon="-7.11085333">
        <ele>67.0</ele>
        <time>2020-01-18T08:50:06.132Z</time>
      </trkpt>
      <trkpt lat="37.26431167" lon="-7.11085333">
        <ele>67.0</ele>
        <time>2020-01-18T08:50:07.167Z</time>
      </trkpt>
      <trkpt lat="37.26431167" lon="-7.11085333">
        <ele>67.0</ele>
        <time>2020-01-18T08:50:08.133Z</time>
      </trkpt>
      <trkpt lat="37.26431167" lon="-7.11085333">
        <ele>67.0</ele>
        <time>2020-01-18T08:50:09.139Z</time>
      </trkpt>
      <trkpt lat="37.26431167" lon="-7.11085333">
        <ele>67.0</ele>
        <time>2020-01-18T08:50:10.141Z</time>
      </trkpt>
      <trkpt lat="37.26431167" lon="-7.11085333">
        <ele>67.0</ele>
        <time>2020-01-18T08:50:11.163Z</time>
      </trkpt>
      <trkpt lat="37.26431167" lon="-7.11085333">
        <ele>67.0</ele>
        <time>2020-01-18T08:50:12.137Z</time>
      </trkpt>
      <trkpt lat="37.26431167" lon="-7.11085333">
        <ele>67.0</ele>
        <time>2020-01-18T08:50:13.167Z</time>
      </trkpt>
      <trkpt lat="37.26431167" lon="-7.11085333">
        <ele>67.0</ele>
        <time>2020-01-18T08:50:14.158Z</time>
      </trkpt>
      <trkpt lat="37.26431167" lon="-7.11085333">
        <ele>67.0</ele>
        <time>2020-01-18T08:50:15.136Z</time>
      </trkpt>
      <trkpt lat="37.26431167" lon="-7.11085333">
        <ele>67.0</ele>
        <time>2020-01-18T08:50:16.168Z</time>
      </trkpt>
      <trkpt lat="37.26431167" lon="-7.11085333">
        <ele>67.0</ele>
        <time>2020-01-18T08:50:17.135Z</time>
      </trkpt>
      <trkpt lat="37.26431167" lon="-7.11085333">
        <ele>67.0</ele>
        <time>2020-01-18T08:50:18.141Z</time>
      </trkpt>
      <trkpt lat="37.26431167" lon="-7.11085333">
        <ele>67.0</ele>
        <time>2020-01-18T08:50:19.149Z</time>
      </trkpt>
      <trkpt lat="37.26431167" lon="-7.11085333">
        <ele>67.0</ele>
        <time>2020-01-18T08:50:20.132Z</time>
      </trkpt>
      <trkpt lat="37.26431167" lon="-7.11085333">
        <ele>67.0</ele>
        <time>2020-01-18T08:50:21.139Z</time>
      </trkpt>
      <trkpt lat="37.26431167" lon="-7.11085333">
        <ele>67.0</ele>
        <time>2020-01-18T08:50:22.146Z</time>
      </trkpt>
      <trkpt lat="37.26431167" lon="-7.11085333">
        <ele>67.0</ele>
        <time>2020-01-18T08:50:23.168Z</time>
      </trkpt>
      <trkpt lat="37.26431167" lon="-7.11085333">
        <ele>67.0</ele>
        <time>2020-01-18T08:50:24.166Z</time>
      </trkpt>
      <trkpt lat="37.26431167" lon="-7.11085333">
        <ele>67.0</ele>
        <time>2020-01-18T08:50:25.146Z</time>
      </trkpt>
      <trkpt lat="37.26431167" lon="-7.11085333">
        <ele>67.0</ele>
        <time>2020-01-18T08:50:26.153Z</time>
      </trkpt>
      <trkpt lat="37.26431167" lon="-7.11085333">
        <ele>67.0</ele>
        <time>2020-01-18T08:50:27.189Z</time>
      </trkpt>
      <trkpt lat="37.26431167" lon="-7.11085333">
        <ele>67.0</ele>
        <time>2020-01-18T08:50:28.142Z</time>
      </trkpt>
      <trkpt lat="37.26431167" lon="-7.11085333">
        <ele>67.0</ele>
        <time>2020-01-18T08:50:29.162Z</time>
      </trkpt>
      <trkpt lat="37.26431167" lon="-7.11085333">
        <ele>67.0</ele>
        <time>2020-01-18T08:50:30.135Z</time>
      </trkpt>
      <trkpt lat="37.26431167" lon="-7.11085333">
        <ele>67.0</ele>
        <time>2020-01-18T08:50:31.155Z</time>
      </trkpt>
      <trkpt lat="37.26431167" lon="-7.11085333">
        <ele>67.0</ele>
        <time>2020-01-18T08:50:32.132Z</time>
      </trkpt>
      <trkpt lat="37.26431167" lon="-7.11085333">
        <ele>67.0</ele>
        <time>2020-01-18T08:50:33.141Z</time>
      </trkpt>
      <trkpt lat="37.26431167" lon="-7.11085333">
        <ele>67.0</ele>
        <time>2020-01-18T08:50:34.151Z</time>
      </trkpt>
      <trkpt lat="37.26431167" lon="-7.11085333">
        <ele>67.0</ele>
        <time>2020-01-18T08:50:35.163Z</time>
      </trkpt>
      <trkpt lat="37.26431167" lon="-7.11085333">
        <ele>67.0</ele>
        <time>2020-01-18T08:50:36.136Z</time>
      </trkpt>
      <trkpt lat="37.26431167" lon="-7.11085333">
        <ele>67.0</ele>
        <time>2020-01-18T08:50:37.162Z</time>
      </trkpt>
      <trkpt lat="37.26431167" lon="-7.11085333">
        <ele>67.0</ele>
        <time>2020-01-18T08:50:38.147Z</time>
      </trkpt>
      <trkpt lat="37.26431167" lon="-7.11085333">
        <ele>67.0</ele>
        <time>2020-01-18T08:50:39.160Z</time>
      </trkpt>
      <trkpt lat="37.26431167" lon="-7.11085333">
        <ele>67.0</ele>
        <time>2020-01-18T08:50:40.144Z</time>
      </trkpt>
      <trkpt lat="37.26431167" lon="-7.11085333">
        <ele>67.0</ele>
        <time>2020-01-18T08:50:41.160Z</time>
      </trkpt>
      <trkpt lat="37.26431167" lon="-7.11085333">
        <ele>67.0</ele>
        <time>2020-01-18T08:50:42.167Z</time>
      </trkpt>
      <trkpt lat="37.26431167" lon="-7.11085333">
        <ele>67.0</ele>
        <time>2020-01-18T08:50:43.135Z</time>
      </trkpt>
      <trkpt lat="37.26431167" lon="-7.11085333">
        <ele>67.0</ele>
        <time>2020-01-18T08:50:44.156Z</time>
      </trkpt>
      <trkpt lat="37.26431167" lon="-7.11085333">
        <ele>67.0</ele>
        <time>2020-01-18T08:50:45.164Z</time>
      </trkpt>
      <trkpt lat="37.26431167" lon="-7.11085333">
        <ele>67.0</ele>
        <time>2020-01-18T08:50:46.154Z</time>
      </trkpt>
      <trkpt lat="37.26431167" lon="-7.11085333">
        <ele>67.0</ele>
        <time>2020-01-18T08:50:47.166Z</time>
      </trkpt>
      <trkpt lat="37.26431167" lon="-7.11085333">
        <ele>67.0</ele>
        <time>2020-01-18T08:50:48.137Z</time>
      </trkpt>
      <trkpt lat="37.26431167" lon="-7.11085333">
        <ele>67.0</ele>
        <time>2020-01-18T08:50:49.148Z</time>
      </trkpt>
      <trkpt lat="37.26431167" lon="-7.11085333">
        <ele>67.0</ele>
        <time>2020-01-18T08:50:50.161Z</time>
      </trkpt>
      <trkpt lat="37.26431167" lon="-7.11085333">
        <ele>67.0</ele>
        <time>2020-01-18T08:50:51.132Z</time>
      </trkpt>
      <trkpt lat="37.26431167" lon="-7.11085333">
        <ele>67.0</ele>
        <time>2020-01-18T08:50:52.141Z</time>
      </trkpt>
      <trkpt lat="37.26431167" lon="-7.11085333">
        <ele>67.0</ele>
        <time>2020-01-18T08:50:53.142Z</time>
      </trkpt>
      <trkpt lat="37.26431167" lon="-7.11085333">
        <ele>67.0</ele>
        <time>2020-01-18T08:50:54.132Z</time>
      </trkpt>
      <trkpt lat="37.26431167" lon="-7.11085333">
        <ele>67.0</ele>
        <time>2020-01-18T08:50:55.146Z</time>
      </trkpt>
      <trkpt lat="37.26431167" lon="-7.11085333">
        <ele>67.0</ele>
        <time>2020-01-18T08:50:56.158Z</time>
      </trkpt>
      <trkpt lat="37.26431167" lon="-7.11085333">
        <ele>67.0</ele>
        <time>2020-01-18T08:50:57.167Z</time>
      </trkpt>
      <trkpt lat="37.26431167" lon="-7.11085333">
        <ele>67.0</ele>
        <time>2020-01-18T08:50:58.131Z</time>
      </trkpt>
      <trkpt lat="37.26431167" lon="-7.11085333">
        <ele>67.0</ele>
        <time>2020-01-18T08:50:59.169Z</time>
      </trkpt>
      <trkpt lat="37.26431167" lon="-7.11085333">
        <ele>67.0</ele>
        <time>2020-01-18T08:51:00.163Z</time>
      </trkpt>
      <trkpt lat="37.26431167" lon="-7.11085333">
        <ele>67.0</ele>
        <time>2020-01-18T08:51:01.143Z</time>
      </trkpt>
      <trkpt lat="37.26431167" lon="-7.11085333">
        <ele>67.0</ele>
        <time>2020-01-18T08:51:02.162Z</time>
      </trkpt>
      <trkpt lat="37.26431167" lon="-7.11085333">
        <ele>67.0</ele>
        <time>2020-01-18T08:51:03.141Z</time>
      </trkpt>
      <trkpt lat="37.26431167" lon="-7.11085333">
        <ele>67.0</ele>
        <time>2020-01-18T08:51:04.164Z</time>
      </trkpt>
      <trkpt lat="37.26431167" lon="-7.11085333">
        <ele>67.0</ele>
        <time>2020-01-18T08:51:05.137Z</time>
      </trkpt>
      <trkpt lat="37.26431167" lon="-7.11085333">
        <ele>67.0</ele>
        <time>2020-01-18T08:51:06.166Z</time>
      </trkpt>
      <trkpt lat="37.26431167" lon="-7.11085333">
        <ele>67.0</ele>
        <time>2020-01-18T08:51:07.142Z</time>
      </trkpt>
      <trkpt lat="37.26431167" lon="-7.11085333">
        <ele>67.0</ele>
        <time>2020-01-18T08:51:08.164Z</time>
      </trkpt>
      <trkpt lat="37.26431167" lon="-7.11085333">
        <ele>67.0</ele>
        <time>2020-01-18T08:51:09.168Z</time>
      </trkpt>
      <trkpt lat="37.26431167" lon="-7.11085333">
        <ele>67.0</ele>
        <time>2020-01-18T08:51:10.166Z</time>
      </trkpt>
      <trkpt lat="37.26431167" lon="-7.11085333">
        <ele>67.0</ele>
        <time>2020-01-18T08:51:11.129Z</time>
      </trkpt>
      <trkpt lat="37.26431167" lon="-7.11085333">
        <ele>67.0</ele>
        <time>2020-01-18T08:51:12.166Z</time>
      </trkpt>
      <trkpt lat="37.26431167" lon="-7.11085333">
        <ele>67.0</ele>
        <time>2020-01-18T08:51:13.142Z</time>
      </trkpt>
      <trkpt lat="37.26431167" lon="-7.11085333">
        <ele>67.0</ele>
        <time>2020-01-18T08:51:14.168Z</time>
      </trkpt>
      <trkpt lat="37.26431167" lon="-7.11085333">
        <ele>67.0</ele>
        <time>2020-01-18T08:51:15.147Z</time>
      </trkpt>
      <trkpt lat="37.26431167" lon="-7.11085333">
        <ele>67.0</ele>
        <time>2020-01-18T08:51:16.141Z</time>
      </trkpt>
      <trkpt lat="37.26431167" lon="-7.11085333">
        <ele>67.0</ele>
        <time>2020-01-18T08:51:17.155Z</time>
      </trkpt>
      <trkpt lat="37.26431167" lon="-7.11085333">
        <ele>67.0</ele>
        <time>2020-01-18T08:51:18.162Z</time>
      </trkpt>
      <trkpt lat="37.26431167" lon="-7.11085333">
        <ele>67.0</ele>
        <time>2020-01-18T08:51:19.169Z</time>
      </trkpt>
      <trkpt lat="37.26431167" lon="-7.11085333">
        <ele>67.0</ele>
        <time>2020-01-18T08:51:20.137Z</time>
      </trkpt>
      <trkpt lat="37.26431167" lon="-7.11085333">
        <ele>67.0</ele>
        <time>2020-01-18T08:51:21.139Z</time>
      </trkpt>
      <trkpt lat="37.26431167" lon="-7.11085333">
        <ele>67.0</ele>
        <time>2020-01-18T08:51:22.163Z</time>
      </trkpt>
      <trkpt lat="37.26431167" lon="-7.11085333">
        <ele>67.0</ele>
        <time>2020-01-18T08:51:23.142Z</time>
      </trkpt>
      <trkpt lat="37.26431167" lon="-7.11085333">
        <ele>67.0</ele>
        <time>2020-01-18T08:51:24.166Z</time>
      </trkpt>
      <trkpt lat="37.26431167" lon="-7.11085333">
        <ele>67.0</ele>
        <time>2020-01-18T08:51:25.153Z</time>
      </trkpt>
      <trkpt lat="37.26431167" lon="-7.11085333">
        <ele>67.0</ele>
        <time>2020-01-18T08:51:26.132Z</time>
      </trkpt>
      <trkpt lat="37.26431167" lon="-7.11085333">
        <ele>67.0</ele>
        <time>2020-01-18T08:51:27.129Z</time>
      </trkpt>
      <trkpt lat="37.26431167" lon="-7.11085333">
        <ele>67.0</ele>
        <time>2020-01-18T08:51:28.164Z</time>
      </trkpt>
      <trkpt lat="37.26431167" lon="-7.11085333">
        <ele>67.0</ele>
        <time>2020-01-18T08:51:29.143Z</time>
      </trkpt>
      <trkpt lat="37.26431167" lon="-7.11085333">
        <ele>67.0</ele>
        <time>2020-01-18T08:51:30.164Z</time>
      </trkpt>
      <trkpt lat="37.26431167" lon="-7.11085333">
        <ele>67.0</ele>
        <time>2020-01-18T08:51:31.140Z</time>
      </trkpt>
      <trkpt lat="37.26431167" lon="-7.11085333">
        <ele>67.0</ele>
        <time>2020-01-18T08:51:32.129Z</time>
      </trkpt>
      <trkpt lat="37.26431167" lon="-7.11085333">
        <ele>67.0</ele>
        <time>2020-01-18T08:51:33.150Z</time>
      </trkpt>
      <trkpt lat="37.26431167" lon="-7.11085333">
        <ele>67.0</ele>
        <time>2020-01-18T08:51:34.166Z</time>
      </trkpt>
      <trkpt lat="37.26431167" lon="-7.11085333">
        <ele>67.0</ele>
        <time>2020-01-18T08:51:35.153Z</time>
      </trkpt>
      <trkpt lat="37.26431167" lon="-7.11085333">
        <ele>67.0</ele>
        <time>2020-01-18T08:51:36.129Z</time>
      </trkpt>
      <trkpt lat="37.26431167" lon="-7.11085333">
        <ele>67.0</ele>
        <time>2020-01-18T08:51:37.148Z</time>
      </trkpt>
      <trkpt lat="37.26431167" lon="-7.11085333">
        <ele>67.0</ele>
        <time>2020-01-18T08:51:38.155Z</time>
      </trkpt>
      <trkpt lat="37.26431167" lon="-7.11085333">
        <ele>67.0</ele>
        <time>2020-01-18T08:51:39.162Z</time>
      </trkpt>
      <trkpt lat="37.26431167" lon="-7.11085333">
        <ele>67.0</ele>
        <time>2020-01-18T08:51:40.129Z</time>
      </trkpt>
      <trkpt lat="37.26431167" lon="-7.11085333">
        <ele>67.0</ele>
        <time>2020-01-18T08:51:41.136Z</time>
      </trkpt>
      <trkpt lat="37.26431167" lon="-7.11085333">
        <ele>67.0</ele>
        <time>2020-01-18T08:51:42.132Z</time>
      </trkpt>
      <trkpt lat="37.26431167" lon="-7.11085333">
        <ele>67.0</ele>
        <time>2020-01-18T08:51:43.163Z</time>
      </trkpt>
      <trkpt lat="37.26431167" lon="-7.11085333">
        <ele>67.0</ele>
        <time>2020-01-18T08:51:44.139Z</time>
      </trkpt>
      <trkpt lat="37.26431167" lon="-7.11085333">
        <ele>67.0</ele>
        <time>2020-01-18T08:51:45.160Z</time>
      </trkpt>
      <trkpt lat="37.26431167" lon="-7.11085333">
        <ele>67.0</ele>
        <time>2020-01-18T08:51:46.143Z</time>
      </trkpt>
      <trkpt lat="37.26431167" lon="-7.11085333">
        <ele>67.0</ele>
        <time>2020-01-18T08:51:47.163Z</time>
      </trkpt>
      <trkpt lat="37.26431167" lon="-7.11085333">
        <ele>67.0</ele>
        <time>2020-01-18T08:51:48.138Z</time>
      </trkpt>
      <trkpt lat="37.26431167" lon="-7.11085333">
        <ele>67.0</ele>
        <time>2020-01-18T08:51:49.169Z</time>
      </trkpt>
      <trkpt lat="37.26431167" lon="-7.11085333">
        <ele>67.0</ele>
        <time>2020-01-18T08:51:50.143Z</time>
      </trkpt>
      <trkpt lat="37.26431167" lon="-7.11085333">
        <ele>67.0</ele>
        <time>2020-01-18T08:51:51.130Z</time>
      </trkpt>
      <trkpt lat="37.26431167" lon="-7.11085333">
        <ele>67.0</ele>
        <time>2020-01-18T08:51:52.164Z</time>
      </trkpt>
      <trkpt lat="37.26431167" lon="-7.11085333">
        <ele>67.0</ele>
        <time>2020-01-18T08:51:53.147Z</time>
      </trkpt>
      <trkpt lat="37.26431167" lon="-7.11085333">
        <ele>67.0</ele>
        <time>2020-01-18T08:51:54.163Z</time>
      </trkpt>
      <trkpt lat="37.26431167" lon="-7.11085333">
        <ele>67.0</ele>
        <time>2020-01-18T08:51:55.138Z</time>
      </trkpt>
      <trkpt lat="37.26431167" lon="-7.11085333">
        <ele>67.0</ele>
        <time>2020-01-18T08:51:56.164Z</time>
      </trkpt>
      <trkpt lat="37.26431167" lon="-7.11085333">
        <ele>67.0</ele>
        <time>2020-01-18T08:51:57.141Z</time>
      </trkpt>
      <trkpt lat="37.26431167" lon="-7.11085333">
        <ele>67.0</ele>
        <time>2020-01-18T08:51:58.162Z</time>
      </trkpt>
      <trkpt lat="37.26431167" lon="-7.11085333">
        <ele>67.0</ele>
        <time>2020-01-18T08:51:59.139Z</time>
      </trkpt>
      <trkpt lat="37.26431167" lon="-7.11085333">
        <ele>67.0</ele>
        <time>2020-01-18T08:52:00.166Z</time>
      </trkpt>
      <trkpt lat="37.26431167" lon="-7.11085333">
        <ele>67.0</ele>
        <time>2020-01-18T08:52:01.142Z</time>
      </trkpt>
      <trkpt lat="37.26431167" lon="-7.11085333">
        <ele>67.0</ele>
        <time>2020-01-18T08:52:02.167Z</time>
      </trkpt>
      <trkpt lat="37.26431167" lon="-7.11085333">
        <ele>67.0</ele>
        <time>2020-01-18T08:52:03.162Z</time>
      </trkpt>
      <trkpt lat="37.26431167" lon="-7.11085333">
        <ele>67.0</ele>
        <time>2020-01-18T08:52:04.129Z</time>
      </trkpt>
      <trkpt lat="37.26431167" lon="-7.11085333">
        <ele>67.0</ele>
        <time>2020-01-18T08:52:05.135Z</time>
      </trkpt>
      <trkpt lat="37.26431167" lon="-7.11085333">
        <ele>67.0</ele>
        <time>2020-01-18T08:52:06.142Z</time>
      </trkpt>
      <trkpt lat="37.26431167" lon="-7.11085333">
        <ele>67.0</ele>
        <time>2020-01-18T08:52:07.162Z</time>
      </trkpt>
      <trkpt lat="37.26431167" lon="-7.11085333">
        <ele>67.0</ele>
        <time>2020-01-18T08:52:08.138Z</time>
      </trkpt>
      <trkpt lat="37.26431167" lon="-7.11085333">
        <ele>67.0</ele>
        <time>2020-01-18T08:52:09.166Z</time>
      </trkpt>
      <trkpt lat="37.26431167" lon="-7.11085333">
        <ele>67.0</ele>
        <time>2020-01-18T08:52:10.142Z</time>
      </trkpt>
      <trkpt lat="37.26431167" lon="-7.11085333">
        <ele>67.0</ele>
        <time>2020-01-18T08:52:11.149Z</time>
      </trkpt>
      <trkpt lat="37.26431167" lon="-7.11085333">
        <ele>67.0</ele>
        <time>2020-01-18T08:52:12.157Z</time>
      </trkpt>
      <trkpt lat="37.26431167" lon="-7.11085333">
        <ele>67.0</ele>
        <time>2020-01-18T08:52:13.136Z</time>
      </trkpt>
      <trkpt lat="37.26431167" lon="-7.11085333">
        <ele>67.0</ele>
        <time>2020-01-18T08:52:14.129Z</time>
      </trkpt>
      <trkpt lat="37.26431167" lon="-7.11085333">
        <ele>67.0</ele>
        <time>2020-01-18T08:52:15.134Z</time>
      </trkpt>
      <trkpt lat="37.26431167" lon="-7.11085333">
        <ele>67.0</ele>
        <time>2020-01-18T08:52:16.166Z</time>
      </trkpt>
      <trkpt lat="37.26431167" lon="-7.11085333">
        <ele>67.0</ele>
        <time>2020-01-18T08:52:17.157Z</time>
      </trkpt>
      <trkpt lat="37.26431167" lon="-7.11085333">
        <ele>67.0</ele>
        <time>2020-01-18T08:52:18.134Z</time>
      </trkpt>
      <trkpt lat="37.26431167" lon="-7.11085333">
        <ele>67.0</ele>
        <time>2020-01-18T08:52:19.166Z</time>
      </trkpt>
      <trkpt lat="37.26431167" lon="-7.11085333">
        <ele>67.0</ele>
        <time>2020-01-18T08:52:20.140Z</time>
      </trkpt>
      <trkpt lat="37.26431167" lon="-7.11085333">
        <ele>67.0</ele>
        <time>2020-01-18T08:52:21.130Z</time>
      </trkpt>
      <trkpt lat="37.26431167" lon="-7.11085333">
        <ele>67.0</ele>
        <time>2020-01-18T08:52:22.144Z</time>
      </trkpt>
      <trkpt lat="37.26431167" lon="-7.11085333">
        <ele>67.0</ele>
        <time>2020-01-18T08:52:23.164Z</time>
      </trkpt>
      <trkpt lat="37.26431167" lon="-7.11085333">
        <ele>67.0</ele>
        <time>2020-01-18T08:52:24.140Z</time>
      </trkpt>
      <trkpt lat="37.26431167" lon="-7.11085333">
        <ele>67.0</ele>
        <time>2020-01-18T08:52:25.167Z</time>
      </trkpt>
      <trkpt lat="37.26431167" lon="-7.11085333">
        <ele>67.0</ele>
        <time>2020-01-18T08:52:26.146Z</time>
      </trkpt>
      <trkpt lat="37.26431167" lon="-7.11085333">
        <ele>67.0</ele>
        <time>2020-01-18T08:52:27.129Z</time>
      </trkpt>
      <trkpt lat="37.26431167" lon="-7.11085333">
        <ele>67.0</ele>
        <time>2020-01-18T08:52:28.163Z</time>
      </trkpt>
      <trkpt lat="37.26431167" lon="-7.11085333">
        <ele>67.0</ele>
        <time>2020-01-18T08:52:29.146Z</time>
      </trkpt>
      <trkpt lat="37.26431167" lon="-7.11085333">
        <ele>67.0</ele>
        <time>2020-01-18T08:52:30.164Z</time>
      </trkpt>
      <trkpt lat="37.26431167" lon="-7.11085333">
        <ele>67.0</ele>
        <time>2020-01-18T08:52:31.144Z</time>
      </trkpt>
      <trkpt lat="37.26431167" lon="-7.11085333">
        <ele>67.0</ele>
        <time>2020-01-18T08:52:32.166Z</time>
      </trkpt>
      <trkpt lat="37.26431167" lon="-7.11085333">
        <ele>67.0</ele>
        <time>2020-01-18T08:52:33.152Z</time>
      </trkpt>
      <trkpt lat="37.26431167" lon="-7.11085333">
        <ele>67.0</ele>
        <time>2020-01-18T08:52:34.129Z</time>
      </trkpt>
      <trkpt lat="37.26431167" lon="-7.11085333">
        <ele>67.0</ele>
        <time>2020-01-18T08:52:35.157Z</time>
      </trkpt>
      <trkpt lat="37.26431167" lon="-7.11085333">
        <ele>67.0</ele>
        <time>2020-01-18T08:52:36.134Z</time>
      </trkpt>
      <trkpt lat="37.26431167" lon="-7.11085333">
        <ele>67.0</ele>
        <time>2020-01-18T08:52:37.166Z</time>
      </trkpt>
      <trkpt lat="37.26431167" lon="-7.11085333">
        <ele>67.0</ele>
        <time>2020-01-18T08:52:38.141Z</time>
      </trkpt>
      <trkpt lat="37.26431167" lon="-7.11085333">
        <ele>67.0</ele>
        <time>2020-01-18T08:52:39.167Z</time>
      </trkpt>
      <trkpt lat="37.26431167" lon="-7.11085333">
        <ele>67.0</ele>
        <time>2020-01-18T08:52:40.142Z</time>
      </trkpt>
      <trkpt lat="37.26431167" lon="-7.11085333">
        <ele>67.0</ele>
        <time>2020-01-18T08:52:41.129Z</time>
      </trkpt>
      <trkpt lat="37.26431167" lon="-7.11085333">
        <ele>67.0</ele>
        <time>2020-01-18T08:52:42.168Z</time>
      </trkpt>
      <trkpt lat="37.26431167" lon="-7.11085333">
        <ele>67.0</ele>
        <time>2020-01-18T08:52:43.162Z</time>
      </trkpt>
      <trkpt lat="37.26431167" lon="-7.11085333">
        <ele>67.0</ele>
        <time>2020-01-18T08:52:44.139Z</time>
      </trkpt>
      <trkpt lat="37.26431167" lon="-7.11085333">
        <ele>67.0</ele>
        <time>2020-01-18T08:52:45.155Z</time>
      </trkpt>
      <trkpt lat="37.26431167" lon="-7.11085333">
        <ele>67.0</ele>
        <time>2020-01-18T08:52:46.136Z</time>
      </trkpt>
      <trkpt lat="37.26431167" lon="-7.11085333">
        <ele>67.0</ele>
        <time>2020-01-18T08:52:47.167Z</time>
      </trkpt>
      <trkpt lat="37.26431167" lon="-7.11085333">
        <ele>67.0</ele>
        <time>2020-01-18T08:52:48.141Z</time>
      </trkpt>
      <trkpt lat="37.26431167" lon="-7.11085333">
        <ele>67.0</ele>
        <time>2020-01-18T08:52:49.167Z</time>
      </trkpt>
      <trkpt lat="37.26431167" lon="-7.11085333">
        <ele>67.0</ele>
        <time>2020-01-18T08:52:50.141Z</time>
      </trkpt>
      <trkpt lat="37.26431167" lon="-7.11085333">
        <ele>67.0</ele>
        <time>2020-01-18T08:52:51.167Z</time>
      </trkpt>
      <trkpt lat="37.26431167" lon="-7.11085333">
        <ele>67.0</ele>
        <time>2020-01-18T08:52:52.146Z</time>
      </trkpt>
      <trkpt lat="37.26431167" lon="-7.11085333">
        <ele>67.0</ele>
        <time>2020-01-18T08:52:53.164Z</time>
      </trkpt>
      <trkpt lat="37.26431167" lon="-7.11085333">
        <ele>67.0</ele>
        <time>2020-01-18T08:52:54.141Z</time>
      </trkpt>
      <trkpt lat="37.26431167" lon="-7.11085333">
        <ele>67.0</ele>
        <time>2020-01-18T08:52:55.167Z</time>
      </trkpt>
      <trkpt lat="37.26431167" lon="-7.11085333">
        <ele>67.0</ele>
        <time>2020-01-18T08:52:56.142Z</time>
      </trkpt>
      <trkpt lat="37.26431167" lon="-7.11085333">
        <ele>67.0</ele>
        <time>2020-01-18T08:52:57.166Z</time>
      </trkpt>
      <trkpt lat="37.26431167" lon="-7.11085333">
        <ele>67.0</ele>
        <time>2020-01-18T08:52:58.140Z</time>
      </trkpt>
      <trkpt lat="37.26431167" lon="-7.11085333">
        <ele>67.0</ele>
        <time>2020-01-18T08:52:59.167Z</time>
      </trkpt>
      <trkpt lat="37.26431167" lon="-7.11085333">
        <ele>67.0</ele>
        <time>2020-01-18T08:53:00.142Z</time>
      </trkpt>
      <trkpt lat="37.26431167" lon="-7.11085333">
        <ele>67.0</ele>
        <time>2020-01-18T08:53:01.167Z</time>
      </trkpt>
      <trkpt lat="37.26431167" lon="-7.11085333">
        <ele>67.0</ele>
        <time>2020-01-18T08:53:02.147Z</time>
      </trkpt>
      <trkpt lat="37.26431167" lon="-7.11085333">
        <ele>67.0</ele>
        <time>2020-01-18T08:53:03.167Z</time>
      </trkpt>
      <trkpt lat="37.26431167" lon="-7.11085333">
        <ele>67.0</ele>
        <time>2020-01-18T08:53:04.147Z</time>
      </trkpt>
      <trkpt lat="37.26431167" lon="-7.11085333">
        <ele>67.0</ele>
        <time>2020-01-18T08:53:05.168Z</time>
      </trkpt>
      <trkpt lat="37.26431167" lon="-7.11085333">
        <ele>67.0</ele>
        <time>2020-01-18T08:53:06.144Z</time>
      </trkpt>
      <trkpt lat="37.26431167" lon="-7.11085333">
        <ele>67.0</ele>
        <time>2020-01-18T08:53:07.140Z</time>
      </trkpt>
      <trkpt lat="37.26431167" lon="-7.11085333">
        <ele>67.0</ele>
        <time>2020-01-18T08:53:08.164Z</time>
      </trkpt>
      <trkpt lat="37.26431167" lon="-7.11085333">
        <ele>67.0</ele>
        <time>2020-01-18T08:53:09.141Z</time>
      </trkpt>
      <trkpt lat="37.26431167" lon="-7.11085333">
        <ele>67.0</ele>
        <time>2020-01-18T08:53:10.160Z</time>
      </trkpt>
      <trkpt lat="37.26431167" lon="-7.11085333">
        <ele>67.0</ele>
        <time>2020-01-18T08:53:11.136Z</time>
      </trkpt>
      <trkpt lat="37.26431167" lon="-7.11085333">
        <ele>67.0</ele>
        <time>2020-01-18T08:53:12.166Z</time>
      </trkpt>
      <trkpt lat="37.26431167" lon="-7.11085333">
        <ele>67.0</ele>
        <time>2020-01-18T08:53:13.141Z</time>
      </trkpt>
      <trkpt lat="37.26431167" lon="-7.11085333">
        <ele>67.0</ele>
        <time>2020-01-18T08:53:14.157Z</time>
      </trkpt>
      <trkpt lat="37.26430667" lon="-7.11083833">
        <ele>66.0</ele>
        <time>2020-01-18T08:53:15.147Z</time>
      </trkpt>
      <trkpt lat="37.26430333" lon="-7.11082333">
        <ele>66.0</ele>
        <time>2020-01-18T08:53:16.164Z</time>
      </trkpt>
      <trkpt lat="37.26430333" lon="-7.11082333">
        <ele>66.0</ele>
        <time>2020-01-18T08:53:17.150Z</time>
      </trkpt>
      <trkpt lat="37.26429833" lon="-7.11078333">
        <ele>66.0</ele>
        <time>2020-01-18T08:53:18.131Z</time>
      </trkpt>
      <trkpt lat="37.26429167" lon="-7.110755">
        <ele>66.0</ele>
        <time>2020-01-18T08:53:19.165Z</time>
      </trkpt>
      <trkpt lat="37.26429167" lon="-7.110755">
        <ele>66.0</ele>
        <time>2020-01-18T08:53:20.132Z</time>
      </trkpt>
      <trkpt lat="37.26428833" lon="-7.1107">
        <ele>66.0</ele>
        <time>2020-01-18T08:53:21.166Z</time>
      </trkpt>
      <trkpt lat="37.26428833" lon="-7.1107">
        <ele>66.0</ele>
        <time>2020-01-18T08:53:22.133Z</time>
      </trkpt>
      <trkpt lat="37.264295" lon="-7.11063167">
        <ele>66.0</ele>
        <time>2020-01-18T08:53:23.166Z</time>
      </trkpt>
      <trkpt lat="37.264295" lon="-7.11063167">
        <ele>66.0</ele>
        <time>2020-01-18T08:53:24.132Z</time>
      </trkpt>
      <trkpt lat="37.26430333" lon="-7.11054667">
        <ele>66.0</ele>
        <time>2020-01-18T08:53:25.154Z</time>
      </trkpt>
      <trkpt lat="37.26430667" lon="-7.110505">
        <ele>66.0</ele>
        <time>2020-01-18T08:53:26.130Z</time>
      </trkpt>
      <trkpt lat="37.26430667" lon="-7.110505">
        <ele>66.0</ele>
        <time>2020-01-18T08:53:27.140Z</time>
      </trkpt>
      <trkpt lat="37.26431167" lon="-7.11042333">
        <ele>66.0</ele>
        <time>2020-01-18T08:53:28.129Z</time>
      </trkpt>
      <trkpt lat="37.26431167" lon="-7.11042333">
        <ele>66.0</ele>
        <time>2020-01-18T08:53:29.135Z</time>
      </trkpt>
      <trkpt lat="37.26432167" lon="-7.11034667">
        <ele>66.0</ele>
        <time>2020-01-18T08:53:30.133Z</time>
      </trkpt>
      <trkpt lat="37.26432167" lon="-7.110315">
        <ele>66.0</ele>
        <time>2020-01-18T08:53:31.163Z</time>
      </trkpt>
      <trkpt lat="37.26432167" lon="-7.110315">
        <ele>66.0</ele>
        <time>2020-01-18T08:53:32.133Z</time>
      </trkpt>
      <trkpt lat="37.26431667" lon="-7.11025167">
        <ele>66.0</ele>
        <time>2020-01-18T08:53:33.133Z</time>
      </trkpt>
      <trkpt lat="37.26431333" lon="-7.11022333">
        <ele>66.0</ele>
        <time>2020-01-18T08:53:34.152Z</time>
      </trkpt>
      <trkpt lat="37.26431333" lon="-7.11022333">
        <ele>66.0</ele>
        <time>2020-01-18T08:53:35.166Z</time>
      </trkpt>
      <trkpt lat="37.26430833" lon="-7.11018167">
        <ele>66.0</ele>
        <time>2020-01-18T08:53:36.139Z</time>
      </trkpt>
      <trkpt lat="37.26430833" lon="-7.110165">
        <ele>66.0</ele>
        <time>2020-01-18T08:53:37.164Z</time>
      </trkpt>
      <trkpt lat="37.26430833" lon="-7.110165">
        <ele>66.0</ele>
        <time>2020-01-18T08:53:38.163Z</time>
      </trkpt>
      <trkpt lat="37.26431" lon="-7.11012833">
        <ele>66.0</ele>
        <time>2020-01-18T08:53:39.145Z</time>
      </trkpt>
      <trkpt lat="37.26431" lon="-7.11012833">
        <ele>66.0</ele>
        <time>2020-01-18T08:53:40.161Z</time>
      </trkpt>
      <trkpt lat="37.26431333" lon="-7.110095">
        <ele>66.0</ele>
        <time>2020-01-18T08:53:41.132Z</time>
      </trkpt>
      <trkpt lat="37.26431333" lon="-7.110095">
        <ele>66.0</ele>
        <time>2020-01-18T08:53:42.140Z</time>
      </trkpt>
      <trkpt lat="37.26431667" lon="-7.110085">
        <ele>66.0</ele>
        <time>2020-01-18T08:53:43.173Z</time>
      </trkpt>
      <trkpt lat="37.26431667" lon="-7.110085">
        <ele>66.0</ele>
        <time>2020-01-18T08:53:44.158Z</time>
      </trkpt>
      <trkpt lat="37.264315" lon="-7.11008833">
        <ele>66.0</ele>
        <time>2020-01-18T08:53:45.140Z</time>
      </trkpt>
      <trkpt lat="37.264315" lon="-7.11008833">
        <ele>66.0</ele>
        <time>2020-01-18T08:53:46.155Z</time>
      </trkpt>
      <trkpt lat="37.264315" lon="-7.11008833">
        <ele>66.0</ele>
        <time>2020-01-18T08:53:47.161Z</time>
      </trkpt>
      <trkpt lat="37.264315" lon="-7.11008833">
        <ele>66.0</ele>
        <time>2020-01-18T08:53:48.130Z</time>
      </trkpt>
      <trkpt lat="37.264315" lon="-7.11008833">
        <ele>66.0</ele>
        <time>2020-01-18T08:53:49.138Z</time>
      </trkpt>
      <trkpt lat="37.264315" lon="-7.11008833">
        <ele>66.0</ele>
        <time>2020-01-18T08:53:50.144Z</time>
      </trkpt>
      <trkpt lat="37.264315" lon="-7.11008833">
        <ele>66.0</ele>
        <time>2020-01-18T08:53:51.163Z</time>
      </trkpt>
      <trkpt lat="37.264315" lon="-7.11008833">
        <ele>66.0</ele>
        <time>2020-01-18T08:53:52.140Z</time>
      </trkpt>
      <trkpt lat="37.264315" lon="-7.11008833">
        <ele>66.0</ele>
        <time>2020-01-18T08:53:53.154Z</time>
      </trkpt>
      <trkpt lat="37.264315" lon="-7.11008833">
        <ele>66.0</ele>
        <time>2020-01-18T08:53:54.141Z</time>
      </trkpt>
      <trkpt lat="37.26434167" lon="-7.11010667">
        <ele>66.0</ele>
        <time>2020-01-18T08:53:55.155Z</time>
      </trkpt>
      <trkpt lat="37.26434167" lon="-7.11010667">
        <ele>66.0</ele>
        <time>2020-01-18T08:53:56.140Z</time>
      </trkpt>
      <trkpt lat="37.26433" lon="-7.11014167">
        <ele>66.0</ele>
        <time>2020-01-18T08:53:57.171Z</time>
      </trkpt>
      <trkpt lat="37.26433" lon="-7.11014167">
        <ele>66.0</ele>
        <time>2020-01-18T08:53:58.145Z</time>
      </trkpt>
      <trkpt lat="37.26434" lon="-7.11018">
        <ele>66.0</ele>
        <time>2020-01-18T08:53:59.134Z</time>
      </trkpt>
      <trkpt lat="37.26434" lon="-7.11018">
        <ele>66.0</ele>
        <time>2020-01-18T08:54:00.155Z</time>
      </trkpt>
      <trkpt lat="37.26434" lon="-7.11022">
        <ele>65.0</ele>
        <time>2020-01-18T08:54:01.129Z</time>
      </trkpt>
      <trkpt lat="37.26433333" lon="-7.11024167">
        <ele>65.0</ele>
        <time>2020-01-18T08:54:02.167Z</time>
      </trkpt>
      <trkpt lat="37.26433333" lon="-7.11024167">
        <ele>65.0</ele>
        <time>2020-01-18T08:54:03.137Z</time>
      </trkpt>
      <trkpt lat="37.26432333" lon="-7.110305">
        <ele>65.0</ele>
        <time>2020-01-18T08:54:04.134Z</time>
      </trkpt>
      <trkpt lat="37.26432" lon="-7.11034">
        <ele>65.0</ele>
        <time>2020-01-18T08:54:05.162Z</time>
      </trkpt>
      <trkpt lat="37.26432" lon="-7.11034">
        <ele>65.0</ele>
        <time>2020-01-18T08:54:06.139Z</time>
      </trkpt>
      <trkpt lat="37.26431167" lon="-7.110415">
        <ele>64.0</ele>
        <time>2020-01-18T08:54:07.129Z</time>
      </trkpt>
      <trkpt lat="37.26430667" lon="-7.110445">
        <ele>64.0</ele>
        <time>2020-01-18T08:54:08.134Z</time>
      </trkpt>
      <trkpt lat="37.26430667" lon="-7.110445">
        <ele>64.0</ele>
        <time>2020-01-18T08:54:09.131Z</time>
      </trkpt>
      <trkpt lat="37.26429667" lon="-7.110505">
        <ele>64.0</ele>
        <time>2020-01-18T08:54:10.168Z</time>
      </trkpt>
      <trkpt lat="37.26429667" lon="-7.11053667">
        <ele>65.0</ele>
        <time>2020-01-18T08:54:11.178Z</time>
      </trkpt>
      <trkpt lat="37.2643" lon="-7.11057333">
        <ele>65.0</ele>
        <time>2020-01-18T08:54:12.131Z</time>
      </trkpt>
      <trkpt lat="37.2643" lon="-7.11057333">
        <ele>65.0</ele>
        <time>2020-01-18T08:54:13.152Z</time>
      </trkpt>
      <trkpt lat="37.264305" lon="-7.11063333">
        <ele>65.0</ele>
        <time>2020-01-18T08:54:14.133Z</time>
      </trkpt>
      <trkpt lat="37.264305" lon="-7.11063333">
        <ele>65.0</ele>
        <time>2020-01-18T08:54:15.142Z</time>
      </trkpt>
      <trkpt lat="37.26431333" lon="-7.11070167">
        <ele>65.0</ele>
        <time>2020-01-18T08:54:16.138Z</time>
      </trkpt>
      <trkpt lat="37.26431333" lon="-7.11070167">
        <ele>65.0</ele>
        <time>2020-01-18T08:54:17.145Z</time>
      </trkpt>
      <trkpt lat="37.26432833" lon="-7.11075167">
        <ele>65.0</ele>
        <time>2020-01-18T08:54:18.152Z</time>
      </trkpt>
      <trkpt lat="37.26432833" lon="-7.11075167">
        <ele>65.0</ele>
        <time>2020-01-18T08:54:19.159Z</time>
      </trkpt>
      <trkpt lat="37.26434667" lon="-7.11082833">
        <ele>65.0</ele>
        <time>2020-01-18T08:54:20.143Z</time>
      </trkpt>
      <trkpt lat="37.26435167" lon="-7.11086">
        <ele>65.0</ele>
        <time>2020-01-18T08:54:21.162Z</time>
      </trkpt>
      <trkpt lat="37.26435167" lon="-7.11086">
        <ele>65.0</ele>
        <time>2020-01-18T08:54:22.133Z</time>
      </trkpt>
      <trkpt lat="37.26439167" lon="-7.11094667">
        <ele>65.0</ele>
        <time>2020-01-18T08:54:23.152Z</time>
      </trkpt>
      <trkpt lat="37.26441167" lon="-7.11099333">
        <ele>65.0</ele>
        <time>2020-01-18T08:54:24.155Z</time>
      </trkpt>
      <trkpt lat="37.26443167" lon="-7.11103833">
        <ele>65.0</ele>
        <time>2020-01-18T08:54:25.146Z</time>
      </trkpt>
      <trkpt lat="37.26443167" lon="-7.11103833">
        <ele>65.0</ele>
        <time>2020-01-18T08:54:26.143Z</time>
      </trkpt>
      <trkpt lat="37.26448" lon="-7.111125">
        <ele>65.0</ele>
        <time>2020-01-18T08:54:27.165Z</time>
      </trkpt>
      <trkpt lat="37.26448" lon="-7.111125">
        <ele>65.0</ele>
        <time>2020-01-18T08:54:28.135Z</time>
      </trkpt>
      <trkpt lat="37.26453" lon="-7.11120333">
        <ele>64.0</ele>
        <time>2020-01-18T08:54:29.171Z</time>
      </trkpt>
      <trkpt lat="37.26453" lon="-7.11120333">
        <ele>64.0</ele>
        <time>2020-01-18T08:54:30.162Z</time>
      </trkpt>
      <trkpt lat="37.26451333" lon="-7.11128833">
        <ele>64.0</ele>
        <time>2020-01-18T08:54:31.162Z</time>
      </trkpt>
      <trkpt lat="37.26449167" lon="-7.11131167">
        <ele>63.0</ele>
        <time>2020-01-18T08:54:32.154Z</time>
      </trkpt>
      <trkpt lat="37.26449167" lon="-7.11131167">
        <ele>63.0</ele>
        <time>2020-01-18T08:54:33.140Z</time>
      </trkpt>
      <trkpt lat="37.26444167" lon="-7.111335">
        <ele>63.0</ele>
        <time>2020-01-18T08:54:34.168Z</time>
      </trkpt>
      <trkpt lat="37.26444167" lon="-7.111335">
        <ele>63.0</ele>
        <time>2020-01-18T08:54:35.160Z</time>
      </trkpt>
      <trkpt lat="37.26438" lon="-7.11131833">
        <ele>63.0</ele>
        <time>2020-01-18T08:54:36.161Z</time>
      </trkpt>
      <trkpt lat="37.26438" lon="-7.11131833">
        <ele>63.0</ele>
        <time>2020-01-18T08:54:37.145Z</time>
      </trkpt>
      <trkpt lat="37.26431667" lon="-7.11129833">
        <ele>64.0</ele>
        <time>2020-01-18T08:54:38.133Z</time>
      </trkpt>
      <trkpt lat="37.26431667" lon="-7.11129833">
        <ele>64.0</ele>
        <time>2020-01-18T08:54:39.159Z</time>
      </trkpt>
      <trkpt lat="37.26424833" lon="-7.11128833">
        <ele>64.0</ele>
        <time>2020-01-18T08:54:40.153Z</time>
      </trkpt>
      <trkpt lat="37.26424833" lon="-7.11128833">
        <ele>64.0</ele>
        <time>2020-01-18T08:54:41.158Z</time>
      </trkpt>
      <trkpt lat="37.264175" lon="-7.111265">
        <ele>64.0</ele>
        <time>2020-01-18T08:54:42.135Z</time>
      </trkpt>
      <trkpt lat="37.264175" lon="-7.111265">
        <ele>64.0</ele>
        <time>2020-01-18T08:54:43.150Z</time>
      </trkpt>
      <trkpt lat="37.26410667" lon="-7.11122667">
        <ele>65.0</ele>
        <time>2020-01-18T08:54:44.168Z</time>
      </trkpt>
      <trkpt lat="37.26406833" lon="-7.11120833">
        <ele>65.0</ele>
        <time>2020-01-18T08:54:45.171Z</time>
      </trkpt>
      <trkpt lat="37.26406833" lon="-7.11120833">
        <ele>65.0</ele>
        <time>2020-01-18T08:54:46.151Z</time>
      </trkpt>
      <trkpt lat="37.26399333" lon="-7.111185">
        <ele>66.0</ele>
        <time>2020-01-18T08:54:47.168Z</time>
      </trkpt>
      <trkpt lat="37.26399333" lon="-7.111185">
        <ele>66.0</ele>
        <time>2020-01-18T08:54:48.141Z</time>
      </trkpt>
      <trkpt lat="37.26393333" lon="-7.11117833">
        <ele>66.0</ele>
        <time>2020-01-18T08:54:49.167Z</time>
      </trkpt>
      <trkpt lat="37.26391333" lon="-7.11119333">
        <ele>66.0</ele>
        <time>2020-01-18T08:54:50.169Z</time>
      </trkpt>
      <trkpt lat="37.26391333" lon="-7.11119333">
        <ele>66.0</ele>
        <time>2020-01-18T08:54:51.142Z</time>
      </trkpt>
      <trkpt lat="37.26386167" lon="-7.111215">
        <ele>66.0</ele>
        <time>2020-01-18T08:54:52.141Z</time>
      </trkpt>
      <trkpt lat="37.26386167" lon="-7.111215">
        <ele>66.0</ele>
        <time>2020-01-18T08:54:53.153Z</time>
      </trkpt>
      <trkpt lat="37.26379333" lon="-7.11121167">
        <ele>66.0</ele>
        <time>2020-01-18T08:54:54.132Z</time>
      </trkpt>
      <trkpt lat="37.26379333" lon="-7.11121167">
        <ele>66.0</ele>
        <time>2020-01-18T08:54:55.138Z</time>
      </trkpt>
      <trkpt lat="37.26372833" lon="-7.11119">
        <ele>66.0</ele>
        <time>2020-01-18T08:54:56.156Z</time>
      </trkpt>
      <trkpt lat="37.26372833" lon="-7.11119">
        <ele>66.0</ele>
        <time>2020-01-18T08:54:57.146Z</time>
      </trkpt>
      <trkpt lat="37.263675" lon="-7.111165">
        <ele>66.0</ele>
        <time>2020-01-18T08:54:58.132Z</time>
      </trkpt>
      <trkpt lat="37.263675" lon="-7.111165">
        <ele>66.0</ele>
        <time>2020-01-18T08:54:59.157Z</time>
      </trkpt>
      <trkpt lat="37.26361167" lon="-7.11115167">
        <ele>67.0</ele>
        <time>2020-01-18T08:55:00.139Z</time>
      </trkpt>
      <trkpt lat="37.26361167" lon="-7.11115167">
        <ele>67.0</ele>
        <time>2020-01-18T08:55:01.140Z</time>
      </trkpt>
      <trkpt lat="37.26355833" lon="-7.11113333">
        <ele>67.0</ele>
        <time>2020-01-18T08:55:02.133Z</time>
      </trkpt>
      <trkpt lat="37.26355833" lon="-7.11113333">
        <ele>67.0</ele>
        <time>2020-01-18T08:55:03.131Z</time>
      </trkpt>
      <trkpt lat="37.26348833" lon="-7.111135">
        <ele>68.0</ele>
        <time>2020-01-18T08:55:04.140Z</time>
      </trkpt>
      <trkpt lat="37.26348833" lon="-7.111135">
        <ele>68.0</ele>
        <time>2020-01-18T08:55:05.168Z</time>
      </trkpt>
      <trkpt lat="37.263455" lon="-7.11114167">
        <ele>68.0</ele>
        <time>2020-01-18T08:55:06.162Z</time>
      </trkpt>
      <trkpt lat="37.26344667" lon="-7.11113833">
        <ele>69.0</ele>
        <time>2020-01-18T08:55:07.132Z</time>
      </trkpt>
      <trkpt lat="37.26344667" lon="-7.11113833">
        <ele>69.0</ele>
        <time>2020-01-18T08:55:08.131Z</time>
      </trkpt>
      <trkpt lat="37.26344167" lon="-7.11113833">
        <ele>69.0</ele>
        <time>2020-01-18T08:55:09.156Z</time>
      </trkpt>
      <trkpt lat="37.26343833" lon="-7.11113833">
        <ele>69.0</ele>
        <time>2020-01-18T08:55:10.167Z</time>
      </trkpt>
      <trkpt lat="37.26343833" lon="-7.11113833">
        <ele>69.0</ele>
        <time>2020-01-18T08:55:11.132Z</time>
      </trkpt>
      <trkpt lat="37.26343833" lon="-7.111135">
        <ele>69.0</ele>
        <time>2020-01-18T08:55:12.139Z</time>
      </trkpt>
      <trkpt lat="37.26343833" lon="-7.111135">
        <ele>69.0</ele>
        <time>2020-01-18T08:55:13.146Z</time>
      </trkpt>
      <trkpt lat="37.26343833" lon="-7.111135">
        <ele>69.0</ele>
        <time>2020-01-18T08:55:14.137Z</time>
      </trkpt>
      <trkpt lat="37.26343833" lon="-7.111135">
        <ele>69.0</ele>
        <time>2020-01-18T08:55:15.142Z</time>
      </trkpt>
      <trkpt lat="37.26343833" lon="-7.111135">
        <ele>69.0</ele>
        <time>2020-01-18T08:55:16.149Z</time>
      </trkpt>
      <trkpt lat="37.26340333" lon="-7.11113333">
        <ele>68.0</ele>
        <time>2020-01-18T08:55:17.157Z</time>
      </trkpt>
      <trkpt lat="37.26340333" lon="-7.11113333">
        <ele>68.0</ele>
        <time>2020-01-18T08:55:18.163Z</time>
      </trkpt>
      <trkpt lat="37.26339" lon="-7.11113833">
        <ele>68.0</ele>
        <time>2020-01-18T08:55:19.144Z</time>
      </trkpt>
      <trkpt lat="37.26339" lon="-7.11113833">
        <ele>68.0</ele>
        <time>2020-01-18T08:55:20.156Z</time>
      </trkpt>
      <trkpt lat="37.26337" lon="-7.111135">
        <ele>68.0</ele>
        <time>2020-01-18T08:55:21.147Z</time>
      </trkpt>
      <trkpt lat="37.26337" lon="-7.111135">
        <ele>68.0</ele>
        <time>2020-01-18T08:55:22.156Z</time>
      </trkpt>
      <trkpt lat="37.26335667" lon="-7.11113167">
        <ele>68.0</ele>
        <time>2020-01-18T08:55:23.149Z</time>
      </trkpt>
      <trkpt lat="37.263345" lon="-7.11113">
        <ele>68.0</ele>
        <time>2020-01-18T08:55:24.154Z</time>
      </trkpt>
      <trkpt lat="37.263345" lon="-7.11113">
        <ele>68.0</ele>
        <time>2020-01-18T08:55:25.159Z</time>
      </trkpt>
      <trkpt lat="37.26333167" lon="-7.11112333">
        <ele>68.0</ele>
        <time>2020-01-18T08:55:26.151Z</time>
      </trkpt>
      <trkpt lat="37.26332333" lon="-7.11111833">
        <ele>68.0</ele>
        <time>2020-01-18T08:55:27.136Z</time>
      </trkpt>
      <trkpt lat="37.26332333" lon="-7.11111833">
        <ele>68.0</ele>
        <time>2020-01-18T08:55:28.141Z</time>
      </trkpt>
      <trkpt lat="37.26331167" lon="-7.11110833">
        <ele>67.0</ele>
        <time>2020-01-18T08:55:29.163Z</time>
      </trkpt>
      <trkpt lat="37.26331167" lon="-7.11110833">
        <ele>67.0</ele>
        <time>2020-01-18T08:55:30.130Z</time>
      </trkpt>
      <trkpt lat="37.2633" lon="-7.11109667">
        <ele>67.0</ele>
        <time>2020-01-18T08:55:31.160Z</time>
      </trkpt>
      <trkpt lat="37.2633" lon="-7.11109667">
        <ele>67.0</ele>
        <time>2020-01-18T08:55:32.167Z</time>
      </trkpt>
      <trkpt lat="37.26329" lon="-7.11108667">
        <ele>67.0</ele>
        <time>2020-01-18T08:55:33.148Z</time>
      </trkpt>
      <trkpt lat="37.26329" lon="-7.11108667">
        <ele>67.0</ele>
        <time>2020-01-18T08:55:34.153Z</time>
      </trkpt>
      <trkpt lat="37.263275" lon="-7.11107167">
        <ele>67.0</ele>
        <time>2020-01-18T08:55:35.131Z</time>
      </trkpt>
      <trkpt lat="37.263275" lon="-7.11107167">
        <ele>67.0</ele>
        <time>2020-01-18T08:55:36.137Z</time>
      </trkpt>
      <trkpt lat="37.263265" lon="-7.11106167">
        <ele>67.0</ele>
        <time>2020-01-18T08:55:37.129Z</time>
      </trkpt>
      <trkpt lat="37.263265" lon="-7.11106167">
        <ele>67.0</ele>
        <time>2020-01-18T08:55:38.135Z</time>
      </trkpt>
      <trkpt lat="37.26325333" lon="-7.11105333">
        <ele>68.0</ele>
        <time>2020-01-18T08:55:39.159Z</time>
      </trkpt>
      <trkpt lat="37.26325333" lon="-7.11105333">
        <ele>68.0</ele>
        <time>2020-01-18T08:55:40.166Z</time>
      </trkpt>
      <trkpt lat="37.26324833" lon="-7.11104333">
        <ele>68.0</ele>
        <time>2020-01-18T08:55:41.156Z</time>
      </trkpt>
      <trkpt lat="37.26324833" lon="-7.11104333">
        <ele>68.0</ele>
        <time>2020-01-18T08:55:42.161Z</time>
      </trkpt>
      <trkpt lat="37.26323167" lon="-7.11100833">
        <ele>68.0</ele>
        <time>2020-01-18T08:55:43.145Z</time>
      </trkpt>
      <trkpt lat="37.26323167" lon="-7.11098167">
        <ele>68.0</ele>
        <time>2020-01-18T08:55:44.134Z</time>
      </trkpt>
      <trkpt lat="37.26323167" lon="-7.11098167">
        <ele>68.0</ele>
        <time>2020-01-18T08:55:45.140Z</time>
      </trkpt>
      <trkpt lat="37.26321667" lon="-7.11094667">
        <ele>68.0</ele>
        <time>2020-01-18T08:55:46.134Z</time>
      </trkpt>
      <trkpt lat="37.26320167" lon="-7.110935">
        <ele>69.0</ele>
        <time>2020-01-18T08:55:47.165Z</time>
      </trkpt>
      <trkpt lat="37.26320167" lon="-7.110935">
        <ele>69.0</ele>
        <time>2020-01-18T08:55:48.130Z</time>
      </trkpt>
      <trkpt lat="37.26318167" lon="-7.11091167">
        <ele>69.0</ele>
        <time>2020-01-18T08:55:49.158Z</time>
      </trkpt>
      <trkpt lat="37.26318167" lon="-7.11091167">
        <ele>69.0</ele>
        <time>2020-01-18T08:55:50.163Z</time>
      </trkpt>
      <trkpt lat="37.26315667" lon="-7.110875">
        <ele>69.0</ele>
        <time>2020-01-18T08:55:51.133Z</time>
      </trkpt>
      <trkpt lat="37.26315667" lon="-7.110875">
        <ele>69.0</ele>
        <time>2020-01-18T08:55:52.138Z</time>
      </trkpt>
      <trkpt lat="37.263125" lon="-7.110835">
        <ele>69.0</ele>
        <time>2020-01-18T08:55:53.161Z</time>
      </trkpt>
      <trkpt lat="37.26311167" lon="-7.110815">
        <ele>69.0</ele>
        <time>2020-01-18T08:55:54.145Z</time>
      </trkpt>
      <trkpt lat="37.26311167" lon="-7.110815">
        <ele>69.0</ele>
        <time>2020-01-18T08:55:55.154Z</time>
      </trkpt>
      <trkpt lat="37.26308167" lon="-7.110775">
        <ele>69.0</ele>
        <time>2020-01-18T08:55:56.138Z</time>
      </trkpt>
      <trkpt lat="37.26308167" lon="-7.110775">
        <ele>69.0</ele>
        <time>2020-01-18T08:55:57.144Z</time>
      </trkpt>
      <trkpt lat="37.26305667" lon="-7.11072167">
        <ele>69.0</ele>
        <time>2020-01-18T08:55:58.134Z</time>
      </trkpt>
      <trkpt lat="37.263045" lon="-7.11069833">
        <ele>69.0</ele>
        <time>2020-01-18T08:55:59.161Z</time>
      </trkpt>
      <trkpt lat="37.263045" lon="-7.11069833">
        <ele>69.0</ele>
        <time>2020-01-18T08:56:00.168Z</time>
      </trkpt>
      <trkpt lat="37.26301333" lon="-7.110655">
        <ele>70.0</ele>
        <time>2020-01-18T08:56:01.156Z</time>
      </trkpt>
      <trkpt lat="37.26299833" lon="-7.11063167">
        <ele>70.0</ele>
        <time>2020-01-18T08:56:02.154Z</time>
      </trkpt>
      <trkpt lat="37.26299833" lon="-7.11063167">
        <ele>70.0</ele>
        <time>2020-01-18T08:56:03.160Z</time>
      </trkpt>
      <trkpt lat="37.26296667" lon="-7.11058667">
        <ele>70.0</ele>
        <time>2020-01-18T08:56:04.159Z</time>
      </trkpt>
      <trkpt lat="37.26295167" lon="-7.11057167">
        <ele>70.0</ele>
        <time>2020-01-18T08:56:05.140Z</time>
      </trkpt>
      <trkpt lat="37.26295167" lon="-7.11057167">
        <ele>70.0</ele>
        <time>2020-01-18T08:56:06.145Z</time>
      </trkpt>
      <trkpt lat="37.26291833" lon="-7.11054167">
        <ele>70.0</ele>
        <time>2020-01-18T08:56:07.144Z</time>
      </trkpt>
      <trkpt lat="37.26290333" lon="-7.11052167">
        <ele>70.0</ele>
        <time>2020-01-18T08:56:08.139Z</time>
      </trkpt>
      <trkpt lat="37.26290333" lon="-7.11052167">
        <ele>70.0</ele>
        <time>2020-01-18T08:56:09.144Z</time>
      </trkpt>
      <trkpt lat="37.26286667" lon="-7.11049">
        <ele>70.0</ele>
        <time>2020-01-18T08:56:10.150Z</time>
      </trkpt>
      <trkpt lat="37.262845" lon="-7.110485">
        <ele>70.0</ele>
        <time>2020-01-18T08:56:11.136Z</time>
      </trkpt>
      <trkpt lat="37.262845" lon="-7.110485">
        <ele>70.0</ele>
        <time>2020-01-18T08:56:12.141Z</time>
      </trkpt>
      <trkpt lat="37.26279167" lon="-7.11048667">
        <ele>70.0</ele>
        <time>2020-01-18T08:56:13.129Z</time>
      </trkpt>
      <trkpt lat="37.26276167" lon="-7.11048167">
        <ele>70.0</ele>
        <time>2020-01-18T08:56:14.130Z</time>
      </trkpt>
      <trkpt lat="37.26276167" lon="-7.11048167">
        <ele>70.0</ele>
        <time>2020-01-18T08:56:15.135Z</time>
      </trkpt>
      <trkpt lat="37.262705" lon="-7.110455">
        <ele>71.0</ele>
        <time>2020-01-18T08:56:16.169Z</time>
      </trkpt>
      <trkpt lat="37.26267667" lon="-7.11044667">
        <ele>71.0</ele>
        <time>2020-01-18T08:56:17.143Z</time>
      </trkpt>
      <trkpt lat="37.26265" lon="-7.11044">
        <ele>71.0</ele>
        <time>2020-01-18T08:56:18.136Z</time>
      </trkpt>
      <trkpt lat="37.26265" lon="-7.11044">
        <ele>71.0</ele>
        <time>2020-01-18T08:56:19.141Z</time>
      </trkpt>
      <trkpt lat="37.262615" lon="-7.11041167">
        <ele>72.0</ele>
        <time>2020-01-18T08:56:20.131Z</time>
      </trkpt>
      <trkpt lat="37.262585" lon="-7.11039833">
        <ele>72.0</ele>
        <time>2020-01-18T08:56:21.164Z</time>
      </trkpt>
      <trkpt lat="37.262585" lon="-7.11039833">
        <ele>72.0</ele>
        <time>2020-01-18T08:56:22.130Z</time>
      </trkpt>
      <trkpt lat="37.262525" lon="-7.11037">
        <ele>72.0</ele>
        <time>2020-01-18T08:56:23.134Z</time>
      </trkpt>
      <trkpt lat="37.262525" lon="-7.11037">
        <ele>72.0</ele>
        <time>2020-01-18T08:56:24.140Z</time>
      </trkpt>
      <trkpt lat="37.26247" lon="-7.11033833">
        <ele>72.0</ele>
        <time>2020-01-18T08:56:25.167Z</time>
      </trkpt>
      <trkpt lat="37.262445" lon="-7.11033167">
        <ele>73.0</ele>
        <time>2020-01-18T08:56:26.157Z</time>
      </trkpt>
      <trkpt lat="37.26240833" lon="-7.11033333">
        <ele>73.0</ele>
        <time>2020-01-18T08:56:27.145Z</time>
      </trkpt>
      <trkpt lat="37.26240833" lon="-7.11033333">
        <ele>73.0</ele>
        <time>2020-01-18T08:56:28.155Z</time>
      </trkpt>
      <trkpt lat="37.26234167" lon="-7.11032">
        <ele>73.0</ele>
        <time>2020-01-18T08:56:29.137Z</time>
      </trkpt>
      <trkpt lat="37.26234167" lon="-7.11032">
        <ele>73.0</ele>
        <time>2020-01-18T08:56:30.143Z</time>
      </trkpt>
      <trkpt lat="37.26226333" lon="-7.11030333">
        <ele>74.0</ele>
        <time>2020-01-18T08:56:31.142Z</time>
      </trkpt>
      <trkpt lat="37.26226333" lon="-7.11030333">
        <ele>74.0</ele>
        <time>2020-01-18T08:56:32.131Z</time>
      </trkpt>
      <trkpt lat="37.26217167" lon="-7.11028833">
        <ele>74.0</ele>
        <time>2020-01-18T08:56:33.164Z</time>
      </trkpt>
      <trkpt lat="37.26212167" lon="-7.11028333">
        <ele>75.0</ele>
        <time>2020-01-18T08:56:34.165Z</time>
      </trkpt>
      <trkpt lat="37.26207333" lon="-7.11028167">
        <ele>75.0</ele>
        <time>2020-01-18T08:56:35.143Z</time>
      </trkpt>
      <trkpt lat="37.26207333" lon="-7.11028167">
        <ele>75.0</ele>
        <time>2020-01-18T08:56:36.149Z</time>
      </trkpt>
      <trkpt lat="37.26198" lon="-7.11030167">
        <ele>74.0</ele>
        <time>2020-01-18T08:56:37.140Z</time>
      </trkpt>
      <trkpt lat="37.26193667" lon="-7.11031167">
        <ele>74.0</ele>
        <time>2020-01-18T08:56:38.165Z</time>
      </trkpt>
      <trkpt lat="37.26189333" lon="-7.11032167">
        <ele>75.0</ele>
        <time>2020-01-18T08:56:39.156Z</time>
      </trkpt>
      <trkpt lat="37.26189333" lon="-7.11032167">
        <ele>75.0</ele>
        <time>2020-01-18T08:56:40.162Z</time>
      </trkpt>
      <trkpt lat="37.26181" lon="-7.11031333">
        <ele>75.0</ele>
        <time>2020-01-18T08:56:41.148Z</time>
      </trkpt>
      <trkpt lat="37.26181" lon="-7.11031333">
        <ele>75.0</ele>
        <time>2020-01-18T08:56:42.154Z</time>
      </trkpt>
      <trkpt lat="37.261745" lon="-7.11028833">
        <ele>75.0</ele>
        <time>2020-01-18T08:56:43.146Z</time>
      </trkpt>
      <trkpt lat="37.261715" lon="-7.11026333">
        <ele>75.0</ele>
        <time>2020-01-18T08:56:44.138Z</time>
      </trkpt>
      <trkpt lat="37.261715" lon="-7.11026333">
        <ele>75.0</ele>
        <time>2020-01-18T08:56:45.143Z</time>
      </trkpt>
      <trkpt lat="37.26166" lon="-7.11022167">
        <ele>75.0</ele>
        <time>2020-01-18T08:56:46.136Z</time>
      </trkpt>
      <trkpt lat="37.26162667" lon="-7.1102">
        <ele>75.0</ele>
        <time>2020-01-18T08:56:47.165Z</time>
      </trkpt>
      <trkpt lat="37.26162667" lon="-7.1102">
        <ele>75.0</ele>
        <time>2020-01-18T08:56:48.130Z</time>
      </trkpt>
      <trkpt lat="37.26155" lon="-7.11016333">
        <ele>75.0</ele>
        <time>2020-01-18T08:56:49.155Z</time>
      </trkpt>
      <trkpt lat="37.26155" lon="-7.11016333">
        <ele>75.0</ele>
        <time>2020-01-18T08:56:50.160Z</time>
      </trkpt>
      <trkpt lat="37.26145833" lon="-7.11012">
        <ele>75.0</ele>
        <time>2020-01-18T08:56:51.145Z</time>
      </trkpt>
      <trkpt lat="37.26145833" lon="-7.11012">
        <ele>75.0</ele>
        <time>2020-01-18T08:56:52.155Z</time>
      </trkpt>
      <trkpt lat="37.26138167" lon="-7.11008833">
        <ele>76.0</ele>
        <time>2020-01-18T08:56:53.165Z</time>
      </trkpt>
      <trkpt lat="37.26134833" lon="-7.11007667">
        <ele>76.0</ele>
        <time>2020-01-18T08:56:54.152Z</time>
      </trkpt>
      <trkpt lat="37.26134833" lon="-7.11007667">
        <ele>76.0</ele>
        <time>2020-01-18T08:56:55.158Z</time>
      </trkpt>
      <trkpt lat="37.26130167" lon="-7.11006333">
        <ele>76.0</ele>
        <time>2020-01-18T08:56:56.160Z</time>
      </trkpt>
      <trkpt lat="37.26130167" lon="-7.11006333">
        <ele>76.0</ele>
        <time>2020-01-18T08:56:57.166Z</time>
      </trkpt>
      <trkpt lat="37.26125667" lon="-7.11006">
        <ele>76.0</ele>
        <time>2020-01-18T08:56:58.155Z</time>
      </trkpt>
      <trkpt lat="37.26123667" lon="-7.11006333">
        <ele>76.0</ele>
        <time>2020-01-18T08:56:59.151Z</time>
      </trkpt>
      <trkpt lat="37.26123667" lon="-7.11006333">
        <ele>76.0</ele>
        <time>2020-01-18T08:57:00.157Z</time>
      </trkpt>
      <trkpt lat="37.26119833" lon="-7.11006833">
        <ele>76.0</ele>
        <time>2020-01-18T08:57:01.151Z</time>
      </trkpt>
      <trkpt lat="37.26118" lon="-7.11006833">
        <ele>76.0</ele>
        <time>2020-01-18T08:57:02.154Z</time>
      </trkpt>
      <trkpt lat="37.26118" lon="-7.11006833">
        <ele>76.0</ele>
        <time>2020-01-18T08:57:03.160Z</time>
      </trkpt>
      <trkpt lat="37.26113667" lon="-7.11008667">
        <ele>76.0</ele>
        <time>2020-01-18T08:57:04.131Z</time>
      </trkpt>
      <trkpt lat="37.261105" lon="-7.110105">
        <ele>76.0</ele>
        <time>2020-01-18T08:57:05.132Z</time>
      </trkpt>
      <trkpt lat="37.261105" lon="-7.110105">
        <ele>76.0</ele>
        <time>2020-01-18T08:57:06.137Z</time>
      </trkpt>
      <trkpt lat="37.26104333" lon="-7.11013667">
        <ele>76.0</ele>
        <time>2020-01-18T08:57:07.158Z</time>
      </trkpt>
      <trkpt lat="37.26104333" lon="-7.11013667">
        <ele>76.0</ele>
        <time>2020-01-18T08:57:08.164Z</time>
      </trkpt>
      <trkpt lat="37.26098" lon="-7.11016167">
        <ele>76.0</ele>
        <time>2020-01-18T08:57:09.145Z</time>
      </trkpt>
      <trkpt lat="37.26098" lon="-7.11016167">
        <ele>76.0</ele>
        <time>2020-01-18T08:57:10.157Z</time>
      </trkpt>
      <trkpt lat="37.26091333" lon="-7.11015">
        <ele>76.0</ele>
        <time>2020-01-18T08:57:11.141Z</time>
      </trkpt>
      <trkpt lat="37.26091333" lon="-7.11015">
        <ele>76.0</ele>
        <time>2020-01-18T08:57:12.146Z</time>
      </trkpt>
      <trkpt lat="37.26084" lon="-7.11010667">
        <ele>76.0</ele>
        <time>2020-01-18T08:57:13.133Z</time>
      </trkpt>
      <trkpt lat="37.26080333" lon="-7.110075">
        <ele>76.0</ele>
        <time>2020-01-18T08:57:14.161Z</time>
      </trkpt>
      <trkpt lat="37.26080333" lon="-7.110075">
        <ele>76.0</ele>
        <time>2020-01-18T08:57:15.166Z</time>
      </trkpt>
      <trkpt lat="37.26072333" lon="-7.10999667">
        <ele>76.0</ele>
        <time>2020-01-18T08:57:16.154Z</time>
      </trkpt>
      <trkpt lat="37.26068167" lon="-7.10996167">
        <ele>76.0</ele>
        <time>2020-01-18T08:57:17.136Z</time>
      </trkpt>
      <trkpt lat="37.26068167" lon="-7.10996167">
        <ele>76.0</ele>
        <time>2020-01-18T08:57:18.141Z</time>
      </trkpt>
      <trkpt lat="37.26059" lon="-7.10990667">
        <ele>76.0</ele>
        <time>2020-01-18T08:57:19.129Z</time>
      </trkpt>
      <trkpt lat="37.260555" lon="-7.10987167">
        <ele>76.0</ele>
        <time>2020-01-18T08:57:20.136Z</time>
      </trkpt>
      <trkpt lat="37.260555" lon="-7.10987167">
        <ele>76.0</ele>
        <time>2020-01-18T08:57:21.141Z</time>
      </trkpt>
      <trkpt lat="37.26051167" lon="-7.10981">
        <ele>75.0</ele>
        <time>2020-01-18T08:57:22.136Z</time>
      </trkpt>
      <trkpt lat="37.26051167" lon="-7.10981">
        <ele>75.0</ele>
        <time>2020-01-18T08:57:23.142Z</time>
      </trkpt>
      <trkpt lat="37.26051333" lon="-7.10972833">
        <ele>75.0</ele>
        <time>2020-01-18T08:57:24.142Z</time>
      </trkpt>
      <trkpt lat="37.26051333" lon="-7.10972833">
        <ele>75.0</ele>
        <time>2020-01-18T08:57:25.148Z</time>
      </trkpt>
      <trkpt lat="37.26054833" lon="-7.10966667">
        <ele>74.0</ele>
        <time>2020-01-18T08:57:26.132Z</time>
      </trkpt>
      <trkpt lat="37.26054833" lon="-7.10966667">
        <ele>74.0</ele>
        <time>2020-01-18T08:57:27.137Z</time>
      </trkpt>
      <trkpt lat="37.26056667" lon="-7.10959">
        <ele>74.0</ele>
        <time>2020-01-18T08:57:28.134Z</time>
      </trkpt>
      <trkpt lat="37.26056" lon="-7.10955">
        <ele>73.0</ele>
        <time>2020-01-18T08:57:29.133Z</time>
      </trkpt>
      <trkpt lat="37.26056" lon="-7.10955">
        <ele>73.0</ele>
        <time>2020-01-18T08:57:30.138Z</time>
      </trkpt>
      <trkpt lat="37.26055" lon="-7.10944667">
        <ele>72.0</ele>
        <time>2020-01-18T08:57:31.149Z</time>
      </trkpt>
      <trkpt lat="37.26055" lon="-7.10944667">
        <ele>72.0</ele>
        <time>2020-01-18T08:57:32.156Z</time>
      </trkpt>
      <trkpt lat="37.26052833" lon="-7.109345">
        <ele>72.0</ele>
        <time>2020-01-18T08:57:33.130Z</time>
      </trkpt>
      <trkpt lat="37.26052833" lon="-7.109345">
        <ele>72.0</ele>
        <time>2020-01-18T08:57:34.135Z</time>
      </trkpt>
      <trkpt lat="37.26050333" lon="-7.10924">
        <ele>71.0</ele>
        <time>2020-01-18T08:57:35.129Z</time>
      </trkpt>
      <trkpt lat="37.26050333" lon="-7.10924">
        <ele>71.0</ele>
        <time>2020-01-18T08:57:36.134Z</time>
      </trkpt>
      <trkpt lat="37.260485" lon="-7.10914667">
        <ele>71.0</ele>
        <time>2020-01-18T08:57:37.163Z</time>
      </trkpt>
      <trkpt lat="37.260485" lon="-7.10914667">
        <ele>71.0</ele>
        <time>2020-01-18T08:57:38.129Z</time>
      </trkpt>
      <trkpt lat="37.260465" lon="-7.10904833">
        <ele>70.0</ele>
        <time>2020-01-18T08:57:39.160Z</time>
      </trkpt>
      <trkpt lat="37.260465" lon="-7.10904833">
        <ele>70.0</ele>
        <time>2020-01-18T08:57:40.166Z</time>
      </trkpt>
      <trkpt lat="37.26044333" lon="-7.10893833">
        <ele>70.0</ele>
        <time>2020-01-18T08:57:41.159Z</time>
      </trkpt>
      <trkpt lat="37.26044333" lon="-7.10893833">
        <ele>70.0</ele>
        <time>2020-01-18T08:57:42.165Z</time>
      </trkpt>
      <trkpt lat="37.260425" lon="-7.108835">
        <ele>69.0</ele>
        <time>2020-01-18T08:57:43.165Z</time>
      </trkpt>
      <trkpt lat="37.26041833" lon="-7.10877">
        <ele>69.0</ele>
        <time>2020-01-18T08:57:44.137Z</time>
      </trkpt>
      <trkpt lat="37.26041833" lon="-7.10877">
        <ele>69.0</ele>
        <time>2020-01-18T08:57:45.150Z</time>
      </trkpt>
      <trkpt lat="37.26039" lon="-7.10865333">
        <ele>69.0</ele>
        <time>2020-01-18T08:57:46.143Z</time>
      </trkpt>
      <trkpt lat="37.26037333" lon="-7.10859667">
        <ele>69.0</ele>
        <time>2020-01-18T08:57:47.143Z</time>
      </trkpt>
      <trkpt lat="37.26037333" lon="-7.10859667">
        <ele>69.0</ele>
        <time>2020-01-18T08:57:48.154Z</time>
      </trkpt>
      <trkpt lat="37.26035333" lon="-7.10846667">
        <ele>69.0</ele>
        <time>2020-01-18T08:57:49.133Z</time>
      </trkpt>
      <trkpt lat="37.26035333" lon="-7.10846667">
        <ele>69.0</ele>
        <time>2020-01-18T08:57:50.138Z</time>
      </trkpt>
      <trkpt lat="37.26034333" lon="-7.10834333">
        <ele>69.0</ele>
        <time>2020-01-18T08:57:51.130Z</time>
      </trkpt>
      <trkpt lat="37.26034333" lon="-7.10834333">
        <ele>69.0</ele>
        <time>2020-01-18T08:57:52.136Z</time>
      </trkpt>
      <trkpt lat="37.26033333" lon="-7.10823333">
        <ele>69.0</ele>
        <time>2020-01-18T08:57:53.132Z</time>
      </trkpt>
      <trkpt lat="37.26033" lon="-7.10816833">
        <ele>69.0</ele>
        <time>2020-01-18T08:57:54.156Z</time>
      </trkpt>
      <trkpt lat="37.26033" lon="-7.10816833">
        <ele>69.0</ele>
        <time>2020-01-18T08:57:55.161Z</time>
      </trkpt>
      <trkpt lat="37.26031833" lon="-7.10805667">
        <ele>68.0</ele>
        <time>2020-01-18T08:57:56.153Z</time>
      </trkpt>
      <trkpt lat="37.26031833" lon="-7.10805667">
        <ele>68.0</ele>
        <time>2020-01-18T08:57:57.159Z</time>
      </trkpt>
      <trkpt lat="37.260295" lon="-7.10794667">
        <ele>68.0</ele>
        <time>2020-01-18T08:57:58.144Z</time>
      </trkpt>
      <trkpt lat="37.26028667" lon="-7.10789">
        <ele>68.0</ele>
        <time>2020-01-18T08:57:59.133Z</time>
      </trkpt>
      <trkpt lat="37.26028667" lon="-7.10789">
        <ele>68.0</ele>
        <time>2020-01-18T08:58:00.138Z</time>
      </trkpt>
      <trkpt lat="37.26027667" lon="-7.10778833">
        <ele>68.0</ele>
        <time>2020-01-18T08:58:01.132Z</time>
      </trkpt>
      <trkpt lat="37.26027833" lon="-7.107745">
        <ele>68.0</ele>
        <time>2020-01-18T08:58:02.142Z</time>
      </trkpt>
      <trkpt lat="37.26029167" lon="-7.1077">
        <ele>68.0</ele>
        <time>2020-01-18T08:58:03.133Z</time>
      </trkpt>
      <trkpt lat="37.260305" lon="-7.10765833">
        <ele>68.0</ele>
        <time>2020-01-18T08:58:04.152Z</time>
      </trkpt>
      <trkpt lat="37.260305" lon="-7.10765833">
        <ele>68.0</ele>
        <time>2020-01-18T08:58:05.157Z</time>
      </trkpt>
      <trkpt lat="37.26035833" lon="-7.107575">
        <ele>69.0</ele>
        <time>2020-01-18T08:58:06.143Z</time>
      </trkpt>
      <trkpt lat="37.26035833" lon="-7.107575">
        <ele>69.0</ele>
        <time>2020-01-18T08:58:07.148Z</time>
      </trkpt>
      <trkpt lat="37.26042167" lon="-7.10750333">
        <ele>69.0</ele>
        <time>2020-01-18T08:58:08.134Z</time>
      </trkpt>
      <trkpt lat="37.26046" lon="-7.10746833">
        <ele>69.0</ele>
        <time>2020-01-18T08:58:09.171Z</time>
      </trkpt>
      <trkpt lat="37.26046" lon="-7.10746833">
        <ele>69.0</ele>
        <time>2020-01-18T08:58:10.131Z</time>
      </trkpt>
      <trkpt lat="37.26053167" lon="-7.10740167">
        <ele>68.0</ele>
        <time>2020-01-18T08:58:11.130Z</time>
      </trkpt>
      <trkpt lat="37.26053167" lon="-7.10740167">
        <ele>68.0</ele>
        <time>2020-01-18T08:58:12.151Z</time>
      </trkpt>
      <trkpt lat="37.26058833" lon="-7.10733833">
        <ele>68.0</ele>
        <time>2020-01-18T08:58:13.139Z</time>
      </trkpt>
      <trkpt lat="37.26062333" lon="-7.10731667">
        <ele>68.0</ele>
        <time>2020-01-18T08:58:14.154Z</time>
      </trkpt>
      <trkpt lat="37.26062333" lon="-7.10731667">
        <ele>68.0</ele>
        <time>2020-01-18T08:58:15.159Z</time>
      </trkpt>
      <trkpt lat="37.260675" lon="-7.107275">
        <ele>67.0</ele>
        <time>2020-01-18T08:58:16.130Z</time>
      </trkpt>
      <trkpt lat="37.260675" lon="-7.107275">
        <ele>67.0</ele>
        <time>2020-01-18T08:58:17.135Z</time>
      </trkpt>
      <trkpt lat="37.26073" lon="-7.10723167">
        <ele>67.0</ele>
        <time>2020-01-18T08:58:18.133Z</time>
      </trkpt>
      <trkpt lat="37.26073" lon="-7.10723167">
        <ele>67.0</ele>
        <time>2020-01-18T08:58:19.139Z</time>
      </trkpt>
      <trkpt lat="37.26078333" lon="-7.10717833">
        <ele>67.0</ele>
        <time>2020-01-18T08:58:20.162Z</time>
      </trkpt>
      <trkpt lat="37.26078333" lon="-7.10717833">
        <ele>67.0</ele>
        <time>2020-01-18T08:58:21.167Z</time>
      </trkpt>
      <trkpt lat="37.26083167" lon="-7.10712667">
        <ele>68.0</ele>
        <time>2020-01-18T08:58:22.164Z</time>
      </trkpt>
      <trkpt lat="37.26083167" lon="-7.10712667">
        <ele>68.0</ele>
        <time>2020-01-18T08:58:23.130Z</time>
      </trkpt>
      <trkpt lat="37.26086167" lon="-7.10707833">
        <ele>68.0</ele>
        <time>2020-01-18T08:58:24.142Z</time>
      </trkpt>
      <trkpt lat="37.26086167" lon="-7.10707833">
        <ele>68.0</ele>
        <time>2020-01-18T08:58:25.147Z</time>
      </trkpt>
      <trkpt lat="37.26090833" lon="-7.10702667">
        <ele>69.0</ele>
        <time>2020-01-18T08:58:26.135Z</time>
      </trkpt>
      <trkpt lat="37.26090833" lon="-7.10702667">
        <ele>69.0</ele>
        <time>2020-01-18T08:58:27.140Z</time>
      </trkpt>
      <trkpt lat="37.260955" lon="-7.106985">
        <ele>69.0</ele>
        <time>2020-01-18T08:58:28.166Z</time>
      </trkpt>
      <trkpt lat="37.26097" lon="-7.10696667">
        <ele>69.0</ele>
        <time>2020-01-18T08:58:29.159Z</time>
      </trkpt>
      <trkpt lat="37.26097" lon="-7.10696667">
        <ele>69.0</ele>
        <time>2020-01-18T08:58:30.165Z</time>
      </trkpt>
      <trkpt lat="37.261005" lon="-7.10691667">
        <ele>69.0</ele>
        <time>2020-01-18T08:58:31.160Z</time>
      </trkpt>
      <trkpt lat="37.261005" lon="-7.10691667">
        <ele>69.0</ele>
        <time>2020-01-18T08:58:32.151Z</time>
      </trkpt>
      <trkpt lat="37.26103167" lon="-7.10686">
        <ele>70.0</ele>
        <time>2020-01-18T08:58:33.133Z</time>
      </trkpt>
      <trkpt lat="37.26104667" lon="-7.10683833">
        <ele>70.0</ele>
        <time>2020-01-18T08:58:34.132Z</time>
      </trkpt>
      <trkpt lat="37.26104667" lon="-7.10683833">
        <ele>70.0</ele>
        <time>2020-01-18T08:58:35.138Z</time>
      </trkpt>
      <trkpt lat="37.26107333" lon="-7.10678833">
        <ele>70.0</ele>
        <time>2020-01-18T08:58:36.144Z</time>
      </trkpt>
      <trkpt lat="37.26108833" lon="-7.10676">
        <ele>71.0</ele>
        <time>2020-01-18T08:58:37.139Z</time>
      </trkpt>
      <trkpt lat="37.26108833" lon="-7.10676">
        <ele>71.0</ele>
        <time>2020-01-18T08:58:38.144Z</time>
      </trkpt>
      <trkpt lat="37.26112167" lon="-7.10670333">
        <ele>71.0</ele>
        <time>2020-01-18T08:58:39.144Z</time>
      </trkpt>
      <trkpt lat="37.261135" lon="-7.10667167">
        <ele>71.0</ele>
        <time>2020-01-18T08:58:40.164Z</time>
      </trkpt>
      <trkpt lat="37.261135" lon="-7.10667167">
        <ele>71.0</ele>
        <time>2020-01-18T08:58:41.129Z</time>
      </trkpt>
      <trkpt lat="37.26117167" lon="-7.1066">
        <ele>72.0</ele>
        <time>2020-01-18T08:58:42.159Z</time>
      </trkpt>
      <trkpt lat="37.26117167" lon="-7.1066">
        <ele>72.0</ele>
        <time>2020-01-18T08:58:43.164Z</time>
      </trkpt>
      <trkpt lat="37.261205" lon="-7.106555">
        <ele>72.0</ele>
        <time>2020-01-18T08:58:44.133Z</time>
      </trkpt>
      <trkpt lat="37.261205" lon="-7.106555">
        <ele>72.0</ele>
        <time>2020-01-18T08:58:45.138Z</time>
      </trkpt>
      <trkpt lat="37.26124333" lon="-7.1065">
        <ele>72.0</ele>
        <time>2020-01-18T08:58:46.137Z</time>
      </trkpt>
      <trkpt lat="37.261255" lon="-7.10646833">
        <ele>72.0</ele>
        <time>2020-01-18T08:58:47.157Z</time>
      </trkpt>
      <trkpt lat="37.261255" lon="-7.10646833">
        <ele>72.0</ele>
        <time>2020-01-18T08:58:48.163Z</time>
      </trkpt>
      <trkpt lat="37.26129" lon="-7.10640167">
        <ele>72.0</ele>
        <time>2020-01-18T08:58:49.168Z</time>
      </trkpt>
      <trkpt lat="37.26131" lon="-7.10635333">
        <ele>72.0</ele>
        <time>2020-01-18T08:58:50.137Z</time>
      </trkpt>
      <trkpt lat="37.26131" lon="-7.10635333">
        <ele>72.0</ele>
        <time>2020-01-18T08:58:51.142Z</time>
      </trkpt>
      <trkpt lat="37.26133667" lon="-7.10628667">
        <ele>73.0</ele>
        <time>2020-01-18T08:58:52.149Z</time>
      </trkpt>
      <trkpt lat="37.26133667" lon="-7.10628667">
        <ele>73.0</ele>
        <time>2020-01-18T08:58:53.154Z</time>
      </trkpt>
      <trkpt lat="37.26136" lon="-7.10622833">
        <ele>73.0</ele>
        <time>2020-01-18T08:58:54.138Z</time>
      </trkpt>
      <trkpt lat="37.26136" lon="-7.10622833">
        <ele>73.0</ele>
        <time>2020-01-18T08:58:55.154Z</time>
      </trkpt>
      <trkpt lat="37.261405" lon="-7.10618167">
        <ele>74.0</ele>
        <time>2020-01-18T08:58:56.131Z</time>
      </trkpt>
      <trkpt lat="37.261405" lon="-7.10618167">
        <ele>74.0</ele>
        <time>2020-01-18T08:58:57.136Z</time>
      </trkpt>
      <trkpt lat="37.26144833" lon="-7.10613167">
        <ele>74.0</ele>
        <time>2020-01-18T08:58:58.132Z</time>
      </trkpt>
      <trkpt lat="37.26146667" lon="-7.1061">
        <ele>74.0</ele>
        <time>2020-01-18T08:58:59.165Z</time>
      </trkpt>
      <trkpt lat="37.26146667" lon="-7.1061">
        <ele>74.0</ele>
        <time>2020-01-18T08:59:00.148Z</time>
      </trkpt>
      <trkpt lat="37.26149667" lon="-7.10603667">
        <ele>75.0</ele>
        <time>2020-01-18T08:59:01.150Z</time>
      </trkpt>
      <trkpt lat="37.26151333" lon="-7.10601">
        <ele>75.0</ele>
        <time>2020-01-18T08:59:02.132Z</time>
      </trkpt>
      <trkpt lat="37.26151333" lon="-7.10601">
        <ele>75.0</ele>
        <time>2020-01-18T08:59:03.137Z</time>
      </trkpt>
      <trkpt lat="37.261545" lon="-7.10595167">
        <ele>76.0</ele>
        <time>2020-01-18T08:59:04.166Z</time>
      </trkpt>
      <trkpt lat="37.261545" lon="-7.10595167">
        <ele>76.0</ele>
        <time>2020-01-18T08:59:05.131Z</time>
      </trkpt>
      <trkpt lat="37.26156167" lon="-7.10587833">
        <ele>76.0</ele>
        <time>2020-01-18T08:59:06.134Z</time>
      </trkpt>
      <trkpt lat="37.26156167" lon="-7.10587833">
        <ele>76.0</ele>
        <time>2020-01-18T08:59:07.139Z</time>
      </trkpt>
      <trkpt lat="37.26157667" lon="-7.10581667">
        <ele>77.0</ele>
        <time>2020-01-18T08:59:08.130Z</time>
      </trkpt>
      <trkpt lat="37.26158833" lon="-7.10579167">
        <ele>77.0</ele>
        <time>2020-01-18T08:59:09.163Z</time>
      </trkpt>
      <trkpt lat="37.26158833" lon="-7.10579167">
        <ele>77.0</ele>
        <time>2020-01-18T08:59:10.129Z</time>
      </trkpt>
      <trkpt lat="37.26160667" lon="-7.105755">
        <ele>78.0</ele>
        <time>2020-01-18T08:59:11.163Z</time>
      </trkpt>
      <trkpt lat="37.26160667" lon="-7.105755">
        <ele>78.0</ele>
        <time>2020-01-18T08:59:12.168Z</time>
      </trkpt>
      <trkpt lat="37.26163667" lon="-7.10571333">
        <ele>78.0</ele>
        <time>2020-01-18T08:59:13.155Z</time>
      </trkpt>
      <trkpt lat="37.26163667" lon="-7.10571333">
        <ele>78.0</ele>
        <time>2020-01-18T08:59:14.160Z</time>
      </trkpt>
      <trkpt lat="37.26166667" lon="-7.105665">
        <ele>79.0</ele>
        <time>2020-01-18T08:59:15.144Z</time>
      </trkpt>
      <trkpt lat="37.26166667" lon="-7.105665">
        <ele>79.0</ele>
        <time>2020-01-18T08:59:16.156Z</time>
      </trkpt>
      <trkpt lat="37.26170333" lon="-7.10559833">
        <ele>79.0</ele>
        <time>2020-01-18T08:59:17.146Z</time>
      </trkpt>
      <trkpt lat="37.26170333" lon="-7.10559833">
        <ele>79.0</ele>
        <time>2020-01-18T08:59:18.154Z</time>
      </trkpt>
      <trkpt lat="37.26173833" lon="-7.10552833">
        <ele>80.0</ele>
        <time>2020-01-18T08:59:19.142Z</time>
      </trkpt>
      <trkpt lat="37.26175167" lon="-7.10549">
        <ele>80.0</ele>
        <time>2020-01-18T08:59:20.136Z</time>
      </trkpt>
      <trkpt lat="37.26175167" lon="-7.10549">
        <ele>80.0</ele>
        <time>2020-01-18T08:59:21.144Z</time>
      </trkpt>
      <trkpt lat="37.261775" lon="-7.10540667">
        <ele>80.0</ele>
        <time>2020-01-18T08:59:22.138Z</time>
      </trkpt>
      <trkpt lat="37.261775" lon="-7.10540667">
        <ele>80.0</ele>
        <time>2020-01-18T08:59:23.144Z</time>
      </trkpt>
      <trkpt lat="37.26178833" lon="-7.10533333">
        <ele>81.0</ele>
        <time>2020-01-18T08:59:24.132Z</time>
      </trkpt>
      <trkpt lat="37.26178833" lon="-7.10533333">
        <ele>81.0</ele>
        <time>2020-01-18T08:59:25.140Z</time>
      </trkpt>
      <trkpt lat="37.26180333" lon="-7.10525167">
        <ele>81.0</ele>
        <time>2020-01-18T08:59:26.139Z</time>
      </trkpt>
      <trkpt lat="37.26180333" lon="-7.10525167">
        <ele>81.0</ele>
        <time>2020-01-18T08:59:27.145Z</time>
      </trkpt>
      <trkpt lat="37.26181167" lon="-7.10517">
        <ele>81.0</ele>
        <time>2020-01-18T08:59:28.143Z</time>
      </trkpt>
      <trkpt lat="37.261815" lon="-7.105125">
        <ele>80.0</ele>
        <time>2020-01-18T08:59:29.134Z</time>
      </trkpt>
      <trkpt lat="37.261815" lon="-7.105125">
        <ele>80.0</ele>
        <time>2020-01-18T08:59:30.141Z</time>
      </trkpt>
      <trkpt lat="37.26181333" lon="-7.10502">
        <ele>79.0</ele>
        <time>2020-01-18T08:59:31.146Z</time>
      </trkpt>
      <trkpt lat="37.26181333" lon="-7.10502">
        <ele>79.0</ele>
        <time>2020-01-18T08:59:32.133Z</time>
      </trkpt>
      <trkpt lat="37.26176" lon="-7.10491833">
        <ele>79.0</ele>
        <time>2020-01-18T08:59:33.167Z</time>
      </trkpt>
      <trkpt lat="37.261725" lon="-7.10487">
        <ele>79.0</ele>
        <time>2020-01-18T08:59:34.160Z</time>
      </trkpt>
      <trkpt lat="37.261725" lon="-7.10487">
        <ele>79.0</ele>
        <time>2020-01-18T08:59:35.166Z</time>
      </trkpt>
      <trkpt lat="37.26165667" lon="-7.10477333">
        <ele>79.0</ele>
        <time>2020-01-18T08:59:36.130Z</time>
      </trkpt>
      <trkpt lat="37.26165667" lon="-7.10477333">
        <ele>79.0</ele>
        <time>2020-01-18T08:59:37.136Z</time>
      </trkpt>
      <trkpt lat="37.26157667" lon="-7.10468">
        <ele>78.0</ele>
        <time>2020-01-18T08:59:38.130Z</time>
      </trkpt>
      <trkpt lat="37.26157667" lon="-7.10468">
        <ele>78.0</ele>
        <time>2020-01-18T08:59:39.135Z</time>
      </trkpt>
      <trkpt lat="37.26150667" lon="-7.104595">
        <ele>79.0</ele>
        <time>2020-01-18T08:59:40.166Z</time>
      </trkpt>
      <trkpt lat="37.26147167" lon="-7.10454833">
        <ele>79.0</ele>
        <time>2020-01-18T08:59:41.163Z</time>
      </trkpt>
      <trkpt lat="37.26147167" lon="-7.10454833">
        <ele>79.0</ele>
        <time>2020-01-18T08:59:42.168Z</time>
      </trkpt>
      <trkpt lat="37.26140333" lon="-7.10444167">
        <ele>79.0</ele>
        <time>2020-01-18T08:59:43.134Z</time>
      </trkpt>
      <trkpt lat="37.26140333" lon="-7.10444167">
        <ele>79.0</ele>
        <time>2020-01-18T08:59:44.141Z</time>
      </trkpt>
      <trkpt lat="37.26133833" lon="-7.10434167">
        <ele>79.0</ele>
        <time>2020-01-18T08:59:45.135Z</time>
      </trkpt>
      <trkpt lat="37.26133833" lon="-7.10434167">
        <ele>79.0</ele>
        <time>2020-01-18T08:59:46.140Z</time>
      </trkpt>
      <trkpt lat="37.26128167" lon="-7.10425333">
        <ele>79.0</ele>
        <time>2020-01-18T08:59:47.166Z</time>
      </trkpt>
      <trkpt lat="37.26128167" lon="-7.10425333">
        <ele>79.0</ele>
        <time>2020-01-18T08:59:48.132Z</time>
      </trkpt>
      <trkpt lat="37.261215" lon="-7.104165">
        <ele>79.0</ele>
        <time>2020-01-18T08:59:49.160Z</time>
      </trkpt>
      <trkpt lat="37.261215" lon="-7.104165">
        <ele>79.0</ele>
        <time>2020-01-18T08:59:50.165Z</time>
      </trkpt>
      <trkpt lat="37.261145" lon="-7.104065">
        <ele>79.0</ele>
        <time>2020-01-18T08:59:51.164Z</time>
      </trkpt>
      <trkpt lat="37.261145" lon="-7.104065">
        <ele>79.0</ele>
        <time>2020-01-18T08:59:52.129Z</time>
      </trkpt>
      <trkpt lat="37.26105833" lon="-7.10395667">
        <ele>79.0</ele>
        <time>2020-01-18T08:59:53.156Z</time>
      </trkpt>
      <trkpt lat="37.26101333" lon="-7.10390333">
        <ele>79.0</ele>
        <time>2020-01-18T08:59:54.144Z</time>
      </trkpt>
      <trkpt lat="37.26101333" lon="-7.10390333">
        <ele>79.0</ele>
        <time>2020-01-18T08:59:55.156Z</time>
      </trkpt>
      <trkpt lat="37.26092333" lon="-7.10377">
        <ele>79.0</ele>
        <time>2020-01-18T08:59:56.168Z</time>
      </trkpt>
      <trkpt lat="37.26087667" lon="-7.10371">
        <ele>79.0</ele>
        <time>2020-01-18T08:59:57.129Z</time>
      </trkpt>
      <trkpt lat="37.26082833" lon="-7.103655">
        <ele>79.0</ele>
        <time>2020-01-18T08:59:58.165Z</time>
      </trkpt>
      <trkpt lat="37.26082833" lon="-7.103655">
        <ele>79.0</ele>
        <time>2020-01-18T08:59:59.131Z</time>
      </trkpt>
      <trkpt lat="37.260745" lon="-7.10356">
        <ele>79.0</ele>
        <time>2020-01-18T09:00:00.157Z</time>
      </trkpt>
      <trkpt lat="37.260745" lon="-7.10356">
        <ele>79.0</ele>
        <time>2020-01-18T09:00:01.163Z</time>
      </trkpt>
      <trkpt lat="37.26067" lon="-7.10345667">
        <ele>80.0</ele>
        <time>2020-01-18T09:00:02.149Z</time>
      </trkpt>
      <trkpt lat="37.26067" lon="-7.10345667">
        <ele>80.0</ele>
        <time>2020-01-18T09:00:03.156Z</time>
      </trkpt>
      <trkpt lat="37.26059" lon="-7.10337">
        <ele>80.0</ele>
        <time>2020-01-18T09:00:04.165Z</time>
      </trkpt>
      <trkpt lat="37.26055167" lon="-7.103335">
        <ele>80.0</ele>
        <time>2020-01-18T09:00:05.144Z</time>
      </trkpt>
      <trkpt lat="37.26055167" lon="-7.103335">
        <ele>80.0</ele>
        <time>2020-01-18T09:00:06.151Z</time>
      </trkpt>
      <trkpt lat="37.26049167" lon="-7.10326167">
        <ele>81.0</ele>
        <time>2020-01-18T09:00:07.152Z</time>
      </trkpt>
      <trkpt lat="37.26049167" lon="-7.10326167">
        <ele>81.0</ele>
        <time>2020-01-18T09:00:08.157Z</time>
      </trkpt>
      <trkpt lat="37.260435" lon="-7.10316167">
        <ele>81.0</ele>
        <time>2020-01-18T09:00:09.153Z</time>
      </trkpt>
      <trkpt lat="37.260435" lon="-7.10316167">
        <ele>81.0</ele>
        <time>2020-01-18T09:00:10.159Z</time>
      </trkpt>
      <trkpt lat="37.26038167" lon="-7.10305333">
        <ele>82.0</ele>
        <time>2020-01-18T09:00:11.143Z</time>
      </trkpt>
      <trkpt lat="37.26038167" lon="-7.10305333">
        <ele>82.0</ele>
        <time>2020-01-18T09:00:12.149Z</time>
      </trkpt>
      <trkpt lat="37.26033167" lon="-7.10294167">
        <ele>82.0</ele>
        <time>2020-01-18T09:00:13.167Z</time>
      </trkpt>
      <trkpt lat="37.26033167" lon="-7.10294167">
        <ele>82.0</ele>
        <time>2020-01-18T09:00:14.132Z</time>
      </trkpt>
      <trkpt lat="37.26026833" lon="-7.10285">
        <ele>82.0</ele>
        <time>2020-01-18T09:00:15.146Z</time>
      </trkpt>
      <trkpt lat="37.26023333" lon="-7.1028">
        <ele>82.0</ele>
        <time>2020-01-18T09:00:16.145Z</time>
      </trkpt>
      <trkpt lat="37.26020167" lon="-7.10274833">
        <ele>82.0</ele>
        <time>2020-01-18T09:00:17.132Z</time>
      </trkpt>
      <trkpt lat="37.26020167" lon="-7.10274833">
        <ele>82.0</ele>
        <time>2020-01-18T09:00:18.137Z</time>
      </trkpt>
      <trkpt lat="37.26013833" lon="-7.10265667">
        <ele>82.0</ele>
        <time>2020-01-18T09:00:19.140Z</time>
      </trkpt>
      <trkpt lat="37.26013833" lon="-7.10265667">
        <ele>82.0</ele>
        <time>2020-01-18T09:00:20.146Z</time>
      </trkpt>
      <trkpt lat="37.26008333" lon="-7.10257">
        <ele>82.0</ele>
        <time>2020-01-18T09:00:21.133Z</time>
      </trkpt>
      <trkpt lat="37.26008333" lon="-7.10257">
        <ele>82.0</ele>
        <time>2020-01-18T09:00:22.138Z</time>
      </trkpt>
      <trkpt lat="37.26002" lon="-7.10247">
        <ele>83.0</ele>
        <time>2020-01-18T09:00:23.157Z</time>
      </trkpt>
      <trkpt lat="37.26002" lon="-7.10247">
        <ele>83.0</ele>
        <time>2020-01-18T09:00:24.162Z</time>
      </trkpt>
      <trkpt lat="37.25995667" lon="-7.1024">
        <ele>83.0</ele>
        <time>2020-01-18T09:00:25.147Z</time>
      </trkpt>
      <trkpt lat="37.25992667" lon="-7.10238333">
        <ele>83.0</ele>
        <time>2020-01-18T09:00:26.138Z</time>
      </trkpt>
      <trkpt lat="37.25989" lon="-7.10238">
        <ele>83.0</ele>
        <time>2020-01-18T09:00:27.155Z</time>
      </trkpt>
      <trkpt lat="37.25989" lon="-7.10238">
        <ele>83.0</ele>
        <time>2020-01-18T09:00:28.160Z</time>
      </trkpt>
      <trkpt lat="37.25982" lon="-7.10240833">
        <ele>83.0</ele>
        <time>2020-01-18T09:00:29.159Z</time>
      </trkpt>
      <trkpt lat="37.25982" lon="-7.10240833">
        <ele>83.0</ele>
        <time>2020-01-18T09:00:30.166Z</time>
      </trkpt>
      <trkpt lat="37.25973833" lon="-7.10245167">
        <ele>82.0</ele>
        <time>2020-01-18T09:00:31.158Z</time>
      </trkpt>
      <trkpt lat="37.25973833" lon="-7.10245167">
        <ele>82.0</ele>
        <time>2020-01-18T09:00:32.156Z</time>
      </trkpt>
      <trkpt lat="37.25966" lon="-7.102485">
        <ele>82.0</ele>
        <time>2020-01-18T09:00:33.144Z</time>
      </trkpt>
      <trkpt lat="37.25966" lon="-7.102485">
        <ele>82.0</ele>
        <time>2020-01-18T09:00:34.149Z</time>
      </trkpt>
      <trkpt lat="37.259575" lon="-7.10250167">
        <ele>79.0</ele>
        <time>2020-01-18T09:00:35.142Z</time>
      </trkpt>
      <trkpt lat="37.259575" lon="-7.10250167">
        <ele>79.0</ele>
        <time>2020-01-18T09:00:36.147Z</time>
      </trkpt>
      <trkpt lat="37.25949167" lon="-7.10253333">
        <ele>78.0</ele>
        <time>2020-01-18T09:00:37.129Z</time>
      </trkpt>
      <trkpt lat="37.25949167" lon="-7.10253333">
        <ele>78.0</ele>
        <time>2020-01-18T09:00:38.135Z</time>
      </trkpt>
      <trkpt lat="37.25940333" lon="-7.10258833">
        <ele>78.0</ele>
        <time>2020-01-18T09:00:39.140Z</time>
      </trkpt>
      <trkpt lat="37.25940333" lon="-7.10258833">
        <ele>78.0</ele>
        <time>2020-01-18T09:00:40.145Z</time>
      </trkpt>
      <trkpt lat="37.25932667" lon="-7.10263">
        <ele>77.0</ele>
        <time>2020-01-18T09:00:41.150Z</time>
      </trkpt>
      <trkpt lat="37.25932667" lon="-7.10263">
        <ele>77.0</ele>
        <time>2020-01-18T09:00:42.156Z</time>
      </trkpt>
      <trkpt lat="37.25924167" lon="-7.10263667">
        <ele>77.0</ele>
        <time>2020-01-18T09:00:43.163Z</time>
      </trkpt>
      <trkpt lat="37.25919333" lon="-7.10265167">
        <ele>76.0</ele>
        <time>2020-01-18T09:00:44.155Z</time>
      </trkpt>
      <trkpt lat="37.25919333" lon="-7.10265167">
        <ele>76.0</ele>
        <time>2020-01-18T09:00:45.161Z</time>
      </trkpt>
      <trkpt lat="37.25910333" lon="-7.10272667">
        <ele>76.0</ele>
        <time>2020-01-18T09:00:46.147Z</time>
      </trkpt>
      <trkpt lat="37.259055" lon="-7.10277167">
        <ele>76.0</ele>
        <time>2020-01-18T09:00:47.151Z</time>
      </trkpt>
      <trkpt lat="37.259055" lon="-7.10277167">
        <ele>76.0</ele>
        <time>2020-01-18T09:00:48.158Z</time>
      </trkpt>
      <trkpt lat="37.25894333" lon="-7.10286833">
        <ele>75.0</ele>
        <time>2020-01-18T09:00:49.158Z</time>
      </trkpt>
      <trkpt lat="37.25888667" lon="-7.10293167">
        <ele>74.0</ele>
        <time>2020-01-18T09:00:50.154Z</time>
      </trkpt>
      <trkpt lat="37.25888667" lon="-7.10293167">
        <ele>74.0</ele>
        <time>2020-01-18T09:00:51.161Z</time>
      </trkpt>
      <trkpt lat="37.25876333" lon="-7.10305667">
        <ele>73.0</ele>
        <time>2020-01-18T09:00:52.160Z</time>
      </trkpt>
      <trkpt lat="37.25876333" lon="-7.10305667">
        <ele>73.0</ele>
        <time>2020-01-18T09:00:53.164Z</time>
      </trkpt>
      <trkpt lat="37.25863667" lon="-7.10314667">
        <ele>73.0</ele>
        <time>2020-01-18T09:00:54.155Z</time>
      </trkpt>
      <trkpt lat="37.25863667" lon="-7.10314667">
        <ele>73.0</ele>
        <time>2020-01-18T09:00:55.160Z</time>
      </trkpt>
      <trkpt lat="37.25854" lon="-7.103195">
        <ele>72.0</ele>
        <time>2020-01-18T09:00:56.149Z</time>
      </trkpt>
      <trkpt lat="37.25854" lon="-7.103195">
        <ele>72.0</ele>
        <time>2020-01-18T09:00:57.155Z</time>
      </trkpt>
      <trkpt lat="37.25846833" lon="-7.10322167">
        <ele>72.0</ele>
        <time>2020-01-18T09:00:58.152Z</time>
      </trkpt>
      <trkpt lat="37.25843333" lon="-7.10323167">
        <ele>72.0</ele>
        <time>2020-01-18T09:00:59.135Z</time>
      </trkpt>
      <trkpt lat="37.25843333" lon="-7.10323167">
        <ele>72.0</ele>
        <time>2020-01-18T09:01:00.140Z</time>
      </trkpt>
      <trkpt lat="37.258355" lon="-7.10327167">
        <ele>72.0</ele>
        <time>2020-01-18T09:01:01.160Z</time>
      </trkpt>
      <trkpt lat="37.25831" lon="-7.103295">
        <ele>72.0</ele>
        <time>2020-01-18T09:01:02.167Z</time>
      </trkpt>
      <trkpt lat="37.25831" lon="-7.103295">
        <ele>72.0</ele>
        <time>2020-01-18T09:01:03.133Z</time>
      </trkpt>
      <trkpt lat="37.25821333" lon="-7.10335667">
        <ele>72.0</ele>
        <time>2020-01-18T09:01:04.158Z</time>
      </trkpt>
      <trkpt lat="37.25816667" lon="-7.10338833">
        <ele>73.0</ele>
        <time>2020-01-18T09:01:05.149Z</time>
      </trkpt>
      <trkpt lat="37.25816667" lon="-7.10338833">
        <ele>73.0</ele>
        <time>2020-01-18T09:01:06.156Z</time>
      </trkpt>
      <trkpt lat="37.25806333" lon="-7.10345167">
        <ele>73.0</ele>
        <time>2020-01-18T09:01:07.156Z</time>
      </trkpt>
      <trkpt lat="37.25801333" lon="-7.10349">
        <ele>73.0</ele>
        <time>2020-01-18T09:01:08.149Z</time>
      </trkpt>
      <trkpt lat="37.25801333" lon="-7.10349">
        <ele>73.0</ele>
        <time>2020-01-18T09:01:09.159Z</time>
      </trkpt>
      <trkpt lat="37.257915" lon="-7.103545">
        <ele>73.0</ele>
        <time>2020-01-18T09:01:10.152Z</time>
      </trkpt>
      <trkpt lat="37.25786833" lon="-7.10357">
        <ele>73.0</ele>
        <time>2020-01-18T09:01:11.155Z</time>
      </trkpt>
      <trkpt lat="37.25786833" lon="-7.10357">
        <ele>73.0</ele>
        <time>2020-01-18T09:01:12.167Z</time>
      </trkpt>
      <trkpt lat="37.25777167" lon="-7.10361333">
        <ele>73.0</ele>
        <time>2020-01-18T09:01:13.149Z</time>
      </trkpt>
      <trkpt lat="37.25772833" lon="-7.10364167">
        <ele>73.0</ele>
        <time>2020-01-18T09:01:14.136Z</time>
      </trkpt>
      <trkpt lat="37.25772833" lon="-7.10364167">
        <ele>73.0</ele>
        <time>2020-01-18T09:01:15.141Z</time>
      </trkpt>
      <trkpt lat="37.25764333" lon="-7.103695">
        <ele>73.0</ele>
        <time>2020-01-18T09:01:16.138Z</time>
      </trkpt>
      <trkpt lat="37.25764333" lon="-7.103695">
        <ele>73.0</ele>
        <time>2020-01-18T09:01:17.143Z</time>
      </trkpt>
      <trkpt lat="37.25753833" lon="-7.10376">
        <ele>74.0</ele>
        <time>2020-01-18T09:01:18.131Z</time>
      </trkpt>
      <trkpt lat="37.25753833" lon="-7.10376">
        <ele>74.0</ele>
        <time>2020-01-18T09:01:19.137Z</time>
      </trkpt>
      <trkpt lat="37.25745167" lon="-7.10383333">
        <ele>74.0</ele>
        <time>2020-01-18T09:01:20.187Z</time>
      </trkpt>
      <trkpt lat="37.25745167" lon="-7.10383333">
        <ele>74.0</ele>
        <time>2020-01-18T09:01:21.132Z</time>
      </trkpt>
      <trkpt lat="37.25735667" lon="-7.10388167">
        <ele>73.0</ele>
        <time>2020-01-18T09:01:22.161Z</time>
      </trkpt>
      <trkpt lat="37.25735667" lon="-7.10388167">
        <ele>73.0</ele>
        <time>2020-01-18T09:01:23.166Z</time>
      </trkpt>
      <trkpt lat="37.25727667" lon="-7.103935">
        <ele>73.0</ele>
        <time>2020-01-18T09:01:24.154Z</time>
      </trkpt>
      <trkpt lat="37.25727667" lon="-7.103935">
        <ele>73.0</ele>
        <time>2020-01-18T09:01:25.159Z</time>
      </trkpt>
      <trkpt lat="37.257195" lon="-7.10398333">
        <ele>73.0</ele>
        <time>2020-01-18T09:01:26.144Z</time>
      </trkpt>
      <trkpt lat="37.257195" lon="-7.10398333">
        <ele>73.0</ele>
        <time>2020-01-18T09:01:27.150Z</time>
      </trkpt>
      <trkpt lat="37.25710667" lon="-7.10404">
        <ele>73.0</ele>
        <time>2020-01-18T09:01:28.144Z</time>
      </trkpt>
      <trkpt lat="37.25706333" lon="-7.10407167">
        <ele>73.0</ele>
        <time>2020-01-18T09:01:29.134Z</time>
      </trkpt>
      <trkpt lat="37.25706333" lon="-7.10407167">
        <ele>73.0</ele>
        <time>2020-01-18T09:01:30.139Z</time>
      </trkpt>
      <trkpt lat="37.256995" lon="-7.10413167">
        <ele>74.0</ele>
        <time>2020-01-18T09:01:31.154Z</time>
      </trkpt>
      <trkpt lat="37.256995" lon="-7.10413167">
        <ele>74.0</ele>
        <time>2020-01-18T09:01:32.163Z</time>
      </trkpt>
      <trkpt lat="37.25691833" lon="-7.1042">
        <ele>74.0</ele>
        <time>2020-01-18T09:01:33.145Z</time>
      </trkpt>
      <trkpt lat="37.25689" lon="-7.10423667">
        <ele>74.0</ele>
        <time>2020-01-18T09:01:34.131Z</time>
      </trkpt>
      <trkpt lat="37.25689" lon="-7.10423667">
        <ele>74.0</ele>
        <time>2020-01-18T09:01:35.137Z</time>
      </trkpt>
      <trkpt lat="37.25681833" lon="-7.10430167">
        <ele>74.0</ele>
        <time>2020-01-18T09:01:36.160Z</time>
      </trkpt>
      <trkpt lat="37.25678167" lon="-7.10433167">
        <ele>75.0</ele>
        <time>2020-01-18T09:01:37.140Z</time>
      </trkpt>
      <trkpt lat="37.25678167" lon="-7.10433167">
        <ele>75.0</ele>
        <time>2020-01-18T09:01:38.145Z</time>
      </trkpt>
      <trkpt lat="37.25669667" lon="-7.104385">
        <ele>75.0</ele>
        <time>2020-01-18T09:01:39.142Z</time>
      </trkpt>
      <trkpt lat="37.25665" lon="-7.10440333">
        <ele>74.0</ele>
        <time>2020-01-18T09:01:40.132Z</time>
      </trkpt>
      <trkpt lat="37.25665" lon="-7.10440333">
        <ele>74.0</ele>
        <time>2020-01-18T09:01:41.138Z</time>
      </trkpt>
      <trkpt lat="37.256555" lon="-7.10442167">
        <ele>75.0</ele>
        <time>2020-01-18T09:01:42.164Z</time>
      </trkpt>
      <trkpt lat="37.256555" lon="-7.10442167">
        <ele>75.0</ele>
        <time>2020-01-18T09:01:43.129Z</time>
      </trkpt>
      <trkpt lat="37.25647" lon="-7.10447667">
        <ele>75.0</ele>
        <time>2020-01-18T09:01:44.155Z</time>
      </trkpt>
      <trkpt lat="37.25647" lon="-7.10447667">
        <ele>75.0</ele>
        <time>2020-01-18T09:01:45.162Z</time>
      </trkpt>
      <trkpt lat="37.25638167" lon="-7.10454667">
        <ele>75.0</ele>
        <time>2020-01-18T09:01:46.145Z</time>
      </trkpt>
      <trkpt lat="37.25632333" lon="-7.10457">
        <ele>75.0</ele>
        <time>2020-01-18T09:01:47.164Z</time>
      </trkpt>
      <trkpt lat="37.25632333" lon="-7.10457">
        <ele>75.0</ele>
        <time>2020-01-18T09:01:48.130Z</time>
      </trkpt>
      <trkpt lat="37.25621" lon="-7.10463">
        <ele>75.0</ele>
        <time>2020-01-18T09:01:49.168Z</time>
      </trkpt>
      <trkpt lat="37.25621" lon="-7.10463">
        <ele>75.0</ele>
        <time>2020-01-18T09:01:50.133Z</time>
      </trkpt>
      <trkpt lat="37.25611" lon="-7.104725">
        <ele>75.0</ele>
        <time>2020-01-18T09:01:51.147Z</time>
      </trkpt>
      <trkpt lat="37.25611" lon="-7.104725">
        <ele>75.0</ele>
        <time>2020-01-18T09:01:52.153Z</time>
      </trkpt>
      <trkpt lat="37.25603167" lon="-7.10484">
        <ele>75.0</ele>
        <time>2020-01-18T09:01:53.151Z</time>
      </trkpt>
      <trkpt lat="37.25599" lon="-7.10488667">
        <ele>75.0</ele>
        <time>2020-01-18T09:01:54.154Z</time>
      </trkpt>
      <trkpt lat="37.25599" lon="-7.10488667">
        <ele>75.0</ele>
        <time>2020-01-18T09:01:55.162Z</time>
      </trkpt>
      <trkpt lat="37.25588333" lon="-7.10498333">
        <ele>75.0</ele>
        <time>2020-01-18T09:01:56.150Z</time>
      </trkpt>
      <trkpt lat="37.25588333" lon="-7.10498333">
        <ele>75.0</ele>
        <time>2020-01-18T09:01:57.155Z</time>
      </trkpt>
      <trkpt lat="37.25576167" lon="-7.10506">
        <ele>74.0</ele>
        <time>2020-01-18T09:01:58.146Z</time>
      </trkpt>
      <trkpt lat="37.25576167" lon="-7.10506">
        <ele>74.0</ele>
        <time>2020-01-18T09:01:59.152Z</time>
      </trkpt>
      <trkpt lat="37.25564833" lon="-7.10513667">
        <ele>74.0</ele>
        <time>2020-01-18T09:02:00.141Z</time>
      </trkpt>
      <trkpt lat="37.25564833" lon="-7.10513667">
        <ele>74.0</ele>
        <time>2020-01-18T09:02:01.147Z</time>
      </trkpt>
      <trkpt lat="37.25553667" lon="-7.10521167">
        <ele>74.0</ele>
        <time>2020-01-18T09:02:02.135Z</time>
      </trkpt>
      <trkpt lat="37.25553667" lon="-7.10521167">
        <ele>74.0</ele>
        <time>2020-01-18T09:02:03.141Z</time>
      </trkpt>
      <trkpt lat="37.255415" lon="-7.105285">
        <ele>73.0</ele>
        <time>2020-01-18T09:02:04.132Z</time>
      </trkpt>
      <trkpt lat="37.255415" lon="-7.105285">
        <ele>73.0</ele>
        <time>2020-01-18T09:02:05.137Z</time>
      </trkpt>
      <trkpt lat="37.25528833" lon="-7.10538833">
        <ele>72.0</ele>
        <time>2020-01-18T09:02:06.130Z</time>
      </trkpt>
      <trkpt lat="37.25528833" lon="-7.10538833">
        <ele>72.0</ele>
        <time>2020-01-18T09:02:07.135Z</time>
      </trkpt>
      <trkpt lat="37.25515333" lon="-7.10546167">
        <ele>72.0</ele>
        <time>2020-01-18T09:02:08.156Z</time>
      </trkpt>
      <trkpt lat="37.25515333" lon="-7.10546167">
        <ele>72.0</ele>
        <time>2020-01-18T09:02:09.161Z</time>
      </trkpt>
      <trkpt lat="37.25503" lon="-7.10553333">
        <ele>72.0</ele>
        <time>2020-01-18T09:02:10.147Z</time>
      </trkpt>
      <trkpt lat="37.25497667" lon="-7.10557">
        <ele>71.0</ele>
        <time>2020-01-18T09:02:11.134Z</time>
      </trkpt>
      <trkpt lat="37.25491833" lon="-7.10560667">
        <ele>71.0</ele>
        <time>2020-01-18T09:02:12.168Z</time>
      </trkpt>
      <trkpt lat="37.25491833" lon="-7.10560667">
        <ele>71.0</ele>
        <time>2020-01-18T09:02:13.137Z</time>
      </trkpt>
      <trkpt lat="37.25480333" lon="-7.105675">
        <ele>71.0</ele>
        <time>2020-01-18T09:02:14.129Z</time>
      </trkpt>
      <trkpt lat="37.25480333" lon="-7.105675">
        <ele>71.0</ele>
        <time>2020-01-18T09:02:15.134Z</time>
      </trkpt>
      <trkpt lat="37.25468833" lon="-7.10573833">
        <ele>70.0</ele>
        <time>2020-01-18T09:02:16.162Z</time>
      </trkpt>
      <trkpt lat="37.25463167" lon="-7.105765">
        <ele>70.0</ele>
        <time>2020-01-18T09:02:17.147Z</time>
      </trkpt>
      <trkpt lat="37.25463167" lon="-7.105765">
        <ele>70.0</ele>
        <time>2020-01-18T09:02:18.152Z</time>
      </trkpt>
      <trkpt lat="37.254505" lon="-7.10584">
        <ele>69.0</ele>
        <time>2020-01-18T09:02:19.139Z</time>
      </trkpt>
      <trkpt lat="37.254505" lon="-7.10584">
        <ele>69.0</ele>
        <time>2020-01-18T09:02:20.144Z</time>
      </trkpt>
      <trkpt lat="37.254365" lon="-7.105925">
        <ele>68.0</ele>
        <time>2020-01-18T09:02:21.134Z</time>
      </trkpt>
      <trkpt lat="37.254365" lon="-7.105925">
        <ele>68.0</ele>
        <time>2020-01-18T09:02:22.139Z</time>
      </trkpt>
      <trkpt lat="37.25420333" lon="-7.10602333">
        <ele>67.0</ele>
        <time>2020-01-18T09:02:23.135Z</time>
      </trkpt>
      <trkpt lat="37.25413" lon="-7.10606333">
        <ele>67.0</ele>
        <time>2020-01-18T09:02:24.136Z</time>
      </trkpt>
      <trkpt lat="37.25413" lon="-7.10606333">
        <ele>67.0</ele>
        <time>2020-01-18T09:02:25.141Z</time>
      </trkpt>
      <trkpt lat="37.254" lon="-7.10607667">
        <ele>67.0</ele>
        <time>2020-01-18T09:02:26.155Z</time>
      </trkpt>
      <trkpt lat="37.25395167" lon="-7.10606833">
        <ele>66.0</ele>
        <time>2020-01-18T09:02:27.145Z</time>
      </trkpt>
      <trkpt lat="37.25395167" lon="-7.10606833">
        <ele>66.0</ele>
        <time>2020-01-18T09:02:28.154Z</time>
      </trkpt>
      <trkpt lat="37.253855" lon="-7.10599">
        <ele>67.0</ele>
        <time>2020-01-18T09:02:29.153Z</time>
      </trkpt>
      <trkpt lat="37.253855" lon="-7.10599">
        <ele>67.0</ele>
        <time>2020-01-18T09:02:30.158Z</time>
      </trkpt>
      <trkpt lat="37.253775" lon="-7.10588167">
        <ele>67.0</ele>
        <time>2020-01-18T09:02:31.164Z</time>
      </trkpt>
      <trkpt lat="37.25374" lon="-7.105835">
        <ele>67.0</ele>
        <time>2020-01-18T09:02:32.165Z</time>
      </trkpt>
      <trkpt lat="37.25374" lon="-7.105835">
        <ele>67.0</ele>
        <time>2020-01-18T09:02:33.130Z</time>
      </trkpt>
      <trkpt lat="37.25367" lon="-7.10571167">
        <ele>67.0</ele>
        <time>2020-01-18T09:02:34.163Z</time>
      </trkpt>
      <trkpt lat="37.253625" lon="-7.10565">
        <ele>67.0</ele>
        <time>2020-01-18T09:02:35.150Z</time>
      </trkpt>
      <trkpt lat="37.253625" lon="-7.10565">
        <ele>67.0</ele>
        <time>2020-01-18T09:02:36.156Z</time>
      </trkpt>
      <trkpt lat="37.25353833" lon="-7.10552833">
        <ele>67.0</ele>
        <time>2020-01-18T09:02:37.153Z</time>
      </trkpt>
      <trkpt lat="37.25349833" lon="-7.105465">
        <ele>67.0</ele>
        <time>2020-01-18T09:02:38.139Z</time>
      </trkpt>
      <trkpt lat="37.25345667" lon="-7.10539167">
        <ele>67.0</ele>
        <time>2020-01-18T09:02:39.134Z</time>
      </trkpt>
      <trkpt lat="37.25345667" lon="-7.10539167">
        <ele>67.0</ele>
        <time>2020-01-18T09:02:40.141Z</time>
      </trkpt>
      <trkpt lat="37.25338833" lon="-7.105245">
        <ele>67.0</ele>
        <time>2020-01-18T09:02:41.143Z</time>
      </trkpt>
      <trkpt lat="37.25338833" lon="-7.105245">
        <ele>67.0</ele>
        <time>2020-01-18T09:02:42.149Z</time>
      </trkpt>
      <trkpt lat="37.25333" lon="-7.10507333">
        <ele>67.0</ele>
        <time>2020-01-18T09:02:43.137Z</time>
      </trkpt>
      <trkpt lat="37.2533" lon="-7.10500333">
        <ele>67.0</ele>
        <time>2020-01-18T09:02:44.141Z</time>
      </trkpt>
      <trkpt lat="37.2533" lon="-7.10500333">
        <ele>67.0</ele>
        <time>2020-01-18T09:02:45.147Z</time>
      </trkpt>
      <trkpt lat="37.25324833" lon="-7.10489">
        <ele>67.0</ele>
        <time>2020-01-18T09:02:46.153Z</time>
      </trkpt>
      <trkpt lat="37.25324833" lon="-7.10489">
        <ele>67.0</ele>
        <time>2020-01-18T09:02:47.159Z</time>
      </trkpt>
      <trkpt lat="37.25318667" lon="-7.104775">
        <ele>67.0</ele>
        <time>2020-01-18T09:02:48.141Z</time>
      </trkpt>
      <trkpt lat="37.25318667" lon="-7.104775">
        <ele>67.0</ele>
        <time>2020-01-18T09:02:49.147Z</time>
      </trkpt>
      <trkpt lat="37.25312" lon="-7.10466833">
        <ele>68.0</ele>
        <time>2020-01-18T09:02:50.137Z</time>
      </trkpt>
      <trkpt lat="37.253085" lon="-7.10461333">
        <ele>68.0</ele>
        <time>2020-01-18T09:02:51.163Z</time>
      </trkpt>
      <trkpt lat="37.25305" lon="-7.10456667">
        <ele>68.0</ele>
        <time>2020-01-18T09:02:52.161Z</time>
      </trkpt>
      <trkpt lat="37.25305" lon="-7.10456667">
        <ele>68.0</ele>
        <time>2020-01-18T09:02:53.167Z</time>
      </trkpt>
      <trkpt lat="37.25298833" lon="-7.10446333">
        <ele>69.0</ele>
        <time>2020-01-18T09:02:54.146Z</time>
      </trkpt>
      <trkpt lat="37.25298833" lon="-7.10446333">
        <ele>69.0</ele>
        <time>2020-01-18T09:02:55.151Z</time>
      </trkpt>
      <trkpt lat="37.25292667" lon="-7.10436333">
        <ele>69.0</ele>
        <time>2020-01-18T09:02:56.135Z</time>
      </trkpt>
      <trkpt lat="37.25289667" lon="-7.10431667">
        <ele>69.0</ele>
        <time>2020-01-18T09:02:57.158Z</time>
      </trkpt>
      <trkpt lat="37.25289667" lon="-7.10431667">
        <ele>69.0</ele>
        <time>2020-01-18T09:02:58.163Z</time>
      </trkpt>
      <trkpt lat="37.25283333" lon="-7.10422">
        <ele>69.0</ele>
        <time>2020-01-18T09:02:59.153Z</time>
      </trkpt>
      <trkpt lat="37.25283333" lon="-7.10422">
        <ele>69.0</ele>
        <time>2020-01-18T09:03:00.158Z</time>
      </trkpt>
      <trkpt lat="37.25274667" lon="-7.104095">
        <ele>68.0</ele>
        <time>2020-01-18T09:03:01.144Z</time>
      </trkpt>
      <trkpt lat="37.25274667" lon="-7.104095">
        <ele>68.0</ele>
        <time>2020-01-18T09:03:02.153Z</time>
      </trkpt>
      <trkpt lat="37.252665" lon="-7.10398167">
        <ele>68.0</ele>
        <time>2020-01-18T09:03:03.242Z</time>
      </trkpt>
      <trkpt lat="37.252665" lon="-7.10398167">
        <ele>68.0</ele>
        <time>2020-01-18T09:03:04.133Z</time>
      </trkpt>
      <trkpt lat="37.25262" lon="-7.10389">
        <ele>67.0</ele>
        <time>2020-01-18T09:03:05.163Z</time>
      </trkpt>
      <trkpt lat="37.25262" lon="-7.10389">
        <ele>67.0</ele>
        <time>2020-01-18T09:03:06.129Z</time>
      </trkpt>
      <trkpt lat="37.25260667" lon="-7.10382833">
        <ele>67.0</ele>
        <time>2020-01-18T09:03:07.156Z</time>
      </trkpt>
      <trkpt lat="37.25261333" lon="-7.10380833">
        <ele>67.0</ele>
        <time>2020-01-18T09:03:08.143Z</time>
      </trkpt>
      <trkpt lat="37.25261333" lon="-7.10380833">
        <ele>67.0</ele>
        <time>2020-01-18T09:03:09.148Z</time>
      </trkpt>
      <trkpt lat="37.25262833" lon="-7.10377167">
        <ele>67.0</ele>
        <time>2020-01-18T09:03:10.137Z</time>
      </trkpt>
      <trkpt lat="37.25262833" lon="-7.10377167">
        <ele>67.0</ele>
        <time>2020-01-18T09:03:11.143Z</time>
      </trkpt>
      <trkpt lat="37.25265167" lon="-7.10373">
        <ele>67.0</ele>
        <time>2020-01-18T09:03:12.138Z</time>
      </trkpt>
      <trkpt lat="37.25265167" lon="-7.10373">
        <ele>67.0</ele>
        <time>2020-01-18T09:03:13.144Z</time>
      </trkpt>
      <trkpt lat="37.25268167" lon="-7.10369167">
        <ele>67.0</ele>
        <time>2020-01-18T09:03:14.138Z</time>
      </trkpt>
      <trkpt lat="37.25268167" lon="-7.10369167">
        <ele>67.0</ele>
        <time>2020-01-18T09:03:15.143Z</time>
      </trkpt>
      <trkpt lat="37.25272833" lon="-7.10364833">
        <ele>67.0</ele>
        <time>2020-01-18T09:03:16.146Z</time>
      </trkpt>
      <trkpt lat="37.25275" lon="-7.10363">
        <ele>67.0</ele>
        <time>2020-01-18T09:03:17.130Z</time>
      </trkpt>
      <trkpt lat="37.25275" lon="-7.10363">
        <ele>67.0</ele>
        <time>2020-01-18T09:03:18.135Z</time>
      </trkpt>
      <trkpt lat="37.252785" lon="-7.10358">
        <ele>67.0</ele>
        <time>2020-01-18T09:03:19.164Z</time>
      </trkpt>
      <trkpt lat="37.252785" lon="-7.10358">
        <ele>67.0</ele>
        <time>2020-01-18T09:03:20.129Z</time>
      </trkpt>
      <trkpt lat="37.25280167" lon="-7.10352667">
        <ele>67.0</ele>
        <time>2020-01-18T09:03:21.149Z</time>
      </trkpt>
      <trkpt lat="37.25281167" lon="-7.10348833">
        <ele>67.0</ele>
        <time>2020-01-18T09:03:22.140Z</time>
      </trkpt>
      <trkpt lat="37.25281167" lon="-7.10348833">
        <ele>67.0</ele>
        <time>2020-01-18T09:03:23.145Z</time>
      </trkpt>
      <trkpt lat="37.25283333" lon="-7.10343">
        <ele>67.0</ele>
        <time>2020-01-18T09:03:24.145Z</time>
      </trkpt>
      <trkpt lat="37.25283333" lon="-7.10343">
        <ele>67.0</ele>
        <time>2020-01-18T09:03:25.154Z</time>
      </trkpt>
      <trkpt lat="37.252865" lon="-7.10338667">
        <ele>66.0</ele>
        <time>2020-01-18T09:03:26.142Z</time>
      </trkpt>
      <trkpt lat="37.252865" lon="-7.10338667">
        <ele>66.0</ele>
        <time>2020-01-18T09:03:27.157Z</time>
      </trkpt>
      <trkpt lat="37.25289667" lon="-7.10334833">
        <ele>66.0</ele>
        <time>2020-01-18T09:03:28.159Z</time>
      </trkpt>
      <trkpt lat="37.252905" lon="-7.10330667">
        <ele>66.0</ele>
        <time>2020-01-18T09:03:29.157Z</time>
      </trkpt>
      <trkpt lat="37.252905" lon="-7.10330667">
        <ele>66.0</ele>
        <time>2020-01-18T09:03:30.162Z</time>
      </trkpt>
      <trkpt lat="37.25293667" lon="-7.10325333">
        <ele>66.0</ele>
        <time>2020-01-18T09:03:31.167Z</time>
      </trkpt>
      <trkpt lat="37.25293667" lon="-7.10325333">
        <ele>66.0</ele>
        <time>2020-01-18T09:03:32.133Z</time>
      </trkpt>
      <trkpt lat="37.25296" lon="-7.103205">
        <ele>66.0</ele>
        <time>2020-01-18T09:03:33.130Z</time>
      </trkpt>
      <trkpt lat="37.25297167" lon="-7.10317833">
        <ele>66.0</ele>
        <time>2020-01-18T09:03:34.169Z</time>
      </trkpt>
      <trkpt lat="37.25297167" lon="-7.10317833">
        <ele>66.0</ele>
        <time>2020-01-18T09:03:35.134Z</time>
      </trkpt>
      <trkpt lat="37.25301" lon="-7.10311333">
        <ele>67.0</ele>
        <time>2020-01-18T09:03:36.143Z</time>
      </trkpt>
      <trkpt lat="37.25303833" lon="-7.10308333">
        <ele>67.0</ele>
        <time>2020-01-18T09:03:37.154Z</time>
      </trkpt>
      <trkpt lat="37.25303833" lon="-7.10308333">
        <ele>67.0</ele>
        <time>2020-01-18T09:03:38.130Z</time>
      </trkpt>
      <trkpt lat="37.2531" lon="-7.10303">
        <ele>67.0</ele>
        <time>2020-01-18T09:03:39.159Z</time>
      </trkpt>
      <trkpt lat="37.2531" lon="-7.10303">
        <ele>67.0</ele>
        <time>2020-01-18T09:03:40.164Z</time>
      </trkpt>
      <trkpt lat="37.25315333" lon="-7.10298667">
        <ele>67.0</ele>
        <time>2020-01-18T09:03:41.153Z</time>
      </trkpt>
      <trkpt lat="37.25315333" lon="-7.10298667">
        <ele>67.0</ele>
        <time>2020-01-18T09:03:42.159Z</time>
      </trkpt>
      <trkpt lat="37.25319667" lon="-7.10292333">
        <ele>68.0</ele>
        <time>2020-01-18T09:03:43.150Z</time>
      </trkpt>
      <trkpt lat="37.25322667" lon="-7.10290333">
        <ele>68.0</ele>
        <time>2020-01-18T09:03:44.135Z</time>
      </trkpt>
      <trkpt lat="37.25322667" lon="-7.10290333">
        <ele>68.0</ele>
        <time>2020-01-18T09:03:45.140Z</time>
      </trkpt>
      <trkpt lat="37.25328167" lon="-7.10282833">
        <ele>68.0</ele>
        <time>2020-01-18T09:03:46.163Z</time>
      </trkpt>
      <trkpt lat="37.25329833" lon="-7.10279167">
        <ele>68.0</ele>
        <time>2020-01-18T09:03:47.164Z</time>
      </trkpt>
      <trkpt lat="37.25329833" lon="-7.10279167">
        <ele>68.0</ele>
        <time>2020-01-18T09:03:48.129Z</time>
      </trkpt>
      <trkpt lat="37.25333333" lon="-7.10271167">
        <ele>68.0</ele>
        <time>2020-01-18T09:03:49.168Z</time>
      </trkpt>
      <trkpt lat="37.25333333" lon="-7.10271167">
        <ele>68.0</ele>
        <time>2020-01-18T09:03:50.134Z</time>
      </trkpt>
      <trkpt lat="37.25334667" lon="-7.102615">
        <ele>68.0</ele>
        <time>2020-01-18T09:03:51.151Z</time>
      </trkpt>
      <trkpt lat="37.25334667" lon="-7.102615">
        <ele>68.0</ele>
        <time>2020-01-18T09:03:52.157Z</time>
      </trkpt>
      <trkpt lat="37.25338333" lon="-7.10253667">
        <ele>69.0</ele>
        <time>2020-01-18T09:03:53.135Z</time>
      </trkpt>
      <trkpt lat="37.25340667" lon="-7.102505">
        <ele>69.0</ele>
        <time>2020-01-18T09:03:54.164Z</time>
      </trkpt>
      <trkpt lat="37.25340667" lon="-7.102505">
        <ele>69.0</ele>
        <time>2020-01-18T09:03:55.129Z</time>
      </trkpt>
      <trkpt lat="37.25348" lon="-7.10245">
        <ele>70.0</ele>
        <time>2020-01-18T09:03:56.160Z</time>
      </trkpt>
      <trkpt lat="37.25352167" lon="-7.10244333">
        <ele>70.0</ele>
        <time>2020-01-18T09:03:57.158Z</time>
      </trkpt>
      <trkpt lat="37.25352167" lon="-7.10244333">
        <ele>70.0</ele>
        <time>2020-01-18T09:03:58.163Z</time>
      </trkpt>
      <trkpt lat="37.25360833" lon="-7.10240667">
        <ele>70.0</ele>
        <time>2020-01-18T09:03:59.148Z</time>
      </trkpt>
      <trkpt lat="37.25360833" lon="-7.10240667">
        <ele>70.0</ele>
        <time>2020-01-18T09:04:00.155Z</time>
      </trkpt>
      <trkpt lat="37.25369833" lon="-7.10229667">
        <ele>71.0</ele>
        <time>2020-01-18T09:04:01.144Z</time>
      </trkpt>
      <trkpt lat="37.25369833" lon="-7.10229667">
        <ele>71.0</ele>
        <time>2020-01-18T09:04:02.152Z</time>
      </trkpt>
      <trkpt lat="37.253775" lon="-7.10221833">
        <ele>70.0</ele>
        <time>2020-01-18T09:04:03.140Z</time>
      </trkpt>
      <trkpt lat="37.253775" lon="-7.10221833">
        <ele>70.0</ele>
        <time>2020-01-18T09:04:04.145Z</time>
      </trkpt>
      <trkpt lat="37.253835" lon="-7.102155">
        <ele>71.0</ele>
        <time>2020-01-18T09:04:05.136Z</time>
      </trkpt>
      <trkpt lat="37.253835" lon="-7.102155">
        <ele>71.0</ele>
        <time>2020-01-18T09:04:06.142Z</time>
      </trkpt>
      <trkpt lat="37.25389833" lon="-7.102105">
        <ele>70.0</ele>
        <time>2020-01-18T09:04:07.134Z</time>
      </trkpt>
      <trkpt lat="37.25389833" lon="-7.102105">
        <ele>70.0</ele>
        <time>2020-01-18T09:04:08.139Z</time>
      </trkpt>
      <trkpt lat="37.25395667" lon="-7.10205667">
        <ele>70.0</ele>
        <time>2020-01-18T09:04:09.129Z</time>
      </trkpt>
      <trkpt lat="37.25395667" lon="-7.10205667">
        <ele>70.0</ele>
        <time>2020-01-18T09:04:10.134Z</time>
      </trkpt>
      <trkpt lat="37.25402" lon="-7.10199833">
        <ele>70.0</ele>
        <time>2020-01-18T09:04:11.164Z</time>
      </trkpt>
      <trkpt lat="37.25402" lon="-7.10199833">
        <ele>70.0</ele>
        <time>2020-01-18T09:04:12.130Z</time>
      </trkpt>
      <trkpt lat="37.254035" lon="-7.10191667">
        <ele>70.0</ele>
        <time>2020-01-18T09:04:13.163Z</time>
      </trkpt>
      <trkpt lat="37.25403" lon="-7.10186833">
        <ele>70.0</ele>
        <time>2020-01-18T09:04:14.155Z</time>
      </trkpt>
      <trkpt lat="37.25403" lon="-7.10186833">
        <ele>70.0</ele>
        <time>2020-01-18T09:04:15.160Z</time>
      </trkpt>
      <trkpt lat="37.25402833" lon="-7.10178333">
        <ele>70.0</ele>
        <time>2020-01-18T09:04:16.166Z</time>
      </trkpt>
      <trkpt lat="37.25403167" lon="-7.10174833">
        <ele>70.0</ele>
        <time>2020-01-18T09:04:17.154Z</time>
      </trkpt>
      <trkpt lat="37.25403167" lon="-7.10174833">
        <ele>70.0</ele>
        <time>2020-01-18T09:04:18.160Z</time>
      </trkpt>
      <trkpt lat="37.254035" lon="-7.10167667">
        <ele>71.0</ele>
        <time>2020-01-18T09:04:19.151Z</time>
      </trkpt>
      <trkpt lat="37.254035" lon="-7.10167667">
        <ele>71.0</ele>
        <time>2020-01-18T09:04:20.157Z</time>
      </trkpt>
      <trkpt lat="37.25403833" lon="-7.101595">
        <ele>71.0</ele>
        <time>2020-01-18T09:04:21.153Z</time>
      </trkpt>
      <trkpt lat="37.25403833" lon="-7.101595">
        <ele>71.0</ele>
        <time>2020-01-18T09:04:22.159Z</time>
      </trkpt>
      <trkpt lat="37.254065" lon="-7.101515">
        <ele>71.0</ele>
        <time>2020-01-18T09:04:23.146Z</time>
      </trkpt>
      <trkpt lat="37.254075" lon="-7.10147833">
        <ele>71.0</ele>
        <time>2020-01-18T09:04:24.130Z</time>
      </trkpt>
      <trkpt lat="37.254075" lon="-7.10147833">
        <ele>71.0</ele>
        <time>2020-01-18T09:04:25.135Z</time>
      </trkpt>
      <trkpt lat="37.25411167" lon="-7.10140333">
        <ele>71.0</ele>
        <time>2020-01-18T09:04:26.129Z</time>
      </trkpt>
      <trkpt lat="37.25411167" lon="-7.10140333">
        <ele>71.0</ele>
        <time>2020-01-18T09:04:27.134Z</time>
      </trkpt>
      <trkpt lat="37.25412" lon="-7.10132833">
        <ele>71.0</ele>
        <time>2020-01-18T09:04:28.161Z</time>
      </trkpt>
      <trkpt lat="37.25411" lon="-7.10128667">
        <ele>72.0</ele>
        <time>2020-01-18T09:04:29.154Z</time>
      </trkpt>
      <trkpt lat="37.25411" lon="-7.10128667">
        <ele>72.0</ele>
        <time>2020-01-18T09:04:30.161Z</time>
      </trkpt>
      <trkpt lat="37.254095" lon="-7.10118">
        <ele>72.0</ele>
        <time>2020-01-18T09:04:31.146Z</time>
      </trkpt>
      <trkpt lat="37.254095" lon="-7.10118">
        <ele>72.0</ele>
        <time>2020-01-18T09:04:32.152Z</time>
      </trkpt>
      <trkpt lat="37.25411167" lon="-7.10109333">
        <ele>72.0</ele>
        <time>2020-01-18T09:04:33.159Z</time>
      </trkpt>
      <trkpt lat="37.25412" lon="-7.10105333">
        <ele>72.0</ele>
        <time>2020-01-18T09:04:34.145Z</time>
      </trkpt>
      <trkpt lat="37.25412" lon="-7.10105333">
        <ele>72.0</ele>
        <time>2020-01-18T09:04:35.151Z</time>
      </trkpt>
      <trkpt lat="37.25409" lon="-7.10097833">
        <ele>73.0</ele>
        <time>2020-01-18T09:04:36.145Z</time>
      </trkpt>
      <trkpt lat="37.25409" lon="-7.10097833">
        <ele>73.0</ele>
        <time>2020-01-18T09:04:37.154Z</time>
      </trkpt>
      <trkpt lat="37.25402" lon="-7.10094">
        <ele>73.0</ele>
        <time>2020-01-18T09:04:38.137Z</time>
      </trkpt>
      <trkpt lat="37.25402" lon="-7.10094">
        <ele>73.0</ele>
        <time>2020-01-18T09:04:39.142Z</time>
      </trkpt>
      <trkpt lat="37.25396" lon="-7.100895">
        <ele>74.0</ele>
        <time>2020-01-18T09:04:40.141Z</time>
      </trkpt>
      <trkpt lat="37.25392333" lon="-7.10086">
        <ele>74.0</ele>
        <time>2020-01-18T09:04:41.142Z</time>
      </trkpt>
      <trkpt lat="37.25388667" lon="-7.10082167">
        <ele>74.0</ele>
        <time>2020-01-18T09:04:42.140Z</time>
      </trkpt>
      <trkpt lat="37.25388667" lon="-7.10082167">
        <ele>74.0</ele>
        <time>2020-01-18T09:04:43.145Z</time>
      </trkpt>
      <trkpt lat="37.25381" lon="-7.10075">
        <ele>74.0</ele>
        <time>2020-01-18T09:04:44.134Z</time>
      </trkpt>
      <trkpt lat="37.25381" lon="-7.10075">
        <ele>74.0</ele>
        <time>2020-01-18T09:04:45.139Z</time>
      </trkpt>
      <trkpt lat="37.253735" lon="-7.10067833">
        <ele>75.0</ele>
        <time>2020-01-18T09:04:46.132Z</time>
      </trkpt>
      <trkpt lat="37.25369167" lon="-7.10065833">
        <ele>75.0</ele>
        <time>2020-01-18T09:04:47.164Z</time>
      </trkpt>
      <trkpt lat="37.25369167" lon="-7.10065833">
        <ele>75.0</ele>
        <time>2020-01-18T09:04:48.130Z</time>
      </trkpt>
      <trkpt lat="37.25360167" lon="-7.100585">
        <ele>75.0</ele>
        <time>2020-01-18T09:04:49.162Z</time>
      </trkpt>
      <trkpt lat="37.25356667" lon="-7.10053167">
        <ele>75.0</ele>
        <time>2020-01-18T09:04:50.160Z</time>
      </trkpt>
      <trkpt lat="37.25356667" lon="-7.10053167">
        <ele>75.0</ele>
        <time>2020-01-18T09:04:51.165Z</time>
      </trkpt>
      <trkpt lat="37.25349" lon="-7.10046333">
        <ele>76.0</ele>
        <time>2020-01-18T09:04:52.162Z</time>
      </trkpt>
      <trkpt lat="37.25349" lon="-7.10046333">
        <ele>76.0</ele>
        <time>2020-01-18T09:04:53.167Z</time>
      </trkpt>
      <trkpt lat="37.25339833" lon="-7.10041833">
        <ele>76.0</ele>
        <time>2020-01-18T09:04:54.161Z</time>
      </trkpt>
      <trkpt lat="37.25339833" lon="-7.10041833">
        <ele>76.0</ele>
        <time>2020-01-18T09:04:55.166Z</time>
      </trkpt>
      <trkpt lat="37.25328833" lon="-7.10037167">
        <ele>77.0</ele>
        <time>2020-01-18T09:04:56.160Z</time>
      </trkpt>
      <trkpt lat="37.25328833" lon="-7.10037167">
        <ele>77.0</ele>
        <time>2020-01-18T09:04:57.166Z</time>
      </trkpt>
      <trkpt lat="37.25316833" lon="-7.10034167">
        <ele>77.0</ele>
        <time>2020-01-18T09:04:58.143Z</time>
      </trkpt>
      <trkpt lat="37.25316833" lon="-7.10034167">
        <ele>77.0</ele>
        <time>2020-01-18T09:04:59.151Z</time>
      </trkpt>
      <trkpt lat="37.25304333" lon="-7.10033333">
        <ele>77.0</ele>
        <time>2020-01-18T09:05:00.144Z</time>
      </trkpt>
      <trkpt lat="37.25298833" lon="-7.10032333">
        <ele>77.0</ele>
        <time>2020-01-18T09:05:01.134Z</time>
      </trkpt>
      <trkpt lat="37.25298833" lon="-7.10032333">
        <ele>77.0</ele>
        <time>2020-01-18T09:05:02.139Z</time>
      </trkpt>
      <trkpt lat="37.252885" lon="-7.10027667">
        <ele>78.0</ele>
        <time>2020-01-18T09:05:03.131Z</time>
      </trkpt>
      <trkpt lat="37.252885" lon="-7.10027667">
        <ele>78.0</ele>
        <time>2020-01-18T09:05:04.136Z</time>
      </trkpt>
      <trkpt lat="37.25279833" lon="-7.10021">
        <ele>78.0</ele>
        <time>2020-01-18T09:05:05.136Z</time>
      </trkpt>
      <trkpt lat="37.25279833" lon="-7.10021">
        <ele>78.0</ele>
        <time>2020-01-18T09:05:06.142Z</time>
      </trkpt>
      <trkpt lat="37.25271333" lon="-7.100145">
        <ele>78.0</ele>
        <time>2020-01-18T09:05:07.165Z</time>
      </trkpt>
      <trkpt lat="37.25266167" lon="-7.10012333">
        <ele>78.0</ele>
        <time>2020-01-18T09:05:08.168Z</time>
      </trkpt>
      <trkpt lat="37.25266167" lon="-7.10012333">
        <ele>78.0</ele>
        <time>2020-01-18T09:05:09.137Z</time>
      </trkpt>
      <trkpt lat="37.25256167" lon="-7.10009667">
        <ele>79.0</ele>
        <time>2020-01-18T09:05:10.160Z</time>
      </trkpt>
      <trkpt lat="37.25250667" lon="-7.10008667">
        <ele>79.0</ele>
        <time>2020-01-18T09:05:11.145Z</time>
      </trkpt>
      <trkpt lat="37.25250667" lon="-7.10008667">
        <ele>79.0</ele>
        <time>2020-01-18T09:05:12.158Z</time>
      </trkpt>
      <trkpt lat="37.25239333" lon="-7.10008833">
        <ele>79.0</ele>
        <time>2020-01-18T09:05:13.143Z</time>
      </trkpt>
      <trkpt lat="37.25235" lon="-7.100065">
        <ele>79.0</ele>
        <time>2020-01-18T09:05:14.134Z</time>
      </trkpt>
      <trkpt lat="37.25235" lon="-7.100065">
        <ele>79.0</ele>
        <time>2020-01-18T09:05:15.139Z</time>
      </trkpt>
      <trkpt lat="37.25228667" lon="-7.09999">
        <ele>79.0</ele>
        <time>2020-01-18T09:05:16.140Z</time>
      </trkpt>
      <trkpt lat="37.25224167" lon="-7.09997">
        <ele>79.0</ele>
        <time>2020-01-18T09:05:17.130Z</time>
      </trkpt>
      <trkpt lat="37.25224167" lon="-7.09997">
        <ele>79.0</ele>
        <time>2020-01-18T09:05:18.135Z</time>
      </trkpt>
      <trkpt lat="37.252155" lon="-7.09991833">
        <ele>79.0</ele>
        <time>2020-01-18T09:05:19.160Z</time>
      </trkpt>
      <trkpt lat="37.252155" lon="-7.09991833">
        <ele>79.0</ele>
        <time>2020-01-18T09:05:20.165Z</time>
      </trkpt>
      <trkpt lat="37.252085" lon="-7.09987167">
        <ele>79.0</ele>
        <time>2020-01-18T09:05:21.158Z</time>
      </trkpt>
      <trkpt lat="37.252085" lon="-7.09987167">
        <ele>79.0</ele>
        <time>2020-01-18T09:05:22.163Z</time>
      </trkpt>
      <trkpt lat="37.25199833" lon="-7.09983167">
        <ele>80.0</ele>
        <time>2020-01-18T09:05:23.154Z</time>
      </trkpt>
      <trkpt lat="37.25194333" lon="-7.099815">
        <ele>80.0</ele>
        <time>2020-01-18T09:05:24.165Z</time>
      </trkpt>
      <trkpt lat="37.25194333" lon="-7.099815">
        <ele>80.0</ele>
        <time>2020-01-18T09:05:25.136Z</time>
      </trkpt>
      <trkpt lat="37.25185333" lon="-7.09975833">
        <ele>80.0</ele>
        <time>2020-01-18T09:05:26.138Z</time>
      </trkpt>
      <trkpt lat="37.25185333" lon="-7.09975833">
        <ele>80.0</ele>
        <time>2020-01-18T09:05:27.149Z</time>
      </trkpt>
      <trkpt lat="37.25176333" lon="-7.09970333">
        <ele>80.0</ele>
        <time>2020-01-18T09:05:28.144Z</time>
      </trkpt>
      <trkpt lat="37.25170833" lon="-7.09967833">
        <ele>80.0</ele>
        <time>2020-01-18T09:05:29.144Z</time>
      </trkpt>
      <trkpt lat="37.25170833" lon="-7.09967833">
        <ele>80.0</ele>
        <time>2020-01-18T09:05:30.150Z</time>
      </trkpt>
      <trkpt lat="37.25161167" lon="-7.09961">
        <ele>80.0</ele>
        <time>2020-01-18T09:05:31.154Z</time>
      </trkpt>
      <trkpt lat="37.25161167" lon="-7.09961">
        <ele>80.0</ele>
        <time>2020-01-18T09:05:32.162Z</time>
      </trkpt>
      <trkpt lat="37.25155333" lon="-7.09954333">
        <ele>80.0</ele>
        <time>2020-01-18T09:05:33.152Z</time>
      </trkpt>
      <trkpt lat="37.25155333" lon="-7.09950667">
        <ele>80.0</ele>
        <time>2020-01-18T09:05:34.141Z</time>
      </trkpt>
      <trkpt lat="37.25155333" lon="-7.09950667">
        <ele>80.0</ele>
        <time>2020-01-18T09:05:35.148Z</time>
      </trkpt>
      <trkpt lat="37.25155" lon="-7.09941333">
        <ele>79.0</ele>
        <time>2020-01-18T09:05:36.137Z</time>
      </trkpt>
      <trkpt lat="37.25155" lon="-7.09941333">
        <ele>79.0</ele>
        <time>2020-01-18T09:05:37.142Z</time>
      </trkpt>
      <trkpt lat="37.25153833" lon="-7.09931833">
        <ele>79.0</ele>
        <time>2020-01-18T09:05:38.130Z</time>
      </trkpt>
      <trkpt lat="37.25153667" lon="-7.09927333">
        <ele>79.0</ele>
        <time>2020-01-18T09:05:39.132Z</time>
      </trkpt>
      <trkpt lat="37.25153667" lon="-7.09927333">
        <ele>79.0</ele>
        <time>2020-01-18T09:05:40.139Z</time>
      </trkpt>
      <trkpt lat="37.25149667" lon="-7.09921">
        <ele>79.0</ele>
        <time>2020-01-18T09:05:41.162Z</time>
      </trkpt>
      <trkpt lat="37.25149667" lon="-7.09921">
        <ele>79.0</ele>
        <time>2020-01-18T09:05:42.167Z</time>
      </trkpt>
      <trkpt lat="37.25141333" lon="-7.09916167">
        <ele>79.0</ele>
        <time>2020-01-18T09:05:43.156Z</time>
      </trkpt>
      <trkpt lat="37.25141333" lon="-7.09916167">
        <ele>79.0</ele>
        <time>2020-01-18T09:05:44.161Z</time>
      </trkpt>
      <trkpt lat="37.25133" lon="-7.099095">
        <ele>79.0</ele>
        <time>2020-01-18T09:05:45.152Z</time>
      </trkpt>
      <trkpt lat="37.25133" lon="-7.099095">
        <ele>79.0</ele>
        <time>2020-01-18T09:05:46.158Z</time>
      </trkpt>
      <trkpt lat="37.25128" lon="-7.09904">
        <ele>79.0</ele>
        <time>2020-01-18T09:05:47.144Z</time>
      </trkpt>
      <trkpt lat="37.251255" lon="-7.09902833">
        <ele>79.0</ele>
        <time>2020-01-18T09:05:48.149Z</time>
      </trkpt>
      <trkpt lat="37.251255" lon="-7.09902833">
        <ele>79.0</ele>
        <time>2020-01-18T09:05:49.154Z</time>
      </trkpt>
      <trkpt lat="37.25119167" lon="-7.099025">
        <ele>78.0</ele>
        <time>2020-01-18T09:05:50.162Z</time>
      </trkpt>
      <trkpt lat="37.25114667" lon="-7.09901333">
        <ele>78.0</ele>
        <time>2020-01-18T09:05:51.150Z</time>
      </trkpt>
      <trkpt lat="37.25114667" lon="-7.09901333">
        <ele>78.0</ele>
        <time>2020-01-18T09:05:52.156Z</time>
      </trkpt>
      <trkpt lat="37.251045" lon="-7.09901667">
        <ele>78.0</ele>
        <time>2020-01-18T09:05:53.143Z</time>
      </trkpt>
      <trkpt lat="37.25099167" lon="-7.09902333">
        <ele>78.0</ele>
        <time>2020-01-18T09:05:54.164Z</time>
      </trkpt>
      <trkpt lat="37.25099167" lon="-7.09902333">
        <ele>78.0</ele>
        <time>2020-01-18T09:05:55.129Z</time>
      </trkpt>
      <trkpt lat="37.25092833" lon="-7.09897833">
        <ele>78.0</ele>
        <time>2020-01-18T09:05:56.155Z</time>
      </trkpt>
      <trkpt lat="37.25092833" lon="-7.09897833">
        <ele>78.0</ele>
        <time>2020-01-18T09:05:57.161Z</time>
      </trkpt>
      <trkpt lat="37.25089167" lon="-7.09892">
        <ele>77.0</ele>
        <time>2020-01-18T09:05:58.154Z</time>
      </trkpt>
      <trkpt lat="37.25088" lon="-7.09889167">
        <ele>77.0</ele>
        <time>2020-01-18T09:05:59.153Z</time>
      </trkpt>
      <trkpt lat="37.25088" lon="-7.09889167">
        <ele>77.0</ele>
        <time>2020-01-18T09:06:00.159Z</time>
      </trkpt>
      <trkpt lat="37.25088" lon="-7.09882167">
        <ele>77.0</ele>
        <time>2020-01-18T09:06:01.150Z</time>
      </trkpt>
      <trkpt lat="37.25088" lon="-7.09882167">
        <ele>77.0</ele>
        <time>2020-01-18T09:06:02.157Z</time>
      </trkpt>
      <trkpt lat="37.25093" lon="-7.09877">
        <ele>76.0</ele>
        <time>2020-01-18T09:06:03.141Z</time>
      </trkpt>
      <trkpt lat="37.25097167" lon="-7.09875333">
        <ele>76.0</ele>
        <time>2020-01-18T09:06:04.148Z</time>
      </trkpt>
      <trkpt lat="37.25101667" lon="-7.09873333">
        <ele>76.0</ele>
        <time>2020-01-18T09:06:05.134Z</time>
      </trkpt>
      <trkpt lat="37.25101667" lon="-7.09873333">
        <ele>76.0</ele>
        <time>2020-01-18T09:06:06.140Z</time>
      </trkpt>
      <trkpt lat="37.25109667" lon="-7.09867833">
        <ele>75.0</ele>
        <time>2020-01-18T09:06:07.161Z</time>
      </trkpt>
      <trkpt lat="37.25109667" lon="-7.09867833">
        <ele>75.0</ele>
        <time>2020-01-18T09:06:08.168Z</time>
      </trkpt>
      <trkpt lat="37.25116333" lon="-7.09864833">
        <ele>75.0</ele>
        <time>2020-01-18T09:06:09.164Z</time>
      </trkpt>
      <trkpt lat="37.25116333" lon="-7.09864833">
        <ele>75.0</ele>
        <time>2020-01-18T09:06:10.131Z</time>
      </trkpt>
      <trkpt lat="37.251245" lon="-7.09862167">
        <ele>75.0</ele>
        <time>2020-01-18T09:06:11.159Z</time>
      </trkpt>
      <trkpt lat="37.251245" lon="-7.09862167">
        <ele>75.0</ele>
        <time>2020-01-18T09:06:12.133Z</time>
      </trkpt>
      <trkpt lat="37.25135" lon="-7.09859667">
        <ele>75.0</ele>
        <time>2020-01-18T09:06:13.154Z</time>
      </trkpt>
      <trkpt lat="37.251405" lon="-7.09858333">
        <ele>75.0</ele>
        <time>2020-01-18T09:06:14.135Z</time>
      </trkpt>
      <trkpt lat="37.251405" lon="-7.09858333">
        <ele>75.0</ele>
        <time>2020-01-18T09:06:15.148Z</time>
      </trkpt>
      <trkpt lat="37.25149833" lon="-7.09861667">
        <ele>75.0</ele>
        <time>2020-01-18T09:06:16.149Z</time>
      </trkpt>
      <trkpt lat="37.25153833" lon="-7.09863167">
        <ele>76.0</ele>
        <time>2020-01-18T09:06:17.141Z</time>
      </trkpt>
      <trkpt lat="37.25153833" lon="-7.09863167">
        <ele>76.0</ele>
        <time>2020-01-18T09:06:18.154Z</time>
      </trkpt>
      <trkpt lat="37.25163333" lon="-7.09865">
        <ele>76.0</ele>
        <time>2020-01-18T09:06:19.145Z</time>
      </trkpt>
      <trkpt lat="37.25163333" lon="-7.09865">
        <ele>76.0</ele>
        <time>2020-01-18T09:06:20.154Z</time>
      </trkpt>
      <trkpt lat="37.25173167" lon="-7.09867333">
        <ele>77.0</ele>
        <time>2020-01-18T09:06:21.145Z</time>
      </trkpt>
      <trkpt lat="37.25173167" lon="-7.09867333">
        <ele>77.0</ele>
        <time>2020-01-18T09:06:22.159Z</time>
      </trkpt>
      <trkpt lat="37.251835" lon="-7.09868833">
        <ele>77.0</ele>
        <time>2020-01-18T09:06:23.144Z</time>
      </trkpt>
      <trkpt lat="37.25187833" lon="-7.09869667">
        <ele>77.0</ele>
        <time>2020-01-18T09:06:24.147Z</time>
      </trkpt>
      <trkpt lat="37.251925" lon="-7.09870667">
        <ele>77.0</ele>
        <time>2020-01-18T09:06:25.141Z</time>
      </trkpt>
      <trkpt lat="37.251925" lon="-7.09870667">
        <ele>77.0</ele>
        <time>2020-01-18T09:06:26.150Z</time>
      </trkpt>
      <trkpt lat="37.25201667" lon="-7.09872167">
        <ele>77.0</ele>
        <time>2020-01-18T09:06:27.149Z</time>
      </trkpt>
      <trkpt lat="37.25206167" lon="-7.09872">
        <ele>77.0</ele>
        <time>2020-01-18T09:06:28.163Z</time>
      </trkpt>
      <trkpt lat="37.25206167" lon="-7.09872">
        <ele>77.0</ele>
        <time>2020-01-18T09:06:29.130Z</time>
      </trkpt>
      <trkpt lat="37.25215167" lon="-7.09874833">
        <ele>78.0</ele>
        <time>2020-01-18T09:06:30.134Z</time>
      </trkpt>
      <trkpt lat="37.25215167" lon="-7.09874833">
        <ele>78.0</ele>
        <time>2020-01-18T09:06:31.164Z</time>
      </trkpt>
      <trkpt lat="37.252235" lon="-7.09875333">
        <ele>78.0</ele>
        <time>2020-01-18T09:06:32.160Z</time>
      </trkpt>
      <trkpt lat="37.252235" lon="-7.09875333">
        <ele>78.0</ele>
        <time>2020-01-18T09:06:33.168Z</time>
      </trkpt>
      <trkpt lat="37.25231167" lon="-7.09878333">
        <ele>79.0</ele>
        <time>2020-01-18T09:06:34.161Z</time>
      </trkpt>
      <trkpt lat="37.25231167" lon="-7.09878333">
        <ele>79.0</ele>
        <time>2020-01-18T09:06:35.131Z</time>
      </trkpt>
      <trkpt lat="37.25238667" lon="-7.09878333">
        <ele>79.0</ele>
        <time>2020-01-18T09:06:36.161Z</time>
      </trkpt>
      <trkpt lat="37.25238667" lon="-7.09878333">
        <ele>79.0</ele>
        <time>2020-01-18T09:06:37.130Z</time>
      </trkpt>
      <trkpt lat="37.25245167" lon="-7.09875167">
        <ele>78.0</ele>
        <time>2020-01-18T09:06:38.159Z</time>
      </trkpt>
      <trkpt lat="37.25245167" lon="-7.09875167">
        <ele>78.0</ele>
        <time>2020-01-18T09:06:39.168Z</time>
      </trkpt>
      <trkpt lat="37.25251667" lon="-7.09873333">
        <ele>78.0</ele>
        <time>2020-01-18T09:06:40.164Z</time>
      </trkpt>
      <trkpt lat="37.25255" lon="-7.09872">
        <ele>78.0</ele>
        <time>2020-01-18T09:06:41.162Z</time>
      </trkpt>
      <trkpt lat="37.25255" lon="-7.09872">
        <ele>78.0</ele>
        <time>2020-01-18T09:06:42.131Z</time>
      </trkpt>
      <trkpt lat="37.25261333" lon="-7.09874">
        <ele>78.0</ele>
        <time>2020-01-18T09:06:43.161Z</time>
      </trkpt>
      <trkpt lat="37.25265" lon="-7.09876">
        <ele>79.0</ele>
        <time>2020-01-18T09:06:44.153Z</time>
      </trkpt>
      <trkpt lat="37.25265" lon="-7.09876">
        <ele>79.0</ele>
        <time>2020-01-18T09:06:45.161Z</time>
      </trkpt>
      <trkpt lat="37.25273167" lon="-7.09875833">
        <ele>78.0</ele>
        <time>2020-01-18T09:06:46.155Z</time>
      </trkpt>
      <trkpt lat="37.25277333" lon="-7.09875">
        <ele>77.0</ele>
        <time>2020-01-18T09:06:47.136Z</time>
      </trkpt>
      <trkpt lat="37.25277333" lon="-7.09875">
        <ele>77.0</ele>
        <time>2020-01-18T09:06:48.141Z</time>
      </trkpt>
      <trkpt lat="37.25287" lon="-7.098725">
        <ele>77.0</ele>
        <time>2020-01-18T09:06:49.148Z</time>
      </trkpt>
      <trkpt lat="37.25287" lon="-7.098725">
        <ele>77.0</ele>
        <time>2020-01-18T09:06:50.155Z</time>
      </trkpt>
      <trkpt lat="37.25298833" lon="-7.098715">
        <ele>76.0</ele>
        <time>2020-01-18T09:06:51.138Z</time>
      </trkpt>
      <trkpt lat="37.25305333" lon="-7.09870333">
        <ele>76.0</ele>
        <time>2020-01-18T09:06:52.144Z</time>
      </trkpt>
      <trkpt lat="37.25305333" lon="-7.09870333">
        <ele>76.0</ele>
        <time>2020-01-18T09:06:53.157Z</time>
      </trkpt>
      <trkpt lat="37.25316667" lon="-7.098615">
        <ele>75.0</ele>
        <time>2020-01-18T09:06:54.136Z</time>
      </trkpt>
      <trkpt lat="37.25316667" lon="-7.098615">
        <ele>75.0</ele>
        <time>2020-01-18T09:06:55.135Z</time>
      </trkpt>
      <trkpt lat="37.25327167" lon="-7.098485">
        <ele>74.0</ele>
        <time>2020-01-18T09:06:56.164Z</time>
      </trkpt>
      <trkpt lat="37.253325" lon="-7.09842833">
        <ele>74.0</ele>
        <time>2020-01-18T09:06:57.146Z</time>
      </trkpt>
      <trkpt lat="37.253325" lon="-7.09842833">
        <ele>74.0</ele>
        <time>2020-01-18T09:06:58.153Z</time>
      </trkpt>
      <trkpt lat="37.253415" lon="-7.09833833">
        <ele>73.0</ele>
        <time>2020-01-18T09:06:59.148Z</time>
      </trkpt>
      <trkpt lat="37.253415" lon="-7.09827833">
        <ele>73.0</ele>
        <time>2020-01-18T09:07:00.145Z</time>
      </trkpt>
      <trkpt lat="37.253415" lon="-7.09827833">
        <ele>73.0</ele>
        <time>2020-01-18T09:07:01.155Z</time>
      </trkpt>
      <trkpt lat="37.25338167" lon="-7.098175">
        <ele>73.0</ele>
        <time>2020-01-18T09:07:02.146Z</time>
      </trkpt>
      <trkpt lat="37.25338167" lon="-7.098175">
        <ele>73.0</ele>
        <time>2020-01-18T09:07:03.157Z</time>
      </trkpt>
      <trkpt lat="37.253315" lon="-7.09807333">
        <ele>72.0</ele>
        <time>2020-01-18T09:07:04.142Z</time>
      </trkpt>
      <trkpt lat="37.253315" lon="-7.09807333">
        <ele>72.0</ele>
        <time>2020-01-18T09:07:05.157Z</time>
      </trkpt>
      <trkpt lat="37.25324667" lon="-7.09795333">
        <ele>72.0</ele>
        <time>2020-01-18T09:07:06.154Z</time>
      </trkpt>
      <trkpt lat="37.25324667" lon="-7.09795333">
        <ele>72.0</ele>
        <time>2020-01-18T09:07:07.160Z</time>
      </trkpt>
      <trkpt lat="37.253165" lon="-7.09784">
        <ele>71.0</ele>
        <time>2020-01-18T09:07:08.163Z</time>
      </trkpt>
      <trkpt lat="37.253165" lon="-7.09784">
        <ele>71.0</ele>
        <time>2020-01-18T09:07:09.130Z</time>
      </trkpt>
      <trkpt lat="37.25308167" lon="-7.09773333">
        <ele>71.0</ele>
        <time>2020-01-18T09:07:10.162Z</time>
      </trkpt>
      <trkpt lat="37.25307167" lon="-7.09766">
        <ele>71.0</ele>
        <time>2020-01-18T09:07:11.157Z</time>
      </trkpt>
      <trkpt lat="37.25307167" lon="-7.09766">
        <ele>71.0</ele>
        <time>2020-01-18T09:07:12.163Z</time>
      </trkpt>
      <trkpt lat="37.25303833" lon="-7.09749">
        <ele>70.0</ele>
        <time>2020-01-18T09:07:13.154Z</time>
      </trkpt>
      <trkpt lat="37.253005" lon="-7.09741">
        <ele>70.0</ele>
        <time>2020-01-18T09:07:14.144Z</time>
      </trkpt>
      <trkpt lat="37.253005" lon="-7.09741">
        <ele>70.0</ele>
        <time>2020-01-18T09:07:15.150Z</time>
      </trkpt>
      <trkpt lat="37.252985" lon="-7.09726167">
        <ele>69.0</ele>
        <time>2020-01-18T09:07:16.134Z</time>
      </trkpt>
      <trkpt lat="37.25297833" lon="-7.09719333">
        <ele>69.0</ele>
        <time>2020-01-18T09:07:17.134Z</time>
      </trkpt>
      <trkpt lat="37.25297833" lon="-7.09719333">
        <ele>69.0</ele>
        <time>2020-01-18T09:07:18.141Z</time>
      </trkpt>
      <trkpt lat="37.25296667" lon="-7.09706167">
        <ele>69.0</ele>
        <time>2020-01-18T09:07:19.152Z</time>
      </trkpt>
      <trkpt lat="37.25294833" lon="-7.09699">
        <ele>68.0</ele>
        <time>2020-01-18T09:07:20.138Z</time>
      </trkpt>
      <trkpt lat="37.25294833" lon="-7.09699">
        <ele>68.0</ele>
        <time>2020-01-18T09:07:21.150Z</time>
      </trkpt>
      <trkpt lat="37.25294667" lon="-7.09684333">
        <ele>67.0</ele>
        <time>2020-01-18T09:07:22.142Z</time>
      </trkpt>
      <trkpt lat="37.25294667" lon="-7.09684333">
        <ele>67.0</ele>
        <time>2020-01-18T09:07:23.160Z</time>
      </trkpt>
      <trkpt lat="37.25296333" lon="-7.09670333">
        <ele>66.0</ele>
        <time>2020-01-18T09:07:24.148Z</time>
      </trkpt>
      <trkpt lat="37.25296333" lon="-7.09670333">
        <ele>66.0</ele>
        <time>2020-01-18T09:07:25.163Z</time>
      </trkpt>
      <trkpt lat="37.25300667" lon="-7.09664333">
        <ele>66.0</ele>
        <time>2020-01-18T09:07:26.157Z</time>
      </trkpt>
      <trkpt lat="37.25304667" lon="-7.096625">
        <ele>66.0</ele>
        <time>2020-01-18T09:07:27.165Z</time>
      </trkpt>
      <trkpt lat="37.25304667" lon="-7.096625">
        <ele>66.0</ele>
        <time>2020-01-18T09:07:28.132Z</time>
      </trkpt>
      <trkpt lat="37.25311833" lon="-7.09655667">
        <ele>66.0</ele>
        <time>2020-01-18T09:07:29.163Z</time>
      </trkpt>
      <trkpt lat="37.25311833" lon="-7.09655667">
        <ele>66.0</ele>
        <time>2020-01-18T09:07:30.129Z</time>
      </trkpt>
      <trkpt lat="37.25314667" lon="-7.09642167">
        <ele>65.0</ele>
        <time>2020-01-18T09:07:31.141Z</time>
      </trkpt>
      <trkpt lat="37.25314667" lon="-7.09642167">
        <ele>65.0</ele>
        <time>2020-01-18T09:07:32.136Z</time>
      </trkpt>
      <trkpt lat="37.25314167" lon="-7.096305">
        <ele>64.0</ele>
        <time>2020-01-18T09:07:33.139Z</time>
      </trkpt>
      <trkpt lat="37.25314167" lon="-7.096305">
        <ele>64.0</ele>
        <time>2020-01-18T09:07:34.146Z</time>
      </trkpt>
      <trkpt lat="37.25314667" lon="-7.09621833">
        <ele>64.0</ele>
        <time>2020-01-18T09:07:35.135Z</time>
      </trkpt>
      <trkpt lat="37.25314667" lon="-7.09621833">
        <ele>64.0</ele>
        <time>2020-01-18T09:07:36.141Z</time>
      </trkpt>
      <trkpt lat="37.25311667" lon="-7.09614833">
        <ele>62.0</ele>
        <time>2020-01-18T09:07:37.143Z</time>
      </trkpt>
      <trkpt lat="37.25311667" lon="-7.09614833">
        <ele>62.0</ele>
        <time>2020-01-18T09:07:38.153Z</time>
      </trkpt>
      <trkpt lat="37.25306667" lon="-7.09610833">
        <ele>61.0</ele>
        <time>2020-01-18T09:07:39.139Z</time>
      </trkpt>
      <trkpt lat="37.25306667" lon="-7.09610833">
        <ele>61.0</ele>
        <time>2020-01-18T09:07:40.155Z</time>
      </trkpt>
      <trkpt lat="37.25300833" lon="-7.09606">
        <ele>61.0</ele>
        <time>2020-01-18T09:07:41.158Z</time>
      </trkpt>
      <trkpt lat="37.25300833" lon="-7.09606">
        <ele>61.0</ele>
        <time>2020-01-18T09:07:42.163Z</time>
      </trkpt>
      <trkpt lat="37.25294" lon="-7.096025">
        <ele>60.0</ele>
        <time>2020-01-18T09:07:43.151Z</time>
      </trkpt>
      <trkpt lat="37.25291" lon="-7.09601333">
        <ele>60.0</ele>
        <time>2020-01-18T09:07:44.157Z</time>
      </trkpt>
      <trkpt lat="37.25291" lon="-7.09601333">
        <ele>60.0</ele>
        <time>2020-01-18T09:07:45.163Z</time>
      </trkpt>
      <trkpt lat="37.25287" lon="-7.09597667">
        <ele>59.0</ele>
        <time>2020-01-18T09:07:46.154Z</time>
      </trkpt>
      <trkpt lat="37.252855" lon="-7.09595833">
        <ele>59.0</ele>
        <time>2020-01-18T09:07:47.140Z</time>
      </trkpt>
      <trkpt lat="37.252855" lon="-7.09595833">
        <ele>59.0</ele>
        <time>2020-01-18T09:07:48.145Z</time>
      </trkpt>
      <trkpt lat="37.25282833" lon="-7.095935">
        <ele>58.0</ele>
        <time>2020-01-18T09:07:49.144Z</time>
      </trkpt>
      <trkpt lat="37.25282833" lon="-7.095935">
        <ele>58.0</ele>
        <time>2020-01-18T09:07:50.159Z</time>
      </trkpt>
      <trkpt lat="37.25281833" lon="-7.09591833">
        <ele>58.0</ele>
        <time>2020-01-18T09:07:51.154Z</time>
      </trkpt>
      <trkpt lat="37.25282" lon="-7.09591667">
        <ele>58.0</ele>
        <time>2020-01-18T09:07:52.142Z</time>
      </trkpt>
      <trkpt lat="37.25282" lon="-7.09591667">
        <ele>58.0</ele>
        <time>2020-01-18T09:07:53.164Z</time>
      </trkpt>
      <trkpt lat="37.25266833" lon="-7.095795">
        <ele>58.0</ele>
        <time>2020-01-18T09:07:54.142Z</time>
      </trkpt>
      <trkpt lat="37.25266833" lon="-7.095795">
        <ele>58.0</ele>
        <time>2020-01-18T09:07:55.167Z</time>
      </trkpt>
      <trkpt lat="37.252625" lon="-7.09577167">
        <ele>58.0</ele>
        <time>2020-01-18T09:07:56.165Z</time>
      </trkpt>
      <trkpt lat="37.252625" lon="-7.09577167">
        <ele>58.0</ele>
        <time>2020-01-18T09:07:57.130Z</time>
      </trkpt>
      <trkpt lat="37.252565" lon="-7.095755">
        <ele>58.0</ele>
        <time>2020-01-18T09:07:58.135Z</time>
      </trkpt>
      <trkpt lat="37.252565" lon="-7.095755">
        <ele>58.0</ele>
        <time>2020-01-18T09:07:59.141Z</time>
      </trkpt>
      <trkpt lat="37.25249833" lon="-7.09572667">
        <ele>58.0</ele>
        <time>2020-01-18T09:08:00.132Z</time>
      </trkpt>
      <trkpt lat="37.25246667" lon="-7.09571333">
        <ele>58.0</ele>
        <time>2020-01-18T09:08:01.155Z</time>
      </trkpt>
      <trkpt lat="37.25243" lon="-7.0957">
        <ele>58.0</ele>
        <time>2020-01-18T09:08:02.139Z</time>
      </trkpt>
      <trkpt lat="37.25243" lon="-7.0957">
        <ele>58.0</ele>
        <time>2020-01-18T09:08:03.145Z</time>
      </trkpt>
      <trkpt lat="37.25235333" lon="-7.09567333">
        <ele>58.0</ele>
        <time>2020-01-18T09:08:04.140Z</time>
      </trkpt>
      <trkpt lat="37.25235333" lon="-7.09567333">
        <ele>58.0</ele>
        <time>2020-01-18T09:08:05.146Z</time>
      </trkpt>
      <trkpt lat="37.25227833" lon="-7.09564333">
        <ele>59.0</ele>
        <time>2020-01-18T09:08:06.135Z</time>
      </trkpt>
      <trkpt lat="37.25224333" lon="-7.09562">
        <ele>59.0</ele>
        <time>2020-01-18T09:08:07.159Z</time>
      </trkpt>
      <trkpt lat="37.25221333" lon="-7.09559333">
        <ele>59.0</ele>
        <time>2020-01-18T09:08:08.168Z</time>
      </trkpt>
      <trkpt lat="37.252175" lon="-7.09556667">
        <ele>59.0</ele>
        <time>2020-01-18T09:08:09.165Z</time>
      </trkpt>
      <trkpt lat="37.252175" lon="-7.09556667">
        <ele>59.0</ele>
        <time>2020-01-18T09:08:10.130Z</time>
      </trkpt>
      <trkpt lat="37.25210167" lon="-7.09551833">
        <ele>59.0</ele>
        <time>2020-01-18T09:08:11.133Z</time>
      </trkpt>
      <trkpt lat="37.25210167" lon="-7.09551833">
        <ele>59.0</ele>
        <time>2020-01-18T09:08:12.141Z</time>
      </trkpt>
      <trkpt lat="37.25202333" lon="-7.095465">
        <ele>59.0</ele>
        <time>2020-01-18T09:08:13.134Z</time>
      </trkpt>
      <trkpt lat="37.25197833" lon="-7.095435">
        <ele>59.0</ele>
        <time>2020-01-18T09:08:14.162Z</time>
      </trkpt>
      <trkpt lat="37.25197833" lon="-7.095435">
        <ele>59.0</ele>
        <time>2020-01-18T09:08:15.168Z</time>
      </trkpt>
      <trkpt lat="37.2519" lon="-7.095375">
        <ele>60.0</ele>
        <time>2020-01-18T09:08:16.134Z</time>
      </trkpt>
      <trkpt lat="37.25185667" lon="-7.09534">
        <ele>60.0</ele>
        <time>2020-01-18T09:08:17.154Z</time>
      </trkpt>
      <trkpt lat="37.25185667" lon="-7.09534">
        <ele>60.0</ele>
        <time>2020-01-18T09:08:18.161Z</time>
      </trkpt>
      <trkpt lat="37.25177333" lon="-7.09527833">
        <ele>60.0</ele>
        <time>2020-01-18T09:08:19.155Z</time>
      </trkpt>
      <trkpt lat="37.25177333" lon="-7.09527833">
        <ele>60.0</ele>
        <time>2020-01-18T09:08:20.161Z</time>
      </trkpt>
      <trkpt lat="37.25169833" lon="-7.09522167">
        <ele>60.0</ele>
        <time>2020-01-18T09:08:21.134Z</time>
      </trkpt>
      <trkpt lat="37.25169833" lon="-7.09522167">
        <ele>60.0</ele>
        <time>2020-01-18T09:08:22.140Z</time>
      </trkpt>
      <trkpt lat="37.25161333" lon="-7.095175">
        <ele>60.0</ele>
        <time>2020-01-18T09:08:23.144Z</time>
      </trkpt>
      <trkpt lat="37.25157167" lon="-7.09514333">
        <ele>60.0</ele>
        <time>2020-01-18T09:08:24.139Z</time>
      </trkpt>
      <trkpt lat="37.25157167" lon="-7.09514333">
        <ele>60.0</ele>
        <time>2020-01-18T09:08:25.145Z</time>
      </trkpt>
      <trkpt lat="37.251465" lon="-7.09508">
        <ele>61.0</ele>
        <time>2020-01-18T09:08:26.140Z</time>
      </trkpt>
      <trkpt lat="37.25142333" lon="-7.095035">
        <ele>61.0</ele>
        <time>2020-01-18T09:08:27.163Z</time>
      </trkpt>
      <trkpt lat="37.25142333" lon="-7.095035">
        <ele>61.0</ele>
        <time>2020-01-18T09:08:28.129Z</time>
      </trkpt>
      <trkpt lat="37.25132833" lon="-7.09496333">
        <ele>61.0</ele>
        <time>2020-01-18T09:08:29.166Z</time>
      </trkpt>
      <trkpt lat="37.25132833" lon="-7.09496333">
        <ele>61.0</ele>
        <time>2020-01-18T09:08:30.132Z</time>
      </trkpt>
      <trkpt lat="37.25124667" lon="-7.09491167">
        <ele>61.0</ele>
        <time>2020-01-18T09:08:31.130Z</time>
      </trkpt>
      <trkpt lat="37.25120833" lon="-7.09490333">
        <ele>61.0</ele>
        <time>2020-01-18T09:08:32.141Z</time>
      </trkpt>
      <trkpt lat="37.25120833" lon="-7.09490333">
        <ele>61.0</ele>
        <time>2020-01-18T09:08:33.147Z</time>
      </trkpt>
      <trkpt lat="37.251125" lon="-7.09486833">
        <ele>61.0</ele>
        <time>2020-01-18T09:08:34.152Z</time>
      </trkpt>
      <trkpt lat="37.25108333" lon="-7.094845">
        <ele>61.0</ele>
        <time>2020-01-18T09:08:35.157Z</time>
      </trkpt>
      <trkpt lat="37.25108333" lon="-7.094845">
        <ele>61.0</ele>
        <time>2020-01-18T09:08:36.163Z</time>
      </trkpt>
      <trkpt lat="37.251" lon="-7.09480667">
        <ele>61.0</ele>
        <time>2020-01-18T09:08:37.147Z</time>
      </trkpt>
      <trkpt lat="37.25095833" lon="-7.09478">
        <ele>61.0</ele>
        <time>2020-01-18T09:08:38.143Z</time>
      </trkpt>
      <trkpt lat="37.25095833" lon="-7.09478">
        <ele>61.0</ele>
        <time>2020-01-18T09:08:39.160Z</time>
      </trkpt>
      <trkpt lat="37.25085833" lon="-7.09473667">
        <ele>61.0</ele>
        <time>2020-01-18T09:08:40.150Z</time>
      </trkpt>
      <trkpt lat="37.25085833" lon="-7.09473667">
        <ele>61.0</ele>
        <time>2020-01-18T09:08:41.158Z</time>
      </trkpt>
      <trkpt lat="37.25075667" lon="-7.09470833">
        <ele>61.0</ele>
        <time>2020-01-18T09:08:42.155Z</time>
      </trkpt>
      <trkpt lat="37.25075667" lon="-7.09470833">
        <ele>61.0</ele>
        <time>2020-01-18T09:08:43.162Z</time>
      </trkpt>
      <trkpt lat="37.25065" lon="-7.09470333">
        <ele>61.0</ele>
        <time>2020-01-18T09:08:44.135Z</time>
      </trkpt>
      <trkpt lat="37.25065" lon="-7.09470333">
        <ele>61.0</ele>
        <time>2020-01-18T09:08:45.140Z</time>
      </trkpt>
      <trkpt lat="37.25055333" lon="-7.094665">
        <ele>61.0</ele>
        <time>2020-01-18T09:08:46.167Z</time>
      </trkpt>
      <trkpt lat="37.25051" lon="-7.09463667">
        <ele>61.0</ele>
        <time>2020-01-18T09:08:47.161Z</time>
      </trkpt>
      <trkpt lat="37.25051" lon="-7.09463667">
        <ele>61.0</ele>
        <time>2020-01-18T09:08:48.166Z</time>
      </trkpt>
      <trkpt lat="37.25042833" lon="-7.09458">
        <ele>62.0</ele>
        <time>2020-01-18T09:08:49.130Z</time>
      </trkpt>
      <trkpt lat="37.25038" lon="-7.094555">
        <ele>61.0</ele>
        <time>2020-01-18T09:08:50.141Z</time>
      </trkpt>
      <trkpt lat="37.25038" lon="-7.094555">
        <ele>61.0</ele>
        <time>2020-01-18T09:08:51.158Z</time>
      </trkpt>
      <trkpt lat="37.25027833" lon="-7.094475">
        <ele>61.0</ele>
        <time>2020-01-18T09:08:52.150Z</time>
      </trkpt>
      <trkpt lat="37.25027833" lon="-7.094475">
        <ele>61.0</ele>
        <time>2020-01-18T09:08:53.158Z</time>
      </trkpt>
      <trkpt lat="37.25017333" lon="-7.094405">
        <ele>61.0</ele>
        <time>2020-01-18T09:08:54.148Z</time>
      </trkpt>
      <trkpt lat="37.25012333" lon="-7.09437167">
        <ele>61.0</ele>
        <time>2020-01-18T09:08:55.144Z</time>
      </trkpt>
      <trkpt lat="37.25007333" lon="-7.09434167">
        <ele>61.0</ele>
        <time>2020-01-18T09:08:56.167Z</time>
      </trkpt>
      <trkpt lat="37.25002167" lon="-7.09430667">
        <ele>61.0</ele>
        <time>2020-01-18T09:08:57.135Z</time>
      </trkpt>
      <trkpt lat="37.25002167" lon="-7.09430667">
        <ele>61.0</ele>
        <time>2020-01-18T09:08:58.144Z</time>
      </trkpt>
      <trkpt lat="37.24992" lon="-7.09424833">
        <ele>61.0</ele>
        <time>2020-01-18T09:08:59.141Z</time>
      </trkpt>
      <trkpt lat="37.24992" lon="-7.09424833">
        <ele>61.0</ele>
        <time>2020-01-18T09:09:00.156Z</time>
      </trkpt>
      <trkpt lat="37.24981" lon="-7.09419833">
        <ele>61.0</ele>
        <time>2020-01-18T09:09:01.153Z</time>
      </trkpt>
      <trkpt lat="37.249755" lon="-7.09417667">
        <ele>61.0</ele>
        <time>2020-01-18T09:09:02.147Z</time>
      </trkpt>
      <trkpt lat="37.249755" lon="-7.09417667">
        <ele>61.0</ele>
        <time>2020-01-18T09:09:03.154Z</time>
      </trkpt>
      <trkpt lat="37.24965667" lon="-7.09413333">
        <ele>61.0</ele>
        <time>2020-01-18T09:09:04.147Z</time>
      </trkpt>
      <trkpt lat="37.24961167" lon="-7.094105">
        <ele>61.0</ele>
        <time>2020-01-18T09:09:05.150Z</time>
      </trkpt>
      <trkpt lat="37.24961167" lon="-7.094105">
        <ele>61.0</ele>
        <time>2020-01-18T09:09:06.158Z</time>
      </trkpt>
      <trkpt lat="37.24953333" lon="-7.09404833">
        <ele>61.0</ele>
        <time>2020-01-18T09:09:07.148Z</time>
      </trkpt>
      <trkpt lat="37.24949333" lon="-7.09401167">
        <ele>61.0</ele>
        <time>2020-01-18T09:09:08.154Z</time>
      </trkpt>
      <trkpt lat="37.24949333" lon="-7.09401167">
        <ele>61.0</ele>
        <time>2020-01-18T09:09:09.159Z</time>
      </trkpt>
      <trkpt lat="37.24941667" lon="-7.093925">
        <ele>61.0</ele>
        <time>2020-01-18T09:09:10.145Z</time>
      </trkpt>
      <trkpt lat="37.24937833" lon="-7.09388">
        <ele>62.0</ele>
        <time>2020-01-18T09:09:11.138Z</time>
      </trkpt>
      <trkpt lat="37.24937833" lon="-7.09388">
        <ele>62.0</ele>
        <time>2020-01-18T09:09:12.144Z</time>
      </trkpt>
      <trkpt lat="37.24930833" lon="-7.09380333">
        <ele>62.0</ele>
        <time>2020-01-18T09:09:13.151Z</time>
      </trkpt>
      <trkpt lat="37.24927667" lon="-7.09376833">
        <ele>61.0</ele>
        <time>2020-01-18T09:09:14.134Z</time>
      </trkpt>
      <trkpt lat="37.24927667" lon="-7.09376833">
        <ele>61.0</ele>
        <time>2020-01-18T09:09:15.139Z</time>
      </trkpt>
      <trkpt lat="37.24921333" lon="-7.09368667">
        <ele>61.0</ele>
        <time>2020-01-18T09:09:16.157Z</time>
      </trkpt>
      <trkpt lat="37.24921333" lon="-7.09368667">
        <ele>61.0</ele>
        <time>2020-01-18T09:09:17.162Z</time>
      </trkpt>
      <trkpt lat="37.24914" lon="-7.09361">
        <ele>62.0</ele>
        <time>2020-01-18T09:09:18.162Z</time>
      </trkpt>
      <trkpt lat="37.24914" lon="-7.09361">
        <ele>62.0</ele>
        <time>2020-01-18T09:09:19.159Z</time>
      </trkpt>
      <trkpt lat="37.24905667" lon="-7.09354833">
        <ele>62.0</ele>
        <time>2020-01-18T09:09:20.141Z</time>
      </trkpt>
      <trkpt lat="37.24901667" lon="-7.093515">
        <ele>62.0</ele>
        <time>2020-01-18T09:09:21.164Z</time>
      </trkpt>
      <trkpt lat="37.24901667" lon="-7.093515">
        <ele>62.0</ele>
        <time>2020-01-18T09:09:22.130Z</time>
      </trkpt>
      <trkpt lat="37.24893833" lon="-7.09344667">
        <ele>62.0</ele>
        <time>2020-01-18T09:09:23.148Z</time>
      </trkpt>
      <trkpt lat="37.24893833" lon="-7.09344667">
        <ele>62.0</ele>
        <time>2020-01-18T09:09:24.153Z</time>
      </trkpt>
      <trkpt lat="37.24886667" lon="-7.09338">
        <ele>63.0</ele>
        <time>2020-01-18T09:09:25.139Z</time>
      </trkpt>
      <trkpt lat="37.24883833" lon="-7.093345">
        <ele>62.0</ele>
        <time>2020-01-18T09:09:26.133Z</time>
      </trkpt>
      <trkpt lat="37.24883833" lon="-7.093345">
        <ele>62.0</ele>
        <time>2020-01-18T09:09:27.139Z</time>
      </trkpt>
      <trkpt lat="37.24877833" lon="-7.09325667">
        <ele>61.0</ele>
        <time>2020-01-18T09:09:28.167Z</time>
      </trkpt>
      <trkpt lat="37.24874667" lon="-7.093205">
        <ele>61.0</ele>
        <time>2020-01-18T09:09:29.135Z</time>
      </trkpt>
      <trkpt lat="37.24874667" lon="-7.093205">
        <ele>61.0</ele>
        <time>2020-01-18T09:09:30.160Z</time>
      </trkpt>
      <trkpt lat="37.24869833" lon="-7.09311167">
        <ele>61.0</ele>
        <time>2020-01-18T09:09:31.132Z</time>
      </trkpt>
      <trkpt lat="37.24869833" lon="-7.09311167">
        <ele>61.0</ele>
        <time>2020-01-18T09:09:32.159Z</time>
      </trkpt>
      <trkpt lat="37.248655" lon="-7.09303667">
        <ele>61.0</ele>
        <time>2020-01-18T09:09:33.146Z</time>
      </trkpt>
      <trkpt lat="37.248655" lon="-7.09303667">
        <ele>61.0</ele>
        <time>2020-01-18T09:09:34.160Z</time>
      </trkpt>
      <trkpt lat="37.24865" lon="-7.09297">
        <ele>60.0</ele>
        <time>2020-01-18T09:09:35.153Z</time>
      </trkpt>
      <trkpt lat="37.24865" lon="-7.09297">
        <ele>60.0</ele>
        <time>2020-01-18T09:09:36.158Z</time>
      </trkpt>
      <trkpt lat="37.24869667" lon="-7.09288833">
        <ele>60.0</ele>
        <time>2020-01-18T09:09:37.159Z</time>
      </trkpt>
      <trkpt lat="37.24874333" lon="-7.092855">
        <ele>60.0</ele>
        <time>2020-01-18T09:09:38.135Z</time>
      </trkpt>
      <trkpt lat="37.24874333" lon="-7.092855">
        <ele>60.0</ele>
        <time>2020-01-18T09:09:39.140Z</time>
      </trkpt>
      <trkpt lat="37.24883" lon="-7.09277333">
        <ele>59.0</ele>
        <time>2020-01-18T09:09:40.134Z</time>
      </trkpt>
      <trkpt lat="37.24886" lon="-7.092715">
        <ele>59.0</ele>
        <time>2020-01-18T09:09:41.163Z</time>
      </trkpt>
      <trkpt lat="37.24886" lon="-7.092715">
        <ele>59.0</ele>
        <time>2020-01-18T09:09:42.129Z</time>
      </trkpt>
      <trkpt lat="37.2489" lon="-7.09258833">
        <ele>59.0</ele>
        <time>2020-01-18T09:09:43.165Z</time>
      </trkpt>
      <trkpt lat="37.24891167" lon="-7.09251667">
        <ele>59.0</ele>
        <time>2020-01-18T09:09:44.136Z</time>
      </trkpt>
      <trkpt lat="37.24891667" lon="-7.09244833">
        <ele>59.0</ele>
        <time>2020-01-18T09:09:45.167Z</time>
      </trkpt>
      <trkpt lat="37.24891667" lon="-7.09244833">
        <ele>59.0</ele>
        <time>2020-01-18T09:09:46.132Z</time>
      </trkpt>
      <trkpt lat="37.248935" lon="-7.09230167">
        <ele>59.0</ele>
        <time>2020-01-18T09:09:47.133Z</time>
      </trkpt>
      <trkpt lat="37.248935" lon="-7.09230167">
        <ele>59.0</ele>
        <time>2020-01-18T09:09:48.139Z</time>
      </trkpt>
      <trkpt lat="37.248955" lon="-7.09217">
        <ele>58.0</ele>
        <time>2020-01-18T09:09:49.146Z</time>
      </trkpt>
      <trkpt lat="37.248955" lon="-7.09217">
        <ele>58.0</ele>
        <time>2020-01-18T09:09:50.151Z</time>
      </trkpt>
      <trkpt lat="37.24896333" lon="-7.092035">
        <ele>57.0</ele>
        <time>2020-01-18T09:09:51.138Z</time>
      </trkpt>
      <trkpt lat="37.24896333" lon="-7.092035">
        <ele>57.0</ele>
        <time>2020-01-18T09:09:52.143Z</time>
      </trkpt>
      <trkpt lat="37.24897167" lon="-7.091905">
        <ele>57.0</ele>
        <time>2020-01-18T09:09:53.135Z</time>
      </trkpt>
      <trkpt lat="37.24897167" lon="-7.091905">
        <ele>57.0</ele>
        <time>2020-01-18T09:09:54.140Z</time>
      </trkpt>
      <trkpt lat="37.24901833" lon="-7.09179">
        <ele>57.0</ele>
        <time>2020-01-18T09:09:55.131Z</time>
      </trkpt>
      <trkpt lat="37.24901833" lon="-7.09179">
        <ele>57.0</ele>
        <time>2020-01-18T09:09:56.143Z</time>
      </trkpt>
      <trkpt lat="37.24909667" lon="-7.09170833">
        <ele>58.0</ele>
        <time>2020-01-18T09:09:57.129Z</time>
      </trkpt>
      <trkpt lat="37.24909667" lon="-7.09170833">
        <ele>58.0</ele>
        <time>2020-01-18T09:09:58.135Z</time>
      </trkpt>
      <trkpt lat="37.24917" lon="-7.09164">
        <ele>58.0</ele>
        <time>2020-01-18T09:09:59.168Z</time>
      </trkpt>
      <trkpt lat="37.24917" lon="-7.09164">
        <ele>58.0</ele>
        <time>2020-01-18T09:10:00.139Z</time>
      </trkpt>
      <trkpt lat="37.24923667" lon="-7.091575">
        <ele>57.0</ele>
        <time>2020-01-18T09:10:01.166Z</time>
      </trkpt>
      <trkpt lat="37.24923667" lon="-7.091575">
        <ele>57.0</ele>
        <time>2020-01-18T09:10:02.131Z</time>
      </trkpt>
      <trkpt lat="37.24930667" lon="-7.09153333">
        <ele>57.0</ele>
        <time>2020-01-18T09:10:03.160Z</time>
      </trkpt>
      <trkpt lat="37.24930667" lon="-7.09153333">
        <ele>57.0</ele>
        <time>2020-01-18T09:10:04.165Z</time>
      </trkpt>
      <trkpt lat="37.24938833" lon="-7.091495">
        <ele>58.0</ele>
        <time>2020-01-18T09:10:05.160Z</time>
      </trkpt>
      <trkpt lat="37.24938833" lon="-7.091495">
        <ele>58.0</ele>
        <time>2020-01-18T09:10:06.167Z</time>
      </trkpt>
      <trkpt lat="37.24947833" lon="-7.09147167">
        <ele>58.0</ele>
        <time>2020-01-18T09:10:07.166Z</time>
      </trkpt>
      <trkpt lat="37.24951333" lon="-7.09147833">
        <ele>58.0</ele>
        <time>2020-01-18T09:10:08.155Z</time>
      </trkpt>
      <trkpt lat="37.24951333" lon="-7.09147833">
        <ele>58.0</ele>
        <time>2020-01-18T09:10:09.162Z</time>
      </trkpt>
      <trkpt lat="37.24955167" lon="-7.091525">
        <ele>58.0</ele>
        <time>2020-01-18T09:10:10.129Z</time>
      </trkpt>
      <trkpt lat="37.24956333" lon="-7.091555">
        <ele>58.0</ele>
        <time>2020-01-18T09:10:11.145Z</time>
      </trkpt>
      <trkpt lat="37.24956333" lon="-7.091555">
        <ele>58.0</ele>
        <time>2020-01-18T09:10:12.152Z</time>
      </trkpt>
      <trkpt lat="37.24958" lon="-7.09161167">
        <ele>57.0</ele>
        <time>2020-01-18T09:10:13.148Z</time>
      </trkpt>
      <trkpt lat="37.24959" lon="-7.09164333">
        <ele>56.0</ele>
        <time>2020-01-18T09:10:14.134Z</time>
      </trkpt>
      <trkpt lat="37.2496" lon="-7.09167833">
        <ele>55.0</ele>
        <time>2020-01-18T09:10:15.159Z</time>
      </trkpt>
      <trkpt lat="37.2496" lon="-7.09167833">
        <ele>55.0</ele>
        <time>2020-01-18T09:10:16.165Z</time>
      </trkpt>
      <trkpt lat="37.24962167" lon="-7.09175">
        <ele>54.0</ele>
        <time>2020-01-18T09:10:17.157Z</time>
      </trkpt>
      <trkpt lat="37.24962833" lon="-7.09178667">
        <ele>53.0</ele>
        <time>2020-01-18T09:10:18.160Z</time>
      </trkpt>
      <trkpt lat="37.24962833" lon="-7.09178667">
        <ele>53.0</ele>
        <time>2020-01-18T09:10:19.165Z</time>
      </trkpt>
      <trkpt lat="37.24962667" lon="-7.09185167">
        <ele>53.0</ele>
        <time>2020-01-18T09:10:20.160Z</time>
      </trkpt>
      <trkpt lat="37.24962667" lon="-7.09185167">
        <ele>53.0</ele>
        <time>2020-01-18T09:10:21.165Z</time>
      </trkpt>
      <trkpt lat="37.249645" lon="-7.09191667">
        <ele>53.0</ele>
        <time>2020-01-18T09:10:22.164Z</time>
      </trkpt>
      <trkpt lat="37.24966333" lon="-7.09195">
        <ele>54.0</ele>
        <time>2020-01-18T09:10:23.147Z</time>
      </trkpt>
      <trkpt lat="37.24966333" lon="-7.09195">
        <ele>54.0</ele>
        <time>2020-01-18T09:10:24.160Z</time>
      </trkpt>
      <trkpt lat="37.24969833" lon="-7.09201">
        <ele>54.0</ele>
        <time>2020-01-18T09:10:25.141Z</time>
      </trkpt>
      <trkpt lat="37.24969833" lon="-7.09201">
        <ele>54.0</ele>
        <time>2020-01-18T09:10:26.147Z</time>
      </trkpt>
      <trkpt lat="37.24974333" lon="-7.09205333">
        <ele>54.0</ele>
        <time>2020-01-18T09:10:27.131Z</time>
      </trkpt>
      <trkpt lat="37.24974333" lon="-7.09205333">
        <ele>54.0</ele>
        <time>2020-01-18T09:10:28.136Z</time>
      </trkpt>
      <trkpt lat="37.2498" lon="-7.09205667">
        <ele>54.0</ele>
        <time>2020-01-18T09:10:29.161Z</time>
      </trkpt>
      <trkpt lat="37.24983167" lon="-7.092045">
        <ele>54.0</ele>
        <time>2020-01-18T09:10:30.139Z</time>
      </trkpt>
      <trkpt lat="37.24983167" lon="-7.092045">
        <ele>54.0</ele>
        <time>2020-01-18T09:10:31.156Z</time>
      </trkpt>
      <trkpt lat="37.24990333" lon="-7.09202333">
        <ele>54.0</ele>
        <time>2020-01-18T09:10:32.146Z</time>
      </trkpt>
      <trkpt lat="37.24990333" lon="-7.09202333">
        <ele>54.0</ele>
        <time>2020-01-18T09:10:33.151Z</time>
      </trkpt>
      <trkpt lat="37.249955" lon="-7.09200667">
        <ele>55.0</ele>
        <time>2020-01-18T09:10:34.165Z</time>
      </trkpt>
      <trkpt lat="37.24997667" lon="-7.092">
        <ele>55.0</ele>
        <time>2020-01-18T09:10:35.145Z</time>
      </trkpt>
      <trkpt lat="37.24997667" lon="-7.092">
        <ele>55.0</ele>
        <time>2020-01-18T09:10:36.152Z</time>
      </trkpt>
      <trkpt lat="37.25001833" lon="-7.09199167">
        <ele>56.0</ele>
        <time>2020-01-18T09:10:37.142Z</time>
      </trkpt>
      <trkpt lat="37.25004333" lon="-7.091985">
        <ele>56.0</ele>
        <time>2020-01-18T09:10:38.136Z</time>
      </trkpt>
      <trkpt lat="37.25004333" lon="-7.091985">
        <ele>56.0</ele>
        <time>2020-01-18T09:10:39.142Z</time>
      </trkpt>
      <trkpt lat="37.2501" lon="-7.091975">
        <ele>56.0</ele>
        <time>2020-01-18T09:10:40.136Z</time>
      </trkpt>
      <trkpt lat="37.2501" lon="-7.091975">
        <ele>56.0</ele>
        <time>2020-01-18T09:10:41.143Z</time>
      </trkpt>
      <trkpt lat="37.25017" lon="-7.09196333">
        <ele>57.0</ele>
        <time>2020-01-18T09:10:42.135Z</time>
      </trkpt>
      <trkpt lat="37.25017" lon="-7.09196333">
        <ele>57.0</ele>
        <time>2020-01-18T09:10:43.140Z</time>
      </trkpt>
      <trkpt lat="37.25026" lon="-7.09193">
        <ele>57.0</ele>
        <time>2020-01-18T09:10:44.136Z</time>
      </trkpt>
      <trkpt lat="37.25026" lon="-7.09193">
        <ele>57.0</ele>
        <time>2020-01-18T09:10:45.141Z</time>
      </trkpt>
      <trkpt lat="37.25035667" lon="-7.091885">
        <ele>58.0</ele>
        <time>2020-01-18T09:10:46.164Z</time>
      </trkpt>
      <trkpt lat="37.25039833" lon="-7.09186333">
        <ele>59.0</ele>
        <time>2020-01-18T09:10:47.149Z</time>
      </trkpt>
      <trkpt lat="37.25039833" lon="-7.09186333">
        <ele>59.0</ele>
        <time>2020-01-18T09:10:48.157Z</time>
      </trkpt>
      <trkpt lat="37.25048167" lon="-7.09181667">
        <ele>59.0</ele>
        <time>2020-01-18T09:10:49.133Z</time>
      </trkpt>
      <trkpt lat="37.25052" lon="-7.09179667">
        <ele>59.0</ele>
        <time>2020-01-18T09:10:50.137Z</time>
      </trkpt>
      <trkpt lat="37.25052" lon="-7.09179667">
        <ele>59.0</ele>
        <time>2020-01-18T09:10:51.142Z</time>
      </trkpt>
      <trkpt lat="37.25060667" lon="-7.09177667">
        <ele>60.0</ele>
        <time>2020-01-18T09:10:52.133Z</time>
      </trkpt>
      <trkpt lat="37.25065333" lon="-7.09176833">
        <ele>60.0</ele>
        <time>2020-01-18T09:10:53.131Z</time>
      </trkpt>
      <trkpt lat="37.25065333" lon="-7.09176833">
        <ele>60.0</ele>
        <time>2020-01-18T09:10:54.136Z</time>
      </trkpt>
      <trkpt lat="37.25074833" lon="-7.09175833">
        <ele>60.0</ele>
        <time>2020-01-18T09:10:55.161Z</time>
      </trkpt>
      <trkpt lat="37.25079333" lon="-7.09174333">
        <ele>60.0</ele>
        <time>2020-01-18T09:10:56.141Z</time>
      </trkpt>
      <trkpt lat="37.25079333" lon="-7.09174333">
        <ele>60.0</ele>
        <time>2020-01-18T09:10:57.146Z</time>
      </trkpt>
      <trkpt lat="37.25088833" lon="-7.09170333">
        <ele>61.0</ele>
        <time>2020-01-18T09:10:58.133Z</time>
      </trkpt>
      <trkpt lat="37.25092833" lon="-7.09169667">
        <ele>61.0</ele>
        <time>2020-01-18T09:10:59.135Z</time>
      </trkpt>
      <trkpt lat="37.25092833" lon="-7.09169667">
        <ele>61.0</ele>
        <time>2020-01-18T09:11:00.140Z</time>
      </trkpt>
      <trkpt lat="37.25099" lon="-7.09172667">
        <ele>62.0</ele>
        <time>2020-01-18T09:11:01.131Z</time>
      </trkpt>
      <trkpt lat="37.25099" lon="-7.09172667">
        <ele>62.0</ele>
        <time>2020-01-18T09:11:02.136Z</time>
      </trkpt>
      <trkpt lat="37.25106" lon="-7.09181333">
        <ele>62.0</ele>
        <time>2020-01-18T09:11:03.165Z</time>
      </trkpt>
      <trkpt lat="37.25106" lon="-7.09181333">
        <ele>62.0</ele>
        <time>2020-01-18T09:11:04.130Z</time>
      </trkpt>
      <trkpt lat="37.25114" lon="-7.09188667">
        <ele>62.0</ele>
        <time>2020-01-18T09:11:05.162Z</time>
      </trkpt>
      <trkpt lat="37.25114" lon="-7.09188667">
        <ele>62.0</ele>
        <time>2020-01-18T09:11:06.129Z</time>
      </trkpt>
      <trkpt lat="37.25121167" lon="-7.09192">
        <ele>63.0</ele>
        <time>2020-01-18T09:11:07.135Z</time>
      </trkpt>
      <trkpt lat="37.25121167" lon="-7.09192">
        <ele>63.0</ele>
        <time>2020-01-18T09:11:08.142Z</time>
      </trkpt>
      <trkpt lat="37.25127667" lon="-7.09188">
        <ele>64.0</ele>
        <time>2020-01-18T09:11:09.159Z</time>
      </trkpt>
      <trkpt lat="37.25127667" lon="-7.09188">
        <ele>64.0</ele>
        <time>2020-01-18T09:11:10.165Z</time>
      </trkpt>
      <trkpt lat="37.25131333" lon="-7.09180833">
        <ele>64.0</ele>
        <time>2020-01-18T09:11:11.163Z</time>
      </trkpt>
      <trkpt lat="37.25132833" lon="-7.09177167">
        <ele>64.0</ele>
        <time>2020-01-18T09:11:12.155Z</time>
      </trkpt>
      <trkpt lat="37.25132833" lon="-7.09177167">
        <ele>64.0</ele>
        <time>2020-01-18T09:11:13.161Z</time>
      </trkpt>
      <trkpt lat="37.25134833" lon="-7.09167667">
        <ele>65.0</ele>
        <time>2020-01-18T09:11:14.155Z</time>
      </trkpt>
      <trkpt lat="37.25135333" lon="-7.09161">
        <ele>65.0</ele>
        <time>2020-01-18T09:11:15.144Z</time>
      </trkpt>
      <trkpt lat="37.25135333" lon="-7.09161">
        <ele>65.0</ele>
        <time>2020-01-18T09:11:16.150Z</time>
      </trkpt>
      <trkpt lat="37.25140167" lon="-7.09148833">
        <ele>67.0</ele>
        <time>2020-01-18T09:11:17.155Z</time>
      </trkpt>
      <trkpt lat="37.25140167" lon="-7.09148833">
        <ele>67.0</ele>
        <time>2020-01-18T09:11:18.161Z</time>
      </trkpt>
      <trkpt lat="37.25147167" lon="-7.09140667">
        <ele>67.0</ele>
        <time>2020-01-18T09:11:19.157Z</time>
      </trkpt>
      <trkpt lat="37.25147167" lon="-7.09140667">
        <ele>67.0</ele>
        <time>2020-01-18T09:11:20.163Z</time>
      </trkpt>
      <trkpt lat="37.25156333" lon="-7.09139333">
        <ele>68.0</ele>
        <time>2020-01-18T09:11:21.152Z</time>
      </trkpt>
      <trkpt lat="37.25156333" lon="-7.09139333">
        <ele>68.0</ele>
        <time>2020-01-18T09:11:22.158Z</time>
      </trkpt>
      <trkpt lat="37.25167" lon="-7.09139833">
        <ele>68.0</ele>
        <time>2020-01-18T09:11:23.164Z</time>
      </trkpt>
      <trkpt lat="37.25167" lon="-7.09139833">
        <ele>68.0</ele>
        <time>2020-01-18T09:11:24.131Z</time>
      </trkpt>
      <trkpt lat="37.25177" lon="-7.09136833">
        <ele>69.0</ele>
        <time>2020-01-18T09:11:25.155Z</time>
      </trkpt>
      <trkpt lat="37.25177" lon="-7.09136833">
        <ele>69.0</ele>
        <time>2020-01-18T09:11:26.165Z</time>
      </trkpt>
      <trkpt lat="37.25186167" lon="-7.091365">
        <ele>69.0</ele>
        <time>2020-01-18T09:11:27.154Z</time>
      </trkpt>
      <trkpt lat="37.25186167" lon="-7.091365">
        <ele>69.0</ele>
        <time>2020-01-18T09:11:28.161Z</time>
      </trkpt>
      <trkpt lat="37.25194667" lon="-7.09136167">
        <ele>70.0</ele>
        <time>2020-01-18T09:11:29.150Z</time>
      </trkpt>
      <trkpt lat="37.25194667" lon="-7.09136167">
        <ele>70.0</ele>
        <time>2020-01-18T09:11:30.157Z</time>
      </trkpt>
      <trkpt lat="37.25206" lon="-7.09132167">
        <ele>69.0</ele>
        <time>2020-01-18T09:11:31.141Z</time>
      </trkpt>
      <trkpt lat="37.25206" lon="-7.09132167">
        <ele>69.0</ele>
        <time>2020-01-18T09:11:32.143Z</time>
      </trkpt>
      <trkpt lat="37.25215667" lon="-7.09130167">
        <ele>68.0</ele>
        <time>2020-01-18T09:11:33.165Z</time>
      </trkpt>
      <trkpt lat="37.25215667" lon="-7.09130167">
        <ele>68.0</ele>
        <time>2020-01-18T09:11:34.130Z</time>
      </trkpt>
      <trkpt lat="37.25222667" lon="-7.09133833">
        <ele>67.0</ele>
        <time>2020-01-18T09:11:35.129Z</time>
      </trkpt>
      <trkpt lat="37.25222667" lon="-7.09133833">
        <ele>67.0</ele>
        <time>2020-01-18T09:11:36.134Z</time>
      </trkpt>
      <trkpt lat="37.25225167" lon="-7.09141667">
        <ele>67.0</ele>
        <time>2020-01-18T09:11:37.155Z</time>
      </trkpt>
      <trkpt lat="37.252265" lon="-7.09144167">
        <ele>67.0</ele>
        <time>2020-01-18T09:11:38.141Z</time>
      </trkpt>
      <trkpt lat="37.252265" lon="-7.09144167">
        <ele>67.0</ele>
        <time>2020-01-18T09:11:39.146Z</time>
      </trkpt>
      <trkpt lat="37.25232167" lon="-7.09144833">
        <ele>66.0</ele>
        <time>2020-01-18T09:11:40.154Z</time>
      </trkpt>
      <trkpt lat="37.25232167" lon="-7.09144833">
        <ele>66.0</ele>
        <time>2020-01-18T09:11:41.160Z</time>
      </trkpt>
      <trkpt lat="37.25236" lon="-7.09138167">
        <ele>65.0</ele>
        <time>2020-01-18T09:11:42.157Z</time>
      </trkpt>
      <trkpt lat="37.25236" lon="-7.09138167">
        <ele>65.0</ele>
        <time>2020-01-18T09:11:43.162Z</time>
      </trkpt>
      <trkpt lat="37.25243833" lon="-7.09132833">
        <ele>65.0</ele>
        <time>2020-01-18T09:11:44.151Z</time>
      </trkpt>
      <trkpt lat="37.25243833" lon="-7.09132833">
        <ele>65.0</ele>
        <time>2020-01-18T09:11:45.158Z</time>
      </trkpt>
      <trkpt lat="37.25252833" lon="-7.09129167">
        <ele>64.0</ele>
        <time>2020-01-18T09:11:46.149Z</time>
      </trkpt>
      <trkpt lat="37.25257" lon="-7.09127">
        <ele>64.0</ele>
        <time>2020-01-18T09:11:47.147Z</time>
      </trkpt>
      <trkpt lat="37.25261167" lon="-7.09125167">
        <ele>63.0</ele>
        <time>2020-01-18T09:11:48.136Z</time>
      </trkpt>
      <trkpt lat="37.25261167" lon="-7.09125167">
        <ele>63.0</ele>
        <time>2020-01-18T09:11:49.142Z</time>
      </trkpt>
      <trkpt lat="37.25270667" lon="-7.09123167">
        <ele>62.0</ele>
        <time>2020-01-18T09:11:50.166Z</time>
      </trkpt>
      <trkpt lat="37.25270667" lon="-7.09123167">
        <ele>62.0</ele>
        <time>2020-01-18T09:11:51.131Z</time>
      </trkpt>
      <trkpt lat="37.25280333" lon="-7.09120167">
        <ele>62.0</ele>
        <time>2020-01-18T09:11:52.135Z</time>
      </trkpt>
      <trkpt lat="37.252855" lon="-7.09119167">
        <ele>62.0</ele>
        <time>2020-01-18T09:11:53.162Z</time>
      </trkpt>
      <trkpt lat="37.252855" lon="-7.09119167">
        <ele>62.0</ele>
        <time>2020-01-18T09:11:54.136Z</time>
      </trkpt>
      <trkpt lat="37.25295333" lon="-7.09116333">
        <ele>61.0</ele>
        <time>2020-01-18T09:11:55.132Z</time>
      </trkpt>
      <trkpt lat="37.25299833" lon="-7.09117167">
        <ele>61.0</ele>
        <time>2020-01-18T09:11:56.158Z</time>
      </trkpt>
      <trkpt lat="37.25299833" lon="-7.09117167">
        <ele>61.0</ele>
        <time>2020-01-18T09:11:57.163Z</time>
      </trkpt>
      <trkpt lat="37.25309833" lon="-7.091205">
        <ele>60.0</ele>
        <time>2020-01-18T09:11:58.149Z</time>
      </trkpt>
      <trkpt lat="37.25309833" lon="-7.091205">
        <ele>60.0</ele>
        <time>2020-01-18T09:11:59.157Z</time>
      </trkpt>
      <trkpt lat="37.25320333" lon="-7.09117">
        <ele>60.0</ele>
        <time>2020-01-18T09:12:00.159Z</time>
      </trkpt>
      <trkpt lat="37.25320333" lon="-7.09117">
        <ele>60.0</ele>
        <time>2020-01-18T09:12:01.164Z</time>
      </trkpt>
      <trkpt lat="37.253315" lon="-7.09115667">
        <ele>60.0</ele>
        <time>2020-01-18T09:12:02.164Z</time>
      </trkpt>
      <trkpt lat="37.253315" lon="-7.09115667">
        <ele>60.0</ele>
        <time>2020-01-18T09:12:03.129Z</time>
      </trkpt>
      <trkpt lat="37.253425" lon="-7.091165">
        <ele>60.0</ele>
        <time>2020-01-18T09:12:04.161Z</time>
      </trkpt>
      <trkpt lat="37.25348167" lon="-7.09116167">
        <ele>59.0</ele>
        <time>2020-01-18T09:12:05.145Z</time>
      </trkpt>
      <trkpt lat="37.25348167" lon="-7.09116167">
        <ele>59.0</ele>
        <time>2020-01-18T09:12:06.150Z</time>
      </trkpt>
      <trkpt lat="37.25357667" lon="-7.09115">
        <ele>59.0</ele>
        <time>2020-01-18T09:12:07.141Z</time>
      </trkpt>
      <trkpt lat="37.253625" lon="-7.09113">
        <ele>59.0</ele>
        <time>2020-01-18T09:12:08.142Z</time>
      </trkpt>
      <trkpt lat="37.253625" lon="-7.09113">
        <ele>59.0</ele>
        <time>2020-01-18T09:12:09.147Z</time>
      </trkpt>
      <trkpt lat="37.25373" lon="-7.09111">
        <ele>59.0</ele>
        <time>2020-01-18T09:12:10.147Z</time>
      </trkpt>
      <trkpt lat="37.25373" lon="-7.09111">
        <ele>59.0</ele>
        <time>2020-01-18T09:12:11.159Z</time>
      </trkpt>
      <trkpt lat="37.25383333" lon="-7.09111333">
        <ele>59.0</ele>
        <time>2020-01-18T09:12:12.147Z</time>
      </trkpt>
      <trkpt lat="37.25383333" lon="-7.09111333">
        <ele>59.0</ele>
        <time>2020-01-18T09:12:13.158Z</time>
      </trkpt>
      <trkpt lat="37.25394" lon="-7.09110333">
        <ele>58.0</ele>
        <time>2020-01-18T09:12:14.150Z</time>
      </trkpt>
      <trkpt lat="37.254" lon="-7.09108667">
        <ele>58.0</ele>
        <time>2020-01-18T09:12:15.152Z</time>
      </trkpt>
      <trkpt lat="37.254" lon="-7.09108667">
        <ele>58.0</ele>
        <time>2020-01-18T09:12:16.157Z</time>
      </trkpt>
      <trkpt lat="37.25412" lon="-7.09105167">
        <ele>58.0</ele>
        <time>2020-01-18T09:12:17.149Z</time>
      </trkpt>
      <trkpt lat="37.25417" lon="-7.09102667">
        <ele>57.0</ele>
        <time>2020-01-18T09:12:18.148Z</time>
      </trkpt>
      <trkpt lat="37.25417" lon="-7.09102667">
        <ele>57.0</ele>
        <time>2020-01-18T09:12:19.154Z</time>
      </trkpt>
      <trkpt lat="37.25426667" lon="-7.090965">
        <ele>57.0</ele>
        <time>2020-01-18T09:12:20.162Z</time>
      </trkpt>
      <trkpt lat="37.25426667" lon="-7.090965">
        <ele>57.0</ele>
        <time>2020-01-18T09:12:21.168Z</time>
      </trkpt>
      <trkpt lat="37.25437" lon="-7.09095">
        <ele>56.0</ele>
        <time>2020-01-18T09:12:22.165Z</time>
      </trkpt>
      <trkpt lat="37.25437" lon="-7.09095">
        <ele>56.0</ele>
        <time>2020-01-18T09:12:23.131Z</time>
      </trkpt>
      <trkpt lat="37.25446333" lon="-7.09096667">
        <ele>56.0</ele>
        <time>2020-01-18T09:12:24.154Z</time>
      </trkpt>
      <trkpt lat="37.25450833" lon="-7.09096333">
        <ele>57.0</ele>
        <time>2020-01-18T09:12:25.139Z</time>
      </trkpt>
      <trkpt lat="37.25450833" lon="-7.09096333">
        <ele>57.0</ele>
        <time>2020-01-18T09:12:26.157Z</time>
      </trkpt>
      <trkpt lat="37.2546" lon="-7.09095">
        <ele>56.0</ele>
        <time>2020-01-18T09:12:27.139Z</time>
      </trkpt>
      <trkpt lat="37.2546" lon="-7.09095">
        <ele>56.0</ele>
        <time>2020-01-18T09:12:28.146Z</time>
      </trkpt>
      <trkpt lat="37.25469167" lon="-7.09095333">
        <ele>55.0</ele>
        <time>2020-01-18T09:12:29.144Z</time>
      </trkpt>
      <trkpt lat="37.25473833" lon="-7.09094833">
        <ele>56.0</ele>
        <time>2020-01-18T09:12:30.146Z</time>
      </trkpt>
      <trkpt lat="37.25473833" lon="-7.09094833">
        <ele>56.0</ele>
        <time>2020-01-18T09:12:31.166Z</time>
      </trkpt>
      <trkpt lat="37.25483833" lon="-7.090925">
        <ele>55.0</ele>
        <time>2020-01-18T09:12:32.152Z</time>
      </trkpt>
      <trkpt lat="37.25483833" lon="-7.090925">
        <ele>55.0</ele>
        <time>2020-01-18T09:12:33.159Z</time>
      </trkpt>
      <trkpt lat="37.25497167" lon="-7.09091">
        <ele>56.0</ele>
        <time>2020-01-18T09:12:34.155Z</time>
      </trkpt>
      <trkpt lat="37.25497167" lon="-7.09091">
        <ele>56.0</ele>
        <time>2020-01-18T09:12:35.160Z</time>
      </trkpt>
      <trkpt lat="37.255085" lon="-7.09090333">
        <ele>56.0</ele>
        <time>2020-01-18T09:12:36.165Z</time>
      </trkpt>
      <trkpt lat="37.25514167" lon="-7.09090167">
        <ele>55.0</ele>
        <time>2020-01-18T09:12:37.161Z</time>
      </trkpt>
      <trkpt lat="37.25514167" lon="-7.09090167">
        <ele>55.0</ele>
        <time>2020-01-18T09:12:38.167Z</time>
      </trkpt>
      <trkpt lat="37.25524667" lon="-7.09089">
        <ele>56.0</ele>
        <time>2020-01-18T09:12:39.146Z</time>
      </trkpt>
      <trkpt lat="37.25524667" lon="-7.09089">
        <ele>56.0</ele>
        <time>2020-01-18T09:12:40.157Z</time>
      </trkpt>
      <trkpt lat="37.25534667" lon="-7.09081">
        <ele>55.0</ele>
        <time>2020-01-18T09:12:41.159Z</time>
      </trkpt>
      <trkpt lat="37.25534667" lon="-7.09081">
        <ele>55.0</ele>
        <time>2020-01-18T09:12:42.165Z</time>
      </trkpt>
      <trkpt lat="37.25545" lon="-7.09075">
        <ele>54.0</ele>
        <time>2020-01-18T09:12:43.154Z</time>
      </trkpt>
      <trkpt lat="37.25545" lon="-7.09075">
        <ele>54.0</ele>
        <time>2020-01-18T09:12:44.162Z</time>
      </trkpt>
      <trkpt lat="37.255525" lon="-7.09068667">
        <ele>54.0</ele>
        <time>2020-01-18T09:12:45.157Z</time>
      </trkpt>
      <trkpt lat="37.255525" lon="-7.09068667">
        <ele>54.0</ele>
        <time>2020-01-18T09:12:46.137Z</time>
      </trkpt>
      <trkpt lat="37.25560167" lon="-7.09061">
        <ele>54.0</ele>
        <time>2020-01-18T09:12:47.129Z</time>
      </trkpt>
      <trkpt lat="37.25560167" lon="-7.09061">
        <ele>54.0</ele>
        <time>2020-01-18T09:12:48.134Z</time>
      </trkpt>
      <trkpt lat="37.25567667" lon="-7.09053333">
        <ele>54.0</ele>
        <time>2020-01-18T09:12:49.223Z</time>
      </trkpt>
      <trkpt lat="37.25571167" lon="-7.09049667">
        <ele>53.0</ele>
        <time>2020-01-18T09:12:50.162Z</time>
      </trkpt>
      <trkpt lat="37.25571167" lon="-7.09049667">
        <ele>53.0</ele>
        <time>2020-01-18T09:12:51.135Z</time>
      </trkpt>
      <trkpt lat="37.255785" lon="-7.090425">
        <ele>53.0</ele>
        <time>2020-01-18T09:12:52.132Z</time>
      </trkpt>
      <trkpt lat="37.255825" lon="-7.09038833">
        <ele>53.0</ele>
        <time>2020-01-18T09:12:53.142Z</time>
      </trkpt>
      <trkpt lat="37.255825" lon="-7.09038833">
        <ele>53.0</ele>
        <time>2020-01-18T09:12:54.147Z</time>
      </trkpt>
      <trkpt lat="37.2559" lon="-7.09030833">
        <ele>52.0</ele>
        <time>2020-01-18T09:12:55.141Z</time>
      </trkpt>
      <trkpt lat="37.255935" lon="-7.09026333">
        <ele>52.0</ele>
        <time>2020-01-18T09:12:56.165Z</time>
      </trkpt>
      <trkpt lat="37.255935" lon="-7.09026333">
        <ele>52.0</ele>
        <time>2020-01-18T09:12:57.131Z</time>
      </trkpt>
      <trkpt lat="37.256005" lon="-7.09016667">
        <ele>51.0</ele>
        <time>2020-01-18T09:12:58.152Z</time>
      </trkpt>
      <trkpt lat="37.256005" lon="-7.09016667">
        <ele>51.0</ele>
        <time>2020-01-18T09:12:59.157Z</time>
      </trkpt>
      <trkpt lat="37.25609667" lon="-7.09013333">
        <ele>51.0</ele>
        <time>2020-01-18T09:13:00.138Z</time>
      </trkpt>
      <trkpt lat="37.25609667" lon="-7.09013333">
        <ele>51.0</ele>
        <time>2020-01-18T09:13:01.160Z</time>
      </trkpt>
      <trkpt lat="37.25618833" lon="-7.090125">
        <ele>51.0</ele>
        <time>2020-01-18T09:13:02.144Z</time>
      </trkpt>
      <trkpt lat="37.25623" lon="-7.09010333">
        <ele>50.0</ele>
        <time>2020-01-18T09:13:03.135Z</time>
      </trkpt>
      <trkpt lat="37.25623" lon="-7.09010333">
        <ele>50.0</ele>
        <time>2020-01-18T09:13:04.140Z</time>
      </trkpt>
      <trkpt lat="37.25630833" lon="-7.09002333">
        <ele>50.0</ele>
        <time>2020-01-18T09:13:05.131Z</time>
      </trkpt>
      <trkpt lat="37.25630833" lon="-7.09002333">
        <ele>50.0</ele>
        <time>2020-01-18T09:13:06.136Z</time>
      </trkpt>
      <trkpt lat="37.25639667" lon="-7.08999167">
        <ele>50.0</ele>
        <time>2020-01-18T09:13:07.136Z</time>
      </trkpt>
      <trkpt lat="37.25644667" lon="-7.08998833">
        <ele>50.0</ele>
        <time>2020-01-18T09:13:08.135Z</time>
      </trkpt>
      <trkpt lat="37.25644667" lon="-7.08998833">
        <ele>50.0</ele>
        <time>2020-01-18T09:13:09.139Z</time>
      </trkpt>
      <trkpt lat="37.25654" lon="-7.089985">
        <ele>50.0</ele>
        <time>2020-01-18T09:13:10.136Z</time>
      </trkpt>
      <trkpt lat="37.25654" lon="-7.089985">
        <ele>50.0</ele>
        <time>2020-01-18T09:13:11.158Z</time>
      </trkpt>
      <trkpt lat="37.25661667" lon="-7.08998833">
        <ele>50.0</ele>
        <time>2020-01-18T09:13:12.155Z</time>
      </trkpt>
      <trkpt lat="37.25665167" lon="-7.08999167">
        <ele>50.0</ele>
        <time>2020-01-18T09:13:13.142Z</time>
      </trkpt>
      <trkpt lat="37.25668167" lon="-7.08999">
        <ele>51.0</ele>
        <time>2020-01-18T09:13:14.139Z</time>
      </trkpt>
      <trkpt lat="37.256705" lon="-7.08998333">
        <ele>51.0</ele>
        <time>2020-01-18T09:13:15.161Z</time>
      </trkpt>
      <trkpt lat="37.256705" lon="-7.08998333">
        <ele>51.0</ele>
        <time>2020-01-18T09:13:16.166Z</time>
      </trkpt>
      <trkpt lat="37.25674833" lon="-7.08997833">
        <ele>52.0</ele>
        <time>2020-01-18T09:13:17.135Z</time>
      </trkpt>
      <trkpt lat="37.25676667" lon="-7.08997833">
        <ele>52.0</ele>
        <time>2020-01-18T09:13:18.129Z</time>
      </trkpt>
      <trkpt lat="37.25676667" lon="-7.08997833">
        <ele>52.0</ele>
        <time>2020-01-18T09:13:19.135Z</time>
      </trkpt>
      <trkpt lat="37.25681167" lon="-7.08998333">
        <ele>53.0</ele>
        <time>2020-01-18T09:13:20.158Z</time>
      </trkpt>
      <trkpt lat="37.25683167" lon="-7.08998833">
        <ele>54.0</ele>
        <time>2020-01-18T09:13:21.166Z</time>
      </trkpt>
      <trkpt lat="37.25683167" lon="-7.08998833">
        <ele>54.0</ele>
        <time>2020-01-18T09:13:22.132Z</time>
      </trkpt>
      <trkpt lat="37.256875" lon="-7.08999333">
        <ele>55.0</ele>
        <time>2020-01-18T09:13:23.164Z</time>
      </trkpt>
      <trkpt lat="37.256875" lon="-7.08999333">
        <ele>55.0</ele>
        <time>2020-01-18T09:13:24.129Z</time>
      </trkpt>
      <trkpt lat="37.25692167" lon="-7.09000167">
        <ele>56.0</ele>
        <time>2020-01-18T09:13:25.155Z</time>
      </trkpt>
      <trkpt lat="37.25694667" lon="-7.09000333">
        <ele>57.0</ele>
        <time>2020-01-18T09:13:26.155Z</time>
      </trkpt>
      <trkpt lat="37.25694667" lon="-7.09000333">
        <ele>57.0</ele>
        <time>2020-01-18T09:13:27.160Z</time>
      </trkpt>
      <trkpt lat="37.25699333" lon="-7.09000833">
        <ele>58.0</ele>
        <time>2020-01-18T09:13:28.156Z</time>
      </trkpt>
      <trkpt lat="37.25701833" lon="-7.09001333">
        <ele>59.0</ele>
        <time>2020-01-18T09:13:29.148Z</time>
      </trkpt>
      <trkpt lat="37.25701833" lon="-7.09001333">
        <ele>59.0</ele>
        <time>2020-01-18T09:13:30.157Z</time>
      </trkpt>
      <trkpt lat="37.25706667" lon="-7.09000667">
        <ele>60.0</ele>
        <time>2020-01-18T09:13:31.150Z</time>
      </trkpt>
      <trkpt lat="37.25709667" lon="-7.09000167">
        <ele>60.0</ele>
        <time>2020-01-18T09:13:32.136Z</time>
      </trkpt>
      <trkpt lat="37.25709667" lon="-7.09000167">
        <ele>60.0</ele>
        <time>2020-01-18T09:13:33.144Z</time>
      </trkpt>
      <trkpt lat="37.25716333" lon="-7.09000167">
        <ele>60.0</ele>
        <time>2020-01-18T09:13:34.136Z</time>
      </trkpt>
      <trkpt lat="37.25716333" lon="-7.09000167">
        <ele>60.0</ele>
        <time>2020-01-18T09:13:35.142Z</time>
      </trkpt>
      <trkpt lat="37.25723333" lon="-7.089995">
        <ele>60.0</ele>
        <time>2020-01-18T09:13:36.131Z</time>
      </trkpt>
      <trkpt lat="37.25723333" lon="-7.089995">
        <ele>60.0</ele>
        <time>2020-01-18T09:13:37.137Z</time>
      </trkpt>
      <trkpt lat="37.25730833" lon="-7.09">
        <ele>60.0</ele>
        <time>2020-01-18T09:13:38.166Z</time>
      </trkpt>
      <trkpt lat="37.25730833" lon="-7.09">
        <ele>60.0</ele>
        <time>2020-01-18T09:13:39.133Z</time>
      </trkpt>
      <trkpt lat="37.25739" lon="-7.09001667">
        <ele>61.0</ele>
        <time>2020-01-18T09:13:40.169Z</time>
      </trkpt>
      <trkpt lat="37.25742333" lon="-7.09002667">
        <ele>61.0</ele>
        <time>2020-01-18T09:13:41.164Z</time>
      </trkpt>
      <trkpt lat="37.25742333" lon="-7.09002667">
        <ele>61.0</ele>
        <time>2020-01-18T09:13:42.130Z</time>
      </trkpt>
      <trkpt lat="37.25750667" lon="-7.09005333">
        <ele>60.0</ele>
        <time>2020-01-18T09:13:43.137Z</time>
      </trkpt>
      <trkpt lat="37.25750667" lon="-7.09005333">
        <ele>60.0</ele>
        <time>2020-01-18T09:13:44.141Z</time>
      </trkpt>
      <trkpt lat="37.25759333" lon="-7.09005667">
        <ele>62.0</ele>
        <time>2020-01-18T09:13:45.160Z</time>
      </trkpt>
      <trkpt lat="37.25759333" lon="-7.09005667">
        <ele>62.0</ele>
        <time>2020-01-18T09:13:46.165Z</time>
      </trkpt>
      <trkpt lat="37.257655" lon="-7.090055">
        <ele>62.0</ele>
        <time>2020-01-18T09:13:47.130Z</time>
      </trkpt>
      <trkpt lat="37.257655" lon="-7.090055">
        <ele>62.0</ele>
        <time>2020-01-18T09:13:48.135Z</time>
      </trkpt>
      <trkpt lat="37.257705" lon="-7.090055">
        <ele>62.0</ele>
        <time>2020-01-18T09:13:49.138Z</time>
      </trkpt>
      <trkpt lat="37.25773333" lon="-7.09005667">
        <ele>63.0</ele>
        <time>2020-01-18T09:13:50.168Z</time>
      </trkpt>
      <trkpt lat="37.25773333" lon="-7.09005667">
        <ele>63.0</ele>
        <time>2020-01-18T09:13:51.133Z</time>
      </trkpt>
      <trkpt lat="37.25779167" lon="-7.09006333">
        <ele>62.0</ele>
        <time>2020-01-18T09:13:52.148Z</time>
      </trkpt>
      <trkpt lat="37.25783333" lon="-7.09006333">
        <ele>62.0</ele>
        <time>2020-01-18T09:13:53.134Z</time>
      </trkpt>
      <trkpt lat="37.25783333" lon="-7.09006333">
        <ele>62.0</ele>
        <time>2020-01-18T09:13:54.139Z</time>
      </trkpt>
      <trkpt lat="37.25794833" lon="-7.09005167">
        <ele>62.0</ele>
        <time>2020-01-18T09:13:55.162Z</time>
      </trkpt>
      <trkpt lat="37.25794833" lon="-7.09005167">
        <ele>62.0</ele>
        <time>2020-01-18T09:13:56.167Z</time>
      </trkpt>
      <trkpt lat="37.25810667" lon="-7.09001667">
        <ele>62.0</ele>
        <time>2020-01-18T09:13:57.137Z</time>
      </trkpt>
      <trkpt lat="37.25819167" lon="-7.08999">
        <ele>62.0</ele>
        <time>2020-01-18T09:13:58.145Z</time>
      </trkpt>
      <trkpt lat="37.25819167" lon="-7.08999">
        <ele>62.0</ele>
        <time>2020-01-18T09:13:59.150Z</time>
      </trkpt>
      <trkpt lat="37.25835833" lon="-7.08994833">
        <ele>62.0</ele>
        <time>2020-01-18T09:14:00.135Z</time>
      </trkpt>
      <trkpt lat="37.25835833" lon="-7.08994833">
        <ele>62.0</ele>
        <time>2020-01-18T09:14:01.142Z</time>
      </trkpt>
      <trkpt lat="37.25848667" lon="-7.08991167">
        <ele>61.0</ele>
        <time>2020-01-18T09:14:02.155Z</time>
      </trkpt>
      <trkpt lat="37.25848667" lon="-7.08991167">
        <ele>61.0</ele>
        <time>2020-01-18T09:14:03.161Z</time>
      </trkpt>
      <trkpt lat="37.25853167" lon="-7.08987">
        <ele>60.0</ele>
        <time>2020-01-18T09:14:04.155Z</time>
      </trkpt>
      <trkpt lat="37.25853833" lon="-7.08985">
        <ele>60.0</ele>
        <time>2020-01-18T09:14:05.145Z</time>
      </trkpt>
      <trkpt lat="37.25853833" lon="-7.08985">
        <ele>60.0</ele>
        <time>2020-01-18T09:14:06.150Z</time>
      </trkpt>
      <trkpt lat="37.25856667" lon="-7.08981">
        <ele>59.0</ele>
        <time>2020-01-18T09:14:07.141Z</time>
      </trkpt>
      <trkpt lat="37.25856667" lon="-7.08981">
        <ele>59.0</ele>
        <time>2020-01-18T09:14:08.146Z</time>
      </trkpt>
      <trkpt lat="37.258575" lon="-7.08976333">
        <ele>59.0</ele>
        <time>2020-01-18T09:14:09.144Z</time>
      </trkpt>
      <trkpt lat="37.258575" lon="-7.08976333">
        <ele>59.0</ele>
        <time>2020-01-18T09:14:10.156Z</time>
      </trkpt>
      <trkpt lat="37.25858667" lon="-7.08976">
        <ele>57.0</ele>
        <time>2020-01-18T09:14:11.162Z</time>
      </trkpt>
      <trkpt lat="37.25872833" lon="-7.08965167">
        <ele>58.0</ele>
        <time>2020-01-18T09:14:12.166Z</time>
      </trkpt>
      <trkpt lat="37.25872833" lon="-7.08965167">
        <ele>58.0</ele>
        <time>2020-01-18T09:14:13.162Z</time>
      </trkpt>
      <trkpt lat="37.25879167" lon="-7.08963667">
        <ele>57.0</ele>
        <time>2020-01-18T09:14:14.166Z</time>
      </trkpt>
      <trkpt lat="37.25879167" lon="-7.08963667">
        <ele>57.0</ele>
        <time>2020-01-18T09:14:15.160Z</time>
      </trkpt>
      <trkpt lat="37.25886167" lon="-7.08964667">
        <ele>57.0</ele>
        <time>2020-01-18T09:14:16.168Z</time>
      </trkpt>
      <trkpt lat="37.25886167" lon="-7.08964667">
        <ele>57.0</ele>
        <time>2020-01-18T09:14:17.135Z</time>
      </trkpt>
      <trkpt lat="37.25893" lon="-7.089675">
        <ele>57.0</ele>
        <time>2020-01-18T09:14:18.148Z</time>
      </trkpt>
      <trkpt lat="37.25893" lon="-7.089675">
        <ele>57.0</ele>
        <time>2020-01-18T09:14:19.138Z</time>
      </trkpt>
      <trkpt lat="37.258995" lon="-7.08971833">
        <ele>57.0</ele>
        <time>2020-01-18T09:14:20.148Z</time>
      </trkpt>
      <trkpt lat="37.25903" lon="-7.08973667">
        <ele>57.0</ele>
        <time>2020-01-18T09:14:21.143Z</time>
      </trkpt>
      <trkpt lat="37.25903" lon="-7.08973667">
        <ele>57.0</ele>
        <time>2020-01-18T09:14:22.133Z</time>
      </trkpt>
      <trkpt lat="37.259105" lon="-7.08976833">
        <ele>57.0</ele>
        <time>2020-01-18T09:14:23.142Z</time>
      </trkpt>
      <trkpt lat="37.25914167" lon="-7.08978833">
        <ele>57.0</ele>
        <time>2020-01-18T09:14:24.168Z</time>
      </trkpt>
      <trkpt lat="37.25914167" lon="-7.08978833">
        <ele>57.0</ele>
        <time>2020-01-18T09:14:25.156Z</time>
      </trkpt>
      <trkpt lat="37.25922" lon="-7.08983667">
        <ele>56.0</ele>
        <time>2020-01-18T09:14:26.139Z</time>
      </trkpt>
      <trkpt lat="37.25925833" lon="-7.08986333">
        <ele>56.0</ele>
        <time>2020-01-18T09:14:27.142Z</time>
      </trkpt>
      <trkpt lat="37.25925833" lon="-7.08986333">
        <ele>56.0</ele>
        <time>2020-01-18T09:14:28.132Z</time>
      </trkpt>
      <trkpt lat="37.25933833" lon="-7.08990167">
        <ele>56.0</ele>
        <time>2020-01-18T09:14:29.141Z</time>
      </trkpt>
      <trkpt lat="37.25933833" lon="-7.08990167">
        <ele>56.0</ele>
        <time>2020-01-18T09:14:30.134Z</time>
      </trkpt>
      <trkpt lat="37.25941667" lon="-7.089935">
        <ele>56.0</ele>
        <time>2020-01-18T09:14:31.160Z</time>
      </trkpt>
      <trkpt lat="37.25941667" lon="-7.089935">
        <ele>56.0</ele>
        <time>2020-01-18T09:14:32.156Z</time>
      </trkpt>
      <trkpt lat="37.25949" lon="-7.08995833">
        <ele>55.0</ele>
        <time>2020-01-18T09:14:33.132Z</time>
      </trkpt>
      <trkpt lat="37.25949" lon="-7.08995833">
        <ele>55.0</ele>
        <time>2020-01-18T09:14:34.132Z</time>
      </trkpt>
      <trkpt lat="37.259565" lon="-7.08998333">
        <ele>55.0</ele>
        <time>2020-01-18T09:14:35.147Z</time>
      </trkpt>
      <trkpt lat="37.25959833" lon="-7.089995">
        <ele>55.0</ele>
        <time>2020-01-18T09:14:36.139Z</time>
      </trkpt>
      <trkpt lat="37.25959833" lon="-7.089995">
        <ele>55.0</ele>
        <time>2020-01-18T09:14:37.152Z</time>
      </trkpt>
      <trkpt lat="37.25967167" lon="-7.09001833">
        <ele>55.0</ele>
        <time>2020-01-18T09:14:38.162Z</time>
      </trkpt>
      <trkpt lat="37.259715" lon="-7.090025">
        <ele>55.0</ele>
        <time>2020-01-18T09:14:39.130Z</time>
      </trkpt>
      <trkpt lat="37.259715" lon="-7.090025">
        <ele>55.0</ele>
        <time>2020-01-18T09:14:40.154Z</time>
      </trkpt>
      <trkpt lat="37.25979833" lon="-7.09005167">
        <ele>55.0</ele>
        <time>2020-01-18T09:14:41.167Z</time>
      </trkpt>
      <trkpt lat="37.25984667" lon="-7.090075">
        <ele>55.0</ele>
        <time>2020-01-18T09:14:42.147Z</time>
      </trkpt>
      <trkpt lat="37.25984667" lon="-7.090075">
        <ele>55.0</ele>
        <time>2020-01-18T09:14:43.144Z</time>
      </trkpt>
      <trkpt lat="37.25991833" lon="-7.09013167">
        <ele>55.0</ele>
        <time>2020-01-18T09:14:44.169Z</time>
      </trkpt>
      <trkpt lat="37.259955" lon="-7.09016667">
        <ele>55.0</ele>
        <time>2020-01-18T09:14:45.163Z</time>
      </trkpt>
      <trkpt lat="37.259955" lon="-7.09016667">
        <ele>55.0</ele>
        <time>2020-01-18T09:14:46.139Z</time>
      </trkpt>
      <trkpt lat="37.26003667" lon="-7.09021833">
        <ele>55.0</ele>
        <time>2020-01-18T09:14:47.152Z</time>
      </trkpt>
      <trkpt lat="37.26008167" lon="-7.090245">
        <ele>55.0</ele>
        <time>2020-01-18T09:14:48.132Z</time>
      </trkpt>
      <trkpt lat="37.260125" lon="-7.09026333">
        <ele>56.0</ele>
        <time>2020-01-18T09:14:49.129Z</time>
      </trkpt>
      <trkpt lat="37.260125" lon="-7.09026333">
        <ele>56.0</ele>
        <time>2020-01-18T09:14:50.158Z</time>
      </trkpt>
      <trkpt lat="37.26020833" lon="-7.09028833">
        <ele>55.0</ele>
        <time>2020-01-18T09:14:51.132Z</time>
      </trkpt>
      <trkpt lat="37.26020833" lon="-7.09028833">
        <ele>55.0</ele>
        <time>2020-01-18T09:14:52.144Z</time>
      </trkpt>
      <trkpt lat="37.26028833" lon="-7.090315">
        <ele>55.0</ele>
        <time>2020-01-18T09:14:53.162Z</time>
      </trkpt>
      <trkpt lat="37.26032667" lon="-7.09033667">
        <ele>56.0</ele>
        <time>2020-01-18T09:14:54.139Z</time>
      </trkpt>
      <trkpt lat="37.26032667" lon="-7.09033667">
        <ele>56.0</ele>
        <time>2020-01-18T09:14:55.168Z</time>
      </trkpt>
      <trkpt lat="37.26040667" lon="-7.090375">
        <ele>56.0</ele>
        <time>2020-01-18T09:14:56.140Z</time>
      </trkpt>
      <trkpt lat="37.26044833" lon="-7.09039167">
        <ele>56.0</ele>
        <time>2020-01-18T09:14:57.140Z</time>
      </trkpt>
      <trkpt lat="37.26044833" lon="-7.09039167">
        <ele>56.0</ele>
        <time>2020-01-18T09:14:58.166Z</time>
      </trkpt>
      <trkpt lat="37.26053667" lon="-7.09044667">
        <ele>55.0</ele>
        <time>2020-01-18T09:14:59.152Z</time>
      </trkpt>
      <trkpt lat="37.26058" lon="-7.09047833">
        <ele>55.0</ele>
        <time>2020-01-18T09:15:00.138Z</time>
      </trkpt>
      <trkpt lat="37.26058" lon="-7.09047833">
        <ele>55.0</ele>
        <time>2020-01-18T09:15:01.138Z</time>
      </trkpt>
      <trkpt lat="37.26066667" lon="-7.09053333">
        <ele>55.0</ele>
        <time>2020-01-18T09:15:02.151Z</time>
      </trkpt>
      <trkpt lat="37.26071333" lon="-7.09055667">
        <ele>55.0</ele>
        <time>2020-01-18T09:15:03.161Z</time>
      </trkpt>
      <trkpt lat="37.26071333" lon="-7.09055667">
        <ele>55.0</ele>
        <time>2020-01-18T09:15:04.160Z</time>
      </trkpt>
      <trkpt lat="37.26080333" lon="-7.09060333">
        <ele>55.0</ele>
        <time>2020-01-18T09:15:05.131Z</time>
      </trkpt>
      <trkpt lat="37.26084833" lon="-7.09062833">
        <ele>55.0</ele>
        <time>2020-01-18T09:15:06.142Z</time>
      </trkpt>
      <trkpt lat="37.26084833" lon="-7.09062833">
        <ele>55.0</ele>
        <time>2020-01-18T09:15:07.154Z</time>
      </trkpt>
      <trkpt lat="37.26093167" lon="-7.09067167">
        <ele>56.0</ele>
        <time>2020-01-18T09:15:08.147Z</time>
      </trkpt>
      <trkpt lat="37.26093167" lon="-7.09067167">
        <ele>56.0</ele>
        <time>2020-01-18T09:15:09.142Z</time>
      </trkpt>
      <trkpt lat="37.26102" lon="-7.09072">
        <ele>56.0</ele>
        <time>2020-01-18T09:15:10.135Z</time>
      </trkpt>
      <trkpt lat="37.26106333" lon="-7.09074167">
        <ele>56.0</ele>
        <time>2020-01-18T09:15:11.164Z</time>
      </trkpt>
      <trkpt lat="37.26110667" lon="-7.09076167">
        <ele>56.0</ele>
        <time>2020-01-18T09:15:12.159Z</time>
      </trkpt>
      <trkpt lat="37.26110667" lon="-7.09076167">
        <ele>56.0</ele>
        <time>2020-01-18T09:15:13.138Z</time>
      </trkpt>
      <trkpt lat="37.26121" lon="-7.09078167">
        <ele>56.0</ele>
        <time>2020-01-18T09:15:14.145Z</time>
      </trkpt>
      <trkpt lat="37.261255" lon="-7.09079167">
        <ele>57.0</ele>
        <time>2020-01-18T09:15:15.167Z</time>
      </trkpt>
      <trkpt lat="37.261255" lon="-7.09079167">
        <ele>57.0</ele>
        <time>2020-01-18T09:15:16.134Z</time>
      </trkpt>
      <trkpt lat="37.26134333" lon="-7.09082667">
        <ele>57.0</ele>
        <time>2020-01-18T09:15:17.143Z</time>
      </trkpt>
      <trkpt lat="37.26138667" lon="-7.09084833">
        <ele>57.0</ele>
        <time>2020-01-18T09:15:18.130Z</time>
      </trkpt>
      <trkpt lat="37.261435" lon="-7.09087333">
        <ele>57.0</ele>
        <time>2020-01-18T09:15:19.135Z</time>
      </trkpt>
      <trkpt lat="37.261435" lon="-7.09087333">
        <ele>57.0</ele>
        <time>2020-01-18T09:15:20.162Z</time>
      </trkpt>
      <trkpt lat="37.26151667" lon="-7.09092333">
        <ele>57.0</ele>
        <time>2020-01-18T09:15:21.137Z</time>
      </trkpt>
      <trkpt lat="37.26155333" lon="-7.09096167">
        <ele>57.0</ele>
        <time>2020-01-18T09:15:22.147Z</time>
      </trkpt>
      <trkpt lat="37.26155333" lon="-7.09096167">
        <ele>57.0</ele>
        <time>2020-01-18T09:15:23.168Z</time>
      </trkpt>
      <trkpt lat="37.26163667" lon="-7.09103167">
        <ele>57.0</ele>
        <time>2020-01-18T09:15:24.144Z</time>
      </trkpt>
      <trkpt lat="37.26163667" lon="-7.09103167">
        <ele>57.0</ele>
        <time>2020-01-18T09:15:25.129Z</time>
      </trkpt>
      <trkpt lat="37.26173" lon="-7.091065">
        <ele>58.0</ele>
        <time>2020-01-18T09:15:26.138Z</time>
      </trkpt>
      <trkpt lat="37.26177667" lon="-7.09107333">
        <ele>58.0</ele>
        <time>2020-01-18T09:15:27.157Z</time>
      </trkpt>
      <trkpt lat="37.26177667" lon="-7.09107333">
        <ele>58.0</ele>
        <time>2020-01-18T09:15:28.144Z</time>
      </trkpt>
      <trkpt lat="37.26186667" lon="-7.09111">
        <ele>58.0</ele>
        <time>2020-01-18T09:15:29.158Z</time>
      </trkpt>
      <trkpt lat="37.26191" lon="-7.091135">
        <ele>58.0</ele>
        <time>2020-01-18T09:15:30.130Z</time>
      </trkpt>
      <trkpt lat="37.26191" lon="-7.091135">
        <ele>58.0</ele>
        <time>2020-01-18T09:15:31.142Z</time>
      </trkpt>
      <trkpt lat="37.26198167" lon="-7.091195">
        <ele>58.0</ele>
        <time>2020-01-18T09:15:32.162Z</time>
      </trkpt>
      <trkpt lat="37.26198167" lon="-7.091195">
        <ele>58.0</ele>
        <time>2020-01-18T09:15:33.164Z</time>
      </trkpt>
      <trkpt lat="37.26206333" lon="-7.091265">
        <ele>58.0</ele>
        <time>2020-01-18T09:15:34.134Z</time>
      </trkpt>
      <trkpt lat="37.26206333" lon="-7.091265">
        <ele>58.0</ele>
        <time>2020-01-18T09:15:35.161Z</time>
      </trkpt>
      <trkpt lat="37.26214833" lon="-7.09132833">
        <ele>58.0</ele>
        <time>2020-01-18T09:15:36.156Z</time>
      </trkpt>
      <trkpt lat="37.26214833" lon="-7.09132833">
        <ele>58.0</ele>
        <time>2020-01-18T09:15:37.135Z</time>
      </trkpt>
      <trkpt lat="37.26223" lon="-7.09139167">
        <ele>58.0</ele>
        <time>2020-01-18T09:15:38.149Z</time>
      </trkpt>
      <trkpt lat="37.26226833" lon="-7.09141667">
        <ele>58.0</ele>
        <time>2020-01-18T09:15:39.168Z</time>
      </trkpt>
      <trkpt lat="37.26226833" lon="-7.09141667">
        <ele>58.0</ele>
        <time>2020-01-18T09:15:40.158Z</time>
      </trkpt>
      <trkpt lat="37.26234167" lon="-7.09145833">
        <ele>58.0</ele>
        <time>2020-01-18T09:15:41.132Z</time>
      </trkpt>
      <trkpt lat="37.26238667" lon="-7.09147667">
        <ele>58.0</ele>
        <time>2020-01-18T09:15:42.131Z</time>
      </trkpt>
      <trkpt lat="37.26238667" lon="-7.09147667">
        <ele>58.0</ele>
        <time>2020-01-18T09:15:43.143Z</time>
      </trkpt>
      <trkpt lat="37.26248667" lon="-7.09149667">
        <ele>59.0</ele>
        <time>2020-01-18T09:15:44.162Z</time>
      </trkpt>
      <trkpt lat="37.26248667" lon="-7.09149667">
        <ele>59.0</ele>
        <time>2020-01-18T09:15:45.144Z</time>
      </trkpt>
      <trkpt lat="37.26259" lon="-7.09151333">
        <ele>59.0</ele>
        <time>2020-01-18T09:15:46.162Z</time>
      </trkpt>
      <trkpt lat="37.26259" lon="-7.09151333">
        <ele>59.0</ele>
        <time>2020-01-18T09:15:47.142Z</time>
      </trkpt>
      <trkpt lat="37.262685" lon="-7.09152833">
        <ele>59.0</ele>
        <time>2020-01-18T09:15:48.150Z</time>
      </trkpt>
      <trkpt lat="37.262685" lon="-7.09152833">
        <ele>59.0</ele>
        <time>2020-01-18T09:15:49.136Z</time>
      </trkpt>
      <trkpt lat="37.26278667" lon="-7.09153667">
        <ele>59.0</ele>
        <time>2020-01-18T09:15:50.145Z</time>
      </trkpt>
      <trkpt lat="37.26283333" lon="-7.09153167">
        <ele>59.0</ele>
        <time>2020-01-18T09:15:51.129Z</time>
      </trkpt>
      <trkpt lat="37.26283333" lon="-7.09153167">
        <ele>59.0</ele>
        <time>2020-01-18T09:15:52.133Z</time>
      </trkpt>
      <trkpt lat="37.26293" lon="-7.091525">
        <ele>60.0</ele>
        <time>2020-01-18T09:15:53.144Z</time>
      </trkpt>
      <trkpt lat="37.26296667" lon="-7.09152333">
        <ele>60.0</ele>
        <time>2020-01-18T09:15:54.167Z</time>
      </trkpt>
      <trkpt lat="37.26296667" lon="-7.09152333">
        <ele>60.0</ele>
        <time>2020-01-18T09:15:55.146Z</time>
      </trkpt>
      <trkpt lat="37.26305" lon="-7.09153667">
        <ele>60.0</ele>
        <time>2020-01-18T09:15:56.160Z</time>
      </trkpt>
      <trkpt lat="37.26305" lon="-7.09153667">
        <ele>60.0</ele>
        <time>2020-01-18T09:15:57.166Z</time>
      </trkpt>
      <trkpt lat="37.26305" lon="-7.09153667">
        <ele>60.0</ele>
        <time>2020-01-18T09:15:58.213Z</time>
      </trkpt>
      <trkpt lat="37.263155" lon="-7.09155667">
        <ele>60.0</ele>
        <time>2020-01-18T09:15:59.133Z</time>
      </trkpt>
      <trkpt lat="37.26324333" lon="-7.09158167">
        <ele>60.0</ele>
        <time>2020-01-18T09:16:00.146Z</time>
      </trkpt>
      <trkpt lat="37.26324333" lon="-7.09158167">
        <ele>60.0</ele>
        <time>2020-01-18T09:16:01.168Z</time>
      </trkpt>
      <trkpt lat="37.26333667" lon="-7.091605">
        <ele>60.0</ele>
        <time>2020-01-18T09:16:02.138Z</time>
      </trkpt>
      <trkpt lat="37.26333667" lon="-7.091605">
        <ele>60.0</ele>
        <time>2020-01-18T09:16:03.164Z</time>
      </trkpt>
      <trkpt lat="37.26343667" lon="-7.0916">
        <ele>61.0</ele>
        <time>2020-01-18T09:16:04.147Z</time>
      </trkpt>
      <trkpt lat="37.26348667" lon="-7.09159833">
        <ele>61.0</ele>
        <time>2020-01-18T09:16:05.160Z</time>
      </trkpt>
      <trkpt lat="37.26348667" lon="-7.09159833">
        <ele>61.0</ele>
        <time>2020-01-18T09:16:06.157Z</time>
      </trkpt>
      <trkpt lat="37.26357667" lon="-7.09159167">
        <ele>61.0</ele>
        <time>2020-01-18T09:16:07.132Z</time>
      </trkpt>
      <trkpt lat="37.26357667" lon="-7.09159167">
        <ele>61.0</ele>
        <time>2020-01-18T09:16:08.130Z</time>
      </trkpt>
      <trkpt lat="37.26368333" lon="-7.09158333">
        <ele>61.0</ele>
        <time>2020-01-18T09:16:09.151Z</time>
      </trkpt>
      <trkpt lat="37.26373333" lon="-7.09157833">
        <ele>61.0</ele>
        <time>2020-01-18T09:16:10.134Z</time>
      </trkpt>
      <trkpt lat="37.26373333" lon="-7.09157833">
        <ele>61.0</ele>
        <time>2020-01-18T09:16:11.142Z</time>
      </trkpt>
      <trkpt lat="37.26383333" lon="-7.09159667">
        <ele>61.0</ele>
        <time>2020-01-18T09:16:12.138Z</time>
      </trkpt>
      <trkpt lat="37.26383333" lon="-7.09159667">
        <ele>61.0</ele>
        <time>2020-01-18T09:16:13.146Z</time>
      </trkpt>
      <trkpt lat="37.26396" lon="-7.09160667">
        <ele>62.0</ele>
        <time>2020-01-18T09:16:14.160Z</time>
      </trkpt>
      <trkpt lat="37.26396" lon="-7.09160667">
        <ele>62.0</ele>
        <time>2020-01-18T09:16:15.142Z</time>
      </trkpt>
      <trkpt lat="37.26409333" lon="-7.091595">
        <ele>63.0</ele>
        <time>2020-01-18T09:16:16.162Z</time>
      </trkpt>
      <trkpt lat="37.26414833" lon="-7.09158167">
        <ele>63.0</ele>
        <time>2020-01-18T09:16:17.135Z</time>
      </trkpt>
      <trkpt lat="37.26420167" lon="-7.09157">
        <ele>62.0</ele>
        <time>2020-01-18T09:16:18.146Z</time>
      </trkpt>
      <trkpt lat="37.26420167" lon="-7.09157">
        <ele>62.0</ele>
        <time>2020-01-18T09:16:19.129Z</time>
      </trkpt>
      <trkpt lat="37.26430667" lon="-7.09153833">
        <ele>63.0</ele>
        <time>2020-01-18T09:16:20.144Z</time>
      </trkpt>
      <trkpt lat="37.26430667" lon="-7.09153833">
        <ele>63.0</ele>
        <time>2020-01-18T09:16:21.157Z</time>
      </trkpt>
      <trkpt lat="37.264405" lon="-7.091505">
        <ele>63.0</ele>
        <time>2020-01-18T09:16:22.250Z</time>
      </trkpt>
      <trkpt lat="37.26445333" lon="-7.09149167">
        <ele>63.0</ele>
        <time>2020-01-18T09:16:23.133Z</time>
      </trkpt>
      <trkpt lat="37.26445333" lon="-7.09149167">
        <ele>63.0</ele>
        <time>2020-01-18T09:16:24.155Z</time>
      </trkpt>
      <trkpt lat="37.264545" lon="-7.091475">
        <ele>64.0</ele>
        <time>2020-01-18T09:16:25.139Z</time>
      </trkpt>
      <trkpt lat="37.264545" lon="-7.091475">
        <ele>64.0</ele>
        <time>2020-01-18T09:16:26.168Z</time>
      </trkpt>
      <trkpt lat="37.26464333" lon="-7.091475">
        <ele>64.0</ele>
        <time>2020-01-18T09:16:27.155Z</time>
      </trkpt>
      <trkpt lat="37.26464333" lon="-7.091475">
        <ele>64.0</ele>
        <time>2020-01-18T09:16:28.137Z</time>
      </trkpt>
      <trkpt lat="37.26474167" lon="-7.09148833">
        <ele>64.0</ele>
        <time>2020-01-18T09:16:29.148Z</time>
      </trkpt>
      <trkpt lat="37.26474167" lon="-7.09148833">
        <ele>64.0</ele>
        <time>2020-01-18T09:16:30.133Z</time>
      </trkpt>
      <trkpt lat="37.26484" lon="-7.09152">
        <ele>65.0</ele>
        <time>2020-01-18T09:16:31.168Z</time>
      </trkpt>
      <trkpt lat="37.26484" lon="-7.09152">
        <ele>65.0</ele>
        <time>2020-01-18T09:16:32.136Z</time>
      </trkpt>
      <trkpt lat="37.264935" lon="-7.09153833">
        <ele>66.0</ele>
        <time>2020-01-18T09:16:33.159Z</time>
      </trkpt>
      <trkpt lat="37.26498333" lon="-7.091535">
        <ele>67.0</ele>
        <time>2020-01-18T09:16:34.163Z</time>
      </trkpt>
      <trkpt lat="37.26502833" lon="-7.09152667">
        <ele>67.0</ele>
        <time>2020-01-18T09:16:35.135Z</time>
      </trkpt>
      <trkpt lat="37.26502833" lon="-7.09152667">
        <ele>67.0</ele>
        <time>2020-01-18T09:16:36.138Z</time>
      </trkpt>
      <trkpt lat="37.265125" lon="-7.09151333">
        <ele>66.0</ele>
        <time>2020-01-18T09:16:37.151Z</time>
      </trkpt>
      <trkpt lat="37.26516833" lon="-7.09151333">
        <ele>66.0</ele>
        <time>2020-01-18T09:16:38.153Z</time>
      </trkpt>
      <trkpt lat="37.265215" lon="-7.091515">
        <ele>67.0</ele>
        <time>2020-01-18T09:16:39.142Z</time>
      </trkpt>
      <trkpt lat="37.265215" lon="-7.091515">
        <ele>67.0</ele>
        <time>2020-01-18T09:16:40.164Z</time>
      </trkpt>
      <trkpt lat="37.26531333" lon="-7.09149333">
        <ele>64.0</ele>
        <time>2020-01-18T09:16:41.164Z</time>
      </trkpt>
      <trkpt lat="37.26536167" lon="-7.09148">
        <ele>64.0</ele>
        <time>2020-01-18T09:16:42.151Z</time>
      </trkpt>
      <trkpt lat="37.26536167" lon="-7.09148">
        <ele>64.0</ele>
        <time>2020-01-18T09:16:43.140Z</time>
      </trkpt>
      <trkpt lat="37.26544833" lon="-7.091445">
        <ele>64.0</ele>
        <time>2020-01-18T09:16:44.156Z</time>
      </trkpt>
      <trkpt lat="37.26544833" lon="-7.091445">
        <ele>64.0</ele>
        <time>2020-01-18T09:16:45.141Z</time>
      </trkpt>
      <trkpt lat="37.26553333" lon="-7.09142167">
        <ele>64.0</ele>
        <time>2020-01-18T09:16:46.159Z</time>
      </trkpt>
      <trkpt lat="37.26553333" lon="-7.09142167">
        <ele>64.0</ele>
        <time>2020-01-18T09:16:47.154Z</time>
      </trkpt>
      <trkpt lat="37.26562333" lon="-7.09140667">
        <ele>63.0</ele>
        <time>2020-01-18T09:16:48.132Z</time>
      </trkpt>
      <trkpt lat="37.26562333" lon="-7.09140667">
        <ele>63.0</ele>
        <time>2020-01-18T09:16:49.157Z</time>
      </trkpt>
      <trkpt lat="37.26572167" lon="-7.09139667">
        <ele>62.0</ele>
        <time>2020-01-18T09:16:50.134Z</time>
      </trkpt>
      <trkpt lat="37.26576333" lon="-7.09139">
        <ele>62.0</ele>
        <time>2020-01-18T09:16:51.147Z</time>
      </trkpt>
      <trkpt lat="37.26576333" lon="-7.09139">
        <ele>62.0</ele>
        <time>2020-01-18T09:16:52.162Z</time>
      </trkpt>
      <trkpt lat="37.265865" lon="-7.09138667">
        <ele>61.0</ele>
        <time>2020-01-18T09:16:53.150Z</time>
      </trkpt>
      <trkpt lat="37.265865" lon="-7.09138667">
        <ele>61.0</ele>
        <time>2020-01-18T09:16:54.166Z</time>
      </trkpt>
      <trkpt lat="37.265965" lon="-7.09137833">
        <ele>61.0</ele>
        <time>2020-01-18T09:16:55.135Z</time>
      </trkpt>
      <trkpt lat="37.265965" lon="-7.09137833">
        <ele>61.0</ele>
        <time>2020-01-18T09:16:56.135Z</time>
      </trkpt>
      <trkpt lat="37.26607" lon="-7.09138333">
        <ele>61.0</ele>
        <time>2020-01-18T09:16:57.152Z</time>
      </trkpt>
      <trkpt lat="37.26611833" lon="-7.09138333">
        <ele>61.0</ele>
        <time>2020-01-18T09:16:58.146Z</time>
      </trkpt>
      <trkpt lat="37.26611833" lon="-7.09138333">
        <ele>61.0</ele>
        <time>2020-01-18T09:16:59.136Z</time>
      </trkpt>
      <trkpt lat="37.26621333" lon="-7.09137667">
        <ele>60.0</ele>
        <time>2020-01-18T09:17:00.145Z</time>
      </trkpt>
      <trkpt lat="37.26621333" lon="-7.09137667">
        <ele>60.0</ele>
        <time>2020-01-18T09:17:01.155Z</time>
      </trkpt>
      <trkpt lat="37.26630833" lon="-7.09137167">
        <ele>62.0</ele>
        <time>2020-01-18T09:17:02.164Z</time>
      </trkpt>
      <trkpt lat="37.26630833" lon="-7.09137167">
        <ele>62.0</ele>
        <time>2020-01-18T09:17:03.154Z</time>
      </trkpt>
      <trkpt lat="37.26640333" lon="-7.09137667">
        <ele>62.0</ele>
        <time>2020-01-18T09:17:04.163Z</time>
      </trkpt>
      <trkpt lat="37.26640333" lon="-7.09137667">
        <ele>62.0</ele>
        <time>2020-01-18T09:17:05.166Z</time>
      </trkpt>
      <trkpt lat="37.26649333" lon="-7.09137833">
        <ele>62.0</ele>
        <time>2020-01-18T09:17:06.152Z</time>
      </trkpt>
      <trkpt lat="37.26649333" lon="-7.09137833">
        <ele>62.0</ele>
        <time>2020-01-18T09:17:07.155Z</time>
      </trkpt>
      <trkpt lat="37.266585" lon="-7.09137833">
        <ele>62.0</ele>
        <time>2020-01-18T09:17:08.170Z</time>
      </trkpt>
      <trkpt lat="37.26663" lon="-7.09139">
        <ele>62.0</ele>
        <time>2020-01-18T09:17:09.159Z</time>
      </trkpt>
      <trkpt lat="37.26663" lon="-7.09139">
        <ele>62.0</ele>
        <time>2020-01-18T09:17:10.136Z</time>
      </trkpt>
      <trkpt lat="37.26672333" lon="-7.09140333">
        <ele>63.0</ele>
        <time>2020-01-18T09:17:11.165Z</time>
      </trkpt>
      <trkpt lat="37.26677167" lon="-7.09141">
        <ele>63.0</ele>
        <time>2020-01-18T09:17:12.152Z</time>
      </trkpt>
      <trkpt lat="37.26677167" lon="-7.09141">
        <ele>63.0</ele>
        <time>2020-01-18T09:17:13.166Z</time>
      </trkpt>
      <trkpt lat="37.266875" lon="-7.09142833">
        <ele>63.0</ele>
        <time>2020-01-18T09:17:14.144Z</time>
      </trkpt>
      <trkpt lat="37.266875" lon="-7.09142833">
        <ele>63.0</ele>
        <time>2020-01-18T09:17:15.133Z</time>
      </trkpt>
      <trkpt lat="37.26697667" lon="-7.09140333">
        <ele>64.0</ele>
        <time>2020-01-18T09:17:16.161Z</time>
      </trkpt>
      <trkpt lat="37.26702333" lon="-7.091385">
        <ele>63.0</ele>
        <time>2020-01-18T09:17:17.164Z</time>
      </trkpt>
      <trkpt lat="37.26707167" lon="-7.09136833">
        <ele>63.0</ele>
        <time>2020-01-18T09:17:18.155Z</time>
      </trkpt>
      <trkpt lat="37.26707167" lon="-7.09136833">
        <ele>63.0</ele>
        <time>2020-01-18T09:17:19.162Z</time>
      </trkpt>
      <trkpt lat="37.26717333" lon="-7.09134333">
        <ele>64.0</ele>
        <time>2020-01-18T09:17:20.162Z</time>
      </trkpt>
      <trkpt lat="37.26717333" lon="-7.09134333">
        <ele>64.0</ele>
        <time>2020-01-18T09:17:21.162Z</time>
      </trkpt>
      <trkpt lat="37.26726833" lon="-7.091315">
        <ele>64.0</ele>
        <time>2020-01-18T09:17:22.156Z</time>
      </trkpt>
      <trkpt lat="37.26726833" lon="-7.091315">
        <ele>64.0</ele>
        <time>2020-01-18T09:17:23.131Z</time>
      </trkpt>
      <trkpt lat="37.26736667" lon="-7.09128667">
        <ele>64.0</ele>
        <time>2020-01-18T09:17:24.146Z</time>
      </trkpt>
      <trkpt lat="37.26736667" lon="-7.09128667">
        <ele>64.0</ele>
        <time>2020-01-18T09:17:25.130Z</time>
      </trkpt>
      <trkpt lat="37.26747" lon="-7.09126833">
        <ele>63.0</ele>
        <time>2020-01-18T09:17:26.140Z</time>
      </trkpt>
      <trkpt lat="37.26752167" lon="-7.09126333">
        <ele>64.0</ele>
        <time>2020-01-18T09:17:27.168Z</time>
      </trkpt>
      <trkpt lat="37.26752167" lon="-7.09126333">
        <ele>64.0</ele>
        <time>2020-01-18T09:17:28.157Z</time>
      </trkpt>
      <trkpt lat="37.26762333" lon="-7.09127333">
        <ele>63.0</ele>
        <time>2020-01-18T09:17:29.170Z</time>
      </trkpt>
      <trkpt lat="37.26766167" lon="-7.09128">
        <ele>63.0</ele>
        <time>2020-01-18T09:17:30.170Z</time>
      </trkpt>
      <trkpt lat="37.26766167" lon="-7.09128">
        <ele>63.0</ele>
        <time>2020-01-18T09:17:31.149Z</time>
      </trkpt>
      <trkpt lat="37.26775667" lon="-7.09130833">
        <ele>63.0</ele>
        <time>2020-01-18T09:17:32.129Z</time>
      </trkpt>
      <trkpt lat="37.26775667" lon="-7.09130833">
        <ele>63.0</ele>
        <time>2020-01-18T09:17:33.152Z</time>
      </trkpt>
      <trkpt lat="37.26785167" lon="-7.09134">
        <ele>63.0</ele>
        <time>2020-01-18T09:17:34.165Z</time>
      </trkpt>
      <trkpt lat="37.26785167" lon="-7.09134">
        <ele>63.0</ele>
        <time>2020-01-18T09:17:35.133Z</time>
      </trkpt>
      <trkpt lat="37.26794667" lon="-7.09135167">
        <ele>64.0</ele>
        <time>2020-01-18T09:17:36.130Z</time>
      </trkpt>
      <trkpt lat="37.26794667" lon="-7.09135167">
        <ele>64.0</ele>
        <time>2020-01-18T09:17:37.139Z</time>
      </trkpt>
      <trkpt lat="37.26803833" lon="-7.09136167">
        <ele>66.0</ele>
        <time>2020-01-18T09:17:38.149Z</time>
      </trkpt>
      <trkpt lat="37.26808167" lon="-7.09136">
        <ele>66.0</ele>
        <time>2020-01-18T09:17:39.132Z</time>
      </trkpt>
      <trkpt lat="37.26808167" lon="-7.09136">
        <ele>66.0</ele>
        <time>2020-01-18T09:17:40.151Z</time>
      </trkpt>
      <trkpt lat="37.26816" lon="-7.09135833">
        <ele>66.0</ele>
        <time>2020-01-18T09:17:41.164Z</time>
      </trkpt>
      <trkpt lat="37.26820167" lon="-7.09137333">
        <ele>68.0</ele>
        <time>2020-01-18T09:17:42.139Z</time>
      </trkpt>
      <trkpt lat="37.26824333" lon="-7.091385">
        <ele>68.0</ele>
        <time>2020-01-18T09:17:43.145Z</time>
      </trkpt>
      <trkpt lat="37.26824333" lon="-7.091385">
        <ele>68.0</ele>
        <time>2020-01-18T09:17:44.140Z</time>
      </trkpt>
      <trkpt lat="37.26832" lon="-7.09140333">
        <ele>68.0</ele>
        <time>2020-01-18T09:17:45.152Z</time>
      </trkpt>
      <trkpt lat="37.26832" lon="-7.09140333">
        <ele>68.0</ele>
        <time>2020-01-18T09:17:46.132Z</time>
      </trkpt>
      <trkpt lat="37.268375" lon="-7.09142333">
        <ele>68.0</ele>
        <time>2020-01-18T09:17:47.140Z</time>
      </trkpt>
      <trkpt lat="37.268405" lon="-7.09142833">
        <ele>68.0</ele>
        <time>2020-01-18T09:17:48.181Z</time>
      </trkpt>
      <trkpt lat="37.268405" lon="-7.09142833">
        <ele>68.0</ele>
        <time>2020-01-18T09:17:49.136Z</time>
      </trkpt>
      <trkpt lat="37.26845667" lon="-7.091445">
        <ele>69.0</ele>
        <time>2020-01-18T09:17:50.143Z</time>
      </trkpt>
      <trkpt lat="37.26847833" lon="-7.09144667">
        <ele>69.0</ele>
        <time>2020-01-18T09:17:51.163Z</time>
      </trkpt>
      <trkpt lat="37.26847833" lon="-7.09144667">
        <ele>69.0</ele>
        <time>2020-01-18T09:17:52.134Z</time>
      </trkpt>
      <trkpt lat="37.26849" lon="-7.091445">
        <ele>68.0</ele>
        <time>2020-01-18T09:17:53.144Z</time>
      </trkpt>
      <trkpt lat="37.26849" lon="-7.091445">
        <ele>68.0</ele>
        <time>2020-01-18T09:17:54.155Z</time>
      </trkpt>
      <trkpt lat="37.26849167" lon="-7.09144">
        <ele>67.0</ele>
        <time>2020-01-18T09:17:55.164Z</time>
      </trkpt>
      <trkpt lat="37.26849167" lon="-7.09144">
        <ele>67.0</ele>
        <time>2020-01-18T09:17:56.157Z</time>
      </trkpt>
      <trkpt lat="37.26837333" lon="-7.091365">
        <ele>65.0</ele>
        <time>2020-01-18T09:17:57.139Z</time>
      </trkpt>
      <trkpt lat="37.26834667" lon="-7.09135833">
        <ele>65.0</ele>
        <time>2020-01-18T09:17:58.143Z</time>
      </trkpt>
      <trkpt lat="37.26834667" lon="-7.09135833">
        <ele>65.0</ele>
        <time>2020-01-18T09:17:59.156Z</time>
      </trkpt>
      <trkpt lat="37.26828833" lon="-7.09134167">
        <ele>66.0</ele>
        <time>2020-01-18T09:18:00.135Z</time>
      </trkpt>
      <trkpt lat="37.26828833" lon="-7.09134167">
        <ele>66.0</ele>
        <time>2020-01-18T09:18:01.141Z</time>
      </trkpt>
      <trkpt lat="37.268225" lon="-7.09132333">
        <ele>66.0</ele>
        <time>2020-01-18T09:18:02.154Z</time>
      </trkpt>
      <trkpt lat="37.268225" lon="-7.09132333">
        <ele>66.0</ele>
        <time>2020-01-18T09:18:03.159Z</time>
      </trkpt>
      <trkpt lat="37.268165" lon="-7.09131167">
        <ele>65.0</ele>
        <time>2020-01-18T09:18:04.146Z</time>
      </trkpt>
      <trkpt lat="37.268165" lon="-7.09131167">
        <ele>65.0</ele>
        <time>2020-01-18T09:18:05.151Z</time>
      </trkpt>
      <trkpt lat="37.26811167" lon="-7.09131">
        <ele>65.0</ele>
        <time>2020-01-18T09:18:06.159Z</time>
      </trkpt>
      <trkpt lat="37.26809" lon="-7.091315">
        <ele>65.0</ele>
        <time>2020-01-18T09:18:07.155Z</time>
      </trkpt>
      <trkpt lat="37.26807333" lon="-7.09133">
        <ele>65.0</ele>
        <time>2020-01-18T09:18:08.166Z</time>
      </trkpt>
      <trkpt lat="37.26807333" lon="-7.09133">
        <ele>65.0</ele>
        <time>2020-01-18T09:18:09.132Z</time>
      </trkpt>
      <trkpt lat="37.26806667" lon="-7.091375">
        <ele>64.0</ele>
        <time>2020-01-18T09:18:10.148Z</time>
      </trkpt>
      <trkpt lat="37.26806667" lon="-7.09140333">
        <ele>64.0</ele>
        <time>2020-01-18T09:18:11.155Z</time>
      </trkpt>
      <trkpt lat="37.26806667" lon="-7.09140333">
        <ele>64.0</ele>
        <time>2020-01-18T09:18:12.160Z</time>
      </trkpt>
      <trkpt lat="37.26808333" lon="-7.091445">
        <ele>64.0</ele>
        <time>2020-01-18T09:18:13.167Z</time>
      </trkpt>
      <trkpt lat="37.26808833" lon="-7.09146333">
        <ele>63.0</ele>
        <time>2020-01-18T09:18:14.133Z</time>
      </trkpt>
      <trkpt lat="37.26808833" lon="-7.09146333">
        <ele>63.0</ele>
        <time>2020-01-18T09:18:15.139Z</time>
      </trkpt>
      <trkpt lat="37.26809667" lon="-7.09150333">
        <ele>63.0</ele>
        <time>2020-01-18T09:18:16.157Z</time>
      </trkpt>
      <trkpt lat="37.26810333" lon="-7.09152667">
        <ele>63.0</ele>
        <time>2020-01-18T09:18:17.134Z</time>
      </trkpt>
      <trkpt lat="37.26811167" lon="-7.09155333">
        <ele>63.0</ele>
        <time>2020-01-18T09:18:18.133Z</time>
      </trkpt>
      <trkpt lat="37.26811167" lon="-7.09155333">
        <ele>63.0</ele>
        <time>2020-01-18T09:18:19.138Z</time>
      </trkpt>
      <trkpt lat="37.26812833" lon="-7.09159667">
        <ele>63.0</ele>
        <time>2020-01-18T09:18:20.157Z</time>
      </trkpt>
      <trkpt lat="37.26812833" lon="-7.09159667">
        <ele>63.0</ele>
        <time>2020-01-18T09:18:21.130Z</time>
      </trkpt>
      <trkpt lat="37.26814667" lon="-7.09163">
        <ele>63.0</ele>
        <time>2020-01-18T09:18:22.155Z</time>
      </trkpt>
      <trkpt lat="37.268155" lon="-7.09164833">
        <ele>63.0</ele>
        <time>2020-01-18T09:18:23.160Z</time>
      </trkpt>
      <trkpt lat="37.26816167" lon="-7.09167">
        <ele>63.0</ele>
        <time>2020-01-18T09:18:24.148Z</time>
      </trkpt>
      <trkpt lat="37.26816167" lon="-7.09167">
        <ele>63.0</ele>
        <time>2020-01-18T09:18:25.152Z</time>
      </trkpt>
      <trkpt lat="37.26817167" lon="-7.09169167">
        <ele>63.0</ele>
        <time>2020-01-18T09:18:26.138Z</time>
      </trkpt>
      <trkpt lat="37.26817167" lon="-7.09169167">
        <ele>63.0</ele>
        <time>2020-01-18T09:18:27.143Z</time>
      </trkpt>
      <trkpt lat="37.26818333" lon="-7.09169333">
        <ele>62.0</ele>
        <time>2020-01-18T09:18:28.140Z</time>
      </trkpt>
      <trkpt lat="37.26819" lon="-7.09170167">
        <ele>62.0</ele>
        <time>2020-01-18T09:18:29.156Z</time>
      </trkpt>
      <trkpt lat="37.268195" lon="-7.09170333">
        <ele>62.0</ele>
        <time>2020-01-18T09:18:30.141Z</time>
      </trkpt>
      <trkpt lat="37.268195" lon="-7.09170333">
        <ele>62.0</ele>
        <time>2020-01-18T09:18:31.156Z</time>
      </trkpt>
      <trkpt lat="37.268205" lon="-7.091715">
        <ele>62.0</ele>
        <time>2020-01-18T09:18:32.156Z</time>
      </trkpt>
      <trkpt lat="37.268205" lon="-7.091715">
        <ele>62.0</ele>
        <time>2020-01-18T09:18:33.129Z</time>
      </trkpt>
      <trkpt lat="37.26821167" lon="-7.091725">
        <ele>63.0</ele>
        <time>2020-01-18T09:18:34.134Z</time>
      </trkpt>
      <trkpt lat="37.26821167" lon="-7.091725">
        <ele>63.0</ele>
        <time>2020-01-18T09:18:35.139Z</time>
      </trkpt>
      <trkpt lat="37.26821833" lon="-7.09173833">
        <ele>63.0</ele>
        <time>2020-01-18T09:18:36.146Z</time>
      </trkpt>
      <trkpt lat="37.26848333" lon="-7.09184667">
        <ele>65.0</ele>
        <time>2020-01-18T09:18:37.133Z</time>
      </trkpt>
      <trkpt lat="37.26848333" lon="-7.09184667">
        <ele>65.0</ele>
        <time>2020-01-18T09:18:38.129Z</time>
      </trkpt>
      <trkpt lat="37.26852833" lon="-7.09188333">
        <ele>65.0</ele>
        <time>2020-01-18T09:18:39.144Z</time>
      </trkpt>
      <trkpt lat="37.26852833" lon="-7.09188333">
        <ele>65.0</ele>
        <time>2020-01-18T09:18:40.153Z</time>
      </trkpt>
      <trkpt lat="37.268575" lon="-7.091915">
        <ele>65.0</ele>
        <time>2020-01-18T09:18:41.130Z</time>
      </trkpt>
      <trkpt lat="37.26860167" lon="-7.091915">
        <ele>66.0</ele>
        <time>2020-01-18T09:18:42.145Z</time>
      </trkpt>
      <trkpt lat="37.26860167" lon="-7.091915">
        <ele>66.0</ele>
        <time>2020-01-18T09:18:43.137Z</time>
      </trkpt>
      <trkpt lat="37.26865333" lon="-7.09193667">
        <ele>66.0</ele>
        <time>2020-01-18T09:18:44.147Z</time>
      </trkpt>
      <trkpt lat="37.268675" lon="-7.091965">
        <ele>66.0</ele>
        <time>2020-01-18T09:18:45.155Z</time>
      </trkpt>
      <trkpt lat="37.26868833" lon="-7.09200333">
        <ele>66.0</ele>
        <time>2020-01-18T09:18:46.167Z</time>
      </trkpt>
      <trkpt lat="37.26868833" lon="-7.09200333">
        <ele>66.0</ele>
        <time>2020-01-18T09:18:47.166Z</time>
      </trkpt>
      <trkpt lat="37.26866" lon="-7.092055">
        <ele>66.0</ele>
        <time>2020-01-18T09:18:48.243Z</time>
      </trkpt>
      <trkpt lat="37.26864333" lon="-7.09207333">
        <ele>66.0</ele>
        <time>2020-01-18T09:18:49.154Z</time>
      </trkpt>
      <trkpt lat="37.26864333" lon="-7.09207333">
        <ele>66.0</ele>
        <time>2020-01-18T09:18:50.165Z</time>
      </trkpt>
      <trkpt lat="37.26861" lon="-7.09211333">
        <ele>66.0</ele>
        <time>2020-01-18T09:18:51.133Z</time>
      </trkpt>
      <trkpt lat="37.26861" lon="-7.09211333">
        <ele>66.0</ele>
        <time>2020-01-18T09:18:52.141Z</time>
      </trkpt>
      <trkpt lat="37.26858333" lon="-7.09216833">
        <ele>67.0</ele>
        <time>2020-01-18T09:18:53.152Z</time>
      </trkpt>
      <trkpt lat="37.26856833" lon="-7.092195">
        <ele>67.0</ele>
        <time>2020-01-18T09:18:54.134Z</time>
      </trkpt>
      <trkpt lat="37.26856833" lon="-7.092195">
        <ele>67.0</ele>
        <time>2020-01-18T09:18:55.136Z</time>
      </trkpt>
      <trkpt lat="37.26856833" lon="-7.092255">
        <ele>67.0</ele>
        <time>2020-01-18T09:18:56.160Z</time>
      </trkpt>
      <trkpt lat="37.26858" lon="-7.092285">
        <ele>67.0</ele>
        <time>2020-01-18T09:18:57.151Z</time>
      </trkpt>
      <trkpt lat="37.26858" lon="-7.092285">
        <ele>67.0</ele>
        <time>2020-01-18T09:18:58.140Z</time>
      </trkpt>
      <trkpt lat="37.26860667" lon="-7.09235167">
        <ele>68.0</ele>
        <time>2020-01-18T09:18:59.153Z</time>
      </trkpt>
      <trkpt lat="37.26860667" lon="-7.09235167">
        <ele>68.0</ele>
        <time>2020-01-18T09:19:00.145Z</time>
      </trkpt>
      <trkpt lat="37.268655" lon="-7.09240833">
        <ele>68.0</ele>
        <time>2020-01-18T09:19:01.154Z</time>
      </trkpt>
      <trkpt lat="37.268685" lon="-7.09243833">
        <ele>68.0</ele>
        <time>2020-01-18T09:19:02.134Z</time>
      </trkpt>
      <trkpt lat="37.26872" lon="-7.09244333">
        <ele>68.0</ele>
        <time>2020-01-18T09:19:03.151Z</time>
      </trkpt>
      <trkpt lat="37.26872" lon="-7.09244333">
        <ele>68.0</ele>
        <time>2020-01-18T09:19:04.134Z</time>
      </trkpt>
      <trkpt lat="37.26878833" lon="-7.09246167">
        <ele>69.0</ele>
        <time>2020-01-18T09:19:05.143Z</time>
      </trkpt>
      <trkpt lat="37.26878833" lon="-7.09246167">
        <ele>69.0</ele>
        <time>2020-01-18T09:19:06.141Z</time>
      </trkpt>
      <trkpt lat="37.268825" lon="-7.09253667">
        <ele>69.0</ele>
        <time>2020-01-18T09:19:07.153Z</time>
      </trkpt>
      <trkpt lat="37.26883333" lon="-7.09256833">
        <ele>69.0</ele>
        <time>2020-01-18T09:19:08.143Z</time>
      </trkpt>
      <trkpt lat="37.26883333" lon="-7.09256833">
        <ele>69.0</ele>
        <time>2020-01-18T09:19:09.144Z</time>
      </trkpt>
      <trkpt lat="37.268875" lon="-7.092645">
        <ele>69.0</ele>
        <time>2020-01-18T09:19:10.155Z</time>
      </trkpt>
      <trkpt lat="37.268875" lon="-7.092645">
        <ele>69.0</ele>
        <time>2020-01-18T09:19:11.154Z</time>
      </trkpt>
      <trkpt lat="37.26892333" lon="-7.09269667">
        <ele>69.0</ele>
        <time>2020-01-18T09:19:12.131Z</time>
      </trkpt>
      <trkpt lat="37.26892333" lon="-7.09269667">
        <ele>69.0</ele>
        <time>2020-01-18T09:19:13.129Z</time>
      </trkpt>
      <trkpt lat="37.26895167" lon="-7.09276833">
        <ele>70.0</ele>
        <time>2020-01-18T09:19:14.147Z</time>
      </trkpt>
      <trkpt lat="37.26895167" lon="-7.09276833">
        <ele>70.0</ele>
        <time>2020-01-18T09:19:15.151Z</time>
      </trkpt>
      <trkpt lat="37.26900333" lon="-7.09283167">
        <ele>70.0</ele>
        <time>2020-01-18T09:19:16.137Z</time>
      </trkpt>
      <trkpt lat="37.26900333" lon="-7.09283167">
        <ele>70.0</ele>
        <time>2020-01-18T09:19:17.149Z</time>
      </trkpt>
      <trkpt lat="37.26907667" lon="-7.092845">
        <ele>70.0</ele>
        <time>2020-01-18T09:19:18.172Z</time>
      </trkpt>
      <trkpt lat="37.26907667" lon="-7.092845">
        <ele>70.0</ele>
        <time>2020-01-18T09:19:19.129Z</time>
      </trkpt>
      <trkpt lat="37.26916667" lon="-7.09283333">
        <ele>71.0</ele>
        <time>2020-01-18T09:19:20.144Z</time>
      </trkpt>
      <trkpt lat="37.26916667" lon="-7.09283333">
        <ele>71.0</ele>
        <time>2020-01-18T09:19:21.145Z</time>
      </trkpt>
      <trkpt lat="37.26924667" lon="-7.09282667">
        <ele>71.0</ele>
        <time>2020-01-18T09:19:22.159Z</time>
      </trkpt>
      <trkpt lat="37.26924667" lon="-7.09282667">
        <ele>71.0</ele>
        <time>2020-01-18T09:19:23.161Z</time>
      </trkpt>
      <trkpt lat="37.26933167" lon="-7.09279833">
        <ele>70.0</ele>
        <time>2020-01-18T09:19:24.132Z</time>
      </trkpt>
      <trkpt lat="37.26936667" lon="-7.092765">
        <ele>70.0</ele>
        <time>2020-01-18T09:19:25.140Z</time>
      </trkpt>
      <trkpt lat="37.26936667" lon="-7.092765">
        <ele>70.0</ele>
        <time>2020-01-18T09:19:26.134Z</time>
      </trkpt>
      <trkpt lat="37.26941333" lon="-7.09269">
        <ele>70.0</ele>
        <time>2020-01-18T09:19:27.141Z</time>
      </trkpt>
      <trkpt lat="37.26941333" lon="-7.09269">
        <ele>70.0</ele>
        <time>2020-01-18T09:19:28.168Z</time>
      </trkpt>
      <trkpt lat="37.26947" lon="-7.09262833">
        <ele>69.0</ele>
        <time>2020-01-18T09:19:29.151Z</time>
      </trkpt>
      <trkpt lat="37.26949667" lon="-7.09259667">
        <ele>69.0</ele>
        <time>2020-01-18T09:19:30.155Z</time>
      </trkpt>
      <trkpt lat="37.26949667" lon="-7.09259667">
        <ele>69.0</ele>
        <time>2020-01-18T09:19:31.137Z</time>
      </trkpt>
      <trkpt lat="37.269525" lon="-7.09251">
        <ele>69.0</ele>
        <time>2020-01-18T09:19:32.163Z</time>
      </trkpt>
      <trkpt lat="37.26953333" lon="-7.09245667">
        <ele>69.0</ele>
        <time>2020-01-18T09:19:33.161Z</time>
      </trkpt>
      <trkpt lat="37.26953333" lon="-7.09245667">
        <ele>69.0</ele>
        <time>2020-01-18T09:19:34.147Z</time>
      </trkpt>
      <trkpt lat="37.26956833" lon="-7.092385">
        <ele>68.0</ele>
        <time>2020-01-18T09:19:35.156Z</time>
      </trkpt>
      <trkpt lat="37.26956833" lon="-7.092385">
        <ele>68.0</ele>
        <time>2020-01-18T09:19:36.129Z</time>
      </trkpt>
      <trkpt lat="37.269615" lon="-7.09235667">
        <ele>68.0</ele>
        <time>2020-01-18T09:19:37.152Z</time>
      </trkpt>
      <trkpt lat="37.269615" lon="-7.09235667">
        <ele>68.0</ele>
        <time>2020-01-18T09:19:38.138Z</time>
      </trkpt>
      <trkpt lat="37.26966667" lon="-7.09235333">
        <ele>68.0</ele>
        <time>2020-01-18T09:19:39.154Z</time>
      </trkpt>
      <trkpt lat="37.26966667" lon="-7.09235333">
        <ele>68.0</ele>
        <time>2020-01-18T09:19:40.151Z</time>
      </trkpt>
      <trkpt lat="37.269725" lon="-7.092375">
        <ele>69.0</ele>
        <time>2020-01-18T09:19:41.171Z</time>
      </trkpt>
      <trkpt lat="37.26975167" lon="-7.09238333">
        <ele>69.0</ele>
        <time>2020-01-18T09:19:42.150Z</time>
      </trkpt>
      <trkpt lat="37.26975167" lon="-7.09238333">
        <ele>69.0</ele>
        <time>2020-01-18T09:19:43.144Z</time>
      </trkpt>
      <trkpt lat="37.26981333" lon="-7.09241667">
        <ele>69.0</ele>
        <time>2020-01-18T09:19:44.159Z</time>
      </trkpt>
      <trkpt lat="37.269845" lon="-7.09244833">
        <ele>69.0</ele>
        <time>2020-01-18T09:19:45.149Z</time>
      </trkpt>
      <trkpt lat="37.269845" lon="-7.09244833">
        <ele>69.0</ele>
        <time>2020-01-18T09:19:46.144Z</time>
      </trkpt>
      <trkpt lat="37.26987833" lon="-7.09252833">
        <ele>69.0</ele>
        <time>2020-01-18T09:19:47.151Z</time>
      </trkpt>
      <trkpt lat="37.26987833" lon="-7.09252833">
        <ele>69.0</ele>
        <time>2020-01-18T09:19:48.153Z</time>
      </trkpt>
      <trkpt lat="37.26992333" lon="-7.0926">
        <ele>69.0</ele>
        <time>2020-01-18T09:19:49.167Z</time>
      </trkpt>
      <trkpt lat="37.26992333" lon="-7.0926">
        <ele>69.0</ele>
        <time>2020-01-18T09:19:50.152Z</time>
      </trkpt>
      <trkpt lat="37.26999667" lon="-7.09268833">
        <ele>69.0</ele>
        <time>2020-01-18T09:19:51.162Z</time>
      </trkpt>
      <trkpt lat="37.26999667" lon="-7.09268833">
        <ele>69.0</ele>
        <time>2020-01-18T09:19:52.154Z</time>
      </trkpt>
      <trkpt lat="37.270055" lon="-7.09278833">
        <ele>68.0</ele>
        <time>2020-01-18T09:19:53.137Z</time>
      </trkpt>
      <trkpt lat="37.270055" lon="-7.09278833">
        <ele>68.0</ele>
        <time>2020-01-18T09:19:54.147Z</time>
      </trkpt>
      <trkpt lat="37.27012" lon="-7.09287">
        <ele>68.0</ele>
        <time>2020-01-18T09:19:55.161Z</time>
      </trkpt>
      <trkpt lat="37.27012" lon="-7.09287">
        <ele>68.0</ele>
        <time>2020-01-18T09:19:56.159Z</time>
      </trkpt>
      <trkpt lat="37.27017667" lon="-7.09293667">
        <ele>68.0</ele>
        <time>2020-01-18T09:19:57.141Z</time>
      </trkpt>
      <trkpt lat="37.27017667" lon="-7.09293667">
        <ele>68.0</ele>
        <time>2020-01-18T09:19:58.138Z</time>
      </trkpt>
      <trkpt lat="37.27018" lon="-7.09302667">
        <ele>68.0</ele>
        <time>2020-01-18T09:19:59.157Z</time>
      </trkpt>
      <trkpt lat="37.27018" lon="-7.09302667">
        <ele>68.0</ele>
        <time>2020-01-18T09:20:00.155Z</time>
      </trkpt>
      <trkpt lat="37.270155" lon="-7.09310667">
        <ele>68.0</ele>
        <time>2020-01-18T09:20:01.138Z</time>
      </trkpt>
      <trkpt lat="37.27014" lon="-7.09314167">
        <ele>68.0</ele>
        <time>2020-01-18T09:20:02.160Z</time>
      </trkpt>
      <trkpt lat="37.27011667" lon="-7.09317167">
        <ele>68.0</ele>
        <time>2020-01-18T09:20:03.157Z</time>
      </trkpt>
      <trkpt lat="37.27011667" lon="-7.09317167">
        <ele>68.0</ele>
        <time>2020-01-18T09:20:04.147Z</time>
      </trkpt>
      <trkpt lat="37.27007167" lon="-7.09324">
        <ele>69.0</ele>
        <time>2020-01-18T09:20:05.164Z</time>
      </trkpt>
      <trkpt lat="37.27005167" lon="-7.09327667">
        <ele>69.0</ele>
        <time>2020-01-18T09:20:06.165Z</time>
      </trkpt>
      <trkpt lat="37.27005167" lon="-7.09327667">
        <ele>69.0</ele>
        <time>2020-01-18T09:20:07.166Z</time>
      </trkpt>
      <trkpt lat="37.270045" lon="-7.09336333">
        <ele>69.0</ele>
        <time>2020-01-18T09:20:08.141Z</time>
      </trkpt>
      <trkpt lat="37.27004333" lon="-7.09340333">
        <ele>69.0</ele>
        <time>2020-01-18T09:20:09.142Z</time>
      </trkpt>
      <trkpt lat="37.27004333" lon="-7.09340333">
        <ele>69.0</ele>
        <time>2020-01-18T09:20:10.140Z</time>
      </trkpt>
      <trkpt lat="37.27003167" lon="-7.09348333">
        <ele>69.0</ele>
        <time>2020-01-18T09:20:11.153Z</time>
      </trkpt>
      <trkpt lat="37.270035" lon="-7.09352667">
        <ele>70.0</ele>
        <time>2020-01-18T09:20:12.148Z</time>
      </trkpt>
      <trkpt lat="37.270035" lon="-7.09352667">
        <ele>70.0</ele>
        <time>2020-01-18T09:20:13.136Z</time>
      </trkpt>
      <trkpt lat="37.27002667" lon="-7.093605">
        <ele>70.0</ele>
        <time>2020-01-18T09:20:14.150Z</time>
      </trkpt>
      <trkpt lat="37.270005" lon="-7.09363333">
        <ele>70.0</ele>
        <time>2020-01-18T09:20:15.152Z</time>
      </trkpt>
      <trkpt lat="37.269985" lon="-7.09364667">
        <ele>70.0</ele>
        <time>2020-01-18T09:20:16.152Z</time>
      </trkpt>
      <trkpt lat="37.269985" lon="-7.09364667">
        <ele>70.0</ele>
        <time>2020-01-18T09:20:17.138Z</time>
      </trkpt>
      <trkpt lat="37.26993333" lon="-7.093685">
        <ele>71.0</ele>
        <time>2020-01-18T09:20:18.148Z</time>
      </trkpt>
      <trkpt lat="37.26990667" lon="-7.09371667">
        <ele>71.0</ele>
        <time>2020-01-18T09:20:19.169Z</time>
      </trkpt>
      <trkpt lat="37.26987333" lon="-7.09374667">
        <ele>71.0</ele>
        <time>2020-01-18T09:20:20.149Z</time>
      </trkpt>
      <trkpt lat="37.26984333" lon="-7.09378333">
        <ele>71.0</ele>
        <time>2020-01-18T09:20:21.146Z</time>
      </trkpt>
      <trkpt lat="37.26984333" lon="-7.09378333">
        <ele>71.0</ele>
        <time>2020-01-18T09:20:22.133Z</time>
      </trkpt>
      <trkpt lat="37.269795" lon="-7.093855">
        <ele>71.0</ele>
        <time>2020-01-18T09:20:23.142Z</time>
      </trkpt>
      <trkpt lat="37.26976833" lon="-7.093885">
        <ele>71.0</ele>
        <time>2020-01-18T09:20:24.134Z</time>
      </trkpt>
      <trkpt lat="37.26976833" lon="-7.093885">
        <ele>71.0</ele>
        <time>2020-01-18T09:20:25.150Z</time>
      </trkpt>
      <trkpt lat="37.26969833" lon="-7.09392667">
        <ele>71.0</ele>
        <time>2020-01-18T09:20:26.166Z</time>
      </trkpt>
      <trkpt lat="37.26966167" lon="-7.09394167">
        <ele>72.0</ele>
        <time>2020-01-18T09:20:27.172Z</time>
      </trkpt>
      <trkpt lat="37.26966167" lon="-7.09394167">
        <ele>72.0</ele>
        <time>2020-01-18T09:20:28.137Z</time>
      </trkpt>
      <trkpt lat="37.26961" lon="-7.09399167">
        <ele>72.0</ele>
        <time>2020-01-18T09:20:29.151Z</time>
      </trkpt>
      <trkpt lat="37.26961" lon="-7.09399167">
        <ele>72.0</ele>
        <time>2020-01-18T09:20:30.149Z</time>
      </trkpt>
      <trkpt lat="37.269585" lon="-7.09405167">
        <ele>72.0</ele>
        <time>2020-01-18T09:20:31.154Z</time>
      </trkpt>
      <trkpt lat="37.26958" lon="-7.09408833">
        <ele>72.0</ele>
        <time>2020-01-18T09:20:32.158Z</time>
      </trkpt>
      <trkpt lat="37.269575" lon="-7.09412667">
        <ele>72.0</ele>
        <time>2020-01-18T09:20:33.140Z</time>
      </trkpt>
      <trkpt lat="37.269575" lon="-7.09412667">
        <ele>72.0</ele>
        <time>2020-01-18T09:20:34.155Z</time>
      </trkpt>
      <trkpt lat="37.269565" lon="-7.09420167">
        <ele>72.0</ele>
        <time>2020-01-18T09:20:35.143Z</time>
      </trkpt>
      <trkpt lat="37.26955167" lon="-7.09424">
        <ele>72.0</ele>
        <time>2020-01-18T09:20:36.133Z</time>
      </trkpt>
      <trkpt lat="37.26955167" lon="-7.09424">
        <ele>72.0</ele>
        <time>2020-01-18T09:20:37.138Z</time>
      </trkpt>
      <trkpt lat="37.269515" lon="-7.09435333">
        <ele>72.0</ele>
        <time>2020-01-18T09:20:38.146Z</time>
      </trkpt>
      <trkpt lat="37.26950167" lon="-7.09442833">
        <ele>72.0</ele>
        <time>2020-01-18T09:20:39.143Z</time>
      </trkpt>
      <trkpt lat="37.26950167" lon="-7.09442833">
        <ele>72.0</ele>
        <time>2020-01-18T09:20:40.131Z</time>
      </trkpt>
      <trkpt lat="37.26949" lon="-7.094585">
        <ele>72.0</ele>
        <time>2020-01-18T09:20:41.140Z</time>
      </trkpt>
      <trkpt lat="37.26949667" lon="-7.09465667">
        <ele>72.0</ele>
        <time>2020-01-18T09:20:42.129Z</time>
      </trkpt>
      <trkpt lat="37.26949667" lon="-7.09465667">
        <ele>72.0</ele>
        <time>2020-01-18T09:20:43.153Z</time>
      </trkpt>
      <trkpt lat="37.26952333" lon="-7.09478">
        <ele>72.0</ele>
        <time>2020-01-18T09:20:44.162Z</time>
      </trkpt>
      <trkpt lat="37.26953167" lon="-7.09483833">
        <ele>72.0</ele>
        <time>2020-01-18T09:20:45.134Z</time>
      </trkpt>
      <trkpt lat="37.26953167" lon="-7.09483833">
        <ele>72.0</ele>
        <time>2020-01-18T09:20:46.165Z</time>
      </trkpt>
      <trkpt lat="37.26952333" lon="-7.094935">
        <ele>71.0</ele>
        <time>2020-01-18T09:20:47.139Z</time>
      </trkpt>
      <trkpt lat="37.26952333" lon="-7.094935">
        <ele>71.0</ele>
        <time>2020-01-18T09:20:48.156Z</time>
      </trkpt>
      <trkpt lat="37.26953333" lon="-7.09502167">
        <ele>72.0</ele>
        <time>2020-01-18T09:20:49.174Z</time>
      </trkpt>
      <trkpt lat="37.26953333" lon="-7.09502167">
        <ele>72.0</ele>
        <time>2020-01-18T09:20:50.135Z</time>
      </trkpt>
      <trkpt lat="37.26955167" lon="-7.0951">
        <ele>72.0</ele>
        <time>2020-01-18T09:20:51.142Z</time>
      </trkpt>
      <trkpt lat="37.26955167" lon="-7.0951">
        <ele>72.0</ele>
        <time>2020-01-18T09:20:52.152Z</time>
      </trkpt>
      <trkpt lat="37.26956333" lon="-7.09518833">
        <ele>72.0</ele>
        <time>2020-01-18T09:20:53.175Z</time>
      </trkpt>
      <trkpt lat="37.26956333" lon="-7.09518833">
        <ele>72.0</ele>
        <time>2020-01-18T09:20:54.149Z</time>
      </trkpt>
      <trkpt lat="37.26957667" lon="-7.095295">
        <ele>71.0</ele>
        <time>2020-01-18T09:20:55.137Z</time>
      </trkpt>
      <trkpt lat="37.26957667" lon="-7.095295">
        <ele>71.0</ele>
        <time>2020-01-18T09:20:56.166Z</time>
      </trkpt>
      <trkpt lat="37.2696" lon="-7.095365">
        <ele>72.0</ele>
        <time>2020-01-18T09:20:57.136Z</time>
      </trkpt>
      <trkpt lat="37.2696" lon="-7.095365">
        <ele>72.0</ele>
        <time>2020-01-18T09:20:58.154Z</time>
      </trkpt>
      <trkpt lat="37.26963333" lon="-7.09540833">
        <ele>71.0</ele>
        <time>2020-01-18T09:20:59.131Z</time>
      </trkpt>
      <trkpt lat="37.26963333" lon="-7.09540833">
        <ele>71.0</ele>
        <time>2020-01-18T09:21:00.130Z</time>
      </trkpt>
      <trkpt lat="37.26967333" lon="-7.09544">
        <ele>71.0</ele>
        <time>2020-01-18T09:21:01.144Z</time>
      </trkpt>
      <trkpt lat="37.26967333" lon="-7.09544">
        <ele>71.0</ele>
        <time>2020-01-18T09:21:02.164Z</time>
      </trkpt>
      <trkpt lat="37.269725" lon="-7.09546167">
        <ele>72.0</ele>
        <time>2020-01-18T09:21:03.137Z</time>
      </trkpt>
      <trkpt lat="37.269725" lon="-7.09546167">
        <ele>72.0</ele>
        <time>2020-01-18T09:21:04.166Z</time>
      </trkpt>
      <trkpt lat="37.26978" lon="-7.09546333">
        <ele>72.0</ele>
        <time>2020-01-18T09:21:05.136Z</time>
      </trkpt>
      <trkpt lat="37.26980833" lon="-7.09545833">
        <ele>72.0</ele>
        <time>2020-01-18T09:21:06.131Z</time>
      </trkpt>
      <trkpt lat="37.26980833" lon="-7.09545833">
        <ele>72.0</ele>
        <time>2020-01-18T09:21:07.166Z</time>
      </trkpt>
      <trkpt lat="37.26986833" lon="-7.095445">
        <ele>73.0</ele>
        <time>2020-01-18T09:21:08.137Z</time>
      </trkpt>
      <trkpt lat="37.2699" lon="-7.095445">
        <ele>73.0</ele>
        <time>2020-01-18T09:21:09.160Z</time>
      </trkpt>
      <trkpt lat="37.2699" lon="-7.095445">
        <ele>73.0</ele>
        <time>2020-01-18T09:21:10.162Z</time>
      </trkpt>
      <trkpt lat="37.26995" lon="-7.09543">
        <ele>73.0</ele>
        <time>2020-01-18T09:21:11.147Z</time>
      </trkpt>
      <trkpt lat="37.26998" lon="-7.09541833">
        <ele>73.0</ele>
        <time>2020-01-18T09:21:12.146Z</time>
      </trkpt>
      <trkpt lat="37.26998" lon="-7.09541833">
        <ele>73.0</ele>
        <time>2020-01-18T09:21:13.129Z</time>
      </trkpt>
      <trkpt lat="37.270035" lon="-7.09541167">
        <ele>74.0</ele>
        <time>2020-01-18T09:21:14.140Z</time>
      </trkpt>
      <trkpt lat="37.270035" lon="-7.09541167">
        <ele>74.0</ele>
        <time>2020-01-18T09:21:15.167Z</time>
      </trkpt>
      <trkpt lat="37.27009333" lon="-7.09540833">
        <ele>74.0</ele>
        <time>2020-01-18T09:21:16.145Z</time>
      </trkpt>
      <trkpt lat="37.270125" lon="-7.09541">
        <ele>75.0</ele>
        <time>2020-01-18T09:21:17.142Z</time>
      </trkpt>
      <trkpt lat="37.270125" lon="-7.09541">
        <ele>75.0</ele>
        <time>2020-01-18T09:21:18.129Z</time>
      </trkpt>
      <trkpt lat="37.27018167" lon="-7.09542">
        <ele>75.0</ele>
        <time>2020-01-18T09:21:19.152Z</time>
      </trkpt>
      <trkpt lat="37.27021" lon="-7.09542167">
        <ele>75.0</ele>
        <time>2020-01-18T09:21:20.155Z</time>
      </trkpt>
      <trkpt lat="37.27024333" lon="-7.09543167">
        <ele>76.0</ele>
        <time>2020-01-18T09:21:21.142Z</time>
      </trkpt>
      <trkpt lat="37.27024333" lon="-7.09543167">
        <ele>76.0</ele>
        <time>2020-01-18T09:21:22.142Z</time>
      </trkpt>
      <trkpt lat="37.27031333" lon="-7.09543667">
        <ele>76.0</ele>
        <time>2020-01-18T09:21:23.158Z</time>
      </trkpt>
      <trkpt lat="37.27031333" lon="-7.09543667">
        <ele>76.0</ele>
        <time>2020-01-18T09:21:24.142Z</time>
      </trkpt>
      <trkpt lat="37.27037167" lon="-7.09542667">
        <ele>76.0</ele>
        <time>2020-01-18T09:21:25.165Z</time>
      </trkpt>
      <trkpt lat="37.27037167" lon="-7.09542667">
        <ele>76.0</ele>
        <time>2020-01-18T09:21:26.150Z</time>
      </trkpt>
      <trkpt lat="37.27043833" lon="-7.09542667">
        <ele>76.0</ele>
        <time>2020-01-18T09:21:27.162Z</time>
      </trkpt>
      <trkpt lat="37.27043833" lon="-7.09542667">
        <ele>76.0</ele>
        <time>2020-01-18T09:21:28.148Z</time>
      </trkpt>
      <trkpt lat="37.27050167" lon="-7.09544833">
        <ele>77.0</ele>
        <time>2020-01-18T09:21:29.163Z</time>
      </trkpt>
      <trkpt lat="37.27050167" lon="-7.09544833">
        <ele>77.0</ele>
        <time>2020-01-18T09:21:30.144Z</time>
      </trkpt>
      <trkpt lat="37.27054167" lon="-7.09551167">
        <ele>77.0</ele>
        <time>2020-01-18T09:21:31.153Z</time>
      </trkpt>
      <trkpt lat="37.27054167" lon="-7.09551167">
        <ele>77.0</ele>
        <time>2020-01-18T09:21:32.168Z</time>
      </trkpt>
      <trkpt lat="37.27054833" lon="-7.09558167">
        <ele>77.0</ele>
        <time>2020-01-18T09:21:33.136Z</time>
      </trkpt>
      <trkpt lat="37.27054833" lon="-7.09558167">
        <ele>77.0</ele>
        <time>2020-01-18T09:21:34.146Z</time>
      </trkpt>
      <trkpt lat="37.27052333" lon="-7.09563833">
        <ele>77.0</ele>
        <time>2020-01-18T09:21:35.161Z</time>
      </trkpt>
      <trkpt lat="37.27052333" lon="-7.09563833">
        <ele>77.0</ele>
        <time>2020-01-18T09:21:36.154Z</time>
      </trkpt>
      <trkpt lat="37.270475" lon="-7.09569833">
        <ele>77.0</ele>
        <time>2020-01-18T09:21:37.131Z</time>
      </trkpt>
      <trkpt lat="37.270475" lon="-7.09569833">
        <ele>77.0</ele>
        <time>2020-01-18T09:21:38.166Z</time>
      </trkpt>
      <trkpt lat="37.27042667" lon="-7.09577">
        <ele>76.0</ele>
        <time>2020-01-18T09:21:39.140Z</time>
      </trkpt>
      <trkpt lat="37.27042667" lon="-7.09577">
        <ele>76.0</ele>
        <time>2020-01-18T09:21:40.144Z</time>
      </trkpt>
      <trkpt lat="37.27037167" lon="-7.09584833">
        <ele>76.0</ele>
        <time>2020-01-18T09:21:41.164Z</time>
      </trkpt>
      <trkpt lat="37.27034667" lon="-7.09589667">
        <ele>75.0</ele>
        <time>2020-01-18T09:21:42.143Z</time>
      </trkpt>
      <trkpt lat="37.27034667" lon="-7.09589667">
        <ele>75.0</ele>
        <time>2020-01-18T09:21:43.160Z</time>
      </trkpt>
      <trkpt lat="37.27027667" lon="-7.09598333">
        <ele>75.0</ele>
        <time>2020-01-18T09:21:44.148Z</time>
      </trkpt>
      <trkpt lat="37.27025333" lon="-7.09604833">
        <ele>75.0</ele>
        <time>2020-01-18T09:21:45.153Z</time>
      </trkpt>
      <trkpt lat="37.27025333" lon="-7.09604833">
        <ele>75.0</ele>
        <time>2020-01-18T09:21:46.164Z</time>
      </trkpt>
      <trkpt lat="37.27020333" lon="-7.096165">
        <ele>75.0</ele>
        <time>2020-01-18T09:21:47.132Z</time>
      </trkpt>
      <trkpt lat="37.27020333" lon="-7.096165">
        <ele>75.0</ele>
        <time>2020-01-18T09:21:48.166Z</time>
      </trkpt>
      <trkpt lat="37.27012833" lon="-7.09626833">
        <ele>75.0</ele>
        <time>2020-01-18T09:21:49.137Z</time>
      </trkpt>
      <trkpt lat="37.27010667" lon="-7.09632667">
        <ele>75.0</ele>
        <time>2020-01-18T09:21:50.154Z</time>
      </trkpt>
      <trkpt lat="37.27008" lon="-7.09638333">
        <ele>75.0</ele>
        <time>2020-01-18T09:21:51.165Z</time>
      </trkpt>
      <trkpt lat="37.27008" lon="-7.09638333">
        <ele>75.0</ele>
        <time>2020-01-18T09:21:52.156Z</time>
      </trkpt>
      <trkpt lat="37.27002333" lon="-7.09646667">
        <ele>75.0</ele>
        <time>2020-01-18T09:21:53.133Z</time>
      </trkpt>
      <trkpt lat="37.26999667" lon="-7.09650833">
        <ele>75.0</ele>
        <time>2020-01-18T09:21:54.130Z</time>
      </trkpt>
      <trkpt lat="37.26999333" lon="-7.09654833">
        <ele>75.0</ele>
        <time>2020-01-18T09:21:55.137Z</time>
      </trkpt>
      <trkpt lat="37.26999333" lon="-7.09654833">
        <ele>75.0</ele>
        <time>2020-01-18T09:21:56.160Z</time>
      </trkpt>
      <trkpt lat="37.27002" lon="-7.09660333">
        <ele>75.0</ele>
        <time>2020-01-18T09:21:57.129Z</time>
      </trkpt>
      <trkpt lat="37.27002" lon="-7.09660333">
        <ele>75.0</ele>
        <time>2020-01-18T09:21:58.165Z</time>
      </trkpt>
      <trkpt lat="37.27007667" lon="-7.09666">
        <ele>75.0</ele>
        <time>2020-01-18T09:21:59.135Z</time>
      </trkpt>
      <trkpt lat="37.27010167" lon="-7.09669167">
        <ele>75.0</ele>
        <time>2020-01-18T09:22:00.154Z</time>
      </trkpt>
      <trkpt lat="37.270125" lon="-7.09672333">
        <ele>75.0</ele>
        <time>2020-01-18T09:22:01.137Z</time>
      </trkpt>
      <trkpt lat="37.270125" lon="-7.09672333">
        <ele>75.0</ele>
        <time>2020-01-18T09:22:02.129Z</time>
      </trkpt>
      <trkpt lat="37.27017833" lon="-7.09675">
        <ele>75.0</ele>
        <time>2020-01-18T09:22:03.162Z</time>
      </trkpt>
      <trkpt lat="37.27017833" lon="-7.09675">
        <ele>75.0</ele>
        <time>2020-01-18T09:22:04.134Z</time>
      </trkpt>
      <trkpt lat="37.27023833" lon="-7.096755">
        <ele>75.0</ele>
        <time>2020-01-18T09:22:05.164Z</time>
      </trkpt>
      <trkpt lat="37.27023833" lon="-7.096755">
        <ele>75.0</ele>
        <time>2020-01-18T09:22:06.150Z</time>
      </trkpt>
      <trkpt lat="37.270295" lon="-7.09674167">
        <ele>76.0</ele>
        <time>2020-01-18T09:22:07.160Z</time>
      </trkpt>
      <trkpt lat="37.270295" lon="-7.09674167">
        <ele>76.0</ele>
        <time>2020-01-18T09:22:08.166Z</time>
      </trkpt>
      <trkpt lat="37.27035333" lon="-7.09673667">
        <ele>76.0</ele>
        <time>2020-01-18T09:22:09.158Z</time>
      </trkpt>
      <trkpt lat="37.27038333" lon="-7.09673333">
        <ele>76.0</ele>
        <time>2020-01-18T09:22:10.161Z</time>
      </trkpt>
      <trkpt lat="37.27038333" lon="-7.09673333">
        <ele>76.0</ele>
        <time>2020-01-18T09:22:11.163Z</time>
      </trkpt>
      <trkpt lat="37.27043833" lon="-7.096725">
        <ele>77.0</ele>
        <time>2020-01-18T09:22:12.136Z</time>
      </trkpt>
      <trkpt lat="37.27043833" lon="-7.096725">
        <ele>77.0</ele>
        <time>2020-01-18T09:22:13.133Z</time>
      </trkpt>
      <trkpt lat="37.27049333" lon="-7.09670333">
        <ele>77.0</ele>
        <time>2020-01-18T09:22:14.148Z</time>
      </trkpt>
      <trkpt lat="37.27052667" lon="-7.09670167">
        <ele>77.0</ele>
        <time>2020-01-18T09:22:15.252Z</time>
      </trkpt>
      <trkpt lat="37.27052667" lon="-7.09670167">
        <ele>77.0</ele>
        <time>2020-01-18T09:22:16.142Z</time>
      </trkpt>
      <trkpt lat="37.27059333" lon="-7.096685">
        <ele>77.0</ele>
        <time>2020-01-18T09:22:17.152Z</time>
      </trkpt>
      <trkpt lat="37.27062833" lon="-7.09668333">
        <ele>77.0</ele>
        <time>2020-01-18T09:22:18.150Z</time>
      </trkpt>
      <trkpt lat="37.27066167" lon="-7.096675">
        <ele>77.0</ele>
        <time>2020-01-18T09:22:19.161Z</time>
      </trkpt>
      <trkpt lat="37.27066167" lon="-7.096675">
        <ele>77.0</ele>
        <time>2020-01-18T09:22:20.152Z</time>
      </trkpt>
      <trkpt lat="37.270725" lon="-7.09666167">
        <ele>77.0</ele>
        <time>2020-01-18T09:22:21.131Z</time>
      </trkpt>
      <trkpt lat="37.270725" lon="-7.09666167">
        <ele>77.0</ele>
        <time>2020-01-18T09:22:22.130Z</time>
      </trkpt>
      <trkpt lat="37.27078833" lon="-7.09664833">
        <ele>77.0</ele>
        <time>2020-01-18T09:22:23.139Z</time>
      </trkpt>
      <trkpt lat="37.27082167" lon="-7.09664667">
        <ele>77.0</ele>
        <time>2020-01-18T09:22:24.157Z</time>
      </trkpt>
      <trkpt lat="37.27082167" lon="-7.09664667">
        <ele>77.0</ele>
        <time>2020-01-18T09:22:25.149Z</time>
      </trkpt>
      <trkpt lat="37.27089" lon="-7.09663667">
        <ele>77.0</ele>
        <time>2020-01-18T09:22:26.142Z</time>
      </trkpt>
      <trkpt lat="37.27092667" lon="-7.096635">
        <ele>77.0</ele>
        <time>2020-01-18T09:22:27.170Z</time>
      </trkpt>
      <trkpt lat="37.27092667" lon="-7.096635">
        <ele>77.0</ele>
        <time>2020-01-18T09:22:28.151Z</time>
      </trkpt>
      <trkpt lat="37.270995" lon="-7.096645">
        <ele>77.0</ele>
        <time>2020-01-18T09:22:29.166Z</time>
      </trkpt>
      <trkpt lat="37.27102833" lon="-7.09665333">
        <ele>77.0</ele>
        <time>2020-01-18T09:22:30.152Z</time>
      </trkpt>
      <trkpt lat="37.27102833" lon="-7.09665333">
        <ele>77.0</ele>
        <time>2020-01-18T09:22:31.147Z</time>
      </trkpt>
      <trkpt lat="37.27110333" lon="-7.09665">
        <ele>77.0</ele>
        <time>2020-01-18T09:22:32.147Z</time>
      </trkpt>
      <trkpt lat="37.271145" lon="-7.09664167">
        <ele>77.0</ele>
        <time>2020-01-18T09:22:33.147Z</time>
      </trkpt>
      <trkpt lat="37.271145" lon="-7.09664167">
        <ele>77.0</ele>
        <time>2020-01-18T09:22:34.133Z</time>
      </trkpt>
      <trkpt lat="37.27121" lon="-7.09660333">
        <ele>77.0</ele>
        <time>2020-01-18T09:22:35.150Z</time>
      </trkpt>
      <trkpt lat="37.271245" lon="-7.09658667">
        <ele>78.0</ele>
        <time>2020-01-18T09:22:36.145Z</time>
      </trkpt>
      <trkpt lat="37.271245" lon="-7.09658667">
        <ele>78.0</ele>
        <time>2020-01-18T09:22:37.159Z</time>
      </trkpt>
      <trkpt lat="37.271315" lon="-7.09656">
        <ele>78.0</ele>
        <time>2020-01-18T09:22:38.137Z</time>
      </trkpt>
      <trkpt lat="37.271315" lon="-7.09656">
        <ele>78.0</ele>
        <time>2020-01-18T09:22:39.137Z</time>
      </trkpt>
      <trkpt lat="37.27139" lon="-7.09653">
        <ele>79.0</ele>
        <time>2020-01-18T09:22:40.163Z</time>
      </trkpt>
      <trkpt lat="37.27139" lon="-7.09653">
        <ele>79.0</ele>
        <time>2020-01-18T09:22:41.135Z</time>
      </trkpt>
      <trkpt lat="37.27145" lon="-7.09649833">
        <ele>79.0</ele>
        <time>2020-01-18T09:22:42.153Z</time>
      </trkpt>
      <trkpt lat="37.27145" lon="-7.09649833">
        <ele>79.0</ele>
        <time>2020-01-18T09:22:43.148Z</time>
      </trkpt>
      <trkpt lat="37.27151333" lon="-7.09646">
        <ele>80.0</ele>
        <time>2020-01-18T09:22:44.162Z</time>
      </trkpt>
      <trkpt lat="37.27154667" lon="-7.09643333">
        <ele>80.0</ele>
        <time>2020-01-18T09:22:45.157Z</time>
      </trkpt>
      <trkpt lat="37.27157333" lon="-7.09640167">
        <ele>80.0</ele>
        <time>2020-01-18T09:22:46.157Z</time>
      </trkpt>
      <trkpt lat="37.27157333" lon="-7.09640167">
        <ele>80.0</ele>
        <time>2020-01-18T09:22:47.158Z</time>
      </trkpt>
      <trkpt lat="37.27161833" lon="-7.09633">
        <ele>79.0</ele>
        <time>2020-01-18T09:22:48.129Z</time>
      </trkpt>
      <trkpt lat="37.27164167" lon="-7.096295">
        <ele>79.0</ele>
        <time>2020-01-18T09:22:49.160Z</time>
      </trkpt>
      <trkpt lat="37.27164167" lon="-7.096295">
        <ele>79.0</ele>
        <time>2020-01-18T09:22:50.141Z</time>
      </trkpt>
      <trkpt lat="37.27170167" lon="-7.09624">
        <ele>79.0</ele>
        <time>2020-01-18T09:22:51.151Z</time>
      </trkpt>
      <trkpt lat="37.27170167" lon="-7.09624">
        <ele>79.0</ele>
        <time>2020-01-18T09:22:52.168Z</time>
      </trkpt>
      <trkpt lat="37.27176833" lon="-7.096185">
        <ele>80.0</ele>
        <time>2020-01-18T09:22:53.146Z</time>
      </trkpt>
      <trkpt lat="37.27180333" lon="-7.096145">
        <ele>80.0</ele>
        <time>2020-01-18T09:22:54.142Z</time>
      </trkpt>
      <trkpt lat="37.27180333" lon="-7.096145">
        <ele>80.0</ele>
        <time>2020-01-18T09:22:55.150Z</time>
      </trkpt>
      <trkpt lat="37.27188667" lon="-7.096055">
        <ele>80.0</ele>
        <time>2020-01-18T09:22:56.163Z</time>
      </trkpt>
      <trkpt lat="37.27188667" lon="-7.096055">
        <ele>80.0</ele>
        <time>2020-01-18T09:22:57.146Z</time>
      </trkpt>
      <trkpt lat="37.27197667" lon="-7.09597333">
        <ele>80.0</ele>
        <time>2020-01-18T09:22:58.156Z</time>
      </trkpt>
      <trkpt lat="37.27197667" lon="-7.09597333">
        <ele>80.0</ele>
        <time>2020-01-18T09:22:59.159Z</time>
      </trkpt>
      <trkpt lat="37.27204" lon="-7.09589833">
        <ele>80.0</ele>
        <time>2020-01-18T09:23:00.136Z</time>
      </trkpt>
      <trkpt lat="37.27204" lon="-7.09589833">
        <ele>80.0</ele>
        <time>2020-01-18T09:23:01.144Z</time>
      </trkpt>
      <trkpt lat="37.27209833" lon="-7.09583167">
        <ele>80.0</ele>
        <time>2020-01-18T09:23:02.155Z</time>
      </trkpt>
      <trkpt lat="37.27209833" lon="-7.09583167">
        <ele>80.0</ele>
        <time>2020-01-18T09:23:03.141Z</time>
      </trkpt>
      <trkpt lat="37.27215667" lon="-7.09575333">
        <ele>80.0</ele>
        <time>2020-01-18T09:23:04.159Z</time>
      </trkpt>
      <trkpt lat="37.27215667" lon="-7.09575333">
        <ele>80.0</ele>
        <time>2020-01-18T09:23:05.151Z</time>
      </trkpt>
      <trkpt lat="37.27221333" lon="-7.095665">
        <ele>80.0</ele>
        <time>2020-01-18T09:23:06.162Z</time>
      </trkpt>
      <trkpt lat="37.27221333" lon="-7.095665">
        <ele>80.0</ele>
        <time>2020-01-18T09:23:07.152Z</time>
      </trkpt>
      <trkpt lat="37.27227667" lon="-7.09558833">
        <ele>80.0</ele>
        <time>2020-01-18T09:23:08.132Z</time>
      </trkpt>
      <trkpt lat="37.2723" lon="-7.095535">
        <ele>80.0</ele>
        <time>2020-01-18T09:23:09.162Z</time>
      </trkpt>
      <trkpt lat="37.2723" lon="-7.095535">
        <ele>80.0</ele>
        <time>2020-01-18T09:23:10.148Z</time>
      </trkpt>
      <trkpt lat="37.27234" lon="-7.09543">
        <ele>80.0</ele>
        <time>2020-01-18T09:23:11.140Z</time>
      </trkpt>
      <trkpt lat="37.272345" lon="-7.09537833">
        <ele>80.0</ele>
        <time>2020-01-18T09:23:12.131Z</time>
      </trkpt>
      <trkpt lat="37.27235333" lon="-7.09531333">
        <ele>80.0</ele>
        <time>2020-01-18T09:23:13.169Z</time>
      </trkpt>
      <trkpt lat="37.27235333" lon="-7.09531333">
        <ele>80.0</ele>
        <time>2020-01-18T09:23:14.167Z</time>
      </trkpt>
      <trkpt lat="37.27238167" lon="-7.09520667">
        <ele>80.0</ele>
        <time>2020-01-18T09:23:15.138Z</time>
      </trkpt>
      <trkpt lat="37.27238167" lon="-7.09520667">
        <ele>80.0</ele>
        <time>2020-01-18T09:23:16.164Z</time>
      </trkpt>
      <trkpt lat="37.27239833" lon="-7.09507833">
        <ele>80.0</ele>
        <time>2020-01-18T09:23:17.135Z</time>
      </trkpt>
      <trkpt lat="37.27239833" lon="-7.09507833">
        <ele>80.0</ele>
        <time>2020-01-18T09:23:18.165Z</time>
      </trkpt>
      <trkpt lat="37.27240667" lon="-7.09491167">
        <ele>80.0</ele>
        <time>2020-01-18T09:23:19.135Z</time>
      </trkpt>
      <trkpt lat="37.27240667" lon="-7.09491167">
        <ele>80.0</ele>
        <time>2020-01-18T09:23:20.157Z</time>
      </trkpt>
      <trkpt lat="37.27241" lon="-7.09476667">
        <ele>81.0</ele>
        <time>2020-01-18T09:23:21.168Z</time>
      </trkpt>
      <trkpt lat="37.27241" lon="-7.09476667">
        <ele>81.0</ele>
        <time>2020-01-18T09:23:22.163Z</time>
      </trkpt>
      <trkpt lat="37.27236167" lon="-7.09463">
        <ele>82.0</ele>
        <time>2020-01-18T09:23:23.130Z</time>
      </trkpt>
      <trkpt lat="37.27236167" lon="-7.09463">
        <ele>82.0</ele>
        <time>2020-01-18T09:23:24.165Z</time>
      </trkpt>
      <trkpt lat="37.27230833" lon="-7.09451333">
        <ele>82.0</ele>
        <time>2020-01-18T09:23:25.174Z</time>
      </trkpt>
      <trkpt lat="37.27230833" lon="-7.09451333">
        <ele>82.0</ele>
        <time>2020-01-18T09:23:26.158Z</time>
      </trkpt>
      <trkpt lat="37.27224" lon="-7.09442167">
        <ele>82.0</ele>
        <time>2020-01-18T09:23:27.132Z</time>
      </trkpt>
      <trkpt lat="37.27224" lon="-7.09442167">
        <ele>82.0</ele>
        <time>2020-01-18T09:23:28.167Z</time>
      </trkpt>
      <trkpt lat="37.27217" lon="-7.09432">
        <ele>82.0</ele>
        <time>2020-01-18T09:23:29.136Z</time>
      </trkpt>
      <trkpt lat="37.27212" lon="-7.09426333">
        <ele>83.0</ele>
        <time>2020-01-18T09:23:30.153Z</time>
      </trkpt>
      <trkpt lat="37.27212" lon="-7.09426333">
        <ele>83.0</ele>
        <time>2020-01-18T09:23:31.130Z</time>
      </trkpt>
      <trkpt lat="37.27200833" lon="-7.09417167">
        <ele>83.0</ele>
        <time>2020-01-18T09:23:32.151Z</time>
      </trkpt>
      <trkpt lat="37.27196167" lon="-7.094115">
        <ele>83.0</ele>
        <time>2020-01-18T09:23:33.137Z</time>
      </trkpt>
      <trkpt lat="37.271925" lon="-7.09405167">
        <ele>83.0</ele>
        <time>2020-01-18T09:23:34.162Z</time>
      </trkpt>
      <trkpt lat="37.271925" lon="-7.09405167">
        <ele>83.0</ele>
        <time>2020-01-18T09:23:35.150Z</time>
      </trkpt>
      <trkpt lat="37.27184" lon="-7.093915">
        <ele>82.0</ele>
        <time>2020-01-18T09:23:36.166Z</time>
      </trkpt>
      <trkpt lat="37.27184" lon="-7.093915">
        <ele>82.0</ele>
        <time>2020-01-18T09:23:37.165Z</time>
      </trkpt>
      <trkpt lat="37.27174167" lon="-7.09378167">
        <ele>82.0</ele>
        <time>2020-01-18T09:23:38.134Z</time>
      </trkpt>
      <trkpt lat="37.27171333" lon="-7.093715">
        <ele>82.0</ele>
        <time>2020-01-18T09:23:39.138Z</time>
      </trkpt>
      <trkpt lat="37.27171333" lon="-7.093715">
        <ele>82.0</ele>
        <time>2020-01-18T09:23:40.166Z</time>
      </trkpt>
      <trkpt lat="37.27168" lon="-7.09357167">
        <ele>82.0</ele>
        <time>2020-01-18T09:23:41.163Z</time>
      </trkpt>
      <trkpt lat="37.27164333" lon="-7.09351833">
        <ele>81.0</ele>
        <time>2020-01-18T09:23:42.160Z</time>
      </trkpt>
      <trkpt lat="37.27164333" lon="-7.09351833">
        <ele>81.0</ele>
        <time>2020-01-18T09:23:43.168Z</time>
      </trkpt>
      <trkpt lat="37.27154333" lon="-7.09343">
        <ele>81.0</ele>
        <time>2020-01-18T09:23:44.146Z</time>
      </trkpt>
      <trkpt lat="37.27150333" lon="-7.09338833">
        <ele>81.0</ele>
        <time>2020-01-18T09:23:45.153Z</time>
      </trkpt>
      <trkpt lat="37.27148167" lon="-7.09333333">
        <ele>81.0</ele>
        <time>2020-01-18T09:23:46.163Z</time>
      </trkpt>
      <trkpt lat="37.27148167" lon="-7.09333333">
        <ele>81.0</ele>
        <time>2020-01-18T09:23:47.152Z</time>
      </trkpt>
      <trkpt lat="37.27144333" lon="-7.09319333">
        <ele>80.0</ele>
        <time>2020-01-18T09:23:48.162Z</time>
      </trkpt>
      <trkpt lat="37.27144333" lon="-7.09319333">
        <ele>80.0</ele>
        <time>2020-01-18T09:23:49.140Z</time>
      </trkpt>
      <trkpt lat="37.27137833" lon="-7.09306333">
        <ele>80.0</ele>
        <time>2020-01-18T09:23:50.152Z</time>
      </trkpt>
      <trkpt lat="37.271335" lon="-7.09299833">
        <ele>80.0</ele>
        <time>2020-01-18T09:23:51.166Z</time>
      </trkpt>
      <trkpt lat="37.271335" lon="-7.09299833">
        <ele>80.0</ele>
        <time>2020-01-18T09:23:52.141Z</time>
      </trkpt>
      <trkpt lat="37.27128833" lon="-7.09287167">
        <ele>80.0</ele>
        <time>2020-01-18T09:23:53.132Z</time>
      </trkpt>
      <trkpt lat="37.27126167" lon="-7.09281333">
        <ele>79.0</ele>
        <time>2020-01-18T09:23:54.166Z</time>
      </trkpt>
      <trkpt lat="37.27126167" lon="-7.09281333">
        <ele>79.0</ele>
        <time>2020-01-18T09:23:55.152Z</time>
      </trkpt>
      <trkpt lat="37.27121167" lon="-7.092685">
        <ele>79.0</ele>
        <time>2020-01-18T09:23:56.171Z</time>
      </trkpt>
      <trkpt lat="37.27117167" lon="-7.09263167">
        <ele>79.0</ele>
        <time>2020-01-18T09:23:57.151Z</time>
      </trkpt>
      <trkpt lat="37.27117167" lon="-7.09263167">
        <ele>79.0</ele>
        <time>2020-01-18T09:23:58.156Z</time>
      </trkpt>
      <trkpt lat="37.27112" lon="-7.09254667">
        <ele>79.0</ele>
        <time>2020-01-18T09:23:59.129Z</time>
      </trkpt>
      <trkpt lat="37.27112" lon="-7.09254667">
        <ele>79.0</ele>
        <time>2020-01-18T09:24:00.168Z</time>
      </trkpt>
      <trkpt lat="37.27114667" lon="-7.09246333">
        <ele>79.0</ele>
        <time>2020-01-18T09:24:01.162Z</time>
      </trkpt>
      <trkpt lat="37.27117667" lon="-7.09244167">
        <ele>79.0</ele>
        <time>2020-01-18T09:24:02.130Z</time>
      </trkpt>
      <trkpt lat="37.27117667" lon="-7.09244167">
        <ele>79.0</ele>
        <time>2020-01-18T09:24:03.159Z</time>
      </trkpt>
      <trkpt lat="37.27123667" lon="-7.09239">
        <ele>79.0</ele>
        <time>2020-01-18T09:24:04.129Z</time>
      </trkpt>
      <trkpt lat="37.27123667" lon="-7.09239">
        <ele>79.0</ele>
        <time>2020-01-18T09:24:05.154Z</time>
      </trkpt>
      <trkpt lat="37.27131167" lon="-7.092345">
        <ele>79.0</ele>
        <time>2020-01-18T09:24:06.165Z</time>
      </trkpt>
      <trkpt lat="37.27131167" lon="-7.092345">
        <ele>79.0</ele>
        <time>2020-01-18T09:24:07.146Z</time>
      </trkpt>
      <trkpt lat="37.27139" lon="-7.09229167">
        <ele>79.0</ele>
        <time>2020-01-18T09:24:08.166Z</time>
      </trkpt>
      <trkpt lat="37.27139" lon="-7.09229167">
        <ele>79.0</ele>
        <time>2020-01-18T09:24:09.159Z</time>
      </trkpt>
      <trkpt lat="37.27147333" lon="-7.09220833">
        <ele>80.0</ele>
        <time>2020-01-18T09:24:10.166Z</time>
      </trkpt>
      <trkpt lat="37.27147333" lon="-7.09220833">
        <ele>80.0</ele>
        <time>2020-01-18T09:24:11.156Z</time>
      </trkpt>
      <trkpt lat="37.27155833" lon="-7.092135">
        <ele>80.0</ele>
        <time>2020-01-18T09:24:12.137Z</time>
      </trkpt>
      <trkpt lat="37.27155833" lon="-7.092135">
        <ele>80.0</ele>
        <time>2020-01-18T09:24:13.158Z</time>
      </trkpt>
      <trkpt lat="37.271655" lon="-7.09205167">
        <ele>80.0</ele>
        <time>2020-01-18T09:24:14.134Z</time>
      </trkpt>
      <trkpt lat="37.27171333" lon="-7.09199833">
        <ele>80.0</ele>
        <time>2020-01-18T09:24:15.129Z</time>
      </trkpt>
      <trkpt lat="37.27171333" lon="-7.09199833">
        <ele>80.0</ele>
        <time>2020-01-18T09:24:16.164Z</time>
      </trkpt>
      <trkpt lat="37.27178833" lon="-7.09191">
        <ele>80.0</ele>
        <time>2020-01-18T09:24:17.139Z</time>
      </trkpt>
      <trkpt lat="37.27178833" lon="-7.09191">
        <ele>80.0</ele>
        <time>2020-01-18T09:24:18.166Z</time>
      </trkpt>
      <trkpt lat="37.27185" lon="-7.09183">
        <ele>81.0</ele>
        <time>2020-01-18T09:24:19.143Z</time>
      </trkpt>
      <trkpt lat="37.27188667" lon="-7.09180333">
        <ele>81.0</ele>
        <time>2020-01-18T09:24:20.162Z</time>
      </trkpt>
      <trkpt lat="37.27188667" lon="-7.09180333">
        <ele>81.0</ele>
        <time>2020-01-18T09:24:21.131Z</time>
      </trkpt>
      <trkpt lat="37.27195" lon="-7.09175167">
        <ele>81.0</ele>
        <time>2020-01-18T09:24:22.144Z</time>
      </trkpt>
      <trkpt lat="37.27195" lon="-7.09175167">
        <ele>81.0</ele>
        <time>2020-01-18T09:24:23.165Z</time>
      </trkpt>
      <trkpt lat="37.271995" lon="-7.09169833">
        <ele>81.0</ele>
        <time>2020-01-18T09:24:24.135Z</time>
      </trkpt>
      <trkpt lat="37.271995" lon="-7.09169833">
        <ele>81.0</ele>
        <time>2020-01-18T09:24:25.143Z</time>
      </trkpt>
      <trkpt lat="37.27201667" lon="-7.09164333">
        <ele>81.0</ele>
        <time>2020-01-18T09:24:26.157Z</time>
      </trkpt>
      <trkpt lat="37.27202167" lon="-7.09161333">
        <ele>80.0</ele>
        <time>2020-01-18T09:24:27.131Z</time>
      </trkpt>
      <trkpt lat="37.27202167" lon="-7.09161333">
        <ele>80.0</ele>
        <time>2020-01-18T09:24:28.168Z</time>
      </trkpt>
      <trkpt lat="37.27203167" lon="-7.09154">
        <ele>81.0</ele>
        <time>2020-01-18T09:24:29.147Z</time>
      </trkpt>
      <trkpt lat="37.27203167" lon="-7.09154">
        <ele>81.0</ele>
        <time>2020-01-18T09:24:30.134Z</time>
      </trkpt>
      <trkpt lat="37.272045" lon="-7.09146">
        <ele>81.0</ele>
        <time>2020-01-18T09:24:31.131Z</time>
      </trkpt>
      <trkpt lat="37.272045" lon="-7.09146">
        <ele>81.0</ele>
        <time>2020-01-18T09:24:32.168Z</time>
      </trkpt>
      <trkpt lat="37.27209" lon="-7.09138">
        <ele>82.0</ele>
        <time>2020-01-18T09:24:33.147Z</time>
      </trkpt>
      <trkpt lat="37.27210833" lon="-7.09133167">
        <ele>81.0</ele>
        <time>2020-01-18T09:24:34.130Z</time>
      </trkpt>
      <trkpt lat="37.27210833" lon="-7.09133167">
        <ele>81.0</ele>
        <time>2020-01-18T09:24:35.149Z</time>
      </trkpt>
      <trkpt lat="37.27212833" lon="-7.09124">
        <ele>82.0</ele>
        <time>2020-01-18T09:24:36.146Z</time>
      </trkpt>
      <trkpt lat="37.27212833" lon="-7.09124">
        <ele>82.0</ele>
        <time>2020-01-18T09:24:37.168Z</time>
      </trkpt>
      <trkpt lat="37.272125" lon="-7.091175">
        <ele>82.0</ele>
        <time>2020-01-18T09:24:38.139Z</time>
      </trkpt>
      <trkpt lat="37.272125" lon="-7.09115167">
        <ele>82.0</ele>
        <time>2020-01-18T09:24:39.141Z</time>
      </trkpt>
      <trkpt lat="37.272125" lon="-7.09115167">
        <ele>82.0</ele>
        <time>2020-01-18T09:24:40.135Z</time>
      </trkpt>
      <trkpt lat="37.27212667" lon="-7.09114167">
        <ele>82.0</ele>
        <time>2020-01-18T09:24:41.145Z</time>
      </trkpt>
      <trkpt lat="37.27212667" lon="-7.09114167">
        <ele>82.0</ele>
        <time>2020-01-18T09:24:42.153Z</time>
      </trkpt>
      <trkpt lat="37.27217667" lon="-7.09099167">
        <ele>77.0</ele>
        <time>2020-01-18T09:24:43.137Z</time>
      </trkpt>
      <trkpt lat="37.27218667" lon="-7.09097">
        <ele>77.0</ele>
        <time>2020-01-18T09:24:44.145Z</time>
      </trkpt>
      <trkpt lat="37.27218667" lon="-7.09097">
        <ele>77.0</ele>
        <time>2020-01-18T09:24:45.151Z</time>
      </trkpt>
      <trkpt lat="37.272215" lon="-7.09091833">
        <ele>77.0</ele>
        <time>2020-01-18T09:24:46.130Z</time>
      </trkpt>
      <trkpt lat="37.272225" lon="-7.09089333">
        <ele>77.0</ele>
        <time>2020-01-18T09:24:47.157Z</time>
      </trkpt>
      <trkpt lat="37.272225" lon="-7.09089333">
        <ele>77.0</ele>
        <time>2020-01-18T09:24:48.163Z</time>
      </trkpt>
      <trkpt lat="37.27223333" lon="-7.09083833">
        <ele>77.0</ele>
        <time>2020-01-18T09:24:49.147Z</time>
      </trkpt>
      <trkpt lat="37.27223333" lon="-7.09083833">
        <ele>77.0</ele>
        <time>2020-01-18T09:24:50.152Z</time>
      </trkpt>
      <trkpt lat="37.27225667" lon="-7.09077">
        <ele>77.0</ele>
        <time>2020-01-18T09:24:51.137Z</time>
      </trkpt>
      <trkpt lat="37.27225667" lon="-7.09077">
        <ele>77.0</ele>
        <time>2020-01-18T09:24:52.143Z</time>
      </trkpt>
      <trkpt lat="37.27229333" lon="-7.09068833">
        <ele>77.0</ele>
        <time>2020-01-18T09:24:53.133Z</time>
      </trkpt>
      <trkpt lat="37.27229333" lon="-7.09068833">
        <ele>77.0</ele>
        <time>2020-01-18T09:24:54.145Z</time>
      </trkpt>
      <trkpt lat="37.272325" lon="-7.090595">
        <ele>78.0</ele>
        <time>2020-01-18T09:24:55.130Z</time>
      </trkpt>
      <trkpt lat="37.27234667" lon="-7.090555">
        <ele>78.0</ele>
        <time>2020-01-18T09:24:56.164Z</time>
      </trkpt>
      <trkpt lat="37.27234667" lon="-7.090555">
        <ele>78.0</ele>
        <time>2020-01-18T09:24:57.129Z</time>
      </trkpt>
      <trkpt lat="37.27238833" lon="-7.09047333">
        <ele>78.0</ele>
        <time>2020-01-18T09:24:58.132Z</time>
      </trkpt>
      <trkpt lat="37.272415" lon="-7.09044167">
        <ele>78.0</ele>
        <time>2020-01-18T09:24:59.168Z</time>
      </trkpt>
      <trkpt lat="37.27244" lon="-7.09041">
        <ele>78.0</ele>
        <time>2020-01-18T09:25:00.155Z</time>
      </trkpt>
      <trkpt lat="37.27244" lon="-7.09041">
        <ele>78.0</ele>
        <time>2020-01-18T09:25:01.160Z</time>
      </trkpt>
      <trkpt lat="37.27248667" lon="-7.09032167">
        <ele>79.0</ele>
        <time>2020-01-18T09:25:02.147Z</time>
      </trkpt>
      <trkpt lat="37.27248667" lon="-7.09032167">
        <ele>79.0</ele>
        <time>2020-01-18T09:25:03.152Z</time>
      </trkpt>
      <trkpt lat="37.27254833" lon="-7.09025">
        <ele>79.0</ele>
        <time>2020-01-18T09:25:04.141Z</time>
      </trkpt>
      <trkpt lat="37.27254833" lon="-7.09025">
        <ele>79.0</ele>
        <time>2020-01-18T09:25:05.153Z</time>
      </trkpt>
      <trkpt lat="37.27261667" lon="-7.09018833">
        <ele>80.0</ele>
        <time>2020-01-18T09:25:06.147Z</time>
      </trkpt>
      <trkpt lat="37.27261667" lon="-7.09018833">
        <ele>80.0</ele>
        <time>2020-01-18T09:25:07.152Z</time>
      </trkpt>
      <trkpt lat="37.27265833" lon="-7.0901">
        <ele>80.0</ele>
        <time>2020-01-18T09:25:08.152Z</time>
      </trkpt>
      <trkpt lat="37.27265833" lon="-7.0901">
        <ele>80.0</ele>
        <time>2020-01-18T09:25:09.157Z</time>
      </trkpt>
      <trkpt lat="37.27267667" lon="-7.08999667">
        <ele>80.0</ele>
        <time>2020-01-18T09:25:10.149Z</time>
      </trkpt>
      <trkpt lat="37.27269667" lon="-7.08993667">
        <ele>80.0</ele>
        <time>2020-01-18T09:25:11.139Z</time>
      </trkpt>
      <trkpt lat="37.27269667" lon="-7.08993667">
        <ele>80.0</ele>
        <time>2020-01-18T09:25:12.145Z</time>
      </trkpt>
      <trkpt lat="37.272735" lon="-7.08979167">
        <ele>80.0</ele>
        <time>2020-01-18T09:25:13.141Z</time>
      </trkpt>
      <trkpt lat="37.272735" lon="-7.08979167">
        <ele>80.0</ele>
        <time>2020-01-18T09:25:14.146Z</time>
      </trkpt>
      <trkpt lat="37.27277333" lon="-7.08965333">
        <ele>81.0</ele>
        <time>2020-01-18T09:25:15.133Z</time>
      </trkpt>
      <trkpt lat="37.27278" lon="-7.08959333">
        <ele>81.0</ele>
        <time>2020-01-18T09:25:16.129Z</time>
      </trkpt>
      <trkpt lat="37.27278" lon="-7.08959333">
        <ele>81.0</ele>
        <time>2020-01-18T09:25:17.143Z</time>
      </trkpt>
      <trkpt lat="37.272795" lon="-7.08946667">
        <ele>81.0</ele>
        <time>2020-01-18T09:25:18.138Z</time>
      </trkpt>
      <trkpt lat="37.272795" lon="-7.08946667">
        <ele>81.0</ele>
        <time>2020-01-18T09:25:19.144Z</time>
      </trkpt>
      <trkpt lat="37.272795" lon="-7.08935333">
        <ele>82.0</ele>
        <time>2020-01-18T09:25:20.135Z</time>
      </trkpt>
      <trkpt lat="37.272795" lon="-7.08935333">
        <ele>82.0</ele>
        <time>2020-01-18T09:25:21.145Z</time>
      </trkpt>
      <trkpt lat="37.27281" lon="-7.089245">
        <ele>82.0</ele>
        <time>2020-01-18T09:25:22.147Z</time>
      </trkpt>
      <trkpt lat="37.27281833" lon="-7.089195">
        <ele>83.0</ele>
        <time>2020-01-18T09:25:23.154Z</time>
      </trkpt>
      <trkpt lat="37.27281833" lon="-7.089195">
        <ele>83.0</ele>
        <time>2020-01-18T09:25:24.159Z</time>
      </trkpt>
      <trkpt lat="37.27281333" lon="-7.0891">
        <ele>83.0</ele>
        <time>2020-01-18T09:25:25.147Z</time>
      </trkpt>
      <trkpt lat="37.27281333" lon="-7.08905167">
        <ele>84.0</ele>
        <time>2020-01-18T09:25:26.135Z</time>
      </trkpt>
      <trkpt lat="37.27281333" lon="-7.08905167">
        <ele>84.0</ele>
        <time>2020-01-18T09:25:27.144Z</time>
      </trkpt>
      <trkpt lat="37.27282333" lon="-7.08894833">
        <ele>85.0</ele>
        <time>2020-01-18T09:25:28.139Z</time>
      </trkpt>
      <trkpt lat="37.27282833" lon="-7.088895">
        <ele>85.0</ele>
        <time>2020-01-18T09:25:29.130Z</time>
      </trkpt>
      <trkpt lat="37.27282833" lon="-7.088895">
        <ele>85.0</ele>
        <time>2020-01-18T09:25:30.135Z</time>
      </trkpt>
      <trkpt lat="37.27283" lon="-7.08879833">
        <ele>85.0</ele>
        <time>2020-01-18T09:25:31.157Z</time>
      </trkpt>
      <trkpt lat="37.272825" lon="-7.08875167">
        <ele>85.0</ele>
        <time>2020-01-18T09:25:32.133Z</time>
      </trkpt>
      <trkpt lat="37.272825" lon="-7.08875167">
        <ele>85.0</ele>
        <time>2020-01-18T09:25:33.143Z</time>
      </trkpt>
      <trkpt lat="37.27280833" lon="-7.08868333">
        <ele>86.0</ele>
        <time>2020-01-18T09:25:34.132Z</time>
      </trkpt>
      <trkpt lat="37.27280833" lon="-7.08868333">
        <ele>86.0</ele>
        <time>2020-01-18T09:25:35.144Z</time>
      </trkpt>
      <trkpt lat="37.27279833" lon="-7.08863">
        <ele>86.0</ele>
        <time>2020-01-18T09:25:36.133Z</time>
      </trkpt>
      <trkpt lat="37.27279667" lon="-7.08859833">
        <ele>87.0</ele>
        <time>2020-01-18T09:25:37.164Z</time>
      </trkpt>
      <trkpt lat="37.27279167" lon="-7.08857167">
        <ele>87.0</ele>
        <time>2020-01-18T09:25:38.150Z</time>
      </trkpt>
      <trkpt lat="37.27279167" lon="-7.08857167">
        <ele>87.0</ele>
        <time>2020-01-18T09:25:39.156Z</time>
      </trkpt>
      <trkpt lat="37.27279167" lon="-7.08849833">
        <ele>88.0</ele>
        <time>2020-01-18T09:25:40.152Z</time>
      </trkpt>
      <trkpt lat="37.272785" lon="-7.08845833">
        <ele>88.0</ele>
        <time>2020-01-18T09:25:41.142Z</time>
      </trkpt>
      <trkpt lat="37.272785" lon="-7.08845833">
        <ele>88.0</ele>
        <time>2020-01-18T09:25:42.148Z</time>
      </trkpt>
      <trkpt lat="37.27277333" lon="-7.08839333">
        <ele>89.0</ele>
        <time>2020-01-18T09:25:43.148Z</time>
      </trkpt>
      <trkpt lat="37.27277167" lon="-7.08834333">
        <ele>89.0</ele>
        <time>2020-01-18T09:25:44.143Z</time>
      </trkpt>
      <trkpt lat="37.27277167" lon="-7.08834333">
        <ele>89.0</ele>
        <time>2020-01-18T09:25:45.148Z</time>
      </trkpt>
      <trkpt lat="37.27276" lon="-7.08825167">
        <ele>90.0</ele>
        <time>2020-01-18T09:25:46.144Z</time>
      </trkpt>
      <trkpt lat="37.27276" lon="-7.08825167">
        <ele>90.0</ele>
        <time>2020-01-18T09:25:47.150Z</time>
      </trkpt>
      <trkpt lat="37.27275833" lon="-7.088175">
        <ele>90.0</ele>
        <time>2020-01-18T09:25:48.132Z</time>
      </trkpt>
      <trkpt lat="37.27275" lon="-7.08813333">
        <ele>91.0</ele>
        <time>2020-01-18T09:25:49.157Z</time>
      </trkpt>
      <trkpt lat="37.27274" lon="-7.0881">
        <ele>91.0</ele>
        <time>2020-01-18T09:25:50.141Z</time>
      </trkpt>
      <trkpt lat="37.27274" lon="-7.0881">
        <ele>91.0</ele>
        <time>2020-01-18T09:25:51.146Z</time>
      </trkpt>
      <trkpt lat="37.272715" lon="-7.08802333">
        <ele>92.0</ele>
        <time>2020-01-18T09:25:52.132Z</time>
      </trkpt>
      <trkpt lat="37.27270333" lon="-7.08798667">
        <ele>92.0</ele>
        <time>2020-01-18T09:25:53.161Z</time>
      </trkpt>
      <trkpt lat="37.27270333" lon="-7.08798667">
        <ele>92.0</ele>
        <time>2020-01-18T09:25:54.166Z</time>
      </trkpt>
      <trkpt lat="37.27267333" lon="-7.08792667">
        <ele>93.0</ele>
        <time>2020-01-18T09:25:55.148Z</time>
      </trkpt>
      <trkpt lat="37.27265333" lon="-7.087895">
        <ele>93.0</ele>
        <time>2020-01-18T09:25:56.141Z</time>
      </trkpt>
      <trkpt lat="37.272635" lon="-7.08786333">
        <ele>93.0</ele>
        <time>2020-01-18T09:25:57.165Z</time>
      </trkpt>
      <trkpt lat="37.272635" lon="-7.08786333">
        <ele>93.0</ele>
        <time>2020-01-18T09:25:58.130Z</time>
      </trkpt>
      <trkpt lat="37.27261" lon="-7.08779667">
        <ele>94.0</ele>
        <time>2020-01-18T09:25:59.131Z</time>
      </trkpt>
      <trkpt lat="37.27261" lon="-7.08779667">
        <ele>94.0</ele>
        <time>2020-01-18T09:26:00.137Z</time>
      </trkpt>
      <trkpt lat="37.27259" lon="-7.08772667">
        <ele>94.0</ele>
        <time>2020-01-18T09:26:01.164Z</time>
      </trkpt>
      <trkpt lat="37.27258167" lon="-7.08768833">
        <ele>95.0</ele>
        <time>2020-01-18T09:26:02.159Z</time>
      </trkpt>
      <trkpt lat="37.27258167" lon="-7.08768833">
        <ele>95.0</ele>
        <time>2020-01-18T09:26:03.164Z</time>
      </trkpt>
      <trkpt lat="37.27256667" lon="-7.0876">
        <ele>95.0</ele>
        <time>2020-01-18T09:26:04.161Z</time>
      </trkpt>
      <trkpt lat="37.27256667" lon="-7.0876">
        <ele>95.0</ele>
        <time>2020-01-18T09:26:05.166Z</time>
      </trkpt>
      <trkpt lat="37.27255333" lon="-7.08751">
        <ele>95.0</ele>
        <time>2020-01-18T09:26:06.150Z</time>
      </trkpt>
      <trkpt lat="37.27253333" lon="-7.08747333">
        <ele>95.0</ele>
        <time>2020-01-18T09:26:07.165Z</time>
      </trkpt>
      <trkpt lat="37.27253333" lon="-7.08747333">
        <ele>95.0</ele>
        <time>2020-01-18T09:26:08.130Z</time>
      </trkpt>
      <trkpt lat="37.27248667" lon="-7.0874">
        <ele>95.0</ele>
        <time>2020-01-18T09:26:09.153Z</time>
      </trkpt>
      <trkpt lat="37.27248667" lon="-7.0874">
        <ele>95.0</ele>
        <time>2020-01-18T09:26:10.159Z</time>
      </trkpt>
      <trkpt lat="37.27245167" lon="-7.08732167">
        <ele>95.0</ele>
        <time>2020-01-18T09:26:11.148Z</time>
      </trkpt>
      <trkpt lat="37.27245167" lon="-7.08732167">
        <ele>95.0</ele>
        <time>2020-01-18T09:26:12.154Z</time>
      </trkpt>
      <trkpt lat="37.27240333" lon="-7.087265">
        <ele>95.0</ele>
        <time>2020-01-18T09:26:13.157Z</time>
      </trkpt>
      <trkpt lat="37.27237333" lon="-7.08723333">
        <ele>95.0</ele>
        <time>2020-01-18T09:26:14.157Z</time>
      </trkpt>
      <trkpt lat="37.27237333" lon="-7.08723333">
        <ele>95.0</ele>
        <time>2020-01-18T09:26:15.162Z</time>
      </trkpt>
      <trkpt lat="37.27232667" lon="-7.08716333">
        <ele>95.0</ele>
        <time>2020-01-18T09:26:16.157Z</time>
      </trkpt>
      <trkpt lat="37.272305" lon="-7.08714333">
        <ele>95.0</ele>
        <time>2020-01-18T09:26:17.158Z</time>
      </trkpt>
      <trkpt lat="37.272305" lon="-7.08714333">
        <ele>95.0</ele>
        <time>2020-01-18T09:26:18.163Z</time>
      </trkpt>
      <trkpt lat="37.272215" lon="-7.087085">
        <ele>95.0</ele>
        <time>2020-01-18T09:26:19.137Z</time>
      </trkpt>
      <trkpt lat="37.27219" lon="-7.08705167">
        <ele>95.0</ele>
        <time>2020-01-18T09:26:20.159Z</time>
      </trkpt>
      <trkpt lat="37.27217" lon="-7.08700667">
        <ele>95.0</ele>
        <time>2020-01-18T09:26:21.162Z</time>
      </trkpt>
      <trkpt lat="37.27217" lon="-7.08700667">
        <ele>95.0</ele>
        <time>2020-01-18T09:26:22.167Z</time>
      </trkpt>
      <trkpt lat="37.27212333" lon="-7.086905">
        <ele>94.0</ele>
        <time>2020-01-18T09:26:23.147Z</time>
      </trkpt>
      <trkpt lat="37.27212333" lon="-7.086905">
        <ele>94.0</ele>
        <time>2020-01-18T09:26:24.153Z</time>
      </trkpt>
      <trkpt lat="37.27206833" lon="-7.08678833">
        <ele>94.0</ele>
        <time>2020-01-18T09:26:25.144Z</time>
      </trkpt>
      <trkpt lat="37.27203667" lon="-7.086735">
        <ele>93.0</ele>
        <time>2020-01-18T09:26:26.145Z</time>
      </trkpt>
      <trkpt lat="37.27203667" lon="-7.086735">
        <ele>93.0</ele>
        <time>2020-01-18T09:26:27.151Z</time>
      </trkpt>
      <trkpt lat="37.27197667" lon="-7.08662667">
        <ele>93.0</ele>
        <time>2020-01-18T09:26:28.148Z</time>
      </trkpt>
      <trkpt lat="37.27196167" lon="-7.08656167">
        <ele>92.0</ele>
        <time>2020-01-18T09:26:29.150Z</time>
      </trkpt>
      <trkpt lat="37.27196167" lon="-7.08656167">
        <ele>92.0</ele>
        <time>2020-01-18T09:26:30.157Z</time>
      </trkpt>
      <trkpt lat="37.27193167" lon="-7.08643167">
        <ele>93.0</ele>
        <time>2020-01-18T09:26:31.187Z</time>
      </trkpt>
      <trkpt lat="37.271895" lon="-7.086375">
        <ele>93.0</ele>
        <time>2020-01-18T09:26:32.157Z</time>
      </trkpt>
      <trkpt lat="37.271895" lon="-7.086375">
        <ele>93.0</ele>
        <time>2020-01-18T09:26:33.162Z</time>
      </trkpt>
      <trkpt lat="37.27179667" lon="-7.08627667">
        <ele>93.0</ele>
        <time>2020-01-18T09:26:34.158Z</time>
      </trkpt>
      <trkpt lat="37.27179667" lon="-7.08627667">
        <ele>93.0</ele>
        <time>2020-01-18T09:26:35.163Z</time>
      </trkpt>
      <trkpt lat="37.27170833" lon="-7.08617167">
        <ele>92.0</ele>
        <time>2020-01-18T09:26:36.157Z</time>
      </trkpt>
      <trkpt lat="37.27167333" lon="-7.08610667">
        <ele>92.0</ele>
        <time>2020-01-18T09:26:37.165Z</time>
      </trkpt>
      <trkpt lat="37.27164" lon="-7.08603667">
        <ele>92.0</ele>
        <time>2020-01-18T09:26:38.160Z</time>
      </trkpt>
      <trkpt lat="37.27164" lon="-7.08603667">
        <ele>92.0</ele>
        <time>2020-01-18T09:26:39.166Z</time>
      </trkpt>
      <trkpt lat="37.27156667" lon="-7.08587167">
        <ele>91.0</ele>
        <time>2020-01-18T09:26:40.129Z</time>
      </trkpt>
      <trkpt lat="37.27153167" lon="-7.08579167">
        <ele>91.0</ele>
        <time>2020-01-18T09:26:41.264Z</time>
      </trkpt>
      <trkpt lat="37.27153167" lon="-7.08579167">
        <ele>91.0</ele>
        <time>2020-01-18T09:26:42.152Z</time>
      </trkpt>
      <trkpt lat="37.271455" lon="-7.08563833">
        <ele>90.0</ele>
        <time>2020-01-18T09:26:43.133Z</time>
      </trkpt>
      <trkpt lat="37.27142167" lon="-7.08556">
        <ele>90.0</ele>
        <time>2020-01-18T09:26:44.161Z</time>
      </trkpt>
      <trkpt lat="37.27142167" lon="-7.08556">
        <ele>90.0</ele>
        <time>2020-01-18T09:26:45.166Z</time>
      </trkpt>
      <trkpt lat="37.27133833" lon="-7.085415">
        <ele>90.0</ele>
        <time>2020-01-18T09:26:46.249Z</time>
      </trkpt>
      <trkpt lat="37.27133833" lon="-7.085415">
        <ele>90.0</ele>
        <time>2020-01-18T09:26:47.131Z</time>
      </trkpt>
      <trkpt lat="37.271255" lon="-7.085315">
        <ele>90.0</ele>
        <time>2020-01-18T09:26:48.159Z</time>
      </trkpt>
      <trkpt lat="37.27121667" lon="-7.08529833">
        <ele>89.0</ele>
        <time>2020-01-18T09:26:49.147Z</time>
      </trkpt>
      <trkpt lat="37.27121667" lon="-7.08529833">
        <ele>89.0</ele>
        <time>2020-01-18T09:26:50.152Z</time>
      </trkpt>
      <trkpt lat="37.27113" lon="-7.08527667">
        <ele>89.0</ele>
        <time>2020-01-18T09:26:51.158Z</time>
      </trkpt>
      <trkpt lat="37.27113" lon="-7.08527667">
        <ele>89.0</ele>
        <time>2020-01-18T09:26:52.164Z</time>
      </trkpt>
      <trkpt lat="37.27104333" lon="-7.08526833">
        <ele>88.0</ele>
        <time>2020-01-18T09:26:53.159Z</time>
      </trkpt>
      <trkpt lat="37.27100333" lon="-7.08527167">
        <ele>87.0</ele>
        <time>2020-01-18T09:26:54.164Z</time>
      </trkpt>
      <trkpt lat="37.27100333" lon="-7.08527167">
        <ele>87.0</ele>
        <time>2020-01-18T09:26:55.130Z</time>
      </trkpt>
      <trkpt lat="37.27094333" lon="-7.08531333">
        <ele>87.0</ele>
        <time>2020-01-18T09:26:56.157Z</time>
      </trkpt>
      <trkpt lat="37.27094333" lon="-7.08531333">
        <ele>87.0</ele>
        <time>2020-01-18T09:26:57.162Z</time>
      </trkpt>
      <trkpt lat="37.27087833" lon="-7.08535333">
        <ele>86.0</ele>
        <time>2020-01-18T09:26:58.163Z</time>
      </trkpt>
      <trkpt lat="37.27084333" lon="-7.08536833">
        <ele>86.0</ele>
        <time>2020-01-18T09:26:59.147Z</time>
      </trkpt>
      <trkpt lat="37.27084333" lon="-7.08536833">
        <ele>86.0</ele>
        <time>2020-01-18T09:27:00.153Z</time>
      </trkpt>
      <trkpt lat="37.27079167" lon="-7.08540333">
        <ele>85.0</ele>
        <time>2020-01-18T09:27:01.157Z</time>
      </trkpt>
      <trkpt lat="37.27076833" lon="-7.08542333">
        <ele>85.0</ele>
        <time>2020-01-18T09:27:02.160Z</time>
      </trkpt>
      <trkpt lat="37.27076833" lon="-7.08542333">
        <ele>85.0</ele>
        <time>2020-01-18T09:27:03.166Z</time>
      </trkpt>
      <trkpt lat="37.27072667" lon="-7.085485">
        <ele>84.0</ele>
        <time>2020-01-18T09:27:04.167Z</time>
      </trkpt>
      <trkpt lat="37.270705" lon="-7.08551">
        <ele>84.0</ele>
        <time>2020-01-18T09:27:05.133Z</time>
      </trkpt>
      <trkpt lat="37.270705" lon="-7.08551">
        <ele>84.0</ele>
        <time>2020-01-18T09:27:06.144Z</time>
      </trkpt>
      <trkpt lat="37.27066667" lon="-7.08554">
        <ele>83.0</ele>
        <time>2020-01-18T09:27:07.161Z</time>
      </trkpt>
      <trkpt lat="37.27064833" lon="-7.085545">
        <ele>83.0</ele>
        <time>2020-01-18T09:27:08.155Z</time>
      </trkpt>
      <trkpt lat="37.27064833" lon="-7.085545">
        <ele>83.0</ele>
        <time>2020-01-18T09:27:09.161Z</time>
      </trkpt>
      <trkpt lat="37.27061333" lon="-7.085545">
        <ele>82.0</ele>
        <time>2020-01-18T09:27:10.141Z</time>
      </trkpt>
      <trkpt lat="37.27061333" lon="-7.085545">
        <ele>82.0</ele>
        <time>2020-01-18T09:27:11.146Z</time>
      </trkpt>
      <trkpt lat="37.270585" lon="-7.08556333">
        <ele>80.0</ele>
        <time>2020-01-18T09:27:12.131Z</time>
      </trkpt>
      <trkpt lat="37.27057" lon="-7.08557333">
        <ele>80.0</ele>
        <time>2020-01-18T09:27:13.142Z</time>
      </trkpt>
      <trkpt lat="37.27055167" lon="-7.08558">
        <ele>80.0</ele>
        <time>2020-01-18T09:27:14.151Z</time>
      </trkpt>
      <trkpt lat="37.27055167" lon="-7.08558">
        <ele>80.0</ele>
        <time>2020-01-18T09:27:15.156Z</time>
      </trkpt>
      <trkpt lat="37.270505" lon="-7.085585">
        <ele>79.0</ele>
        <time>2020-01-18T09:27:16.164Z</time>
      </trkpt>
      <trkpt lat="37.270505" lon="-7.085585">
        <ele>79.0</ele>
        <time>2020-01-18T09:27:17.138Z</time>
      </trkpt>
      <trkpt lat="37.270465" lon="-7.08561">
        <ele>79.0</ele>
        <time>2020-01-18T09:27:18.155Z</time>
      </trkpt>
      <trkpt lat="37.270465" lon="-7.08561">
        <ele>79.0</ele>
        <time>2020-01-18T09:27:19.130Z</time>
      </trkpt>
      <trkpt lat="37.27043667" lon="-7.08562167">
        <ele>78.0</ele>
        <time>2020-01-18T09:27:20.148Z</time>
      </trkpt>
      <trkpt lat="37.27043667" lon="-7.08562167">
        <ele>78.0</ele>
        <time>2020-01-18T09:27:21.154Z</time>
      </trkpt>
      <trkpt lat="37.27041333" lon="-7.08566167">
        <ele>77.0</ele>
        <time>2020-01-18T09:27:22.129Z</time>
      </trkpt>
      <trkpt lat="37.27041333" lon="-7.08566167">
        <ele>77.0</ele>
        <time>2020-01-18T09:27:23.143Z</time>
      </trkpt>
      <trkpt lat="37.27038833" lon="-7.08572333">
        <ele>76.0</ele>
        <time>2020-01-18T09:27:24.153Z</time>
      </trkpt>
      <trkpt lat="37.27038833" lon="-7.08572333">
        <ele>76.0</ele>
        <time>2020-01-18T09:27:25.166Z</time>
      </trkpt>
      <trkpt lat="37.27038" lon="-7.08577833">
        <ele>75.0</ele>
        <time>2020-01-18T09:27:26.157Z</time>
      </trkpt>
      <trkpt lat="37.27038" lon="-7.08577833">
        <ele>75.0</ele>
        <time>2020-01-18T09:27:27.154Z</time>
      </trkpt>
      <trkpt lat="37.27034667" lon="-7.085805">
        <ele>75.0</ele>
        <time>2020-01-18T09:27:28.149Z</time>
      </trkpt>
      <trkpt lat="37.27034667" lon="-7.085805">
        <ele>75.0</ele>
        <time>2020-01-18T09:27:29.155Z</time>
      </trkpt>
      <trkpt lat="37.2703" lon="-7.08581667">
        <ele>74.0</ele>
        <time>2020-01-18T09:27:30.129Z</time>
      </trkpt>
      <trkpt lat="37.2703" lon="-7.08581667">
        <ele>74.0</ele>
        <time>2020-01-18T09:27:31.157Z</time>
      </trkpt>
      <trkpt lat="37.27024333" lon="-7.085835">
        <ele>74.0</ele>
        <time>2020-01-18T09:27:32.138Z</time>
      </trkpt>
      <trkpt lat="37.27024333" lon="-7.085835">
        <ele>74.0</ele>
        <time>2020-01-18T09:27:33.148Z</time>
      </trkpt>
      <trkpt lat="37.27018" lon="-7.08586">
        <ele>74.0</ele>
        <time>2020-01-18T09:27:34.157Z</time>
      </trkpt>
      <trkpt lat="37.27018" lon="-7.08586">
        <ele>74.0</ele>
        <time>2020-01-18T09:27:35.165Z</time>
      </trkpt>
      <trkpt lat="37.27013167" lon="-7.08590333">
        <ele>73.0</ele>
        <time>2020-01-18T09:27:36.158Z</time>
      </trkpt>
      <trkpt lat="37.27011" lon="-7.085925">
        <ele>73.0</ele>
        <time>2020-01-18T09:27:37.132Z</time>
      </trkpt>
      <trkpt lat="37.27011" lon="-7.085925">
        <ele>73.0</ele>
        <time>2020-01-18T09:27:38.146Z</time>
      </trkpt>
      <trkpt lat="37.27006667" lon="-7.08599833">
        <ele>72.0</ele>
        <time>2020-01-18T09:27:39.153Z</time>
      </trkpt>
      <trkpt lat="37.270045" lon="-7.08603167">
        <ele>72.0</ele>
        <time>2020-01-18T09:27:40.130Z</time>
      </trkpt>
      <trkpt lat="37.27002333" lon="-7.08606333">
        <ele>72.0</ele>
        <time>2020-01-18T09:27:41.157Z</time>
      </trkpt>
      <trkpt lat="37.27" lon="-7.08609667">
        <ele>72.0</ele>
        <time>2020-01-18T09:27:42.146Z</time>
      </trkpt>
      <trkpt lat="37.26998167" lon="-7.08613333">
        <ele>71.0</ele>
        <time>2020-01-18T09:27:43.159Z</time>
      </trkpt>
      <trkpt lat="37.26998167" lon="-7.08613333">
        <ele>71.0</ele>
        <time>2020-01-18T09:27:44.165Z</time>
      </trkpt>
      <trkpt lat="37.26993167" lon="-7.08618667">
        <ele>71.0</ele>
        <time>2020-01-18T09:27:45.159Z</time>
      </trkpt>
      <trkpt lat="37.26993167" lon="-7.08618667">
        <ele>71.0</ele>
        <time>2020-01-18T09:27:46.166Z</time>
      </trkpt>
      <trkpt lat="37.269905" lon="-7.08624167">
        <ele>71.0</ele>
        <time>2020-01-18T09:27:47.136Z</time>
      </trkpt>
      <trkpt lat="37.269905" lon="-7.08624167">
        <ele>71.0</ele>
        <time>2020-01-18T09:27:48.149Z</time>
      </trkpt>
      <trkpt lat="37.26988667" lon="-7.086305">
        <ele>71.0</ele>
        <time>2020-01-18T09:27:49.160Z</time>
      </trkpt>
      <trkpt lat="37.26988667" lon="-7.086305">
        <ele>71.0</ele>
        <time>2020-01-18T09:27:50.132Z</time>
      </trkpt>
      <trkpt lat="37.26985" lon="-7.086355">
        <ele>70.0</ele>
        <time>2020-01-18T09:27:51.147Z</time>
      </trkpt>
      <trkpt lat="37.269825" lon="-7.08638167">
        <ele>70.0</ele>
        <time>2020-01-18T09:27:52.160Z</time>
      </trkpt>
      <trkpt lat="37.269825" lon="-7.08638167">
        <ele>70.0</ele>
        <time>2020-01-18T09:27:53.129Z</time>
      </trkpt>
      <trkpt lat="37.269775" lon="-7.08644667">
        <ele>70.0</ele>
        <time>2020-01-18T09:27:54.157Z</time>
      </trkpt>
      <trkpt lat="37.269775" lon="-7.08644667">
        <ele>70.0</ele>
        <time>2020-01-18T09:27:55.132Z</time>
      </trkpt>
      <trkpt lat="37.26971833" lon="-7.08650667">
        <ele>70.0</ele>
        <time>2020-01-18T09:27:56.143Z</time>
      </trkpt>
      <trkpt lat="37.26971833" lon="-7.08650667">
        <ele>70.0</ele>
        <time>2020-01-18T09:27:57.149Z</time>
      </trkpt>
      <trkpt lat="37.26964167" lon="-7.08658333">
        <ele>69.0</ele>
        <time>2020-01-18T09:27:58.160Z</time>
      </trkpt>
      <trkpt lat="37.2696" lon="-7.08663333">
        <ele>69.0</ele>
        <time>2020-01-18T09:27:59.162Z</time>
      </trkpt>
      <trkpt lat="37.2696" lon="-7.08663333">
        <ele>69.0</ele>
        <time>2020-01-18T09:28:00.129Z</time>
      </trkpt>
      <trkpt lat="37.26951667" lon="-7.08672333">
        <ele>69.0</ele>
        <time>2020-01-18T09:28:01.139Z</time>
      </trkpt>
      <trkpt lat="37.26947833" lon="-7.086775">
        <ele>68.0</ele>
        <time>2020-01-18T09:28:02.149Z</time>
      </trkpt>
      <trkpt lat="37.26947833" lon="-7.086775">
        <ele>68.0</ele>
        <time>2020-01-18T09:28:03.155Z</time>
      </trkpt>
      <trkpt lat="37.26939667" lon="-7.08688">
        <ele>68.0</ele>
        <time>2020-01-18T09:28:04.129Z</time>
      </trkpt>
      <trkpt lat="37.26939667" lon="-7.08688">
        <ele>68.0</ele>
        <time>2020-01-18T09:28:05.147Z</time>
      </trkpt>
      <trkpt lat="37.269305" lon="-7.08695833">
        <ele>68.0</ele>
        <time>2020-01-18T09:28:06.168Z</time>
      </trkpt>
      <trkpt lat="37.269305" lon="-7.08695833">
        <ele>68.0</ele>
        <time>2020-01-18T09:28:07.134Z</time>
      </trkpt>
      <trkpt lat="37.26921833" lon="-7.08703833">
        <ele>67.0</ele>
        <time>2020-01-18T09:28:08.153Z</time>
      </trkpt>
      <trkpt lat="37.26921833" lon="-7.08703833">
        <ele>67.0</ele>
        <time>2020-01-18T09:28:09.163Z</time>
      </trkpt>
      <trkpt lat="37.26915" lon="-7.08712833">
        <ele>67.0</ele>
        <time>2020-01-18T09:28:10.132Z</time>
      </trkpt>
      <trkpt lat="37.26915" lon="-7.08712833">
        <ele>67.0</ele>
        <time>2020-01-18T09:28:11.141Z</time>
      </trkpt>
      <trkpt lat="37.26906667" lon="-7.08718833">
        <ele>66.0</ele>
        <time>2020-01-18T09:28:12.157Z</time>
      </trkpt>
      <trkpt lat="37.26906667" lon="-7.08718833">
        <ele>66.0</ele>
        <time>2020-01-18T09:28:13.163Z</time>
      </trkpt>
      <trkpt lat="37.268995" lon="-7.08723167">
        <ele>66.0</ele>
        <time>2020-01-18T09:28:14.149Z</time>
      </trkpt>
      <trkpt lat="37.268995" lon="-7.08723167">
        <ele>66.0</ele>
        <time>2020-01-18T09:28:15.156Z</time>
      </trkpt>
      <trkpt lat="37.26894" lon="-7.0873">
        <ele>65.0</ele>
        <time>2020-01-18T09:28:16.147Z</time>
      </trkpt>
      <trkpt lat="37.26891667" lon="-7.08734">
        <ele>65.0</ele>
        <time>2020-01-18T09:28:17.133Z</time>
      </trkpt>
      <trkpt lat="37.26891667" lon="-7.08734">
        <ele>65.0</ele>
        <time>2020-01-18T09:28:18.140Z</time>
      </trkpt>
      <trkpt lat="37.26886" lon="-7.08741667">
        <ele>65.0</ele>
        <time>2020-01-18T09:28:19.148Z</time>
      </trkpt>
      <trkpt lat="37.26886" lon="-7.08741667">
        <ele>65.0</ele>
        <time>2020-01-18T09:28:20.154Z</time>
      </trkpt>
      <trkpt lat="37.26883333" lon="-7.08746667">
        <ele>64.0</ele>
        <time>2020-01-18T09:28:21.149Z</time>
      </trkpt>
      <trkpt lat="37.26883333" lon="-7.08746667">
        <ele>64.0</ele>
        <time>2020-01-18T09:28:22.155Z</time>
      </trkpt>
      <trkpt lat="37.26882667" lon="-7.08746833">
        <ele>64.0</ele>
        <time>2020-01-18T09:28:23.130Z</time>
      </trkpt>
      <trkpt lat="37.26882667" lon="-7.08746833">
        <ele>64.0</ele>
        <time>2020-01-18T09:28:24.136Z</time>
      </trkpt>
      <trkpt lat="37.26864167" lon="-7.08765667">
        <ele>61.0</ele>
        <time>2020-01-18T09:28:25.153Z</time>
      </trkpt>
      <trkpt lat="37.26864167" lon="-7.08765667">
        <ele>61.0</ele>
        <time>2020-01-18T09:28:26.159Z</time>
      </trkpt>
      <trkpt lat="37.268575" lon="-7.08766167">
        <ele>61.0</ele>
        <time>2020-01-18T09:28:27.166Z</time>
      </trkpt>
      <trkpt lat="37.26854167" lon="-7.087665">
        <ele>60.0</ele>
        <time>2020-01-18T09:28:28.149Z</time>
      </trkpt>
      <trkpt lat="37.268515" lon="-7.08767667">
        <ele>60.0</ele>
        <time>2020-01-18T09:28:29.147Z</time>
      </trkpt>
      <trkpt lat="37.268515" lon="-7.08767667">
        <ele>60.0</ele>
        <time>2020-01-18T09:28:30.152Z</time>
      </trkpt>
      <trkpt lat="37.26848" lon="-7.08772">
        <ele>60.0</ele>
        <time>2020-01-18T09:28:31.139Z</time>
      </trkpt>
      <trkpt lat="37.26847167" lon="-7.08774167">
        <ele>60.0</ele>
        <time>2020-01-18T09:28:32.162Z</time>
      </trkpt>
      <trkpt lat="37.26847" lon="-7.08776333">
        <ele>60.0</ele>
        <time>2020-01-18T09:28:33.129Z</time>
      </trkpt>
      <trkpt lat="37.26847" lon="-7.08776333">
        <ele>60.0</ele>
        <time>2020-01-18T09:28:34.145Z</time>
      </trkpt>
      <trkpt lat="37.26847667" lon="-7.08779167">
        <ele>60.0</ele>
        <time>2020-01-18T09:28:35.138Z</time>
      </trkpt>
      <trkpt lat="37.26847667" lon="-7.08779167">
        <ele>60.0</ele>
        <time>2020-01-18T09:28:36.145Z</time>
      </trkpt>
      <trkpt lat="37.26848" lon="-7.08779167">
        <ele>60.0</ele>
        <time>2020-01-18T09:28:37.153Z</time>
      </trkpt>
      <trkpt lat="37.26848" lon="-7.08779167">
        <ele>60.0</ele>
        <time>2020-01-18T09:28:38.136Z</time>
      </trkpt>
      <trkpt lat="37.268445" lon="-7.08807">
        <ele>57.0</ele>
        <time>2020-01-18T09:28:39.152Z</time>
      </trkpt>
      <trkpt lat="37.268445" lon="-7.08807">
        <ele>57.0</ele>
        <time>2020-01-18T09:28:40.131Z</time>
      </trkpt>
      <trkpt lat="37.26841333" lon="-7.088135">
        <ele>57.0</ele>
        <time>2020-01-18T09:28:41.146Z</time>
      </trkpt>
      <trkpt lat="37.26841333" lon="-7.088135">
        <ele>57.0</ele>
        <time>2020-01-18T09:28:42.136Z</time>
      </trkpt>
      <trkpt lat="37.26837333" lon="-7.088185">
        <ele>57.0</ele>
        <time>2020-01-18T09:28:43.137Z</time>
      </trkpt>
      <trkpt lat="37.26837333" lon="-7.088185">
        <ele>57.0</ele>
        <time>2020-01-18T09:28:44.144Z</time>
      </trkpt>
      <trkpt lat="37.26835333" lon="-7.08824167">
        <ele>57.0</ele>
        <time>2020-01-18T09:28:45.136Z</time>
      </trkpt>
      <trkpt lat="37.26835333" lon="-7.08824167">
        <ele>57.0</ele>
        <time>2020-01-18T09:28:46.144Z</time>
      </trkpt>
      <trkpt lat="37.26834333" lon="-7.08829333">
        <ele>56.0</ele>
        <time>2020-01-18T09:28:47.140Z</time>
      </trkpt>
      <trkpt lat="37.26834333" lon="-7.08829333">
        <ele>56.0</ele>
        <time>2020-01-18T09:28:48.147Z</time>
      </trkpt>
      <trkpt lat="37.26831833" lon="-7.08834">
        <ele>56.0</ele>
        <time>2020-01-18T09:28:49.159Z</time>
      </trkpt>
      <trkpt lat="37.26831833" lon="-7.08834">
        <ele>56.0</ele>
        <time>2020-01-18T09:28:50.135Z</time>
      </trkpt>
      <trkpt lat="37.26828333" lon="-7.088395">
        <ele>56.0</ele>
        <time>2020-01-18T09:28:51.160Z</time>
      </trkpt>
      <trkpt lat="37.26828333" lon="-7.088395">
        <ele>56.0</ele>
        <time>2020-01-18T09:28:52.167Z</time>
      </trkpt>
      <trkpt lat="37.26824833" lon="-7.08846333">
        <ele>56.0</ele>
        <time>2020-01-18T09:28:53.134Z</time>
      </trkpt>
      <trkpt lat="37.26824833" lon="-7.08846333">
        <ele>56.0</ele>
        <time>2020-01-18T09:28:54.144Z</time>
      </trkpt>
      <trkpt lat="37.26822167" lon="-7.08852667">
        <ele>56.0</ele>
        <time>2020-01-18T09:28:55.144Z</time>
      </trkpt>
      <trkpt lat="37.26822167" lon="-7.08852667">
        <ele>56.0</ele>
        <time>2020-01-18T09:28:56.150Z</time>
      </trkpt>
      <trkpt lat="37.26818667" lon="-7.08856">
        <ele>56.0</ele>
        <time>2020-01-18T09:28:57.161Z</time>
      </trkpt>
      <trkpt lat="37.26818667" lon="-7.08856">
        <ele>56.0</ele>
        <time>2020-01-18T09:28:58.129Z</time>
      </trkpt>
      <trkpt lat="37.26814333" lon="-7.088595">
        <ele>56.0</ele>
        <time>2020-01-18T09:28:59.134Z</time>
      </trkpt>
      <trkpt lat="37.26814333" lon="-7.088595">
        <ele>56.0</ele>
        <time>2020-01-18T09:29:00.150Z</time>
      </trkpt>
      <trkpt lat="37.268105" lon="-7.08865833">
        <ele>56.0</ele>
        <time>2020-01-18T09:29:01.150Z</time>
      </trkpt>
      <trkpt lat="37.268085" lon="-7.08869333">
        <ele>56.0</ele>
        <time>2020-01-18T09:29:02.157Z</time>
      </trkpt>
      <trkpt lat="37.268085" lon="-7.08869333">
        <ele>56.0</ele>
        <time>2020-01-18T09:29:03.129Z</time>
      </trkpt>
      <trkpt lat="37.26803333" lon="-7.088755">
        <ele>56.0</ele>
        <time>2020-01-18T09:29:04.150Z</time>
      </trkpt>
      <trkpt lat="37.26799833" lon="-7.08877333">
        <ele>56.0</ele>
        <time>2020-01-18T09:29:05.158Z</time>
      </trkpt>
      <trkpt lat="37.26799833" lon="-7.08877333">
        <ele>56.0</ele>
        <time>2020-01-18T09:29:06.164Z</time>
      </trkpt>
      <trkpt lat="37.26793" lon="-7.08881833">
        <ele>56.0</ele>
        <time>2020-01-18T09:29:07.139Z</time>
      </trkpt>
      <trkpt lat="37.26790167" lon="-7.088855">
        <ele>57.0</ele>
        <time>2020-01-18T09:29:08.130Z</time>
      </trkpt>
      <trkpt lat="37.26790167" lon="-7.088855">
        <ele>57.0</ele>
        <time>2020-01-18T09:29:09.136Z</time>
      </trkpt>
      <trkpt lat="37.267845" lon="-7.08895167">
        <ele>57.0</ele>
        <time>2020-01-18T09:29:10.189Z</time>
      </trkpt>
      <trkpt lat="37.267845" lon="-7.08895167">
        <ele>57.0</ele>
        <time>2020-01-18T09:29:11.160Z</time>
      </trkpt>
      <trkpt lat="37.26778833" lon="-7.08902167">
        <ele>57.0</ele>
        <time>2020-01-18T09:29:12.130Z</time>
      </trkpt>
      <trkpt lat="37.26778833" lon="-7.08902167">
        <ele>57.0</ele>
        <time>2020-01-18T09:29:13.136Z</time>
      </trkpt>
      <trkpt lat="37.267705" lon="-7.08910333">
        <ele>57.0</ele>
        <time>2020-01-18T09:29:14.149Z</time>
      </trkpt>
      <trkpt lat="37.26766333" lon="-7.08914167">
        <ele>57.0</ele>
        <time>2020-01-18T09:29:15.156Z</time>
      </trkpt>
      <trkpt lat="37.26766333" lon="-7.08914167">
        <ele>57.0</ele>
        <time>2020-01-18T09:29:16.163Z</time>
      </trkpt>
      <trkpt lat="37.267585" lon="-7.08920167">
        <ele>58.0</ele>
        <time>2020-01-18T09:29:17.133Z</time>
      </trkpt>
      <trkpt lat="37.267585" lon="-7.08920167">
        <ele>58.0</ele>
        <time>2020-01-18T09:29:18.138Z</time>
      </trkpt>
      <trkpt lat="37.26754333" lon="-7.08926333">
        <ele>58.0</ele>
        <time>2020-01-18T09:29:19.150Z</time>
      </trkpt>
      <trkpt lat="37.26754333" lon="-7.08926333">
        <ele>58.0</ele>
        <time>2020-01-18T09:29:20.169Z</time>
      </trkpt>
      <trkpt lat="37.26752667" lon="-7.08934">
        <ele>58.0</ele>
        <time>2020-01-18T09:29:21.141Z</time>
      </trkpt>
      <trkpt lat="37.26752667" lon="-7.08934">
        <ele>58.0</ele>
        <time>2020-01-18T09:29:22.148Z</time>
      </trkpt>
      <trkpt lat="37.26748333" lon="-7.08940833">
        <ele>58.0</ele>
        <time>2020-01-18T09:29:23.161Z</time>
      </trkpt>
      <trkpt lat="37.26748333" lon="-7.08940833">
        <ele>58.0</ele>
        <time>2020-01-18T09:29:24.168Z</time>
      </trkpt>
      <trkpt lat="37.26740833" lon="-7.089465">
        <ele>58.0</ele>
        <time>2020-01-18T09:29:25.136Z</time>
      </trkpt>
      <trkpt lat="37.26737167" lon="-7.089495">
        <ele>58.0</ele>
        <time>2020-01-18T09:29:26.139Z</time>
      </trkpt>
      <trkpt lat="37.26737167" lon="-7.089495">
        <ele>58.0</ele>
        <time>2020-01-18T09:29:27.144Z</time>
      </trkpt>
      <trkpt lat="37.26728167" lon="-7.08950333">
        <ele>59.0</ele>
        <time>2020-01-18T09:29:28.153Z</time>
      </trkpt>
      <trkpt lat="37.26723667" lon="-7.08949667">
        <ele>59.0</ele>
        <time>2020-01-18T09:29:29.139Z</time>
      </trkpt>
      <trkpt lat="37.26723667" lon="-7.08949667">
        <ele>59.0</ele>
        <time>2020-01-18T09:29:30.144Z</time>
      </trkpt>
      <trkpt lat="37.26715667" lon="-7.08950667">
        <ele>59.0</ele>
        <time>2020-01-18T09:29:31.133Z</time>
      </trkpt>
      <trkpt lat="37.26712833" lon="-7.08953333">
        <ele>59.0</ele>
        <time>2020-01-18T09:29:32.147Z</time>
      </trkpt>
      <trkpt lat="37.26710167" lon="-7.08957">
        <ele>59.0</ele>
        <time>2020-01-18T09:29:33.154Z</time>
      </trkpt>
      <trkpt lat="37.26710167" lon="-7.08957">
        <ele>59.0</ele>
        <time>2020-01-18T09:29:34.165Z</time>
      </trkpt>
      <trkpt lat="37.267045" lon="-7.089645">
        <ele>59.0</ele>
        <time>2020-01-18T09:29:35.135Z</time>
      </trkpt>
      <trkpt lat="37.267045" lon="-7.089645">
        <ele>59.0</ele>
        <time>2020-01-18T09:29:36.140Z</time>
      </trkpt>
      <trkpt lat="37.266975" lon="-7.08970167">
        <ele>58.0</ele>
        <time>2020-01-18T09:29:37.139Z</time>
      </trkpt>
      <trkpt lat="37.266975" lon="-7.08970167">
        <ele>58.0</ele>
        <time>2020-01-18T09:29:38.145Z</time>
      </trkpt>
      <trkpt lat="37.26689667" lon="-7.08975667">
        <ele>58.0</ele>
        <time>2020-01-18T09:29:39.137Z</time>
      </trkpt>
      <trkpt lat="37.26684167" lon="-7.08978667">
        <ele>58.0</ele>
        <time>2020-01-18T09:29:40.164Z</time>
      </trkpt>
      <trkpt lat="37.26684167" lon="-7.08978667">
        <ele>58.0</ele>
        <time>2020-01-18T09:29:41.129Z</time>
      </trkpt>
      <trkpt lat="37.26675" lon="-7.08983833">
        <ele>58.0</ele>
        <time>2020-01-18T09:29:42.141Z</time>
      </trkpt>
      <trkpt lat="37.26675" lon="-7.08983833">
        <ele>58.0</ele>
        <time>2020-01-18T09:29:43.146Z</time>
      </trkpt>
      <trkpt lat="37.26666" lon="-7.08988667">
        <ele>59.0</ele>
        <time>2020-01-18T09:29:44.160Z</time>
      </trkpt>
      <trkpt lat="37.26666" lon="-7.08988667">
        <ele>59.0</ele>
        <time>2020-01-18T09:29:45.168Z</time>
      </trkpt>
      <trkpt lat="37.266575" lon="-7.089895">
        <ele>59.0</ele>
        <time>2020-01-18T09:29:46.143Z</time>
      </trkpt>
      <trkpt lat="37.26654167" lon="-7.08987333">
        <ele>59.0</ele>
        <time>2020-01-18T09:29:47.130Z</time>
      </trkpt>
      <trkpt lat="37.26654167" lon="-7.08987333">
        <ele>59.0</ele>
        <time>2020-01-18T09:29:48.135Z</time>
      </trkpt>
      <trkpt lat="37.2665" lon="-7.08981">
        <ele>59.0</ele>
        <time>2020-01-18T09:29:49.144Z</time>
      </trkpt>
      <trkpt lat="37.2665" lon="-7.08981">
        <ele>59.0</ele>
        <time>2020-01-18T09:29:50.150Z</time>
      </trkpt>
      <trkpt lat="37.26646667" lon="-7.08971">
        <ele>59.0</ele>
        <time>2020-01-18T09:29:51.140Z</time>
      </trkpt>
      <trkpt lat="37.26646667" lon="-7.08971">
        <ele>59.0</ele>
        <time>2020-01-18T09:29:52.148Z</time>
      </trkpt>
      <trkpt lat="37.266455" lon="-7.089605">
        <ele>59.0</ele>
        <time>2020-01-18T09:29:53.157Z</time>
      </trkpt>
      <trkpt lat="37.266455" lon="-7.089605">
        <ele>59.0</ele>
        <time>2020-01-18T09:29:54.133Z</time>
      </trkpt>
      <trkpt lat="37.26644333" lon="-7.089495">
        <ele>59.0</ele>
        <time>2020-01-18T09:29:55.139Z</time>
      </trkpt>
      <trkpt lat="37.26644333" lon="-7.089495">
        <ele>59.0</ele>
        <time>2020-01-18T09:29:56.145Z</time>
      </trkpt>
      <trkpt lat="37.26643333" lon="-7.08939167">
        <ele>59.0</ele>
        <time>2020-01-18T09:29:57.167Z</time>
      </trkpt>
      <trkpt lat="37.26642333" lon="-7.08933667">
        <ele>59.0</ele>
        <time>2020-01-18T09:29:58.132Z</time>
      </trkpt>
      <trkpt lat="37.26642333" lon="-7.08933667">
        <ele>59.0</ele>
        <time>2020-01-18T09:29:59.138Z</time>
      </trkpt>
      <trkpt lat="37.26640833" lon="-7.08923">
        <ele>59.0</ele>
        <time>2020-01-18T09:30:00.148Z</time>
      </trkpt>
      <trkpt lat="37.26640833" lon="-7.08923">
        <ele>59.0</ele>
        <time>2020-01-18T09:30:01.166Z</time>
      </trkpt>
      <trkpt lat="37.26639667" lon="-7.08912333">
        <ele>60.0</ele>
        <time>2020-01-18T09:30:02.133Z</time>
      </trkpt>
      <trkpt lat="37.26639667" lon="-7.08912333">
        <ele>60.0</ele>
        <time>2020-01-18T09:30:03.138Z</time>
      </trkpt>
      <trkpt lat="37.266385" lon="-7.089015">
        <ele>60.0</ele>
        <time>2020-01-18T09:30:04.154Z</time>
      </trkpt>
      <trkpt lat="37.266385" lon="-7.089015">
        <ele>60.0</ele>
        <time>2020-01-18T09:30:05.160Z</time>
      </trkpt>
      <trkpt lat="37.26637833" lon="-7.08891333">
        <ele>60.0</ele>
        <time>2020-01-18T09:30:06.159Z</time>
      </trkpt>
      <trkpt lat="37.26637833" lon="-7.08891333">
        <ele>60.0</ele>
        <time>2020-01-18T09:30:07.165Z</time>
      </trkpt>
      <trkpt lat="37.26637" lon="-7.08882167">
        <ele>60.0</ele>
        <time>2020-01-18T09:30:08.160Z</time>
      </trkpt>
      <trkpt lat="37.26637" lon="-7.08882167">
        <ele>60.0</ele>
        <time>2020-01-18T09:30:09.167Z</time>
      </trkpt>
      <trkpt lat="37.26635" lon="-7.08874333">
        <ele>60.0</ele>
        <time>2020-01-18T09:30:10.152Z</time>
      </trkpt>
      <trkpt lat="37.26635" lon="-7.08874333">
        <ele>60.0</ele>
        <time>2020-01-18T09:30:11.158Z</time>
      </trkpt>
      <trkpt lat="37.266295" lon="-7.08866167">
        <ele>60.0</ele>
        <time>2020-01-18T09:30:12.142Z</time>
      </trkpt>
      <trkpt lat="37.266295" lon="-7.08866167">
        <ele>60.0</ele>
        <time>2020-01-18T09:30:13.148Z</time>
      </trkpt>
      <trkpt lat="37.26622333" lon="-7.08857667">
        <ele>60.0</ele>
        <time>2020-01-18T09:30:14.169Z</time>
      </trkpt>
      <trkpt lat="37.26622333" lon="-7.08857667">
        <ele>60.0</ele>
        <time>2020-01-18T09:30:15.141Z</time>
      </trkpt>
      <trkpt lat="37.26619" lon="-7.08849667">
        <ele>61.0</ele>
        <time>2020-01-18T09:30:16.160Z</time>
      </trkpt>
      <trkpt lat="37.26618" lon="-7.08846167">
        <ele>61.0</ele>
        <time>2020-01-18T09:30:17.166Z</time>
      </trkpt>
      <trkpt lat="37.26618" lon="-7.08846167">
        <ele>61.0</ele>
        <time>2020-01-18T09:30:18.131Z</time>
      </trkpt>
      <trkpt lat="37.266135" lon="-7.08839">
        <ele>61.0</ele>
        <time>2020-01-18T09:30:19.129Z</time>
      </trkpt>
      <trkpt lat="37.266135" lon="-7.08839">
        <ele>61.0</ele>
        <time>2020-01-18T09:30:20.134Z</time>
      </trkpt>
      <trkpt lat="37.26607667" lon="-7.088335">
        <ele>62.0</ele>
        <time>2020-01-18T09:30:21.131Z</time>
      </trkpt>
      <trkpt lat="37.26607667" lon="-7.088335">
        <ele>62.0</ele>
        <time>2020-01-18T09:30:22.137Z</time>
      </trkpt>
      <trkpt lat="37.26601667" lon="-7.08827833">
        <ele>62.0</ele>
        <time>2020-01-18T09:30:23.163Z</time>
      </trkpt>
      <trkpt lat="37.26601667" lon="-7.08827833">
        <ele>62.0</ele>
        <time>2020-01-18T09:30:24.130Z</time>
      </trkpt>
      <trkpt lat="37.26596" lon="-7.08820833">
        <ele>62.0</ele>
        <time>2020-01-18T09:30:25.129Z</time>
      </trkpt>
      <trkpt lat="37.26596" lon="-7.08820833">
        <ele>62.0</ele>
        <time>2020-01-18T09:30:26.135Z</time>
      </trkpt>
      <trkpt lat="37.26590167" lon="-7.088135">
        <ele>63.0</ele>
        <time>2020-01-18T09:30:27.152Z</time>
      </trkpt>
      <trkpt lat="37.26590167" lon="-7.088135">
        <ele>63.0</ele>
        <time>2020-01-18T09:30:28.159Z</time>
      </trkpt>
      <trkpt lat="37.26584667" lon="-7.08808">
        <ele>63.0</ele>
        <time>2020-01-18T09:30:29.165Z</time>
      </trkpt>
      <trkpt lat="37.26584667" lon="-7.08808">
        <ele>63.0</ele>
        <time>2020-01-18T09:30:30.131Z</time>
      </trkpt>
      <trkpt lat="37.265775" lon="-7.08806167">
        <ele>64.0</ele>
        <time>2020-01-18T09:30:31.132Z</time>
      </trkpt>
      <trkpt lat="37.265735" lon="-7.08804833">
        <ele>64.0</ele>
        <time>2020-01-18T09:30:32.130Z</time>
      </trkpt>
      <trkpt lat="37.265735" lon="-7.08804833">
        <ele>64.0</ele>
        <time>2020-01-18T09:30:33.136Z</time>
      </trkpt>
      <trkpt lat="37.26564167" lon="-7.08800167">
        <ele>65.0</ele>
        <time>2020-01-18T09:30:34.129Z</time>
      </trkpt>
      <trkpt lat="37.26560167" lon="-7.08797333">
        <ele>65.0</ele>
        <time>2020-01-18T09:30:35.168Z</time>
      </trkpt>
      <trkpt lat="37.26560167" lon="-7.08797333">
        <ele>65.0</ele>
        <time>2020-01-18T09:30:36.133Z</time>
      </trkpt>
      <trkpt lat="37.26554" lon="-7.08791667">
        <ele>65.0</ele>
        <time>2020-01-18T09:30:37.137Z</time>
      </trkpt>
      <trkpt lat="37.265515" lon="-7.08788833">
        <ele>65.0</ele>
        <time>2020-01-18T09:30:38.162Z</time>
      </trkpt>
      <trkpt lat="37.265515" lon="-7.08788833">
        <ele>65.0</ele>
        <time>2020-01-18T09:30:39.129Z</time>
      </trkpt>
      <trkpt lat="37.26542667" lon="-7.08784167">
        <ele>66.0</ele>
        <time>2020-01-18T09:30:40.166Z</time>
      </trkpt>
      <trkpt lat="37.26538667" lon="-7.08782833">
        <ele>66.0</ele>
        <time>2020-01-18T09:30:41.152Z</time>
      </trkpt>
      <trkpt lat="37.26538667" lon="-7.08782833">
        <ele>66.0</ele>
        <time>2020-01-18T09:30:42.157Z</time>
      </trkpt>
      <trkpt lat="37.26530667" lon="-7.08781">
        <ele>66.0</ele>
        <time>2020-01-18T09:30:43.154Z</time>
      </trkpt>
      <trkpt lat="37.26530667" lon="-7.08781">
        <ele>66.0</ele>
        <time>2020-01-18T09:30:44.168Z</time>
      </trkpt>
      <trkpt lat="37.26523667" lon="-7.08781667">
        <ele>67.0</ele>
        <time>2020-01-18T09:30:45.159Z</time>
      </trkpt>
      <trkpt lat="37.265215" lon="-7.08781833">
        <ele>67.0</ele>
        <time>2020-01-18T09:30:46.166Z</time>
      </trkpt>
      <trkpt lat="37.265215" lon="-7.08781833">
        <ele>67.0</ele>
        <time>2020-01-18T09:30:47.132Z</time>
      </trkpt>
      <trkpt lat="37.26515667" lon="-7.087825">
        <ele>68.0</ele>
        <time>2020-01-18T09:30:48.134Z</time>
      </trkpt>
      <trkpt lat="37.26515667" lon="-7.087825">
        <ele>68.0</ele>
        <time>2020-01-18T09:30:49.139Z</time>
      </trkpt>
      <trkpt lat="37.26511167" lon="-7.08783167">
        <ele>68.0</ele>
        <time>2020-01-18T09:30:50.162Z</time>
      </trkpt>
      <trkpt lat="37.26511167" lon="-7.08783167">
        <ele>68.0</ele>
        <time>2020-01-18T09:30:51.130Z</time>
      </trkpt>
      <trkpt lat="37.265075" lon="-7.08782167">
        <ele>69.0</ele>
        <time>2020-01-18T09:30:52.167Z</time>
      </trkpt>
      <trkpt lat="37.26505333" lon="-7.08781167">
        <ele>69.0</ele>
        <time>2020-01-18T09:30:53.162Z</time>
      </trkpt>
      <trkpt lat="37.26503" lon="-7.08780333">
        <ele>69.0</ele>
        <time>2020-01-18T09:30:54.159Z</time>
      </trkpt>
      <trkpt lat="37.26503" lon="-7.08780333">
        <ele>69.0</ele>
        <time>2020-01-18T09:30:55.168Z</time>
      </trkpt>
      <trkpt lat="37.264985" lon="-7.08777833">
        <ele>70.0</ele>
        <time>2020-01-18T09:30:56.163Z</time>
      </trkpt>
      <trkpt lat="37.264985" lon="-7.08777833">
        <ele>70.0</ele>
        <time>2020-01-18T09:30:57.150Z</time>
      </trkpt>
      <trkpt lat="37.264965" lon="-7.08772167">
        <ele>70.0</ele>
        <time>2020-01-18T09:30:58.150Z</time>
      </trkpt>
      <trkpt lat="37.26495833" lon="-7.08768667">
        <ele>70.0</ele>
        <time>2020-01-18T09:30:59.135Z</time>
      </trkpt>
      <trkpt lat="37.26495833" lon="-7.08768667">
        <ele>70.0</ele>
        <time>2020-01-18T09:31:00.142Z</time>
      </trkpt>
      <trkpt lat="37.26494833" lon="-7.08761667">
        <ele>70.0</ele>
        <time>2020-01-18T09:31:01.166Z</time>
      </trkpt>
      <trkpt lat="37.26493833" lon="-7.08758167">
        <ele>71.0</ele>
        <time>2020-01-18T09:31:02.154Z</time>
      </trkpt>
      <trkpt lat="37.26493833" lon="-7.08758167">
        <ele>71.0</ele>
        <time>2020-01-18T09:31:03.161Z</time>
      </trkpt>
      <trkpt lat="37.264895" lon="-7.08751833">
        <ele>71.0</ele>
        <time>2020-01-18T09:31:04.143Z</time>
      </trkpt>
      <trkpt lat="37.26486833" lon="-7.08748667">
        <ele>71.0</ele>
        <time>2020-01-18T09:31:05.137Z</time>
      </trkpt>
      <trkpt lat="37.26486833" lon="-7.08748667">
        <ele>71.0</ele>
        <time>2020-01-18T09:31:06.142Z</time>
      </trkpt>
      <trkpt lat="37.26479333" lon="-7.08744167">
        <ele>72.0</ele>
        <time>2020-01-18T09:31:07.142Z</time>
      </trkpt>
      <trkpt lat="37.26479333" lon="-7.08744167">
        <ele>72.0</ele>
        <time>2020-01-18T09:31:08.147Z</time>
      </trkpt>
      <trkpt lat="37.26471333" lon="-7.08740833">
        <ele>72.0</ele>
        <time>2020-01-18T09:31:09.146Z</time>
      </trkpt>
      <trkpt lat="37.26471333" lon="-7.08740833">
        <ele>72.0</ele>
        <time>2020-01-18T09:31:10.152Z</time>
      </trkpt>
      <trkpt lat="37.26462333" lon="-7.08736167">
        <ele>73.0</ele>
        <time>2020-01-18T09:31:11.148Z</time>
      </trkpt>
      <trkpt lat="37.26457333" lon="-7.08736833">
        <ele>73.0</ele>
        <time>2020-01-18T09:31:12.131Z</time>
      </trkpt>
      <trkpt lat="37.26457333" lon="-7.08736833">
        <ele>73.0</ele>
        <time>2020-01-18T09:31:13.136Z</time>
      </trkpt>
      <trkpt lat="37.264455" lon="-7.08736333">
        <ele>73.0</ele>
        <time>2020-01-18T09:31:14.166Z</time>
      </trkpt>
      <trkpt lat="37.264455" lon="-7.08736333">
        <ele>73.0</ele>
        <time>2020-01-18T09:31:15.132Z</time>
      </trkpt>
      <trkpt lat="37.26434667" lon="-7.08734333">
        <ele>74.0</ele>
        <time>2020-01-18T09:31:16.132Z</time>
      </trkpt>
      <trkpt lat="37.26431" lon="-7.08734667">
        <ele>74.0</ele>
        <time>2020-01-18T09:31:17.142Z</time>
      </trkpt>
      <trkpt lat="37.26431" lon="-7.08734667">
        <ele>74.0</ele>
        <time>2020-01-18T09:31:18.148Z</time>
      </trkpt>
      <trkpt lat="37.26423667" lon="-7.08735667">
        <ele>74.0</ele>
        <time>2020-01-18T09:31:19.139Z</time>
      </trkpt>
      <trkpt lat="37.26420833" lon="-7.08734333">
        <ele>74.0</ele>
        <time>2020-01-18T09:31:20.156Z</time>
      </trkpt>
      <trkpt lat="37.26420833" lon="-7.08734333">
        <ele>74.0</ele>
        <time>2020-01-18T09:31:21.164Z</time>
      </trkpt>
      <trkpt lat="37.264125" lon="-7.087315">
        <ele>74.0</ele>
        <time>2020-01-18T09:31:22.157Z</time>
      </trkpt>
      <trkpt lat="37.26409167" lon="-7.08730167">
        <ele>75.0</ele>
        <time>2020-01-18T09:31:23.154Z</time>
      </trkpt>
      <trkpt lat="37.26409167" lon="-7.08730167">
        <ele>75.0</ele>
        <time>2020-01-18T09:31:24.162Z</time>
      </trkpt>
      <trkpt lat="37.26401833" lon="-7.08726167">
        <ele>75.0</ele>
        <time>2020-01-18T09:31:25.146Z</time>
      </trkpt>
      <trkpt lat="37.26401833" lon="-7.08726167">
        <ele>75.0</ele>
        <time>2020-01-18T09:31:26.151Z</time>
      </trkpt>
      <trkpt lat="37.26396333" lon="-7.087185">
        <ele>76.0</ele>
        <time>2020-01-18T09:31:27.135Z</time>
      </trkpt>
      <trkpt lat="37.26396333" lon="-7.087185">
        <ele>76.0</ele>
        <time>2020-01-18T09:31:28.141Z</time>
      </trkpt>
      <trkpt lat="37.26388833" lon="-7.08710667">
        <ele>76.0</ele>
        <time>2020-01-18T09:31:29.164Z</time>
      </trkpt>
      <trkpt lat="37.26388833" lon="-7.08710667">
        <ele>76.0</ele>
        <time>2020-01-18T09:31:30.130Z</time>
      </trkpt>
      <trkpt lat="37.26383667" lon="-7.08702333">
        <ele>76.0</ele>
        <time>2020-01-18T09:31:31.135Z</time>
      </trkpt>
      <trkpt lat="37.26382" lon="-7.08697667">
        <ele>76.0</ele>
        <time>2020-01-18T09:31:32.130Z</time>
      </trkpt>
      <trkpt lat="37.26382" lon="-7.08697667">
        <ele>76.0</ele>
        <time>2020-01-18T09:31:33.135Z</time>
      </trkpt>
      <trkpt lat="37.26379667" lon="-7.08687667">
        <ele>77.0</ele>
        <time>2020-01-18T09:31:34.165Z</time>
      </trkpt>
      <trkpt lat="37.263785" lon="-7.08682167">
        <ele>77.0</ele>
        <time>2020-01-18T09:31:35.156Z</time>
      </trkpt>
      <trkpt lat="37.263785" lon="-7.08682167">
        <ele>77.0</ele>
        <time>2020-01-18T09:31:36.168Z</time>
      </trkpt>
      <trkpt lat="37.26370833" lon="-7.08670167">
        <ele>77.0</ele>
        <time>2020-01-18T09:31:37.132Z</time>
      </trkpt>
      <trkpt lat="37.26370833" lon="-7.08670167">
        <ele>77.0</ele>
        <time>2020-01-18T09:31:38.138Z</time>
      </trkpt>
      <trkpt lat="37.26364" lon="-7.08660667">
        <ele>78.0</ele>
        <time>2020-01-18T09:31:39.149Z</time>
      </trkpt>
      <trkpt lat="37.26364" lon="-7.08660667">
        <ele>78.0</ele>
        <time>2020-01-18T09:31:40.155Z</time>
      </trkpt>
      <trkpt lat="37.26358333" lon="-7.0865">
        <ele>79.0</ele>
        <time>2020-01-18T09:31:41.142Z</time>
      </trkpt>
      <trkpt lat="37.26358333" lon="-7.0865">
        <ele>79.0</ele>
        <time>2020-01-18T09:31:42.148Z</time>
      </trkpt>
      <trkpt lat="37.26351333" lon="-7.086395">
        <ele>79.0</ele>
        <time>2020-01-18T09:31:43.148Z</time>
      </trkpt>
      <trkpt lat="37.26351333" lon="-7.086395">
        <ele>79.0</ele>
        <time>2020-01-18T09:31:44.154Z</time>
      </trkpt>
      <trkpt lat="37.26342667" lon="-7.08638667">
        <ele>80.0</ele>
        <time>2020-01-18T09:31:45.162Z</time>
      </trkpt>
      <trkpt lat="37.26342667" lon="-7.08638667">
        <ele>80.0</ele>
        <time>2020-01-18T09:31:46.168Z</time>
      </trkpt>
      <trkpt lat="37.26334667" lon="-7.08641">
        <ele>80.0</ele>
        <time>2020-01-18T09:31:47.159Z</time>
      </trkpt>
      <trkpt lat="37.26334667" lon="-7.08641">
        <ele>80.0</ele>
        <time>2020-01-18T09:31:48.168Z</time>
      </trkpt>
      <trkpt lat="37.263235" lon="-7.08640833">
        <ele>80.0</ele>
        <time>2020-01-18T09:31:49.129Z</time>
      </trkpt>
      <trkpt lat="37.263235" lon="-7.08640833">
        <ele>80.0</ele>
        <time>2020-01-18T09:31:50.134Z</time>
      </trkpt>
      <trkpt lat="37.26313167" lon="-7.08641833">
        <ele>81.0</ele>
        <time>2020-01-18T09:31:51.164Z</time>
      </trkpt>
      <trkpt lat="37.263095" lon="-7.08644">
        <ele>81.0</ele>
        <time>2020-01-18T09:31:52.157Z</time>
      </trkpt>
      <trkpt lat="37.26305667" lon="-7.08645667">
        <ele>81.0</ele>
        <time>2020-01-18T09:31:53.150Z</time>
      </trkpt>
      <trkpt lat="37.26305667" lon="-7.08645667">
        <ele>81.0</ele>
        <time>2020-01-18T09:31:54.156Z</time>
      </trkpt>
      <trkpt lat="37.26297667" lon="-7.086485">
        <ele>81.0</ele>
        <time>2020-01-18T09:31:55.160Z</time>
      </trkpt>
      <trkpt lat="37.26297667" lon="-7.086485">
        <ele>81.0</ele>
        <time>2020-01-18T09:31:56.166Z</time>
      </trkpt>
      <trkpt lat="37.262885" lon="-7.08647833">
        <ele>82.0</ele>
        <time>2020-01-18T09:31:57.150Z</time>
      </trkpt>
      <trkpt lat="37.262885" lon="-7.08647833">
        <ele>82.0</ele>
        <time>2020-01-18T09:31:58.156Z</time>
      </trkpt>
      <trkpt lat="37.26283" lon="-7.0864">
        <ele>82.0</ele>
        <time>2020-01-18T09:31:59.152Z</time>
      </trkpt>
      <trkpt lat="37.26283" lon="-7.0864">
        <ele>82.0</ele>
        <time>2020-01-18T09:32:00.140Z</time>
      </trkpt>
      <trkpt lat="37.26275333" lon="-7.08636667">
        <ele>83.0</ele>
        <time>2020-01-18T09:32:01.130Z</time>
      </trkpt>
      <trkpt lat="37.26275333" lon="-7.08636667">
        <ele>83.0</ele>
        <time>2020-01-18T09:32:02.136Z</time>
      </trkpt>
      <trkpt lat="37.26267167" lon="-7.08638">
        <ele>83.0</ele>
        <time>2020-01-18T09:32:03.162Z</time>
      </trkpt>
      <trkpt lat="37.26267167" lon="-7.08638">
        <ele>83.0</ele>
        <time>2020-01-18T09:32:04.168Z</time>
      </trkpt>
      <trkpt lat="37.26261167" lon="-7.08644333">
        <ele>83.0</ele>
        <time>2020-01-18T09:32:05.166Z</time>
      </trkpt>
      <trkpt lat="37.26261167" lon="-7.08644333">
        <ele>83.0</ele>
        <time>2020-01-18T09:32:06.132Z</time>
      </trkpt>
      <trkpt lat="37.26256" lon="-7.08653333">
        <ele>83.0</ele>
        <time>2020-01-18T09:32:07.160Z</time>
      </trkpt>
      <trkpt lat="37.26256" lon="-7.08653333">
        <ele>83.0</ele>
        <time>2020-01-18T09:32:08.167Z</time>
      </trkpt>
      <trkpt lat="37.262485" lon="-7.08654333">
        <ele>83.0</ele>
        <time>2020-01-18T09:32:09.129Z</time>
      </trkpt>
      <trkpt lat="37.26244667" lon="-7.08653667">
        <ele>83.0</ele>
        <time>2020-01-18T09:32:10.134Z</time>
      </trkpt>
      <trkpt lat="37.26244667" lon="-7.08653667">
        <ele>83.0</ele>
        <time>2020-01-18T09:32:11.140Z</time>
      </trkpt>
      <trkpt lat="37.26236667" lon="-7.08653167">
        <ele>83.0</ele>
        <time>2020-01-18T09:32:12.139Z</time>
      </trkpt>
      <trkpt lat="37.26232667" lon="-7.08652667">
        <ele>83.0</ele>
        <time>2020-01-18T09:32:13.147Z</time>
      </trkpt>
      <trkpt lat="37.26232667" lon="-7.08652667">
        <ele>83.0</ele>
        <time>2020-01-18T09:32:14.152Z</time>
      </trkpt>
      <trkpt lat="37.26222667" lon="-7.08652667">
        <ele>83.0</ele>
        <time>2020-01-18T09:32:15.165Z</time>
      </trkpt>
      <trkpt lat="37.26222667" lon="-7.08652667">
        <ele>83.0</ele>
        <time>2020-01-18T09:32:16.131Z</time>
      </trkpt>
      <trkpt lat="37.26218" lon="-7.08648667">
        <ele>83.0</ele>
        <time>2020-01-18T09:32:17.129Z</time>
      </trkpt>
      <trkpt lat="37.26218" lon="-7.08648667">
        <ele>83.0</ele>
        <time>2020-01-18T09:32:18.134Z</time>
      </trkpt>
      <trkpt lat="37.26214167" lon="-7.08643333">
        <ele>82.0</ele>
        <time>2020-01-18T09:32:19.129Z</time>
      </trkpt>
      <trkpt lat="37.26214167" lon="-7.08643333">
        <ele>82.0</ele>
        <time>2020-01-18T09:32:20.134Z</time>
      </trkpt>
      <trkpt lat="37.26213667" lon="-7.08635333">
        <ele>82.0</ele>
        <time>2020-01-18T09:32:21.164Z</time>
      </trkpt>
      <trkpt lat="37.26213833" lon="-7.08631">
        <ele>81.0</ele>
        <time>2020-01-18T09:32:22.149Z</time>
      </trkpt>
      <trkpt lat="37.26213833" lon="-7.08631">
        <ele>81.0</ele>
        <time>2020-01-18T09:32:23.154Z</time>
      </trkpt>
      <trkpt lat="37.26215167" lon="-7.08622333">
        <ele>80.0</ele>
        <time>2020-01-18T09:32:24.149Z</time>
      </trkpt>
      <trkpt lat="37.262145" lon="-7.08618167">
        <ele>80.0</ele>
        <time>2020-01-18T09:32:25.144Z</time>
      </trkpt>
      <trkpt lat="37.262145" lon="-7.08618167">
        <ele>80.0</ele>
        <time>2020-01-18T09:32:26.151Z</time>
      </trkpt>
      <trkpt lat="37.262115" lon="-7.0861">
        <ele>80.0</ele>
        <time>2020-01-18T09:32:27.150Z</time>
      </trkpt>
      <trkpt lat="37.262115" lon="-7.0861">
        <ele>80.0</ele>
        <time>2020-01-18T09:32:28.156Z</time>
      </trkpt>
      <trkpt lat="37.26207833" lon="-7.08602667">
        <ele>80.0</ele>
        <time>2020-01-18T09:32:29.154Z</time>
      </trkpt>
      <trkpt lat="37.26207833" lon="-7.08602667">
        <ele>80.0</ele>
        <time>2020-01-18T09:32:30.160Z</time>
      </trkpt>
      <trkpt lat="37.26204667" lon="-7.08594833">
        <ele>80.0</ele>
        <time>2020-01-18T09:32:31.133Z</time>
      </trkpt>
      <trkpt lat="37.262035" lon="-7.08591167">
        <ele>80.0</ele>
        <time>2020-01-18T09:32:32.141Z</time>
      </trkpt>
      <trkpt lat="37.262035" lon="-7.08591167">
        <ele>80.0</ele>
        <time>2020-01-18T09:32:33.146Z</time>
      </trkpt>
      <trkpt lat="37.262" lon="-7.08583833">
        <ele>80.0</ele>
        <time>2020-01-18T09:32:34.130Z</time>
      </trkpt>
      <trkpt lat="37.26198" lon="-7.08579333">
        <ele>79.0</ele>
        <time>2020-01-18T09:32:35.130Z</time>
      </trkpt>
      <trkpt lat="37.26198" lon="-7.08579333">
        <ele>79.0</ele>
        <time>2020-01-18T09:32:36.130Z</time>
      </trkpt>
      <trkpt lat="37.26194833" lon="-7.085695">
        <ele>79.0</ele>
        <time>2020-01-18T09:32:37.155Z</time>
      </trkpt>
      <trkpt lat="37.26194833" lon="-7.085695">
        <ele>79.0</ele>
        <time>2020-01-18T09:32:38.166Z</time>
      </trkpt>
      <trkpt lat="37.26190833" lon="-7.08558833">
        <ele>78.0</ele>
        <time>2020-01-18T09:32:39.164Z</time>
      </trkpt>
      <trkpt lat="37.26190833" lon="-7.08558833">
        <ele>78.0</ele>
        <time>2020-01-18T09:32:40.129Z</time>
      </trkpt>
      <trkpt lat="37.26187833" lon="-7.08546">
        <ele>77.0</ele>
        <time>2020-01-18T09:32:41.171Z</time>
      </trkpt>
      <trkpt lat="37.26187833" lon="-7.08546">
        <ele>77.0</ele>
        <time>2020-01-18T09:32:42.168Z</time>
      </trkpt>
      <trkpt lat="37.26186" lon="-7.085315">
        <ele>77.0</ele>
        <time>2020-01-18T09:32:43.162Z</time>
      </trkpt>
      <trkpt lat="37.26186" lon="-7.085315">
        <ele>77.0</ele>
        <time>2020-01-18T09:32:44.167Z</time>
      </trkpt>
      <trkpt lat="37.261825" lon="-7.08517333">
        <ele>77.0</ele>
        <time>2020-01-18T09:32:45.138Z</time>
      </trkpt>
      <trkpt lat="37.26179167" lon="-7.0851">
        <ele>76.0</ele>
        <time>2020-01-18T09:32:46.168Z</time>
      </trkpt>
      <trkpt lat="37.26175667" lon="-7.08503333">
        <ele>76.0</ele>
        <time>2020-01-18T09:32:47.155Z</time>
      </trkpt>
      <trkpt lat="37.26175667" lon="-7.08503333">
        <ele>76.0</ele>
        <time>2020-01-18T09:32:48.162Z</time>
      </trkpt>
      <trkpt lat="37.26169333" lon="-7.08488667">
        <ele>76.0</ele>
        <time>2020-01-18T09:32:49.149Z</time>
      </trkpt>
      <trkpt lat="37.26169333" lon="-7.08488667">
        <ele>76.0</ele>
        <time>2020-01-18T09:32:50.154Z</time>
      </trkpt>
      <trkpt lat="37.26164" lon="-7.08474">
        <ele>76.0</ele>
        <time>2020-01-18T09:32:51.142Z</time>
      </trkpt>
      <trkpt lat="37.26161167" lon="-7.08467167">
        <ele>76.0</ele>
        <time>2020-01-18T09:32:52.164Z</time>
      </trkpt>
      <trkpt lat="37.26158" lon="-7.08460833">
        <ele>76.0</ele>
        <time>2020-01-18T09:32:53.163Z</time>
      </trkpt>
      <trkpt lat="37.26158" lon="-7.08460833">
        <ele>76.0</ele>
        <time>2020-01-18T09:32:54.129Z</time>
      </trkpt>
      <trkpt lat="37.261535" lon="-7.08451333">
        <ele>76.0</ele>
        <time>2020-01-18T09:32:55.150Z</time>
      </trkpt>
      <trkpt lat="37.261535" lon="-7.08451333">
        <ele>76.0</ele>
        <time>2020-01-18T09:32:56.155Z</time>
      </trkpt>
      <trkpt lat="37.26149667" lon="-7.08440333">
        <ele>76.0</ele>
        <time>2020-01-18T09:32:57.143Z</time>
      </trkpt>
      <trkpt lat="37.26149667" lon="-7.08440333">
        <ele>76.0</ele>
        <time>2020-01-18T09:32:58.148Z</time>
      </trkpt>
      <trkpt lat="37.261485" lon="-7.08428167">
        <ele>76.0</ele>
        <time>2020-01-18T09:32:59.140Z</time>
      </trkpt>
      <trkpt lat="37.261485" lon="-7.08428167">
        <ele>76.0</ele>
        <time>2020-01-18T09:33:00.145Z</time>
      </trkpt>
      <trkpt lat="37.26144" lon="-7.08416333">
        <ele>76.0</ele>
        <time>2020-01-18T09:33:01.140Z</time>
      </trkpt>
      <trkpt lat="37.261415" lon="-7.08410333">
        <ele>76.0</ele>
        <time>2020-01-18T09:33:02.144Z</time>
      </trkpt>
      <trkpt lat="37.261415" lon="-7.08410333">
        <ele>76.0</ele>
        <time>2020-01-18T09:33:03.168Z</time>
      </trkpt>
      <trkpt lat="37.26139167" lon="-7.08397833">
        <ele>76.0</ele>
        <time>2020-01-18T09:33:04.160Z</time>
      </trkpt>
      <trkpt lat="37.26138" lon="-7.083915">
        <ele>76.0</ele>
        <time>2020-01-18T09:33:05.144Z</time>
      </trkpt>
      <trkpt lat="37.26138" lon="-7.083915">
        <ele>76.0</ele>
        <time>2020-01-18T09:33:06.150Z</time>
      </trkpt>
      <trkpt lat="37.26134833" lon="-7.08378833">
        <ele>75.0</ele>
        <time>2020-01-18T09:33:07.139Z</time>
      </trkpt>
      <trkpt lat="37.26134833" lon="-7.08378833">
        <ele>75.0</ele>
        <time>2020-01-18T09:33:08.144Z</time>
      </trkpt>
      <trkpt lat="37.261305" lon="-7.08365333">
        <ele>76.0</ele>
        <time>2020-01-18T09:33:09.137Z</time>
      </trkpt>
      <trkpt lat="37.261305" lon="-7.08365333">
        <ele>76.0</ele>
        <time>2020-01-18T09:33:10.143Z</time>
      </trkpt>
      <trkpt lat="37.26124" lon="-7.08350333">
        <ele>75.0</ele>
        <time>2020-01-18T09:33:11.129Z</time>
      </trkpt>
      <trkpt lat="37.26124" lon="-7.08350333">
        <ele>75.0</ele>
        <time>2020-01-18T09:33:12.135Z</time>
      </trkpt>
      <trkpt lat="37.26118" lon="-7.08334167">
        <ele>75.0</ele>
        <time>2020-01-18T09:33:13.159Z</time>
      </trkpt>
      <trkpt lat="37.26114667" lon="-7.083265">
        <ele>75.0</ele>
        <time>2020-01-18T09:33:14.152Z</time>
      </trkpt>
      <trkpt lat="37.26114667" lon="-7.083265">
        <ele>75.0</ele>
        <time>2020-01-18T09:33:15.158Z</time>
      </trkpt>
      <trkpt lat="37.26107167" lon="-7.08312833">
        <ele>74.0</ele>
        <time>2020-01-18T09:33:16.149Z</time>
      </trkpt>
      <trkpt lat="37.26103667" lon="-7.08306833">
        <ele>74.0</ele>
        <time>2020-01-18T09:33:17.152Z</time>
      </trkpt>
      <trkpt lat="37.26103667" lon="-7.08306833">
        <ele>74.0</ele>
        <time>2020-01-18T09:33:18.157Z</time>
      </trkpt>
      <trkpt lat="37.26095833" lon="-7.08297167">
        <ele>74.0</ele>
        <time>2020-01-18T09:33:19.162Z</time>
      </trkpt>
      <trkpt lat="37.26095833" lon="-7.08297167">
        <ele>74.0</ele>
        <time>2020-01-18T09:33:20.168Z</time>
      </trkpt>
      <trkpt lat="37.26087833" lon="-7.08291167">
        <ele>74.0</ele>
        <time>2020-01-18T09:33:21.154Z</time>
      </trkpt>
      <trkpt lat="37.26084333" lon="-7.08290833">
        <ele>74.0</ele>
        <time>2020-01-18T09:33:22.151Z</time>
      </trkpt>
      <trkpt lat="37.26084333" lon="-7.08290833">
        <ele>74.0</ele>
        <time>2020-01-18T09:33:23.157Z</time>
      </trkpt>
      <trkpt lat="37.26076333" lon="-7.082945">
        <ele>73.0</ele>
        <time>2020-01-18T09:33:24.139Z</time>
      </trkpt>
      <trkpt lat="37.26076333" lon="-7.082945">
        <ele>73.0</ele>
        <time>2020-01-18T09:33:25.144Z</time>
      </trkpt>
      <trkpt lat="37.2607" lon="-7.08303333">
        <ele>73.0</ele>
        <time>2020-01-18T09:33:26.139Z</time>
      </trkpt>
      <trkpt lat="37.2607" lon="-7.08303333">
        <ele>73.0</ele>
        <time>2020-01-18T09:33:27.144Z</time>
      </trkpt>
      <trkpt lat="37.26064333" lon="-7.08314333">
        <ele>72.0</ele>
        <time>2020-01-18T09:33:28.156Z</time>
      </trkpt>
      <trkpt lat="37.26061833" lon="-7.08321">
        <ele>72.0</ele>
        <time>2020-01-18T09:33:29.141Z</time>
      </trkpt>
      <trkpt lat="37.26061833" lon="-7.08321">
        <ele>72.0</ele>
        <time>2020-01-18T09:33:30.146Z</time>
      </trkpt>
      <trkpt lat="37.26057" lon="-7.08332833">
        <ele>71.0</ele>
        <time>2020-01-18T09:33:31.151Z</time>
      </trkpt>
      <trkpt lat="37.26054167" lon="-7.083385">
        <ele>71.0</ele>
        <time>2020-01-18T09:33:32.151Z</time>
      </trkpt>
      <trkpt lat="37.26054167" lon="-7.083385">
        <ele>71.0</ele>
        <time>2020-01-18T09:33:33.156Z</time>
      </trkpt>
      <trkpt lat="37.26048167" lon="-7.08348">
        <ele>71.0</ele>
        <time>2020-01-18T09:33:34.156Z</time>
      </trkpt>
      <trkpt lat="37.260445" lon="-7.083525">
        <ele>71.0</ele>
        <time>2020-01-18T09:33:35.137Z</time>
      </trkpt>
      <trkpt lat="37.260445" lon="-7.083525">
        <ele>71.0</ele>
        <time>2020-01-18T09:33:36.143Z</time>
      </trkpt>
      <trkpt lat="37.26036" lon="-7.08361333">
        <ele>70.0</ele>
        <time>2020-01-18T09:33:37.162Z</time>
      </trkpt>
      <trkpt lat="37.26036" lon="-7.08361333">
        <ele>70.0</ele>
        <time>2020-01-18T09:33:38.168Z</time>
      </trkpt>
      <trkpt lat="37.26027333" lon="-7.08369833">
        <ele>69.0</ele>
        <time>2020-01-18T09:33:39.159Z</time>
      </trkpt>
      <trkpt lat="37.26027333" lon="-7.08369833">
        <ele>69.0</ele>
        <time>2020-01-18T09:33:40.168Z</time>
      </trkpt>
      <trkpt lat="37.26018333" lon="-7.08381167">
        <ele>68.0</ele>
        <time>2020-01-18T09:33:41.160Z</time>
      </trkpt>
      <trkpt lat="37.26018333" lon="-7.08381167">
        <ele>68.0</ele>
        <time>2020-01-18T09:33:42.167Z</time>
      </trkpt>
      <trkpt lat="37.26007833" lon="-7.083915">
        <ele>67.0</ele>
        <time>2020-01-18T09:33:43.139Z</time>
      </trkpt>
      <trkpt lat="37.260025" lon="-7.08397">
        <ele>67.0</ele>
        <time>2020-01-18T09:33:44.140Z</time>
      </trkpt>
      <trkpt lat="37.25997333" lon="-7.08403667">
        <ele>67.0</ele>
        <time>2020-01-18T09:33:45.136Z</time>
      </trkpt>
      <trkpt lat="37.25997333" lon="-7.08403667">
        <ele>67.0</ele>
        <time>2020-01-18T09:33:46.145Z</time>
      </trkpt>
      <trkpt lat="37.25987833" lon="-7.084185">
        <ele>66.0</ele>
        <time>2020-01-18T09:33:47.145Z</time>
      </trkpt>
      <trkpt lat="37.25987833" lon="-7.084185">
        <ele>66.0</ele>
        <time>2020-01-18T09:33:48.150Z</time>
      </trkpt>
      <trkpt lat="37.25976" lon="-7.08436">
        <ele>66.0</ele>
        <time>2020-01-18T09:33:49.156Z</time>
      </trkpt>
      <trkpt lat="37.25976" lon="-7.08436">
        <ele>66.0</ele>
        <time>2020-01-18T09:33:50.163Z</time>
      </trkpt>
      <trkpt lat="37.25965" lon="-7.08446333">
        <ele>64.0</ele>
        <time>2020-01-18T09:33:51.156Z</time>
      </trkpt>
      <trkpt lat="37.259605" lon="-7.08452333">
        <ele>64.0</ele>
        <time>2020-01-18T09:33:52.148Z</time>
      </trkpt>
      <trkpt lat="37.25956167" lon="-7.08458333">
        <ele>64.0</ele>
        <time>2020-01-18T09:33:53.141Z</time>
      </trkpt>
      <trkpt lat="37.25956167" lon="-7.08458333">
        <ele>64.0</ele>
        <time>2020-01-18T09:33:54.151Z</time>
      </trkpt>
      <trkpt lat="37.25947667" lon="-7.08469667">
        <ele>63.0</ele>
        <time>2020-01-18T09:33:55.139Z</time>
      </trkpt>
      <trkpt lat="37.25942833" lon="-7.08476">
        <ele>63.0</ele>
        <time>2020-01-18T09:33:56.160Z</time>
      </trkpt>
      <trkpt lat="37.259385" lon="-7.08483333">
        <ele>62.0</ele>
        <time>2020-01-18T09:33:57.129Z</time>
      </trkpt>
      <trkpt lat="37.259385" lon="-7.08483333">
        <ele>62.0</ele>
        <time>2020-01-18T09:33:58.135Z</time>
      </trkpt>
      <trkpt lat="37.25931167" lon="-7.08497333">
        <ele>62.0</ele>
        <time>2020-01-18T09:33:59.129Z</time>
      </trkpt>
      <trkpt lat="37.25931167" lon="-7.08497333">
        <ele>62.0</ele>
        <time>2020-01-18T09:34:00.135Z</time>
      </trkpt>
      <trkpt lat="37.25923833" lon="-7.08510833">
        <ele>61.0</ele>
        <time>2020-01-18T09:34:01.147Z</time>
      </trkpt>
      <trkpt lat="37.25923833" lon="-7.08510833">
        <ele>61.0</ele>
        <time>2020-01-18T09:34:02.153Z</time>
      </trkpt>
      <trkpt lat="37.25915167" lon="-7.08524167">
        <ele>61.0</ele>
        <time>2020-01-18T09:34:03.130Z</time>
      </trkpt>
      <trkpt lat="37.25915167" lon="-7.08524167">
        <ele>61.0</ele>
        <time>2020-01-18T09:34:04.136Z</time>
      </trkpt>
      <trkpt lat="37.25906667" lon="-7.08538">
        <ele>60.0</ele>
        <time>2020-01-18T09:34:05.145Z</time>
      </trkpt>
      <trkpt lat="37.25906667" lon="-7.08538">
        <ele>60.0</ele>
        <time>2020-01-18T09:34:06.150Z</time>
      </trkpt>
      <trkpt lat="37.25897333" lon="-7.08547833">
        <ele>60.0</ele>
        <time>2020-01-18T09:34:07.133Z</time>
      </trkpt>
      <trkpt lat="37.25897333" lon="-7.08547833">
        <ele>60.0</ele>
        <time>2020-01-18T09:34:08.140Z</time>
      </trkpt>
      <trkpt lat="37.25888167" lon="-7.08557333">
        <ele>59.0</ele>
        <time>2020-01-18T09:34:09.131Z</time>
      </trkpt>
      <trkpt lat="37.25888167" lon="-7.08557333">
        <ele>59.0</ele>
        <time>2020-01-18T09:34:10.136Z</time>
      </trkpt>
      <trkpt lat="37.25879333" lon="-7.08572333">
        <ele>59.0</ele>
        <time>2020-01-18T09:34:11.161Z</time>
      </trkpt>
      <trkpt lat="37.25879333" lon="-7.08572333">
        <ele>59.0</ele>
        <time>2020-01-18T09:34:12.168Z</time>
      </trkpt>
      <trkpt lat="37.25870167" lon="-7.08584667">
        <ele>58.0</ele>
        <time>2020-01-18T09:34:13.147Z</time>
      </trkpt>
      <trkpt lat="37.25870167" lon="-7.08584667">
        <ele>58.0</ele>
        <time>2020-01-18T09:34:14.152Z</time>
      </trkpt>
      <trkpt lat="37.25862167" lon="-7.08596333">
        <ele>58.0</ele>
        <time>2020-01-18T09:34:15.139Z</time>
      </trkpt>
      <trkpt lat="37.25862167" lon="-7.08596333">
        <ele>58.0</ele>
        <time>2020-01-18T09:34:16.145Z</time>
      </trkpt>
      <trkpt lat="37.258555" lon="-7.08610167">
        <ele>57.0</ele>
        <time>2020-01-18T09:34:17.148Z</time>
      </trkpt>
      <trkpt lat="37.258555" lon="-7.08610167">
        <ele>57.0</ele>
        <time>2020-01-18T09:34:18.154Z</time>
      </trkpt>
      <trkpt lat="37.258485" lon="-7.08624167">
        <ele>56.0</ele>
        <time>2020-01-18T09:34:19.148Z</time>
      </trkpt>
      <trkpt lat="37.258485" lon="-7.08624167">
        <ele>56.0</ele>
        <time>2020-01-18T09:34:20.153Z</time>
      </trkpt>
      <trkpt lat="37.258395" lon="-7.08639833">
        <ele>55.0</ele>
        <time>2020-01-18T09:34:21.152Z</time>
      </trkpt>
      <trkpt lat="37.25835167" lon="-7.08647833">
        <ele>55.0</ele>
        <time>2020-01-18T09:34:22.158Z</time>
      </trkpt>
      <trkpt lat="37.25835167" lon="-7.08647833">
        <ele>55.0</ele>
        <time>2020-01-18T09:34:23.129Z</time>
      </trkpt>
      <trkpt lat="37.25827" lon="-7.08661833">
        <ele>54.0</ele>
        <time>2020-01-18T09:34:24.134Z</time>
      </trkpt>
      <trkpt lat="37.25823833" lon="-7.08669333">
        <ele>54.0</ele>
        <time>2020-01-18T09:34:25.157Z</time>
      </trkpt>
      <trkpt lat="37.25823833" lon="-7.08669333">
        <ele>54.0</ele>
        <time>2020-01-18T09:34:26.168Z</time>
      </trkpt>
      <trkpt lat="37.25817833" lon="-7.08682833">
        <ele>53.0</ele>
        <time>2020-01-18T09:34:27.161Z</time>
      </trkpt>
      <trkpt lat="37.25817833" lon="-7.08682833">
        <ele>53.0</ele>
        <time>2020-01-18T09:34:28.168Z</time>
      </trkpt>
      <trkpt lat="37.25810667" lon="-7.08695167">
        <ele>52.0</ele>
        <time>2020-01-18T09:34:29.132Z</time>
      </trkpt>
      <trkpt lat="37.25810667" lon="-7.08695167">
        <ele>52.0</ele>
        <time>2020-01-18T09:34:30.138Z</time>
      </trkpt>
      <trkpt lat="37.25804167" lon="-7.08708">
        <ele>52.0</ele>
        <time>2020-01-18T09:34:31.168Z</time>
      </trkpt>
      <trkpt lat="37.25801833" lon="-7.08714">
        <ele>52.0</ele>
        <time>2020-01-18T09:34:32.133Z</time>
      </trkpt>
      <trkpt lat="37.25801833" lon="-7.08714">
        <ele>52.0</ele>
        <time>2020-01-18T09:34:33.138Z</time>
      </trkpt>
      <trkpt lat="37.257955" lon="-7.08725833">
        <ele>52.0</ele>
        <time>2020-01-18T09:34:34.139Z</time>
      </trkpt>
      <trkpt lat="37.25792667" lon="-7.08732">
        <ele>52.0</ele>
        <time>2020-01-18T09:34:35.166Z</time>
      </trkpt>
      <trkpt lat="37.25792667" lon="-7.08732">
        <ele>52.0</ele>
        <time>2020-01-18T09:34:36.132Z</time>
      </trkpt>
      <trkpt lat="37.25788667" lon="-7.08744167">
        <ele>51.0</ele>
        <time>2020-01-18T09:34:37.167Z</time>
      </trkpt>
      <trkpt lat="37.257875" lon="-7.08750333">
        <ele>50.0</ele>
        <time>2020-01-18T09:34:38.164Z</time>
      </trkpt>
      <trkpt lat="37.257875" lon="-7.08750333">
        <ele>50.0</ele>
        <time>2020-01-18T09:34:39.130Z</time>
      </trkpt>
      <trkpt lat="37.257825" lon="-7.08760833">
        <ele>50.0</ele>
        <time>2020-01-18T09:34:40.168Z</time>
      </trkpt>
      <trkpt lat="37.25779" lon="-7.08764333">
        <ele>49.0</ele>
        <time>2020-01-18T09:34:41.149Z</time>
      </trkpt>
      <trkpt lat="37.25779" lon="-7.08764333">
        <ele>49.0</ele>
        <time>2020-01-18T09:34:42.154Z</time>
      </trkpt>
      <trkpt lat="37.25769833" lon="-7.08767167">
        <ele>49.0</ele>
        <time>2020-01-18T09:34:43.158Z</time>
      </trkpt>
      <trkpt lat="37.25764167" lon="-7.087675">
        <ele>48.0</ele>
        <time>2020-01-18T09:34:44.150Z</time>
      </trkpt>
      <trkpt lat="37.25764167" lon="-7.087675">
        <ele>48.0</ele>
        <time>2020-01-18T09:34:45.155Z</time>
      </trkpt>
      <trkpt lat="37.257525" lon="-7.08770667">
        <ele>48.0</ele>
        <time>2020-01-18T09:34:46.163Z</time>
      </trkpt>
      <trkpt lat="37.25746667" lon="-7.08772833">
        <ele>47.0</ele>
        <time>2020-01-18T09:34:47.129Z</time>
      </trkpt>
      <trkpt lat="37.25746667" lon="-7.08772833">
        <ele>47.0</ele>
        <time>2020-01-18T09:34:48.149Z</time>
      </trkpt>
      <trkpt lat="37.25736667" lon="-7.08780833">
        <ele>47.0</ele>
        <time>2020-01-18T09:34:49.149Z</time>
      </trkpt>
      <trkpt lat="37.25736667" lon="-7.08780833">
        <ele>47.0</ele>
        <time>2020-01-18T09:34:50.154Z</time>
      </trkpt>
      <trkpt lat="37.25727667" lon="-7.087885">
        <ele>47.0</ele>
        <time>2020-01-18T09:34:51.159Z</time>
      </trkpt>
      <trkpt lat="37.25727667" lon="-7.087885">
        <ele>47.0</ele>
        <time>2020-01-18T09:34:52.166Z</time>
      </trkpt>
      <trkpt lat="37.25722667" lon="-7.08792333">
        <ele>47.0</ele>
        <time>2020-01-18T09:34:53.153Z</time>
      </trkpt>
      <trkpt lat="37.257195" lon="-7.08791833">
        <ele>47.0</ele>
        <time>2020-01-18T09:34:54.144Z</time>
      </trkpt>
      <trkpt lat="37.257195" lon="-7.08791833">
        <ele>47.0</ele>
        <time>2020-01-18T09:34:55.149Z</time>
      </trkpt>
      <trkpt lat="37.25712667" lon="-7.08792167">
        <ele>47.0</ele>
        <time>2020-01-18T09:34:56.152Z</time>
      </trkpt>
      <trkpt lat="37.25712667" lon="-7.08792167">
        <ele>47.0</ele>
        <time>2020-01-18T09:34:57.157Z</time>
      </trkpt>
      <trkpt lat="37.25705333" lon="-7.087945">
        <ele>48.0</ele>
        <time>2020-01-18T09:34:58.141Z</time>
      </trkpt>
      <trkpt lat="37.257015" lon="-7.08795333">
        <ele>48.0</ele>
        <time>2020-01-18T09:34:59.142Z</time>
      </trkpt>
      <trkpt lat="37.257015" lon="-7.08795333">
        <ele>48.0</ele>
        <time>2020-01-18T09:35:00.156Z</time>
      </trkpt>
      <trkpt lat="37.256935" lon="-7.08797333">
        <ele>48.0</ele>
        <time>2020-01-18T09:35:01.147Z</time>
      </trkpt>
      <trkpt lat="37.256935" lon="-7.08797333">
        <ele>48.0</ele>
        <time>2020-01-18T09:35:02.153Z</time>
      </trkpt>
      <trkpt lat="37.25685833" lon="-7.08799667">
        <ele>48.0</ele>
        <time>2020-01-18T09:35:03.159Z</time>
      </trkpt>
      <trkpt lat="37.25685833" lon="-7.08799667">
        <ele>48.0</ele>
        <time>2020-01-18T09:35:04.168Z</time>
      </trkpt>
      <trkpt lat="37.25674667" lon="-7.088005">
        <ele>48.0</ele>
        <time>2020-01-18T09:35:05.165Z</time>
      </trkpt>
      <trkpt lat="37.25674667" lon="-7.088005">
        <ele>48.0</ele>
        <time>2020-01-18T09:35:06.130Z</time>
      </trkpt>
      <trkpt lat="37.256635" lon="-7.08804167">
        <ele>48.0</ele>
        <time>2020-01-18T09:35:07.129Z</time>
      </trkpt>
      <trkpt lat="37.256635" lon="-7.08804167">
        <ele>48.0</ele>
        <time>2020-01-18T09:35:08.134Z</time>
      </trkpt>
      <trkpt lat="37.25654" lon="-7.08810333">
        <ele>48.0</ele>
        <time>2020-01-18T09:35:09.153Z</time>
      </trkpt>
      <trkpt lat="37.25650333" lon="-7.08815333">
        <ele>48.0</ele>
        <time>2020-01-18T09:35:10.144Z</time>
      </trkpt>
      <trkpt lat="37.25645667" lon="-7.08820333">
        <ele>48.0</ele>
        <time>2020-01-18T09:35:11.163Z</time>
      </trkpt>
      <trkpt lat="37.25645667" lon="-7.08820333">
        <ele>48.0</ele>
        <time>2020-01-18T09:35:12.129Z</time>
      </trkpt>
      <trkpt lat="37.25637167" lon="-7.08827833">
        <ele>48.0</ele>
        <time>2020-01-18T09:35:13.167Z</time>
      </trkpt>
      <trkpt lat="37.25637167" lon="-7.08827833">
        <ele>48.0</ele>
        <time>2020-01-18T09:35:14.141Z</time>
      </trkpt>
      <trkpt lat="37.25628333" lon="-7.08833167">
        <ele>48.0</ele>
        <time>2020-01-18T09:35:15.131Z</time>
      </trkpt>
      <trkpt lat="37.25628333" lon="-7.08833167">
        <ele>48.0</ele>
        <time>2020-01-18T09:35:16.136Z</time>
      </trkpt>
      <trkpt lat="37.256175" lon="-7.08834">
        <ele>47.0</ele>
        <time>2020-01-18T09:35:17.160Z</time>
      </trkpt>
      <trkpt lat="37.256175" lon="-7.08834">
        <ele>47.0</ele>
        <time>2020-01-18T09:35:18.168Z</time>
      </trkpt>
      <trkpt lat="37.25605167" lon="-7.08834">
        <ele>47.0</ele>
        <time>2020-01-18T09:35:19.161Z</time>
      </trkpt>
      <trkpt lat="37.25605167" lon="-7.08834">
        <ele>47.0</ele>
        <time>2020-01-18T09:35:20.167Z</time>
      </trkpt>
      <trkpt lat="37.25594333" lon="-7.08840333">
        <ele>47.0</ele>
        <time>2020-01-18T09:35:21.151Z</time>
      </trkpt>
      <trkpt lat="37.25592167" lon="-7.08845167">
        <ele>46.0</ele>
        <time>2020-01-18T09:35:22.138Z</time>
      </trkpt>
      <trkpt lat="37.25592167" lon="-7.08845167">
        <ele>46.0</ele>
        <time>2020-01-18T09:35:23.145Z</time>
      </trkpt>
      <trkpt lat="37.25590333" lon="-7.08855333">
        <ele>46.0</ele>
        <time>2020-01-18T09:35:24.162Z</time>
      </trkpt>
      <trkpt lat="37.255885" lon="-7.08860167">
        <ele>46.0</ele>
        <time>2020-01-18T09:35:25.151Z</time>
      </trkpt>
      <trkpt lat="37.255885" lon="-7.08860167">
        <ele>46.0</ele>
        <time>2020-01-18T09:35:26.164Z</time>
      </trkpt>
      <trkpt lat="37.25582833" lon="-7.08865167">
        <ele>46.0</ele>
        <time>2020-01-18T09:35:27.153Z</time>
      </trkpt>
      <trkpt lat="37.255795" lon="-7.08865667">
        <ele>46.0</ele>
        <time>2020-01-18T09:35:28.142Z</time>
      </trkpt>
      <trkpt lat="37.25575667" lon="-7.08865167">
        <ele>46.0</ele>
        <time>2020-01-18T09:35:29.139Z</time>
      </trkpt>
      <trkpt lat="37.25575667" lon="-7.08865167">
        <ele>46.0</ele>
        <time>2020-01-18T09:35:30.145Z</time>
      </trkpt>
      <trkpt lat="37.25565" lon="-7.08867">
        <ele>46.0</ele>
        <time>2020-01-18T09:35:31.143Z</time>
      </trkpt>
      <trkpt lat="37.25559167" lon="-7.088675">
        <ele>46.0</ele>
        <time>2020-01-18T09:35:32.154Z</time>
      </trkpt>
      <trkpt lat="37.25559167" lon="-7.088675">
        <ele>46.0</ele>
        <time>2020-01-18T09:35:33.160Z</time>
      </trkpt>
      <trkpt lat="37.255475" lon="-7.088645">
        <ele>46.0</ele>
        <time>2020-01-18T09:35:34.146Z</time>
      </trkpt>
      <trkpt lat="37.25542" lon="-7.088645">
        <ele>46.0</ele>
        <time>2020-01-18T09:35:35.139Z</time>
      </trkpt>
      <trkpt lat="37.25542" lon="-7.088645">
        <ele>46.0</ele>
        <time>2020-01-18T09:35:36.144Z</time>
      </trkpt>
      <trkpt lat="37.255315" lon="-7.08865167">
        <ele>46.0</ele>
        <time>2020-01-18T09:35:37.135Z</time>
      </trkpt>
      <trkpt lat="37.255315" lon="-7.08865167">
        <ele>46.0</ele>
        <time>2020-01-18T09:35:38.140Z</time>
      </trkpt>
      <trkpt lat="37.25519667" lon="-7.08866667">
        <ele>46.0</ele>
        <time>2020-01-18T09:35:39.139Z</time>
      </trkpt>
      <trkpt lat="37.25519667" lon="-7.08866667">
        <ele>46.0</ele>
        <time>2020-01-18T09:35:40.144Z</time>
      </trkpt>
      <trkpt lat="37.25508667" lon="-7.088705">
        <ele>45.0</ele>
        <time>2020-01-18T09:35:41.138Z</time>
      </trkpt>
      <trkpt lat="37.25508667" lon="-7.088705">
        <ele>45.0</ele>
        <time>2020-01-18T09:35:42.144Z</time>
      </trkpt>
      <trkpt lat="37.25497833" lon="-7.08875">
        <ele>45.0</ele>
        <time>2020-01-18T09:35:43.166Z</time>
      </trkpt>
      <trkpt lat="37.25492333" lon="-7.08876167">
        <ele>45.0</ele>
        <time>2020-01-18T09:35:44.147Z</time>
      </trkpt>
      <trkpt lat="37.25492333" lon="-7.08876167">
        <ele>45.0</ele>
        <time>2020-01-18T09:35:45.152Z</time>
      </trkpt>
      <trkpt lat="37.25481833" lon="-7.08879">
        <ele>45.0</ele>
        <time>2020-01-18T09:35:46.144Z</time>
      </trkpt>
      <trkpt lat="37.25476667" lon="-7.0888">
        <ele>45.0</ele>
        <time>2020-01-18T09:35:47.139Z</time>
      </trkpt>
      <trkpt lat="37.25476667" lon="-7.0888">
        <ele>45.0</ele>
        <time>2020-01-18T09:35:48.147Z</time>
      </trkpt>
      <trkpt lat="37.25466667" lon="-7.08881833">
        <ele>45.0</ele>
        <time>2020-01-18T09:35:49.159Z</time>
      </trkpt>
      <trkpt lat="37.25466667" lon="-7.08881833">
        <ele>45.0</ele>
        <time>2020-01-18T09:35:50.168Z</time>
      </trkpt>
      <trkpt lat="37.25456833" lon="-7.08884">
        <ele>45.0</ele>
        <time>2020-01-18T09:35:51.152Z</time>
      </trkpt>
      <trkpt lat="37.25450833" lon="-7.08885833">
        <ele>46.0</ele>
        <time>2020-01-18T09:35:52.139Z</time>
      </trkpt>
      <trkpt lat="37.25445167" lon="-7.088875">
        <ele>46.0</ele>
        <time>2020-01-18T09:35:53.130Z</time>
      </trkpt>
      <trkpt lat="37.25445167" lon="-7.088875">
        <ele>46.0</ele>
        <time>2020-01-18T09:35:54.136Z</time>
      </trkpt>
      <trkpt lat="37.25435333" lon="-7.08890667">
        <ele>46.0</ele>
        <time>2020-01-18T09:35:55.162Z</time>
      </trkpt>
      <trkpt lat="37.25435333" lon="-7.08890667">
        <ele>46.0</ele>
        <time>2020-01-18T09:35:56.130Z</time>
      </trkpt>
      <trkpt lat="37.25426833" lon="-7.08894">
        <ele>46.0</ele>
        <time>2020-01-18T09:35:57.155Z</time>
      </trkpt>
      <trkpt lat="37.25426833" lon="-7.08894">
        <ele>46.0</ele>
        <time>2020-01-18T09:35:58.167Z</time>
      </trkpt>
      <trkpt lat="37.25420333" lon="-7.08901667">
        <ele>47.0</ele>
        <time>2020-01-18T09:35:59.162Z</time>
      </trkpt>
      <trkpt lat="37.25420333" lon="-7.08901667">
        <ele>47.0</ele>
        <time>2020-01-18T09:36:00.168Z</time>
      </trkpt>
      <trkpt lat="37.25413167" lon="-7.08910833">
        <ele>46.0</ele>
        <time>2020-01-18T09:36:01.167Z</time>
      </trkpt>
      <trkpt lat="37.25413167" lon="-7.08910833">
        <ele>46.0</ele>
        <time>2020-01-18T09:36:02.133Z</time>
      </trkpt>
      <trkpt lat="37.25404" lon="-7.08916667">
        <ele>47.0</ele>
        <time>2020-01-18T09:36:03.161Z</time>
      </trkpt>
      <trkpt lat="37.25398667" lon="-7.08918">
        <ele>47.0</ele>
        <time>2020-01-18T09:36:04.145Z</time>
      </trkpt>
      <trkpt lat="37.25394333" lon="-7.089185">
        <ele>47.0</ele>
        <time>2020-01-18T09:36:05.141Z</time>
      </trkpt>
      <trkpt lat="37.25394333" lon="-7.089185">
        <ele>47.0</ele>
        <time>2020-01-18T09:36:06.146Z</time>
      </trkpt>
      <trkpt lat="37.253855" lon="-7.089185">
        <ele>47.0</ele>
        <time>2020-01-18T09:36:07.137Z</time>
      </trkpt>
      <trkpt lat="37.253855" lon="-7.089185">
        <ele>47.0</ele>
        <time>2020-01-18T09:36:08.142Z</time>
      </trkpt>
      <trkpt lat="37.25376333" lon="-7.08917833">
        <ele>47.0</ele>
        <time>2020-01-18T09:36:09.167Z</time>
      </trkpt>
      <trkpt lat="37.25376333" lon="-7.08917833">
        <ele>47.0</ele>
        <time>2020-01-18T09:36:10.132Z</time>
      </trkpt>
      <trkpt lat="37.25368333" lon="-7.089145">
        <ele>48.0</ele>
        <time>2020-01-18T09:36:11.165Z</time>
      </trkpt>
      <trkpt lat="37.25368333" lon="-7.089145">
        <ele>48.0</ele>
        <time>2020-01-18T09:36:12.131Z</time>
      </trkpt>
      <trkpt lat="37.253615" lon="-7.089115">
        <ele>48.0</ele>
        <time>2020-01-18T09:36:13.159Z</time>
      </trkpt>
      <trkpt lat="37.253615" lon="-7.089115">
        <ele>48.0</ele>
        <time>2020-01-18T09:36:14.129Z</time>
      </trkpt>
      <trkpt lat="37.25354" lon="-7.08911333">
        <ele>48.0</ele>
        <time>2020-01-18T09:36:15.161Z</time>
      </trkpt>
      <trkpt lat="37.25354" lon="-7.08911333">
        <ele>48.0</ele>
        <time>2020-01-18T09:36:16.129Z</time>
      </trkpt>
      <trkpt lat="37.25345833" lon="-7.08913167">
        <ele>48.0</ele>
        <time>2020-01-18T09:36:17.157Z</time>
      </trkpt>
      <trkpt lat="37.25345833" lon="-7.08913167">
        <ele>48.0</ele>
        <time>2020-01-18T09:36:18.129Z</time>
      </trkpt>
      <trkpt lat="37.25335833" lon="-7.08914333">
        <ele>48.0</ele>
        <time>2020-01-18T09:36:19.166Z</time>
      </trkpt>
      <trkpt lat="37.25335833" lon="-7.08914333">
        <ele>48.0</ele>
        <time>2020-01-18T09:36:20.132Z</time>
      </trkpt>
      <trkpt lat="37.253245" lon="-7.08909333">
        <ele>48.0</ele>
        <time>2020-01-18T09:36:21.166Z</time>
      </trkpt>
      <trkpt lat="37.25318167" lon="-7.08907833">
        <ele>47.0</ele>
        <time>2020-01-18T09:36:22.149Z</time>
      </trkpt>
      <trkpt lat="37.25312333" lon="-7.089085">
        <ele>47.0</ele>
        <time>2020-01-18T09:36:23.138Z</time>
      </trkpt>
      <trkpt lat="37.25312333" lon="-7.089085">
        <ele>47.0</ele>
        <time>2020-01-18T09:36:24.145Z</time>
      </trkpt>
      <trkpt lat="37.25301" lon="-7.08910333">
        <ele>46.0</ele>
        <time>2020-01-18T09:36:25.129Z</time>
      </trkpt>
      <trkpt lat="37.25301" lon="-7.08910333">
        <ele>46.0</ele>
        <time>2020-01-18T09:36:26.134Z</time>
      </trkpt>
      <trkpt lat="37.25294" lon="-7.08919333">
        <ele>46.0</ele>
        <time>2020-01-18T09:36:27.132Z</time>
      </trkpt>
      <trkpt lat="37.25294" lon="-7.08919333">
        <ele>46.0</ele>
        <time>2020-01-18T09:36:28.137Z</time>
      </trkpt>
      <trkpt lat="37.25288167" lon="-7.08928">
        <ele>46.0</ele>
        <time>2020-01-18T09:36:29.162Z</time>
      </trkpt>
      <trkpt lat="37.252845" lon="-7.08931833">
        <ele>46.0</ele>
        <time>2020-01-18T09:36:30.150Z</time>
      </trkpt>
      <trkpt lat="37.252845" lon="-7.08931833">
        <ele>46.0</ele>
        <time>2020-01-18T09:36:31.163Z</time>
      </trkpt>
      <trkpt lat="37.25277167" lon="-7.089385">
        <ele>46.0</ele>
        <time>2020-01-18T09:36:32.157Z</time>
      </trkpt>
      <trkpt lat="37.25277167" lon="-7.089385">
        <ele>46.0</ele>
        <time>2020-01-18T09:36:33.167Z</time>
      </trkpt>
      <trkpt lat="37.25271333" lon="-7.08944167">
        <ele>46.0</ele>
        <time>2020-01-18T09:36:34.159Z</time>
      </trkpt>
      <trkpt lat="37.25266667" lon="-7.08947667">
        <ele>46.0</ele>
        <time>2020-01-18T09:36:35.134Z</time>
      </trkpt>
      <trkpt lat="37.25266667" lon="-7.08947667">
        <ele>46.0</ele>
        <time>2020-01-18T09:36:36.142Z</time>
      </trkpt>
      <trkpt lat="37.25258667" lon="-7.08953833">
        <ele>45.0</ele>
        <time>2020-01-18T09:36:37.144Z</time>
      </trkpt>
      <trkpt lat="37.25258667" lon="-7.08953833">
        <ele>45.0</ele>
        <time>2020-01-18T09:36:38.149Z</time>
      </trkpt>
      <trkpt lat="37.25249833" lon="-7.08960333">
        <ele>45.0</ele>
        <time>2020-01-18T09:36:39.142Z</time>
      </trkpt>
      <trkpt lat="37.25249833" lon="-7.08960333">
        <ele>45.0</ele>
        <time>2020-01-18T09:36:40.148Z</time>
      </trkpt>
      <trkpt lat="37.25240833" lon="-7.08966333">
        <ele>45.0</ele>
        <time>2020-01-18T09:36:41.130Z</time>
      </trkpt>
      <trkpt lat="37.25240833" lon="-7.08966333">
        <ele>45.0</ele>
        <time>2020-01-18T09:36:42.136Z</time>
      </trkpt>
      <trkpt lat="37.252335" lon="-7.08973667">
        <ele>45.0</ele>
        <time>2020-01-18T09:36:43.135Z</time>
      </trkpt>
      <trkpt lat="37.252335" lon="-7.08973667">
        <ele>45.0</ele>
        <time>2020-01-18T09:36:44.140Z</time>
      </trkpt>
      <trkpt lat="37.25227167" lon="-7.08984333">
        <ele>44.0</ele>
        <time>2020-01-18T09:36:45.130Z</time>
      </trkpt>
      <trkpt lat="37.25227167" lon="-7.08984333">
        <ele>44.0</ele>
        <time>2020-01-18T09:36:46.135Z</time>
      </trkpt>
      <trkpt lat="37.25218833" lon="-7.08993667">
        <ele>44.0</ele>
        <time>2020-01-18T09:36:47.140Z</time>
      </trkpt>
      <trkpt lat="37.25218833" lon="-7.08993667">
        <ele>44.0</ele>
        <time>2020-01-18T09:36:48.145Z</time>
      </trkpt>
      <trkpt lat="37.252085" lon="-7.08996833">
        <ele>44.0</ele>
        <time>2020-01-18T09:36:49.141Z</time>
      </trkpt>
      <trkpt lat="37.252085" lon="-7.08996833">
        <ele>44.0</ele>
        <time>2020-01-18T09:36:50.146Z</time>
      </trkpt>
      <trkpt lat="37.25199167" lon="-7.089975">
        <ele>44.0</ele>
        <time>2020-01-18T09:36:51.131Z</time>
      </trkpt>
      <trkpt lat="37.25194333" lon="-7.08998">
        <ele>43.0</ele>
        <time>2020-01-18T09:36:52.167Z</time>
      </trkpt>
      <trkpt lat="37.25194333" lon="-7.08998">
        <ele>43.0</ele>
        <time>2020-01-18T09:36:53.133Z</time>
      </trkpt>
      <trkpt lat="37.25184667" lon="-7.08997833">
        <ele>43.0</ele>
        <time>2020-01-18T09:36:54.135Z</time>
      </trkpt>
      <trkpt lat="37.25184667" lon="-7.08997833">
        <ele>43.0</ele>
        <time>2020-01-18T09:36:55.140Z</time>
      </trkpt>
      <trkpt lat="37.25175167" lon="-7.089955">
        <ele>43.0</ele>
        <time>2020-01-18T09:36:56.143Z</time>
      </trkpt>
      <trkpt lat="37.25175167" lon="-7.089955">
        <ele>43.0</ele>
        <time>2020-01-18T09:36:57.149Z</time>
      </trkpt>
      <trkpt lat="37.251665" lon="-7.08992667">
        <ele>43.0</ele>
        <time>2020-01-18T09:36:58.133Z</time>
      </trkpt>
      <trkpt lat="37.25161833" lon="-7.08992">
        <ele>43.0</ele>
        <time>2020-01-18T09:36:59.161Z</time>
      </trkpt>
      <trkpt lat="37.25161833" lon="-7.08992">
        <ele>43.0</ele>
        <time>2020-01-18T09:37:00.168Z</time>
      </trkpt>
      <trkpt lat="37.25152" lon="-7.08990167">
        <ele>43.0</ele>
        <time>2020-01-18T09:37:01.166Z</time>
      </trkpt>
      <trkpt lat="37.25152" lon="-7.08990167">
        <ele>43.0</ele>
        <time>2020-01-18T09:37:02.131Z</time>
      </trkpt>
      <trkpt lat="37.25142" lon="-7.089865">
        <ele>43.0</ele>
        <time>2020-01-18T09:37:03.160Z</time>
      </trkpt>
      <trkpt lat="37.25137" lon="-7.08983833">
        <ele>43.0</ele>
        <time>2020-01-18T09:37:04.142Z</time>
      </trkpt>
      <trkpt lat="37.25137" lon="-7.08983833">
        <ele>43.0</ele>
        <time>2020-01-18T09:37:05.147Z</time>
      </trkpt>
      <trkpt lat="37.25127667" lon="-7.089795">
        <ele>43.0</ele>
        <time>2020-01-18T09:37:06.147Z</time>
      </trkpt>
      <trkpt lat="37.25127667" lon="-7.089795">
        <ele>43.0</ele>
        <time>2020-01-18T09:37:07.153Z</time>
      </trkpt>
      <trkpt lat="37.25118167" lon="-7.08975167">
        <ele>43.0</ele>
        <time>2020-01-18T09:37:08.138Z</time>
      </trkpt>
      <trkpt lat="37.25118167" lon="-7.08975167">
        <ele>43.0</ele>
        <time>2020-01-18T09:37:09.144Z</time>
      </trkpt>
      <trkpt lat="37.25109167" lon="-7.08970667">
        <ele>43.0</ele>
        <time>2020-01-18T09:37:10.143Z</time>
      </trkpt>
      <trkpt lat="37.25109167" lon="-7.08970667">
        <ele>43.0</ele>
        <time>2020-01-18T09:37:11.148Z</time>
      </trkpt>
      <trkpt lat="37.25100167" lon="-7.08967667">
        <ele>42.0</ele>
        <time>2020-01-18T09:37:12.139Z</time>
      </trkpt>
      <trkpt lat="37.25100167" lon="-7.08967667">
        <ele>42.0</ele>
        <time>2020-01-18T09:37:13.145Z</time>
      </trkpt>
      <trkpt lat="37.25091333" lon="-7.08966">
        <ele>42.0</ele>
        <time>2020-01-18T09:37:14.129Z</time>
      </trkpt>
      <trkpt lat="37.25091333" lon="-7.08966">
        <ele>42.0</ele>
        <time>2020-01-18T09:37:15.141Z</time>
      </trkpt>
      <trkpt lat="37.25082833" lon="-7.08966167">
        <ele>42.0</ele>
        <time>2020-01-18T09:37:16.131Z</time>
      </trkpt>
      <trkpt lat="37.250785" lon="-7.089665">
        <ele>42.0</ele>
        <time>2020-01-18T09:37:17.155Z</time>
      </trkpt>
      <trkpt lat="37.250785" lon="-7.089665">
        <ele>42.0</ele>
        <time>2020-01-18T09:37:18.161Z</time>
      </trkpt>
      <trkpt lat="37.25069667" lon="-7.08968833">
        <ele>41.0</ele>
        <time>2020-01-18T09:37:19.167Z</time>
      </trkpt>
      <trkpt lat="37.25069667" lon="-7.08968833">
        <ele>41.0</ele>
        <time>2020-01-18T09:37:20.132Z</time>
      </trkpt>
      <trkpt lat="37.25062" lon="-7.089725">
        <ele>41.0</ele>
        <time>2020-01-18T09:37:21.160Z</time>
      </trkpt>
      <trkpt lat="37.25062" lon="-7.089725">
        <ele>41.0</ele>
        <time>2020-01-18T09:37:22.130Z</time>
      </trkpt>
      <trkpt lat="37.25056" lon="-7.08979167">
        <ele>41.0</ele>
        <time>2020-01-18T09:37:23.150Z</time>
      </trkpt>
      <trkpt lat="37.25056" lon="-7.08979167">
        <ele>41.0</ele>
        <time>2020-01-18T09:37:24.155Z</time>
      </trkpt>
      <trkpt lat="37.25051167" lon="-7.08989667">
        <ele>40.0</ele>
        <time>2020-01-18T09:37:25.163Z</time>
      </trkpt>
      <trkpt lat="37.25049333" lon="-7.08995167">
        <ele>40.0</ele>
        <time>2020-01-18T09:37:26.153Z</time>
      </trkpt>
      <trkpt lat="37.250475" lon="-7.09001">
        <ele>40.0</ele>
        <time>2020-01-18T09:37:27.144Z</time>
      </trkpt>
      <trkpt lat="37.250475" lon="-7.09001">
        <ele>40.0</ele>
        <time>2020-01-18T09:37:28.149Z</time>
      </trkpt>
      <trkpt lat="37.25040167" lon="-7.09007833">
        <ele>40.0</ele>
        <time>2020-01-18T09:37:29.138Z</time>
      </trkpt>
      <trkpt lat="37.25040167" lon="-7.09007833">
        <ele>40.0</ele>
        <time>2020-01-18T09:37:30.144Z</time>
      </trkpt>
      <trkpt lat="37.25031833" lon="-7.09011833">
        <ele>40.0</ele>
        <time>2020-01-18T09:37:31.139Z</time>
      </trkpt>
      <trkpt lat="37.25027667" lon="-7.09013167">
        <ele>40.0</ele>
        <time>2020-01-18T09:37:32.148Z</time>
      </trkpt>
      <trkpt lat="37.25027667" lon="-7.09013167">
        <ele>40.0</ele>
        <time>2020-01-18T09:37:33.154Z</time>
      </trkpt>
      <trkpt lat="37.25020333" lon="-7.09014667">
        <ele>40.0</ele>
        <time>2020-01-18T09:37:34.135Z</time>
      </trkpt>
      <trkpt lat="37.25017" lon="-7.09015833">
        <ele>40.0</ele>
        <time>2020-01-18T09:37:35.129Z</time>
      </trkpt>
      <trkpt lat="37.25017" lon="-7.09015833">
        <ele>40.0</ele>
        <time>2020-01-18T09:37:36.135Z</time>
      </trkpt>
      <trkpt lat="37.2501" lon="-7.09016833">
        <ele>40.0</ele>
        <time>2020-01-18T09:37:37.148Z</time>
      </trkpt>
      <trkpt lat="37.25006333" lon="-7.09016667">
        <ele>40.0</ele>
        <time>2020-01-18T09:37:38.160Z</time>
      </trkpt>
      <trkpt lat="37.25006333" lon="-7.09016667">
        <ele>40.0</ele>
        <time>2020-01-18T09:37:39.167Z</time>
      </trkpt>
      <trkpt lat="37.24998667" lon="-7.09015833">
        <ele>41.0</ele>
        <time>2020-01-18T09:37:40.164Z</time>
      </trkpt>
      <trkpt lat="37.24998667" lon="-7.09015833">
        <ele>41.0</ele>
        <time>2020-01-18T09:37:41.129Z</time>
      </trkpt>
      <trkpt lat="37.24991" lon="-7.09017">
        <ele>41.0</ele>
        <time>2020-01-18T09:37:42.155Z</time>
      </trkpt>
      <trkpt lat="37.24987333" lon="-7.090195">
        <ele>41.0</ele>
        <time>2020-01-18T09:37:43.148Z</time>
      </trkpt>
      <trkpt lat="37.24987333" lon="-7.090195">
        <ele>41.0</ele>
        <time>2020-01-18T09:37:44.153Z</time>
      </trkpt>
      <trkpt lat="37.24978333" lon="-7.09025">
        <ele>41.0</ele>
        <time>2020-01-18T09:37:45.149Z</time>
      </trkpt>
      <trkpt lat="37.249725" lon="-7.09025667">
        <ele>41.0</ele>
        <time>2020-01-18T09:37:46.155Z</time>
      </trkpt>
      <trkpt lat="37.249675" lon="-7.090235">
        <ele>42.0</ele>
        <time>2020-01-18T09:37:47.129Z</time>
      </trkpt>
      <trkpt lat="37.249675" lon="-7.090235">
        <ele>42.0</ele>
        <time>2020-01-18T09:37:48.142Z</time>
      </trkpt>
      <trkpt lat="37.249595" lon="-7.090165">
        <ele>42.0</ele>
        <time>2020-01-18T09:37:49.166Z</time>
      </trkpt>
      <trkpt lat="37.24956" lon="-7.09013167">
        <ele>42.0</ele>
        <time>2020-01-18T09:37:50.150Z</time>
      </trkpt>
      <trkpt lat="37.24956" lon="-7.09013167">
        <ele>42.0</ele>
        <time>2020-01-18T09:37:51.155Z</time>
      </trkpt>
      <trkpt lat="37.24948333" lon="-7.09009">
        <ele>42.0</ele>
        <time>2020-01-18T09:37:52.144Z</time>
      </trkpt>
      <trkpt lat="37.24944167" lon="-7.09009833">
        <ele>42.0</ele>
        <time>2020-01-18T09:37:53.168Z</time>
      </trkpt>
      <trkpt lat="37.24944167" lon="-7.09009833">
        <ele>42.0</ele>
        <time>2020-01-18T09:37:54.133Z</time>
      </trkpt>
      <trkpt lat="37.24935167" lon="-7.09012">
        <ele>43.0</ele>
        <time>2020-01-18T09:37:55.156Z</time>
      </trkpt>
      <trkpt lat="37.24928833" lon="-7.09014167">
        <ele>43.0</ele>
        <time>2020-01-18T09:37:56.139Z</time>
      </trkpt>
      <trkpt lat="37.24928833" lon="-7.09014167">
        <ele>43.0</ele>
        <time>2020-01-18T09:37:57.145Z</time>
      </trkpt>
      <trkpt lat="37.24916833" lon="-7.09017333">
        <ele>43.0</ele>
        <time>2020-01-18T09:37:58.132Z</time>
      </trkpt>
      <trkpt lat="37.24911" lon="-7.09018833">
        <ele>44.0</ele>
        <time>2020-01-18T09:37:59.167Z</time>
      </trkpt>
      <trkpt lat="37.24911" lon="-7.09018833">
        <ele>44.0</ele>
        <time>2020-01-18T09:38:00.133Z</time>
      </trkpt>
      <trkpt lat="37.24901667" lon="-7.09021333">
        <ele>44.0</ele>
        <time>2020-01-18T09:38:01.130Z</time>
      </trkpt>
      <trkpt lat="37.24897833" lon="-7.09022">
        <ele>44.0</ele>
        <time>2020-01-18T09:38:02.152Z</time>
      </trkpt>
      <trkpt lat="37.24897833" lon="-7.09022">
        <ele>44.0</ele>
        <time>2020-01-18T09:38:03.157Z</time>
      </trkpt>
      <trkpt lat="37.24887833" lon="-7.09019667">
        <ele>44.0</ele>
        <time>2020-01-18T09:38:04.161Z</time>
      </trkpt>
      <trkpt lat="37.24887833" lon="-7.09019667">
        <ele>44.0</ele>
        <time>2020-01-18T09:38:05.130Z</time>
      </trkpt>
      <trkpt lat="37.248775" lon="-7.09019">
        <ele>44.0</ele>
        <time>2020-01-18T09:38:06.145Z</time>
      </trkpt>
      <trkpt lat="37.248775" lon="-7.09019">
        <ele>44.0</ele>
        <time>2020-01-18T09:38:07.141Z</time>
      </trkpt>
      <trkpt lat="37.24867" lon="-7.090205">
        <ele>45.0</ele>
        <time>2020-01-18T09:38:08.133Z</time>
      </trkpt>
      <trkpt lat="37.24867" lon="-7.090205">
        <ele>45.0</ele>
        <time>2020-01-18T09:38:09.138Z</time>
      </trkpt>
      <trkpt lat="37.24857667" lon="-7.090235">
        <ele>45.0</ele>
        <time>2020-01-18T09:38:10.166Z</time>
      </trkpt>
      <trkpt lat="37.24857667" lon="-7.090235">
        <ele>45.0</ele>
        <time>2020-01-18T09:38:11.132Z</time>
      </trkpt>
      <trkpt lat="37.24848833" lon="-7.09024833">
        <ele>45.0</ele>
        <time>2020-01-18T09:38:12.151Z</time>
      </trkpt>
      <trkpt lat="37.24844667" lon="-7.09025">
        <ele>45.0</ele>
        <time>2020-01-18T09:38:13.142Z</time>
      </trkpt>
      <trkpt lat="37.24844667" lon="-7.09025">
        <ele>45.0</ele>
        <time>2020-01-18T09:38:14.148Z</time>
      </trkpt>
      <trkpt lat="37.24835167" lon="-7.09024">
        <ele>46.0</ele>
        <time>2020-01-18T09:38:15.139Z</time>
      </trkpt>
      <trkpt lat="37.24830333" lon="-7.09023333">
        <ele>46.0</ele>
        <time>2020-01-18T09:38:16.145Z</time>
      </trkpt>
      <trkpt lat="37.24830333" lon="-7.09023333">
        <ele>46.0</ele>
        <time>2020-01-18T09:38:17.151Z</time>
      </trkpt>
      <trkpt lat="37.24821167" lon="-7.09023">
        <ele>46.0</ele>
        <time>2020-01-18T09:38:18.147Z</time>
      </trkpt>
      <trkpt lat="37.24821167" lon="-7.09023">
        <ele>46.0</ele>
        <time>2020-01-18T09:38:19.152Z</time>
      </trkpt>
      <trkpt lat="37.24812" lon="-7.09021167">
        <ele>46.0</ele>
        <time>2020-01-18T09:38:20.139Z</time>
      </trkpt>
      <trkpt lat="37.24812" lon="-7.09021167">
        <ele>46.0</ele>
        <time>2020-01-18T09:38:21.145Z</time>
      </trkpt>
      <trkpt lat="37.24803833" lon="-7.090175">
        <ele>46.0</ele>
        <time>2020-01-18T09:38:22.142Z</time>
      </trkpt>
      <trkpt lat="37.248" lon="-7.09015333">
        <ele>46.0</ele>
        <time>2020-01-18T09:38:23.136Z</time>
      </trkpt>
      <trkpt lat="37.248" lon="-7.09015333">
        <ele>46.0</ele>
        <time>2020-01-18T09:38:24.143Z</time>
      </trkpt>
      <trkpt lat="37.24793667" lon="-7.09009833">
        <ele>46.0</ele>
        <time>2020-01-18T09:38:25.148Z</time>
      </trkpt>
      <trkpt lat="37.24793667" lon="-7.09009833">
        <ele>46.0</ele>
        <time>2020-01-18T09:38:26.130Z</time>
      </trkpt>
      <trkpt lat="37.24788333" lon="-7.09005333">
        <ele>46.0</ele>
        <time>2020-01-18T09:38:27.143Z</time>
      </trkpt>
      <trkpt lat="37.24788333" lon="-7.09005333">
        <ele>46.0</ele>
        <time>2020-01-18T09:38:28.148Z</time>
      </trkpt>
      <trkpt lat="37.24784" lon="-7.09003">
        <ele>46.0</ele>
        <time>2020-01-18T09:38:29.139Z</time>
      </trkpt>
      <trkpt lat="37.24784" lon="-7.09003">
        <ele>46.0</ele>
        <time>2020-01-18T09:38:30.145Z</time>
      </trkpt>
      <trkpt lat="37.24781" lon="-7.09002333">
        <ele>46.0</ele>
        <time>2020-01-18T09:38:31.168Z</time>
      </trkpt>
      <trkpt lat="37.247795" lon="-7.09001833">
        <ele>46.0</ele>
        <time>2020-01-18T09:38:32.166Z</time>
      </trkpt>
      <trkpt lat="37.247795" lon="-7.09001833">
        <ele>46.0</ele>
        <time>2020-01-18T09:38:33.131Z</time>
      </trkpt>
      <trkpt lat="37.247765" lon="-7.09000667">
        <ele>46.0</ele>
        <time>2020-01-18T09:38:34.162Z</time>
      </trkpt>
      <trkpt lat="37.24775167" lon="-7.09000333">
        <ele>47.0</ele>
        <time>2020-01-18T09:38:35.158Z</time>
      </trkpt>
      <trkpt lat="37.24775167" lon="-7.09000333">
        <ele>47.0</ele>
        <time>2020-01-18T09:38:36.131Z</time>
      </trkpt>
      <trkpt lat="37.24772" lon="-7.09000667">
        <ele>47.0</ele>
        <time>2020-01-18T09:38:37.140Z</time>
      </trkpt>
      <trkpt lat="37.24772" lon="-7.09000667">
        <ele>47.0</ele>
        <time>2020-01-18T09:38:38.145Z</time>
      </trkpt>
      <trkpt lat="37.24768833" lon="-7.09003">
        <ele>47.0</ele>
        <time>2020-01-18T09:38:39.130Z</time>
      </trkpt>
      <trkpt lat="37.24768833" lon="-7.09003">
        <ele>47.0</ele>
        <time>2020-01-18T09:38:40.135Z</time>
      </trkpt>
      <trkpt lat="37.24765333" lon="-7.09007">
        <ele>47.0</ele>
        <time>2020-01-18T09:38:41.133Z</time>
      </trkpt>
      <trkpt lat="37.24765333" lon="-7.09007">
        <ele>47.0</ele>
        <time>2020-01-18T09:38:42.138Z</time>
      </trkpt>
      <trkpt lat="37.24762167" lon="-7.09013667">
        <ele>47.0</ele>
        <time>2020-01-18T09:38:43.136Z</time>
      </trkpt>
      <trkpt lat="37.24760667" lon="-7.09017333">
        <ele>47.0</ele>
        <time>2020-01-18T09:38:44.166Z</time>
      </trkpt>
      <trkpt lat="37.24760667" lon="-7.09017333">
        <ele>47.0</ele>
        <time>2020-01-18T09:38:45.132Z</time>
      </trkpt>
      <trkpt lat="37.2476" lon="-7.09028">
        <ele>47.0</ele>
        <time>2020-01-18T09:38:46.159Z</time>
      </trkpt>
      <trkpt lat="37.24761" lon="-7.09034167">
        <ele>47.0</ele>
        <time>2020-01-18T09:38:47.136Z</time>
      </trkpt>
      <trkpt lat="37.24761" lon="-7.09034167">
        <ele>47.0</ele>
        <time>2020-01-18T09:38:48.142Z</time>
      </trkpt>
      <trkpt lat="37.24763667" lon="-7.09047">
        <ele>47.0</ele>
        <time>2020-01-18T09:38:49.150Z</time>
      </trkpt>
      <trkpt lat="37.24763667" lon="-7.09047">
        <ele>47.0</ele>
        <time>2020-01-18T09:38:50.155Z</time>
      </trkpt>
      <trkpt lat="37.24763167" lon="-7.09060333">
        <ele>46.0</ele>
        <time>2020-01-18T09:38:51.137Z</time>
      </trkpt>
      <trkpt lat="37.24763167" lon="-7.09060333">
        <ele>46.0</ele>
        <time>2020-01-18T09:38:52.143Z</time>
      </trkpt>
      <trkpt lat="37.24759333" lon="-7.090735">
        <ele>46.0</ele>
        <time>2020-01-18T09:38:53.150Z</time>
      </trkpt>
      <trkpt lat="37.24759333" lon="-7.090735">
        <ele>46.0</ele>
        <time>2020-01-18T09:38:54.156Z</time>
      </trkpt>
      <trkpt lat="37.24751667" lon="-7.09080667">
        <ele>46.0</ele>
        <time>2020-01-18T09:38:55.152Z</time>
      </trkpt>
      <trkpt lat="37.24751667" lon="-7.09080667">
        <ele>46.0</ele>
        <time>2020-01-18T09:38:56.146Z</time>
      </trkpt>
      <trkpt lat="37.24740833" lon="-7.09081667">
        <ele>46.0</ele>
        <time>2020-01-18T09:38:57.157Z</time>
      </trkpt>
      <trkpt lat="37.24733667" lon="-7.09082667">
        <ele>46.0</ele>
        <time>2020-01-18T09:38:58.141Z</time>
      </trkpt>
      <trkpt lat="37.24729667" lon="-7.09081833">
        <ele>46.0</ele>
        <time>2020-01-18T09:38:59.148Z</time>
      </trkpt>
      <trkpt lat="37.24729667" lon="-7.09081833">
        <ele>46.0</ele>
        <time>2020-01-18T09:39:00.153Z</time>
      </trkpt>
      <trkpt lat="37.24721333" lon="-7.09082">
        <ele>46.0</ele>
        <time>2020-01-18T09:39:01.133Z</time>
      </trkpt>
      <trkpt lat="37.24717" lon="-7.09082333">
        <ele>46.0</ele>
        <time>2020-01-18T09:39:02.139Z</time>
      </trkpt>
      <trkpt lat="37.24717" lon="-7.09082333">
        <ele>46.0</ele>
        <time>2020-01-18T09:39:03.145Z</time>
      </trkpt>
      <trkpt lat="37.24707667" lon="-7.09082833">
        <ele>46.0</ele>
        <time>2020-01-18T09:39:04.134Z</time>
      </trkpt>
      <trkpt lat="37.24703" lon="-7.09082667">
        <ele>46.0</ele>
        <time>2020-01-18T09:39:05.141Z</time>
      </trkpt>
      <trkpt lat="37.24703" lon="-7.09082667">
        <ele>46.0</ele>
        <time>2020-01-18T09:39:06.146Z</time>
      </trkpt>
      <trkpt lat="37.24693167" lon="-7.09083833">
        <ele>46.0</ele>
        <time>2020-01-18T09:39:07.135Z</time>
      </trkpt>
      <trkpt lat="37.24688167" lon="-7.09084167">
        <ele>46.0</ele>
        <time>2020-01-18T09:39:08.146Z</time>
      </trkpt>
      <trkpt lat="37.24688167" lon="-7.09084167">
        <ele>46.0</ele>
        <time>2020-01-18T09:39:09.151Z</time>
      </trkpt>
      <trkpt lat="37.24679" lon="-7.09084333">
        <ele>45.0</ele>
        <time>2020-01-18T09:39:10.161Z</time>
      </trkpt>
      <trkpt lat="37.24675167" lon="-7.09084167">
        <ele>45.0</ele>
        <time>2020-01-18T09:39:11.133Z</time>
      </trkpt>
      <trkpt lat="37.24675167" lon="-7.09084167">
        <ele>45.0</ele>
        <time>2020-01-18T09:39:12.138Z</time>
      </trkpt>
      <trkpt lat="37.24668" lon="-7.09085">
        <ele>45.0</ele>
        <time>2020-01-18T09:39:13.146Z</time>
      </trkpt>
      <trkpt lat="37.24664667" lon="-7.09086">
        <ele>45.0</ele>
        <time>2020-01-18T09:39:14.156Z</time>
      </trkpt>
      <trkpt lat="37.24664667" lon="-7.09086">
        <ele>45.0</ele>
        <time>2020-01-18T09:39:15.161Z</time>
      </trkpt>
      <trkpt lat="37.24657333" lon="-7.090865">
        <ele>45.0</ele>
        <time>2020-01-18T09:39:16.158Z</time>
      </trkpt>
      <trkpt lat="37.246535" lon="-7.090845">
        <ele>45.0</ele>
        <time>2020-01-18T09:39:17.129Z</time>
      </trkpt>
      <trkpt lat="37.246535" lon="-7.090845">
        <ele>45.0</ele>
        <time>2020-01-18T09:39:18.134Z</time>
      </trkpt>
      <trkpt lat="37.24645833" lon="-7.09078333">
        <ele>45.0</ele>
        <time>2020-01-18T09:39:19.142Z</time>
      </trkpt>
      <trkpt lat="37.24642167" lon="-7.09075667">
        <ele>45.0</ele>
        <time>2020-01-18T09:39:20.134Z</time>
      </trkpt>
      <trkpt lat="37.24642167" lon="-7.09075667">
        <ele>45.0</ele>
        <time>2020-01-18T09:39:21.139Z</time>
      </trkpt>
      <trkpt lat="37.24635167" lon="-7.09071">
        <ele>45.0</ele>
        <time>2020-01-18T09:39:22.149Z</time>
      </trkpt>
      <trkpt lat="37.24635167" lon="-7.09071">
        <ele>45.0</ele>
        <time>2020-01-18T09:39:23.153Z</time>
      </trkpt>
      <trkpt lat="37.24626833" lon="-7.09067333">
        <ele>45.0</ele>
        <time>2020-01-18T09:39:24.150Z</time>
      </trkpt>
      <trkpt lat="37.24621833" lon="-7.09065667">
        <ele>46.0</ele>
        <time>2020-01-18T09:39:25.156Z</time>
      </trkpt>
      <trkpt lat="37.24621833" lon="-7.09065667">
        <ele>46.0</ele>
        <time>2020-01-18T09:39:26.163Z</time>
      </trkpt>
      <trkpt lat="37.24612333" lon="-7.09062167">
        <ele>46.0</ele>
        <time>2020-01-18T09:39:27.149Z</time>
      </trkpt>
      <trkpt lat="37.24612333" lon="-7.09062167">
        <ele>46.0</ele>
        <time>2020-01-18T09:39:28.157Z</time>
      </trkpt>
      <trkpt lat="37.24603333" lon="-7.09057667">
        <ele>46.0</ele>
        <time>2020-01-18T09:39:29.131Z</time>
      </trkpt>
      <trkpt lat="37.24603333" lon="-7.09057667">
        <ele>46.0</ele>
        <time>2020-01-18T09:39:30.137Z</time>
      </trkpt>
      <trkpt lat="37.24595833" lon="-7.090555">
        <ele>46.0</ele>
        <time>2020-01-18T09:39:31.135Z</time>
      </trkpt>
      <trkpt lat="37.24595833" lon="-7.090555">
        <ele>46.0</ele>
        <time>2020-01-18T09:39:32.143Z</time>
      </trkpt>
      <trkpt lat="37.24588667" lon="-7.09055667">
        <ele>46.0</ele>
        <time>2020-01-18T09:39:33.164Z</time>
      </trkpt>
      <trkpt lat="37.24588667" lon="-7.09055667">
        <ele>46.0</ele>
        <time>2020-01-18T09:39:34.136Z</time>
      </trkpt>
      <trkpt lat="37.24577667" lon="-7.09057667">
        <ele>46.0</ele>
        <time>2020-01-18T09:39:35.166Z</time>
      </trkpt>
      <trkpt lat="37.24577667" lon="-7.09057667">
        <ele>46.0</ele>
        <time>2020-01-18T09:39:36.131Z</time>
      </trkpt>
      <trkpt lat="37.24565" lon="-7.090575">
        <ele>46.0</ele>
        <time>2020-01-18T09:39:37.145Z</time>
      </trkpt>
      <trkpt lat="37.24565" lon="-7.090575">
        <ele>46.0</ele>
        <time>2020-01-18T09:39:38.161Z</time>
      </trkpt>
      <trkpt lat="37.24552167" lon="-7.09053833">
        <ele>46.0</ele>
        <time>2020-01-18T09:39:39.136Z</time>
      </trkpt>
      <trkpt lat="37.24552167" lon="-7.09053833">
        <ele>46.0</ele>
        <time>2020-01-18T09:39:40.141Z</time>
      </trkpt>
      <trkpt lat="37.245425" lon="-7.09046333">
        <ele>47.0</ele>
        <time>2020-01-18T09:39:41.151Z</time>
      </trkpt>
      <trkpt lat="37.245425" lon="-7.09046333">
        <ele>47.0</ele>
        <time>2020-01-18T09:39:42.157Z</time>
      </trkpt>
      <trkpt lat="37.24533167" lon="-7.090385">
        <ele>47.0</ele>
        <time>2020-01-18T09:39:43.147Z</time>
      </trkpt>
      <trkpt lat="37.245285" lon="-7.09034333">
        <ele>47.0</ele>
        <time>2020-01-18T09:39:44.155Z</time>
      </trkpt>
      <trkpt lat="37.245285" lon="-7.09034333">
        <ele>47.0</ele>
        <time>2020-01-18T09:39:45.161Z</time>
      </trkpt>
      <trkpt lat="37.245215" lon="-7.09027167">
        <ele>47.0</ele>
        <time>2020-01-18T09:39:46.129Z</time>
      </trkpt>
      <trkpt lat="37.24518667" lon="-7.09024333">
        <ele>47.0</ele>
        <time>2020-01-18T09:39:47.145Z</time>
      </trkpt>
      <trkpt lat="37.24518667" lon="-7.09024333">
        <ele>47.0</ele>
        <time>2020-01-18T09:39:48.150Z</time>
      </trkpt>
      <trkpt lat="37.24514167" lon="-7.090195">
        <ele>47.0</ele>
        <time>2020-01-18T09:39:49.143Z</time>
      </trkpt>
      <trkpt lat="37.24511667" lon="-7.09016667">
        <ele>47.0</ele>
        <time>2020-01-18T09:39:50.163Z</time>
      </trkpt>
      <trkpt lat="37.24511667" lon="-7.09016667">
        <ele>47.0</ele>
        <time>2020-01-18T09:39:51.133Z</time>
      </trkpt>
      <trkpt lat="37.24506333" lon="-7.090115">
        <ele>47.0</ele>
        <time>2020-01-18T09:39:52.151Z</time>
      </trkpt>
      <trkpt lat="37.24506333" lon="-7.090115">
        <ele>47.0</ele>
        <time>2020-01-18T09:39:53.157Z</time>
      </trkpt>
      <trkpt lat="37.24500667" lon="-7.09007">
        <ele>47.0</ele>
        <time>2020-01-18T09:39:54.159Z</time>
      </trkpt>
      <trkpt lat="37.24500667" lon="-7.09007">
        <ele>47.0</ele>
        <time>2020-01-18T09:39:55.168Z</time>
      </trkpt>
      <trkpt lat="37.24496167" lon="-7.09002833">
        <ele>48.0</ele>
        <time>2020-01-18T09:39:56.148Z</time>
      </trkpt>
      <trkpt lat="37.24496167" lon="-7.09002833">
        <ele>48.0</ele>
        <time>2020-01-18T09:39:57.153Z</time>
      </trkpt>
      <trkpt lat="37.24494167" lon="-7.08998167">
        <ele>48.0</ele>
        <time>2020-01-18T09:39:58.129Z</time>
      </trkpt>
      <trkpt lat="37.244945" lon="-7.089955">
        <ele>48.0</ele>
        <time>2020-01-18T09:39:59.138Z</time>
      </trkpt>
      <trkpt lat="37.244945" lon="-7.089955">
        <ele>48.0</ele>
        <time>2020-01-18T09:40:00.144Z</time>
      </trkpt>
      <trkpt lat="37.24493" lon="-7.08989833">
        <ele>48.0</ele>
        <time>2020-01-18T09:40:01.151Z</time>
      </trkpt>
      <trkpt lat="37.24493" lon="-7.08989833">
        <ele>48.0</ele>
        <time>2020-01-18T09:40:02.156Z</time>
      </trkpt>
      <trkpt lat="37.24495" lon="-7.089865">
        <ele>49.0</ele>
        <time>2020-01-18T09:40:03.161Z</time>
      </trkpt>
      <trkpt lat="37.24495" lon="-7.089865">
        <ele>49.0</ele>
        <time>2020-01-18T09:40:04.167Z</time>
      </trkpt>
      <trkpt lat="37.24497667" lon="-7.08982333">
        <ele>49.0</ele>
        <time>2020-01-18T09:40:05.143Z</time>
      </trkpt>
      <trkpt lat="37.24497667" lon="-7.08982333">
        <ele>49.0</ele>
        <time>2020-01-18T09:40:06.148Z</time>
      </trkpt>
      <trkpt lat="37.24501833" lon="-7.08978167">
        <ele>49.0</ele>
        <time>2020-01-18T09:40:07.146Z</time>
      </trkpt>
      <trkpt lat="37.24501833" lon="-7.08978167">
        <ele>49.0</ele>
        <time>2020-01-18T09:40:08.151Z</time>
      </trkpt>
      <trkpt lat="37.24506333" lon="-7.08973667">
        <ele>49.0</ele>
        <time>2020-01-18T09:40:09.131Z</time>
      </trkpt>
      <trkpt lat="37.24506333" lon="-7.08973667">
        <ele>49.0</ele>
        <time>2020-01-18T09:40:10.137Z</time>
      </trkpt>
      <trkpt lat="37.24511" lon="-7.08969833">
        <ele>50.0</ele>
        <time>2020-01-18T09:40:11.129Z</time>
      </trkpt>
      <trkpt lat="37.24511" lon="-7.08969833">
        <ele>50.0</ele>
        <time>2020-01-18T09:40:12.134Z</time>
      </trkpt>
      <trkpt lat="37.24515833" lon="-7.08964333">
        <ele>50.0</ele>
        <time>2020-01-18T09:40:13.150Z</time>
      </trkpt>
      <trkpt lat="37.24515833" lon="-7.08964333">
        <ele>50.0</ele>
        <time>2020-01-18T09:40:14.156Z</time>
      </trkpt>
      <trkpt lat="37.24520833" lon="-7.08959">
        <ele>51.0</ele>
        <time>2020-01-18T09:40:15.167Z</time>
      </trkpt>
      <trkpt lat="37.24520833" lon="-7.08959">
        <ele>51.0</ele>
        <time>2020-01-18T09:40:16.138Z</time>
      </trkpt>
      <trkpt lat="37.245265" lon="-7.08955">
        <ele>51.0</ele>
        <time>2020-01-18T09:40:17.168Z</time>
      </trkpt>
      <trkpt lat="37.24529333" lon="-7.08953167">
        <ele>51.0</ele>
        <time>2020-01-18T09:40:18.141Z</time>
      </trkpt>
      <trkpt lat="37.24529333" lon="-7.08953167">
        <ele>51.0</ele>
        <time>2020-01-18T09:40:19.147Z</time>
      </trkpt>
      <trkpt lat="37.24535167" lon="-7.089495">
        <ele>52.0</ele>
        <time>2020-01-18T09:40:20.130Z</time>
      </trkpt>
      <trkpt lat="37.24535167" lon="-7.089495">
        <ele>52.0</ele>
        <time>2020-01-18T09:40:21.135Z</time>
      </trkpt>
      <trkpt lat="37.24540667" lon="-7.089455">
        <ele>52.0</ele>
        <time>2020-01-18T09:40:22.143Z</time>
      </trkpt>
      <trkpt lat="37.24540667" lon="-7.089455">
        <ele>52.0</ele>
        <time>2020-01-18T09:40:23.148Z</time>
      </trkpt>
      <trkpt lat="37.24546167" lon="-7.08940167">
        <ele>53.0</ele>
        <time>2020-01-18T09:40:24.149Z</time>
      </trkpt>
      <trkpt lat="37.24546167" lon="-7.08940167">
        <ele>53.0</ele>
        <time>2020-01-18T09:40:25.143Z</time>
      </trkpt>
      <trkpt lat="37.24550833" lon="-7.08933167">
        <ele>53.0</ele>
        <time>2020-01-18T09:40:26.162Z</time>
      </trkpt>
      <trkpt lat="37.24550833" lon="-7.08933167">
        <ele>53.0</ele>
        <time>2020-01-18T09:40:27.135Z</time>
      </trkpt>
      <trkpt lat="37.245555" lon="-7.089255">
        <ele>53.0</ele>
        <time>2020-01-18T09:40:28.129Z</time>
      </trkpt>
      <trkpt lat="37.245555" lon="-7.089255">
        <ele>53.0</ele>
        <time>2020-01-18T09:40:29.134Z</time>
      </trkpt>
      <trkpt lat="37.24561333" lon="-7.08919833">
        <ele>53.0</ele>
        <time>2020-01-18T09:40:30.151Z</time>
      </trkpt>
      <trkpt lat="37.24561333" lon="-7.08919833">
        <ele>53.0</ele>
        <time>2020-01-18T09:40:31.138Z</time>
      </trkpt>
      <trkpt lat="37.24567833" lon="-7.08914167">
        <ele>54.0</ele>
        <time>2020-01-18T09:40:32.150Z</time>
      </trkpt>
      <trkpt lat="37.24567833" lon="-7.08914167">
        <ele>54.0</ele>
        <time>2020-01-18T09:40:33.155Z</time>
      </trkpt>
      <trkpt lat="37.24574" lon="-7.08909167">
        <ele>54.0</ele>
        <time>2020-01-18T09:40:34.131Z</time>
      </trkpt>
      <trkpt lat="37.24576833" lon="-7.08906833">
        <ele>54.0</ele>
        <time>2020-01-18T09:40:35.130Z</time>
      </trkpt>
      <trkpt lat="37.24576833" lon="-7.08906833">
        <ele>54.0</ele>
        <time>2020-01-18T09:40:36.135Z</time>
      </trkpt>
      <trkpt lat="37.24581833" lon="-7.08901">
        <ele>54.0</ele>
        <time>2020-01-18T09:40:37.145Z</time>
      </trkpt>
      <trkpt lat="37.24584333" lon="-7.088975">
        <ele>54.0</ele>
        <time>2020-01-18T09:40:38.140Z</time>
      </trkpt>
      <trkpt lat="37.24584333" lon="-7.088975">
        <ele>54.0</ele>
        <time>2020-01-18T09:40:39.146Z</time>
      </trkpt>
      <trkpt lat="37.24589" lon="-7.08890833">
        <ele>54.0</ele>
        <time>2020-01-18T09:40:40.160Z</time>
      </trkpt>
      <trkpt lat="37.2459" lon="-7.08887333">
        <ele>54.0</ele>
        <time>2020-01-18T09:40:41.158Z</time>
      </trkpt>
      <trkpt lat="37.2459" lon="-7.08887333">
        <ele>54.0</ele>
        <time>2020-01-18T09:40:42.129Z</time>
      </trkpt>
      <trkpt lat="37.24592" lon="-7.08879833">
        <ele>55.0</ele>
        <time>2020-01-18T09:40:43.143Z</time>
      </trkpt>
      <trkpt lat="37.24592667" lon="-7.08876667">
        <ele>55.0</ele>
        <time>2020-01-18T09:40:44.159Z</time>
      </trkpt>
      <trkpt lat="37.24592667" lon="-7.08876667">
        <ele>55.0</ele>
        <time>2020-01-18T09:40:45.130Z</time>
      </trkpt>
      <trkpt lat="37.24594667" lon="-7.08869667">
        <ele>55.0</ele>
        <time>2020-01-18T09:40:46.145Z</time>
      </trkpt>
      <trkpt lat="37.24594667" lon="-7.08869667">
        <ele>55.0</ele>
        <time>2020-01-18T09:40:47.150Z</time>
      </trkpt>
      <trkpt lat="37.24596833" lon="-7.08863">
        <ele>56.0</ele>
        <time>2020-01-18T09:40:48.135Z</time>
      </trkpt>
      <trkpt lat="37.24596833" lon="-7.08863">
        <ele>56.0</ele>
        <time>2020-01-18T09:40:49.141Z</time>
      </trkpt>
      <trkpt lat="37.246" lon="-7.088545">
        <ele>56.0</ele>
        <time>2020-01-18T09:40:50.148Z</time>
      </trkpt>
      <trkpt lat="37.246" lon="-7.088545">
        <ele>56.0</ele>
        <time>2020-01-18T09:40:51.154Z</time>
      </trkpt>
      <trkpt lat="37.24601333" lon="-7.08846833">
        <ele>56.0</ele>
        <time>2020-01-18T09:40:52.150Z</time>
      </trkpt>
      <trkpt lat="37.24601333" lon="-7.08846833">
        <ele>56.0</ele>
        <time>2020-01-18T09:40:53.155Z</time>
      </trkpt>
      <trkpt lat="37.246025" lon="-7.08841333">
        <ele>56.0</ele>
        <time>2020-01-18T09:40:54.138Z</time>
      </trkpt>
      <trkpt lat="37.24602833" lon="-7.08839333">
        <ele>57.0</ele>
        <time>2020-01-18T09:40:55.151Z</time>
      </trkpt>
      <trkpt lat="37.24602833" lon="-7.08839333">
        <ele>57.0</ele>
        <time>2020-01-18T09:40:56.156Z</time>
      </trkpt>
      <trkpt lat="37.246035" lon="-7.088355">
        <ele>57.0</ele>
        <time>2020-01-18T09:40:57.130Z</time>
      </trkpt>
      <trkpt lat="37.246035" lon="-7.088355">
        <ele>57.0</ele>
        <time>2020-01-18T09:40:58.137Z</time>
      </trkpt>
      <trkpt lat="37.24603333" lon="-7.08833167">
        <ele>58.0</ele>
        <time>2020-01-18T09:40:59.141Z</time>
      </trkpt>
      <trkpt lat="37.24603333" lon="-7.08833167">
        <ele>58.0</ele>
        <time>2020-01-18T09:41:00.146Z</time>
      </trkpt>
      <trkpt lat="37.24604333" lon="-7.08831333">
        <ele>57.0</ele>
        <time>2020-01-18T09:41:01.132Z</time>
      </trkpt>
      <trkpt lat="37.24604333" lon="-7.08831333">
        <ele>57.0</ele>
        <time>2020-01-18T09:41:02.146Z</time>
      </trkpt>
      <trkpt lat="37.24609667" lon="-7.08845833">
        <ele>50.0</ele>
        <time>2020-01-18T09:41:03.131Z</time>
      </trkpt>
      <trkpt lat="37.2461" lon="-7.08847667">
        <ele>50.0</ele>
        <time>2020-01-18T09:41:04.144Z</time>
      </trkpt>
      <trkpt lat="37.2461" lon="-7.08847667">
        <ele>50.0</ele>
        <time>2020-01-18T09:41:05.168Z</time>
      </trkpt>
      <trkpt lat="37.24611833" lon="-7.08851167">
        <ele>49.0</ele>
        <time>2020-01-18T09:41:06.141Z</time>
      </trkpt>
      <trkpt lat="37.246135" lon="-7.08852167">
        <ele>50.0</ele>
        <time>2020-01-18T09:41:07.150Z</time>
      </trkpt>
      <trkpt lat="37.246135" lon="-7.08852167">
        <ele>50.0</ele>
        <time>2020-01-18T09:41:08.156Z</time>
      </trkpt>
      <trkpt lat="37.24617667" lon="-7.08854333">
        <ele>49.0</ele>
        <time>2020-01-18T09:41:09.145Z</time>
      </trkpt>
      <trkpt lat="37.24617667" lon="-7.08854333">
        <ele>49.0</ele>
        <time>2020-01-18T09:41:10.151Z</time>
      </trkpt>
      <trkpt lat="37.246215" lon="-7.088555">
        <ele>50.0</ele>
        <time>2020-01-18T09:41:11.141Z</time>
      </trkpt>
      <trkpt lat="37.246215" lon="-7.088555">
        <ele>50.0</ele>
        <time>2020-01-18T09:41:12.147Z</time>
      </trkpt>
      <trkpt lat="37.246255" lon="-7.08857333">
        <ele>49.0</ele>
        <time>2020-01-18T09:41:13.151Z</time>
      </trkpt>
      <trkpt lat="37.24628333" lon="-7.08858167">
        <ele>49.0</ele>
        <time>2020-01-18T09:41:14.159Z</time>
      </trkpt>
      <trkpt lat="37.24628333" lon="-7.08858167">
        <ele>49.0</ele>
        <time>2020-01-18T09:41:15.166Z</time>
      </trkpt>
      <trkpt lat="37.24632833" lon="-7.088615">
        <ele>49.0</ele>
        <time>2020-01-18T09:41:16.160Z</time>
      </trkpt>
      <trkpt lat="37.246355" lon="-7.08863333">
        <ele>48.0</ele>
        <time>2020-01-18T09:41:17.131Z</time>
      </trkpt>
      <trkpt lat="37.246355" lon="-7.08863333">
        <ele>48.0</ele>
        <time>2020-01-18T09:41:18.137Z</time>
      </trkpt>
      <trkpt lat="37.2464" lon="-7.088655">
        <ele>48.0</ele>
        <time>2020-01-18T09:41:19.158Z</time>
      </trkpt>
      <trkpt lat="37.24642" lon="-7.08866">
        <ele>48.0</ele>
        <time>2020-01-18T09:41:20.136Z</time>
      </trkpt>
      <trkpt lat="37.24642" lon="-7.08866">
        <ele>48.0</ele>
        <time>2020-01-18T09:41:21.141Z</time>
      </trkpt>
      <trkpt lat="37.24646667" lon="-7.08865833">
        <ele>47.0</ele>
        <time>2020-01-18T09:41:22.160Z</time>
      </trkpt>
      <trkpt lat="37.24646667" lon="-7.08865833">
        <ele>47.0</ele>
        <time>2020-01-18T09:41:23.166Z</time>
      </trkpt>
      <trkpt lat="37.24652333" lon="-7.088655">
        <ele>47.0</ele>
        <time>2020-01-18T09:41:24.147Z</time>
      </trkpt>
      <trkpt lat="37.24652333" lon="-7.088655">
        <ele>47.0</ele>
        <time>2020-01-18T09:41:25.152Z</time>
      </trkpt>
      <trkpt lat="37.24656833" lon="-7.08865167">
        <ele>46.0</ele>
        <time>2020-01-18T09:41:26.141Z</time>
      </trkpt>
      <trkpt lat="37.24656833" lon="-7.08865167">
        <ele>46.0</ele>
        <time>2020-01-18T09:41:27.147Z</time>
      </trkpt>
      <trkpt lat="37.24660833" lon="-7.08865">
        <ele>46.0</ele>
        <time>2020-01-18T09:41:28.154Z</time>
      </trkpt>
      <trkpt lat="37.24660833" lon="-7.08865">
        <ele>46.0</ele>
        <time>2020-01-18T09:41:29.168Z</time>
      </trkpt>
      <trkpt lat="37.246655" lon="-7.08865">
        <ele>46.0</ele>
        <time>2020-01-18T09:41:30.130Z</time>
      </trkpt>
      <trkpt lat="37.24667833" lon="-7.088645">
        <ele>46.0</ele>
        <time>2020-01-18T09:41:31.137Z</time>
      </trkpt>
      <trkpt lat="37.246705" lon="-7.08864333">
        <ele>47.0</ele>
        <time>2020-01-18T09:41:32.161Z</time>
      </trkpt>
      <trkpt lat="37.24672833" lon="-7.08864333">
        <ele>47.0</ele>
        <time>2020-01-18T09:41:33.135Z</time>
      </trkpt>
      <trkpt lat="37.24672833" lon="-7.08864333">
        <ele>47.0</ele>
        <time>2020-01-18T09:41:34.141Z</time>
      </trkpt>
      <trkpt lat="37.24678167" lon="-7.088645">
        <ele>46.0</ele>
        <time>2020-01-18T09:41:35.130Z</time>
      </trkpt>
      <trkpt lat="37.24681667" lon="-7.08864">
        <ele>46.0</ele>
        <time>2020-01-18T09:41:36.143Z</time>
      </trkpt>
      <trkpt lat="37.24681667" lon="-7.08864">
        <ele>46.0</ele>
        <time>2020-01-18T09:41:37.148Z</time>
      </trkpt>
      <trkpt lat="37.246865" lon="-7.08861333">
        <ele>46.0</ele>
        <time>2020-01-18T09:41:38.137Z</time>
      </trkpt>
      <trkpt lat="37.246865" lon="-7.08861333">
        <ele>46.0</ele>
        <time>2020-01-18T09:41:39.142Z</time>
      </trkpt>
      <trkpt lat="37.246915" lon="-7.0886">
        <ele>46.0</ele>
        <time>2020-01-18T09:41:40.150Z</time>
      </trkpt>
      <trkpt lat="37.24694167" lon="-7.08858833">
        <ele>46.0</ele>
        <time>2020-01-18T09:41:41.136Z</time>
      </trkpt>
      <trkpt lat="37.24694167" lon="-7.08858833">
        <ele>46.0</ele>
        <time>2020-01-18T09:41:42.141Z</time>
      </trkpt>
      <trkpt lat="37.24699333" lon="-7.08856333">
        <ele>46.0</ele>
        <time>2020-01-18T09:41:43.168Z</time>
      </trkpt>
      <trkpt lat="37.24701667" lon="-7.088555">
        <ele>46.0</ele>
        <time>2020-01-18T09:41:44.136Z</time>
      </trkpt>
      <trkpt lat="37.24701667" lon="-7.088555">
        <ele>46.0</ele>
        <time>2020-01-18T09:41:45.142Z</time>
      </trkpt>
      <trkpt lat="37.24706333" lon="-7.08853167">
        <ele>46.0</ele>
        <time>2020-01-18T09:41:46.151Z</time>
      </trkpt>
      <trkpt lat="37.24706333" lon="-7.08853167">
        <ele>46.0</ele>
        <time>2020-01-18T09:41:47.162Z</time>
      </trkpt>
      <trkpt lat="37.24711167" lon="-7.08850833">
        <ele>45.0</ele>
        <time>2020-01-18T09:41:48.138Z</time>
      </trkpt>
      <trkpt lat="37.24711167" lon="-7.08850833">
        <ele>45.0</ele>
        <time>2020-01-18T09:41:49.143Z</time>
      </trkpt>
      <trkpt lat="37.24716667" lon="-7.088525">
        <ele>45.0</ele>
        <time>2020-01-18T09:41:50.150Z</time>
      </trkpt>
      <trkpt lat="37.24716667" lon="-7.088525">
        <ele>45.0</ele>
        <time>2020-01-18T09:41:51.158Z</time>
      </trkpt>
      <trkpt lat="37.24721833" lon="-7.08854">
        <ele>45.0</ele>
        <time>2020-01-18T09:41:52.167Z</time>
      </trkpt>
      <trkpt lat="37.24721833" lon="-7.08854">
        <ele>45.0</ele>
        <time>2020-01-18T09:41:53.132Z</time>
      </trkpt>
      <trkpt lat="37.24727" lon="-7.088555">
        <ele>45.0</ele>
        <time>2020-01-18T09:41:54.141Z</time>
      </trkpt>
      <trkpt lat="37.24727" lon="-7.088555">
        <ele>45.0</ele>
        <time>2020-01-18T09:41:55.146Z</time>
      </trkpt>
      <trkpt lat="37.24731833" lon="-7.08856333">
        <ele>45.0</ele>
        <time>2020-01-18T09:41:56.165Z</time>
      </trkpt>
      <trkpt lat="37.24731833" lon="-7.08856333">
        <ele>45.0</ele>
        <time>2020-01-18T09:41:57.133Z</time>
      </trkpt>
      <trkpt lat="37.24736167" lon="-7.08856833">
        <ele>45.0</ele>
        <time>2020-01-18T09:41:58.148Z</time>
      </trkpt>
      <trkpt lat="37.24738" lon="-7.088575">
        <ele>46.0</ele>
        <time>2020-01-18T09:41:59.151Z</time>
      </trkpt>
      <trkpt lat="37.24738" lon="-7.088575">
        <ele>46.0</ele>
        <time>2020-01-18T09:42:00.157Z</time>
      </trkpt>
      <trkpt lat="37.24742833" lon="-7.08857667">
        <ele>46.0</ele>
        <time>2020-01-18T09:42:01.168Z</time>
      </trkpt>
      <trkpt lat="37.24742833" lon="-7.08857667">
        <ele>46.0</ele>
        <time>2020-01-18T09:42:02.137Z</time>
      </trkpt>
      <trkpt lat="37.24747333" lon="-7.08858">
        <ele>46.0</ele>
        <time>2020-01-18T09:42:03.132Z</time>
      </trkpt>
      <trkpt lat="37.24747333" lon="-7.08858">
        <ele>46.0</ele>
        <time>2020-01-18T09:42:04.137Z</time>
      </trkpt>
      <trkpt lat="37.24752667" lon="-7.08858333">
        <ele>46.0</ele>
        <time>2020-01-18T09:42:05.152Z</time>
      </trkpt>
      <trkpt lat="37.24752667" lon="-7.08858333">
        <ele>46.0</ele>
        <time>2020-01-18T09:42:06.161Z</time>
      </trkpt>
      <trkpt lat="37.24757167" lon="-7.08857833">
        <ele>47.0</ele>
        <time>2020-01-18T09:42:07.151Z</time>
      </trkpt>
      <trkpt lat="37.247595" lon="-7.08857833">
        <ele>47.0</ele>
        <time>2020-01-18T09:42:08.163Z</time>
      </trkpt>
      <trkpt lat="37.247595" lon="-7.08857833">
        <ele>47.0</ele>
        <time>2020-01-18T09:42:09.129Z</time>
      </trkpt>
      <trkpt lat="37.24763833" lon="-7.08858833">
        <ele>47.0</ele>
        <time>2020-01-18T09:42:10.138Z</time>
      </trkpt>
      <trkpt lat="37.24763833" lon="-7.08858833">
        <ele>47.0</ele>
        <time>2020-01-18T09:42:11.144Z</time>
      </trkpt>
      <trkpt lat="37.24768167" lon="-7.088595">
        <ele>47.0</ele>
        <time>2020-01-18T09:42:12.151Z</time>
      </trkpt>
      <trkpt lat="37.24768167" lon="-7.088595">
        <ele>47.0</ele>
        <time>2020-01-18T09:42:13.165Z</time>
      </trkpt>
      <trkpt lat="37.24772167" lon="-7.08860333">
        <ele>46.0</ele>
        <time>2020-01-18T09:42:14.141Z</time>
      </trkpt>
      <trkpt lat="37.24772167" lon="-7.08860333">
        <ele>46.0</ele>
        <time>2020-01-18T09:42:15.146Z</time>
      </trkpt>
      <trkpt lat="37.247755" lon="-7.08862">
        <ele>46.0</ele>
        <time>2020-01-18T09:42:16.164Z</time>
      </trkpt>
      <trkpt lat="37.247755" lon="-7.08862">
        <ele>46.0</ele>
        <time>2020-01-18T09:42:17.130Z</time>
      </trkpt>
      <trkpt lat="37.24776833" lon="-7.08863667">
        <ele>46.0</ele>
        <time>2020-01-18T09:42:18.131Z</time>
      </trkpt>
      <trkpt lat="37.24776833" lon="-7.08863667">
        <ele>46.0</ele>
        <time>2020-01-18T09:42:19.136Z</time>
      </trkpt>
      <trkpt lat="37.24776333" lon="-7.08863167">
        <ele>46.0</ele>
        <time>2020-01-18T09:42:20.156Z</time>
      </trkpt>
      <trkpt lat="37.24776333" lon="-7.08863167">
        <ele>46.0</ele>
        <time>2020-01-18T09:42:21.156Z</time>
      </trkpt>
      <trkpt lat="37.24776333" lon="-7.08863167">
        <ele>46.0</ele>
        <time>2020-01-18T09:42:22.162Z</time>
      </trkpt>
      <trkpt lat="37.247765" lon="-7.08863167">
        <ele>46.0</ele>
        <time>2020-01-18T09:42:23.168Z</time>
      </trkpt>
      <trkpt lat="37.247765" lon="-7.08863167">
        <ele>46.0</ele>
        <time>2020-01-18T09:42:24.152Z</time>
      </trkpt>
      <trkpt lat="37.247765" lon="-7.08863167">
        <ele>46.0</ele>
        <time>2020-01-18T09:42:25.130Z</time>
      </trkpt>
      <trkpt lat="37.247765" lon="-7.08863167">
        <ele>46.0</ele>
        <time>2020-01-18T09:42:26.152Z</time>
      </trkpt>
      <trkpt lat="37.247765" lon="-7.08863167">
        <ele>46.0</ele>
        <time>2020-01-18T09:42:27.168Z</time>
      </trkpt>
      <trkpt lat="37.247765" lon="-7.08863167">
        <ele>46.0</ele>
        <time>2020-01-18T09:42:28.129Z</time>
      </trkpt>
      <trkpt lat="37.247765" lon="-7.08863167">
        <ele>46.0</ele>
        <time>2020-01-18T09:42:29.151Z</time>
      </trkpt>
      <trkpt lat="37.247765" lon="-7.08863167">
        <ele>46.0</ele>
        <time>2020-01-18T09:42:30.167Z</time>
      </trkpt>
      <trkpt lat="37.247765" lon="-7.08863167">
        <ele>46.0</ele>
        <time>2020-01-18T09:42:31.168Z</time>
      </trkpt>
      <trkpt lat="37.247765" lon="-7.08863167">
        <ele>46.0</ele>
        <time>2020-01-18T09:42:32.147Z</time>
      </trkpt>
      <trkpt lat="37.247765" lon="-7.08863167">
        <ele>46.0</ele>
        <time>2020-01-18T09:42:33.161Z</time>
      </trkpt>
      <trkpt lat="37.247765" lon="-7.08863167">
        <ele>46.0</ele>
        <time>2020-01-18T09:42:34.141Z</time>
      </trkpt>
      <trkpt lat="37.247765" lon="-7.08863167">
        <ele>46.0</ele>
        <time>2020-01-18T09:42:35.160Z</time>
      </trkpt>
      <trkpt lat="37.247765" lon="-7.08863167">
        <ele>46.0</ele>
        <time>2020-01-18T09:42:36.152Z</time>
      </trkpt>
      <trkpt lat="37.247765" lon="-7.08863167">
        <ele>46.0</ele>
        <time>2020-01-18T09:42:37.167Z</time>
      </trkpt>
      <trkpt lat="37.247765" lon="-7.08863167">
        <ele>46.0</ele>
        <time>2020-01-18T09:42:38.129Z</time>
      </trkpt>
      <trkpt lat="37.247765" lon="-7.08863167">
        <ele>46.0</ele>
        <time>2020-01-18T09:42:39.153Z</time>
      </trkpt>
      <trkpt lat="37.247765" lon="-7.08863167">
        <ele>46.0</ele>
        <time>2020-01-18T09:42:40.168Z</time>
      </trkpt>
      <trkpt lat="37.247765" lon="-7.08863167">
        <ele>46.0</ele>
        <time>2020-01-18T09:42:41.163Z</time>
      </trkpt>
      <trkpt lat="37.247765" lon="-7.08863167">
        <ele>46.0</ele>
        <time>2020-01-18T09:42:42.136Z</time>
      </trkpt>
      <trkpt lat="37.247765" lon="-7.08863167">
        <ele>46.0</ele>
        <time>2020-01-18T09:42:43.162Z</time>
      </trkpt>
      <trkpt lat="37.247765" lon="-7.08863167">
        <ele>46.0</ele>
        <time>2020-01-18T09:42:44.134Z</time>
      </trkpt>
      <trkpt lat="37.24781333" lon="-7.08861667">
        <ele>43.0</ele>
        <time>2020-01-18T09:42:45.158Z</time>
      </trkpt>
      <trkpt lat="37.24781333" lon="-7.08861667">
        <ele>43.0</ele>
        <time>2020-01-18T09:42:46.130Z</time>
      </trkpt>
      <trkpt lat="37.247835" lon="-7.08862333">
        <ele>43.0</ele>
        <time>2020-01-18T09:42:47.142Z</time>
      </trkpt>
      <trkpt lat="37.247835" lon="-7.08862333">
        <ele>43.0</ele>
        <time>2020-01-18T09:42:48.153Z</time>
      </trkpt>
      <trkpt lat="37.24784833" lon="-7.088645">
        <ele>43.0</ele>
        <time>2020-01-18T09:42:49.138Z</time>
      </trkpt>
      <trkpt lat="37.24784833" lon="-7.088645">
        <ele>43.0</ele>
        <time>2020-01-18T09:42:50.149Z</time>
      </trkpt>
      <trkpt lat="37.24787333" lon="-7.08865667">
        <ele>43.0</ele>
        <time>2020-01-18T09:42:51.136Z</time>
      </trkpt>
      <trkpt lat="37.24787333" lon="-7.08865667">
        <ele>43.0</ele>
        <time>2020-01-18T09:42:52.144Z</time>
      </trkpt>
      <trkpt lat="37.24789" lon="-7.08864167">
        <ele>43.0</ele>
        <time>2020-01-18T09:42:53.160Z</time>
      </trkpt>
      <trkpt lat="37.24789" lon="-7.08864167">
        <ele>43.0</ele>
        <time>2020-01-18T09:42:54.166Z</time>
      </trkpt>
      <trkpt lat="37.24790167" lon="-7.08862">
        <ele>43.0</ele>
        <time>2020-01-18T09:42:55.166Z</time>
      </trkpt>
      <trkpt lat="37.24790167" lon="-7.08862">
        <ele>43.0</ele>
        <time>2020-01-18T09:42:56.132Z</time>
      </trkpt>
      <trkpt lat="37.247925" lon="-7.08861667">
        <ele>43.0</ele>
        <time>2020-01-18T09:42:57.165Z</time>
      </trkpt>
      <trkpt lat="37.24793833" lon="-7.08861333">
        <ele>43.0</ele>
        <time>2020-01-18T09:42:58.131Z</time>
      </trkpt>
      <trkpt lat="37.24793833" lon="-7.08861333">
        <ele>43.0</ele>
        <time>2020-01-18T09:42:59.145Z</time>
      </trkpt>
      <trkpt lat="37.24796167" lon="-7.08859667">
        <ele>44.0</ele>
        <time>2020-01-18T09:43:00.157Z</time>
      </trkpt>
      <trkpt lat="37.24797" lon="-7.088585">
        <ele>44.0</ele>
        <time>2020-01-18T09:43:01.142Z</time>
      </trkpt>
      <trkpt lat="37.24797" lon="-7.088585">
        <ele>44.0</ele>
        <time>2020-01-18T09:43:02.160Z</time>
      </trkpt>
      <trkpt lat="37.247985" lon="-7.088565">
        <ele>44.0</ele>
        <time>2020-01-18T09:43:03.163Z</time>
      </trkpt>
      <trkpt lat="37.247985" lon="-7.088565">
        <ele>44.0</ele>
        <time>2020-01-18T09:43:04.129Z</time>
      </trkpt>
      <trkpt lat="37.24801" lon="-7.08856167">
        <ele>45.0</ele>
        <time>2020-01-18T09:43:05.160Z</time>
      </trkpt>
      <trkpt lat="37.24801" lon="-7.08856167">
        <ele>45.0</ele>
        <time>2020-01-18T09:43:06.166Z</time>
      </trkpt>
      <trkpt lat="37.24803" lon="-7.08855333">
        <ele>46.0</ele>
        <time>2020-01-18T09:43:07.160Z</time>
      </trkpt>
      <trkpt lat="37.24803" lon="-7.08855333">
        <ele>46.0</ele>
        <time>2020-01-18T09:43:08.166Z</time>
      </trkpt>
      <trkpt lat="37.248055" lon="-7.08855">
        <ele>46.0</ele>
        <time>2020-01-18T09:43:09.129Z</time>
      </trkpt>
      <trkpt lat="37.248055" lon="-7.08855">
        <ele>46.0</ele>
        <time>2020-01-18T09:43:10.135Z</time>
      </trkpt>
      <trkpt lat="37.248075" lon="-7.08854">
        <ele>46.0</ele>
        <time>2020-01-18T09:43:11.133Z</time>
      </trkpt>
      <trkpt lat="37.248075" lon="-7.08854">
        <ele>46.0</ele>
        <time>2020-01-18T09:43:12.139Z</time>
      </trkpt>
      <trkpt lat="37.248105" lon="-7.08854333">
        <ele>47.0</ele>
        <time>2020-01-18T09:43:13.134Z</time>
      </trkpt>
      <trkpt lat="37.248105" lon="-7.08854333">
        <ele>47.0</ele>
        <time>2020-01-18T09:43:14.140Z</time>
      </trkpt>
      <trkpt lat="37.24813333" lon="-7.088545">
        <ele>47.0</ele>
        <time>2020-01-18T09:43:15.131Z</time>
      </trkpt>
      <trkpt lat="37.24813333" lon="-7.088545">
        <ele>47.0</ele>
        <time>2020-01-18T09:43:16.137Z</time>
      </trkpt>
      <trkpt lat="37.24815667" lon="-7.08854">
        <ele>48.0</ele>
        <time>2020-01-18T09:43:17.130Z</time>
      </trkpt>
      <trkpt lat="37.24817" lon="-7.08854">
        <ele>48.0</ele>
        <time>2020-01-18T09:43:18.161Z</time>
      </trkpt>
      <trkpt lat="37.24817" lon="-7.08854">
        <ele>48.0</ele>
        <time>2020-01-18T09:43:19.167Z</time>
      </trkpt>
      <trkpt lat="37.2482" lon="-7.088535">
        <ele>49.0</ele>
        <time>2020-01-18T09:43:20.162Z</time>
      </trkpt>
      <trkpt lat="37.2482" lon="-7.088535">
        <ele>49.0</ele>
        <time>2020-01-18T09:43:21.168Z</time>
      </trkpt>
      <trkpt lat="37.24822333" lon="-7.08854333">
        <ele>49.0</ele>
        <time>2020-01-18T09:43:22.157Z</time>
      </trkpt>
      <trkpt lat="37.24822333" lon="-7.08854333">
        <ele>49.0</ele>
        <time>2020-01-18T09:43:23.163Z</time>
      </trkpt>
      <trkpt lat="37.24824833" lon="-7.08853">
        <ele>50.0</ele>
        <time>2020-01-18T09:43:24.150Z</time>
      </trkpt>
      <trkpt lat="37.248255" lon="-7.088525">
        <ele>51.0</ele>
        <time>2020-01-18T09:43:25.148Z</time>
      </trkpt>
      <trkpt lat="37.248255" lon="-7.088525">
        <ele>51.0</ele>
        <time>2020-01-18T09:43:26.154Z</time>
      </trkpt>
      <trkpt lat="37.24827667" lon="-7.08852333">
        <ele>51.0</ele>
        <time>2020-01-18T09:43:27.140Z</time>
      </trkpt>
      <trkpt lat="37.24829167" lon="-7.08852333">
        <ele>51.0</ele>
        <time>2020-01-18T09:43:28.139Z</time>
      </trkpt>
      <trkpt lat="37.24829167" lon="-7.08852333">
        <ele>51.0</ele>
        <time>2020-01-18T09:43:29.149Z</time>
      </trkpt>
      <trkpt lat="37.24831333" lon="-7.08851667">
        <ele>51.0</ele>
        <time>2020-01-18T09:43:30.144Z</time>
      </trkpt>
      <trkpt lat="37.24832333" lon="-7.088515">
        <ele>52.0</ele>
        <time>2020-01-18T09:43:31.148Z</time>
      </trkpt>
      <trkpt lat="37.24832333" lon="-7.088515">
        <ele>52.0</ele>
        <time>2020-01-18T09:43:32.149Z</time>
      </trkpt>
      <trkpt lat="37.24833833" lon="-7.08852333">
        <ele>52.0</ele>
        <time>2020-01-18T09:43:33.160Z</time>
      </trkpt>
      <trkpt lat="37.24833833" lon="-7.08852333">
        <ele>52.0</ele>
        <time>2020-01-18T09:43:34.166Z</time>
      </trkpt>
      <trkpt lat="37.24837" lon="-7.08854">
        <ele>52.0</ele>
        <time>2020-01-18T09:43:35.147Z</time>
      </trkpt>
      <trkpt lat="37.24838333" lon="-7.088545">
        <ele>52.0</ele>
        <time>2020-01-18T09:43:36.137Z</time>
      </trkpt>
      <trkpt lat="37.24839667" lon="-7.08854833">
        <ele>51.0</ele>
        <time>2020-01-18T09:43:37.162Z</time>
      </trkpt>
      <trkpt lat="37.24839667" lon="-7.08854833">
        <ele>51.0</ele>
        <time>2020-01-18T09:43:38.168Z</time>
      </trkpt>
      <trkpt lat="37.24842167" lon="-7.08854833">
        <ele>51.0</ele>
        <time>2020-01-18T09:43:39.160Z</time>
      </trkpt>
      <trkpt lat="37.24842167" lon="-7.08854833">
        <ele>51.0</ele>
        <time>2020-01-18T09:43:40.166Z</time>
      </trkpt>
      <trkpt lat="37.24844" lon="-7.08855333">
        <ele>52.0</ele>
        <time>2020-01-18T09:43:41.160Z</time>
      </trkpt>
      <trkpt lat="37.24844" lon="-7.08855333">
        <ele>52.0</ele>
        <time>2020-01-18T09:43:42.166Z</time>
      </trkpt>
      <trkpt lat="37.24844667" lon="-7.08856833">
        <ele>52.0</ele>
        <time>2020-01-18T09:43:43.160Z</time>
      </trkpt>
      <trkpt lat="37.24844667" lon="-7.08856833">
        <ele>52.0</ele>
        <time>2020-01-18T09:43:44.166Z</time>
      </trkpt>
      <trkpt lat="37.248455" lon="-7.088585">
        <ele>52.0</ele>
        <time>2020-01-18T09:43:45.162Z</time>
      </trkpt>
      <trkpt lat="37.248455" lon="-7.088585">
        <ele>52.0</ele>
        <time>2020-01-18T09:43:46.168Z</time>
      </trkpt>
      <trkpt lat="37.24846167" lon="-7.08862667">
        <ele>52.0</ele>
        <time>2020-01-18T09:43:47.163Z</time>
      </trkpt>
      <trkpt lat="37.24846167" lon="-7.08862667">
        <ele>52.0</ele>
        <time>2020-01-18T09:43:48.129Z</time>
      </trkpt>
      <trkpt lat="37.24846667" lon="-7.08866167">
        <ele>52.0</ele>
        <time>2020-01-18T09:43:49.167Z</time>
      </trkpt>
      <trkpt lat="37.24846667" lon="-7.08866167">
        <ele>52.0</ele>
        <time>2020-01-18T09:43:50.132Z</time>
      </trkpt>
      <trkpt lat="37.24848167" lon="-7.08870667">
        <ele>51.0</ele>
        <time>2020-01-18T09:43:51.136Z</time>
      </trkpt>
      <trkpt lat="37.24848167" lon="-7.08870667">
        <ele>51.0</ele>
        <time>2020-01-18T09:43:52.141Z</time>
      </trkpt>
      <trkpt lat="37.24847667" lon="-7.08873">
        <ele>50.0</ele>
        <time>2020-01-18T09:43:53.130Z</time>
      </trkpt>
      <trkpt lat="37.24847667" lon="-7.08873">
        <ele>50.0</ele>
        <time>2020-01-18T09:43:54.136Z</time>
      </trkpt>
      <trkpt lat="37.24846333" lon="-7.08874333">
        <ele>51.0</ele>
        <time>2020-01-18T09:43:55.156Z</time>
      </trkpt>
      <trkpt lat="37.24846333" lon="-7.08874333">
        <ele>51.0</ele>
        <time>2020-01-18T09:43:56.162Z</time>
      </trkpt>
      <trkpt lat="37.24846167" lon="-7.08875333">
        <ele>51.0</ele>
        <time>2020-01-18T09:43:57.133Z</time>
      </trkpt>
      <trkpt lat="37.24850667" lon="-7.08889833">
        <ele>49.0</ele>
        <time>2020-01-18T09:43:58.166Z</time>
      </trkpt>
      <trkpt lat="37.24852333" lon="-7.08891833">
        <ele>49.0</ele>
        <time>2020-01-18T09:43:59.168Z</time>
      </trkpt>
      <trkpt lat="37.24852333" lon="-7.08891833">
        <ele>49.0</ele>
        <time>2020-01-18T09:44:00.164Z</time>
      </trkpt>
      <trkpt lat="37.248565" lon="-7.088965">
        <ele>49.0</ele>
        <time>2020-01-18T09:44:01.157Z</time>
      </trkpt>
      <trkpt lat="37.248565" lon="-7.088965">
        <ele>49.0</ele>
        <time>2020-01-18T09:44:02.141Z</time>
      </trkpt>
      <trkpt lat="37.24861833" lon="-7.089025">
        <ele>48.0</ele>
        <time>2020-01-18T09:44:03.168Z</time>
      </trkpt>
      <trkpt lat="37.24864" lon="-7.08906">
        <ele>48.0</ele>
        <time>2020-01-18T09:44:04.132Z</time>
      </trkpt>
      <trkpt lat="37.24866" lon="-7.08909333">
        <ele>48.0</ele>
        <time>2020-01-18T09:44:05.162Z</time>
      </trkpt>
      <trkpt lat="37.24866" lon="-7.08909333">
        <ele>48.0</ele>
        <time>2020-01-18T09:44:06.132Z</time>
      </trkpt>
      <trkpt lat="37.24868833" lon="-7.08914667">
        <ele>47.0</ele>
        <time>2020-01-18T09:44:07.150Z</time>
      </trkpt>
      <trkpt lat="37.24868833" lon="-7.08914667">
        <ele>47.0</ele>
        <time>2020-01-18T09:44:08.131Z</time>
      </trkpt>
      <trkpt lat="37.24871833" lon="-7.089195">
        <ele>47.0</ele>
        <time>2020-01-18T09:44:09.145Z</time>
      </trkpt>
      <trkpt lat="37.24871833" lon="-7.089195">
        <ele>47.0</ele>
        <time>2020-01-18T09:44:10.133Z</time>
      </trkpt>
      <trkpt lat="37.24875833" lon="-7.08926667">
        <ele>46.0</ele>
        <time>2020-01-18T09:44:11.167Z</time>
      </trkpt>
      <trkpt lat="37.24875833" lon="-7.08926667">
        <ele>46.0</ele>
        <time>2020-01-18T09:44:12.157Z</time>
      </trkpt>
      <trkpt lat="37.248805" lon="-7.08936167">
        <ele>46.0</ele>
        <time>2020-01-18T09:44:13.130Z</time>
      </trkpt>
      <trkpt lat="37.248805" lon="-7.08936167">
        <ele>46.0</ele>
        <time>2020-01-18T09:44:14.142Z</time>
      </trkpt>
      <trkpt lat="37.248845" lon="-7.08946">
        <ele>45.0</ele>
        <time>2020-01-18T09:44:15.167Z</time>
      </trkpt>
      <trkpt lat="37.24885333" lon="-7.0895">
        <ele>45.0</ele>
        <time>2020-01-18T09:44:16.147Z</time>
      </trkpt>
      <trkpt lat="37.248865" lon="-7.08954">
        <ele>45.0</ele>
        <time>2020-01-18T09:44:17.157Z</time>
      </trkpt>
      <trkpt lat="37.248865" lon="-7.08954">
        <ele>45.0</ele>
        <time>2020-01-18T09:44:18.129Z</time>
      </trkpt>
      <trkpt lat="37.24890667" lon="-7.08961333">
        <ele>45.0</ele>
        <time>2020-01-18T09:44:19.145Z</time>
      </trkpt>
      <trkpt lat="37.24890667" lon="-7.08961333">
        <ele>45.0</ele>
        <time>2020-01-18T09:44:20.161Z</time>
      </trkpt>
      <trkpt lat="37.24894667" lon="-7.08966167">
        <ele>44.0</ele>
        <time>2020-01-18T09:44:21.147Z</time>
      </trkpt>
      <trkpt lat="37.24894667" lon="-7.08966167">
        <ele>44.0</ele>
        <time>2020-01-18T09:44:22.136Z</time>
      </trkpt>
      <trkpt lat="37.24896833" lon="-7.089715">
        <ele>44.0</ele>
        <time>2020-01-18T09:44:23.154Z</time>
      </trkpt>
      <trkpt lat="37.24896833" lon="-7.089715">
        <ele>44.0</ele>
        <time>2020-01-18T09:44:24.154Z</time>
      </trkpt>
      <trkpt lat="37.24899" lon="-7.08976">
        <ele>44.0</ele>
        <time>2020-01-18T09:44:25.136Z</time>
      </trkpt>
      <trkpt lat="37.24899" lon="-7.08976">
        <ele>44.0</ele>
        <time>2020-01-18T09:44:26.150Z</time>
      </trkpt>
      <trkpt lat="37.24900667" lon="-7.0898">
        <ele>44.0</ele>
        <time>2020-01-18T09:44:27.143Z</time>
      </trkpt>
      <trkpt lat="37.24900667" lon="-7.0898">
        <ele>44.0</ele>
        <time>2020-01-18T09:44:28.130Z</time>
      </trkpt>
      <trkpt lat="37.24902833" lon="-7.08982">
        <ele>44.0</ele>
        <time>2020-01-18T09:44:29.149Z</time>
      </trkpt>
      <trkpt lat="37.24902833" lon="-7.08982">
        <ele>44.0</ele>
        <time>2020-01-18T09:44:30.143Z</time>
      </trkpt>
      <trkpt lat="37.24905" lon="-7.089835">
        <ele>44.0</ele>
        <time>2020-01-18T09:44:31.143Z</time>
      </trkpt>
      <trkpt lat="37.24905833" lon="-7.08983833">
        <ele>44.0</ele>
        <time>2020-01-18T09:44:32.140Z</time>
      </trkpt>
      <trkpt lat="37.24905833" lon="-7.08983833">
        <ele>44.0</ele>
        <time>2020-01-18T09:44:33.145Z</time>
      </trkpt>
      <trkpt lat="37.24908333" lon="-7.08985">
        <ele>44.0</ele>
        <time>2020-01-18T09:44:34.170Z</time>
      </trkpt>
      <trkpt lat="37.24909667" lon="-7.089855">
        <ele>44.0</ele>
        <time>2020-01-18T09:44:35.143Z</time>
      </trkpt>
      <trkpt lat="37.24909667" lon="-7.089855">
        <ele>44.0</ele>
        <time>2020-01-18T09:44:36.155Z</time>
      </trkpt>
      <trkpt lat="37.24913167" lon="-7.089875">
        <ele>44.0</ele>
        <time>2020-01-18T09:44:37.147Z</time>
      </trkpt>
      <trkpt lat="37.24913167" lon="-7.089875">
        <ele>44.0</ele>
        <time>2020-01-18T09:44:38.163Z</time>
      </trkpt>
      <trkpt lat="37.24916" lon="-7.08992167">
        <ele>44.0</ele>
        <time>2020-01-18T09:44:39.155Z</time>
      </trkpt>
      <trkpt lat="37.24916" lon="-7.08992167">
        <ele>44.0</ele>
        <time>2020-01-18T09:44:40.130Z</time>
      </trkpt>
      <trkpt lat="37.249195" lon="-7.08996667">
        <ele>43.0</ele>
        <time>2020-01-18T09:44:41.151Z</time>
      </trkpt>
      <trkpt lat="37.249195" lon="-7.08996667">
        <ele>43.0</ele>
        <time>2020-01-18T09:44:42.165Z</time>
      </trkpt>
      <trkpt lat="37.24924167" lon="-7.08997667">
        <ele>43.0</ele>
        <time>2020-01-18T09:44:43.147Z</time>
      </trkpt>
      <trkpt lat="37.24924167" lon="-7.08997667">
        <ele>43.0</ele>
        <time>2020-01-18T09:44:44.141Z</time>
      </trkpt>
      <trkpt lat="37.249275" lon="-7.08998667">
        <ele>43.0</ele>
        <time>2020-01-18T09:44:45.168Z</time>
      </trkpt>
      <trkpt lat="37.249275" lon="-7.08998667">
        <ele>43.0</ele>
        <time>2020-01-18T09:44:46.140Z</time>
      </trkpt>
      <trkpt lat="37.24931167" lon="-7.09000167">
        <ele>42.0</ele>
        <time>2020-01-18T09:44:47.167Z</time>
      </trkpt>
      <trkpt lat="37.24931167" lon="-7.09000167">
        <ele>42.0</ele>
        <time>2020-01-18T09:44:48.168Z</time>
      </trkpt>
      <trkpt lat="37.24935167" lon="-7.09001833">
        <ele>43.0</ele>
        <time>2020-01-18T09:44:49.159Z</time>
      </trkpt>
      <trkpt lat="37.24935167" lon="-7.09001833">
        <ele>43.0</ele>
        <time>2020-01-18T09:44:50.157Z</time>
      </trkpt>
      <trkpt lat="37.24938833" lon="-7.090045">
        <ele>44.0</ele>
        <time>2020-01-18T09:44:51.157Z</time>
      </trkpt>
      <trkpt lat="37.24938833" lon="-7.090045">
        <ele>44.0</ele>
        <time>2020-01-18T09:44:52.137Z</time>
      </trkpt>
      <trkpt lat="37.249425" lon="-7.09007833">
        <ele>44.0</ele>
        <time>2020-01-18T09:44:53.154Z</time>
      </trkpt>
      <trkpt lat="37.249425" lon="-7.09007833">
        <ele>44.0</ele>
        <time>2020-01-18T09:44:54.148Z</time>
      </trkpt>
      <trkpt lat="37.249465" lon="-7.09013">
        <ele>44.0</ele>
        <time>2020-01-18T09:44:55.141Z</time>
      </trkpt>
      <trkpt lat="37.249465" lon="-7.09013">
        <ele>44.0</ele>
        <time>2020-01-18T09:44:56.162Z</time>
      </trkpt>
      <trkpt lat="37.249515" lon="-7.09018">
        <ele>44.0</ele>
        <time>2020-01-18T09:44:57.148Z</time>
      </trkpt>
      <trkpt lat="37.249515" lon="-7.09018">
        <ele>44.0</ele>
        <time>2020-01-18T09:44:58.147Z</time>
      </trkpt>
      <trkpt lat="37.24957833" lon="-7.09024167">
        <ele>44.0</ele>
        <time>2020-01-18T09:44:59.133Z</time>
      </trkpt>
      <trkpt lat="37.24957833" lon="-7.09024167">
        <ele>44.0</ele>
        <time>2020-01-18T09:45:00.140Z</time>
      </trkpt>
      <trkpt lat="37.24964167" lon="-7.09029167">
        <ele>43.0</ele>
        <time>2020-01-18T09:45:01.129Z</time>
      </trkpt>
      <trkpt lat="37.24964167" lon="-7.09029167">
        <ele>43.0</ele>
        <time>2020-01-18T09:45:02.159Z</time>
      </trkpt>
      <trkpt lat="37.24970333" lon="-7.09033">
        <ele>43.0</ele>
        <time>2020-01-18T09:45:03.136Z</time>
      </trkpt>
      <trkpt lat="37.24970333" lon="-7.09033">
        <ele>43.0</ele>
        <time>2020-01-18T09:45:04.141Z</time>
      </trkpt>
      <trkpt lat="37.24977167" lon="-7.09034167">
        <ele>42.0</ele>
        <time>2020-01-18T09:45:05.166Z</time>
      </trkpt>
      <trkpt lat="37.24977167" lon="-7.09034167">
        <ele>42.0</ele>
        <time>2020-01-18T09:45:06.143Z</time>
      </trkpt>
      <trkpt lat="37.24985" lon="-7.09034333">
        <ele>42.0</ele>
        <time>2020-01-18T09:45:07.133Z</time>
      </trkpt>
      <trkpt lat="37.24985" lon="-7.09034333">
        <ele>42.0</ele>
        <time>2020-01-18T09:45:08.139Z</time>
      </trkpt>
      <trkpt lat="37.24993667" lon="-7.090335">
        <ele>43.0</ele>
        <time>2020-01-18T09:45:09.136Z</time>
      </trkpt>
      <trkpt lat="37.24993667" lon="-7.090335">
        <ele>43.0</ele>
        <time>2020-01-18T09:45:10.162Z</time>
      </trkpt>
      <trkpt lat="37.25002167" lon="-7.09030333">
        <ele>44.0</ele>
        <time>2020-01-18T09:45:11.140Z</time>
      </trkpt>
      <trkpt lat="37.25002167" lon="-7.09030333">
        <ele>44.0</ele>
        <time>2020-01-18T09:45:12.149Z</time>
      </trkpt>
      <trkpt lat="37.250095" lon="-7.09026167">
        <ele>45.0</ele>
        <time>2020-01-18T09:45:13.130Z</time>
      </trkpt>
      <trkpt lat="37.25012667" lon="-7.09023833">
        <ele>45.0</ele>
        <time>2020-01-18T09:45:14.159Z</time>
      </trkpt>
      <trkpt lat="37.25012667" lon="-7.09023833">
        <ele>45.0</ele>
        <time>2020-01-18T09:45:15.164Z</time>
      </trkpt>
      <trkpt lat="37.250195" lon="-7.09019167">
        <ele>45.0</ele>
        <time>2020-01-18T09:45:16.153Z</time>
      </trkpt>
      <trkpt lat="37.25023833" lon="-7.09016833">
        <ele>46.0</ele>
        <time>2020-01-18T09:45:17.162Z</time>
      </trkpt>
      <trkpt lat="37.25023833" lon="-7.09016833">
        <ele>46.0</ele>
        <time>2020-01-18T09:45:18.135Z</time>
      </trkpt>
      <trkpt lat="37.25032" lon="-7.09012167">
        <ele>46.0</ele>
        <time>2020-01-18T09:45:19.164Z</time>
      </trkpt>
      <trkpt lat="37.25035667" lon="-7.09009833">
        <ele>47.0</ele>
        <time>2020-01-18T09:45:20.133Z</time>
      </trkpt>
      <trkpt lat="37.25035667" lon="-7.09009833">
        <ele>47.0</ele>
        <time>2020-01-18T09:45:21.147Z</time>
      </trkpt>
      <trkpt lat="37.25041167" lon="-7.09003833">
        <ele>48.0</ele>
        <time>2020-01-18T09:45:22.137Z</time>
      </trkpt>
      <trkpt lat="37.25041167" lon="-7.09003833">
        <ele>48.0</ele>
        <time>2020-01-18T09:45:23.159Z</time>
      </trkpt>
      <trkpt lat="37.25046333" lon="-7.08996167">
        <ele>48.0</ele>
        <time>2020-01-18T09:45:24.138Z</time>
      </trkpt>
      <trkpt lat="37.25046333" lon="-7.08996167">
        <ele>48.0</ele>
        <time>2020-01-18T09:45:25.161Z</time>
      </trkpt>
      <trkpt lat="37.25050833" lon="-7.08988667">
        <ele>48.0</ele>
        <time>2020-01-18T09:45:26.149Z</time>
      </trkpt>
      <trkpt lat="37.25050833" lon="-7.08988667">
        <ele>48.0</ele>
        <time>2020-01-18T09:45:27.145Z</time>
      </trkpt>
      <trkpt lat="37.25055" lon="-7.089825">
        <ele>48.0</ele>
        <time>2020-01-18T09:45:28.131Z</time>
      </trkpt>
      <trkpt lat="37.25055" lon="-7.089825">
        <ele>48.0</ele>
        <time>2020-01-18T09:45:29.139Z</time>
      </trkpt>
      <trkpt lat="37.25058167" lon="-7.08977667">
        <ele>47.0</ele>
        <time>2020-01-18T09:45:30.132Z</time>
      </trkpt>
      <trkpt lat="37.25060333" lon="-7.08976">
        <ele>47.0</ele>
        <time>2020-01-18T09:45:31.150Z</time>
      </trkpt>
      <trkpt lat="37.25060333" lon="-7.08976">
        <ele>47.0</ele>
        <time>2020-01-18T09:45:32.143Z</time>
      </trkpt>
      <trkpt lat="37.25065167" lon="-7.08973667">
        <ele>48.0</ele>
        <time>2020-01-18T09:45:33.131Z</time>
      </trkpt>
      <trkpt lat="37.25065167" lon="-7.08973667">
        <ele>48.0</ele>
        <time>2020-01-18T09:45:34.137Z</time>
      </trkpt>
      <trkpt lat="37.25068833" lon="-7.08971167">
        <ele>48.0</ele>
        <time>2020-01-18T09:45:35.129Z</time>
      </trkpt>
      <trkpt lat="37.25068833" lon="-7.08971167">
        <ele>48.0</ele>
        <time>2020-01-18T09:45:36.138Z</time>
      </trkpt>
      <trkpt lat="37.25072833" lon="-7.089665">
        <ele>48.0</ele>
        <time>2020-01-18T09:45:37.159Z</time>
      </trkpt>
      <trkpt lat="37.25072833" lon="-7.089665">
        <ele>48.0</ele>
        <time>2020-01-18T09:45:38.145Z</time>
      </trkpt>
      <trkpt lat="37.25077333" lon="-7.08960833">
        <ele>48.0</ele>
        <time>2020-01-18T09:45:39.137Z</time>
      </trkpt>
      <trkpt lat="37.25077333" lon="-7.08960833">
        <ele>48.0</ele>
        <time>2020-01-18T09:45:40.138Z</time>
      </trkpt>
      <trkpt lat="37.25081" lon="-7.08951833">
        <ele>47.0</ele>
        <time>2020-01-18T09:45:41.162Z</time>
      </trkpt>
      <trkpt lat="37.25081" lon="-7.08951833">
        <ele>47.0</ele>
        <time>2020-01-18T09:45:42.158Z</time>
      </trkpt>
      <trkpt lat="37.250845" lon="-7.08945333">
        <ele>47.0</ele>
        <time>2020-01-18T09:45:43.157Z</time>
      </trkpt>
      <trkpt lat="37.250845" lon="-7.08945333">
        <ele>47.0</ele>
        <time>2020-01-18T09:45:44.159Z</time>
      </trkpt>
      <trkpt lat="37.250885" lon="-7.08937333">
        <ele>47.0</ele>
        <time>2020-01-18T09:45:45.147Z</time>
      </trkpt>
      <trkpt lat="37.25090667" lon="-7.08933333">
        <ele>46.0</ele>
        <time>2020-01-18T09:45:46.148Z</time>
      </trkpt>
      <trkpt lat="37.25090667" lon="-7.08933333">
        <ele>46.0</ele>
        <time>2020-01-18T09:45:47.159Z</time>
      </trkpt>
      <trkpt lat="37.25095" lon="-7.08925">
        <ele>46.0</ele>
        <time>2020-01-18T09:45:48.135Z</time>
      </trkpt>
      <trkpt lat="37.25096667" lon="-7.089205">
        <ele>46.0</ele>
        <time>2020-01-18T09:45:49.133Z</time>
      </trkpt>
      <trkpt lat="37.25096667" lon="-7.089205">
        <ele>46.0</ele>
        <time>2020-01-18T09:45:50.152Z</time>
      </trkpt>
      <trkpt lat="37.25099833" lon="-7.08911667">
        <ele>46.0</ele>
        <time>2020-01-18T09:45:51.136Z</time>
      </trkpt>
      <trkpt lat="37.25099833" lon="-7.08911667">
        <ele>46.0</ele>
        <time>2020-01-18T09:45:52.166Z</time>
      </trkpt>
      <trkpt lat="37.25103" lon="-7.08903">
        <ele>46.0</ele>
        <time>2020-01-18T09:45:53.147Z</time>
      </trkpt>
      <trkpt lat="37.25103" lon="-7.08903">
        <ele>46.0</ele>
        <time>2020-01-18T09:45:54.157Z</time>
      </trkpt>
      <trkpt lat="37.25106833" lon="-7.08894833">
        <ele>45.0</ele>
        <time>2020-01-18T09:45:55.142Z</time>
      </trkpt>
      <trkpt lat="37.25106833" lon="-7.08894833">
        <ele>45.0</ele>
        <time>2020-01-18T09:45:56.159Z</time>
      </trkpt>
      <trkpt lat="37.25110167" lon="-7.08886">
        <ele>45.0</ele>
        <time>2020-01-18T09:45:57.157Z</time>
      </trkpt>
      <trkpt lat="37.25111833" lon="-7.08881167">
        <ele>45.0</ele>
        <time>2020-01-18T09:45:58.167Z</time>
      </trkpt>
      <trkpt lat="37.25112833" lon="-7.08876167">
        <ele>45.0</ele>
        <time>2020-01-18T09:45:59.167Z</time>
      </trkpt>
      <trkpt lat="37.25112833" lon="-7.08876167">
        <ele>45.0</ele>
        <time>2020-01-18T09:46:00.139Z</time>
      </trkpt>
      <trkpt lat="37.251145" lon="-7.08866333">
        <ele>45.0</ele>
        <time>2020-01-18T09:46:01.159Z</time>
      </trkpt>
      <trkpt lat="37.251145" lon="-7.08866333">
        <ele>45.0</ele>
        <time>2020-01-18T09:46:02.150Z</time>
      </trkpt>
      <trkpt lat="37.25115333" lon="-7.08856333">
        <ele>44.0</ele>
        <time>2020-01-18T09:46:03.134Z</time>
      </trkpt>
      <trkpt lat="37.25115333" lon="-7.08856333">
        <ele>44.0</ele>
        <time>2020-01-18T09:46:04.165Z</time>
      </trkpt>
      <trkpt lat="37.25116333" lon="-7.08845833">
        <ele>45.0</ele>
        <time>2020-01-18T09:46:05.146Z</time>
      </trkpt>
      <trkpt lat="37.25116333" lon="-7.08845833">
        <ele>45.0</ele>
        <time>2020-01-18T09:46:06.141Z</time>
      </trkpt>
      <trkpt lat="37.25118167" lon="-7.08836">
        <ele>44.0</ele>
        <time>2020-01-18T09:46:07.164Z</time>
      </trkpt>
      <trkpt lat="37.251195" lon="-7.08831333">
        <ele>44.0</ele>
        <time>2020-01-18T09:46:08.167Z</time>
      </trkpt>
      <trkpt lat="37.251195" lon="-7.08831333">
        <ele>44.0</ele>
        <time>2020-01-18T09:46:09.129Z</time>
      </trkpt>
      <trkpt lat="37.25121167" lon="-7.08822333">
        <ele>44.0</ele>
        <time>2020-01-18T09:46:10.148Z</time>
      </trkpt>
      <trkpt lat="37.25121667" lon="-7.08818333">
        <ele>44.0</ele>
        <time>2020-01-18T09:46:11.142Z</time>
      </trkpt>
      <trkpt lat="37.25121667" lon="-7.08818333">
        <ele>44.0</ele>
        <time>2020-01-18T09:46:12.136Z</time>
      </trkpt>
      <trkpt lat="37.25123833" lon="-7.088095">
        <ele>45.0</ele>
        <time>2020-01-18T09:46:13.157Z</time>
      </trkpt>
      <trkpt lat="37.25123833" lon="-7.088095">
        <ele>45.0</ele>
        <time>2020-01-18T09:46:14.168Z</time>
      </trkpt>
      <trkpt lat="37.25123833" lon="-7.08800333">
        <ele>45.0</ele>
        <time>2020-01-18T09:46:15.132Z</time>
      </trkpt>
      <trkpt lat="37.25124167" lon="-7.08796167">
        <ele>45.0</ele>
        <time>2020-01-18T09:46:16.167Z</time>
      </trkpt>
      <trkpt lat="37.251245" lon="-7.08792">
        <ele>46.0</ele>
        <time>2020-01-18T09:46:17.140Z</time>
      </trkpt>
      <trkpt lat="37.251245" lon="-7.08792">
        <ele>46.0</ele>
        <time>2020-01-18T09:46:18.153Z</time>
      </trkpt>
      <trkpt lat="37.25124167" lon="-7.08783167">
        <ele>47.0</ele>
        <time>2020-01-18T09:46:19.131Z</time>
      </trkpt>
      <trkpt lat="37.25123833" lon="-7.08779333">
        <ele>47.0</ele>
        <time>2020-01-18T09:46:20.134Z</time>
      </trkpt>
      <trkpt lat="37.25123833" lon="-7.08779333">
        <ele>47.0</ele>
        <time>2020-01-18T09:46:21.137Z</time>
      </trkpt>
      <trkpt lat="37.25123833" lon="-7.087715">
        <ele>48.0</ele>
        <time>2020-01-18T09:46:22.131Z</time>
      </trkpt>
      <trkpt lat="37.25124" lon="-7.087675">
        <ele>48.0</ele>
        <time>2020-01-18T09:46:23.142Z</time>
      </trkpt>
      <trkpt lat="37.25124" lon="-7.087675">
        <ele>48.0</ele>
        <time>2020-01-18T09:46:24.156Z</time>
      </trkpt>
      <trkpt lat="37.25125167" lon="-7.08759833">
        <ele>49.0</ele>
        <time>2020-01-18T09:46:25.144Z</time>
      </trkpt>
      <trkpt lat="37.25125167" lon="-7.08759833">
        <ele>49.0</ele>
        <time>2020-01-18T09:46:26.160Z</time>
      </trkpt>
      <trkpt lat="37.25128" lon="-7.08752667">
        <ele>50.0</ele>
        <time>2020-01-18T09:46:27.143Z</time>
      </trkpt>
      <trkpt lat="37.25128" lon="-7.08752667">
        <ele>50.0</ele>
        <time>2020-01-18T09:46:28.131Z</time>
      </trkpt>
      <trkpt lat="37.25131" lon="-7.08745">
        <ele>50.0</ele>
        <time>2020-01-18T09:46:29.155Z</time>
      </trkpt>
      <trkpt lat="37.25131" lon="-7.08745">
        <ele>50.0</ele>
        <time>2020-01-18T09:46:30.164Z</time>
      </trkpt>
      <trkpt lat="37.25133" lon="-7.08737">
        <ele>50.0</ele>
        <time>2020-01-18T09:46:31.136Z</time>
      </trkpt>
      <trkpt lat="37.25133" lon="-7.08737">
        <ele>50.0</ele>
        <time>2020-01-18T09:46:32.132Z</time>
      </trkpt>
      <trkpt lat="37.25134" lon="-7.087295">
        <ele>50.0</ele>
        <time>2020-01-18T09:46:33.163Z</time>
      </trkpt>
      <trkpt lat="37.25134" lon="-7.087295">
        <ele>50.0</ele>
        <time>2020-01-18T09:46:34.131Z</time>
      </trkpt>
      <trkpt lat="37.251335" lon="-7.087225">
        <ele>50.0</ele>
        <time>2020-01-18T09:46:35.132Z</time>
      </trkpt>
      <trkpt lat="37.251335" lon="-7.087225">
        <ele>50.0</ele>
        <time>2020-01-18T09:46:36.157Z</time>
      </trkpt>
      <trkpt lat="37.25134333" lon="-7.08715667">
        <ele>51.0</ele>
        <time>2020-01-18T09:46:37.143Z</time>
      </trkpt>
      <trkpt lat="37.25134667" lon="-7.08712">
        <ele>51.0</ele>
        <time>2020-01-18T09:46:38.151Z</time>
      </trkpt>
      <trkpt lat="37.25134667" lon="-7.08712">
        <ele>51.0</ele>
        <time>2020-01-18T09:46:39.148Z</time>
      </trkpt>
      <trkpt lat="37.25135167" lon="-7.087045">
        <ele>51.0</ele>
        <time>2020-01-18T09:46:40.169Z</time>
      </trkpt>
      <trkpt lat="37.251355" lon="-7.08700833">
        <ele>52.0</ele>
        <time>2020-01-18T09:46:41.166Z</time>
      </trkpt>
      <trkpt lat="37.251355" lon="-7.08700833">
        <ele>52.0</ele>
        <time>2020-01-18T09:46:42.140Z</time>
      </trkpt>
      <trkpt lat="37.25137" lon="-7.08692667">
        <ele>52.0</ele>
        <time>2020-01-18T09:46:43.129Z</time>
      </trkpt>
      <trkpt lat="37.25137" lon="-7.08692667">
        <ele>52.0</ele>
        <time>2020-01-18T09:46:44.139Z</time>
      </trkpt>
      <trkpt lat="37.25137167" lon="-7.08685167">
        <ele>53.0</ele>
        <time>2020-01-18T09:46:45.137Z</time>
      </trkpt>
      <trkpt lat="37.25137333" lon="-7.08680833">
        <ele>53.0</ele>
        <time>2020-01-18T09:46:46.157Z</time>
      </trkpt>
      <trkpt lat="37.25137333" lon="-7.08680833">
        <ele>53.0</ele>
        <time>2020-01-18T09:46:47.129Z</time>
      </trkpt>
      <trkpt lat="37.25138333" lon="-7.08673">
        <ele>54.0</ele>
        <time>2020-01-18T09:46:48.157Z</time>
      </trkpt>
      <trkpt lat="37.25138333" lon="-7.08673">
        <ele>54.0</ele>
        <time>2020-01-18T09:46:49.144Z</time>
      </trkpt>
      <trkpt lat="37.25137667" lon="-7.08664">
        <ele>55.0</ele>
        <time>2020-01-18T09:46:50.170Z</time>
      </trkpt>
      <trkpt lat="37.25137667" lon="-7.08664">
        <ele>55.0</ele>
        <time>2020-01-18T09:46:51.166Z</time>
      </trkpt>
      <trkpt lat="37.25138" lon="-7.08656667">
        <ele>55.0</ele>
        <time>2020-01-18T09:46:52.163Z</time>
      </trkpt>
      <trkpt lat="37.25138167" lon="-7.08653333">
        <ele>55.0</ele>
        <time>2020-01-18T09:46:53.137Z</time>
      </trkpt>
      <trkpt lat="37.25138167" lon="-7.08653333">
        <ele>55.0</ele>
        <time>2020-01-18T09:46:54.145Z</time>
      </trkpt>
      <trkpt lat="37.25139" lon="-7.086455">
        <ele>56.0</ele>
        <time>2020-01-18T09:46:55.130Z</time>
      </trkpt>
      <trkpt lat="37.251395" lon="-7.08641833">
        <ele>56.0</ele>
        <time>2020-01-18T09:46:56.168Z</time>
      </trkpt>
      <trkpt lat="37.251395" lon="-7.08641833">
        <ele>56.0</ele>
        <time>2020-01-18T09:46:57.167Z</time>
      </trkpt>
      <trkpt lat="37.25140667" lon="-7.08635833">
        <ele>56.0</ele>
        <time>2020-01-18T09:46:58.148Z</time>
      </trkpt>
      <trkpt lat="37.25141333" lon="-7.08633">
        <ele>56.0</ele>
        <time>2020-01-18T09:46:59.157Z</time>
      </trkpt>
      <trkpt lat="37.25141333" lon="-7.08633">
        <ele>56.0</ele>
        <time>2020-01-18T09:47:00.147Z</time>
      </trkpt>
      <trkpt lat="37.251435" lon="-7.08627833">
        <ele>56.0</ele>
        <time>2020-01-18T09:47:01.169Z</time>
      </trkpt>
      <trkpt lat="37.251455" lon="-7.08626333">
        <ele>56.0</ele>
        <time>2020-01-18T09:47:02.167Z</time>
      </trkpt>
      <trkpt lat="37.251455" lon="-7.08626333">
        <ele>56.0</ele>
        <time>2020-01-18T09:47:03.130Z</time>
      </trkpt>
      <trkpt lat="37.2515" lon="-7.08624667">
        <ele>57.0</ele>
        <time>2020-01-18T09:47:04.157Z</time>
      </trkpt>
      <trkpt lat="37.2515" lon="-7.08624667">
        <ele>57.0</ele>
        <time>2020-01-18T09:47:05.129Z</time>
      </trkpt>
      <trkpt lat="37.25153167" lon="-7.08623333">
        <ele>56.0</ele>
        <time>2020-01-18T09:47:06.157Z</time>
      </trkpt>
      <trkpt lat="37.25154333" lon="-7.08622167">
        <ele>56.0</ele>
        <time>2020-01-18T09:47:07.153Z</time>
      </trkpt>
      <trkpt lat="37.25154333" lon="-7.08622167">
        <ele>56.0</ele>
        <time>2020-01-18T09:47:08.160Z</time>
      </trkpt>
      <trkpt lat="37.25157" lon="-7.08621167">
        <ele>56.0</ele>
        <time>2020-01-18T09:47:09.157Z</time>
      </trkpt>
      <trkpt lat="37.25157" lon="-7.08621167">
        <ele>56.0</ele>
        <time>2020-01-18T09:47:10.163Z</time>
      </trkpt>
      <trkpt lat="37.25157333" lon="-7.08620167">
        <ele>56.0</ele>
        <time>2020-01-18T09:47:11.148Z</time>
      </trkpt>
      <trkpt lat="37.25157333" lon="-7.08620167">
        <ele>56.0</ele>
        <time>2020-01-18T09:47:12.142Z</time>
      </trkpt>
      <trkpt lat="37.25157333" lon="-7.08620167">
        <ele>56.0</ele>
        <time>2020-01-18T09:47:13.160Z</time>
      </trkpt>
      <trkpt lat="37.251435" lon="-7.08623833">
        <ele>52.0</ele>
        <time>2020-01-18T09:47:14.163Z</time>
      </trkpt>
      <trkpt lat="37.251435" lon="-7.08623833">
        <ele>52.0</ele>
        <time>2020-01-18T09:47:15.135Z</time>
      </trkpt>
      <trkpt lat="37.25138667" lon="-7.08623">
        <ele>51.0</ele>
        <time>2020-01-18T09:47:16.163Z</time>
      </trkpt>
      <trkpt lat="37.25138667" lon="-7.08623">
        <ele>51.0</ele>
        <time>2020-01-18T09:47:17.130Z</time>
      </trkpt>
      <trkpt lat="37.25136667" lon="-7.08620167">
        <ele>51.0</ele>
        <time>2020-01-18T09:47:18.156Z</time>
      </trkpt>
      <trkpt lat="37.25136667" lon="-7.08620167">
        <ele>51.0</ele>
        <time>2020-01-18T09:47:19.167Z</time>
      </trkpt>
      <trkpt lat="37.25135" lon="-7.08617">
        <ele>51.0</ele>
        <time>2020-01-18T09:47:20.164Z</time>
      </trkpt>
      <trkpt lat="37.25135" lon="-7.08617">
        <ele>51.0</ele>
        <time>2020-01-18T09:47:21.138Z</time>
      </trkpt>
      <trkpt lat="37.251325" lon="-7.08612333">
        <ele>51.0</ele>
        <time>2020-01-18T09:47:22.153Z</time>
      </trkpt>
      <trkpt lat="37.251325" lon="-7.08612333">
        <ele>51.0</ele>
        <time>2020-01-18T09:47:23.166Z</time>
      </trkpt>
      <trkpt lat="37.25128833" lon="-7.086075">
        <ele>51.0</ele>
        <time>2020-01-18T09:47:24.151Z</time>
      </trkpt>
      <trkpt lat="37.25128833" lon="-7.086075">
        <ele>51.0</ele>
        <time>2020-01-18T09:47:25.151Z</time>
      </trkpt>
      <trkpt lat="37.25126" lon="-7.086025">
        <ele>51.0</ele>
        <time>2020-01-18T09:47:26.138Z</time>
      </trkpt>
      <trkpt lat="37.25126" lon="-7.086025">
        <ele>51.0</ele>
        <time>2020-01-18T09:47:27.165Z</time>
      </trkpt>
      <trkpt lat="37.25123833" lon="-7.085975">
        <ele>51.0</ele>
        <time>2020-01-18T09:47:28.145Z</time>
      </trkpt>
      <trkpt lat="37.25123833" lon="-7.085975">
        <ele>51.0</ele>
        <time>2020-01-18T09:47:29.133Z</time>
      </trkpt>
      <trkpt lat="37.25122833" lon="-7.08592333">
        <ele>51.0</ele>
        <time>2020-01-18T09:47:30.153Z</time>
      </trkpt>
      <trkpt lat="37.25123833" lon="-7.0859">
        <ele>51.0</ele>
        <time>2020-01-18T09:47:31.169Z</time>
      </trkpt>
      <trkpt lat="37.251245" lon="-7.08587667">
        <ele>51.0</ele>
        <time>2020-01-18T09:47:32.135Z</time>
      </trkpt>
      <trkpt lat="37.251245" lon="-7.08587667">
        <ele>51.0</ele>
        <time>2020-01-18T09:47:33.155Z</time>
      </trkpt>
      <trkpt lat="37.25124" lon="-7.08583333">
        <ele>51.0</ele>
        <time>2020-01-18T09:47:34.198Z</time>
      </trkpt>
      <trkpt lat="37.25124" lon="-7.08583333">
        <ele>51.0</ele>
        <time>2020-01-18T09:47:35.141Z</time>
      </trkpt>
      <trkpt lat="37.25122667" lon="-7.08578667">
        <ele>51.0</ele>
        <time>2020-01-18T09:47:36.131Z</time>
      </trkpt>
      <trkpt lat="37.25122667" lon="-7.08578667">
        <ele>51.0</ele>
        <time>2020-01-18T09:47:37.144Z</time>
      </trkpt>
      <trkpt lat="37.25122667" lon="-7.08573667">
        <ele>51.0</ele>
        <time>2020-01-18T09:47:38.129Z</time>
      </trkpt>
      <trkpt lat="37.25122667" lon="-7.08573667">
        <ele>51.0</ele>
        <time>2020-01-18T09:47:39.167Z</time>
      </trkpt>
      <trkpt lat="37.25122333" lon="-7.08568333">
        <ele>51.0</ele>
        <time>2020-01-18T09:47:40.148Z</time>
      </trkpt>
      <trkpt lat="37.25122333" lon="-7.08568333">
        <ele>51.0</ele>
        <time>2020-01-18T09:47:41.161Z</time>
      </trkpt>
      <trkpt lat="37.25121167" lon="-7.08561833">
        <ele>51.0</ele>
        <time>2020-01-18T09:47:42.153Z</time>
      </trkpt>
      <trkpt lat="37.25121167" lon="-7.085585">
        <ele>51.0</ele>
        <time>2020-01-18T09:47:43.146Z</time>
      </trkpt>
      <trkpt lat="37.25121" lon="-7.08555167">
        <ele>51.0</ele>
        <time>2020-01-18T09:47:44.157Z</time>
      </trkpt>
      <trkpt lat="37.25121" lon="-7.08555167">
        <ele>51.0</ele>
        <time>2020-01-18T09:47:45.134Z</time>
      </trkpt>
      <trkpt lat="37.25120333" lon="-7.08548833">
        <ele>51.0</ele>
        <time>2020-01-18T09:47:46.139Z</time>
      </trkpt>
      <trkpt lat="37.25120333" lon="-7.08548833">
        <ele>51.0</ele>
        <time>2020-01-18T09:47:47.135Z</time>
      </trkpt>
      <trkpt lat="37.25120667" lon="-7.08540833">
        <ele>51.0</ele>
        <time>2020-01-18T09:47:48.149Z</time>
      </trkpt>
      <trkpt lat="37.25120667" lon="-7.08540833">
        <ele>51.0</ele>
        <time>2020-01-18T09:47:49.139Z</time>
      </trkpt>
      <trkpt lat="37.251225" lon="-7.08533167">
        <ele>51.0</ele>
        <time>2020-01-18T09:47:50.160Z</time>
      </trkpt>
      <trkpt lat="37.25123667" lon="-7.08529667">
        <ele>51.0</ele>
        <time>2020-01-18T09:47:51.130Z</time>
      </trkpt>
      <trkpt lat="37.25123667" lon="-7.08529667">
        <ele>51.0</ele>
        <time>2020-01-18T09:47:52.144Z</time>
      </trkpt>
      <trkpt lat="37.25125167" lon="-7.08522333">
        <ele>50.0</ele>
        <time>2020-01-18T09:47:53.161Z</time>
      </trkpt>
      <trkpt lat="37.25125167" lon="-7.08522333">
        <ele>50.0</ele>
        <time>2020-01-18T09:47:54.151Z</time>
      </trkpt>
      <trkpt lat="37.25126667" lon="-7.08515167">
        <ele>50.0</ele>
        <time>2020-01-18T09:47:55.134Z</time>
      </trkpt>
      <trkpt lat="37.25126333" lon="-7.08511833">
        <ele>50.0</ele>
        <time>2020-01-18T09:47:56.157Z</time>
      </trkpt>
      <trkpt lat="37.25126333" lon="-7.08511833">
        <ele>50.0</ele>
        <time>2020-01-18T09:47:57.132Z</time>
      </trkpt>
      <trkpt lat="37.25128" lon="-7.08505">
        <ele>50.0</ele>
        <time>2020-01-18T09:47:58.166Z</time>
      </trkpt>
      <trkpt lat="37.25128" lon="-7.08505">
        <ele>50.0</ele>
        <time>2020-01-18T09:47:59.134Z</time>
      </trkpt>
      <trkpt lat="37.25131" lon="-7.08498667">
        <ele>50.0</ele>
        <time>2020-01-18T09:48:00.163Z</time>
      </trkpt>
      <trkpt lat="37.25132833" lon="-7.08496333">
        <ele>50.0</ele>
        <time>2020-01-18T09:48:01.132Z</time>
      </trkpt>
      <trkpt lat="37.25134333" lon="-7.08493833">
        <ele>50.0</ele>
        <time>2020-01-18T09:48:02.163Z</time>
      </trkpt>
      <trkpt lat="37.25134333" lon="-7.08493833">
        <ele>50.0</ele>
        <time>2020-01-18T09:48:03.129Z</time>
      </trkpt>
      <trkpt lat="37.25136167" lon="-7.08489333">
        <ele>50.0</ele>
        <time>2020-01-18T09:48:04.144Z</time>
      </trkpt>
      <trkpt lat="37.25136167" lon="-7.08489333">
        <ele>50.0</ele>
        <time>2020-01-18T09:48:05.163Z</time>
      </trkpt>
      <trkpt lat="37.25138167" lon="-7.08484167">
        <ele>51.0</ele>
        <time>2020-01-18T09:48:06.144Z</time>
      </trkpt>
      <trkpt lat="37.25138167" lon="-7.08484167">
        <ele>51.0</ele>
        <time>2020-01-18T09:48:07.152Z</time>
      </trkpt>
      <trkpt lat="37.251405" lon="-7.08479333">
        <ele>51.0</ele>
        <time>2020-01-18T09:48:08.133Z</time>
      </trkpt>
      <trkpt lat="37.251405" lon="-7.08479333">
        <ele>51.0</ele>
        <time>2020-01-18T09:48:09.156Z</time>
      </trkpt>
      <trkpt lat="37.25143333" lon="-7.08473667">
        <ele>51.0</ele>
        <time>2020-01-18T09:48:10.134Z</time>
      </trkpt>
      <trkpt lat="37.251455" lon="-7.08471667">
        <ele>51.0</ele>
        <time>2020-01-18T09:48:11.163Z</time>
      </trkpt>
      <trkpt lat="37.251455" lon="-7.08471667">
        <ele>51.0</ele>
        <time>2020-01-18T09:48:12.154Z</time>
      </trkpt>
      <trkpt lat="37.251505" lon="-7.08469833">
        <ele>51.0</ele>
        <time>2020-01-18T09:48:13.130Z</time>
      </trkpt>
      <trkpt lat="37.251525" lon="-7.08469667">
        <ele>51.0</ele>
        <time>2020-01-18T09:48:14.129Z</time>
      </trkpt>
      <trkpt lat="37.251525" lon="-7.08469667">
        <ele>51.0</ele>
        <time>2020-01-18T09:48:15.156Z</time>
      </trkpt>
      <trkpt lat="37.251575" lon="-7.084685">
        <ele>52.0</ele>
        <time>2020-01-18T09:48:16.151Z</time>
      </trkpt>
      <trkpt lat="37.251575" lon="-7.084685">
        <ele>52.0</ele>
        <time>2020-01-18T09:48:17.155Z</time>
      </trkpt>
      <trkpt lat="37.25162333" lon="-7.08466">
        <ele>52.0</ele>
        <time>2020-01-18T09:48:18.160Z</time>
      </trkpt>
      <trkpt lat="37.25162333" lon="-7.08466">
        <ele>52.0</ele>
        <time>2020-01-18T09:48:19.153Z</time>
      </trkpt>
      <trkpt lat="37.25167167" lon="-7.084625">
        <ele>53.0</ele>
        <time>2020-01-18T09:48:20.134Z</time>
      </trkpt>
      <trkpt lat="37.25167167" lon="-7.084625">
        <ele>53.0</ele>
        <time>2020-01-18T09:48:21.155Z</time>
      </trkpt>
      <trkpt lat="37.25171667" lon="-7.0846">
        <ele>54.0</ele>
        <time>2020-01-18T09:48:22.226Z</time>
      </trkpt>
      <trkpt lat="37.25174333" lon="-7.08458">
        <ele>54.0</ele>
        <time>2020-01-18T09:48:23.130Z</time>
      </trkpt>
      <trkpt lat="37.25174333" lon="-7.08458">
        <ele>54.0</ele>
        <time>2020-01-18T09:48:24.159Z</time>
      </trkpt>
      <trkpt lat="37.25179167" lon="-7.08453667">
        <ele>55.0</ele>
        <time>2020-01-18T09:48:25.146Z</time>
      </trkpt>
      <trkpt lat="37.25181167" lon="-7.08451167">
        <ele>55.0</ele>
        <time>2020-01-18T09:48:26.159Z</time>
      </trkpt>
      <trkpt lat="37.25181167" lon="-7.08451167">
        <ele>55.0</ele>
        <time>2020-01-18T09:48:27.133Z</time>
      </trkpt>
      <trkpt lat="37.25184333" lon="-7.08445167">
        <ele>56.0</ele>
        <time>2020-01-18T09:48:28.147Z</time>
      </trkpt>
      <trkpt lat="37.25184333" lon="-7.08445167">
        <ele>56.0</ele>
        <time>2020-01-18T09:48:29.147Z</time>
      </trkpt>
      <trkpt lat="37.25187667" lon="-7.08439833">
        <ele>56.0</ele>
        <time>2020-01-18T09:48:30.147Z</time>
      </trkpt>
      <trkpt lat="37.25188833" lon="-7.08437">
        <ele>57.0</ele>
        <time>2020-01-18T09:48:31.140Z</time>
      </trkpt>
      <trkpt lat="37.2519" lon="-7.08434667">
        <ele>57.0</ele>
        <time>2020-01-18T09:48:32.166Z</time>
      </trkpt>
      <trkpt lat="37.2519" lon="-7.08434667">
        <ele>57.0</ele>
        <time>2020-01-18T09:48:33.152Z</time>
      </trkpt>
      <trkpt lat="37.25192" lon="-7.0843">
        <ele>58.0</ele>
        <time>2020-01-18T09:48:34.140Z</time>
      </trkpt>
      <trkpt lat="37.25192" lon="-7.0843">
        <ele>58.0</ele>
        <time>2020-01-18T09:48:35.151Z</time>
      </trkpt>
      <trkpt lat="37.25195" lon="-7.08426">
        <ele>58.0</ele>
        <time>2020-01-18T09:48:36.164Z</time>
      </trkpt>
      <trkpt lat="37.25195" lon="-7.08426">
        <ele>58.0</ele>
        <time>2020-01-18T09:48:37.165Z</time>
      </trkpt>
      <trkpt lat="37.251985" lon="-7.08422333">
        <ele>59.0</ele>
        <time>2020-01-18T09:48:38.152Z</time>
      </trkpt>
      <trkpt lat="37.251985" lon="-7.08422333">
        <ele>59.0</ele>
        <time>2020-01-18T09:48:39.133Z</time>
      </trkpt>
      <trkpt lat="37.25202333" lon="-7.08418667">
        <ele>59.0</ele>
        <time>2020-01-18T09:48:40.166Z</time>
      </trkpt>
      <trkpt lat="37.25204" lon="-7.08416833">
        <ele>59.0</ele>
        <time>2020-01-18T09:48:41.166Z</time>
      </trkpt>
      <trkpt lat="37.25204" lon="-7.08416833">
        <ele>59.0</ele>
        <time>2020-01-18T09:48:42.168Z</time>
      </trkpt>
      <trkpt lat="37.25207167" lon="-7.084135">
        <ele>60.0</ele>
        <time>2020-01-18T09:48:43.143Z</time>
      </trkpt>
      <trkpt lat="37.252085" lon="-7.08411833">
        <ele>60.0</ele>
        <time>2020-01-18T09:48:44.134Z</time>
      </trkpt>
      <trkpt lat="37.252085" lon="-7.08411833">
        <ele>60.0</ele>
        <time>2020-01-18T09:48:45.162Z</time>
      </trkpt>
      <trkpt lat="37.25212167" lon="-7.08408333">
        <ele>61.0</ele>
        <time>2020-01-18T09:48:46.144Z</time>
      </trkpt>
      <trkpt lat="37.25212167" lon="-7.08408333">
        <ele>61.0</ele>
        <time>2020-01-18T09:48:47.155Z</time>
      </trkpt>
      <trkpt lat="37.25215833" lon="-7.08405333">
        <ele>61.0</ele>
        <time>2020-01-18T09:48:48.133Z</time>
      </trkpt>
      <trkpt lat="37.25215833" lon="-7.08405333">
        <ele>61.0</ele>
        <time>2020-01-18T09:48:49.154Z</time>
      </trkpt>
      <trkpt lat="37.252205" lon="-7.08401833">
        <ele>62.0</ele>
        <time>2020-01-18T09:48:50.143Z</time>
      </trkpt>
      <trkpt lat="37.252205" lon="-7.08401833">
        <ele>62.0</ele>
        <time>2020-01-18T09:48:51.151Z</time>
      </trkpt>
      <trkpt lat="37.252255" lon="-7.08394833">
        <ele>62.0</ele>
        <time>2020-01-18T09:48:52.137Z</time>
      </trkpt>
      <trkpt lat="37.252275" lon="-7.08390833">
        <ele>62.0</ele>
        <time>2020-01-18T09:48:53.133Z</time>
      </trkpt>
      <trkpt lat="37.252275" lon="-7.08390833">
        <ele>62.0</ele>
        <time>2020-01-18T09:48:54.142Z</time>
      </trkpt>
      <trkpt lat="37.252315" lon="-7.08385167">
        <ele>62.0</ele>
        <time>2020-01-18T09:48:55.142Z</time>
      </trkpt>
      <trkpt lat="37.25233833" lon="-7.08382167">
        <ele>62.0</ele>
        <time>2020-01-18T09:48:56.144Z</time>
      </trkpt>
      <trkpt lat="37.25233833" lon="-7.08382167">
        <ele>62.0</ele>
        <time>2020-01-18T09:48:57.164Z</time>
      </trkpt>
      <trkpt lat="37.25238333" lon="-7.08375">
        <ele>62.0</ele>
        <time>2020-01-18T09:48:58.150Z</time>
      </trkpt>
      <trkpt lat="37.25238333" lon="-7.08375">
        <ele>62.0</ele>
        <time>2020-01-18T09:48:59.141Z</time>
      </trkpt>
      <trkpt lat="37.25242333" lon="-7.08367">
        <ele>62.0</ele>
        <time>2020-01-18T09:49:00.141Z</time>
      </trkpt>
      <trkpt lat="37.25242333" lon="-7.08367">
        <ele>62.0</ele>
        <time>2020-01-18T09:49:01.157Z</time>
      </trkpt>
      <trkpt lat="37.252455" lon="-7.08359667">
        <ele>61.0</ele>
        <time>2020-01-18T09:49:02.131Z</time>
      </trkpt>
      <trkpt lat="37.252455" lon="-7.08359667">
        <ele>61.0</ele>
        <time>2020-01-18T09:49:03.168Z</time>
      </trkpt>
      <trkpt lat="37.25249" lon="-7.08353">
        <ele>61.0</ele>
        <time>2020-01-18T09:49:04.153Z</time>
      </trkpt>
      <trkpt lat="37.25249" lon="-7.08353">
        <ele>61.0</ele>
        <time>2020-01-18T09:49:05.139Z</time>
      </trkpt>
      <trkpt lat="37.252515" lon="-7.083475">
        <ele>60.0</ele>
        <time>2020-01-18T09:49:06.154Z</time>
      </trkpt>
      <trkpt lat="37.252515" lon="-7.083475">
        <ele>60.0</ele>
        <time>2020-01-18T09:49:07.155Z</time>
      </trkpt>
      <trkpt lat="37.25254" lon="-7.08342833">
        <ele>60.0</ele>
        <time>2020-01-18T09:49:08.149Z</time>
      </trkpt>
      <trkpt lat="37.25254" lon="-7.08342833">
        <ele>60.0</ele>
        <time>2020-01-18T09:49:09.168Z</time>
      </trkpt>
      <trkpt lat="37.252575" lon="-7.08341167">
        <ele>60.0</ele>
        <time>2020-01-18T09:49:10.169Z</time>
      </trkpt>
      <trkpt lat="37.252575" lon="-7.08341167">
        <ele>60.0</ele>
        <time>2020-01-18T09:49:11.158Z</time>
      </trkpt>
      <trkpt lat="37.25260833" lon="-7.08339667">
        <ele>60.0</ele>
        <time>2020-01-18T09:49:12.146Z</time>
      </trkpt>
      <trkpt lat="37.25260833" lon="-7.08339667">
        <ele>60.0</ele>
        <time>2020-01-18T09:49:13.160Z</time>
      </trkpt>
      <trkpt lat="37.25263833" lon="-7.08336833">
        <ele>61.0</ele>
        <time>2020-01-18T09:49:14.156Z</time>
      </trkpt>
      <trkpt lat="37.25263833" lon="-7.08336833">
        <ele>61.0</ele>
        <time>2020-01-18T09:49:15.154Z</time>
      </trkpt>
      <trkpt lat="37.252675" lon="-7.08336167">
        <ele>61.0</ele>
        <time>2020-01-18T09:49:16.168Z</time>
      </trkpt>
      <trkpt lat="37.252675" lon="-7.08336167">
        <ele>61.0</ele>
        <time>2020-01-18T09:49:17.141Z</time>
      </trkpt>
      <trkpt lat="37.25271333" lon="-7.08336167">
        <ele>62.0</ele>
        <time>2020-01-18T09:49:18.167Z</time>
      </trkpt>
      <trkpt lat="37.25273" lon="-7.08336">
        <ele>62.0</ele>
        <time>2020-01-18T09:49:19.166Z</time>
      </trkpt>
      <trkpt lat="37.25273" lon="-7.08336">
        <ele>62.0</ele>
        <time>2020-01-18T09:49:20.154Z</time>
      </trkpt>
      <trkpt lat="37.25275833" lon="-7.08335833">
        <ele>62.0</ele>
        <time>2020-01-18T09:49:21.143Z</time>
      </trkpt>
      <trkpt lat="37.25278" lon="-7.08335833">
        <ele>63.0</ele>
        <time>2020-01-18T09:49:22.143Z</time>
      </trkpt>
      <trkpt lat="37.25278" lon="-7.08335833">
        <ele>63.0</ele>
        <time>2020-01-18T09:49:23.164Z</time>
      </trkpt>
      <trkpt lat="37.252825" lon="-7.08335">
        <ele>63.0</ele>
        <time>2020-01-18T09:49:24.155Z</time>
      </trkpt>
      <trkpt lat="37.252825" lon="-7.08335">
        <ele>63.0</ele>
        <time>2020-01-18T09:49:25.132Z</time>
      </trkpt>
      <trkpt lat="37.25285833" lon="-7.08332833">
        <ele>63.0</ele>
        <time>2020-01-18T09:49:26.156Z</time>
      </trkpt>
      <trkpt lat="37.25285833" lon="-7.08332833">
        <ele>63.0</ele>
        <time>2020-01-18T09:49:27.167Z</time>
      </trkpt>
      <trkpt lat="37.252875" lon="-7.08329333">
        <ele>63.0</ele>
        <time>2020-01-18T09:49:28.166Z</time>
      </trkpt>
      <trkpt lat="37.252875" lon="-7.08329333">
        <ele>63.0</ele>
        <time>2020-01-18T09:49:29.141Z</time>
      </trkpt>
      <trkpt lat="37.25288" lon="-7.08325833">
        <ele>63.0</ele>
        <time>2020-01-18T09:49:30.165Z</time>
      </trkpt>
      <trkpt lat="37.25288" lon="-7.08325833">
        <ele>63.0</ele>
        <time>2020-01-18T09:49:31.141Z</time>
      </trkpt>
      <trkpt lat="37.25287333" lon="-7.08321667">
        <ele>63.0</ele>
        <time>2020-01-18T09:49:32.147Z</time>
      </trkpt>
      <trkpt lat="37.25286667" lon="-7.08319833">
        <ele>63.0</ele>
        <time>2020-01-18T09:49:33.169Z</time>
      </trkpt>
      <trkpt lat="37.25286667" lon="-7.08319833">
        <ele>63.0</ele>
        <time>2020-01-18T09:49:34.154Z</time>
      </trkpt>
      <trkpt lat="37.25285" lon="-7.08315167">
        <ele>63.0</ele>
        <time>2020-01-18T09:49:35.133Z</time>
      </trkpt>
      <trkpt lat="37.25284333" lon="-7.08313">
        <ele>64.0</ele>
        <time>2020-01-18T09:49:36.148Z</time>
      </trkpt>
      <trkpt lat="37.25284" lon="-7.08310833">
        <ele>64.0</ele>
        <time>2020-01-18T09:49:37.167Z</time>
      </trkpt>
      <trkpt lat="37.25284" lon="-7.08310833">
        <ele>64.0</ele>
        <time>2020-01-18T09:49:38.129Z</time>
      </trkpt>
      <trkpt lat="37.25282" lon="-7.08306667">
        <ele>64.0</ele>
        <time>2020-01-18T09:49:39.154Z</time>
      </trkpt>
      <trkpt lat="37.25280833" lon="-7.08305">
        <ele>64.0</ele>
        <time>2020-01-18T09:49:40.163Z</time>
      </trkpt>
      <trkpt lat="37.25280833" lon="-7.08305">
        <ele>64.0</ele>
        <time>2020-01-18T09:49:41.153Z</time>
      </trkpt>
      <trkpt lat="37.25278667" lon="-7.08301333">
        <ele>65.0</ele>
        <time>2020-01-18T09:49:42.158Z</time>
      </trkpt>
      <trkpt lat="37.25276833" lon="-7.08299833">
        <ele>65.0</ele>
        <time>2020-01-18T09:49:43.135Z</time>
      </trkpt>
      <trkpt lat="37.25276833" lon="-7.08299833">
        <ele>65.0</ele>
        <time>2020-01-18T09:49:44.156Z</time>
      </trkpt>
      <trkpt lat="37.25272833" lon="-7.08296833">
        <ele>65.0</ele>
        <time>2020-01-18T09:49:45.145Z</time>
      </trkpt>
      <trkpt lat="37.25272833" lon="-7.08296833">
        <ele>65.0</ele>
        <time>2020-01-18T09:49:46.131Z</time>
      </trkpt>
      <trkpt lat="37.25268667" lon="-7.082945">
        <ele>64.0</ele>
        <time>2020-01-18T09:49:47.141Z</time>
      </trkpt>
      <trkpt lat="37.25268667" lon="-7.082945">
        <ele>64.0</ele>
        <time>2020-01-18T09:49:48.152Z</time>
      </trkpt>
      <trkpt lat="37.25266167" lon="-7.082925">
        <ele>64.0</ele>
        <time>2020-01-18T09:49:49.136Z</time>
      </trkpt>
      <trkpt lat="37.25264167" lon="-7.08292667">
        <ele>64.0</ele>
        <time>2020-01-18T09:49:50.132Z</time>
      </trkpt>
      <trkpt lat="37.25264167" lon="-7.08292667">
        <ele>64.0</ele>
        <time>2020-01-18T09:49:51.167Z</time>
      </trkpt>
      <trkpt lat="37.25261167" lon="-7.08293167">
        <ele>63.0</ele>
        <time>2020-01-18T09:49:52.155Z</time>
      </trkpt>
      <trkpt lat="37.25259333" lon="-7.08292667">
        <ele>63.0</ele>
        <time>2020-01-18T09:49:53.161Z</time>
      </trkpt>
      <trkpt lat="37.25259333" lon="-7.08292667">
        <ele>63.0</ele>
        <time>2020-01-18T09:49:54.148Z</time>
      </trkpt>
      <trkpt lat="37.25255" lon="-7.08292667">
        <ele>63.0</ele>
        <time>2020-01-18T09:49:55.129Z</time>
      </trkpt>
      <trkpt lat="37.25252667" lon="-7.08292833">
        <ele>63.0</ele>
        <time>2020-01-18T09:49:56.160Z</time>
      </trkpt>
      <trkpt lat="37.25252667" lon="-7.08292833">
        <ele>63.0</ele>
        <time>2020-01-18T09:49:57.136Z</time>
      </trkpt>
      <trkpt lat="37.25246" lon="-7.08292167">
        <ele>62.0</ele>
        <time>2020-01-18T09:49:58.129Z</time>
      </trkpt>
      <trkpt lat="37.25246" lon="-7.08292167">
        <ele>62.0</ele>
        <time>2020-01-18T09:49:59.157Z</time>
      </trkpt>
      <trkpt lat="37.25239667" lon="-7.08292833">
        <ele>61.0</ele>
        <time>2020-01-18T09:50:00.149Z</time>
      </trkpt>
      <trkpt lat="37.25236333" lon="-7.08293333">
        <ele>61.0</ele>
        <time>2020-01-18T09:50:01.153Z</time>
      </trkpt>
      <trkpt lat="37.252335" lon="-7.08293833">
        <ele>61.0</ele>
        <time>2020-01-18T09:50:02.137Z</time>
      </trkpt>
      <trkpt lat="37.252335" lon="-7.08293833">
        <ele>61.0</ele>
        <time>2020-01-18T09:50:03.168Z</time>
      </trkpt>
      <trkpt lat="37.252295" lon="-7.08293833">
        <ele>61.0</ele>
        <time>2020-01-18T09:50:04.145Z</time>
      </trkpt>
      <trkpt lat="37.25228" lon="-7.08293833">
        <ele>61.0</ele>
        <time>2020-01-18T09:50:05.132Z</time>
      </trkpt>
      <trkpt lat="37.25228167" lon="-7.08294167">
        <ele>60.0</ele>
        <time>2020-01-18T09:50:06.141Z</time>
      </trkpt>
      <trkpt lat="37.25228167" lon="-7.08294167">
        <ele>60.0</ele>
        <time>2020-01-18T09:50:07.141Z</time>
      </trkpt>
      <trkpt lat="37.25227667" lon="-7.08293833">
        <ele>60.0</ele>
        <time>2020-01-18T09:50:08.133Z</time>
      </trkpt>
      <trkpt lat="37.25227667" lon="-7.08293833">
        <ele>60.0</ele>
        <time>2020-01-18T09:50:09.153Z</time>
      </trkpt>
      <trkpt lat="37.25227667" lon="-7.08293833">
        <ele>60.0</ele>
        <time>2020-01-18T09:50:10.164Z</time>
      </trkpt>
      <trkpt lat="37.25227667" lon="-7.08293833">
        <ele>60.0</ele>
        <time>2020-01-18T09:50:11.153Z</time>
      </trkpt>
      <trkpt lat="37.25227667" lon="-7.08293833">
        <ele>60.0</ele>
        <time>2020-01-18T09:50:12.159Z</time>
      </trkpt>
      <trkpt lat="37.25227667" lon="-7.08293833">
        <ele>60.0</ele>
        <time>2020-01-18T09:50:13.186Z</time>
      </trkpt>
      <trkpt lat="37.25227667" lon="-7.08293833">
        <ele>60.0</ele>
        <time>2020-01-18T09:50:14.166Z</time>
      </trkpt>
      <trkpt lat="37.25227667" lon="-7.08293833">
        <ele>60.0</ele>
        <time>2020-01-18T09:50:15.151Z</time>
      </trkpt>
      <trkpt lat="37.25227667" lon="-7.08293833">
        <ele>60.0</ele>
        <time>2020-01-18T09:50:16.155Z</time>
      </trkpt>
      <trkpt lat="37.25227667" lon="-7.08293833">
        <ele>60.0</ele>
        <time>2020-01-18T09:50:17.131Z</time>
      </trkpt>
      <trkpt lat="37.25227667" lon="-7.08293833">
        <ele>60.0</ele>
        <time>2020-01-18T09:50:18.145Z</time>
      </trkpt>
      <trkpt lat="37.25227667" lon="-7.08293833">
        <ele>60.0</ele>
        <time>2020-01-18T09:50:19.163Z</time>
      </trkpt>
      <trkpt lat="37.25227667" lon="-7.08293833">
        <ele>60.0</ele>
        <time>2020-01-18T09:50:20.151Z</time>
      </trkpt>
      <trkpt lat="37.25227667" lon="-7.08293833">
        <ele>60.0</ele>
        <time>2020-01-18T09:50:21.138Z</time>
      </trkpt>
      <trkpt lat="37.25227667" lon="-7.08293833">
        <ele>60.0</ele>
        <time>2020-01-18T09:50:22.148Z</time>
      </trkpt>
      <trkpt lat="37.25227667" lon="-7.08293833">
        <ele>60.0</ele>
        <time>2020-01-18T09:50:23.154Z</time>
      </trkpt>
      <trkpt lat="37.25227667" lon="-7.08293833">
        <ele>60.0</ele>
        <time>2020-01-18T09:50:24.149Z</time>
      </trkpt>
      <trkpt lat="37.25227667" lon="-7.08293833">
        <ele>60.0</ele>
        <time>2020-01-18T09:50:25.144Z</time>
      </trkpt>
      <trkpt lat="37.25227667" lon="-7.08293833">
        <ele>60.0</ele>
        <time>2020-01-18T09:50:26.166Z</time>
      </trkpt>
      <trkpt lat="37.25227667" lon="-7.08293833">
        <ele>60.0</ele>
        <time>2020-01-18T09:50:27.147Z</time>
      </trkpt>
      <trkpt lat="37.25227667" lon="-7.08293833">
        <ele>60.0</ele>
        <time>2020-01-18T09:50:28.146Z</time>
      </trkpt>
      <trkpt lat="37.25227667" lon="-7.08293833">
        <ele>60.0</ele>
        <time>2020-01-18T09:50:29.136Z</time>
      </trkpt>
      <trkpt lat="37.25227667" lon="-7.08293833">
        <ele>60.0</ele>
        <time>2020-01-18T09:50:30.159Z</time>
      </trkpt>
      <trkpt lat="37.25227667" lon="-7.08293833">
        <ele>60.0</ele>
        <time>2020-01-18T09:50:31.146Z</time>
      </trkpt>
      <trkpt lat="37.25227667" lon="-7.08293833">
        <ele>60.0</ele>
        <time>2020-01-18T09:50:32.142Z</time>
      </trkpt>
      <trkpt lat="37.25227667" lon="-7.08293833">
        <ele>60.0</ele>
        <time>2020-01-18T09:50:33.150Z</time>
      </trkpt>
      <trkpt lat="37.25227667" lon="-7.08293833">
        <ele>60.0</ele>
        <time>2020-01-18T09:50:34.160Z</time>
      </trkpt>
      <trkpt lat="37.25227667" lon="-7.08293833">
        <ele>60.0</ele>
        <time>2020-01-18T09:50:35.129Z</time>
      </trkpt>
      <trkpt lat="37.25227667" lon="-7.08293833">
        <ele>60.0</ele>
        <time>2020-01-18T09:50:36.142Z</time>
      </trkpt>
      <trkpt lat="37.25227667" lon="-7.08293833">
        <ele>60.0</ele>
        <time>2020-01-18T09:50:37.162Z</time>
      </trkpt>
      <trkpt lat="37.25227667" lon="-7.08293833">
        <ele>60.0</ele>
        <time>2020-01-18T09:50:38.169Z</time>
      </trkpt>
      <trkpt lat="37.25227667" lon="-7.08293833">
        <ele>60.0</ele>
        <time>2020-01-18T09:50:39.135Z</time>
      </trkpt>
      <trkpt lat="37.25227667" lon="-7.08293833">
        <ele>60.0</ele>
        <time>2020-01-18T09:50:40.156Z</time>
      </trkpt>
      <trkpt lat="37.25227667" lon="-7.08293833">
        <ele>60.0</ele>
        <time>2020-01-18T09:50:41.166Z</time>
      </trkpt>
      <trkpt lat="37.25227667" lon="-7.08293833">
        <ele>60.0</ele>
        <time>2020-01-18T09:50:42.149Z</time>
      </trkpt>
      <trkpt lat="37.25227667" lon="-7.08293833">
        <ele>60.0</ele>
        <time>2020-01-18T09:50:43.158Z</time>
      </trkpt>
      <trkpt lat="37.25227667" lon="-7.08293833">
        <ele>60.0</ele>
        <time>2020-01-18T09:50:44.165Z</time>
      </trkpt>
      <trkpt lat="37.25227667" lon="-7.08293833">
        <ele>60.0</ele>
        <time>2020-01-18T09:50:45.134Z</time>
      </trkpt>
      <trkpt lat="37.25227667" lon="-7.08293833">
        <ele>60.0</ele>
        <time>2020-01-18T09:50:46.142Z</time>
      </trkpt>
      <trkpt lat="37.25227667" lon="-7.08293833">
        <ele>60.0</ele>
        <time>2020-01-18T09:50:47.165Z</time>
      </trkpt>
      <trkpt lat="37.25227667" lon="-7.08293833">
        <ele>60.0</ele>
        <time>2020-01-18T09:50:48.146Z</time>
      </trkpt>
      <trkpt lat="37.25227667" lon="-7.08293833">
        <ele>60.0</ele>
        <time>2020-01-18T09:50:49.154Z</time>
      </trkpt>
      <trkpt lat="37.252265" lon="-7.082895">
        <ele>57.0</ele>
        <time>2020-01-18T09:50:50.161Z</time>
      </trkpt>
      <trkpt lat="37.252265" lon="-7.082895">
        <ele>57.0</ele>
        <time>2020-01-18T09:50:51.132Z</time>
      </trkpt>
      <trkpt lat="37.25225" lon="-7.08289167">
        <ele>56.0</ele>
        <time>2020-01-18T09:50:52.165Z</time>
      </trkpt>
      <trkpt lat="37.25225" lon="-7.08289167">
        <ele>56.0</ele>
        <time>2020-01-18T09:50:53.147Z</time>
      </trkpt>
      <trkpt lat="37.252225" lon="-7.08289">
        <ele>56.0</ele>
        <time>2020-01-18T09:50:54.166Z</time>
      </trkpt>
      <trkpt lat="37.25221167" lon="-7.08289333">
        <ele>56.0</ele>
        <time>2020-01-18T09:50:55.143Z</time>
      </trkpt>
      <trkpt lat="37.25221167" lon="-7.08289333">
        <ele>56.0</ele>
        <time>2020-01-18T09:50:56.162Z</time>
      </trkpt>
      <trkpt lat="37.252185" lon="-7.08289667">
        <ele>56.0</ele>
        <time>2020-01-18T09:50:57.163Z</time>
      </trkpt>
      <trkpt lat="37.25216833" lon="-7.08289833">
        <ele>56.0</ele>
        <time>2020-01-18T09:50:58.131Z</time>
      </trkpt>
      <trkpt lat="37.25216833" lon="-7.08289833">
        <ele>56.0</ele>
        <time>2020-01-18T09:50:59.142Z</time>
      </trkpt>
      <trkpt lat="37.25214167" lon="-7.0829">
        <ele>56.0</ele>
        <time>2020-01-18T09:51:00.129Z</time>
      </trkpt>
      <trkpt lat="37.25213333" lon="-7.08290167">
        <ele>56.0</ele>
        <time>2020-01-18T09:51:01.144Z</time>
      </trkpt>
      <trkpt lat="37.25213333" lon="-7.08290167">
        <ele>56.0</ele>
        <time>2020-01-18T09:51:02.135Z</time>
      </trkpt>
      <trkpt lat="37.25210667" lon="-7.08291">
        <ele>56.0</ele>
        <time>2020-01-18T09:51:03.165Z</time>
      </trkpt>
      <trkpt lat="37.25209" lon="-7.08291833">
        <ele>56.0</ele>
        <time>2020-01-18T09:51:04.137Z</time>
      </trkpt>
      <trkpt lat="37.25209" lon="-7.08291833">
        <ele>56.0</ele>
        <time>2020-01-18T09:51:05.143Z</time>
      </trkpt>
      <trkpt lat="37.25205833" lon="-7.08294667">
        <ele>56.0</ele>
        <time>2020-01-18T09:51:06.132Z</time>
      </trkpt>
      <trkpt lat="37.25204167" lon="-7.08295833">
        <ele>56.0</ele>
        <time>2020-01-18T09:51:07.135Z</time>
      </trkpt>
      <trkpt lat="37.25204167" lon="-7.08295833">
        <ele>56.0</ele>
        <time>2020-01-18T09:51:08.138Z</time>
      </trkpt>
      <trkpt lat="37.252015" lon="-7.08298333">
        <ele>56.0</ele>
        <time>2020-01-18T09:51:09.159Z</time>
      </trkpt>
      <trkpt lat="37.25200333" lon="-7.083">
        <ele>56.0</ele>
        <time>2020-01-18T09:51:10.148Z</time>
      </trkpt>
      <trkpt lat="37.25200333" lon="-7.083">
        <ele>56.0</ele>
        <time>2020-01-18T09:51:11.130Z</time>
      </trkpt>
      <trkpt lat="37.25198333" lon="-7.083035">
        <ele>56.0</ele>
        <time>2020-01-18T09:51:12.155Z</time>
      </trkpt>
      <trkpt lat="37.25197167" lon="-7.08305333">
        <ele>56.0</ele>
        <time>2020-01-18T09:51:13.134Z</time>
      </trkpt>
      <trkpt lat="37.25197167" lon="-7.08305333">
        <ele>56.0</ele>
        <time>2020-01-18T09:51:14.160Z</time>
      </trkpt>
      <trkpt lat="37.25194667" lon="-7.083095">
        <ele>56.0</ele>
        <time>2020-01-18T09:51:15.136Z</time>
      </trkpt>
      <trkpt lat="37.25194667" lon="-7.083095">
        <ele>56.0</ele>
        <time>2020-01-18T09:51:16.145Z</time>
      </trkpt>
      <trkpt lat="37.251925" lon="-7.08312333">
        <ele>56.0</ele>
        <time>2020-01-18T09:51:17.160Z</time>
      </trkpt>
      <trkpt lat="37.251925" lon="-7.08312333">
        <ele>56.0</ele>
        <time>2020-01-18T09:51:18.154Z</time>
      </trkpt>
      <trkpt lat="37.25191667" lon="-7.08313">
        <ele>56.0</ele>
        <time>2020-01-18T09:51:19.139Z</time>
      </trkpt>
      <trkpt lat="37.25191667" lon="-7.08313">
        <ele>56.0</ele>
        <time>2020-01-18T09:51:20.135Z</time>
      </trkpt>
      <trkpt lat="37.25191667" lon="-7.08313">
        <ele>56.0</ele>
        <time>2020-01-18T09:51:21.129Z</time>
      </trkpt>
      <trkpt lat="37.25191833" lon="-7.08307333">
        <ele>56.0</ele>
        <time>2020-01-18T09:51:22.136Z</time>
      </trkpt>
      <trkpt lat="37.25193167" lon="-7.08306">
        <ele>56.0</ele>
        <time>2020-01-18T09:51:23.143Z</time>
      </trkpt>
      <trkpt lat="37.25193167" lon="-7.08306">
        <ele>56.0</ele>
        <time>2020-01-18T09:51:24.151Z</time>
      </trkpt>
      <trkpt lat="37.25196167" lon="-7.08303167">
        <ele>57.0</ele>
        <time>2020-01-18T09:51:25.148Z</time>
      </trkpt>
      <trkpt lat="37.25197833" lon="-7.08301333">
        <ele>57.0</ele>
        <time>2020-01-18T09:51:26.153Z</time>
      </trkpt>
      <trkpt lat="37.25197833" lon="-7.08301333">
        <ele>57.0</ele>
        <time>2020-01-18T09:51:27.160Z</time>
      </trkpt>
      <trkpt lat="37.252015" lon="-7.08297333">
        <ele>57.0</ele>
        <time>2020-01-18T09:51:28.144Z</time>
      </trkpt>
      <trkpt lat="37.252015" lon="-7.08297333">
        <ele>57.0</ele>
        <time>2020-01-18T09:51:29.150Z</time>
      </trkpt>
      <trkpt lat="37.25206667" lon="-7.08294333">
        <ele>57.0</ele>
        <time>2020-01-18T09:51:30.148Z</time>
      </trkpt>
      <trkpt lat="37.25206667" lon="-7.08294333">
        <ele>57.0</ele>
        <time>2020-01-18T09:51:31.168Z</time>
      </trkpt>
      <trkpt lat="37.252125" lon="-7.08292833">
        <ele>57.0</ele>
        <time>2020-01-18T09:51:32.142Z</time>
      </trkpt>
      <trkpt lat="37.25215833" lon="-7.08293">
        <ele>57.0</ele>
        <time>2020-01-18T09:51:33.131Z</time>
      </trkpt>
      <trkpt lat="37.25215833" lon="-7.08293">
        <ele>57.0</ele>
        <time>2020-01-18T09:51:34.138Z</time>
      </trkpt>
      <trkpt lat="37.252215" lon="-7.08294333">
        <ele>58.0</ele>
        <time>2020-01-18T09:51:35.164Z</time>
      </trkpt>
      <trkpt lat="37.252215" lon="-7.08294333">
        <ele>58.0</ele>
        <time>2020-01-18T09:51:36.132Z</time>
      </trkpt>
      <trkpt lat="37.25228" lon="-7.082955">
        <ele>58.0</ele>
        <time>2020-01-18T09:51:37.165Z</time>
      </trkpt>
      <trkpt lat="37.25228" lon="-7.082955">
        <ele>58.0</ele>
        <time>2020-01-18T09:51:38.131Z</time>
      </trkpt>
      <trkpt lat="37.25234667" lon="-7.08295167">
        <ele>58.0</ele>
        <time>2020-01-18T09:51:39.161Z</time>
      </trkpt>
      <trkpt lat="37.25237833" lon="-7.08295">
        <ele>58.0</ele>
        <time>2020-01-18T09:51:40.150Z</time>
      </trkpt>
      <trkpt lat="37.25237833" lon="-7.08295">
        <ele>58.0</ele>
        <time>2020-01-18T09:51:41.157Z</time>
      </trkpt>
      <trkpt lat="37.25243167" lon="-7.08294833">
        <ele>59.0</ele>
        <time>2020-01-18T09:51:42.154Z</time>
      </trkpt>
      <trkpt lat="37.25246" lon="-7.082945">
        <ele>59.0</ele>
        <time>2020-01-18T09:51:43.135Z</time>
      </trkpt>
      <trkpt lat="37.25246" lon="-7.082945">
        <ele>59.0</ele>
        <time>2020-01-18T09:51:44.142Z</time>
      </trkpt>
      <trkpt lat="37.25251167" lon="-7.08294333">
        <ele>60.0</ele>
        <time>2020-01-18T09:51:45.140Z</time>
      </trkpt>
      <trkpt lat="37.25254167" lon="-7.08295">
        <ele>60.0</ele>
        <time>2020-01-18T09:51:46.132Z</time>
      </trkpt>
      <trkpt lat="37.25254167" lon="-7.08295">
        <ele>60.0</ele>
        <time>2020-01-18T09:51:47.139Z</time>
      </trkpt>
      <trkpt lat="37.25260833" lon="-7.08296167">
        <ele>61.0</ele>
        <time>2020-01-18T09:51:48.162Z</time>
      </trkpt>
      <trkpt lat="37.25260833" lon="-7.08296167">
        <ele>61.0</ele>
        <time>2020-01-18T09:51:49.169Z</time>
      </trkpt>
      <trkpt lat="37.25267667" lon="-7.08298333">
        <ele>61.0</ele>
        <time>2020-01-18T09:51:50.156Z</time>
      </trkpt>
      <trkpt lat="37.25267667" lon="-7.08298333">
        <ele>61.0</ele>
        <time>2020-01-18T09:51:51.164Z</time>
      </trkpt>
      <trkpt lat="37.25274333" lon="-7.08301333">
        <ele>62.0</ele>
        <time>2020-01-18T09:51:52.163Z</time>
      </trkpt>
      <trkpt lat="37.25274333" lon="-7.08301333">
        <ele>62.0</ele>
        <time>2020-01-18T09:51:53.129Z</time>
      </trkpt>
      <trkpt lat="37.25280667" lon="-7.08305167">
        <ele>62.0</ele>
        <time>2020-01-18T09:51:54.137Z</time>
      </trkpt>
      <trkpt lat="37.25280667" lon="-7.08305167">
        <ele>62.0</ele>
        <time>2020-01-18T09:51:55.144Z</time>
      </trkpt>
      <trkpt lat="37.25286667" lon="-7.08310333">
        <ele>62.0</ele>
        <time>2020-01-18T09:51:56.149Z</time>
      </trkpt>
      <trkpt lat="37.25286667" lon="-7.08310333">
        <ele>62.0</ele>
        <time>2020-01-18T09:51:57.156Z</time>
      </trkpt>
      <trkpt lat="37.25291833" lon="-7.083155">
        <ele>62.0</ele>
        <time>2020-01-18T09:51:58.163Z</time>
      </trkpt>
      <trkpt lat="37.25294167" lon="-7.08318167">
        <ele>62.0</ele>
        <time>2020-01-18T09:51:59.136Z</time>
      </trkpt>
      <trkpt lat="37.25297" lon="-7.08320833">
        <ele>61.0</ele>
        <time>2020-01-18T09:52:00.161Z</time>
      </trkpt>
      <trkpt lat="37.25297" lon="-7.08320833">
        <ele>61.0</ele>
        <time>2020-01-18T09:52:01.167Z</time>
      </trkpt>
      <trkpt lat="37.25302" lon="-7.08326">
        <ele>61.0</ele>
        <time>2020-01-18T09:52:02.161Z</time>
      </trkpt>
      <trkpt lat="37.25302" lon="-7.08326">
        <ele>61.0</ele>
        <time>2020-01-18T09:52:03.167Z</time>
      </trkpt>
      <trkpt lat="37.25306167" lon="-7.08333">
        <ele>61.0</ele>
        <time>2020-01-18T09:52:04.160Z</time>
      </trkpt>
      <trkpt lat="37.25306167" lon="-7.08333">
        <ele>61.0</ele>
        <time>2020-01-18T09:52:05.130Z</time>
      </trkpt>
      <trkpt lat="37.25309833" lon="-7.08342">
        <ele>60.0</ele>
        <time>2020-01-18T09:52:06.164Z</time>
      </trkpt>
      <trkpt lat="37.25309833" lon="-7.08342">
        <ele>60.0</ele>
        <time>2020-01-18T09:52:07.131Z</time>
      </trkpt>
      <trkpt lat="37.25313" lon="-7.08352333">
        <ele>59.0</ele>
        <time>2020-01-18T09:52:08.154Z</time>
      </trkpt>
      <trkpt lat="37.25313" lon="-7.08352333">
        <ele>59.0</ele>
        <time>2020-01-18T09:52:09.162Z</time>
      </trkpt>
      <trkpt lat="37.25315833" lon="-7.08363167">
        <ele>58.0</ele>
        <time>2020-01-18T09:52:10.147Z</time>
      </trkpt>
      <trkpt lat="37.25315833" lon="-7.08363167">
        <ele>58.0</ele>
        <time>2020-01-18T09:52:11.154Z</time>
      </trkpt>
      <trkpt lat="37.25319" lon="-7.08373833">
        <ele>57.0</ele>
        <time>2020-01-18T09:52:12.143Z</time>
      </trkpt>
      <trkpt lat="37.25319" lon="-7.08373833">
        <ele>57.0</ele>
        <time>2020-01-18T09:52:13.149Z</time>
      </trkpt>
      <trkpt lat="37.25322167" lon="-7.08381167">
        <ele>57.0</ele>
        <time>2020-01-18T09:52:14.138Z</time>
      </trkpt>
      <trkpt lat="37.25322167" lon="-7.08381167">
        <ele>57.0</ele>
        <time>2020-01-18T09:52:15.144Z</time>
      </trkpt>
      <trkpt lat="37.25322833" lon="-7.083845">
        <ele>57.0</ele>
        <time>2020-01-18T09:52:16.143Z</time>
      </trkpt>
      <trkpt lat="37.25322333" lon="-7.083855">
        <ele>57.0</ele>
        <time>2020-01-18T09:52:17.143Z</time>
      </trkpt>
      <trkpt lat="37.25321667" lon="-7.08385667">
        <ele>57.0</ele>
        <time>2020-01-18T09:52:18.145Z</time>
      </trkpt>
      <trkpt lat="37.25320833" lon="-7.08383833">
        <ele>57.0</ele>
        <time>2020-01-18T09:52:19.132Z</time>
      </trkpt>
      <trkpt lat="37.25320833" lon="-7.08383833">
        <ele>57.0</ele>
        <time>2020-01-18T09:52:20.138Z</time>
      </trkpt>
      <trkpt lat="37.25321667" lon="-7.08381333">
        <ele>57.0</ele>
        <time>2020-01-18T09:52:21.144Z</time>
      </trkpt>
      <trkpt lat="37.253245" lon="-7.08380833">
        <ele>57.0</ele>
        <time>2020-01-18T09:52:22.150Z</time>
      </trkpt>
      <trkpt lat="37.253245" lon="-7.08380833">
        <ele>57.0</ele>
        <time>2020-01-18T09:52:23.157Z</time>
      </trkpt>
      <trkpt lat="37.25327667" lon="-7.0838">
        <ele>57.0</ele>
        <time>2020-01-18T09:52:24.164Z</time>
      </trkpt>
      <trkpt lat="37.25329333" lon="-7.08379667">
        <ele>57.0</ele>
        <time>2020-01-18T09:52:25.144Z</time>
      </trkpt>
      <trkpt lat="37.25329333" lon="-7.08379667">
        <ele>57.0</ele>
        <time>2020-01-18T09:52:26.134Z</time>
      </trkpt>
      <trkpt lat="37.25333" lon="-7.08378167">
        <ele>56.0</ele>
        <time>2020-01-18T09:52:27.145Z</time>
      </trkpt>
      <trkpt lat="37.25333" lon="-7.08378167">
        <ele>56.0</ele>
        <time>2020-01-18T09:52:28.132Z</time>
      </trkpt>
      <trkpt lat="37.253365" lon="-7.08372167">
        <ele>56.0</ele>
        <time>2020-01-18T09:52:29.132Z</time>
      </trkpt>
      <trkpt lat="37.253365" lon="-7.08372167">
        <ele>56.0</ele>
        <time>2020-01-18T09:52:30.139Z</time>
      </trkpt>
      <trkpt lat="37.253385" lon="-7.083635">
        <ele>56.0</ele>
        <time>2020-01-18T09:52:31.156Z</time>
      </trkpt>
      <trkpt lat="37.25338333" lon="-7.08357833">
        <ele>56.0</ele>
        <time>2020-01-18T09:52:32.152Z</time>
      </trkpt>
      <trkpt lat="37.25338333" lon="-7.08357833">
        <ele>56.0</ele>
        <time>2020-01-18T09:52:33.159Z</time>
      </trkpt>
      <trkpt lat="37.253405" lon="-7.08347667">
        <ele>57.0</ele>
        <time>2020-01-18T09:52:34.161Z</time>
      </trkpt>
      <trkpt lat="37.25343333" lon="-7.083435">
        <ele>57.0</ele>
        <time>2020-01-18T09:52:35.160Z</time>
      </trkpt>
      <trkpt lat="37.25347" lon="-7.0834">
        <ele>57.0</ele>
        <time>2020-01-18T09:52:36.146Z</time>
      </trkpt>
      <trkpt lat="37.25347" lon="-7.0834">
        <ele>57.0</ele>
        <time>2020-01-18T09:52:37.153Z</time>
      </trkpt>
      <trkpt lat="37.25353833" lon="-7.083335">
        <ele>58.0</ele>
        <time>2020-01-18T09:52:38.143Z</time>
      </trkpt>
      <trkpt lat="37.25353833" lon="-7.083335">
        <ele>58.0</ele>
        <time>2020-01-18T09:52:39.150Z</time>
      </trkpt>
      <trkpt lat="37.25358" lon="-7.08324167">
        <ele>58.0</ele>
        <time>2020-01-18T09:52:40.163Z</time>
      </trkpt>
      <trkpt lat="37.25358833" lon="-7.08319333">
        <ele>58.0</ele>
        <time>2020-01-18T09:52:41.151Z</time>
      </trkpt>
      <trkpt lat="37.25358833" lon="-7.08319333">
        <ele>58.0</ele>
        <time>2020-01-18T09:52:42.157Z</time>
      </trkpt>
      <trkpt lat="37.25358333" lon="-7.08311">
        <ele>59.0</ele>
        <time>2020-01-18T09:52:43.138Z</time>
      </trkpt>
      <trkpt lat="37.25358333" lon="-7.08311">
        <ele>59.0</ele>
        <time>2020-01-18T09:52:44.144Z</time>
      </trkpt>
      <trkpt lat="37.25356" lon="-7.08303667">
        <ele>59.0</ele>
        <time>2020-01-18T09:52:45.138Z</time>
      </trkpt>
      <trkpt lat="37.25356" lon="-7.08303667">
        <ele>59.0</ele>
        <time>2020-01-18T09:52:46.143Z</time>
      </trkpt>
      <trkpt lat="37.25353667" lon="-7.08297667">
        <ele>60.0</ele>
        <time>2020-01-18T09:52:47.141Z</time>
      </trkpt>
      <trkpt lat="37.253525" lon="-7.08293833">
        <ele>60.0</ele>
        <time>2020-01-18T09:52:48.145Z</time>
      </trkpt>
      <trkpt lat="37.253525" lon="-7.08293833">
        <ele>60.0</ele>
        <time>2020-01-18T09:52:49.151Z</time>
      </trkpt>
      <trkpt lat="37.25349" lon="-7.08287833">
        <ele>60.0</ele>
        <time>2020-01-18T09:52:50.154Z</time>
      </trkpt>
      <trkpt lat="37.25349" lon="-7.08287833">
        <ele>60.0</ele>
        <time>2020-01-18T09:52:51.160Z</time>
      </trkpt>
      <trkpt lat="37.25345667" lon="-7.082815">
        <ele>61.0</ele>
        <time>2020-01-18T09:52:52.150Z</time>
      </trkpt>
      <trkpt lat="37.25344" lon="-7.08277167">
        <ele>61.0</ele>
        <time>2020-01-18T09:52:53.146Z</time>
      </trkpt>
      <trkpt lat="37.25344" lon="-7.08277167">
        <ele>61.0</ele>
        <time>2020-01-18T09:52:54.151Z</time>
      </trkpt>
      <trkpt lat="37.25343167" lon="-7.08268333">
        <ele>61.0</ele>
        <time>2020-01-18T09:52:55.144Z</time>
      </trkpt>
      <trkpt lat="37.25343167" lon="-7.08268333">
        <ele>61.0</ele>
        <time>2020-01-18T09:52:56.151Z</time>
      </trkpt>
      <trkpt lat="37.25340833" lon="-7.08261167">
        <ele>62.0</ele>
        <time>2020-01-18T09:52:57.153Z</time>
      </trkpt>
      <trkpt lat="37.25340833" lon="-7.08261167">
        <ele>62.0</ele>
        <time>2020-01-18T09:52:58.163Z</time>
      </trkpt>
      <trkpt lat="37.25339333" lon="-7.08254">
        <ele>63.0</ele>
        <time>2020-01-18T09:52:59.150Z</time>
      </trkpt>
      <trkpt lat="37.25339333" lon="-7.08254">
        <ele>63.0</ele>
        <time>2020-01-18T09:53:00.158Z</time>
      </trkpt>
      <trkpt lat="37.25338667" lon="-7.082465">
        <ele>63.0</ele>
        <time>2020-01-18T09:53:01.146Z</time>
      </trkpt>
      <trkpt lat="37.25338667" lon="-7.082465">
        <ele>63.0</ele>
        <time>2020-01-18T09:53:02.153Z</time>
      </trkpt>
      <trkpt lat="37.2534" lon="-7.08239667">
        <ele>63.0</ele>
        <time>2020-01-18T09:53:03.129Z</time>
      </trkpt>
      <trkpt lat="37.2534" lon="-7.08239667">
        <ele>63.0</ele>
        <time>2020-01-18T09:53:04.135Z</time>
      </trkpt>
      <trkpt lat="37.253415" lon="-7.08231667">
        <ele>63.0</ele>
        <time>2020-01-18T09:53:05.144Z</time>
      </trkpt>
      <trkpt lat="37.253425" lon="-7.08226833">
        <ele>63.0</ele>
        <time>2020-01-18T09:53:06.143Z</time>
      </trkpt>
      <trkpt lat="37.253425" lon="-7.08226833">
        <ele>63.0</ele>
        <time>2020-01-18T09:53:07.149Z</time>
      </trkpt>
      <trkpt lat="37.25342833" lon="-7.08218333">
        <ele>63.0</ele>
        <time>2020-01-18T09:53:08.136Z</time>
      </trkpt>
      <trkpt lat="37.25341667" lon="-7.08214167">
        <ele>63.0</ele>
        <time>2020-01-18T09:53:09.166Z</time>
      </trkpt>
      <trkpt lat="37.25341667" lon="-7.08214167">
        <ele>63.0</ele>
        <time>2020-01-18T09:53:10.133Z</time>
      </trkpt>
      <trkpt lat="37.25339" lon="-7.08205667">
        <ele>64.0</ele>
        <time>2020-01-18T09:53:11.164Z</time>
      </trkpt>
      <trkpt lat="37.25337833" lon="-7.082015">
        <ele>64.0</ele>
        <time>2020-01-18T09:53:12.146Z</time>
      </trkpt>
      <trkpt lat="37.25337833" lon="-7.082015">
        <ele>64.0</ele>
        <time>2020-01-18T09:53:13.152Z</time>
      </trkpt>
      <trkpt lat="37.25338" lon="-7.08192333">
        <ele>64.0</ele>
        <time>2020-01-18T09:53:14.138Z</time>
      </trkpt>
      <trkpt lat="37.25338" lon="-7.08192333">
        <ele>64.0</ele>
        <time>2020-01-18T09:53:15.144Z</time>
      </trkpt>
      <trkpt lat="37.25340667" lon="-7.08187">
        <ele>64.0</ele>
        <time>2020-01-18T09:53:16.132Z</time>
      </trkpt>
      <trkpt lat="37.25342333" lon="-7.08185333">
        <ele>64.0</ele>
        <time>2020-01-18T09:53:17.166Z</time>
      </trkpt>
      <trkpt lat="37.25343333" lon="-7.08182167">
        <ele>64.0</ele>
        <time>2020-01-18T09:53:18.165Z</time>
      </trkpt>
      <trkpt lat="37.25343333" lon="-7.08182167">
        <ele>64.0</ele>
        <time>2020-01-18T09:53:19.131Z</time>
      </trkpt>
      <trkpt lat="37.25346333" lon="-7.08174167">
        <ele>64.0</ele>
        <time>2020-01-18T09:53:20.131Z</time>
      </trkpt>
      <trkpt lat="37.25346333" lon="-7.08174167">
        <ele>64.0</ele>
        <time>2020-01-18T09:53:21.138Z</time>
      </trkpt>
      <trkpt lat="37.25351333" lon="-7.08168333">
        <ele>65.0</ele>
        <time>2020-01-18T09:53:22.164Z</time>
      </trkpt>
      <trkpt lat="37.25351333" lon="-7.08168333">
        <ele>65.0</ele>
        <time>2020-01-18T09:53:23.130Z</time>
      </trkpt>
      <trkpt lat="37.25356333" lon="-7.08162333">
        <ele>65.0</ele>
        <time>2020-01-18T09:53:24.148Z</time>
      </trkpt>
      <trkpt lat="37.25356333" lon="-7.08162333">
        <ele>65.0</ele>
        <time>2020-01-18T09:53:25.154Z</time>
      </trkpt>
      <trkpt lat="37.25357833" lon="-7.08156333">
        <ele>65.0</ele>
        <time>2020-01-18T09:53:26.138Z</time>
      </trkpt>
      <trkpt lat="37.25357333" lon="-7.08152667">
        <ele>65.0</ele>
        <time>2020-01-18T09:53:27.166Z</time>
      </trkpt>
      <trkpt lat="37.25357333" lon="-7.08152667">
        <ele>65.0</ele>
        <time>2020-01-18T09:53:28.132Z</time>
      </trkpt>
      <trkpt lat="37.25355833" lon="-7.081465">
        <ele>65.0</ele>
        <time>2020-01-18T09:53:29.165Z</time>
      </trkpt>
      <trkpt lat="37.25355167" lon="-7.08144">
        <ele>65.0</ele>
        <time>2020-01-18T09:53:30.165Z</time>
      </trkpt>
      <trkpt lat="37.25355167" lon="-7.08144">
        <ele>65.0</ele>
        <time>2020-01-18T09:53:31.143Z</time>
      </trkpt>
      <trkpt lat="37.25353667" lon="-7.08138833">
        <ele>66.0</ele>
        <time>2020-01-18T09:53:32.135Z</time>
      </trkpt>
      <trkpt lat="37.25353667" lon="-7.08138833">
        <ele>66.0</ele>
        <time>2020-01-18T09:53:33.141Z</time>
      </trkpt>
      <trkpt lat="37.25351833" lon="-7.08134667">
        <ele>66.0</ele>
        <time>2020-01-18T09:53:34.139Z</time>
      </trkpt>
      <trkpt lat="37.25351333" lon="-7.08131833">
        <ele>66.0</ele>
        <time>2020-01-18T09:53:35.144Z</time>
      </trkpt>
      <trkpt lat="37.25351" lon="-7.08129">
        <ele>66.0</ele>
        <time>2020-01-18T09:53:36.134Z</time>
      </trkpt>
      <trkpt lat="37.25351" lon="-7.08129">
        <ele>66.0</ele>
        <time>2020-01-18T09:53:37.141Z</time>
      </trkpt>
      <trkpt lat="37.25350167" lon="-7.08123833">
        <ele>66.0</ele>
        <time>2020-01-18T09:53:38.144Z</time>
      </trkpt>
      <trkpt lat="37.25350167" lon="-7.08123833">
        <ele>66.0</ele>
        <time>2020-01-18T09:53:39.150Z</time>
      </trkpt>
      <trkpt lat="37.25348167" lon="-7.081185">
        <ele>66.0</ele>
        <time>2020-01-18T09:53:40.146Z</time>
      </trkpt>
      <trkpt lat="37.25348167" lon="-7.081185">
        <ele>66.0</ele>
        <time>2020-01-18T09:53:41.152Z</time>
      </trkpt>
      <trkpt lat="37.25345333" lon="-7.08112333">
        <ele>67.0</ele>
        <time>2020-01-18T09:53:42.136Z</time>
      </trkpt>
      <trkpt lat="37.25345333" lon="-7.08112333">
        <ele>67.0</ele>
        <time>2020-01-18T09:53:43.142Z</time>
      </trkpt>
      <trkpt lat="37.25342" lon="-7.08106667">
        <ele>67.0</ele>
        <time>2020-01-18T09:53:44.147Z</time>
      </trkpt>
      <trkpt lat="37.25342" lon="-7.08106667">
        <ele>67.0</ele>
        <time>2020-01-18T09:53:45.152Z</time>
      </trkpt>
      <trkpt lat="37.25340333" lon="-7.08102333">
        <ele>67.0</ele>
        <time>2020-01-18T09:53:46.164Z</time>
      </trkpt>
      <trkpt lat="37.25340333" lon="-7.08102333">
        <ele>67.0</ele>
        <time>2020-01-18T09:53:47.130Z</time>
      </trkpt>
      <trkpt lat="37.25339" lon="-7.08098">
        <ele>67.0</ele>
        <time>2020-01-18T09:53:48.154Z</time>
      </trkpt>
      <trkpt lat="37.25339" lon="-7.08098">
        <ele>67.0</ele>
        <time>2020-01-18T09:53:49.160Z</time>
      </trkpt>
      <trkpt lat="37.25338833" lon="-7.08094833">
        <ele>68.0</ele>
        <time>2020-01-18T09:53:50.146Z</time>
      </trkpt>
      <trkpt lat="37.25338833" lon="-7.08094833">
        <ele>68.0</ele>
        <time>2020-01-18T09:53:51.152Z</time>
      </trkpt>
      <trkpt lat="37.25337167" lon="-7.08091333">
        <ele>68.0</ele>
        <time>2020-01-18T09:53:52.148Z</time>
      </trkpt>
      <trkpt lat="37.25337167" lon="-7.08091333">
        <ele>68.0</ele>
        <time>2020-01-18T09:53:53.154Z</time>
      </trkpt>
      <trkpt lat="37.253355" lon="-7.08086167">
        <ele>69.0</ele>
        <time>2020-01-18T09:53:54.141Z</time>
      </trkpt>
      <trkpt lat="37.253355" lon="-7.08086167">
        <ele>69.0</ele>
        <time>2020-01-18T09:53:55.148Z</time>
      </trkpt>
      <trkpt lat="37.25335833" lon="-7.080785">
        <ele>69.0</ele>
        <time>2020-01-18T09:53:56.142Z</time>
      </trkpt>
      <trkpt lat="37.25335833" lon="-7.080785">
        <ele>69.0</ele>
        <time>2020-01-18T09:53:57.148Z</time>
      </trkpt>
      <trkpt lat="37.25334833" lon="-7.08072333">
        <ele>69.0</ele>
        <time>2020-01-18T09:53:58.144Z</time>
      </trkpt>
      <trkpt lat="37.25334" lon="-7.080695">
        <ele>69.0</ele>
        <time>2020-01-18T09:53:59.148Z</time>
      </trkpt>
      <trkpt lat="37.25334" lon="-7.080695">
        <ele>69.0</ele>
        <time>2020-01-18T09:54:00.155Z</time>
      </trkpt>
      <trkpt lat="37.25332667" lon="-7.08064333">
        <ele>69.0</ele>
        <time>2020-01-18T09:54:01.141Z</time>
      </trkpt>
      <trkpt lat="37.25331833" lon="-7.08062">
        <ele>70.0</ele>
        <time>2020-01-18T09:54:02.141Z</time>
      </trkpt>
      <trkpt lat="37.253315" lon="-7.08059667">
        <ele>70.0</ele>
        <time>2020-01-18T09:54:03.140Z</time>
      </trkpt>
      <trkpt lat="37.253315" lon="-7.08059667">
        <ele>70.0</ele>
        <time>2020-01-18T09:54:04.146Z</time>
      </trkpt>
      <trkpt lat="37.25331333" lon="-7.08054833">
        <ele>70.0</ele>
        <time>2020-01-18T09:54:05.135Z</time>
      </trkpt>
      <trkpt lat="37.253315" lon="-7.08052667">
        <ele>70.0</ele>
        <time>2020-01-18T09:54:06.154Z</time>
      </trkpt>
      <trkpt lat="37.253315" lon="-7.08052667">
        <ele>70.0</ele>
        <time>2020-01-18T09:54:07.160Z</time>
      </trkpt>
      <trkpt lat="37.25331" lon="-7.08048167">
        <ele>71.0</ele>
        <time>2020-01-18T09:54:08.150Z</time>
      </trkpt>
      <trkpt lat="37.25331" lon="-7.08048167">
        <ele>71.0</ele>
        <time>2020-01-18T09:54:09.156Z</time>
      </trkpt>
      <trkpt lat="37.25331333" lon="-7.08043">
        <ele>71.0</ele>
        <time>2020-01-18T09:54:10.156Z</time>
      </trkpt>
      <trkpt lat="37.25331333" lon="-7.08043">
        <ele>71.0</ele>
        <time>2020-01-18T09:54:11.164Z</time>
      </trkpt>
      <trkpt lat="37.25332" lon="-7.08038167">
        <ele>71.0</ele>
        <time>2020-01-18T09:54:12.133Z</time>
      </trkpt>
      <trkpt lat="37.25332" lon="-7.08038167">
        <ele>71.0</ele>
        <time>2020-01-18T09:54:13.139Z</time>
      </trkpt>
      <trkpt lat="37.25334333" lon="-7.08033333">
        <ele>72.0</ele>
        <time>2020-01-18T09:54:14.143Z</time>
      </trkpt>
      <trkpt lat="37.25334333" lon="-7.08033333">
        <ele>72.0</ele>
        <time>2020-01-18T09:54:15.155Z</time>
      </trkpt>
      <trkpt lat="37.25336167" lon="-7.08028167">
        <ele>72.0</ele>
        <time>2020-01-18T09:54:16.142Z</time>
      </trkpt>
      <trkpt lat="37.25336167" lon="-7.08028167">
        <ele>72.0</ele>
        <time>2020-01-18T09:54:17.149Z</time>
      </trkpt>
      <trkpt lat="37.25338667" lon="-7.08021833">
        <ele>72.0</ele>
        <time>2020-01-18T09:54:18.133Z</time>
      </trkpt>
      <trkpt lat="37.25338667" lon="-7.08021833">
        <ele>72.0</ele>
        <time>2020-01-18T09:54:19.139Z</time>
      </trkpt>
      <trkpt lat="37.25340333" lon="-7.080155">
        <ele>73.0</ele>
        <time>2020-01-18T09:54:20.140Z</time>
      </trkpt>
      <trkpt lat="37.25340333" lon="-7.080155">
        <ele>73.0</ele>
        <time>2020-01-18T09:54:21.145Z</time>
      </trkpt>
      <trkpt lat="37.25342667" lon="-7.080085">
        <ele>72.0</ele>
        <time>2020-01-18T09:54:22.154Z</time>
      </trkpt>
      <trkpt lat="37.25344" lon="-7.08005">
        <ele>72.0</ele>
        <time>2020-01-18T09:54:23.148Z</time>
      </trkpt>
      <trkpt lat="37.25344" lon="-7.08005">
        <ele>72.0</ele>
        <time>2020-01-18T09:54:24.155Z</time>
      </trkpt>
      <trkpt lat="37.25347167" lon="-7.07998333">
        <ele>72.0</ele>
        <time>2020-01-18T09:54:25.146Z</time>
      </trkpt>
      <trkpt lat="37.25347167" lon="-7.07998333">
        <ele>72.0</ele>
        <time>2020-01-18T09:54:26.152Z</time>
      </trkpt>
      <trkpt lat="37.253485" lon="-7.07990333">
        <ele>73.0</ele>
        <time>2020-01-18T09:54:27.152Z</time>
      </trkpt>
      <trkpt lat="37.253485" lon="-7.07990333">
        <ele>73.0</ele>
        <time>2020-01-18T09:54:28.159Z</time>
      </trkpt>
      <trkpt lat="37.25351333" lon="-7.07981667">
        <ele>73.0</ele>
        <time>2020-01-18T09:54:29.161Z</time>
      </trkpt>
      <trkpt lat="37.253525" lon="-7.079775">
        <ele>73.0</ele>
        <time>2020-01-18T09:54:30.161Z</time>
      </trkpt>
      <trkpt lat="37.253525" lon="-7.079775">
        <ele>73.0</ele>
        <time>2020-01-18T09:54:31.139Z</time>
      </trkpt>
      <trkpt lat="37.25356167" lon="-7.07968667">
        <ele>73.0</ele>
        <time>2020-01-18T09:54:32.164Z</time>
      </trkpt>
      <trkpt lat="37.25358333" lon="-7.079635">
        <ele>73.0</ele>
        <time>2020-01-18T09:54:33.166Z</time>
      </trkpt>
      <trkpt lat="37.25358333" lon="-7.079635">
        <ele>73.0</ele>
        <time>2020-01-18T09:54:34.132Z</time>
      </trkpt>
      <trkpt lat="37.25362667" lon="-7.07954833">
        <ele>73.0</ele>
        <time>2020-01-18T09:54:35.133Z</time>
      </trkpt>
      <trkpt lat="37.25365333" lon="-7.0795">
        <ele>74.0</ele>
        <time>2020-01-18T09:54:36.166Z</time>
      </trkpt>
      <trkpt lat="37.25365333" lon="-7.0795">
        <ele>74.0</ele>
        <time>2020-01-18T09:54:37.132Z</time>
      </trkpt>
      <trkpt lat="37.253705" lon="-7.07940333">
        <ele>74.0</ele>
        <time>2020-01-18T09:54:38.165Z</time>
      </trkpt>
      <trkpt lat="37.25373333" lon="-7.07936167">
        <ele>74.0</ele>
        <time>2020-01-18T09:54:39.154Z</time>
      </trkpt>
      <trkpt lat="37.25373333" lon="-7.07936167">
        <ele>74.0</ele>
        <time>2020-01-18T09:54:40.164Z</time>
      </trkpt>
      <trkpt lat="37.2538" lon="-7.079285">
        <ele>74.0</ele>
        <time>2020-01-18T09:54:41.148Z</time>
      </trkpt>
      <trkpt lat="37.25383333" lon="-7.07924333">
        <ele>75.0</ele>
        <time>2020-01-18T09:54:42.134Z</time>
      </trkpt>
      <trkpt lat="37.25383333" lon="-7.07924333">
        <ele>75.0</ele>
        <time>2020-01-18T09:54:43.140Z</time>
      </trkpt>
      <trkpt lat="37.25390167" lon="-7.07914167">
        <ele>75.0</ele>
        <time>2020-01-18T09:54:44.165Z</time>
      </trkpt>
      <trkpt lat="37.25390167" lon="-7.07914167">
        <ele>75.0</ele>
        <time>2020-01-18T09:54:45.131Z</time>
      </trkpt>
      <trkpt lat="37.25396833" lon="-7.07906167">
        <ele>75.0</ele>
        <time>2020-01-18T09:54:46.130Z</time>
      </trkpt>
      <trkpt lat="37.25396833" lon="-7.07906167">
        <ele>75.0</ele>
        <time>2020-01-18T09:54:47.136Z</time>
      </trkpt>
      <trkpt lat="37.25402" lon="-7.07898167">
        <ele>76.0</ele>
        <time>2020-01-18T09:54:48.135Z</time>
      </trkpt>
      <trkpt lat="37.25402" lon="-7.07898167">
        <ele>76.0</ele>
        <time>2020-01-18T09:54:49.141Z</time>
      </trkpt>
      <trkpt lat="37.254065" lon="-7.07889167">
        <ele>76.0</ele>
        <time>2020-01-18T09:54:50.135Z</time>
      </trkpt>
      <trkpt lat="37.254065" lon="-7.07889167">
        <ele>76.0</ele>
        <time>2020-01-18T09:54:51.142Z</time>
      </trkpt>
      <trkpt lat="37.25409667" lon="-7.078795">
        <ele>77.0</ele>
        <time>2020-01-18T09:54:52.144Z</time>
      </trkpt>
      <trkpt lat="37.25411" lon="-7.07875167">
        <ele>77.0</ele>
        <time>2020-01-18T09:54:53.133Z</time>
      </trkpt>
      <trkpt lat="37.25411" lon="-7.07875167">
        <ele>77.0</ele>
        <time>2020-01-18T09:54:54.140Z</time>
      </trkpt>
      <trkpt lat="37.25413333" lon="-7.078655">
        <ele>78.0</ele>
        <time>2020-01-18T09:54:55.138Z</time>
      </trkpt>
      <trkpt lat="37.25413333" lon="-7.078655">
        <ele>78.0</ele>
        <time>2020-01-18T09:54:56.145Z</time>
      </trkpt>
      <trkpt lat="37.25418167" lon="-7.07853">
        <ele>78.0</ele>
        <time>2020-01-18T09:54:57.167Z</time>
      </trkpt>
      <trkpt lat="37.25418167" lon="-7.07853">
        <ele>78.0</ele>
        <time>2020-01-18T09:54:58.136Z</time>
      </trkpt>
      <trkpt lat="37.25419333" lon="-7.07841167">
        <ele>79.0</ele>
        <time>2020-01-18T09:54:59.165Z</time>
      </trkpt>
      <trkpt lat="37.25419333" lon="-7.07841167">
        <ele>79.0</ele>
        <time>2020-01-18T09:55:00.132Z</time>
      </trkpt>
      <trkpt lat="37.254205" lon="-7.07830833">
        <ele>79.0</ele>
        <time>2020-01-18T09:55:01.165Z</time>
      </trkpt>
      <trkpt lat="37.254205" lon="-7.07830833">
        <ele>79.0</ele>
        <time>2020-01-18T09:55:02.131Z</time>
      </trkpt>
      <trkpt lat="37.25422667" lon="-7.07821">
        <ele>80.0</ele>
        <time>2020-01-18T09:55:03.166Z</time>
      </trkpt>
      <trkpt lat="37.25422667" lon="-7.07821">
        <ele>80.0</ele>
        <time>2020-01-18T09:55:04.133Z</time>
      </trkpt>
      <trkpt lat="37.25423833" lon="-7.07810667">
        <ele>81.0</ele>
        <time>2020-01-18T09:55:05.161Z</time>
      </trkpt>
      <trkpt lat="37.25424" lon="-7.078065">
        <ele>81.0</ele>
        <time>2020-01-18T09:55:06.148Z</time>
      </trkpt>
      <trkpt lat="37.25424" lon="-7.078065">
        <ele>81.0</ele>
        <time>2020-01-18T09:55:07.155Z</time>
      </trkpt>
      <trkpt lat="37.254265" lon="-7.07796167">
        <ele>82.0</ele>
        <time>2020-01-18T09:55:08.144Z</time>
      </trkpt>
      <trkpt lat="37.254265" lon="-7.07796167">
        <ele>82.0</ele>
        <time>2020-01-18T09:55:09.150Z</time>
      </trkpt>
      <trkpt lat="37.25429333" lon="-7.07786">
        <ele>83.0</ele>
        <time>2020-01-18T09:55:10.129Z</time>
      </trkpt>
      <trkpt lat="37.25429333" lon="-7.07786">
        <ele>83.0</ele>
        <time>2020-01-18T09:55:11.135Z</time>
      </trkpt>
      <trkpt lat="37.25432667" lon="-7.07776833">
        <ele>84.0</ele>
        <time>2020-01-18T09:55:12.153Z</time>
      </trkpt>
      <trkpt lat="37.25432667" lon="-7.07776833">
        <ele>84.0</ele>
        <time>2020-01-18T09:55:13.164Z</time>
      </trkpt>
      <trkpt lat="37.254365" lon="-7.07770333">
        <ele>84.0</ele>
        <time>2020-01-18T09:55:14.167Z</time>
      </trkpt>
      <trkpt lat="37.25438333" lon="-7.07767833">
        <ele>85.0</ele>
        <time>2020-01-18T09:55:15.156Z</time>
      </trkpt>
      <trkpt lat="37.25438333" lon="-7.07767833">
        <ele>85.0</ele>
        <time>2020-01-18T09:55:16.164Z</time>
      </trkpt>
      <trkpt lat="37.25442333" lon="-7.07763167">
        <ele>85.0</ele>
        <time>2020-01-18T09:55:17.157Z</time>
      </trkpt>
      <trkpt lat="37.254445" lon="-7.0776">
        <ele>86.0</ele>
        <time>2020-01-18T09:55:18.145Z</time>
      </trkpt>
      <trkpt lat="37.254445" lon="-7.0776">
        <ele>86.0</ele>
        <time>2020-01-18T09:55:19.151Z</time>
      </trkpt>
      <trkpt lat="37.25449333" lon="-7.077515">
        <ele>85.0</ele>
        <time>2020-01-18T09:55:20.154Z</time>
      </trkpt>
      <trkpt lat="37.25449333" lon="-7.077515">
        <ele>85.0</ele>
        <time>2020-01-18T09:55:21.165Z</time>
      </trkpt>
      <trkpt lat="37.25453" lon="-7.07740167">
        <ele>83.0</ele>
        <time>2020-01-18T09:55:22.159Z</time>
      </trkpt>
      <trkpt lat="37.25454667" lon="-7.07735">
        <ele>82.0</ele>
        <time>2020-01-18T09:55:23.163Z</time>
      </trkpt>
      <trkpt lat="37.254565" lon="-7.07730167">
        <ele>81.0</ele>
        <time>2020-01-18T09:55:24.151Z</time>
      </trkpt>
      <trkpt lat="37.254565" lon="-7.07730167">
        <ele>81.0</ele>
        <time>2020-01-18T09:55:25.157Z</time>
      </trkpt>
      <trkpt lat="37.254605" lon="-7.07721">
        <ele>81.0</ele>
        <time>2020-01-18T09:55:26.160Z</time>
      </trkpt>
      <trkpt lat="37.25463" lon="-7.07717167">
        <ele>79.0</ele>
        <time>2020-01-18T09:55:27.148Z</time>
      </trkpt>
      <trkpt lat="37.25463" lon="-7.07717167">
        <ele>79.0</ele>
        <time>2020-01-18T09:55:28.158Z</time>
      </trkpt>
      <trkpt lat="37.25469833" lon="-7.07707167">
        <ele>79.0</ele>
        <time>2020-01-18T09:55:29.158Z</time>
      </trkpt>
      <trkpt lat="37.254715" lon="-7.07704">
        <ele>78.0</ele>
        <time>2020-01-18T09:55:30.134Z</time>
      </trkpt>
      <trkpt lat="37.254715" lon="-7.07704">
        <ele>78.0</ele>
        <time>2020-01-18T09:55:31.157Z</time>
      </trkpt>
      <trkpt lat="37.25475" lon="-7.07697">
        <ele>77.0</ele>
        <time>2020-01-18T09:55:32.143Z</time>
      </trkpt>
      <trkpt lat="37.25475" lon="-7.07697">
        <ele>77.0</ele>
        <time>2020-01-18T09:55:33.149Z</time>
      </trkpt>
      <trkpt lat="37.254785" lon="-7.07687667">
        <ele>76.0</ele>
        <time>2020-01-18T09:55:34.146Z</time>
      </trkpt>
      <trkpt lat="37.25479667" lon="-7.07683167">
        <ele>75.0</ele>
        <time>2020-01-18T09:55:35.144Z</time>
      </trkpt>
      <trkpt lat="37.25480167" lon="-7.07679167">
        <ele>75.0</ele>
        <time>2020-01-18T09:55:36.136Z</time>
      </trkpt>
      <trkpt lat="37.25480167" lon="-7.07679167">
        <ele>75.0</ele>
        <time>2020-01-18T09:55:37.142Z</time>
      </trkpt>
      <trkpt lat="37.25481167" lon="-7.07670667">
        <ele>75.0</ele>
        <time>2020-01-18T09:55:38.138Z</time>
      </trkpt>
      <trkpt lat="37.25481167" lon="-7.07670667">
        <ele>75.0</ele>
        <time>2020-01-18T09:55:39.145Z</time>
      </trkpt>
      <trkpt lat="37.25482667" lon="-7.07661333">
        <ele>75.0</ele>
        <time>2020-01-18T09:55:40.138Z</time>
      </trkpt>
      <trkpt lat="37.25482667" lon="-7.07661333">
        <ele>75.0</ele>
        <time>2020-01-18T09:55:41.144Z</time>
      </trkpt>
      <trkpt lat="37.25484333" lon="-7.07652">
        <ele>75.0</ele>
        <time>2020-01-18T09:55:42.150Z</time>
      </trkpt>
      <trkpt lat="37.25484333" lon="-7.07652">
        <ele>75.0</ele>
        <time>2020-01-18T09:55:43.157Z</time>
      </trkpt>
      <trkpt lat="37.25486167" lon="-7.07641667">
        <ele>75.0</ele>
        <time>2020-01-18T09:55:44.157Z</time>
      </trkpt>
      <trkpt lat="37.25486167" lon="-7.07641667">
        <ele>75.0</ele>
        <time>2020-01-18T09:55:45.164Z</time>
      </trkpt>
      <trkpt lat="37.254885" lon="-7.07631333">
        <ele>74.0</ele>
        <time>2020-01-18T09:55:46.156Z</time>
      </trkpt>
      <trkpt lat="37.25489333" lon="-7.07626833">
        <ele>74.0</ele>
        <time>2020-01-18T09:55:47.150Z</time>
      </trkpt>
      <trkpt lat="37.25489667" lon="-7.07622167">
        <ele>74.0</ele>
        <time>2020-01-18T09:55:48.154Z</time>
      </trkpt>
      <trkpt lat="37.25489667" lon="-7.07622167">
        <ele>74.0</ele>
        <time>2020-01-18T09:55:49.160Z</time>
      </trkpt>
      <trkpt lat="37.25491" lon="-7.07612167">
        <ele>74.0</ele>
        <time>2020-01-18T09:55:50.142Z</time>
      </trkpt>
      <trkpt lat="37.25492333" lon="-7.07606667">
        <ele>73.0</ele>
        <time>2020-01-18T09:55:51.142Z</time>
      </trkpt>
      <trkpt lat="37.25492333" lon="-7.07606667">
        <ele>73.0</ele>
        <time>2020-01-18T09:55:52.148Z</time>
      </trkpt>
      <trkpt lat="37.254945" lon="-7.07595167">
        <ele>72.0</ele>
        <time>2020-01-18T09:55:53.135Z</time>
      </trkpt>
      <trkpt lat="37.25495333" lon="-7.07590167">
        <ele>72.0</ele>
        <time>2020-01-18T09:55:54.142Z</time>
      </trkpt>
      <trkpt lat="37.25495333" lon="-7.07590167">
        <ele>72.0</ele>
        <time>2020-01-18T09:55:55.148Z</time>
      </trkpt>
      <trkpt lat="37.254955" lon="-7.0758">
        <ele>72.0</ele>
        <time>2020-01-18T09:55:56.135Z</time>
      </trkpt>
      <trkpt lat="37.254955" lon="-7.0758">
        <ele>72.0</ele>
        <time>2020-01-18T09:55:57.142Z</time>
      </trkpt>
      <trkpt lat="37.254965" lon="-7.0757">
        <ele>71.0</ele>
        <time>2020-01-18T09:55:58.168Z</time>
      </trkpt>
      <trkpt lat="37.25497167" lon="-7.07564333">
        <ele>71.0</ele>
        <time>2020-01-18T09:55:59.164Z</time>
      </trkpt>
      <trkpt lat="37.25497167" lon="-7.07564333">
        <ele>71.0</ele>
        <time>2020-01-18T09:56:00.130Z</time>
      </trkpt>
      <trkpt lat="37.25497" lon="-7.07553667">
        <ele>71.0</ele>
        <time>2020-01-18T09:56:01.167Z</time>
      </trkpt>
      <trkpt lat="37.25497" lon="-7.07553667">
        <ele>71.0</ele>
        <time>2020-01-18T09:56:02.133Z</time>
      </trkpt>
      <trkpt lat="37.25495167" lon="-7.07543667">
        <ele>70.0</ele>
        <time>2020-01-18T09:56:03.166Z</time>
      </trkpt>
      <trkpt lat="37.25495167" lon="-7.07543667">
        <ele>70.0</ele>
        <time>2020-01-18T09:56:04.132Z</time>
      </trkpt>
      <trkpt lat="37.25494" lon="-7.07533833">
        <ele>70.0</ele>
        <time>2020-01-18T09:56:05.131Z</time>
      </trkpt>
      <trkpt lat="37.25493167" lon="-7.07529333">
        <ele>70.0</ele>
        <time>2020-01-18T09:56:06.162Z</time>
      </trkpt>
      <trkpt lat="37.25493167" lon="-7.07529333">
        <ele>70.0</ele>
        <time>2020-01-18T09:56:07.129Z</time>
      </trkpt>
      <trkpt lat="37.25492333" lon="-7.0752">
        <ele>70.0</ele>
        <time>2020-01-18T09:56:08.163Z</time>
      </trkpt>
      <trkpt lat="37.25492333" lon="-7.0752">
        <ele>70.0</ele>
        <time>2020-01-18T09:56:09.168Z</time>
      </trkpt>
      <trkpt lat="37.254915" lon="-7.07510833">
        <ele>70.0</ele>
        <time>2020-01-18T09:56:10.156Z</time>
      </trkpt>
      <trkpt lat="37.254915" lon="-7.07510833">
        <ele>70.0</ele>
        <time>2020-01-18T09:56:11.164Z</time>
      </trkpt>
      <trkpt lat="37.254895" lon="-7.07501833">
        <ele>70.0</ele>
        <time>2020-01-18T09:56:12.143Z</time>
      </trkpt>
      <trkpt lat="37.254895" lon="-7.07501833">
        <ele>70.0</ele>
        <time>2020-01-18T09:56:13.151Z</time>
      </trkpt>
      <trkpt lat="37.25487833" lon="-7.07492333">
        <ele>69.0</ele>
        <time>2020-01-18T09:56:14.151Z</time>
      </trkpt>
      <trkpt lat="37.254875" lon="-7.074875">
        <ele>69.0</ele>
        <time>2020-01-18T09:56:15.135Z</time>
      </trkpt>
      <trkpt lat="37.25487333" lon="-7.07482333">
        <ele>69.0</ele>
        <time>2020-01-18T09:56:16.133Z</time>
      </trkpt>
      <trkpt lat="37.25487333" lon="-7.07482333">
        <ele>69.0</ele>
        <time>2020-01-18T09:56:17.138Z</time>
      </trkpt>
      <trkpt lat="37.25487667" lon="-7.07471833">
        <ele>68.0</ele>
        <time>2020-01-18T09:56:18.143Z</time>
      </trkpt>
      <trkpt lat="37.25487667" lon="-7.07471833">
        <ele>68.0</ele>
        <time>2020-01-18T09:56:19.160Z</time>
      </trkpt>
      <trkpt lat="37.25489833" lon="-7.07461833">
        <ele>68.0</ele>
        <time>2020-01-18T09:56:20.151Z</time>
      </trkpt>
      <trkpt lat="37.25489833" lon="-7.07461833">
        <ele>68.0</ele>
        <time>2020-01-18T09:56:21.157Z</time>
      </trkpt>
      <trkpt lat="37.25491167" lon="-7.07452167">
        <ele>68.0</ele>
        <time>2020-01-18T09:56:22.132Z</time>
      </trkpt>
      <trkpt lat="37.25491167" lon="-7.07452167">
        <ele>68.0</ele>
        <time>2020-01-18T09:56:23.138Z</time>
      </trkpt>
      <trkpt lat="37.25491333" lon="-7.07442167">
        <ele>68.0</ele>
        <time>2020-01-18T09:56:24.136Z</time>
      </trkpt>
      <trkpt lat="37.25491167" lon="-7.07436667">
        <ele>68.0</ele>
        <time>2020-01-18T09:56:25.165Z</time>
      </trkpt>
      <trkpt lat="37.25491167" lon="-7.07436667">
        <ele>68.0</ele>
        <time>2020-01-18T09:56:26.131Z</time>
      </trkpt>
      <trkpt lat="37.25491" lon="-7.07426">
        <ele>69.0</ele>
        <time>2020-01-18T09:56:27.164Z</time>
      </trkpt>
      <trkpt lat="37.25491" lon="-7.07426">
        <ele>69.0</ele>
        <time>2020-01-18T09:56:28.129Z</time>
      </trkpt>
      <trkpt lat="37.25491667" lon="-7.07415667">
        <ele>69.0</ele>
        <time>2020-01-18T09:56:29.168Z</time>
      </trkpt>
      <trkpt lat="37.25491667" lon="-7.07415667">
        <ele>69.0</ele>
        <time>2020-01-18T09:56:30.134Z</time>
      </trkpt>
      <trkpt lat="37.254925" lon="-7.074045">
        <ele>69.0</ele>
        <time>2020-01-18T09:56:31.137Z</time>
      </trkpt>
      <trkpt lat="37.25493333" lon="-7.07399">
        <ele>69.0</ele>
        <time>2020-01-18T09:56:32.144Z</time>
      </trkpt>
      <trkpt lat="37.25493333" lon="-7.07399">
        <ele>69.0</ele>
        <time>2020-01-18T09:56:33.150Z</time>
      </trkpt>
      <trkpt lat="37.25496" lon="-7.07389333">
        <ele>69.0</ele>
        <time>2020-01-18T09:56:34.139Z</time>
      </trkpt>
      <trkpt lat="37.25497167" lon="-7.07384667">
        <ele>69.0</ele>
        <time>2020-01-18T09:56:35.135Z</time>
      </trkpt>
      <trkpt lat="37.25498" lon="-7.07379833">
        <ele>69.0</ele>
        <time>2020-01-18T09:56:36.131Z</time>
      </trkpt>
      <trkpt lat="37.25498" lon="-7.07379833">
        <ele>69.0</ele>
        <time>2020-01-18T09:56:37.138Z</time>
      </trkpt>
      <trkpt lat="37.25499667" lon="-7.07371167">
        <ele>69.0</ele>
        <time>2020-01-18T09:56:38.135Z</time>
      </trkpt>
      <trkpt lat="37.25499667" lon="-7.07371167">
        <ele>69.0</ele>
        <time>2020-01-18T09:56:39.141Z</time>
      </trkpt>
      <trkpt lat="37.25503333" lon="-7.07365667">
        <ele>69.0</ele>
        <time>2020-01-18T09:56:40.136Z</time>
      </trkpt>
      <trkpt lat="37.25505333" lon="-7.07363">
        <ele>68.0</ele>
        <time>2020-01-18T09:56:41.137Z</time>
      </trkpt>
      <trkpt lat="37.25507167" lon="-7.07359833">
        <ele>68.0</ele>
        <time>2020-01-18T09:56:42.135Z</time>
      </trkpt>
      <trkpt lat="37.25507167" lon="-7.07359833">
        <ele>68.0</ele>
        <time>2020-01-18T09:56:43.141Z</time>
      </trkpt>
      <trkpt lat="37.25509667" lon="-7.07352167">
        <ele>68.0</ele>
        <time>2020-01-18T09:56:44.131Z</time>
      </trkpt>
      <trkpt lat="37.25509667" lon="-7.07352167">
        <ele>68.0</ele>
        <time>2020-01-18T09:56:45.137Z</time>
      </trkpt>
      <trkpt lat="37.25510333" lon="-7.07344667">
        <ele>67.0</ele>
        <time>2020-01-18T09:56:46.166Z</time>
      </trkpt>
      <trkpt lat="37.25510333" lon="-7.07339667">
        <ele>67.0</ele>
        <time>2020-01-18T09:56:47.135Z</time>
      </trkpt>
      <trkpt lat="37.2551" lon="-7.07334667">
        <ele>67.0</ele>
        <time>2020-01-18T09:56:48.150Z</time>
      </trkpt>
      <trkpt lat="37.2551" lon="-7.07334667">
        <ele>67.0</ele>
        <time>2020-01-18T09:56:49.156Z</time>
      </trkpt>
      <trkpt lat="37.25509833" lon="-7.07325333">
        <ele>67.0</ele>
        <time>2020-01-18T09:56:50.143Z</time>
      </trkpt>
      <trkpt lat="37.255105" lon="-7.07320667">
        <ele>67.0</ele>
        <time>2020-01-18T09:56:51.134Z</time>
      </trkpt>
      <trkpt lat="37.255105" lon="-7.07320667">
        <ele>67.0</ele>
        <time>2020-01-18T09:56:52.139Z</time>
      </trkpt>
      <trkpt lat="37.25511167" lon="-7.07310333">
        <ele>66.0</ele>
        <time>2020-01-18T09:56:53.140Z</time>
      </trkpt>
      <trkpt lat="37.255105" lon="-7.07304667">
        <ele>66.0</ele>
        <time>2020-01-18T09:56:54.139Z</time>
      </trkpt>
      <trkpt lat="37.255105" lon="-7.07304667">
        <ele>66.0</ele>
        <time>2020-01-18T09:56:55.144Z</time>
      </trkpt>
      <trkpt lat="37.25505333" lon="-7.07291667">
        <ele>66.0</ele>
        <time>2020-01-18T09:56:56.137Z</time>
      </trkpt>
      <trkpt lat="37.25505333" lon="-7.07291667">
        <ele>66.0</ele>
        <time>2020-01-18T09:56:57.143Z</time>
      </trkpt>
      <trkpt lat="37.25501667" lon="-7.07279167">
        <ele>65.0</ele>
        <time>2020-01-18T09:56:58.142Z</time>
      </trkpt>
      <trkpt lat="37.25501667" lon="-7.07279167">
        <ele>65.0</ele>
        <time>2020-01-18T09:56:59.164Z</time>
      </trkpt>
      <trkpt lat="37.25500333" lon="-7.07269833">
        <ele>65.0</ele>
        <time>2020-01-18T09:57:00.129Z</time>
      </trkpt>
      <trkpt lat="37.25500333" lon="-7.07269833">
        <ele>65.0</ele>
        <time>2020-01-18T09:57:01.135Z</time>
      </trkpt>
      <trkpt lat="37.25499833" lon="-7.07257167">
        <ele>64.0</ele>
        <time>2020-01-18T09:57:02.129Z</time>
      </trkpt>
      <trkpt lat="37.25499833" lon="-7.07257167">
        <ele>64.0</ele>
        <time>2020-01-18T09:57:03.135Z</time>
      </trkpt>
      <trkpt lat="37.255035" lon="-7.07251667">
        <ele>62.0</ele>
        <time>2020-01-18T09:57:04.134Z</time>
      </trkpt>
      <trkpt lat="37.25505667" lon="-7.07249333">
        <ele>62.0</ele>
        <time>2020-01-18T09:57:05.167Z</time>
      </trkpt>
      <trkpt lat="37.25505667" lon="-7.07249333">
        <ele>62.0</ele>
        <time>2020-01-18T09:57:06.133Z</time>
      </trkpt>
      <trkpt lat="37.25511167" lon="-7.07245667">
        <ele>60.0</ele>
        <time>2020-01-18T09:57:07.132Z</time>
      </trkpt>
      <trkpt lat="37.25511167" lon="-7.07245667">
        <ele>60.0</ele>
        <time>2020-01-18T09:57:08.138Z</time>
      </trkpt>
      <trkpt lat="37.25515833" lon="-7.07241667">
        <ele>60.0</ele>
        <time>2020-01-18T09:57:09.136Z</time>
      </trkpt>
      <trkpt lat="37.25515833" lon="-7.07241667">
        <ele>60.0</ele>
        <time>2020-01-18T09:57:10.141Z</time>
      </trkpt>
      <trkpt lat="37.25519333" lon="-7.072385">
        <ele>59.0</ele>
        <time>2020-01-18T09:57:11.142Z</time>
      </trkpt>
      <trkpt lat="37.25521167" lon="-7.07236833">
        <ele>59.0</ele>
        <time>2020-01-18T09:57:12.142Z</time>
      </trkpt>
      <trkpt lat="37.25521167" lon="-7.07236833">
        <ele>59.0</ele>
        <time>2020-01-18T09:57:13.149Z</time>
      </trkpt>
      <trkpt lat="37.25525167" lon="-7.07232333">
        <ele>59.0</ele>
        <time>2020-01-18T09:57:14.151Z</time>
      </trkpt>
      <trkpt lat="37.25526833" lon="-7.072295">
        <ele>59.0</ele>
        <time>2020-01-18T09:57:15.141Z</time>
      </trkpt>
      <trkpt lat="37.25526833" lon="-7.072295">
        <ele>59.0</ele>
        <time>2020-01-18T09:57:16.149Z</time>
      </trkpt>
      <trkpt lat="37.25529667" lon="-7.07222333">
        <ele>58.0</ele>
        <time>2020-01-18T09:57:17.154Z</time>
      </trkpt>
      <trkpt lat="37.25531167" lon="-7.07218667">
        <ele>58.0</ele>
        <time>2020-01-18T09:57:18.134Z</time>
      </trkpt>
      <trkpt lat="37.25532667" lon="-7.07215167">
        <ele>58.0</ele>
        <time>2020-01-18T09:57:19.132Z</time>
      </trkpt>
      <trkpt lat="37.25532667" lon="-7.07215167">
        <ele>58.0</ele>
        <time>2020-01-18T09:57:20.138Z</time>
      </trkpt>
      <trkpt lat="37.25535" lon="-7.07206667">
        <ele>58.0</ele>
        <time>2020-01-18T09:57:21.168Z</time>
      </trkpt>
      <trkpt lat="37.255355" lon="-7.07202667">
        <ele>58.0</ele>
        <time>2020-01-18T09:57:22.155Z</time>
      </trkpt>
      <trkpt lat="37.255355" lon="-7.07202667">
        <ele>58.0</ele>
        <time>2020-01-18T09:57:23.161Z</time>
      </trkpt>
      <trkpt lat="37.25533333" lon="-7.071935">
        <ele>58.0</ele>
        <time>2020-01-18T09:57:24.154Z</time>
      </trkpt>
      <trkpt lat="37.25533333" lon="-7.071935">
        <ele>58.0</ele>
        <time>2020-01-18T09:57:25.163Z</time>
      </trkpt>
      <trkpt lat="37.25533333" lon="-7.07185167">
        <ele>58.0</ele>
        <time>2020-01-18T09:57:26.153Z</time>
      </trkpt>
      <trkpt lat="37.25533333" lon="-7.07185167">
        <ele>58.0</ele>
        <time>2020-01-18T09:57:27.160Z</time>
      </trkpt>
      <trkpt lat="37.25534833" lon="-7.07176833">
        <ele>58.0</ele>
        <time>2020-01-18T09:57:28.145Z</time>
      </trkpt>
      <trkpt lat="37.25535333" lon="-7.07171667">
        <ele>58.0</ele>
        <time>2020-01-18T09:57:29.142Z</time>
      </trkpt>
      <trkpt lat="37.25535333" lon="-7.07171667">
        <ele>58.0</ele>
        <time>2020-01-18T09:57:30.148Z</time>
      </trkpt>
      <trkpt lat="37.25536333" lon="-7.07161333">
        <ele>58.0</ele>
        <time>2020-01-18T09:57:31.164Z</time>
      </trkpt>
      <trkpt lat="37.25536167" lon="-7.07155167">
        <ele>58.0</ele>
        <time>2020-01-18T09:57:32.158Z</time>
      </trkpt>
      <trkpt lat="37.25534" lon="-7.07149833">
        <ele>58.0</ele>
        <time>2020-01-18T09:57:33.149Z</time>
      </trkpt>
      <trkpt lat="37.25534" lon="-7.07149833">
        <ele>58.0</ele>
        <time>2020-01-18T09:57:34.155Z</time>
      </trkpt>
      <trkpt lat="37.25528167" lon="-7.07141833">
        <ele>57.0</ele>
        <time>2020-01-18T09:57:35.140Z</time>
      </trkpt>
      <trkpt lat="37.25528167" lon="-7.07141833">
        <ele>57.0</ele>
        <time>2020-01-18T09:57:36.147Z</time>
      </trkpt>
      <trkpt lat="37.25520833" lon="-7.07131333">
        <ele>57.0</ele>
        <time>2020-01-18T09:57:37.143Z</time>
      </trkpt>
      <trkpt lat="37.25520833" lon="-7.07131333">
        <ele>57.0</ele>
        <time>2020-01-18T09:57:38.148Z</time>
      </trkpt>
      <trkpt lat="37.255185" lon="-7.071165">
        <ele>56.0</ele>
        <time>2020-01-18T09:57:39.131Z</time>
      </trkpt>
      <trkpt lat="37.255185" lon="-7.071165">
        <ele>56.0</ele>
        <time>2020-01-18T09:57:40.137Z</time>
      </trkpt>
      <trkpt lat="37.25517" lon="-7.07103">
        <ele>56.0</ele>
        <time>2020-01-18T09:57:41.152Z</time>
      </trkpt>
      <trkpt lat="37.255165" lon="-7.07096333">
        <ele>56.0</ele>
        <time>2020-01-18T09:57:42.143Z</time>
      </trkpt>
      <trkpt lat="37.255165" lon="-7.07096333">
        <ele>56.0</ele>
        <time>2020-01-18T09:57:43.149Z</time>
      </trkpt>
      <trkpt lat="37.25516" lon="-7.07084167">
        <ele>56.0</ele>
        <time>2020-01-18T09:57:44.145Z</time>
      </trkpt>
      <trkpt lat="37.25516" lon="-7.07084167">
        <ele>56.0</ele>
        <time>2020-01-18T09:57:45.151Z</time>
      </trkpt>
      <trkpt lat="37.25515833" lon="-7.07072667">
        <ele>56.0</ele>
        <time>2020-01-18T09:57:46.132Z</time>
      </trkpt>
      <trkpt lat="37.25515833" lon="-7.07072667">
        <ele>56.0</ele>
        <time>2020-01-18T09:57:47.138Z</time>
      </trkpt>
      <trkpt lat="37.25516333" lon="-7.07060667">
        <ele>56.0</ele>
        <time>2020-01-18T09:57:48.131Z</time>
      </trkpt>
      <trkpt lat="37.25516333" lon="-7.07060667">
        <ele>56.0</ele>
        <time>2020-01-18T09:57:49.137Z</time>
      </trkpt>
      <trkpt lat="37.25515667" lon="-7.07051333">
        <ele>56.0</ele>
        <time>2020-01-18T09:57:50.166Z</time>
      </trkpt>
      <trkpt lat="37.25515667" lon="-7.07051333">
        <ele>56.0</ele>
        <time>2020-01-18T09:57:51.131Z</time>
      </trkpt>
      <trkpt lat="37.255145" lon="-7.07043667">
        <ele>55.0</ele>
        <time>2020-01-18T09:57:52.133Z</time>
      </trkpt>
      <trkpt lat="37.255145" lon="-7.07043667">
        <ele>55.0</ele>
        <time>2020-01-18T09:57:53.139Z</time>
      </trkpt>
      <trkpt lat="37.25514167" lon="-7.07037833">
        <ele>54.0</ele>
        <time>2020-01-18T09:57:54.136Z</time>
      </trkpt>
      <trkpt lat="37.25514167" lon="-7.07037833">
        <ele>54.0</ele>
        <time>2020-01-18T09:57:55.142Z</time>
      </trkpt>
      <trkpt lat="37.25513667" lon="-7.07033">
        <ele>54.0</ele>
        <time>2020-01-18T09:57:56.136Z</time>
      </trkpt>
      <trkpt lat="37.25513667" lon="-7.07031">
        <ele>54.0</ele>
        <time>2020-01-18T09:57:57.144Z</time>
      </trkpt>
      <trkpt lat="37.25513667" lon="-7.07031">
        <ele>54.0</ele>
        <time>2020-01-18T09:57:58.150Z</time>
      </trkpt>
      <trkpt lat="37.25514333" lon="-7.07028667">
        <ele>53.0</ele>
        <time>2020-01-18T09:57:59.130Z</time>
      </trkpt>
      <trkpt lat="37.25514167" lon="-7.07028333">
        <ele>53.0</ele>
        <time>2020-01-18T09:58:00.162Z</time>
      </trkpt>
      <trkpt lat="37.25514167" lon="-7.07028333">
        <ele>53.0</ele>
        <time>2020-01-18T09:58:01.130Z</time>
      </trkpt>
      <trkpt lat="37.25513667" lon="-7.07028">
        <ele>53.0</ele>
        <time>2020-01-18T09:58:02.149Z</time>
      </trkpt>
      <trkpt lat="37.25513667" lon="-7.07028">
        <ele>53.0</ele>
        <time>2020-01-18T09:58:03.156Z</time>
      </trkpt>
      <trkpt lat="37.25513667" lon="-7.07028">
        <ele>53.0</ele>
        <time>2020-01-18T09:58:04.168Z</time>
      </trkpt>
      <trkpt lat="37.25513667" lon="-7.07028">
        <ele>53.0</ele>
        <time>2020-01-18T09:58:05.140Z</time>
      </trkpt>
      <trkpt lat="37.25513667" lon="-7.07028">
        <ele>53.0</ele>
        <time>2020-01-18T09:58:06.161Z</time>
      </trkpt>
      <trkpt lat="37.25513667" lon="-7.07028">
        <ele>53.0</ele>
        <time>2020-01-18T09:58:07.140Z</time>
      </trkpt>
      <trkpt lat="37.25513667" lon="-7.07028">
        <ele>53.0</ele>
        <time>2020-01-18T09:58:08.139Z</time>
      </trkpt>
      <trkpt lat="37.25513667" lon="-7.07028">
        <ele>53.0</ele>
        <time>2020-01-18T09:58:09.143Z</time>
      </trkpt>
      <trkpt lat="37.25513667" lon="-7.07028">
        <ele>53.0</ele>
        <time>2020-01-18T09:58:10.141Z</time>
      </trkpt>
      <trkpt lat="37.25513667" lon="-7.07028">
        <ele>53.0</ele>
        <time>2020-01-18T09:58:11.148Z</time>
      </trkpt>
      <trkpt lat="37.25513667" lon="-7.07028">
        <ele>53.0</ele>
        <time>2020-01-18T09:58:12.261Z</time>
      </trkpt>
      <trkpt lat="37.25513667" lon="-7.07028">
        <ele>53.0</ele>
        <time>2020-01-18T09:58:13.133Z</time>
      </trkpt>
      <trkpt lat="37.25513667" lon="-7.07028">
        <ele>53.0</ele>
        <time>2020-01-18T09:58:14.140Z</time>
      </trkpt>
      <trkpt lat="37.25513667" lon="-7.07028">
        <ele>53.0</ele>
        <time>2020-01-18T09:58:15.157Z</time>
      </trkpt>
      <trkpt lat="37.25513667" lon="-7.07028">
        <ele>53.0</ele>
        <time>2020-01-18T09:58:16.164Z</time>
      </trkpt>
      <trkpt lat="37.25513667" lon="-7.07028">
        <ele>53.0</ele>
        <time>2020-01-18T09:58:17.133Z</time>
      </trkpt>
      <trkpt lat="37.25513667" lon="-7.07028">
        <ele>53.0</ele>
        <time>2020-01-18T09:58:18.141Z</time>
      </trkpt>
      <trkpt lat="37.25513667" lon="-7.07028">
        <ele>53.0</ele>
        <time>2020-01-18T09:58:19.156Z</time>
      </trkpt>
      <trkpt lat="37.25513667" lon="-7.07028">
        <ele>53.0</ele>
        <time>2020-01-18T09:58:20.132Z</time>
      </trkpt>
      <trkpt lat="37.25513667" lon="-7.07028">
        <ele>53.0</ele>
        <time>2020-01-18T09:58:21.142Z</time>
      </trkpt>
      <trkpt lat="37.25513667" lon="-7.07028">
        <ele>53.0</ele>
        <time>2020-01-18T09:58:22.151Z</time>
      </trkpt>
      <trkpt lat="37.25513667" lon="-7.07028">
        <ele>53.0</ele>
        <time>2020-01-18T09:58:23.156Z</time>
      </trkpt>
      <trkpt lat="37.25513667" lon="-7.07028">
        <ele>53.0</ele>
        <time>2020-01-18T09:58:24.138Z</time>
      </trkpt>
      <trkpt lat="37.25513667" lon="-7.07028">
        <ele>53.0</ele>
        <time>2020-01-18T09:58:25.153Z</time>
      </trkpt>
      <trkpt lat="37.25513667" lon="-7.07028">
        <ele>53.0</ele>
        <time>2020-01-18T09:58:26.143Z</time>
      </trkpt>
      <trkpt lat="37.25513667" lon="-7.07028">
        <ele>53.0</ele>
        <time>2020-01-18T09:58:27.141Z</time>
      </trkpt>
      <trkpt lat="37.25513667" lon="-7.07028">
        <ele>53.0</ele>
        <time>2020-01-18T09:58:28.154Z</time>
      </trkpt>
      <trkpt lat="37.25513667" lon="-7.07028">
        <ele>53.0</ele>
        <time>2020-01-18T09:58:29.160Z</time>
      </trkpt>
      <trkpt lat="37.25513667" lon="-7.07028">
        <ele>53.0</ele>
        <time>2020-01-18T09:58:30.167Z</time>
      </trkpt>
      <trkpt lat="37.25513667" lon="-7.07028">
        <ele>53.0</ele>
        <time>2020-01-18T09:58:31.144Z</time>
      </trkpt>
      <trkpt lat="37.25513667" lon="-7.07028">
        <ele>53.0</ele>
        <time>2020-01-18T09:58:32.158Z</time>
      </trkpt>
      <trkpt lat="37.25513667" lon="-7.07028">
        <ele>53.0</ele>
        <time>2020-01-18T09:58:33.153Z</time>
      </trkpt>
      <trkpt lat="37.25513667" lon="-7.07028">
        <ele>53.0</ele>
        <time>2020-01-18T09:58:34.136Z</time>
      </trkpt>
      <trkpt lat="37.25513667" lon="-7.07028">
        <ele>53.0</ele>
        <time>2020-01-18T09:58:35.138Z</time>
      </trkpt>
      <trkpt lat="37.25513667" lon="-7.07028">
        <ele>53.0</ele>
        <time>2020-01-18T09:58:36.143Z</time>
      </trkpt>
      <trkpt lat="37.25513667" lon="-7.07028">
        <ele>53.0</ele>
        <time>2020-01-18T09:58:37.132Z</time>
      </trkpt>
      <trkpt lat="37.25513667" lon="-7.07028">
        <ele>53.0</ele>
        <time>2020-01-18T09:58:38.140Z</time>
      </trkpt>
      <trkpt lat="37.25513667" lon="-7.07028">
        <ele>53.0</ele>
        <time>2020-01-18T09:58:39.134Z</time>
      </trkpt>
      <trkpt lat="37.25513667" lon="-7.07028">
        <ele>53.0</ele>
        <time>2020-01-18T09:58:40.140Z</time>
      </trkpt>
      <trkpt lat="37.25513667" lon="-7.07028">
        <ele>53.0</ele>
        <time>2020-01-18T09:58:41.146Z</time>
      </trkpt>
      <trkpt lat="37.25513667" lon="-7.07028">
        <ele>53.0</ele>
        <time>2020-01-18T09:58:42.160Z</time>
      </trkpt>
      <trkpt lat="37.25513667" lon="-7.07028">
        <ele>53.0</ele>
        <time>2020-01-18T09:58:43.141Z</time>
      </trkpt>
      <trkpt lat="37.25513667" lon="-7.07028">
        <ele>53.0</ele>
        <time>2020-01-18T09:58:44.151Z</time>
      </trkpt>
      <trkpt lat="37.25513667" lon="-7.07028">
        <ele>53.0</ele>
        <time>2020-01-18T09:58:45.176Z</time>
      </trkpt>
      <trkpt lat="37.25513667" lon="-7.07028">
        <ele>53.0</ele>
        <time>2020-01-18T09:58:46.138Z</time>
      </trkpt>
      <trkpt lat="37.25513667" lon="-7.07028">
        <ele>53.0</ele>
        <time>2020-01-18T09:58:47.132Z</time>
      </trkpt>
      <trkpt lat="37.25513667" lon="-7.07028">
        <ele>53.0</ele>
        <time>2020-01-18T09:58:48.148Z</time>
      </trkpt>
      <trkpt lat="37.25513667" lon="-7.07028">
        <ele>53.0</ele>
        <time>2020-01-18T09:58:49.147Z</time>
      </trkpt>
      <trkpt lat="37.25513667" lon="-7.07028">
        <ele>53.0</ele>
        <time>2020-01-18T09:58:50.163Z</time>
      </trkpt>
      <trkpt lat="37.25513667" lon="-7.07028">
        <ele>53.0</ele>
        <time>2020-01-18T09:58:51.144Z</time>
      </trkpt>
      <trkpt lat="37.25513667" lon="-7.07028">
        <ele>53.0</ele>
        <time>2020-01-18T09:58:52.155Z</time>
      </trkpt>
      <trkpt lat="37.25513667" lon="-7.07028">
        <ele>53.0</ele>
        <time>2020-01-18T09:58:53.161Z</time>
      </trkpt>
      <trkpt lat="37.25513667" lon="-7.07028">
        <ele>53.0</ele>
        <time>2020-01-18T09:58:54.134Z</time>
      </trkpt>
      <trkpt lat="37.25513667" lon="-7.07028">
        <ele>53.0</ele>
        <time>2020-01-18T09:58:55.141Z</time>
      </trkpt>
      <trkpt lat="37.25513667" lon="-7.07028">
        <ele>53.0</ele>
        <time>2020-01-18T09:58:56.149Z</time>
      </trkpt>
      <trkpt lat="37.25513667" lon="-7.07028">
        <ele>53.0</ele>
        <time>2020-01-18T09:58:57.155Z</time>
      </trkpt>
      <trkpt lat="37.25513667" lon="-7.07028">
        <ele>53.0</ele>
        <time>2020-01-18T09:58:58.143Z</time>
      </trkpt>
      <trkpt lat="37.25513667" lon="-7.07028">
        <ele>53.0</ele>
        <time>2020-01-18T09:58:59.185Z</time>
      </trkpt>
      <trkpt lat="37.25513667" lon="-7.07028">
        <ele>53.0</ele>
        <time>2020-01-18T09:59:00.141Z</time>
      </trkpt>
      <trkpt lat="37.25513667" lon="-7.07028">
        <ele>53.0</ele>
        <time>2020-01-18T09:59:01.131Z</time>
      </trkpt>
      <trkpt lat="37.25513667" lon="-7.07028">
        <ele>53.0</ele>
        <time>2020-01-18T09:59:02.142Z</time>
      </trkpt>
      <trkpt lat="37.25513667" lon="-7.07028">
        <ele>53.0</ele>
        <time>2020-01-18T09:59:03.156Z</time>
      </trkpt>
      <trkpt lat="37.25513667" lon="-7.07028">
        <ele>53.0</ele>
        <time>2020-01-18T09:59:04.141Z</time>
      </trkpt>
      <trkpt lat="37.25513667" lon="-7.07028">
        <ele>53.0</ele>
        <time>2020-01-18T09:59:05.136Z</time>
      </trkpt>
      <trkpt lat="37.25513667" lon="-7.07028">
        <ele>53.0</ele>
        <time>2020-01-18T09:59:06.146Z</time>
      </trkpt>
      <trkpt lat="37.25513667" lon="-7.07028">
        <ele>53.0</ele>
        <time>2020-01-18T09:59:07.141Z</time>
      </trkpt>
      <trkpt lat="37.25518667" lon="-7.07023">
        <ele>39.0</ele>
        <time>2020-01-18T09:59:08.155Z</time>
      </trkpt>
      <trkpt lat="37.25518667" lon="-7.07023">
        <ele>39.0</ele>
        <time>2020-01-18T09:59:09.138Z</time>
      </trkpt>
      <trkpt lat="37.25518667" lon="-7.07023">
        <ele>39.0</ele>
        <time>2020-01-18T09:59:10.143Z</time>
      </trkpt>
      <trkpt lat="37.255185" lon="-7.07021667">
        <ele>39.0</ele>
        <time>2020-01-18T09:59:11.151Z</time>
      </trkpt>
      <trkpt lat="37.255185" lon="-7.07021667">
        <ele>39.0</ele>
        <time>2020-01-18T09:59:12.129Z</time>
      </trkpt>
      <trkpt lat="37.255185" lon="-7.07021667">
        <ele>39.0</ele>
        <time>2020-01-18T09:59:13.139Z</time>
      </trkpt>
      <trkpt lat="37.25518333" lon="-7.07021667">
        <ele>39.0</ele>
        <time>2020-01-18T09:59:14.153Z</time>
      </trkpt>
      <trkpt lat="37.25518333" lon="-7.07021667">
        <ele>39.0</ele>
        <time>2020-01-18T09:59:15.158Z</time>
      </trkpt>
      <trkpt lat="37.25518333" lon="-7.07021667">
        <ele>39.0</ele>
        <time>2020-01-18T09:59:16.164Z</time>
      </trkpt>
      <trkpt lat="37.25518333" lon="-7.07021667">
        <ele>39.0</ele>
        <time>2020-01-18T09:59:17.133Z</time>
      </trkpt>
      <trkpt lat="37.25518333" lon="-7.07021667">
        <ele>39.0</ele>
        <time>2020-01-18T09:59:18.146Z</time>
      </trkpt>
      <trkpt lat="37.25518333" lon="-7.07021667">
        <ele>39.0</ele>
        <time>2020-01-18T09:59:19.161Z</time>
      </trkpt>
      <trkpt lat="37.25518333" lon="-7.07021667">
        <ele>39.0</ele>
        <time>2020-01-18T09:59:20.138Z</time>
      </trkpt>
      <trkpt lat="37.25518333" lon="-7.07021667">
        <ele>39.0</ele>
        <time>2020-01-18T09:59:21.144Z</time>
      </trkpt>
      <trkpt lat="37.25518333" lon="-7.07021667">
        <ele>39.0</ele>
        <time>2020-01-18T09:59:22.159Z</time>
      </trkpt>
      <trkpt lat="37.25518333" lon="-7.07021667">
        <ele>39.0</ele>
        <time>2020-01-18T09:59:23.130Z</time>
      </trkpt>
      <trkpt lat="37.25518333" lon="-7.07021667">
        <ele>39.0</ele>
        <time>2020-01-18T09:59:24.138Z</time>
      </trkpt>
      <trkpt lat="37.25518333" lon="-7.07021667">
        <ele>39.0</ele>
        <time>2020-01-18T09:59:25.159Z</time>
      </trkpt>
      <trkpt lat="37.25518333" lon="-7.07021667">
        <ele>39.0</ele>
        <time>2020-01-18T09:59:26.142Z</time>
      </trkpt>
      <trkpt lat="37.25518333" lon="-7.07021667">
        <ele>39.0</ele>
        <time>2020-01-18T09:59:27.160Z</time>
      </trkpt>
      <trkpt lat="37.25518333" lon="-7.07021667">
        <ele>39.0</ele>
        <time>2020-01-18T09:59:28.140Z</time>
      </trkpt>
      <trkpt lat="37.25518333" lon="-7.07021667">
        <ele>39.0</ele>
        <time>2020-01-18T09:59:29.155Z</time>
      </trkpt>
      <trkpt lat="37.25518333" lon="-7.07021667">
        <ele>39.0</ele>
        <time>2020-01-18T09:59:30.140Z</time>
      </trkpt>
      <trkpt lat="37.25518333" lon="-7.07021667">
        <ele>39.0</ele>
        <time>2020-01-18T09:59:31.152Z</time>
      </trkpt>
      <trkpt lat="37.25518333" lon="-7.07021667">
        <ele>39.0</ele>
        <time>2020-01-18T09:59:32.164Z</time>
      </trkpt>
      <trkpt lat="37.25518333" lon="-7.07021667">
        <ele>39.0</ele>
        <time>2020-01-18T09:59:33.148Z</time>
      </trkpt>
      <trkpt lat="37.25518333" lon="-7.07021667">
        <ele>39.0</ele>
        <time>2020-01-18T09:59:34.145Z</time>
      </trkpt>
      <trkpt lat="37.25518333" lon="-7.07021667">
        <ele>39.0</ele>
        <time>2020-01-18T09:59:35.147Z</time>
      </trkpt>
      <trkpt lat="37.25518333" lon="-7.07021667">
        <ele>39.0</ele>
        <time>2020-01-18T09:59:36.141Z</time>
      </trkpt>
      <trkpt lat="37.25518333" lon="-7.07021667">
        <ele>39.0</ele>
        <time>2020-01-18T09:59:37.146Z</time>
      </trkpt>
      <trkpt lat="37.25518333" lon="-7.07021667">
        <ele>39.0</ele>
        <time>2020-01-18T09:59:38.149Z</time>
      </trkpt>
      <trkpt lat="37.25518333" lon="-7.07021667">
        <ele>39.0</ele>
        <time>2020-01-18T09:59:39.148Z</time>
      </trkpt>
      <trkpt lat="37.25518333" lon="-7.07021667">
        <ele>39.0</ele>
        <time>2020-01-18T09:59:40.148Z</time>
      </trkpt>
      <trkpt lat="37.25518333" lon="-7.07021667">
        <ele>39.0</ele>
        <time>2020-01-18T09:59:41.147Z</time>
      </trkpt>
      <trkpt lat="37.25518333" lon="-7.07021667">
        <ele>39.0</ele>
        <time>2020-01-18T09:59:42.168Z</time>
      </trkpt>
      <trkpt lat="37.25518333" lon="-7.07021667">
        <ele>39.0</ele>
        <time>2020-01-18T09:59:43.159Z</time>
      </trkpt>
      <trkpt lat="37.25518333" lon="-7.07021667">
        <ele>39.0</ele>
        <time>2020-01-18T09:59:44.156Z</time>
      </trkpt>
      <trkpt lat="37.25518333" lon="-7.07021667">
        <ele>39.0</ele>
        <time>2020-01-18T09:59:45.156Z</time>
      </trkpt>
      <trkpt lat="37.25518333" lon="-7.07021667">
        <ele>39.0</ele>
        <time>2020-01-18T09:59:46.150Z</time>
      </trkpt>
      <trkpt lat="37.25518833" lon="-7.070225">
        <ele>37.0</ele>
        <time>2020-01-18T09:59:47.146Z</time>
      </trkpt>
      <trkpt lat="37.25518833" lon="-7.070225">
        <ele>37.0</ele>
        <time>2020-01-18T09:59:48.136Z</time>
      </trkpt>
      <trkpt lat="37.25519" lon="-7.07021833">
        <ele>37.0</ele>
        <time>2020-01-18T09:59:49.158Z</time>
      </trkpt>
      <trkpt lat="37.25519" lon="-7.07021833">
        <ele>37.0</ele>
        <time>2020-01-18T09:59:50.141Z</time>
      </trkpt>
      <trkpt lat="37.25519" lon="-7.07021833">
        <ele>37.0</ele>
        <time>2020-01-18T09:59:51.142Z</time>
      </trkpt>
      <trkpt lat="37.25519" lon="-7.070215">
        <ele>37.0</ele>
        <time>2020-01-18T09:59:52.140Z</time>
      </trkpt>
      <trkpt lat="37.25519" lon="-7.070215">
        <ele>37.0</ele>
        <time>2020-01-18T09:59:53.148Z</time>
      </trkpt>
      <trkpt lat="37.25519" lon="-7.070215">
        <ele>37.0</ele>
        <time>2020-01-18T09:59:54.140Z</time>
      </trkpt>
      <trkpt lat="37.25519" lon="-7.070215">
        <ele>37.0</ele>
        <time>2020-01-18T09:59:55.164Z</time>
      </trkpt>
      <trkpt lat="37.25519" lon="-7.070215">
        <ele>37.0</ele>
        <time>2020-01-18T09:59:56.143Z</time>
      </trkpt>
      <trkpt lat="37.25519" lon="-7.070215">
        <ele>37.0</ele>
        <time>2020-01-18T09:59:57.144Z</time>
      </trkpt>
      <trkpt lat="37.25519" lon="-7.070215">
        <ele>37.0</ele>
        <time>2020-01-18T09:59:58.145Z</time>
      </trkpt>
      <trkpt lat="37.25519" lon="-7.070215">
        <ele>37.0</ele>
        <time>2020-01-18T09:59:59.147Z</time>
      </trkpt>
      <trkpt lat="37.25519" lon="-7.070215">
        <ele>37.0</ele>
        <time>2020-01-18T10:00:00.141Z</time>
      </trkpt>
      <trkpt lat="37.25519" lon="-7.070215">
        <ele>37.0</ele>
        <time>2020-01-18T10:00:01.144Z</time>
      </trkpt>
      <trkpt lat="37.25519" lon="-7.070215">
        <ele>37.0</ele>
        <time>2020-01-18T10:00:02.141Z</time>
      </trkpt>
      <trkpt lat="37.25519" lon="-7.070215">
        <ele>37.0</ele>
        <time>2020-01-18T10:00:03.144Z</time>
      </trkpt>
      <trkpt lat="37.25519" lon="-7.070215">
        <ele>37.0</ele>
        <time>2020-01-18T10:00:04.143Z</time>
      </trkpt>
      <trkpt lat="37.25519" lon="-7.070215">
        <ele>37.0</ele>
        <time>2020-01-18T10:00:05.150Z</time>
      </trkpt>
      <trkpt lat="37.25519" lon="-7.070215">
        <ele>37.0</ele>
        <time>2020-01-18T10:00:06.142Z</time>
      </trkpt>
      <trkpt lat="37.25519" lon="-7.070215">
        <ele>37.0</ele>
        <time>2020-01-18T10:00:07.137Z</time>
      </trkpt>
      <trkpt lat="37.25519" lon="-7.070215">
        <ele>37.0</ele>
        <time>2020-01-18T10:00:08.146Z</time>
      </trkpt>
      <trkpt lat="37.25519" lon="-7.070215">
        <ele>37.0</ele>
        <time>2020-01-18T10:00:09.151Z</time>
      </trkpt>
      <trkpt lat="37.25519" lon="-7.070215">
        <ele>37.0</ele>
        <time>2020-01-18T10:00:10.144Z</time>
      </trkpt>
      <trkpt lat="37.25519" lon="-7.070215">
        <ele>37.0</ele>
        <time>2020-01-18T10:00:11.141Z</time>
      </trkpt>
      <trkpt lat="37.25519" lon="-7.070215">
        <ele>37.0</ele>
        <time>2020-01-18T10:00:12.141Z</time>
      </trkpt>
      <trkpt lat="37.25519" lon="-7.070215">
        <ele>37.0</ele>
        <time>2020-01-18T10:00:13.146Z</time>
      </trkpt>
      <trkpt lat="37.25519" lon="-7.070215">
        <ele>37.0</ele>
        <time>2020-01-18T10:00:14.138Z</time>
      </trkpt>
      <trkpt lat="37.25519" lon="-7.070215">
        <ele>37.0</ele>
        <time>2020-01-18T10:00:15.159Z</time>
      </trkpt>
      <trkpt lat="37.25519" lon="-7.070215">
        <ele>37.0</ele>
        <time>2020-01-18T10:00:16.144Z</time>
      </trkpt>
      <trkpt lat="37.25519" lon="-7.070215">
        <ele>37.0</ele>
        <time>2020-01-18T10:00:17.146Z</time>
      </trkpt>
      <trkpt lat="37.25519" lon="-7.070215">
        <ele>37.0</ele>
        <time>2020-01-18T10:00:18.144Z</time>
      </trkpt>
      <trkpt lat="37.25519" lon="-7.070215">
        <ele>37.0</ele>
        <time>2020-01-18T10:00:19.160Z</time>
      </trkpt>
      <trkpt lat="37.25519" lon="-7.070215">
        <ele>37.0</ele>
        <time>2020-01-18T10:00:20.138Z</time>
      </trkpt>
      <trkpt lat="37.25519" lon="-7.070215">
        <ele>37.0</ele>
        <time>2020-01-18T10:00:21.144Z</time>
      </trkpt>
      <trkpt lat="37.25519" lon="-7.070215">
        <ele>37.0</ele>
        <time>2020-01-18T10:00:22.138Z</time>
      </trkpt>
      <trkpt lat="37.25519" lon="-7.070215">
        <ele>37.0</ele>
        <time>2020-01-18T10:00:23.158Z</time>
      </trkpt>
      <trkpt lat="37.25519" lon="-7.070215">
        <ele>37.0</ele>
        <time>2020-01-18T10:00:24.172Z</time>
      </trkpt>
      <trkpt lat="37.25519" lon="-7.070215">
        <ele>37.0</ele>
        <time>2020-01-18T10:00:25.134Z</time>
      </trkpt>
      <trkpt lat="37.25519" lon="-7.070215">
        <ele>37.0</ele>
        <time>2020-01-18T10:00:26.141Z</time>
      </trkpt>
      <trkpt lat="37.25519" lon="-7.070215">
        <ele>37.0</ele>
        <time>2020-01-18T10:00:27.143Z</time>
      </trkpt>
      <trkpt lat="37.25519" lon="-7.070215">
        <ele>37.0</ele>
        <time>2020-01-18T10:00:28.144Z</time>
      </trkpt>
      <trkpt lat="37.25519" lon="-7.070215">
        <ele>37.0</ele>
        <time>2020-01-18T10:00:29.146Z</time>
      </trkpt>
      <trkpt lat="37.25519" lon="-7.070215">
        <ele>37.0</ele>
        <time>2020-01-18T10:00:30.139Z</time>
      </trkpt>
      <trkpt lat="37.25519" lon="-7.070215">
        <ele>37.0</ele>
        <time>2020-01-18T10:00:31.156Z</time>
      </trkpt>
      <trkpt lat="37.25519" lon="-7.070215">
        <ele>37.0</ele>
        <time>2020-01-18T10:00:32.133Z</time>
      </trkpt>
      <trkpt lat="37.25519" lon="-7.070215">
        <ele>37.0</ele>
        <time>2020-01-18T10:00:33.144Z</time>
      </trkpt>
      <trkpt lat="37.25519" lon="-7.070215">
        <ele>37.0</ele>
        <time>2020-01-18T10:00:34.147Z</time>
      </trkpt>
      <trkpt lat="37.25519" lon="-7.070215">
        <ele>37.0</ele>
        <time>2020-01-18T10:00:35.136Z</time>
      </trkpt>
      <trkpt lat="37.25519" lon="-7.070215">
        <ele>37.0</ele>
        <time>2020-01-18T10:00:36.149Z</time>
      </trkpt>
      <trkpt lat="37.25519" lon="-7.070215">
        <ele>37.0</ele>
        <time>2020-01-18T10:00:37.146Z</time>
      </trkpt>
      <trkpt lat="37.25519" lon="-7.070215">
        <ele>37.0</ele>
        <time>2020-01-18T10:00:38.142Z</time>
      </trkpt>
      <trkpt lat="37.25519" lon="-7.070215">
        <ele>37.0</ele>
        <time>2020-01-18T10:00:39.141Z</time>
      </trkpt>
      <trkpt lat="37.25519" lon="-7.070215">
        <ele>37.0</ele>
        <time>2020-01-18T10:00:40.139Z</time>
      </trkpt>
      <trkpt lat="37.25519" lon="-7.070215">
        <ele>37.0</ele>
        <time>2020-01-18T10:00:41.159Z</time>
      </trkpt>
      <trkpt lat="37.25519" lon="-7.070215">
        <ele>37.0</ele>
        <time>2020-01-18T10:00:42.139Z</time>
      </trkpt>
      <trkpt lat="37.25519" lon="-7.070215">
        <ele>37.0</ele>
        <time>2020-01-18T10:00:43.158Z</time>
      </trkpt>
      <trkpt lat="37.25519" lon="-7.070215">
        <ele>37.0</ele>
        <time>2020-01-18T10:00:44.141Z</time>
      </trkpt>
      <trkpt lat="37.25519" lon="-7.070215">
        <ele>37.0</ele>
        <time>2020-01-18T10:00:45.141Z</time>
      </trkpt>
      <trkpt lat="37.25519" lon="-7.070215">
        <ele>37.0</ele>
        <time>2020-01-18T10:00:46.155Z</time>
      </trkpt>
      <trkpt lat="37.25519" lon="-7.070215">
        <ele>37.0</ele>
        <time>2020-01-18T10:00:47.142Z</time>
      </trkpt>
      <trkpt lat="37.25519" lon="-7.070215">
        <ele>37.0</ele>
        <time>2020-01-18T10:00:48.157Z</time>
      </trkpt>
      <trkpt lat="37.25519" lon="-7.070215">
        <ele>37.0</ele>
        <time>2020-01-18T10:00:49.144Z</time>
      </trkpt>
      <trkpt lat="37.25519" lon="-7.070215">
        <ele>37.0</ele>
        <time>2020-01-18T10:00:50.138Z</time>
      </trkpt>
      <trkpt lat="37.25519" lon="-7.070215">
        <ele>37.0</ele>
        <time>2020-01-18T10:00:51.158Z</time>
      </trkpt>
      <trkpt lat="37.25519" lon="-7.070215">
        <ele>37.0</ele>
        <time>2020-01-18T10:00:52.141Z</time>
      </trkpt>
      <trkpt lat="37.25519" lon="-7.070215">
        <ele>37.0</ele>
        <time>2020-01-18T10:00:53.161Z</time>
      </trkpt>
      <trkpt lat="37.25519" lon="-7.070215">
        <ele>37.0</ele>
        <time>2020-01-18T10:00:54.138Z</time>
      </trkpt>
      <trkpt lat="37.25519" lon="-7.070215">
        <ele>37.0</ele>
        <time>2020-01-18T10:00:55.163Z</time>
      </trkpt>
      <trkpt lat="37.25519" lon="-7.070215">
        <ele>37.0</ele>
        <time>2020-01-18T10:00:56.140Z</time>
      </trkpt>
      <trkpt lat="37.25519" lon="-7.070215">
        <ele>37.0</ele>
        <time>2020-01-18T10:00:57.142Z</time>
      </trkpt>
      <trkpt lat="37.25519" lon="-7.070215">
        <ele>37.0</ele>
        <time>2020-01-18T10:00:58.141Z</time>
      </trkpt>
      <trkpt lat="37.25519" lon="-7.070215">
        <ele>37.0</ele>
        <time>2020-01-18T10:00:59.158Z</time>
      </trkpt>
      <trkpt lat="37.25519" lon="-7.070215">
        <ele>37.0</ele>
        <time>2020-01-18T10:01:00.141Z</time>
      </trkpt>
      <trkpt lat="37.25519" lon="-7.070215">
        <ele>37.0</ele>
        <time>2020-01-18T10:01:01.157Z</time>
      </trkpt>
      <trkpt lat="37.25519" lon="-7.070215">
        <ele>37.0</ele>
        <time>2020-01-18T10:01:02.149Z</time>
      </trkpt>
      <trkpt lat="37.25519" lon="-7.070215">
        <ele>37.0</ele>
        <time>2020-01-18T10:01:03.165Z</time>
      </trkpt>
      <trkpt lat="37.25519" lon="-7.070215">
        <ele>37.0</ele>
        <time>2020-01-18T10:01:04.141Z</time>
      </trkpt>
      <trkpt lat="37.25519" lon="-7.070215">
        <ele>37.0</ele>
        <time>2020-01-18T10:01:05.166Z</time>
      </trkpt>
      <trkpt lat="37.25519" lon="-7.070215">
        <ele>37.0</ele>
        <time>2020-01-18T10:01:06.145Z</time>
      </trkpt>
      <trkpt lat="37.25519" lon="-7.070215">
        <ele>37.0</ele>
        <time>2020-01-18T10:01:07.143Z</time>
      </trkpt>
      <trkpt lat="37.25519" lon="-7.070215">
        <ele>37.0</ele>
        <time>2020-01-18T10:01:08.140Z</time>
      </trkpt>
      <trkpt lat="37.25519" lon="-7.070215">
        <ele>37.0</ele>
        <time>2020-01-18T10:01:09.143Z</time>
      </trkpt>
      <trkpt lat="37.25519" lon="-7.070215">
        <ele>37.0</ele>
        <time>2020-01-18T10:01:10.141Z</time>
      </trkpt>
      <trkpt lat="37.25519" lon="-7.070215">
        <ele>37.0</ele>
        <time>2020-01-18T10:01:11.154Z</time>
      </trkpt>
      <trkpt lat="37.25519" lon="-7.070215">
        <ele>37.0</ele>
        <time>2020-01-18T10:01:12.140Z</time>
      </trkpt>
      <trkpt lat="37.25519" lon="-7.070215">
        <ele>37.0</ele>
        <time>2020-01-18T10:01:13.155Z</time>
      </trkpt>
      <trkpt lat="37.25519" lon="-7.070215">
        <ele>37.0</ele>
        <time>2020-01-18T10:01:14.142Z</time>
      </trkpt>
      <trkpt lat="37.25519" lon="-7.070215">
        <ele>37.0</ele>
        <time>2020-01-18T10:01:15.139Z</time>
      </trkpt>
      <trkpt lat="37.25519" lon="-7.070215">
        <ele>37.0</ele>
        <time>2020-01-18T10:01:16.154Z</time>
      </trkpt>
      <trkpt lat="37.25519" lon="-7.070215">
        <ele>37.0</ele>
        <time>2020-01-18T10:01:17.139Z</time>
      </trkpt>
      <trkpt lat="37.25519" lon="-7.070215">
        <ele>37.0</ele>
        <time>2020-01-18T10:01:18.158Z</time>
      </trkpt>
      <trkpt lat="37.25519" lon="-7.070215">
        <ele>37.0</ele>
        <time>2020-01-18T10:01:19.142Z</time>
      </trkpt>
      <trkpt lat="37.25519" lon="-7.070215">
        <ele>37.0</ele>
        <time>2020-01-18T10:01:20.157Z</time>
      </trkpt>
      <trkpt lat="37.25519" lon="-7.070215">
        <ele>37.0</ele>
        <time>2020-01-18T10:01:21.140Z</time>
      </trkpt>
      <trkpt lat="37.25519" lon="-7.070215">
        <ele>37.0</ele>
        <time>2020-01-18T10:01:22.138Z</time>
      </trkpt>
      <trkpt lat="37.25519" lon="-7.070215">
        <ele>37.0</ele>
        <time>2020-01-18T10:01:23.157Z</time>
      </trkpt>
      <trkpt lat="37.25519" lon="-7.070215">
        <ele>37.0</ele>
        <time>2020-01-18T10:01:24.143Z</time>
      </trkpt>
      <trkpt lat="37.25519" lon="-7.070215">
        <ele>37.0</ele>
        <time>2020-01-18T10:01:25.134Z</time>
      </trkpt>
      <trkpt lat="37.25519" lon="-7.070215">
        <ele>37.0</ele>
        <time>2020-01-18T10:01:26.149Z</time>
      </trkpt>
      <trkpt lat="37.25519" lon="-7.070215">
        <ele>37.0</ele>
        <time>2020-01-18T10:01:27.143Z</time>
      </trkpt>
      <trkpt lat="37.25519" lon="-7.070215">
        <ele>37.0</ele>
        <time>2020-01-18T10:01:28.138Z</time>
      </trkpt>
      <trkpt lat="37.25519" lon="-7.070215">
        <ele>37.0</ele>
        <time>2020-01-18T10:01:29.162Z</time>
      </trkpt>
      <trkpt lat="37.25519" lon="-7.070215">
        <ele>37.0</ele>
        <time>2020-01-18T10:01:30.141Z</time>
      </trkpt>
      <trkpt lat="37.25519" lon="-7.070215">
        <ele>37.0</ele>
        <time>2020-01-18T10:01:31.134Z</time>
      </trkpt>
      <trkpt lat="37.25519" lon="-7.070215">
        <ele>37.0</ele>
        <time>2020-01-18T10:01:32.152Z</time>
      </trkpt>
      <trkpt lat="37.25519" lon="-7.070215">
        <ele>37.0</ele>
        <time>2020-01-18T10:01:33.158Z</time>
      </trkpt>
      <trkpt lat="37.25519" lon="-7.070215">
        <ele>37.0</ele>
        <time>2020-01-18T10:01:34.140Z</time>
      </trkpt>
      <trkpt lat="37.25519" lon="-7.070215">
        <ele>37.0</ele>
        <time>2020-01-18T10:01:35.164Z</time>
      </trkpt>
      <trkpt lat="37.25519" lon="-7.070215">
        <ele>37.0</ele>
        <time>2020-01-18T10:01:36.146Z</time>
      </trkpt>
      <trkpt lat="37.25519" lon="-7.070215">
        <ele>37.0</ele>
        <time>2020-01-18T10:01:37.147Z</time>
      </trkpt>
      <trkpt lat="37.25519" lon="-7.070215">
        <ele>37.0</ele>
        <time>2020-01-18T10:01:38.152Z</time>
      </trkpt>
      <trkpt lat="37.25519" lon="-7.070215">
        <ele>37.0</ele>
        <time>2020-01-18T10:01:39.142Z</time>
      </trkpt>
      <trkpt lat="37.25519" lon="-7.070215">
        <ele>37.0</ele>
        <time>2020-01-18T10:01:40.140Z</time>
      </trkpt>
      <trkpt lat="37.25519" lon="-7.070215">
        <ele>37.0</ele>
        <time>2020-01-18T10:01:41.158Z</time>
      </trkpt>
      <trkpt lat="37.25519" lon="-7.070215">
        <ele>37.0</ele>
        <time>2020-01-18T10:01:42.141Z</time>
      </trkpt>
      <trkpt lat="37.25519" lon="-7.070215">
        <ele>37.0</ele>
        <time>2020-01-18T10:01:43.144Z</time>
      </trkpt>
      <trkpt lat="37.25519" lon="-7.070215">
        <ele>37.0</ele>
        <time>2020-01-18T10:01:44.141Z</time>
      </trkpt>
      <trkpt lat="37.25519" lon="-7.070215">
        <ele>37.0</ele>
        <time>2020-01-18T10:01:45.153Z</time>
      </trkpt>
      <trkpt lat="37.25519" lon="-7.070215">
        <ele>37.0</ele>
        <time>2020-01-18T10:01:46.145Z</time>
      </trkpt>
      <trkpt lat="37.25519" lon="-7.070215">
        <ele>37.0</ele>
        <time>2020-01-18T10:01:47.147Z</time>
      </trkpt>
      <trkpt lat="37.25519" lon="-7.070215">
        <ele>37.0</ele>
        <time>2020-01-18T10:01:48.145Z</time>
      </trkpt>
      <trkpt lat="37.25519" lon="-7.070215">
        <ele>37.0</ele>
        <time>2020-01-18T10:01:49.139Z</time>
      </trkpt>
      <trkpt lat="37.25519" lon="-7.070215">
        <ele>37.0</ele>
        <time>2020-01-18T10:01:50.166Z</time>
      </trkpt>
      <trkpt lat="37.25519" lon="-7.070215">
        <ele>37.0</ele>
        <time>2020-01-18T10:01:51.150Z</time>
      </trkpt>
      <trkpt lat="37.25519" lon="-7.070215">
        <ele>37.0</ele>
        <time>2020-01-18T10:01:52.139Z</time>
      </trkpt>
      <trkpt lat="37.25519" lon="-7.070215">
        <ele>37.0</ele>
        <time>2020-01-18T10:01:53.145Z</time>
      </trkpt>
      <trkpt lat="37.25519" lon="-7.070215">
        <ele>37.0</ele>
        <time>2020-01-18T10:01:54.138Z</time>
      </trkpt>
      <trkpt lat="37.25519" lon="-7.070215">
        <ele>37.0</ele>
        <time>2020-01-18T10:01:55.142Z</time>
      </trkpt>
      <trkpt lat="37.25519" lon="-7.070215">
        <ele>37.0</ele>
        <time>2020-01-18T10:01:56.143Z</time>
      </trkpt>
      <trkpt lat="37.25519" lon="-7.070215">
        <ele>37.0</ele>
        <time>2020-01-18T10:01:57.144Z</time>
      </trkpt>
      <trkpt lat="37.25519" lon="-7.070215">
        <ele>37.0</ele>
        <time>2020-01-18T10:01:58.144Z</time>
      </trkpt>
      <trkpt lat="37.25519" lon="-7.070215">
        <ele>37.0</ele>
        <time>2020-01-18T10:01:59.139Z</time>
      </trkpt>
      <trkpt lat="37.25519" lon="-7.070215">
        <ele>37.0</ele>
        <time>2020-01-18T10:02:00.158Z</time>
      </trkpt>
      <trkpt lat="37.25519" lon="-7.070215">
        <ele>37.0</ele>
        <time>2020-01-18T10:02:01.144Z</time>
      </trkpt>
      <trkpt lat="37.25519" lon="-7.070215">
        <ele>37.0</ele>
        <time>2020-01-18T10:02:02.138Z</time>
      </trkpt>
      <trkpt lat="37.25519" lon="-7.070215">
        <ele>37.0</ele>
        <time>2020-01-18T10:02:03.156Z</time>
      </trkpt>
      <trkpt lat="37.25519" lon="-7.070215">
        <ele>37.0</ele>
        <time>2020-01-18T10:02:04.141Z</time>
      </trkpt>
      <trkpt lat="37.25519" lon="-7.070215">
        <ele>37.0</ele>
        <time>2020-01-18T10:02:05.164Z</time>
      </trkpt>
      <trkpt lat="37.25519" lon="-7.070215">
        <ele>37.0</ele>
        <time>2020-01-18T10:02:06.138Z</time>
      </trkpt>
      <trkpt lat="37.25519" lon="-7.070215">
        <ele>37.0</ele>
        <time>2020-01-18T10:02:07.159Z</time>
      </trkpt>
      <trkpt lat="37.25519" lon="-7.070215">
        <ele>37.0</ele>
        <time>2020-01-18T10:02:08.138Z</time>
      </trkpt>
      <trkpt lat="37.25519" lon="-7.070215">
        <ele>37.0</ele>
        <time>2020-01-18T10:02:09.142Z</time>
      </trkpt>
      <trkpt lat="37.25519" lon="-7.070215">
        <ele>37.0</ele>
        <time>2020-01-18T10:02:10.141Z</time>
      </trkpt>
      <trkpt lat="37.25519" lon="-7.070215">
        <ele>37.0</ele>
        <time>2020-01-18T10:02:11.156Z</time>
      </trkpt>
      <trkpt lat="37.25519" lon="-7.070215">
        <ele>37.0</ele>
        <time>2020-01-18T10:02:12.170Z</time>
      </trkpt>
      <trkpt lat="37.25519" lon="-7.070215">
        <ele>37.0</ele>
        <time>2020-01-18T10:02:13.144Z</time>
      </trkpt>
      <trkpt lat="37.25519" lon="-7.070215">
        <ele>37.0</ele>
        <time>2020-01-18T10:02:14.151Z</time>
      </trkpt>
      <trkpt lat="37.25519" lon="-7.070215">
        <ele>37.0</ele>
        <time>2020-01-18T10:02:15.157Z</time>
      </trkpt>
      <trkpt lat="37.25519" lon="-7.070215">
        <ele>37.0</ele>
        <time>2020-01-18T10:02:16.163Z</time>
      </trkpt>
      <trkpt lat="37.25519" lon="-7.070215">
        <ele>37.0</ele>
        <time>2020-01-18T10:02:17.145Z</time>
      </trkpt>
      <trkpt lat="37.25519" lon="-7.070215">
        <ele>37.0</ele>
        <time>2020-01-18T10:02:18.164Z</time>
      </trkpt>
      <trkpt lat="37.25519" lon="-7.070215">
        <ele>37.0</ele>
        <time>2020-01-18T10:02:19.141Z</time>
      </trkpt>
      <trkpt lat="37.25519" lon="-7.070215">
        <ele>37.0</ele>
        <time>2020-01-18T10:02:20.157Z</time>
      </trkpt>
      <trkpt lat="37.25519" lon="-7.070215">
        <ele>37.0</ele>
        <time>2020-01-18T10:02:21.152Z</time>
      </trkpt>
      <trkpt lat="37.25519" lon="-7.070215">
        <ele>37.0</ele>
        <time>2020-01-18T10:02:22.144Z</time>
      </trkpt>
      <trkpt lat="37.25519" lon="-7.070215">
        <ele>37.0</ele>
        <time>2020-01-18T10:02:23.146Z</time>
      </trkpt>
      <trkpt lat="37.25519" lon="-7.070215">
        <ele>37.0</ele>
        <time>2020-01-18T10:02:24.139Z</time>
      </trkpt>
      <trkpt lat="37.25519" lon="-7.070215">
        <ele>37.0</ele>
        <time>2020-01-18T10:02:25.156Z</time>
      </trkpt>
      <trkpt lat="37.25519" lon="-7.070215">
        <ele>37.0</ele>
        <time>2020-01-18T10:02:26.141Z</time>
      </trkpt>
      <trkpt lat="37.25519" lon="-7.070215">
        <ele>37.0</ele>
        <time>2020-01-18T10:02:27.164Z</time>
      </trkpt>
      <trkpt lat="37.25519" lon="-7.070215">
        <ele>37.0</ele>
        <time>2020-01-18T10:02:28.142Z</time>
      </trkpt>
      <trkpt lat="37.25519" lon="-7.070215">
        <ele>37.0</ele>
        <time>2020-01-18T10:02:29.146Z</time>
      </trkpt>
      <trkpt lat="37.25519" lon="-7.070215">
        <ele>37.0</ele>
        <time>2020-01-18T10:02:30.140Z</time>
      </trkpt>
      <trkpt lat="37.25519" lon="-7.070215">
        <ele>37.0</ele>
        <time>2020-01-18T10:02:31.155Z</time>
      </trkpt>
      <trkpt lat="37.25519" lon="-7.070215">
        <ele>37.0</ele>
        <time>2020-01-18T10:02:32.142Z</time>
      </trkpt>
      <trkpt lat="37.25519" lon="-7.070215">
        <ele>37.0</ele>
        <time>2020-01-18T10:02:33.162Z</time>
      </trkpt>
      <trkpt lat="37.25519" lon="-7.070215">
        <ele>37.0</ele>
        <time>2020-01-18T10:02:34.142Z</time>
      </trkpt>
      <trkpt lat="37.25519" lon="-7.070215">
        <ele>37.0</ele>
        <time>2020-01-18T10:02:35.138Z</time>
      </trkpt>
      <trkpt lat="37.25519" lon="-7.070215">
        <ele>37.0</ele>
        <time>2020-01-18T10:02:36.154Z</time>
      </trkpt>
      <trkpt lat="37.25519" lon="-7.070215">
        <ele>37.0</ele>
        <time>2020-01-18T10:02:37.145Z</time>
      </trkpt>
      <trkpt lat="37.25519" lon="-7.070215">
        <ele>37.0</ele>
        <time>2020-01-18T10:02:38.139Z</time>
      </trkpt>
      <trkpt lat="37.25519" lon="-7.070215">
        <ele>37.0</ele>
        <time>2020-01-18T10:02:39.156Z</time>
      </trkpt>
      <trkpt lat="37.25519" lon="-7.070215">
        <ele>37.0</ele>
        <time>2020-01-18T10:02:40.152Z</time>
      </trkpt>
      <trkpt lat="37.25519" lon="-7.070215">
        <ele>37.0</ele>
        <time>2020-01-18T10:02:41.146Z</time>
      </trkpt>
      <trkpt lat="37.25519" lon="-7.070215">
        <ele>37.0</ele>
        <time>2020-01-18T10:02:42.142Z</time>
      </trkpt>
      <trkpt lat="37.25519" lon="-7.070215">
        <ele>37.0</ele>
        <time>2020-01-18T10:02:43.157Z</time>
      </trkpt>
      <trkpt lat="37.25519" lon="-7.070215">
        <ele>37.0</ele>
        <time>2020-01-18T10:02:44.140Z</time>
      </trkpt>
      <trkpt lat="37.25519" lon="-7.070215">
        <ele>37.0</ele>
        <time>2020-01-18T10:02:45.137Z</time>
      </trkpt>
      <trkpt lat="37.25519" lon="-7.070215">
        <ele>37.0</ele>
        <time>2020-01-18T10:02:46.155Z</time>
      </trkpt>
      <trkpt lat="37.25519" lon="-7.070215">
        <ele>37.0</ele>
        <time>2020-01-18T10:02:47.147Z</time>
      </trkpt>
      <trkpt lat="37.25519" lon="-7.070215">
        <ele>37.0</ele>
        <time>2020-01-18T10:02:48.142Z</time>
      </trkpt>
      <trkpt lat="37.25519" lon="-7.070215">
        <ele>37.0</ele>
        <time>2020-01-18T10:02:49.157Z</time>
      </trkpt>
      <trkpt lat="37.25519" lon="-7.070215">
        <ele>37.0</ele>
        <time>2020-01-18T10:02:50.141Z</time>
      </trkpt>
      <trkpt lat="37.25519" lon="-7.070215">
        <ele>37.0</ele>
        <time>2020-01-18T10:02:51.145Z</time>
      </trkpt>
      <trkpt lat="37.25519" lon="-7.070215">
        <ele>37.0</ele>
        <time>2020-01-18T10:02:52.165Z</time>
      </trkpt>
      <trkpt lat="37.25519" lon="-7.070215">
        <ele>37.0</ele>
        <time>2020-01-18T10:02:53.147Z</time>
      </trkpt>
      <trkpt lat="37.25519" lon="-7.070215">
        <ele>37.0</ele>
        <time>2020-01-18T10:02:54.143Z</time>
      </trkpt>
      <trkpt lat="37.25519" lon="-7.070215">
        <ele>37.0</ele>
        <time>2020-01-18T10:02:55.143Z</time>
      </trkpt>
      <trkpt lat="37.25519" lon="-7.070215">
        <ele>37.0</ele>
        <time>2020-01-18T10:02:56.142Z</time>
      </trkpt>
      <trkpt lat="37.25519" lon="-7.070215">
        <ele>37.0</ele>
        <time>2020-01-18T10:02:57.143Z</time>
      </trkpt>
      <trkpt lat="37.25519" lon="-7.070215">
        <ele>37.0</ele>
        <time>2020-01-18T10:02:58.159Z</time>
      </trkpt>
      <trkpt lat="37.25519" lon="-7.070215">
        <ele>37.0</ele>
        <time>2020-01-18T10:02:59.147Z</time>
      </trkpt>
      <trkpt lat="37.25519" lon="-7.070215">
        <ele>37.0</ele>
        <time>2020-01-18T10:03:00.141Z</time>
      </trkpt>
      <trkpt lat="37.25519" lon="-7.070215">
        <ele>37.0</ele>
        <time>2020-01-18T10:03:01.157Z</time>
      </trkpt>
      <trkpt lat="37.25519" lon="-7.070215">
        <ele>37.0</ele>
        <time>2020-01-18T10:03:02.147Z</time>
      </trkpt>
      <trkpt lat="37.25520167" lon="-7.070185">
        <ele>37.0</ele>
        <time>2020-01-18T10:03:03.143Z</time>
      </trkpt>
      <trkpt lat="37.25520167" lon="-7.070185">
        <ele>37.0</ele>
        <time>2020-01-18T10:03:04.142Z</time>
      </trkpt>
      <trkpt lat="37.25523833" lon="-7.07011833">
        <ele>37.0</ele>
        <time>2020-01-18T10:03:05.161Z</time>
      </trkpt>
      <trkpt lat="37.25523833" lon="-7.07011833">
        <ele>37.0</ele>
        <time>2020-01-18T10:03:06.146Z</time>
      </trkpt>
      <trkpt lat="37.25525167" lon="-7.07009">
        <ele>37.0</ele>
        <time>2020-01-18T10:03:07.143Z</time>
      </trkpt>
      <trkpt lat="37.25527167" lon="-7.07003">
        <ele>37.0</ele>
        <time>2020-01-18T10:03:08.149Z</time>
      </trkpt>
      <trkpt lat="37.25528333" lon="-7.07000167">
        <ele>37.0</ele>
        <time>2020-01-18T10:03:09.164Z</time>
      </trkpt>
      <trkpt lat="37.25529333" lon="-7.06997">
        <ele>37.0</ele>
        <time>2020-01-18T10:03:10.168Z</time>
      </trkpt>
      <trkpt lat="37.25529333" lon="-7.06997">
        <ele>37.0</ele>
        <time>2020-01-18T10:03:11.136Z</time>
      </trkpt>
      <trkpt lat="37.25531833" lon="-7.06991167">
        <ele>37.0</ele>
        <time>2020-01-18T10:03:12.146Z</time>
      </trkpt>
      <trkpt lat="37.25532833" lon="-7.06987833">
        <ele>37.0</ele>
        <time>2020-01-18T10:03:13.156Z</time>
      </trkpt>
      <trkpt lat="37.25532833" lon="-7.06987833">
        <ele>37.0</ele>
        <time>2020-01-18T10:03:14.168Z</time>
      </trkpt>
      <trkpt lat="37.25532833" lon="-7.06987833">
        <ele>37.0</ele>
        <time>2020-01-18T10:03:15.139Z</time>
      </trkpt>
      <trkpt lat="37.25535" lon="-7.06979833">
        <ele>37.0</ele>
        <time>2020-01-18T10:03:16.135Z</time>
      </trkpt>
      <trkpt lat="37.25536167" lon="-7.06971333">
        <ele>37.0</ele>
        <time>2020-01-18T10:03:17.143Z</time>
      </trkpt>
      <trkpt lat="37.25536167" lon="-7.06971333">
        <ele>37.0</ele>
        <time>2020-01-18T10:03:18.152Z</time>
      </trkpt>
      <trkpt lat="37.25536667" lon="-7.06963">
        <ele>37.0</ele>
        <time>2020-01-18T10:03:19.160Z</time>
      </trkpt>
      <trkpt lat="37.25537" lon="-7.06958667">
        <ele>37.0</ele>
        <time>2020-01-18T10:03:20.263Z</time>
      </trkpt>
      <trkpt lat="37.25537" lon="-7.06958667">
        <ele>37.0</ele>
        <time>2020-01-18T10:03:21.135Z</time>
      </trkpt>
      <trkpt lat="37.25537" lon="-7.06958667">
        <ele>37.0</ele>
        <time>2020-01-18T10:03:22.142Z</time>
      </trkpt>
      <trkpt lat="37.25538833" lon="-7.06944167">
        <ele>37.0</ele>
        <time>2020-01-18T10:03:23.172Z</time>
      </trkpt>
      <trkpt lat="37.25538833" lon="-7.06944167">
        <ele>37.0</ele>
        <time>2020-01-18T10:03:24.163Z</time>
      </trkpt>
      <trkpt lat="37.25538833" lon="-7.06944167">
        <ele>37.0</ele>
        <time>2020-01-18T10:03:25.143Z</time>
      </trkpt>
      <trkpt lat="37.25540667" lon="-7.06933833">
        <ele>37.0</ele>
        <time>2020-01-18T10:03:26.134Z</time>
      </trkpt>
      <trkpt lat="37.25542667" lon="-7.06922833">
        <ele>38.0</ele>
        <time>2020-01-18T10:03:27.172Z</time>
      </trkpt>
      <trkpt lat="37.25543833" lon="-7.06918833">
        <ele>38.0</ele>
        <time>2020-01-18T10:03:28.159Z</time>
      </trkpt>
      <trkpt lat="37.25544167" lon="-7.06915833">
        <ele>38.0</ele>
        <time>2020-01-18T10:03:29.169Z</time>
      </trkpt>
      <trkpt lat="37.25544167" lon="-7.06915833">
        <ele>38.0</ele>
        <time>2020-01-18T10:03:30.130Z</time>
      </trkpt>
      <trkpt lat="37.25543333" lon="-7.06912667">
        <ele>39.0</ele>
        <time>2020-01-18T10:03:31.156Z</time>
      </trkpt>
      <trkpt lat="37.25543333" lon="-7.06912667">
        <ele>39.0</ele>
        <time>2020-01-18T10:03:32.149Z</time>
      </trkpt>
      <trkpt lat="37.25541833" lon="-7.06910667">
        <ele>39.0</ele>
        <time>2020-01-18T10:03:33.144Z</time>
      </trkpt>
      <trkpt lat="37.25538667" lon="-7.06909">
        <ele>39.0</ele>
        <time>2020-01-18T10:03:34.155Z</time>
      </trkpt>
      <trkpt lat="37.25538667" lon="-7.06909">
        <ele>39.0</ele>
        <time>2020-01-18T10:03:35.143Z</time>
      </trkpt>
      <trkpt lat="37.25538667" lon="-7.06909">
        <ele>39.0</ele>
        <time>2020-01-18T10:03:36.151Z</time>
      </trkpt>
      <trkpt lat="37.25536" lon="-7.06904333">
        <ele>39.0</ele>
        <time>2020-01-18T10:03:37.152Z</time>
      </trkpt>
      <trkpt lat="37.25535" lon="-7.06899667">
        <ele>39.0</ele>
        <time>2020-01-18T10:03:38.158Z</time>
      </trkpt>
      <trkpt lat="37.25535" lon="-7.06899667">
        <ele>39.0</ele>
        <time>2020-01-18T10:03:39.152Z</time>
      </trkpt>
      <trkpt lat="37.25533833" lon="-7.06898">
        <ele>40.0</ele>
        <time>2020-01-18T10:03:40.161Z</time>
      </trkpt>
      <trkpt lat="37.25534667" lon="-7.06897833">
        <ele>40.0</ele>
        <time>2020-01-18T10:03:41.163Z</time>
      </trkpt>
      <trkpt lat="37.25534667" lon="-7.06897833">
        <ele>40.0</ele>
        <time>2020-01-18T10:03:42.137Z</time>
      </trkpt>
      <trkpt lat="37.25535" lon="-7.06898167">
        <ele>41.0</ele>
        <time>2020-01-18T10:03:43.143Z</time>
      </trkpt>
      <trkpt lat="37.25535" lon="-7.06898167">
        <ele>41.0</ele>
        <time>2020-01-18T10:03:44.136Z</time>
      </trkpt>
      <trkpt lat="37.25521333" lon="-7.06886333">
        <ele>40.0</ele>
        <time>2020-01-18T10:03:45.164Z</time>
      </trkpt>
      <trkpt lat="37.25521333" lon="-7.06886333">
        <ele>40.0</ele>
        <time>2020-01-18T10:03:46.138Z</time>
      </trkpt>
      <trkpt lat="37.25519" lon="-7.0688">
        <ele>40.0</ele>
        <time>2020-01-18T10:03:47.162Z</time>
      </trkpt>
      <trkpt lat="37.25519" lon="-7.0688">
        <ele>40.0</ele>
        <time>2020-01-18T10:03:48.136Z</time>
      </trkpt>
      <trkpt lat="37.25518833" lon="-7.068715">
        <ele>39.0</ele>
        <time>2020-01-18T10:03:49.161Z</time>
      </trkpt>
      <trkpt lat="37.25518833" lon="-7.068715">
        <ele>39.0</ele>
        <time>2020-01-18T10:03:50.135Z</time>
      </trkpt>
      <trkpt lat="37.25523" lon="-7.06863">
        <ele>39.0</ele>
        <time>2020-01-18T10:03:51.165Z</time>
      </trkpt>
      <trkpt lat="37.25523" lon="-7.06863">
        <ele>39.0</ele>
        <time>2020-01-18T10:03:52.146Z</time>
      </trkpt>
      <trkpt lat="37.25525167" lon="-7.06853">
        <ele>39.0</ele>
        <time>2020-01-18T10:03:53.136Z</time>
      </trkpt>
      <trkpt lat="37.25525333" lon="-7.06846833">
        <ele>39.0</ele>
        <time>2020-01-18T10:03:54.137Z</time>
      </trkpt>
      <trkpt lat="37.25525333" lon="-7.06846833">
        <ele>39.0</ele>
        <time>2020-01-18T10:03:55.154Z</time>
      </trkpt>
      <trkpt lat="37.25522667" lon="-7.06836">
        <ele>39.0</ele>
        <time>2020-01-18T10:03:56.129Z</time>
      </trkpt>
      <trkpt lat="37.25522667" lon="-7.06836">
        <ele>39.0</ele>
        <time>2020-01-18T10:03:57.144Z</time>
      </trkpt>
      <trkpt lat="37.25518" lon="-7.06826833">
        <ele>40.0</ele>
        <time>2020-01-18T10:03:58.131Z</time>
      </trkpt>
      <trkpt lat="37.25518" lon="-7.06826833">
        <ele>40.0</ele>
        <time>2020-01-18T10:03:59.131Z</time>
      </trkpt>
      <trkpt lat="37.255115" lon="-7.06819833">
        <ele>40.0</ele>
        <time>2020-01-18T10:04:00.175Z</time>
      </trkpt>
      <trkpt lat="37.25508833" lon="-7.06817167">
        <ele>40.0</ele>
        <time>2020-01-18T10:04:01.159Z</time>
      </trkpt>
      <trkpt lat="37.25508833" lon="-7.06817167">
        <ele>40.0</ele>
        <time>2020-01-18T10:04:02.168Z</time>
      </trkpt>
      <trkpt lat="37.255025" lon="-7.06811667">
        <ele>40.0</ele>
        <time>2020-01-18T10:04:03.129Z</time>
      </trkpt>
      <trkpt lat="37.255025" lon="-7.06811667">
        <ele>40.0</ele>
        <time>2020-01-18T10:04:04.134Z</time>
      </trkpt>
      <trkpt lat="37.25497833" lon="-7.06805833">
        <ele>40.0</ele>
        <time>2020-01-18T10:04:05.162Z</time>
      </trkpt>
      <trkpt lat="37.25495667" lon="-7.06802167">
        <ele>40.0</ele>
        <time>2020-01-18T10:04:06.131Z</time>
      </trkpt>
      <trkpt lat="37.25495667" lon="-7.06802167">
        <ele>40.0</ele>
        <time>2020-01-18T10:04:07.137Z</time>
      </trkpt>
      <trkpt lat="37.25492333" lon="-7.067965">
        <ele>41.0</ele>
        <time>2020-01-18T10:04:08.155Z</time>
      </trkpt>
      <trkpt lat="37.25492333" lon="-7.067965">
        <ele>41.0</ele>
        <time>2020-01-18T10:04:09.130Z</time>
      </trkpt>
      <trkpt lat="37.25487667" lon="-7.067915">
        <ele>41.0</ele>
        <time>2020-01-18T10:04:10.132Z</time>
      </trkpt>
      <trkpt lat="37.25485167" lon="-7.06789333">
        <ele>41.0</ele>
        <time>2020-01-18T10:04:11.133Z</time>
      </trkpt>
      <trkpt lat="37.25485167" lon="-7.06789333">
        <ele>41.0</ele>
        <time>2020-01-18T10:04:12.142Z</time>
      </trkpt>
      <trkpt lat="37.2548" lon="-7.06783333">
        <ele>42.0</ele>
        <time>2020-01-18T10:04:13.159Z</time>
      </trkpt>
      <trkpt lat="37.2548" lon="-7.06783333">
        <ele>42.0</ele>
        <time>2020-01-18T10:04:14.140Z</time>
      </trkpt>
      <trkpt lat="37.25473833" lon="-7.06777333">
        <ele>42.0</ele>
        <time>2020-01-18T10:04:15.169Z</time>
      </trkpt>
      <trkpt lat="37.25473833" lon="-7.06777333">
        <ele>42.0</ele>
        <time>2020-01-18T10:04:16.145Z</time>
      </trkpt>
      <trkpt lat="37.25469333" lon="-7.067735">
        <ele>43.0</ele>
        <time>2020-01-18T10:04:17.139Z</time>
      </trkpt>
      <trkpt lat="37.25467" lon="-7.06771333">
        <ele>43.0</ele>
        <time>2020-01-18T10:04:18.151Z</time>
      </trkpt>
      <trkpt lat="37.25465" lon="-7.067695">
        <ele>44.0</ele>
        <time>2020-01-18T10:04:19.169Z</time>
      </trkpt>
      <trkpt lat="37.25465" lon="-7.067695">
        <ele>44.0</ele>
        <time>2020-01-18T10:04:20.140Z</time>
      </trkpt>
      <trkpt lat="37.25461667" lon="-7.06766">
        <ele>45.0</ele>
        <time>2020-01-18T10:04:21.141Z</time>
      </trkpt>
      <trkpt lat="37.2546" lon="-7.067645">
        <ele>45.0</ele>
        <time>2020-01-18T10:04:22.148Z</time>
      </trkpt>
      <trkpt lat="37.2546" lon="-7.067645">
        <ele>45.0</ele>
        <time>2020-01-18T10:04:23.167Z</time>
      </trkpt>
      <trkpt lat="37.25456" lon="-7.06761667">
        <ele>46.0</ele>
        <time>2020-01-18T10:04:24.166Z</time>
      </trkpt>
      <trkpt lat="37.254535" lon="-7.067605">
        <ele>46.0</ele>
        <time>2020-01-18T10:04:25.136Z</time>
      </trkpt>
      <trkpt lat="37.254535" lon="-7.067605">
        <ele>46.0</ele>
        <time>2020-01-18T10:04:26.143Z</time>
      </trkpt>
      <trkpt lat="37.25449167" lon="-7.06758667">
        <ele>47.0</ele>
        <time>2020-01-18T10:04:27.134Z</time>
      </trkpt>
      <trkpt lat="37.25447167" lon="-7.067575">
        <ele>47.0</ele>
        <time>2020-01-18T10:04:28.156Z</time>
      </trkpt>
      <trkpt lat="37.25447167" lon="-7.067575">
        <ele>47.0</ele>
        <time>2020-01-18T10:04:29.160Z</time>
      </trkpt>
      <trkpt lat="37.25443333" lon="-7.06755333">
        <ele>48.0</ele>
        <time>2020-01-18T10:04:30.149Z</time>
      </trkpt>
      <trkpt lat="37.25443333" lon="-7.06755333">
        <ele>48.0</ele>
        <time>2020-01-18T10:04:31.150Z</time>
      </trkpt>
      <trkpt lat="37.254395" lon="-7.06753667">
        <ele>48.0</ele>
        <time>2020-01-18T10:04:32.144Z</time>
      </trkpt>
      <trkpt lat="37.254395" lon="-7.06753667">
        <ele>48.0</ele>
        <time>2020-01-18T10:04:33.138Z</time>
      </trkpt>
      <trkpt lat="37.25435333" lon="-7.067515">
        <ele>49.0</ele>
        <time>2020-01-18T10:04:34.167Z</time>
      </trkpt>
      <trkpt lat="37.25435333" lon="-7.067515">
        <ele>49.0</ele>
        <time>2020-01-18T10:04:35.150Z</time>
      </trkpt>
      <trkpt lat="37.25431" lon="-7.06749333">
        <ele>50.0</ele>
        <time>2020-01-18T10:04:36.147Z</time>
      </trkpt>
      <trkpt lat="37.25429167" lon="-7.06748167">
        <ele>50.0</ele>
        <time>2020-01-18T10:04:37.145Z</time>
      </trkpt>
      <trkpt lat="37.25429167" lon="-7.06748167">
        <ele>50.0</ele>
        <time>2020-01-18T10:04:38.152Z</time>
      </trkpt>
      <trkpt lat="37.25425333" lon="-7.067465">
        <ele>51.0</ele>
        <time>2020-01-18T10:04:39.137Z</time>
      </trkpt>
      <trkpt lat="37.25425333" lon="-7.067465">
        <ele>51.0</ele>
        <time>2020-01-18T10:04:40.155Z</time>
      </trkpt>
      <trkpt lat="37.25421" lon="-7.067445">
        <ele>52.0</ele>
        <time>2020-01-18T10:04:41.139Z</time>
      </trkpt>
      <trkpt lat="37.25418667" lon="-7.06743833">
        <ele>52.0</ele>
        <time>2020-01-18T10:04:42.132Z</time>
      </trkpt>
      <trkpt lat="37.25418667" lon="-7.06743833">
        <ele>52.0</ele>
        <time>2020-01-18T10:04:43.153Z</time>
      </trkpt>
      <trkpt lat="37.254145" lon="-7.06742333">
        <ele>53.0</ele>
        <time>2020-01-18T10:04:44.148Z</time>
      </trkpt>
      <trkpt lat="37.254125" lon="-7.06741667">
        <ele>53.0</ele>
        <time>2020-01-18T10:04:45.148Z</time>
      </trkpt>
      <trkpt lat="37.254125" lon="-7.06741667">
        <ele>53.0</ele>
        <time>2020-01-18T10:04:46.135Z</time>
      </trkpt>
      <trkpt lat="37.25406167" lon="-7.067395">
        <ele>54.0</ele>
        <time>2020-01-18T10:04:47.158Z</time>
      </trkpt>
      <trkpt lat="37.254035" lon="-7.06738667">
        <ele>54.0</ele>
        <time>2020-01-18T10:04:48.152Z</time>
      </trkpt>
      <trkpt lat="37.25401167" lon="-7.06738">
        <ele>55.0</ele>
        <time>2020-01-18T10:04:49.132Z</time>
      </trkpt>
      <trkpt lat="37.25401167" lon="-7.06738">
        <ele>55.0</ele>
        <time>2020-01-18T10:04:50.140Z</time>
      </trkpt>
      <trkpt lat="37.25397333" lon="-7.067365">
        <ele>56.0</ele>
        <time>2020-01-18T10:04:51.137Z</time>
      </trkpt>
      <trkpt lat="37.253955" lon="-7.06735667">
        <ele>56.0</ele>
        <time>2020-01-18T10:04:52.129Z</time>
      </trkpt>
      <trkpt lat="37.253955" lon="-7.06735667">
        <ele>56.0</ele>
        <time>2020-01-18T10:04:53.152Z</time>
      </trkpt>
      <trkpt lat="37.253915" lon="-7.06734">
        <ele>57.0</ele>
        <time>2020-01-18T10:04:54.141Z</time>
      </trkpt>
      <trkpt lat="37.253915" lon="-7.06734">
        <ele>57.0</ele>
        <time>2020-01-18T10:04:55.153Z</time>
      </trkpt>
      <trkpt lat="37.25387" lon="-7.06733">
        <ele>58.0</ele>
        <time>2020-01-18T10:04:56.161Z</time>
      </trkpt>
      <trkpt lat="37.25384667" lon="-7.06732333">
        <ele>59.0</ele>
        <time>2020-01-18T10:04:57.158Z</time>
      </trkpt>
      <trkpt lat="37.25382" lon="-7.06732167">
        <ele>59.0</ele>
        <time>2020-01-18T10:04:58.171Z</time>
      </trkpt>
      <trkpt lat="37.25379333" lon="-7.06731667">
        <ele>60.0</ele>
        <time>2020-01-18T10:04:59.159Z</time>
      </trkpt>
      <trkpt lat="37.25379333" lon="-7.06731667">
        <ele>60.0</ele>
        <time>2020-01-18T10:05:00.154Z</time>
      </trkpt>
      <trkpt lat="37.25374833" lon="-7.06730667">
        <ele>61.0</ele>
        <time>2020-01-18T10:05:01.154Z</time>
      </trkpt>
      <trkpt lat="37.25374833" lon="-7.06730667">
        <ele>61.0</ele>
        <time>2020-01-18T10:05:02.167Z</time>
      </trkpt>
      <trkpt lat="37.25369833" lon="-7.06729333">
        <ele>61.0</ele>
        <time>2020-01-18T10:05:03.170Z</time>
      </trkpt>
      <trkpt lat="37.25369833" lon="-7.06729333">
        <ele>61.0</ele>
        <time>2020-01-18T10:05:04.152Z</time>
      </trkpt>
      <trkpt lat="37.25364333" lon="-7.06727667">
        <ele>62.0</ele>
        <time>2020-01-18T10:05:05.139Z</time>
      </trkpt>
      <trkpt lat="37.25364333" lon="-7.06727667">
        <ele>62.0</ele>
        <time>2020-01-18T10:05:06.148Z</time>
      </trkpt>
      <trkpt lat="37.25359167" lon="-7.06725833">
        <ele>63.0</ele>
        <time>2020-01-18T10:05:07.167Z</time>
      </trkpt>
      <trkpt lat="37.25359167" lon="-7.06725833">
        <ele>63.0</ele>
        <time>2020-01-18T10:05:08.142Z</time>
      </trkpt>
      <trkpt lat="37.25354333" lon="-7.06723333">
        <ele>64.0</ele>
        <time>2020-01-18T10:05:09.133Z</time>
      </trkpt>
      <trkpt lat="37.25351667" lon="-7.06722">
        <ele>64.0</ele>
        <time>2020-01-18T10:05:10.149Z</time>
      </trkpt>
      <trkpt lat="37.25351667" lon="-7.06722">
        <ele>64.0</ele>
        <time>2020-01-18T10:05:11.160Z</time>
      </trkpt>
      <trkpt lat="37.25346167" lon="-7.06718667">
        <ele>65.0</ele>
        <time>2020-01-18T10:05:12.151Z</time>
      </trkpt>
      <trkpt lat="37.25346167" lon="-7.06718667">
        <ele>65.0</ele>
        <time>2020-01-18T10:05:13.138Z</time>
      </trkpt>
      <trkpt lat="37.25340667" lon="-7.067155">
        <ele>66.0</ele>
        <time>2020-01-18T10:05:14.129Z</time>
      </trkpt>
      <trkpt lat="37.25340667" lon="-7.067155">
        <ele>66.0</ele>
        <time>2020-01-18T10:05:15.135Z</time>
      </trkpt>
      <trkpt lat="37.25333833" lon="-7.06712">
        <ele>66.0</ele>
        <time>2020-01-18T10:05:16.161Z</time>
      </trkpt>
      <trkpt lat="37.25330667" lon="-7.06710333">
        <ele>66.0</ele>
        <time>2020-01-18T10:05:17.150Z</time>
      </trkpt>
      <trkpt lat="37.25330667" lon="-7.06710333">
        <ele>66.0</ele>
        <time>2020-01-18T10:05:18.137Z</time>
      </trkpt>
      <trkpt lat="37.25323167" lon="-7.06708">
        <ele>67.0</ele>
        <time>2020-01-18T10:05:19.131Z</time>
      </trkpt>
      <trkpt lat="37.25319333" lon="-7.06707">
        <ele>67.0</ele>
        <time>2020-01-18T10:05:20.140Z</time>
      </trkpt>
      <trkpt lat="37.25315" lon="-7.06705667">
        <ele>67.0</ele>
        <time>2020-01-18T10:05:21.149Z</time>
      </trkpt>
      <trkpt lat="37.25315" lon="-7.06705667">
        <ele>67.0</ele>
        <time>2020-01-18T10:05:22.130Z</time>
      </trkpt>
      <trkpt lat="37.25304833" lon="-7.06699333">
        <ele>66.0</ele>
        <time>2020-01-18T10:05:23.161Z</time>
      </trkpt>
      <trkpt lat="37.252995" lon="-7.06696">
        <ele>66.0</ele>
        <time>2020-01-18T10:05:24.145Z</time>
      </trkpt>
      <trkpt lat="37.252995" lon="-7.06696">
        <ele>66.0</ele>
        <time>2020-01-18T10:05:25.133Z</time>
      </trkpt>
      <trkpt lat="37.252925" lon="-7.06691167">
        <ele>65.0</ele>
        <time>2020-01-18T10:05:26.138Z</time>
      </trkpt>
      <trkpt lat="37.252925" lon="-7.06691167">
        <ele>65.0</ele>
        <time>2020-01-18T10:05:27.150Z</time>
      </trkpt>
      <trkpt lat="37.25286333" lon="-7.06683833">
        <ele>65.0</ele>
        <time>2020-01-18T10:05:28.129Z</time>
      </trkpt>
      <trkpt lat="37.25286333" lon="-7.06683833">
        <ele>65.0</ele>
        <time>2020-01-18T10:05:29.142Z</time>
      </trkpt>
      <trkpt lat="37.25281667" lon="-7.066745">
        <ele>64.0</ele>
        <time>2020-01-18T10:05:30.202Z</time>
      </trkpt>
      <trkpt lat="37.25281667" lon="-7.066745">
        <ele>64.0</ele>
        <time>2020-01-18T10:05:31.146Z</time>
      </trkpt>
      <trkpt lat="37.25275333" lon="-7.066675">
        <ele>63.0</ele>
        <time>2020-01-18T10:05:32.145Z</time>
      </trkpt>
      <trkpt lat="37.25275333" lon="-7.066675">
        <ele>63.0</ele>
        <time>2020-01-18T10:05:33.140Z</time>
      </trkpt>
      <trkpt lat="37.25270667" lon="-7.06663667">
        <ele>63.0</ele>
        <time>2020-01-18T10:05:34.166Z</time>
      </trkpt>
      <trkpt lat="37.25270667" lon="-7.06663667">
        <ele>63.0</ele>
        <time>2020-01-18T10:05:35.135Z</time>
      </trkpt>
      <trkpt lat="37.25267167" lon="-7.06660667">
        <ele>62.0</ele>
        <time>2020-01-18T10:05:36.130Z</time>
      </trkpt>
      <trkpt lat="37.25267167" lon="-7.06660667">
        <ele>62.0</ele>
        <time>2020-01-18T10:05:37.143Z</time>
      </trkpt>
      <trkpt lat="37.25264833" lon="-7.06658167">
        <ele>61.0</ele>
        <time>2020-01-18T10:05:38.135Z</time>
      </trkpt>
      <trkpt lat="37.25264833" lon="-7.06658167">
        <ele>61.0</ele>
        <time>2020-01-18T10:05:39.163Z</time>
      </trkpt>
      <trkpt lat="37.25264333" lon="-7.06658333">
        <ele>60.0</ele>
        <time>2020-01-18T10:05:40.141Z</time>
      </trkpt>
      <trkpt lat="37.25261333" lon="-7.06667667">
        <ele>55.0</ele>
        <time>2020-01-18T10:05:41.164Z</time>
      </trkpt>
      <trkpt lat="37.25261333" lon="-7.06667667">
        <ele>55.0</ele>
        <time>2020-01-18T10:05:42.138Z</time>
      </trkpt>
      <trkpt lat="37.25257833" lon="-7.06673667">
        <ele>55.0</ele>
        <time>2020-01-18T10:05:43.129Z</time>
      </trkpt>
      <trkpt lat="37.25257833" lon="-7.06673667">
        <ele>55.0</ele>
        <time>2020-01-18T10:05:44.145Z</time>
      </trkpt>
      <trkpt lat="37.25253833" lon="-7.06681333">
        <ele>55.0</ele>
        <time>2020-01-18T10:05:45.136Z</time>
      </trkpt>
      <trkpt lat="37.25252667" lon="-7.06685833">
        <ele>55.0</ele>
        <time>2020-01-18T10:05:46.167Z</time>
      </trkpt>
      <trkpt lat="37.25252667" lon="-7.06685833">
        <ele>55.0</ele>
        <time>2020-01-18T10:05:47.145Z</time>
      </trkpt>
      <trkpt lat="37.252495" lon="-7.06694167">
        <ele>54.0</ele>
        <time>2020-01-18T10:05:48.171Z</time>
      </trkpt>
      <trkpt lat="37.25248" lon="-7.06698667">
        <ele>54.0</ele>
        <time>2020-01-18T10:05:49.153Z</time>
      </trkpt>
      <trkpt lat="37.25248" lon="-7.06698667">
        <ele>54.0</ele>
        <time>2020-01-18T10:05:50.135Z</time>
      </trkpt>
      <trkpt lat="37.25245167" lon="-7.06707833">
        <ele>54.0</ele>
        <time>2020-01-18T10:05:51.164Z</time>
      </trkpt>
      <trkpt lat="37.25245167" lon="-7.06707833">
        <ele>54.0</ele>
        <time>2020-01-18T10:05:52.149Z</time>
      </trkpt>
      <trkpt lat="37.25241333" lon="-7.06717">
        <ele>54.0</ele>
        <time>2020-01-18T10:05:53.168Z</time>
      </trkpt>
      <trkpt lat="37.25241333" lon="-7.06717">
        <ele>54.0</ele>
        <time>2020-01-18T10:05:54.133Z</time>
      </trkpt>
      <trkpt lat="37.25238167" lon="-7.06726333">
        <ele>54.0</ele>
        <time>2020-01-18T10:05:55.156Z</time>
      </trkpt>
      <trkpt lat="37.25238167" lon="-7.06726333">
        <ele>54.0</ele>
        <time>2020-01-18T10:05:56.131Z</time>
      </trkpt>
      <trkpt lat="37.252345" lon="-7.067355">
        <ele>54.0</ele>
        <time>2020-01-18T10:05:57.137Z</time>
      </trkpt>
      <trkpt lat="37.25232333" lon="-7.0674">
        <ele>54.0</ele>
        <time>2020-01-18T10:05:58.167Z</time>
      </trkpt>
      <trkpt lat="37.25232333" lon="-7.0674">
        <ele>54.0</ele>
        <time>2020-01-18T10:05:59.129Z</time>
      </trkpt>
      <trkpt lat="37.252285" lon="-7.06749">
        <ele>54.0</ele>
        <time>2020-01-18T10:06:00.153Z</time>
      </trkpt>
      <trkpt lat="37.25226333" lon="-7.06753333">
        <ele>54.0</ele>
        <time>2020-01-18T10:06:01.150Z</time>
      </trkpt>
      <trkpt lat="37.25226333" lon="-7.06753333">
        <ele>54.0</ele>
        <time>2020-01-18T10:06:02.168Z</time>
      </trkpt>
      <trkpt lat="37.25222167" lon="-7.067625">
        <ele>55.0</ele>
        <time>2020-01-18T10:06:03.154Z</time>
      </trkpt>
      <trkpt lat="37.25222167" lon="-7.067625">
        <ele>55.0</ele>
        <time>2020-01-18T10:06:04.138Z</time>
      </trkpt>
      <trkpt lat="37.25218667" lon="-7.06772333">
        <ele>55.0</ele>
        <time>2020-01-18T10:06:05.160Z</time>
      </trkpt>
      <trkpt lat="37.25218667" lon="-7.06772333">
        <ele>55.0</ele>
        <time>2020-01-18T10:06:06.166Z</time>
      </trkpt>
      <trkpt lat="37.25216333" lon="-7.067825">
        <ele>55.0</ele>
        <time>2020-01-18T10:06:07.154Z</time>
      </trkpt>
      <trkpt lat="37.25216333" lon="-7.067825">
        <ele>55.0</ele>
        <time>2020-01-18T10:06:08.143Z</time>
      </trkpt>
      <trkpt lat="37.25213833" lon="-7.067935">
        <ele>55.0</ele>
        <time>2020-01-18T10:06:09.146Z</time>
      </trkpt>
      <trkpt lat="37.25213833" lon="-7.067935">
        <ele>55.0</ele>
        <time>2020-01-18T10:06:10.136Z</time>
      </trkpt>
      <trkpt lat="37.25210667" lon="-7.06804667">
        <ele>55.0</ele>
        <time>2020-01-18T10:06:11.158Z</time>
      </trkpt>
      <trkpt lat="37.25210667" lon="-7.06804667">
        <ele>55.0</ele>
        <time>2020-01-18T10:06:12.155Z</time>
      </trkpt>
      <trkpt lat="37.25207167" lon="-7.06815667">
        <ele>55.0</ele>
        <time>2020-01-18T10:06:13.146Z</time>
      </trkpt>
      <trkpt lat="37.25207167" lon="-7.06815667">
        <ele>55.0</ele>
        <time>2020-01-18T10:06:14.157Z</time>
      </trkpt>
      <trkpt lat="37.25205333" lon="-7.06826167">
        <ele>55.0</ele>
        <time>2020-01-18T10:06:15.141Z</time>
      </trkpt>
      <trkpt lat="37.25205" lon="-7.06831167">
        <ele>55.0</ele>
        <time>2020-01-18T10:06:16.129Z</time>
      </trkpt>
      <trkpt lat="37.25205" lon="-7.06831167">
        <ele>55.0</ele>
        <time>2020-01-18T10:06:17.159Z</time>
      </trkpt>
      <trkpt lat="37.25203" lon="-7.06841333">
        <ele>55.0</ele>
        <time>2020-01-18T10:06:18.143Z</time>
      </trkpt>
      <trkpt lat="37.25201667" lon="-7.06846167">
        <ele>55.0</ele>
        <time>2020-01-18T10:06:19.140Z</time>
      </trkpt>
      <trkpt lat="37.25201667" lon="-7.06846167">
        <ele>55.0</ele>
        <time>2020-01-18T10:06:20.147Z</time>
      </trkpt>
      <trkpt lat="37.25198333" lon="-7.06856667">
        <ele>55.0</ele>
        <time>2020-01-18T10:06:21.132Z</time>
      </trkpt>
      <trkpt lat="37.25198333" lon="-7.06856667">
        <ele>55.0</ele>
        <time>2020-01-18T10:06:22.142Z</time>
      </trkpt>
      <trkpt lat="37.25195333" lon="-7.06867667">
        <ele>55.0</ele>
        <time>2020-01-18T10:06:23.165Z</time>
      </trkpt>
      <trkpt lat="37.25195333" lon="-7.06867667">
        <ele>55.0</ele>
        <time>2020-01-18T10:06:24.157Z</time>
      </trkpt>
      <trkpt lat="37.25192833" lon="-7.06878833">
        <ele>55.0</ele>
        <time>2020-01-18T10:06:25.154Z</time>
      </trkpt>
      <trkpt lat="37.25192833" lon="-7.06878833">
        <ele>55.0</ele>
        <time>2020-01-18T10:06:26.155Z</time>
      </trkpt>
      <trkpt lat="37.25189667" lon="-7.06889667">
        <ele>55.0</ele>
        <time>2020-01-18T10:06:27.142Z</time>
      </trkpt>
      <trkpt lat="37.25188333" lon="-7.06895167">
        <ele>55.0</ele>
        <time>2020-01-18T10:06:28.149Z</time>
      </trkpt>
      <trkpt lat="37.25188333" lon="-7.06895167">
        <ele>55.0</ele>
        <time>2020-01-18T10:06:29.136Z</time>
      </trkpt>
      <trkpt lat="37.25185" lon="-7.06906167">
        <ele>55.0</ele>
        <time>2020-01-18T10:06:30.163Z</time>
      </trkpt>
      <trkpt lat="37.25185" lon="-7.06906167">
        <ele>55.0</ele>
        <time>2020-01-18T10:06:31.134Z</time>
      </trkpt>
      <trkpt lat="37.251815" lon="-7.069175">
        <ele>55.0</ele>
        <time>2020-01-18T10:06:32.132Z</time>
      </trkpt>
      <trkpt lat="37.2518" lon="-7.06924">
        <ele>55.0</ele>
        <time>2020-01-18T10:06:33.133Z</time>
      </trkpt>
      <trkpt lat="37.2518" lon="-7.06924">
        <ele>55.0</ele>
        <time>2020-01-18T10:06:34.139Z</time>
      </trkpt>
      <trkpt lat="37.25177333" lon="-7.06936667">
        <ele>55.0</ele>
        <time>2020-01-18T10:06:35.161Z</time>
      </trkpt>
      <trkpt lat="37.25177333" lon="-7.06936667">
        <ele>55.0</ele>
        <time>2020-01-18T10:06:36.131Z</time>
      </trkpt>
      <trkpt lat="37.25174" lon="-7.06949333">
        <ele>55.0</ele>
        <time>2020-01-18T10:06:37.144Z</time>
      </trkpt>
      <trkpt lat="37.25174" lon="-7.06949333">
        <ele>55.0</ele>
        <time>2020-01-18T10:06:38.145Z</time>
      </trkpt>
      <trkpt lat="37.25170333" lon="-7.06961667">
        <ele>55.0</ele>
        <time>2020-01-18T10:06:39.130Z</time>
      </trkpt>
      <trkpt lat="37.25170333" lon="-7.06961667">
        <ele>55.0</ele>
        <time>2020-01-18T10:06:40.166Z</time>
      </trkpt>
      <trkpt lat="37.251665" lon="-7.06974167">
        <ele>55.0</ele>
        <time>2020-01-18T10:06:41.169Z</time>
      </trkpt>
      <trkpt lat="37.251665" lon="-7.06974167">
        <ele>55.0</ele>
        <time>2020-01-18T10:06:42.146Z</time>
      </trkpt>
      <trkpt lat="37.251635" lon="-7.06986">
        <ele>56.0</ele>
        <time>2020-01-18T10:06:43.134Z</time>
      </trkpt>
      <trkpt lat="37.251635" lon="-7.06986">
        <ele>56.0</ele>
        <time>2020-01-18T10:06:44.160Z</time>
      </trkpt>
      <trkpt lat="37.25160667" lon="-7.06998333">
        <ele>56.0</ele>
        <time>2020-01-18T10:06:45.144Z</time>
      </trkpt>
      <trkpt lat="37.25160667" lon="-7.06998333">
        <ele>56.0</ele>
        <time>2020-01-18T10:06:46.158Z</time>
      </trkpt>
      <trkpt lat="37.25157833" lon="-7.07010833">
        <ele>56.0</ele>
        <time>2020-01-18T10:06:47.264Z</time>
      </trkpt>
      <trkpt lat="37.25157833" lon="-7.07010833">
        <ele>56.0</ele>
        <time>2020-01-18T10:06:48.131Z</time>
      </trkpt>
      <trkpt lat="37.25155167" lon="-7.070235">
        <ele>56.0</ele>
        <time>2020-01-18T10:06:49.163Z</time>
      </trkpt>
      <trkpt lat="37.25155167" lon="-7.070235">
        <ele>56.0</ele>
        <time>2020-01-18T10:06:50.133Z</time>
      </trkpt>
      <trkpt lat="37.25152833" lon="-7.07035833">
        <ele>57.0</ele>
        <time>2020-01-18T10:06:51.167Z</time>
      </trkpt>
      <trkpt lat="37.25152833" lon="-7.07035833">
        <ele>57.0</ele>
        <time>2020-01-18T10:06:52.133Z</time>
      </trkpt>
      <trkpt lat="37.25150333" lon="-7.07048667">
        <ele>57.0</ele>
        <time>2020-01-18T10:06:53.164Z</time>
      </trkpt>
      <trkpt lat="37.25149167" lon="-7.07054833">
        <ele>57.0</ele>
        <time>2020-01-18T10:06:54.164Z</time>
      </trkpt>
      <trkpt lat="37.25149167" lon="-7.07054833">
        <ele>57.0</ele>
        <time>2020-01-18T10:06:55.141Z</time>
      </trkpt>
      <trkpt lat="37.25146667" lon="-7.07066667">
        <ele>57.0</ele>
        <time>2020-01-18T10:06:56.144Z</time>
      </trkpt>
      <trkpt lat="37.25146667" lon="-7.07066667">
        <ele>57.0</ele>
        <time>2020-01-18T10:06:57.156Z</time>
      </trkpt>
      <trkpt lat="37.25144167" lon="-7.07078833">
        <ele>57.0</ele>
        <time>2020-01-18T10:06:58.138Z</time>
      </trkpt>
      <trkpt lat="37.25144167" lon="-7.07078833">
        <ele>57.0</ele>
        <time>2020-01-18T10:06:59.146Z</time>
      </trkpt>
      <trkpt lat="37.25140833" lon="-7.07090667">
        <ele>57.0</ele>
        <time>2020-01-18T10:07:00.144Z</time>
      </trkpt>
      <trkpt lat="37.25140833" lon="-7.07090667">
        <ele>57.0</ele>
        <time>2020-01-18T10:07:01.154Z</time>
      </trkpt>
      <trkpt lat="37.25136833" lon="-7.07102333">
        <ele>58.0</ele>
        <time>2020-01-18T10:07:02.137Z</time>
      </trkpt>
      <trkpt lat="37.25136833" lon="-7.07102333">
        <ele>58.0</ele>
        <time>2020-01-18T10:07:03.147Z</time>
      </trkpt>
      <trkpt lat="37.25132167" lon="-7.07114">
        <ele>57.0</ele>
        <time>2020-01-18T10:07:04.137Z</time>
      </trkpt>
      <trkpt lat="37.25132167" lon="-7.07114">
        <ele>57.0</ele>
        <time>2020-01-18T10:07:05.155Z</time>
      </trkpt>
      <trkpt lat="37.251265" lon="-7.07125833">
        <ele>57.0</ele>
        <time>2020-01-18T10:07:06.134Z</time>
      </trkpt>
      <trkpt lat="37.25123667" lon="-7.07132">
        <ele>57.0</ele>
        <time>2020-01-18T10:07:07.153Z</time>
      </trkpt>
      <trkpt lat="37.25123667" lon="-7.07132">
        <ele>57.0</ele>
        <time>2020-01-18T10:07:08.167Z</time>
      </trkpt>
      <trkpt lat="37.25119167" lon="-7.07144333">
        <ele>57.0</ele>
        <time>2020-01-18T10:07:09.159Z</time>
      </trkpt>
      <trkpt lat="37.25119167" lon="-7.07144333">
        <ele>57.0</ele>
        <time>2020-01-18T10:07:10.133Z</time>
      </trkpt>
      <trkpt lat="37.251135" lon="-7.07157167">
        <ele>58.0</ele>
        <time>2020-01-18T10:07:11.160Z</time>
      </trkpt>
      <trkpt lat="37.251135" lon="-7.07157167">
        <ele>58.0</ele>
        <time>2020-01-18T10:07:12.146Z</time>
      </trkpt>
      <trkpt lat="37.25108167" lon="-7.07171333">
        <ele>58.0</ele>
        <time>2020-01-18T10:07:13.134Z</time>
      </trkpt>
      <trkpt lat="37.25108167" lon="-7.07171333">
        <ele>58.0</ele>
        <time>2020-01-18T10:07:14.163Z</time>
      </trkpt>
      <trkpt lat="37.25102833" lon="-7.071845">
        <ele>58.0</ele>
        <time>2020-01-18T10:07:15.148Z</time>
      </trkpt>
      <trkpt lat="37.25102833" lon="-7.071845">
        <ele>58.0</ele>
        <time>2020-01-18T10:07:16.155Z</time>
      </trkpt>
      <trkpt lat="37.25098833" lon="-7.07197167">
        <ele>58.0</ele>
        <time>2020-01-18T10:07:17.137Z</time>
      </trkpt>
      <trkpt lat="37.25097167" lon="-7.07203333">
        <ele>58.0</ele>
        <time>2020-01-18T10:07:18.146Z</time>
      </trkpt>
      <trkpt lat="37.25095" lon="-7.072095">
        <ele>58.0</ele>
        <time>2020-01-18T10:07:19.137Z</time>
      </trkpt>
      <trkpt lat="37.25095" lon="-7.072095">
        <ele>58.0</ele>
        <time>2020-01-18T10:07:20.152Z</time>
      </trkpt>
      <trkpt lat="37.25090833" lon="-7.07220667">
        <ele>57.0</ele>
        <time>2020-01-18T10:07:21.141Z</time>
      </trkpt>
      <trkpt lat="37.25090833" lon="-7.07220667">
        <ele>57.0</ele>
        <time>2020-01-18T10:07:22.156Z</time>
      </trkpt>
      <trkpt lat="37.25086667" lon="-7.07232333">
        <ele>57.0</ele>
        <time>2020-01-18T10:07:23.138Z</time>
      </trkpt>
      <trkpt lat="37.25086667" lon="-7.07232333">
        <ele>57.0</ele>
        <time>2020-01-18T10:07:24.168Z</time>
      </trkpt>
      <trkpt lat="37.25082833" lon="-7.07244167">
        <ele>56.0</ele>
        <time>2020-01-18T10:07:25.166Z</time>
      </trkpt>
      <trkpt lat="37.25081" lon="-7.072495">
        <ele>56.0</ele>
        <time>2020-01-18T10:07:26.164Z</time>
      </trkpt>
      <trkpt lat="37.25081" lon="-7.072495">
        <ele>56.0</ele>
        <time>2020-01-18T10:07:27.165Z</time>
      </trkpt>
      <trkpt lat="37.250775" lon="-7.07258667">
        <ele>56.0</ele>
        <time>2020-01-18T10:07:28.153Z</time>
      </trkpt>
      <trkpt lat="37.250775" lon="-7.07258667">
        <ele>56.0</ele>
        <time>2020-01-18T10:07:29.163Z</time>
      </trkpt>
      <trkpt lat="37.250735" lon="-7.07267333">
        <ele>55.0</ele>
        <time>2020-01-18T10:07:30.156Z</time>
      </trkpt>
      <trkpt lat="37.250735" lon="-7.07267333">
        <ele>55.0</ele>
        <time>2020-01-18T10:07:31.234Z</time>
      </trkpt>
      <trkpt lat="37.25069667" lon="-7.07275667">
        <ele>55.0</ele>
        <time>2020-01-18T10:07:32.170Z</time>
      </trkpt>
      <trkpt lat="37.25069667" lon="-7.07275667">
        <ele>55.0</ele>
        <time>2020-01-18T10:07:33.157Z</time>
      </trkpt>
      <trkpt lat="37.250665" lon="-7.07285333">
        <ele>55.0</ele>
        <time>2020-01-18T10:07:34.147Z</time>
      </trkpt>
      <trkpt lat="37.250665" lon="-7.07285333">
        <ele>55.0</ele>
        <time>2020-01-18T10:07:35.135Z</time>
      </trkpt>
      <trkpt lat="37.25062833" lon="-7.07296167">
        <ele>54.0</ele>
        <time>2020-01-18T10:07:36.157Z</time>
      </trkpt>
      <trkpt lat="37.25062833" lon="-7.07296167">
        <ele>54.0</ele>
        <time>2020-01-18T10:07:37.129Z</time>
      </trkpt>
      <trkpt lat="37.25058333" lon="-7.07307333">
        <ele>54.0</ele>
        <time>2020-01-18T10:07:38.150Z</time>
      </trkpt>
      <trkpt lat="37.25058333" lon="-7.07307333">
        <ele>54.0</ele>
        <time>2020-01-18T10:07:39.134Z</time>
      </trkpt>
      <trkpt lat="37.25052833" lon="-7.0732">
        <ele>54.0</ele>
        <time>2020-01-18T10:07:40.161Z</time>
      </trkpt>
      <trkpt lat="37.25052833" lon="-7.0732">
        <ele>54.0</ele>
        <time>2020-01-18T10:07:41.157Z</time>
      </trkpt>
      <trkpt lat="37.25048167" lon="-7.07334333">
        <ele>53.0</ele>
        <time>2020-01-18T10:07:42.142Z</time>
      </trkpt>
      <trkpt lat="37.25045" lon="-7.07342833">
        <ele>52.0</ele>
        <time>2020-01-18T10:07:43.131Z</time>
      </trkpt>
      <trkpt lat="37.25045" lon="-7.07342833">
        <ele>52.0</ele>
        <time>2020-01-18T10:07:44.145Z</time>
      </trkpt>
      <trkpt lat="37.25039" lon="-7.07357667">
        <ele>52.0</ele>
        <time>2020-01-18T10:07:45.169Z</time>
      </trkpt>
      <trkpt lat="37.25039" lon="-7.07357667">
        <ele>52.0</ele>
        <time>2020-01-18T10:07:46.133Z</time>
      </trkpt>
      <trkpt lat="37.25035" lon="-7.07372667">
        <ele>52.0</ele>
        <time>2020-01-18T10:07:47.140Z</time>
      </trkpt>
      <trkpt lat="37.25033833" lon="-7.07380167">
        <ele>52.0</ele>
        <time>2020-01-18T10:07:48.137Z</time>
      </trkpt>
      <trkpt lat="37.25033833" lon="-7.07380167">
        <ele>52.0</ele>
        <time>2020-01-18T10:07:49.139Z</time>
      </trkpt>
      <trkpt lat="37.25030667" lon="-7.07394167">
        <ele>51.0</ele>
        <time>2020-01-18T10:07:50.158Z</time>
      </trkpt>
      <trkpt lat="37.250295" lon="-7.07401333">
        <ele>51.0</ele>
        <time>2020-01-18T10:07:51.138Z</time>
      </trkpt>
      <trkpt lat="37.250295" lon="-7.07401333">
        <ele>51.0</ele>
        <time>2020-01-18T10:07:52.144Z</time>
      </trkpt>
      <trkpt lat="37.250285" lon="-7.07415">
        <ele>52.0</ele>
        <time>2020-01-18T10:07:53.132Z</time>
      </trkpt>
      <trkpt lat="37.25027667" lon="-7.07421667">
        <ele>52.0</ele>
        <time>2020-01-18T10:07:54.147Z</time>
      </trkpt>
      <trkpt lat="37.25027667" lon="-7.07421667">
        <ele>52.0</ele>
        <time>2020-01-18T10:07:55.137Z</time>
      </trkpt>
      <trkpt lat="37.25025833" lon="-7.07436667">
        <ele>51.0</ele>
        <time>2020-01-18T10:07:56.170Z</time>
      </trkpt>
      <trkpt lat="37.25025833" lon="-7.07436667">
        <ele>51.0</ele>
        <time>2020-01-18T10:07:57.163Z</time>
      </trkpt>
      <trkpt lat="37.25023667" lon="-7.07452">
        <ele>51.0</ele>
        <time>2020-01-18T10:07:58.154Z</time>
      </trkpt>
      <trkpt lat="37.25022833" lon="-7.07460167">
        <ele>51.0</ele>
        <time>2020-01-18T10:07:59.150Z</time>
      </trkpt>
      <trkpt lat="37.25022833" lon="-7.07460167">
        <ele>51.0</ele>
        <time>2020-01-18T10:08:00.140Z</time>
      </trkpt>
      <trkpt lat="37.25020833" lon="-7.07476167">
        <ele>51.0</ele>
        <time>2020-01-18T10:08:01.130Z</time>
      </trkpt>
      <trkpt lat="37.25020833" lon="-7.07476167">
        <ele>51.0</ele>
        <time>2020-01-18T10:08:02.159Z</time>
      </trkpt>
      <trkpt lat="37.250185" lon="-7.07491333">
        <ele>51.0</ele>
        <time>2020-01-18T10:08:03.158Z</time>
      </trkpt>
      <trkpt lat="37.25017333" lon="-7.07499">
        <ele>50.0</ele>
        <time>2020-01-18T10:08:04.166Z</time>
      </trkpt>
      <trkpt lat="37.25017333" lon="-7.07499">
        <ele>50.0</ele>
        <time>2020-01-18T10:08:05.160Z</time>
      </trkpt>
      <trkpt lat="37.250145" lon="-7.07514167">
        <ele>51.0</ele>
        <time>2020-01-18T10:08:06.164Z</time>
      </trkpt>
      <trkpt lat="37.250145" lon="-7.07514167">
        <ele>51.0</ele>
        <time>2020-01-18T10:08:07.165Z</time>
      </trkpt>
      <trkpt lat="37.25011" lon="-7.07528667">
        <ele>50.0</ele>
        <time>2020-01-18T10:08:08.149Z</time>
      </trkpt>
      <trkpt lat="37.25011" lon="-7.07528667">
        <ele>50.0</ele>
        <time>2020-01-18T10:08:09.157Z</time>
      </trkpt>
      <trkpt lat="37.250075" lon="-7.075435">
        <ele>50.0</ele>
        <time>2020-01-18T10:08:10.159Z</time>
      </trkpt>
      <trkpt lat="37.250075" lon="-7.075435">
        <ele>50.0</ele>
        <time>2020-01-18T10:08:11.167Z</time>
      </trkpt>
      <trkpt lat="37.25003833" lon="-7.07557833">
        <ele>49.0</ele>
        <time>2020-01-18T10:08:12.237Z</time>
      </trkpt>
      <trkpt lat="37.25003833" lon="-7.07557833">
        <ele>49.0</ele>
        <time>2020-01-18T10:08:13.139Z</time>
      </trkpt>
      <trkpt lat="37.24999833" lon="-7.0757">
        <ele>50.0</ele>
        <time>2020-01-18T10:08:14.160Z</time>
      </trkpt>
      <trkpt lat="37.24999833" lon="-7.0757">
        <ele>50.0</ele>
        <time>2020-01-18T10:08:15.134Z</time>
      </trkpt>
      <trkpt lat="37.24995167" lon="-7.07582167">
        <ele>50.0</ele>
        <time>2020-01-18T10:08:16.162Z</time>
      </trkpt>
      <trkpt lat="37.24995167" lon="-7.07582167">
        <ele>50.0</ele>
        <time>2020-01-18T10:08:17.136Z</time>
      </trkpt>
      <trkpt lat="37.24990167" lon="-7.07595667">
        <ele>49.0</ele>
        <time>2020-01-18T10:08:18.161Z</time>
      </trkpt>
      <trkpt lat="37.24987167" lon="-7.07602167">
        <ele>49.0</ele>
        <time>2020-01-18T10:08:19.144Z</time>
      </trkpt>
      <trkpt lat="37.24987167" lon="-7.07602167">
        <ele>49.0</ele>
        <time>2020-01-18T10:08:20.158Z</time>
      </trkpt>
      <trkpt lat="37.24981167" lon="-7.07615167">
        <ele>49.0</ele>
        <time>2020-01-18T10:08:21.132Z</time>
      </trkpt>
      <trkpt lat="37.24981167" lon="-7.07615167">
        <ele>49.0</ele>
        <time>2020-01-18T10:08:22.156Z</time>
      </trkpt>
      <trkpt lat="37.24977167" lon="-7.076285">
        <ele>49.0</ele>
        <time>2020-01-18T10:08:23.142Z</time>
      </trkpt>
      <trkpt lat="37.249755" lon="-7.07635833">
        <ele>48.0</ele>
        <time>2020-01-18T10:08:24.130Z</time>
      </trkpt>
      <trkpt lat="37.249755" lon="-7.07635833">
        <ele>48.0</ele>
        <time>2020-01-18T10:08:25.167Z</time>
      </trkpt>
      <trkpt lat="37.24971667" lon="-7.07649167">
        <ele>48.0</ele>
        <time>2020-01-18T10:08:26.154Z</time>
      </trkpt>
      <trkpt lat="37.24971667" lon="-7.07649167">
        <ele>48.0</ele>
        <time>2020-01-18T10:08:27.152Z</time>
      </trkpt>
      <trkpt lat="37.24967" lon="-7.076615">
        <ele>48.0</ele>
        <time>2020-01-18T10:08:28.138Z</time>
      </trkpt>
      <trkpt lat="37.24967" lon="-7.076615">
        <ele>48.0</ele>
        <time>2020-01-18T10:08:29.168Z</time>
      </trkpt>
      <trkpt lat="37.249625" lon="-7.07672167">
        <ele>48.0</ele>
        <time>2020-01-18T10:08:30.147Z</time>
      </trkpt>
      <trkpt lat="37.249625" lon="-7.07672167">
        <ele>48.0</ele>
        <time>2020-01-18T10:08:31.233Z</time>
      </trkpt>
      <trkpt lat="37.24955667" lon="-7.07683833">
        <ele>49.0</ele>
        <time>2020-01-18T10:08:32.146Z</time>
      </trkpt>
      <trkpt lat="37.24955667" lon="-7.07683833">
        <ele>49.0</ele>
        <time>2020-01-18T10:08:33.158Z</time>
      </trkpt>
      <trkpt lat="37.24948167" lon="-7.07694333">
        <ele>49.0</ele>
        <time>2020-01-18T10:08:34.152Z</time>
      </trkpt>
      <trkpt lat="37.24948167" lon="-7.07694333">
        <ele>49.0</ele>
        <time>2020-01-18T10:08:35.159Z</time>
      </trkpt>
      <trkpt lat="37.24939667" lon="-7.07704333">
        <ele>48.0</ele>
        <time>2020-01-18T10:08:36.154Z</time>
      </trkpt>
      <trkpt lat="37.24939667" lon="-7.07704333">
        <ele>48.0</ele>
        <time>2020-01-18T10:08:37.145Z</time>
      </trkpt>
      <trkpt lat="37.24931" lon="-7.07714167">
        <ele>48.0</ele>
        <time>2020-01-18T10:08:38.142Z</time>
      </trkpt>
      <trkpt lat="37.24931" lon="-7.07714167">
        <ele>48.0</ele>
        <time>2020-01-18T10:08:39.158Z</time>
      </trkpt>
      <trkpt lat="37.249215" lon="-7.077235">
        <ele>48.0</ele>
        <time>2020-01-18T10:08:40.139Z</time>
      </trkpt>
      <trkpt lat="37.24916833" lon="-7.07728667">
        <ele>48.0</ele>
        <time>2020-01-18T10:08:41.144Z</time>
      </trkpt>
      <trkpt lat="37.24916833" lon="-7.07728667">
        <ele>48.0</ele>
        <time>2020-01-18T10:08:42.134Z</time>
      </trkpt>
      <trkpt lat="37.249085" lon="-7.07739833">
        <ele>48.0</ele>
        <time>2020-01-18T10:08:43.132Z</time>
      </trkpt>
      <trkpt lat="37.249085" lon="-7.07739833">
        <ele>48.0</ele>
        <time>2020-01-18T10:08:44.161Z</time>
      </trkpt>
      <trkpt lat="37.24901833" lon="-7.07753833">
        <ele>48.0</ele>
        <time>2020-01-18T10:08:45.145Z</time>
      </trkpt>
      <trkpt lat="37.24901833" lon="-7.07753833">
        <ele>48.0</ele>
        <time>2020-01-18T10:08:46.156Z</time>
      </trkpt>
      <trkpt lat="37.24896833" lon="-7.07769833">
        <ele>47.0</ele>
        <time>2020-01-18T10:08:47.150Z</time>
      </trkpt>
      <trkpt lat="37.24896833" lon="-7.07769833">
        <ele>47.0</ele>
        <time>2020-01-18T10:08:48.158Z</time>
      </trkpt>
      <trkpt lat="37.24892167" lon="-7.07785833">
        <ele>47.0</ele>
        <time>2020-01-18T10:08:49.159Z</time>
      </trkpt>
      <trkpt lat="37.24892167" lon="-7.07785833">
        <ele>47.0</ele>
        <time>2020-01-18T10:08:50.143Z</time>
      </trkpt>
      <trkpt lat="37.24888667" lon="-7.07803333">
        <ele>47.0</ele>
        <time>2020-01-18T10:08:51.131Z</time>
      </trkpt>
      <trkpt lat="37.24888667" lon="-7.07803333">
        <ele>47.0</ele>
        <time>2020-01-18T10:08:52.148Z</time>
      </trkpt>
      <trkpt lat="37.24884333" lon="-7.07820167">
        <ele>45.0</ele>
        <time>2020-01-18T10:08:53.136Z</time>
      </trkpt>
      <trkpt lat="37.24884333" lon="-7.07820167">
        <ele>45.0</ele>
        <time>2020-01-18T10:08:54.147Z</time>
      </trkpt>
      <trkpt lat="37.24880833" lon="-7.078375">
        <ele>44.0</ele>
        <time>2020-01-18T10:08:55.131Z</time>
      </trkpt>
      <trkpt lat="37.24880833" lon="-7.078375">
        <ele>44.0</ele>
        <time>2020-01-18T10:08:56.134Z</time>
      </trkpt>
      <trkpt lat="37.24877167" lon="-7.07854833">
        <ele>44.0</ele>
        <time>2020-01-18T10:08:57.133Z</time>
      </trkpt>
      <trkpt lat="37.24874333" lon="-7.07863167">
        <ele>43.0</ele>
        <time>2020-01-18T10:08:58.170Z</time>
      </trkpt>
      <trkpt lat="37.24874333" lon="-7.07863167">
        <ele>43.0</ele>
        <time>2020-01-18T10:08:59.138Z</time>
      </trkpt>
      <trkpt lat="37.24868833" lon="-7.0788">
        <ele>43.0</ele>
        <time>2020-01-18T10:09:00.168Z</time>
      </trkpt>
      <trkpt lat="37.248665" lon="-7.07887667">
        <ele>43.0</ele>
        <time>2020-01-18T10:09:01.132Z</time>
      </trkpt>
      <trkpt lat="37.24863833" lon="-7.07894333">
        <ele>42.0</ele>
        <time>2020-01-18T10:09:02.150Z</time>
      </trkpt>
      <trkpt lat="37.24863833" lon="-7.07894333">
        <ele>42.0</ele>
        <time>2020-01-18T10:09:03.129Z</time>
      </trkpt>
      <trkpt lat="37.24858333" lon="-7.07906833">
        <ele>42.0</ele>
        <time>2020-01-18T10:09:04.168Z</time>
      </trkpt>
      <trkpt lat="37.24858333" lon="-7.07906833">
        <ele>42.0</ele>
        <time>2020-01-18T10:09:05.136Z</time>
      </trkpt>
      <trkpt lat="37.24852667" lon="-7.0792">
        <ele>42.0</ele>
        <time>2020-01-18T10:09:06.170Z</time>
      </trkpt>
      <trkpt lat="37.24849667" lon="-7.079275">
        <ele>41.0</ele>
        <time>2020-01-18T10:09:07.162Z</time>
      </trkpt>
      <trkpt lat="37.24849667" lon="-7.079275">
        <ele>41.0</ele>
        <time>2020-01-18T10:09:08.138Z</time>
      </trkpt>
      <trkpt lat="37.24843333" lon="-7.079425">
        <ele>41.0</ele>
        <time>2020-01-18T10:09:09.154Z</time>
      </trkpt>
      <trkpt lat="37.24843333" lon="-7.079425">
        <ele>41.0</ele>
        <time>2020-01-18T10:09:10.129Z</time>
      </trkpt>
      <trkpt lat="37.24837" lon="-7.07959167">
        <ele>40.0</ele>
        <time>2020-01-18T10:09:11.163Z</time>
      </trkpt>
      <trkpt lat="37.24837" lon="-7.07959167">
        <ele>40.0</ele>
        <time>2020-01-18T10:09:12.135Z</time>
      </trkpt>
      <trkpt lat="37.24833667" lon="-7.07978333">
        <ele>40.0</ele>
        <time>2020-01-18T10:09:13.165Z</time>
      </trkpt>
      <trkpt lat="37.24833667" lon="-7.07978333">
        <ele>40.0</ele>
        <time>2020-01-18T10:09:14.150Z</time>
      </trkpt>
      <trkpt lat="37.24831667" lon="-7.07997167">
        <ele>39.0</ele>
        <time>2020-01-18T10:09:15.139Z</time>
      </trkpt>
      <trkpt lat="37.248295" lon="-7.08005">
        <ele>39.0</ele>
        <time>2020-01-18T10:09:16.138Z</time>
      </trkpt>
      <trkpt lat="37.248295" lon="-7.08005">
        <ele>39.0</ele>
        <time>2020-01-18T10:09:17.163Z</time>
      </trkpt>
      <trkpt lat="37.24827833" lon="-7.08016833">
        <ele>39.0</ele>
        <time>2020-01-18T10:09:18.145Z</time>
      </trkpt>
      <trkpt lat="37.248275" lon="-7.080215">
        <ele>38.0</ele>
        <time>2020-01-18T10:09:19.131Z</time>
      </trkpt>
      <trkpt lat="37.248275" lon="-7.080215">
        <ele>38.0</ele>
        <time>2020-01-18T10:09:20.139Z</time>
      </trkpt>
      <trkpt lat="37.24825667" lon="-7.08031">
        <ele>38.0</ele>
        <time>2020-01-18T10:09:21.131Z</time>
      </trkpt>
      <trkpt lat="37.24825667" lon="-7.08031">
        <ele>38.0</ele>
        <time>2020-01-18T10:09:22.155Z</time>
      </trkpt>
      <trkpt lat="37.24822667" lon="-7.080385">
        <ele>37.0</ele>
        <time>2020-01-18T10:09:23.150Z</time>
      </trkpt>
      <trkpt lat="37.24822333" lon="-7.08042667">
        <ele>37.0</ele>
        <time>2020-01-18T10:09:24.131Z</time>
      </trkpt>
      <trkpt lat="37.24821333" lon="-7.08046">
        <ele>37.0</ele>
        <time>2020-01-18T10:09:25.142Z</time>
      </trkpt>
      <trkpt lat="37.24821333" lon="-7.08046">
        <ele>37.0</ele>
        <time>2020-01-18T10:09:26.152Z</time>
      </trkpt>
      <trkpt lat="37.24820167" lon="-7.08055667">
        <ele>37.0</ele>
        <time>2020-01-18T10:09:27.134Z</time>
      </trkpt>
      <trkpt lat="37.24818833" lon="-7.08060833">
        <ele>37.0</ele>
        <time>2020-01-18T10:09:28.157Z</time>
      </trkpt>
      <trkpt lat="37.24818833" lon="-7.08060833">
        <ele>37.0</ele>
        <time>2020-01-18T10:09:29.167Z</time>
      </trkpt>
      <trkpt lat="37.24816667" lon="-7.08070333">
        <ele>37.0</ele>
        <time>2020-01-18T10:09:30.137Z</time>
      </trkpt>
      <trkpt lat="37.24816667" lon="-7.08070333">
        <ele>37.0</ele>
        <time>2020-01-18T10:09:31.136Z</time>
      </trkpt>
      <trkpt lat="37.24815333" lon="-7.08079">
        <ele>37.0</ele>
        <time>2020-01-18T10:09:32.168Z</time>
      </trkpt>
      <trkpt lat="37.24815333" lon="-7.08079">
        <ele>37.0</ele>
        <time>2020-01-18T10:09:33.133Z</time>
      </trkpt>
      <trkpt lat="37.24814333" lon="-7.080895">
        <ele>37.0</ele>
        <time>2020-01-18T10:09:34.162Z</time>
      </trkpt>
      <trkpt lat="37.24814333" lon="-7.080895">
        <ele>37.0</ele>
        <time>2020-01-18T10:09:35.139Z</time>
      </trkpt>
      <trkpt lat="37.24813333" lon="-7.08098667">
        <ele>37.0</ele>
        <time>2020-01-18T10:09:36.167Z</time>
      </trkpt>
      <trkpt lat="37.24813" lon="-7.08102833">
        <ele>37.0</ele>
        <time>2020-01-18T10:09:37.151Z</time>
      </trkpt>
      <trkpt lat="37.24813" lon="-7.08102833">
        <ele>37.0</ele>
        <time>2020-01-18T10:09:38.165Z</time>
      </trkpt>
      <trkpt lat="37.24811333" lon="-7.08111667">
        <ele>38.0</ele>
        <time>2020-01-18T10:09:39.227Z</time>
      </trkpt>
      <trkpt lat="37.24811333" lon="-7.08111667">
        <ele>38.0</ele>
        <time>2020-01-18T10:09:40.134Z</time>
      </trkpt>
      <trkpt lat="37.24810667" lon="-7.08120833">
        <ele>37.0</ele>
        <time>2020-01-18T10:09:41.158Z</time>
      </trkpt>
      <trkpt lat="37.24810667" lon="-7.08120833">
        <ele>37.0</ele>
        <time>2020-01-18T10:09:42.131Z</time>
      </trkpt>
      <trkpt lat="37.248095" lon="-7.08129167">
        <ele>37.0</ele>
        <time>2020-01-18T10:09:43.134Z</time>
      </trkpt>
      <trkpt lat="37.248095" lon="-7.08129167">
        <ele>37.0</ele>
        <time>2020-01-18T10:09:44.140Z</time>
      </trkpt>
      <trkpt lat="37.24807333" lon="-7.081375">
        <ele>38.0</ele>
        <time>2020-01-18T10:09:45.136Z</time>
      </trkpt>
      <trkpt lat="37.24807333" lon="-7.081375">
        <ele>38.0</ele>
        <time>2020-01-18T10:09:46.147Z</time>
      </trkpt>
      <trkpt lat="37.24804833" lon="-7.08148333">
        <ele>38.0</ele>
        <time>2020-01-18T10:09:47.140Z</time>
      </trkpt>
      <trkpt lat="37.24804833" lon="-7.08148333">
        <ele>38.0</ele>
        <time>2020-01-18T10:09:48.157Z</time>
      </trkpt>
      <trkpt lat="37.24800667" lon="-7.08157">
        <ele>38.0</ele>
        <time>2020-01-18T10:09:49.139Z</time>
      </trkpt>
      <trkpt lat="37.24800667" lon="-7.08157">
        <ele>38.0</ele>
        <time>2020-01-18T10:09:50.147Z</time>
      </trkpt>
      <trkpt lat="37.247975" lon="-7.08165167">
        <ele>39.0</ele>
        <time>2020-01-18T10:09:51.130Z</time>
      </trkpt>
      <trkpt lat="37.247975" lon="-7.08165167">
        <ele>39.0</ele>
        <time>2020-01-18T10:09:52.160Z</time>
      </trkpt>
      <trkpt lat="37.24795" lon="-7.08173833">
        <ele>40.0</ele>
        <time>2020-01-18T10:09:53.164Z</time>
      </trkpt>
      <trkpt lat="37.24794167" lon="-7.08178167">
        <ele>40.0</ele>
        <time>2020-01-18T10:09:54.132Z</time>
      </trkpt>
      <trkpt lat="37.24794167" lon="-7.08178167">
        <ele>40.0</ele>
        <time>2020-01-18T10:09:55.147Z</time>
      </trkpt>
      <trkpt lat="37.24792167" lon="-7.08186333">
        <ele>41.0</ele>
        <time>2020-01-18T10:09:56.135Z</time>
      </trkpt>
      <trkpt lat="37.24792167" lon="-7.08186333">
        <ele>41.0</ele>
        <time>2020-01-18T10:09:57.143Z</time>
      </trkpt>
      <trkpt lat="37.247905" lon="-7.08194">
        <ele>42.0</ele>
        <time>2020-01-18T10:09:58.169Z</time>
      </trkpt>
      <trkpt lat="37.2479" lon="-7.08198">
        <ele>43.0</ele>
        <time>2020-01-18T10:09:59.144Z</time>
      </trkpt>
      <trkpt lat="37.2479" lon="-7.08198">
        <ele>43.0</ele>
        <time>2020-01-18T10:10:00.147Z</time>
      </trkpt>
      <trkpt lat="37.247885" lon="-7.082055">
        <ele>43.0</ele>
        <time>2020-01-18T10:10:01.174Z</time>
      </trkpt>
      <trkpt lat="37.247885" lon="-7.082055">
        <ele>43.0</ele>
        <time>2020-01-18T10:10:02.144Z</time>
      </trkpt>
      <trkpt lat="37.247885" lon="-7.08213">
        <ele>44.0</ele>
        <time>2020-01-18T10:10:03.136Z</time>
      </trkpt>
      <trkpt lat="37.247885" lon="-7.08213">
        <ele>44.0</ele>
        <time>2020-01-18T10:10:04.131Z</time>
      </trkpt>
      <trkpt lat="37.24788833" lon="-7.08220833">
        <ele>45.0</ele>
        <time>2020-01-18T10:10:05.153Z</time>
      </trkpt>
      <trkpt lat="37.24788667" lon="-7.08224667">
        <ele>45.0</ele>
        <time>2020-01-18T10:10:06.146Z</time>
      </trkpt>
      <trkpt lat="37.24788667" lon="-7.08224667">
        <ele>45.0</ele>
        <time>2020-01-18T10:10:07.139Z</time>
      </trkpt>
      <trkpt lat="37.247875" lon="-7.08231833">
        <ele>46.0</ele>
        <time>2020-01-18T10:10:08.163Z</time>
      </trkpt>
      <trkpt lat="37.247875" lon="-7.08231833">
        <ele>46.0</ele>
        <time>2020-01-18T10:10:09.157Z</time>
      </trkpt>
      <trkpt lat="37.24786667" lon="-7.08239833">
        <ele>46.0</ele>
        <time>2020-01-18T10:10:10.144Z</time>
      </trkpt>
      <trkpt lat="37.24786667" lon="-7.08239833">
        <ele>46.0</ele>
        <time>2020-01-18T10:10:11.159Z</time>
      </trkpt>
      <trkpt lat="37.247845" lon="-7.082475">
        <ele>46.0</ele>
        <time>2020-01-18T10:10:12.149Z</time>
      </trkpt>
      <trkpt lat="37.24783" lon="-7.08251167">
        <ele>46.0</ele>
        <time>2020-01-18T10:10:13.139Z</time>
      </trkpt>
      <trkpt lat="37.24783" lon="-7.08251167">
        <ele>46.0</ele>
        <time>2020-01-18T10:10:14.155Z</time>
      </trkpt>
      <trkpt lat="37.2478" lon="-7.08257833">
        <ele>47.0</ele>
        <time>2020-01-18T10:10:15.154Z</time>
      </trkpt>
      <trkpt lat="37.24778833" lon="-7.08261167">
        <ele>47.0</ele>
        <time>2020-01-18T10:10:16.159Z</time>
      </trkpt>
      <trkpt lat="37.24778833" lon="-7.08261167">
        <ele>47.0</ele>
        <time>2020-01-18T10:10:17.158Z</time>
      </trkpt>
      <trkpt lat="37.24777333" lon="-7.08269">
        <ele>48.0</ele>
        <time>2020-01-18T10:10:18.150Z</time>
      </trkpt>
      <trkpt lat="37.24777167" lon="-7.08273833">
        <ele>48.0</ele>
        <time>2020-01-18T10:10:19.144Z</time>
      </trkpt>
      <trkpt lat="37.24777167" lon="-7.08273833">
        <ele>48.0</ele>
        <time>2020-01-18T10:10:20.149Z</time>
      </trkpt>
      <trkpt lat="37.24776333" lon="-7.082825">
        <ele>47.0</ele>
        <time>2020-01-18T10:10:21.129Z</time>
      </trkpt>
      <trkpt lat="37.24776333" lon="-7.082825">
        <ele>47.0</ele>
        <time>2020-01-18T10:10:22.143Z</time>
      </trkpt>
      <trkpt lat="37.24775167" lon="-7.0829">
        <ele>48.0</ele>
        <time>2020-01-18T10:10:23.164Z</time>
      </trkpt>
      <trkpt lat="37.24775167" lon="-7.0829">
        <ele>48.0</ele>
        <time>2020-01-18T10:10:24.144Z</time>
      </trkpt>
      <trkpt lat="37.24773333" lon="-7.08296333">
        <ele>48.0</ele>
        <time>2020-01-18T10:10:25.131Z</time>
      </trkpt>
      <trkpt lat="37.24772333" lon="-7.08299333">
        <ele>48.0</ele>
        <time>2020-01-18T10:10:26.164Z</time>
      </trkpt>
      <trkpt lat="37.24772333" lon="-7.08299333">
        <ele>48.0</ele>
        <time>2020-01-18T10:10:27.158Z</time>
      </trkpt>
      <trkpt lat="37.24770667" lon="-7.08306333">
        <ele>48.0</ele>
        <time>2020-01-18T10:10:28.164Z</time>
      </trkpt>
      <trkpt lat="37.24770667" lon="-7.08306333">
        <ele>48.0</ele>
        <time>2020-01-18T10:10:29.162Z</time>
      </trkpt>
      <trkpt lat="37.24769667" lon="-7.08314333">
        <ele>49.0</ele>
        <time>2020-01-18T10:10:30.154Z</time>
      </trkpt>
      <trkpt lat="37.24769667" lon="-7.08314333">
        <ele>49.0</ele>
        <time>2020-01-18T10:10:31.243Z</time>
      </trkpt>
      <trkpt lat="37.24768833" lon="-7.083235">
        <ele>49.0</ele>
        <time>2020-01-18T10:10:32.154Z</time>
      </trkpt>
      <trkpt lat="37.24768667" lon="-7.08328833">
        <ele>49.0</ele>
        <time>2020-01-18T10:10:33.163Z</time>
      </trkpt>
      <trkpt lat="37.24768667" lon="-7.08328833">
        <ele>49.0</ele>
        <time>2020-01-18T10:10:34.138Z</time>
      </trkpt>
      <trkpt lat="37.24767" lon="-7.08338167">
        <ele>49.0</ele>
        <time>2020-01-18T10:10:35.143Z</time>
      </trkpt>
      <trkpt lat="37.24767" lon="-7.08338167">
        <ele>49.0</ele>
        <time>2020-01-18T10:10:36.133Z</time>
      </trkpt>
      <trkpt lat="37.24765667" lon="-7.08347833">
        <ele>49.0</ele>
        <time>2020-01-18T10:10:37.165Z</time>
      </trkpt>
      <trkpt lat="37.24765667" lon="-7.08347833">
        <ele>49.0</ele>
        <time>2020-01-18T10:10:38.130Z</time>
      </trkpt>
      <trkpt lat="37.247645" lon="-7.08358333">
        <ele>49.0</ele>
        <time>2020-01-18T10:10:39.167Z</time>
      </trkpt>
      <trkpt lat="37.24764" lon="-7.08363667">
        <ele>49.0</ele>
        <time>2020-01-18T10:10:40.161Z</time>
      </trkpt>
      <trkpt lat="37.24764" lon="-7.08363667">
        <ele>49.0</ele>
        <time>2020-01-18T10:10:41.134Z</time>
      </trkpt>
      <trkpt lat="37.24763" lon="-7.08374167">
        <ele>49.0</ele>
        <time>2020-01-18T10:10:42.130Z</time>
      </trkpt>
      <trkpt lat="37.24762167" lon="-7.08379">
        <ele>49.0</ele>
        <time>2020-01-18T10:10:43.158Z</time>
      </trkpt>
      <trkpt lat="37.24762167" lon="-7.08379">
        <ele>49.0</ele>
        <time>2020-01-18T10:10:44.141Z</time>
      </trkpt>
      <trkpt lat="37.24760667" lon="-7.08389167">
        <ele>49.0</ele>
        <time>2020-01-18T10:10:45.132Z</time>
      </trkpt>
      <trkpt lat="37.24760667" lon="-7.08389167">
        <ele>49.0</ele>
        <time>2020-01-18T10:10:46.147Z</time>
      </trkpt>
      <trkpt lat="37.24758833" lon="-7.08400167">
        <ele>49.0</ele>
        <time>2020-01-18T10:10:47.150Z</time>
      </trkpt>
      <trkpt lat="37.24758833" lon="-7.08400167">
        <ele>49.0</ele>
        <time>2020-01-18T10:10:48.132Z</time>
      </trkpt>
      <trkpt lat="37.24757333" lon="-7.08411667">
        <ele>49.0</ele>
        <time>2020-01-18T10:10:49.160Z</time>
      </trkpt>
      <trkpt lat="37.24757333" lon="-7.08411667">
        <ele>49.0</ele>
        <time>2020-01-18T10:10:50.165Z</time>
      </trkpt>
      <trkpt lat="37.24756167" lon="-7.08422833">
        <ele>49.0</ele>
        <time>2020-01-18T10:10:51.155Z</time>
      </trkpt>
      <trkpt lat="37.24755667" lon="-7.08428167">
        <ele>49.0</ele>
        <time>2020-01-18T10:10:52.157Z</time>
      </trkpt>
      <trkpt lat="37.24754333" lon="-7.08433167">
        <ele>49.0</ele>
        <time>2020-01-18T10:10:53.162Z</time>
      </trkpt>
      <trkpt lat="37.24753" lon="-7.08438167">
        <ele>49.0</ele>
        <time>2020-01-18T10:10:54.153Z</time>
      </trkpt>
      <trkpt lat="37.24753" lon="-7.08438167">
        <ele>49.0</ele>
        <time>2020-01-18T10:10:55.139Z</time>
      </trkpt>
      <trkpt lat="37.24754667" lon="-7.08446167">
        <ele>49.0</ele>
        <time>2020-01-18T10:10:56.137Z</time>
      </trkpt>
      <trkpt lat="37.24754667" lon="-7.08446167">
        <ele>49.0</ele>
        <time>2020-01-18T10:10:57.168Z</time>
      </trkpt>
      <trkpt lat="37.24758" lon="-7.0845">
        <ele>49.0</ele>
        <time>2020-01-18T10:10:58.159Z</time>
      </trkpt>
      <trkpt lat="37.24759667" lon="-7.08451667">
        <ele>49.0</ele>
        <time>2020-01-18T10:10:59.159Z</time>
      </trkpt>
      <trkpt lat="37.24759667" lon="-7.08451667">
        <ele>49.0</ele>
        <time>2020-01-18T10:11:00.131Z</time>
      </trkpt>
      <trkpt lat="37.24762167" lon="-7.08455333">
        <ele>49.0</ele>
        <time>2020-01-18T10:11:01.149Z</time>
      </trkpt>
      <trkpt lat="37.24762167" lon="-7.08455333">
        <ele>49.0</ele>
        <time>2020-01-18T10:11:02.158Z</time>
      </trkpt>
      <trkpt lat="37.24764833" lon="-7.08458333">
        <ele>49.0</ele>
        <time>2020-01-18T10:11:03.154Z</time>
      </trkpt>
      <trkpt lat="37.247665" lon="-7.08459">
        <ele>50.0</ele>
        <time>2020-01-18T10:11:04.143Z</time>
      </trkpt>
      <trkpt lat="37.247665" lon="-7.08459">
        <ele>50.0</ele>
        <time>2020-01-18T10:11:05.163Z</time>
      </trkpt>
      <trkpt lat="37.247675" lon="-7.08459667">
        <ele>50.0</ele>
        <time>2020-01-18T10:11:06.167Z</time>
      </trkpt>
      <trkpt lat="37.24767667" lon="-7.08459667">
        <ele>50.0</ele>
        <time>2020-01-18T10:11:07.138Z</time>
      </trkpt>
      <trkpt lat="37.24767667" lon="-7.08459667">
        <ele>50.0</ele>
        <time>2020-01-18T10:11:08.142Z</time>
      </trkpt>
      <trkpt lat="37.24767667" lon="-7.08459667">
        <ele>50.0</ele>
        <time>2020-01-18T10:11:09.134Z</time>
      </trkpt>
      <trkpt lat="37.24781333" lon="-7.0847">
        <ele>47.0</ele>
        <time>2020-01-18T10:11:10.152Z</time>
      </trkpt>
      <trkpt lat="37.24781333" lon="-7.0847">
        <ele>47.0</ele>
        <time>2020-01-18T10:11:11.139Z</time>
      </trkpt>
      <trkpt lat="37.24787" lon="-7.08470333">
        <ele>47.0</ele>
        <time>2020-01-18T10:11:12.130Z</time>
      </trkpt>
      <trkpt lat="37.24787" lon="-7.08470333">
        <ele>47.0</ele>
        <time>2020-01-18T10:11:13.137Z</time>
      </trkpt>
      <trkpt lat="37.24796667" lon="-7.08471667">
        <ele>48.0</ele>
        <time>2020-01-18T10:11:14.162Z</time>
      </trkpt>
      <trkpt lat="37.24800333" lon="-7.08472833">
        <ele>48.0</ele>
        <time>2020-01-18T10:11:15.190Z</time>
      </trkpt>
      <trkpt lat="37.24800333" lon="-7.08472833">
        <ele>48.0</ele>
        <time>2020-01-18T10:11:16.138Z</time>
      </trkpt>
      <trkpt lat="37.24806833" lon="-7.08475">
        <ele>49.0</ele>
        <time>2020-01-18T10:11:17.145Z</time>
      </trkpt>
      <trkpt lat="37.24806833" lon="-7.08475">
        <ele>49.0</ele>
        <time>2020-01-18T10:11:18.152Z</time>
      </trkpt>
      <trkpt lat="37.24812667" lon="-7.08478167">
        <ele>50.0</ele>
        <time>2020-01-18T10:11:19.162Z</time>
      </trkpt>
      <trkpt lat="37.24815833" lon="-7.08480333">
        <ele>51.0</ele>
        <time>2020-01-18T10:11:20.151Z</time>
      </trkpt>
      <trkpt lat="37.24815833" lon="-7.08480333">
        <ele>51.0</ele>
        <time>2020-01-18T10:11:21.149Z</time>
      </trkpt>
      <trkpt lat="37.24822667" lon="-7.08483167">
        <ele>51.0</ele>
        <time>2020-01-18T10:11:22.158Z</time>
      </trkpt>
      <trkpt lat="37.248265" lon="-7.08484333">
        <ele>52.0</ele>
        <time>2020-01-18T10:11:23.180Z</time>
      </trkpt>
      <trkpt lat="37.248265" lon="-7.08484333">
        <ele>52.0</ele>
        <time>2020-01-18T10:11:24.138Z</time>
      </trkpt>
      <trkpt lat="37.24833667" lon="-7.084855">
        <ele>54.0</ele>
        <time>2020-01-18T10:11:25.157Z</time>
      </trkpt>
      <trkpt lat="37.24833667" lon="-7.084855">
        <ele>54.0</ele>
        <time>2020-01-18T10:11:26.130Z</time>
      </trkpt>
      <trkpt lat="37.248405" lon="-7.08485333">
        <ele>55.0</ele>
        <time>2020-01-18T10:11:27.142Z</time>
      </trkpt>
      <trkpt lat="37.248405" lon="-7.08485333">
        <ele>55.0</ele>
        <time>2020-01-18T10:11:28.140Z</time>
      </trkpt>
      <trkpt lat="37.248475" lon="-7.08485">
        <ele>56.0</ele>
        <time>2020-01-18T10:11:29.156Z</time>
      </trkpt>
      <trkpt lat="37.248475" lon="-7.08485">
        <ele>56.0</ele>
        <time>2020-01-18T10:11:30.147Z</time>
      </trkpt>
      <trkpt lat="37.248545" lon="-7.08484">
        <ele>57.0</ele>
        <time>2020-01-18T10:11:31.167Z</time>
      </trkpt>
      <trkpt lat="37.248585" lon="-7.084835">
        <ele>57.0</ele>
        <time>2020-01-18T10:11:32.173Z</time>
      </trkpt>
      <trkpt lat="37.248585" lon="-7.084835">
        <ele>57.0</ele>
        <time>2020-01-18T10:11:33.168Z</time>
      </trkpt>
      <trkpt lat="37.248585" lon="-7.084835">
        <ele>57.0</ele>
        <time>2020-01-18T10:11:34.135Z</time>
      </trkpt>
      <trkpt lat="37.24869333" lon="-7.084845">
        <ele>58.0</ele>
        <time>2020-01-18T10:11:35.149Z</time>
      </trkpt>
      <trkpt lat="37.24869333" lon="-7.084845">
        <ele>58.0</ele>
        <time>2020-01-18T10:11:36.150Z</time>
      </trkpt>
      <trkpt lat="37.24877667" lon="-7.08485667">
        <ele>58.0</ele>
        <time>2020-01-18T10:11:37.157Z</time>
      </trkpt>
      <trkpt lat="37.24881833" lon="-7.08486667">
        <ele>59.0</ele>
        <time>2020-01-18T10:11:38.158Z</time>
      </trkpt>
      <trkpt lat="37.24881833" lon="-7.08486667">
        <ele>59.0</ele>
        <time>2020-01-18T10:11:39.141Z</time>
      </trkpt>
      <trkpt lat="37.24890833" lon="-7.08487667">
        <ele>58.0</ele>
        <time>2020-01-18T10:11:40.150Z</time>
      </trkpt>
      <trkpt lat="37.24890833" lon="-7.08487667">
        <ele>58.0</ele>
        <time>2020-01-18T10:11:41.129Z</time>
      </trkpt>
      <trkpt lat="37.24890833" lon="-7.08487667">
        <ele>58.0</ele>
        <time>2020-01-18T10:11:42.135Z</time>
      </trkpt>
      <trkpt lat="37.249005" lon="-7.084885">
        <ele>57.0</ele>
        <time>2020-01-18T10:11:43.148Z</time>
      </trkpt>
      <trkpt lat="37.249105" lon="-7.084885">
        <ele>58.0</ele>
        <time>2020-01-18T10:11:44.154Z</time>
      </trkpt>
      <trkpt lat="37.249105" lon="-7.084885">
        <ele>58.0</ele>
        <time>2020-01-18T10:11:45.138Z</time>
      </trkpt>
      <trkpt lat="37.24919667" lon="-7.084885">
        <ele>58.0</ele>
        <time>2020-01-18T10:11:46.144Z</time>
      </trkpt>
      <trkpt lat="37.24924" lon="-7.08488333">
        <ele>57.0</ele>
        <time>2020-01-18T10:11:47.142Z</time>
      </trkpt>
      <trkpt lat="37.24928833" lon="-7.08487833">
        <ele>56.0</ele>
        <time>2020-01-18T10:11:48.177Z</time>
      </trkpt>
      <trkpt lat="37.24928833" lon="-7.08487833">
        <ele>56.0</ele>
        <time>2020-01-18T10:11:49.143Z</time>
      </trkpt>
      <trkpt lat="37.24938333" lon="-7.08489333">
        <ele>56.0</ele>
        <time>2020-01-18T10:11:50.149Z</time>
      </trkpt>
      <trkpt lat="37.24938333" lon="-7.08489333">
        <ele>56.0</ele>
        <time>2020-01-18T10:11:51.163Z</time>
      </trkpt>
      <trkpt lat="37.24938333" lon="-7.08489333">
        <ele>56.0</ele>
        <time>2020-01-18T10:11:52.131Z</time>
      </trkpt>
      <trkpt lat="37.24948333" lon="-7.08493167">
        <ele>55.0</ele>
        <time>2020-01-18T10:11:53.156Z</time>
      </trkpt>
      <trkpt lat="37.24948333" lon="-7.08493167">
        <ele>55.0</ele>
        <time>2020-01-18T10:11:54.274Z</time>
      </trkpt>
      <trkpt lat="37.249585" lon="-7.08498">
        <ele>55.0</ele>
        <time>2020-01-18T10:11:55.140Z</time>
      </trkpt>
      <trkpt lat="37.24968167" lon="-7.08501167">
        <ele>55.0</ele>
        <time>2020-01-18T10:11:56.155Z</time>
      </trkpt>
      <trkpt lat="37.24973" lon="-7.08501667">
        <ele>55.0</ele>
        <time>2020-01-18T10:11:57.149Z</time>
      </trkpt>
      <trkpt lat="37.24973" lon="-7.08501667">
        <ele>55.0</ele>
        <time>2020-01-18T10:11:58.148Z</time>
      </trkpt>
      <trkpt lat="37.24981833" lon="-7.08502167">
        <ele>56.0</ele>
        <time>2020-01-18T10:11:59.159Z</time>
      </trkpt>
      <trkpt lat="37.24981833" lon="-7.08502167">
        <ele>56.0</ele>
        <time>2020-01-18T10:12:00.157Z</time>
      </trkpt>
      <trkpt lat="37.24990333" lon="-7.08502">
        <ele>57.0</ele>
        <time>2020-01-18T10:12:01.165Z</time>
      </trkpt>
      <trkpt lat="37.24993833" lon="-7.085015">
        <ele>58.0</ele>
        <time>2020-01-18T10:12:02.199Z</time>
      </trkpt>
      <trkpt lat="37.24993833" lon="-7.085015">
        <ele>58.0</ele>
        <time>2020-01-18T10:12:03.159Z</time>
      </trkpt>
      <trkpt lat="37.24993833" lon="-7.085015">
        <ele>58.0</ele>
        <time>2020-01-18T10:12:04.135Z</time>
      </trkpt>
      <trkpt lat="37.25004333" lon="-7.08493667">
        <ele>59.0</ele>
        <time>2020-01-18T10:12:05.142Z</time>
      </trkpt>
      <trkpt lat="37.25004333" lon="-7.08493667">
        <ele>59.0</ele>
        <time>2020-01-18T10:12:06.139Z</time>
      </trkpt>
      <trkpt lat="37.25009833" lon="-7.08485167">
        <ele>59.0</ele>
        <time>2020-01-18T10:12:07.161Z</time>
      </trkpt>
      <trkpt lat="37.25014" lon="-7.08481">
        <ele>58.0</ele>
        <time>2020-01-18T10:12:08.158Z</time>
      </trkpt>
      <trkpt lat="37.25014" lon="-7.08481">
        <ele>58.0</ele>
        <time>2020-01-18T10:12:09.132Z</time>
      </trkpt>
      <trkpt lat="37.25023333" lon="-7.08472833">
        <ele>58.0</ele>
        <time>2020-01-18T10:12:10.146Z</time>
      </trkpt>
      <trkpt lat="37.25023333" lon="-7.08472833">
        <ele>58.0</ele>
        <time>2020-01-18T10:12:11.134Z</time>
      </trkpt>
      <trkpt lat="37.25027333" lon="-7.08469833">
        <ele>57.0</ele>
        <time>2020-01-18T10:12:12.138Z</time>
      </trkpt>
      <trkpt lat="37.25035333" lon="-7.08464">
        <ele>57.0</ele>
        <time>2020-01-18T10:12:13.152Z</time>
      </trkpt>
      <trkpt lat="37.25035333" lon="-7.08464">
        <ele>57.0</ele>
        <time>2020-01-18T10:12:14.147Z</time>
      </trkpt>
      <trkpt lat="37.25043833" lon="-7.08459">
        <ele>56.0</ele>
        <time>2020-01-18T10:12:15.155Z</time>
      </trkpt>
      <trkpt lat="37.25043833" lon="-7.08459">
        <ele>56.0</ele>
        <time>2020-01-18T10:12:16.148Z</time>
      </trkpt>
      <trkpt lat="37.250515" lon="-7.08452333">
        <ele>56.0</ele>
        <time>2020-01-18T10:12:17.180Z</time>
      </trkpt>
      <trkpt lat="37.250515" lon="-7.08452333">
        <ele>56.0</ele>
        <time>2020-01-18T10:12:18.150Z</time>
      </trkpt>
      <trkpt lat="37.25059333" lon="-7.084445">
        <ele>55.0</ele>
        <time>2020-01-18T10:12:19.156Z</time>
      </trkpt>
      <trkpt lat="37.25063333" lon="-7.08441">
        <ele>56.0</ele>
        <time>2020-01-18T10:12:20.153Z</time>
      </trkpt>
      <trkpt lat="37.25063333" lon="-7.08441">
        <ele>56.0</ele>
        <time>2020-01-18T10:12:21.139Z</time>
      </trkpt>
      <trkpt lat="37.25071" lon="-7.08434333">
        <ele>56.0</ele>
        <time>2020-01-18T10:12:22.145Z</time>
      </trkpt>
      <trkpt lat="37.25071" lon="-7.08434333">
        <ele>56.0</ele>
        <time>2020-01-18T10:12:23.140Z</time>
      </trkpt>
      <trkpt lat="37.25074667" lon="-7.08431">
        <ele>56.0</ele>
        <time>2020-01-18T10:12:24.130Z</time>
      </trkpt>
      <trkpt lat="37.25074667" lon="-7.08431">
        <ele>56.0</ele>
        <time>2020-01-18T10:12:25.138Z</time>
      </trkpt>
      <trkpt lat="37.25080667" lon="-7.08423833">
        <ele>57.0</ele>
        <time>2020-01-18T10:12:26.162Z</time>
      </trkpt>
      <trkpt lat="37.25080667" lon="-7.08423833">
        <ele>57.0</ele>
        <time>2020-01-18T10:12:27.131Z</time>
      </trkpt>
      <trkpt lat="37.25087333" lon="-7.08417">
        <ele>57.0</ele>
        <time>2020-01-18T10:12:28.132Z</time>
      </trkpt>
      <trkpt lat="37.25091" lon="-7.08413">
        <ele>57.0</ele>
        <time>2020-01-18T10:12:29.140Z</time>
      </trkpt>
      <trkpt lat="37.250985" lon="-7.08404833">
        <ele>57.0</ele>
        <time>2020-01-18T10:12:30.147Z</time>
      </trkpt>
      <trkpt lat="37.250985" lon="-7.08404833">
        <ele>57.0</ele>
        <time>2020-01-18T10:12:31.153Z</time>
      </trkpt>
      <trkpt lat="37.250985" lon="-7.08404833">
        <ele>57.0</ele>
        <time>2020-01-18T10:12:32.132Z</time>
      </trkpt>
      <trkpt lat="37.25107167" lon="-7.08396667">
        <ele>57.0</ele>
        <time>2020-01-18T10:12:33.147Z</time>
      </trkpt>
      <trkpt lat="37.251165" lon="-7.08389333">
        <ele>56.0</ele>
        <time>2020-01-18T10:12:34.153Z</time>
      </trkpt>
      <trkpt lat="37.251165" lon="-7.08389333">
        <ele>56.0</ele>
        <time>2020-01-18T10:12:35.159Z</time>
      </trkpt>
      <trkpt lat="37.25126" lon="-7.083825">
        <ele>55.0</ele>
        <time>2020-01-18T10:12:36.167Z</time>
      </trkpt>
      <trkpt lat="37.25126" lon="-7.083825">
        <ele>55.0</ele>
        <time>2020-01-18T10:12:37.139Z</time>
      </trkpt>
      <trkpt lat="37.25135" lon="-7.08375667">
        <ele>56.0</ele>
        <time>2020-01-18T10:12:38.147Z</time>
      </trkpt>
      <trkpt lat="37.25135" lon="-7.08375667">
        <ele>56.0</ele>
        <time>2020-01-18T10:12:39.150Z</time>
      </trkpt>
      <trkpt lat="37.25142833" lon="-7.08367">
        <ele>55.0</ele>
        <time>2020-01-18T10:12:40.164Z</time>
      </trkpt>
      <trkpt lat="37.25146833" lon="-7.08364333">
        <ele>55.0</ele>
        <time>2020-01-18T10:12:41.147Z</time>
      </trkpt>
      <trkpt lat="37.25146833" lon="-7.08364333">
        <ele>55.0</ele>
        <time>2020-01-18T10:12:42.132Z</time>
      </trkpt>
      <trkpt lat="37.25146833" lon="-7.08364333">
        <ele>55.0</ele>
        <time>2020-01-18T10:12:43.138Z</time>
      </trkpt>
      <trkpt lat="37.25155167" lon="-7.08356">
        <ele>54.0</ele>
        <time>2020-01-18T10:12:44.129Z</time>
      </trkpt>
      <trkpt lat="37.25155167" lon="-7.08356">
        <ele>54.0</ele>
        <time>2020-01-18T10:12:45.136Z</time>
      </trkpt>
      <trkpt lat="37.25162167" lon="-7.08346333">
        <ele>54.0</ele>
        <time>2020-01-18T10:12:46.144Z</time>
      </trkpt>
      <trkpt lat="37.25168667" lon="-7.08336833">
        <ele>53.0</ele>
        <time>2020-01-18T10:12:47.151Z</time>
      </trkpt>
      <trkpt lat="37.25168667" lon="-7.08336833">
        <ele>53.0</ele>
        <time>2020-01-18T10:12:48.147Z</time>
      </trkpt>
      <trkpt lat="37.25175167" lon="-7.08328167">
        <ele>54.0</ele>
        <time>2020-01-18T10:12:49.157Z</time>
      </trkpt>
      <trkpt lat="37.25175167" lon="-7.08328167">
        <ele>54.0</ele>
        <time>2020-01-18T10:12:50.351Z</time>
      </trkpt>
      <trkpt lat="37.25180833" lon="-7.08319333">
        <ele>54.0</ele>
        <time>2020-01-18T10:12:51.140Z</time>
      </trkpt>
      <trkpt lat="37.25180833" lon="-7.08319333">
        <ele>54.0</ele>
        <time>2020-01-18T10:12:52.130Z</time>
      </trkpt>
      <trkpt lat="37.25180833" lon="-7.08319333">
        <ele>54.0</ele>
        <time>2020-01-18T10:12:53.140Z</time>
      </trkpt>
      <trkpt lat="37.25186167" lon="-7.08311333">
        <ele>55.0</ele>
        <time>2020-01-18T10:12:54.139Z</time>
      </trkpt>
      <trkpt lat="37.25192" lon="-7.08303667">
        <ele>55.0</ele>
        <time>2020-01-18T10:12:55.155Z</time>
      </trkpt>
      <trkpt lat="37.25192" lon="-7.08303667">
        <ele>55.0</ele>
        <time>2020-01-18T10:12:56.131Z</time>
      </trkpt>
      <trkpt lat="37.25195667" lon="-7.08300333">
        <ele>56.0</ele>
        <time>2020-01-18T10:12:57.129Z</time>
      </trkpt>
      <trkpt lat="37.25195667" lon="-7.08300333">
        <ele>56.0</ele>
        <time>2020-01-18T10:12:58.138Z</time>
      </trkpt>
      <trkpt lat="37.252035" lon="-7.08294333">
        <ele>56.0</ele>
        <time>2020-01-18T10:12:59.136Z</time>
      </trkpt>
      <trkpt lat="37.252125" lon="-7.08291667">
        <ele>55.0</ele>
        <time>2020-01-18T10:13:00.144Z</time>
      </trkpt>
      <trkpt lat="37.252125" lon="-7.08291667">
        <ele>55.0</ele>
        <time>2020-01-18T10:13:01.129Z</time>
      </trkpt>
      <trkpt lat="37.25221333" lon="-7.08294167">
        <ele>55.0</ele>
        <time>2020-01-18T10:13:02.147Z</time>
      </trkpt>
      <trkpt lat="37.25221333" lon="-7.08294167">
        <ele>55.0</ele>
        <time>2020-01-18T10:13:03.148Z</time>
      </trkpt>
      <trkpt lat="37.25230333" lon="-7.08295333">
        <ele>56.0</ele>
        <time>2020-01-18T10:13:04.155Z</time>
      </trkpt>
      <trkpt lat="37.25230333" lon="-7.08295333">
        <ele>56.0</ele>
        <time>2020-01-18T10:13:05.139Z</time>
      </trkpt>
      <trkpt lat="37.25235333" lon="-7.082945">
        <ele>55.0</ele>
        <time>2020-01-18T10:13:06.157Z</time>
      </trkpt>
      <trkpt lat="37.25245167" lon="-7.08293833">
        <ele>56.0</ele>
        <time>2020-01-18T10:13:07.165Z</time>
      </trkpt>
      <trkpt lat="37.25250333" lon="-7.08293833">
        <ele>56.0</ele>
        <time>2020-01-18T10:13:08.154Z</time>
      </trkpt>
      <trkpt lat="37.25250333" lon="-7.08293833">
        <ele>56.0</ele>
        <time>2020-01-18T10:13:09.133Z</time>
      </trkpt>
      <trkpt lat="37.25250333" lon="-7.08293833">
        <ele>56.0</ele>
        <time>2020-01-18T10:13:10.140Z</time>
      </trkpt>
      <trkpt lat="37.25260833" lon="-7.08294333">
        <ele>56.0</ele>
        <time>2020-01-18T10:13:11.136Z</time>
      </trkpt>
      <trkpt lat="37.2527" lon="-7.08295167">
        <ele>57.0</ele>
        <time>2020-01-18T10:13:12.142Z</time>
      </trkpt>
      <trkpt lat="37.25274" lon="-7.08296667">
        <ele>57.0</ele>
        <time>2020-01-18T10:13:13.217Z</time>
      </trkpt>
      <trkpt lat="37.25274" lon="-7.08296667">
        <ele>57.0</ele>
        <time>2020-01-18T10:13:14.139Z</time>
      </trkpt>
      <trkpt lat="37.25280833" lon="-7.08303667">
        <ele>58.0</ele>
        <time>2020-01-18T10:13:15.146Z</time>
      </trkpt>
      <trkpt lat="37.25280833" lon="-7.08303667">
        <ele>58.0</ele>
        <time>2020-01-18T10:13:16.134Z</time>
      </trkpt>
      <trkpt lat="37.25287167" lon="-7.08310333">
        <ele>59.0</ele>
        <time>2020-01-18T10:13:17.141Z</time>
      </trkpt>
      <trkpt lat="37.25287167" lon="-7.08310333">
        <ele>59.0</ele>
        <time>2020-01-18T10:13:18.130Z</time>
      </trkpt>
      <trkpt lat="37.25290333" lon="-7.08314">
        <ele>60.0</ele>
        <time>2020-01-18T10:13:19.162Z</time>
      </trkpt>
      <trkpt lat="37.25290333" lon="-7.08314">
        <ele>60.0</ele>
        <time>2020-01-18T10:13:20.135Z</time>
      </trkpt>
      <trkpt lat="37.25296167" lon="-7.08321">
        <ele>61.0</ele>
        <time>2020-01-18T10:13:21.131Z</time>
      </trkpt>
      <trkpt lat="37.25296167" lon="-7.08321">
        <ele>61.0</ele>
        <time>2020-01-18T10:13:22.137Z</time>
      </trkpt>
      <trkpt lat="37.25303167" lon="-7.08333833">
        <ele>62.0</ele>
        <time>2020-01-18T10:13:23.164Z</time>
      </trkpt>
      <trkpt lat="37.25303167" lon="-7.08333833">
        <ele>62.0</ele>
        <time>2020-01-18T10:13:24.158Z</time>
      </trkpt>
      <trkpt lat="37.25303167" lon="-7.08333833">
        <ele>62.0</ele>
        <time>2020-01-18T10:13:25.132Z</time>
      </trkpt>
      <trkpt lat="37.25306833" lon="-7.08344167">
        <ele>62.0</ele>
        <time>2020-01-18T10:13:26.159Z</time>
      </trkpt>
      <trkpt lat="37.25306833" lon="-7.08344167">
        <ele>62.0</ele>
        <time>2020-01-18T10:13:27.133Z</time>
      </trkpt>
      <trkpt lat="37.25310167" lon="-7.083555">
        <ele>63.0</ele>
        <time>2020-01-18T10:13:28.161Z</time>
      </trkpt>
      <trkpt lat="37.25313167" lon="-7.08367">
        <ele>63.0</ele>
        <time>2020-01-18T10:13:29.172Z</time>
      </trkpt>
      <trkpt lat="37.25313167" lon="-7.08367">
        <ele>63.0</ele>
        <time>2020-01-18T10:13:30.147Z</time>
      </trkpt>
      <trkpt lat="37.25317667" lon="-7.08378">
        <ele>64.0</ele>
        <time>2020-01-18T10:13:31.153Z</time>
      </trkpt>
      <trkpt lat="37.25317667" lon="-7.08378">
        <ele>64.0</ele>
        <time>2020-01-18T10:13:32.130Z</time>
      </trkpt>
      <trkpt lat="37.25317667" lon="-7.08378">
        <ele>64.0</ele>
        <time>2020-01-18T10:13:33.138Z</time>
      </trkpt>
      <trkpt lat="37.25323833" lon="-7.08387167">
        <ele>64.0</ele>
        <time>2020-01-18T10:13:34.168Z</time>
      </trkpt>
      <trkpt lat="37.25323833" lon="-7.08387167">
        <ele>64.0</ele>
        <time>2020-01-18T10:13:35.134Z</time>
      </trkpt>
      <trkpt lat="37.25332333" lon="-7.08392667">
        <ele>65.0</ele>
        <time>2020-01-18T10:13:36.131Z</time>
      </trkpt>
      <trkpt lat="37.25332333" lon="-7.08392667">
        <ele>65.0</ele>
        <time>2020-01-18T10:13:37.138Z</time>
      </trkpt>
      <trkpt lat="37.25347667" lon="-7.08394333">
        <ele>65.0</ele>
        <time>2020-01-18T10:13:38.153Z</time>
      </trkpt>
      <trkpt lat="37.25347667" lon="-7.08394333">
        <ele>65.0</ele>
        <time>2020-01-18T10:13:39.142Z</time>
      </trkpt>
      <trkpt lat="37.25358833" lon="-7.08395167">
        <ele>65.0</ele>
        <time>2020-01-18T10:13:40.155Z</time>
      </trkpt>
      <trkpt lat="37.25364333" lon="-7.08396333">
        <ele>65.0</ele>
        <time>2020-01-18T10:13:41.154Z</time>
      </trkpt>
      <trkpt lat="37.25370333" lon="-7.08397667">
        <ele>65.0</ele>
        <time>2020-01-18T10:13:42.154Z</time>
      </trkpt>
      <trkpt lat="37.25370333" lon="-7.08397667">
        <ele>65.0</ele>
        <time>2020-01-18T10:13:43.136Z</time>
      </trkpt>
      <trkpt lat="37.25381667" lon="-7.08397667">
        <ele>64.0</ele>
        <time>2020-01-18T10:13:44.158Z</time>
      </trkpt>
      <trkpt lat="37.25387167" lon="-7.08397833">
        <ele>65.0</ele>
        <time>2020-01-18T10:13:45.156Z</time>
      </trkpt>
      <trkpt lat="37.25387167" lon="-7.08397833">
        <ele>65.0</ele>
        <time>2020-01-18T10:13:46.150Z</time>
      </trkpt>
      <trkpt lat="37.253975" lon="-7.08398833">
        <ele>65.0</ele>
        <time>2020-01-18T10:13:47.164Z</time>
      </trkpt>
      <trkpt lat="37.253975" lon="-7.08398833">
        <ele>65.0</ele>
        <time>2020-01-18T10:13:48.148Z</time>
      </trkpt>
      <trkpt lat="37.25408167" lon="-7.084">
        <ele>65.0</ele>
        <time>2020-01-18T10:13:49.155Z</time>
      </trkpt>
      <trkpt lat="37.25413333" lon="-7.084">
        <ele>65.0</ele>
        <time>2020-01-18T10:13:50.170Z</time>
      </trkpt>
      <trkpt lat="37.25413333" lon="-7.084">
        <ele>65.0</ele>
        <time>2020-01-18T10:13:51.156Z</time>
      </trkpt>
      <trkpt lat="37.25424" lon="-7.08399167">
        <ele>64.0</ele>
        <time>2020-01-18T10:13:52.198Z</time>
      </trkpt>
      <trkpt lat="37.25429667" lon="-7.08399333">
        <ele>63.0</ele>
        <time>2020-01-18T10:13:53.159Z</time>
      </trkpt>
      <trkpt lat="37.25429667" lon="-7.08399333">
        <ele>63.0</ele>
        <time>2020-01-18T10:13:54.159Z</time>
      </trkpt>
      <trkpt lat="37.25429667" lon="-7.08399333">
        <ele>63.0</ele>
        <time>2020-01-18T10:13:55.135Z</time>
      </trkpt>
      <trkpt lat="37.25439833" lon="-7.084005">
        <ele>63.0</ele>
        <time>2020-01-18T10:13:56.151Z</time>
      </trkpt>
      <trkpt lat="37.25448333" lon="-7.08401833">
        <ele>63.0</ele>
        <time>2020-01-18T10:13:57.157Z</time>
      </trkpt>
      <trkpt lat="37.25448333" lon="-7.08401833">
        <ele>63.0</ele>
        <time>2020-01-18T10:13:58.132Z</time>
      </trkpt>
      <trkpt lat="37.254565" lon="-7.08402167">
        <ele>63.0</ele>
        <time>2020-01-18T10:13:59.165Z</time>
      </trkpt>
      <trkpt lat="37.25460333" lon="-7.08402">
        <ele>64.0</ele>
        <time>2020-01-18T10:14:00.148Z</time>
      </trkpt>
      <trkpt lat="37.25460333" lon="-7.08402">
        <ele>64.0</ele>
        <time>2020-01-18T10:14:01.159Z</time>
      </trkpt>
      <trkpt lat="37.254685" lon="-7.08401833">
        <ele>63.0</ele>
        <time>2020-01-18T10:14:02.168Z</time>
      </trkpt>
      <trkpt lat="37.254685" lon="-7.08401833">
        <ele>63.0</ele>
        <time>2020-01-18T10:14:03.140Z</time>
      </trkpt>
      <trkpt lat="37.25476667" lon="-7.08401833">
        <ele>65.0</ele>
        <time>2020-01-18T10:14:04.149Z</time>
      </trkpt>
      <trkpt lat="37.25476667" lon="-7.08401833">
        <ele>65.0</ele>
        <time>2020-01-18T10:14:05.142Z</time>
      </trkpt>
      <trkpt lat="37.25481167" lon="-7.08402333">
        <ele>65.0</ele>
        <time>2020-01-18T10:14:06.130Z</time>
      </trkpt>
      <trkpt lat="37.25490833" lon="-7.08403667">
        <ele>65.0</ele>
        <time>2020-01-18T10:14:07.141Z</time>
      </trkpt>
      <trkpt lat="37.25490833" lon="-7.08403667">
        <ele>65.0</ele>
        <time>2020-01-18T10:14:08.147Z</time>
      </trkpt>
      <trkpt lat="37.25500333" lon="-7.08406167">
        <ele>64.0</ele>
        <time>2020-01-18T10:14:09.170Z</time>
      </trkpt>
      <trkpt lat="37.25505" lon="-7.08407333">
        <ele>64.0</ele>
        <time>2020-01-18T10:14:10.161Z</time>
      </trkpt>
      <trkpt lat="37.25505" lon="-7.08407333">
        <ele>64.0</ele>
        <time>2020-01-18T10:14:11.132Z</time>
      </trkpt>
      <trkpt lat="37.255095" lon="-7.084085">
        <ele>63.0</ele>
        <time>2020-01-18T10:14:12.134Z</time>
      </trkpt>
      <trkpt lat="37.25519833" lon="-7.084095">
        <ele>63.0</ele>
        <time>2020-01-18T10:14:13.144Z</time>
      </trkpt>
      <trkpt lat="37.25524667" lon="-7.08410667">
        <ele>63.0</ele>
        <time>2020-01-18T10:14:14.155Z</time>
      </trkpt>
      <trkpt lat="37.25524667" lon="-7.08410667">
        <ele>63.0</ele>
        <time>2020-01-18T10:14:15.161Z</time>
      </trkpt>
      <trkpt lat="37.25524667" lon="-7.08410667">
        <ele>63.0</ele>
        <time>2020-01-18T10:14:16.129Z</time>
      </trkpt>
      <trkpt lat="37.25539167" lon="-7.08413167">
        <ele>63.0</ele>
        <time>2020-01-18T10:14:17.160Z</time>
      </trkpt>
      <trkpt lat="37.25539167" lon="-7.08413167">
        <ele>63.0</ele>
        <time>2020-01-18T10:14:18.129Z</time>
      </trkpt>
      <trkpt lat="37.25539167" lon="-7.08413167">
        <ele>63.0</ele>
        <time>2020-01-18T10:14:19.139Z</time>
      </trkpt>
      <trkpt lat="37.25549833" lon="-7.08415333">
        <ele>62.0</ele>
        <time>2020-01-18T10:14:20.136Z</time>
      </trkpt>
      <trkpt lat="37.255605" lon="-7.084165">
        <ele>63.0</ele>
        <time>2020-01-18T10:14:21.158Z</time>
      </trkpt>
      <trkpt lat="37.255665" lon="-7.08417167">
        <ele>63.0</ele>
        <time>2020-01-18T10:14:22.149Z</time>
      </trkpt>
      <trkpt lat="37.25572333" lon="-7.084175">
        <ele>63.0</ele>
        <time>2020-01-18T10:14:23.163Z</time>
      </trkpt>
      <trkpt lat="37.25572333" lon="-7.084175">
        <ele>63.0</ele>
        <time>2020-01-18T10:14:24.139Z</time>
      </trkpt>
      <trkpt lat="37.25584167" lon="-7.08417333">
        <ele>62.0</ele>
        <time>2020-01-18T10:14:25.147Z</time>
      </trkpt>
      <trkpt lat="37.25584167" lon="-7.08417333">
        <ele>62.0</ele>
        <time>2020-01-18T10:14:26.130Z</time>
      </trkpt>
      <trkpt lat="37.25584167" lon="-7.08417333">
        <ele>62.0</ele>
        <time>2020-01-18T10:14:27.137Z</time>
      </trkpt>
      <trkpt lat="37.25596333" lon="-7.08418167">
        <ele>59.0</ele>
        <time>2020-01-18T10:14:28.133Z</time>
      </trkpt>
      <trkpt lat="37.25596333" lon="-7.08418167">
        <ele>59.0</ele>
        <time>2020-01-18T10:14:29.148Z</time>
      </trkpt>
      <trkpt lat="37.25607167" lon="-7.08418833">
        <ele>59.0</ele>
        <time>2020-01-18T10:14:30.139Z</time>
      </trkpt>
      <trkpt lat="37.256165" lon="-7.084175">
        <ele>60.0</ele>
        <time>2020-01-18T10:14:31.148Z</time>
      </trkpt>
      <trkpt lat="37.256165" lon="-7.084175">
        <ele>60.0</ele>
        <time>2020-01-18T10:14:32.178Z</time>
      </trkpt>
      <trkpt lat="37.25625833" lon="-7.08414">
        <ele>60.0</ele>
        <time>2020-01-18T10:14:33.154Z</time>
      </trkpt>
      <trkpt lat="37.25629833" lon="-7.084115">
        <ele>60.0</ele>
        <time>2020-01-18T10:14:34.166Z</time>
      </trkpt>
      <trkpt lat="37.25629833" lon="-7.084115">
        <ele>60.0</ele>
        <time>2020-01-18T10:14:35.135Z</time>
      </trkpt>
      <trkpt lat="37.25634333" lon="-7.08408833">
        <ele>60.0</ele>
        <time>2020-01-18T10:14:36.159Z</time>
      </trkpt>
      <trkpt lat="37.25634333" lon="-7.08408833">
        <ele>60.0</ele>
        <time>2020-01-18T10:14:37.130Z</time>
      </trkpt>
      <trkpt lat="37.25647167" lon="-7.08401">
        <ele>60.0</ele>
        <time>2020-01-18T10:14:38.153Z</time>
      </trkpt>
      <trkpt lat="37.25647167" lon="-7.08401">
        <ele>60.0</ele>
        <time>2020-01-18T10:14:39.156Z</time>
      </trkpt>
      <trkpt lat="37.25655167" lon="-7.08394333">
        <ele>59.0</ele>
        <time>2020-01-18T10:14:40.188Z</time>
      </trkpt>
      <trkpt lat="37.25655167" lon="-7.08394333">
        <ele>59.0</ele>
        <time>2020-01-18T10:14:41.130Z</time>
      </trkpt>
      <trkpt lat="37.25655167" lon="-7.08394333">
        <ele>59.0</ele>
        <time>2020-01-18T10:14:42.139Z</time>
      </trkpt>
      <trkpt lat="37.256695" lon="-7.08386333">
        <ele>59.0</ele>
        <time>2020-01-18T10:14:43.159Z</time>
      </trkpt>
      <trkpt lat="37.256695" lon="-7.08386333">
        <ele>59.0</ele>
        <time>2020-01-18T10:14:44.129Z</time>
      </trkpt>
      <trkpt lat="37.256695" lon="-7.08386333">
        <ele>59.0</ele>
        <time>2020-01-18T10:14:45.138Z</time>
      </trkpt>
      <trkpt lat="37.25678833" lon="-7.08380167">
        <ele>59.0</ele>
        <time>2020-01-18T10:14:46.135Z</time>
      </trkpt>
      <trkpt lat="37.25682333" lon="-7.08375167">
        <ele>59.0</ele>
        <time>2020-01-18T10:14:47.129Z</time>
      </trkpt>
      <trkpt lat="37.25688667" lon="-7.08363167">
        <ele>58.0</ele>
        <time>2020-01-18T10:14:48.161Z</time>
      </trkpt>
      <trkpt lat="37.25688667" lon="-7.08363167">
        <ele>58.0</ele>
        <time>2020-01-18T10:14:49.130Z</time>
      </trkpt>
      <trkpt lat="37.25688667" lon="-7.08363167">
        <ele>58.0</ele>
        <time>2020-01-18T10:14:50.135Z</time>
      </trkpt>
      <trkpt lat="37.25693167" lon="-7.08352667">
        <ele>59.0</ele>
        <time>2020-01-18T10:14:51.132Z</time>
      </trkpt>
      <trkpt lat="37.25693167" lon="-7.08352667">
        <ele>59.0</ele>
        <time>2020-01-18T10:14:52.137Z</time>
      </trkpt>
      <trkpt lat="37.256995" lon="-7.083385">
        <ele>59.0</ele>
        <time>2020-01-18T10:14:53.169Z</time>
      </trkpt>
      <trkpt lat="37.256995" lon="-7.083385">
        <ele>59.0</ele>
        <time>2020-01-18T10:14:54.141Z</time>
      </trkpt>
      <trkpt lat="37.25704333" lon="-7.0833">
        <ele>59.0</ele>
        <time>2020-01-18T10:14:55.152Z</time>
      </trkpt>
      <trkpt lat="37.25704333" lon="-7.0833">
        <ele>59.0</ele>
        <time>2020-01-18T10:14:56.131Z</time>
      </trkpt>
      <trkpt lat="37.25708" lon="-7.08322167">
        <ele>59.0</ele>
        <time>2020-01-18T10:14:57.144Z</time>
      </trkpt>
      <trkpt lat="37.25708" lon="-7.08322167">
        <ele>59.0</ele>
        <time>2020-01-18T10:14:58.313Z</time>
      </trkpt>
      <trkpt lat="37.25708" lon="-7.08322167">
        <ele>59.0</ele>
        <time>2020-01-18T10:14:59.144Z</time>
      </trkpt>
      <trkpt lat="37.25712833" lon="-7.083135">
        <ele>59.0</ele>
        <time>2020-01-18T10:15:00.164Z</time>
      </trkpt>
      <trkpt lat="37.25712833" lon="-7.083135">
        <ele>59.0</ele>
        <time>2020-01-18T10:15:01.134Z</time>
      </trkpt>
      <trkpt lat="37.25717167" lon="-7.08305">
        <ele>59.0</ele>
        <time>2020-01-18T10:15:02.152Z</time>
      </trkpt>
      <trkpt lat="37.25722" lon="-7.08298333">
        <ele>59.0</ele>
        <time>2020-01-18T10:15:03.160Z</time>
      </trkpt>
      <trkpt lat="37.25722" lon="-7.08298333">
        <ele>59.0</ele>
        <time>2020-01-18T10:15:04.142Z</time>
      </trkpt>
      <trkpt lat="37.25725167" lon="-7.082955">
        <ele>59.0</ele>
        <time>2020-01-18T10:15:05.165Z</time>
      </trkpt>
      <trkpt lat="37.25725167" lon="-7.082955">
        <ele>59.0</ele>
        <time>2020-01-18T10:15:06.132Z</time>
      </trkpt>
      <trkpt lat="37.25733" lon="-7.08288">
        <ele>60.0</ele>
        <time>2020-01-18T10:15:07.134Z</time>
      </trkpt>
      <trkpt lat="37.25735667" lon="-7.08285833">
        <ele>60.0</ele>
        <time>2020-01-18T10:15:08.158Z</time>
      </trkpt>
      <trkpt lat="37.25738333" lon="-7.08283">
        <ele>60.0</ele>
        <time>2020-01-18T10:15:09.163Z</time>
      </trkpt>
      <trkpt lat="37.25738333" lon="-7.08283">
        <ele>60.0</ele>
        <time>2020-01-18T10:15:10.129Z</time>
      </trkpt>
      <trkpt lat="37.25741" lon="-7.08280167">
        <ele>60.0</ele>
        <time>2020-01-18T10:15:11.132Z</time>
      </trkpt>
      <trkpt lat="37.25747167" lon="-7.08274">
        <ele>60.0</ele>
        <time>2020-01-18T10:15:12.159Z</time>
      </trkpt>
      <trkpt lat="37.25747167" lon="-7.08274">
        <ele>60.0</ele>
        <time>2020-01-18T10:15:13.131Z</time>
      </trkpt>
      <trkpt lat="37.25747167" lon="-7.08274">
        <ele>60.0</ele>
        <time>2020-01-18T10:15:14.140Z</time>
      </trkpt>
      <trkpt lat="37.25756167" lon="-7.08261">
        <ele>61.0</ele>
        <time>2020-01-18T10:15:15.156Z</time>
      </trkpt>
      <trkpt lat="37.25756167" lon="-7.08261">
        <ele>61.0</ele>
        <time>2020-01-18T10:15:16.161Z</time>
      </trkpt>
      <trkpt lat="37.25756167" lon="-7.08261">
        <ele>61.0</ele>
        <time>2020-01-18T10:15:17.131Z</time>
      </trkpt>
      <trkpt lat="37.257625" lon="-7.08254">
        <ele>61.0</ele>
        <time>2020-01-18T10:15:18.131Z</time>
      </trkpt>
      <trkpt lat="37.257625" lon="-7.08254">
        <ele>61.0</ele>
        <time>2020-01-18T10:15:19.150Z</time>
      </trkpt>
      <trkpt lat="37.25768167" lon="-7.08246833">
        <ele>61.0</ele>
        <time>2020-01-18T10:15:20.132Z</time>
      </trkpt>
      <trkpt lat="37.25768167" lon="-7.08246833">
        <ele>61.0</ele>
        <time>2020-01-18T10:15:21.141Z</time>
      </trkpt>
      <trkpt lat="37.25773333" lon="-7.082395">
        <ele>61.0</ele>
        <time>2020-01-18T10:15:22.142Z</time>
      </trkpt>
      <trkpt lat="37.25777667" lon="-7.08230833">
        <ele>60.0</ele>
        <time>2020-01-18T10:15:23.178Z</time>
      </trkpt>
      <trkpt lat="37.25777667" lon="-7.08230833">
        <ele>60.0</ele>
        <time>2020-01-18T10:15:24.129Z</time>
      </trkpt>
      <trkpt lat="37.25777667" lon="-7.08230833">
        <ele>60.0</ele>
        <time>2020-01-18T10:15:25.137Z</time>
      </trkpt>
      <trkpt lat="37.25784167" lon="-7.08216333">
        <ele>61.0</ele>
        <time>2020-01-18T10:15:26.157Z</time>
      </trkpt>
      <trkpt lat="37.25784167" lon="-7.08216333">
        <ele>61.0</ele>
        <time>2020-01-18T10:15:27.159Z</time>
      </trkpt>
      <trkpt lat="37.25784167" lon="-7.08216333">
        <ele>61.0</ele>
        <time>2020-01-18T10:15:28.131Z</time>
      </trkpt>
      <trkpt lat="37.25789333" lon="-7.08205333">
        <ele>61.0</ele>
        <time>2020-01-18T10:15:29.129Z</time>
      </trkpt>
      <trkpt lat="37.25789333" lon="-7.08205333">
        <ele>61.0</ele>
        <time>2020-01-18T10:15:30.133Z</time>
      </trkpt>
      <trkpt lat="37.25794333" lon="-7.08194833">
        <ele>61.0</ele>
        <time>2020-01-18T10:15:31.137Z</time>
      </trkpt>
      <trkpt lat="37.25798" lon="-7.081845">
        <ele>62.0</ele>
        <time>2020-01-18T10:15:32.154Z</time>
      </trkpt>
      <trkpt lat="37.25798" lon="-7.081845">
        <ele>62.0</ele>
        <time>2020-01-18T10:15:33.139Z</time>
      </trkpt>
      <trkpt lat="37.25800833" lon="-7.08174167">
        <ele>63.0</ele>
        <time>2020-01-18T10:15:34.146Z</time>
      </trkpt>
      <trkpt lat="37.25800833" lon="-7.08174167">
        <ele>63.0</ele>
        <time>2020-01-18T10:15:35.139Z</time>
      </trkpt>
      <trkpt lat="37.25803" lon="-7.08163">
        <ele>62.0</ele>
        <time>2020-01-18T10:15:36.145Z</time>
      </trkpt>
      <trkpt lat="37.25803" lon="-7.08163">
        <ele>62.0</ele>
        <time>2020-01-18T10:15:37.131Z</time>
      </trkpt>
      <trkpt lat="37.25803667" lon="-7.081525">
        <ele>62.0</ele>
        <time>2020-01-18T10:15:38.138Z</time>
      </trkpt>
      <trkpt lat="37.25803667" lon="-7.081525">
        <ele>62.0</ele>
        <time>2020-01-18T10:15:39.129Z</time>
      </trkpt>
      <trkpt lat="37.25803667" lon="-7.081525">
        <ele>62.0</ele>
        <time>2020-01-18T10:15:40.135Z</time>
      </trkpt>
      <trkpt lat="37.258045" lon="-7.08142333">
        <ele>62.0</ele>
        <time>2020-01-18T10:15:41.129Z</time>
      </trkpt>
      <trkpt lat="37.25804167" lon="-7.08136667">
        <ele>63.0</ele>
        <time>2020-01-18T10:15:42.164Z</time>
      </trkpt>
      <trkpt lat="37.25804167" lon="-7.08136667">
        <ele>63.0</ele>
        <time>2020-01-18T10:15:43.132Z</time>
      </trkpt>
      <trkpt lat="37.25803" lon="-7.081245">
        <ele>64.0</ele>
        <time>2020-01-18T10:15:44.140Z</time>
      </trkpt>
      <trkpt lat="37.25803167" lon="-7.08118">
        <ele>64.0</ele>
        <time>2020-01-18T10:15:45.138Z</time>
      </trkpt>
      <trkpt lat="37.258025" lon="-7.081035">
        <ele>64.0</ele>
        <time>2020-01-18T10:15:46.150Z</time>
      </trkpt>
      <trkpt lat="37.258025" lon="-7.081035">
        <ele>64.0</ele>
        <time>2020-01-18T10:15:47.132Z</time>
      </trkpt>
      <trkpt lat="37.25802667" lon="-7.08096667">
        <ele>65.0</ele>
        <time>2020-01-18T10:15:48.149Z</time>
      </trkpt>
      <trkpt lat="37.25804333" lon="-7.08083167">
        <ele>66.0</ele>
        <time>2020-01-18T10:15:49.157Z</time>
      </trkpt>
      <trkpt lat="37.25804333" lon="-7.08083167">
        <ele>66.0</ele>
        <time>2020-01-18T10:15:50.132Z</time>
      </trkpt>
      <trkpt lat="37.25805167" lon="-7.080765">
        <ele>66.0</ele>
        <time>2020-01-18T10:15:51.131Z</time>
      </trkpt>
      <trkpt lat="37.25806167" lon="-7.08063833">
        <ele>67.0</ele>
        <time>2020-01-18T10:15:52.141Z</time>
      </trkpt>
      <trkpt lat="37.25806167" lon="-7.08063833">
        <ele>67.0</ele>
        <time>2020-01-18T10:15:53.165Z</time>
      </trkpt>
      <trkpt lat="37.25806167" lon="-7.08063833">
        <ele>67.0</ele>
        <time>2020-01-18T10:15:54.133Z</time>
      </trkpt>
      <trkpt lat="37.25805" lon="-7.0805">
        <ele>67.0</ele>
        <time>2020-01-18T10:15:55.132Z</time>
      </trkpt>
      <trkpt lat="37.25805" lon="-7.0805">
        <ele>67.0</ele>
        <time>2020-01-18T10:15:56.138Z</time>
      </trkpt>
      <trkpt lat="37.25804" lon="-7.08036">
        <ele>66.0</ele>
        <time>2020-01-18T10:15:57.131Z</time>
      </trkpt>
      <trkpt lat="37.25803167" lon="-7.080295">
        <ele>67.0</ele>
        <time>2020-01-18T10:15:58.138Z</time>
      </trkpt>
      <trkpt lat="37.25803" lon="-7.08016667">
        <ele>67.0</ele>
        <time>2020-01-18T10:15:59.144Z</time>
      </trkpt>
      <trkpt lat="37.25803" lon="-7.08016667">
        <ele>67.0</ele>
        <time>2020-01-18T10:16:00.156Z</time>
      </trkpt>
      <trkpt lat="37.25804333" lon="-7.08004333">
        <ele>67.0</ele>
        <time>2020-01-18T10:16:01.168Z</time>
      </trkpt>
      <trkpt lat="37.25804333" lon="-7.08004333">
        <ele>67.0</ele>
        <time>2020-01-18T10:16:02.131Z</time>
      </trkpt>
      <trkpt lat="37.25804333" lon="-7.08004333">
        <ele>67.0</ele>
        <time>2020-01-18T10:16:03.137Z</time>
      </trkpt>
      <trkpt lat="37.25805" lon="-7.07992833">
        <ele>66.0</ele>
        <time>2020-01-18T10:16:04.133Z</time>
      </trkpt>
      <trkpt lat="37.25806333" lon="-7.07981">
        <ele>66.0</ele>
        <time>2020-01-18T10:16:05.142Z</time>
      </trkpt>
      <trkpt lat="37.25806333" lon="-7.07981">
        <ele>66.0</ele>
        <time>2020-01-18T10:16:06.148Z</time>
      </trkpt>
      <trkpt lat="37.258095" lon="-7.07969">
        <ele>66.0</ele>
        <time>2020-01-18T10:16:07.154Z</time>
      </trkpt>
      <trkpt lat="37.258115" lon="-7.07963333">
        <ele>65.0</ele>
        <time>2020-01-18T10:16:08.220Z</time>
      </trkpt>
      <trkpt lat="37.258115" lon="-7.07963333">
        <ele>65.0</ele>
        <time>2020-01-18T10:16:09.129Z</time>
      </trkpt>
      <trkpt lat="37.258115" lon="-7.07963333">
        <ele>65.0</ele>
        <time>2020-01-18T10:16:10.136Z</time>
      </trkpt>
      <trkpt lat="37.25817167" lon="-7.079525">
        <ele>64.0</ele>
        <time>2020-01-18T10:16:11.143Z</time>
      </trkpt>
      <trkpt lat="37.25820333" lon="-7.07947333">
        <ele>64.0</ele>
        <time>2020-01-18T10:16:12.139Z</time>
      </trkpt>
      <trkpt lat="37.25827667" lon="-7.07938">
        <ele>64.0</ele>
        <time>2020-01-18T10:16:13.145Z</time>
      </trkpt>
      <trkpt lat="37.25831" lon="-7.07933667">
        <ele>64.0</ele>
        <time>2020-01-18T10:16:14.152Z</time>
      </trkpt>
      <trkpt lat="37.25831" lon="-7.07933667">
        <ele>64.0</ele>
        <time>2020-01-18T10:16:15.148Z</time>
      </trkpt>
      <trkpt lat="37.25839833" lon="-7.07923667">
        <ele>64.0</ele>
        <time>2020-01-18T10:16:16.200Z</time>
      </trkpt>
      <trkpt lat="37.25839833" lon="-7.07923667">
        <ele>64.0</ele>
        <time>2020-01-18T10:16:17.131Z</time>
      </trkpt>
      <trkpt lat="37.25845333" lon="-7.07918333">
        <ele>63.0</ele>
        <time>2020-01-18T10:16:18.139Z</time>
      </trkpt>
      <trkpt lat="37.25855333" lon="-7.07909333">
        <ele>63.0</ele>
        <time>2020-01-18T10:16:19.155Z</time>
      </trkpt>
      <trkpt lat="37.25855333" lon="-7.07909333">
        <ele>63.0</ele>
        <time>2020-01-18T10:16:20.159Z</time>
      </trkpt>
      <trkpt lat="37.25855333" lon="-7.07909333">
        <ele>63.0</ele>
        <time>2020-01-18T10:16:21.130Z</time>
      </trkpt>
      <trkpt lat="37.25870833" lon="-7.07896667">
        <ele>62.0</ele>
        <time>2020-01-18T10:16:22.162Z</time>
      </trkpt>
      <trkpt lat="37.25870833" lon="-7.07896667">
        <ele>62.0</ele>
        <time>2020-01-18T10:16:23.129Z</time>
      </trkpt>
      <trkpt lat="37.25870833" lon="-7.07896667">
        <ele>62.0</ele>
        <time>2020-01-18T10:16:24.145Z</time>
      </trkpt>
      <trkpt lat="37.25882" lon="-7.07888833">
        <ele>62.0</ele>
        <time>2020-01-18T10:16:25.159Z</time>
      </trkpt>
      <trkpt lat="37.25882" lon="-7.07888833">
        <ele>62.0</ele>
        <time>2020-01-18T10:16:26.133Z</time>
      </trkpt>
      <trkpt lat="37.25892833" lon="-7.07883833">
        <ele>62.0</ele>
        <time>2020-01-18T10:16:27.145Z</time>
      </trkpt>
      <trkpt lat="37.25903333" lon="-7.07882167">
        <ele>62.0</ele>
        <time>2020-01-18T10:16:28.158Z</time>
      </trkpt>
      <trkpt lat="37.259085" lon="-7.078825">
        <ele>62.0</ele>
        <time>2020-01-18T10:16:29.144Z</time>
      </trkpt>
      <trkpt lat="37.259085" lon="-7.078825">
        <ele>62.0</ele>
        <time>2020-01-18T10:16:30.149Z</time>
      </trkpt>
      <trkpt lat="37.25918333" lon="-7.07885333">
        <ele>63.0</ele>
        <time>2020-01-18T10:16:31.159Z</time>
      </trkpt>
      <trkpt lat="37.25922667" lon="-7.078875">
        <ele>63.0</ele>
        <time>2020-01-18T10:16:32.148Z</time>
      </trkpt>
      <trkpt lat="37.25922667" lon="-7.078875">
        <ele>63.0</ele>
        <time>2020-01-18T10:16:33.146Z</time>
      </trkpt>
      <trkpt lat="37.25931833" lon="-7.07891667">
        <ele>64.0</ele>
        <time>2020-01-18T10:16:34.153Z</time>
      </trkpt>
      <trkpt lat="37.25931833" lon="-7.07891667">
        <ele>64.0</ele>
        <time>2020-01-18T10:16:35.139Z</time>
      </trkpt>
      <trkpt lat="37.25942167" lon="-7.07895333">
        <ele>64.0</ele>
        <time>2020-01-18T10:16:36.175Z</time>
      </trkpt>
      <trkpt lat="37.25942167" lon="-7.07895333">
        <ele>64.0</ele>
        <time>2020-01-18T10:16:37.138Z</time>
      </trkpt>
      <trkpt lat="37.25947" lon="-7.078975">
        <ele>65.0</ele>
        <time>2020-01-18T10:16:38.142Z</time>
      </trkpt>
      <trkpt lat="37.25947" lon="-7.078975">
        <ele>65.0</ele>
        <time>2020-01-18T10:16:39.149Z</time>
      </trkpt>
      <trkpt lat="37.25956833" lon="-7.079025">
        <ele>65.0</ele>
        <time>2020-01-18T10:16:40.149Z</time>
      </trkpt>
      <trkpt lat="37.25966333" lon="-7.07906333">
        <ele>66.0</ele>
        <time>2020-01-18T10:16:41.155Z</time>
      </trkpt>
      <trkpt lat="37.25966333" lon="-7.07906333">
        <ele>66.0</ele>
        <time>2020-01-18T10:16:42.135Z</time>
      </trkpt>
      <trkpt lat="37.25975667" lon="-7.079085">
        <ele>67.0</ele>
        <time>2020-01-18T10:16:43.141Z</time>
      </trkpt>
      <trkpt lat="37.25975667" lon="-7.079085">
        <ele>67.0</ele>
        <time>2020-01-18T10:16:44.132Z</time>
      </trkpt>
      <trkpt lat="37.25980667" lon="-7.07909333">
        <ele>67.0</ele>
        <time>2020-01-18T10:16:45.133Z</time>
      </trkpt>
      <trkpt lat="37.25980667" lon="-7.07909333">
        <ele>67.0</ele>
        <time>2020-01-18T10:16:46.140Z</time>
      </trkpt>
      <trkpt lat="37.25996333" lon="-7.07911667">
        <ele>68.0</ele>
        <time>2020-01-18T10:16:47.185Z</time>
      </trkpt>
      <trkpt lat="37.25996333" lon="-7.07911667">
        <ele>68.0</ele>
        <time>2020-01-18T10:16:48.131Z</time>
      </trkpt>
      <trkpt lat="37.25996333" lon="-7.07911667">
        <ele>68.0</ele>
        <time>2020-01-18T10:16:49.137Z</time>
      </trkpt>
      <trkpt lat="37.26012" lon="-7.07914333">
        <ele>68.0</ele>
        <time>2020-01-18T10:16:50.156Z</time>
      </trkpt>
      <trkpt lat="37.26012" lon="-7.07914333">
        <ele>68.0</ele>
        <time>2020-01-18T10:16:51.162Z</time>
      </trkpt>
      <trkpt lat="37.26012" lon="-7.07914333">
        <ele>68.0</ele>
        <time>2020-01-18T10:16:52.130Z</time>
      </trkpt>
      <trkpt lat="37.26027" lon="-7.07918667">
        <ele>68.0</ele>
        <time>2020-01-18T10:16:53.151Z</time>
      </trkpt>
      <trkpt lat="37.26027" lon="-7.07918667">
        <ele>68.0</ele>
        <time>2020-01-18T10:16:54.139Z</time>
      </trkpt>
      <trkpt lat="37.26038667" lon="-7.07921667">
        <ele>68.0</ele>
        <time>2020-01-18T10:16:55.150Z</time>
      </trkpt>
      <trkpt lat="37.26038667" lon="-7.07921667">
        <ele>68.0</ele>
        <time>2020-01-18T10:16:56.136Z</time>
      </trkpt>
      <trkpt lat="37.26038667" lon="-7.07921667">
        <ele>68.0</ele>
        <time>2020-01-18T10:16:57.142Z</time>
      </trkpt>
      <trkpt lat="37.2605" lon="-7.07923667">
        <ele>69.0</ele>
        <time>2020-01-18T10:16:58.138Z</time>
      </trkpt>
      <trkpt lat="37.26055667" lon="-7.07924667">
        <ele>69.0</ele>
        <time>2020-01-18T10:16:59.142Z</time>
      </trkpt>
      <trkpt lat="37.26067167" lon="-7.07927">
        <ele>69.0</ele>
        <time>2020-01-18T10:17:00.158Z</time>
      </trkpt>
      <trkpt lat="37.26067167" lon="-7.07927">
        <ele>69.0</ele>
        <time>2020-01-18T10:17:01.129Z</time>
      </trkpt>
      <trkpt lat="37.26067167" lon="-7.07927">
        <ele>69.0</ele>
        <time>2020-01-18T10:17:02.138Z</time>
      </trkpt>
      <trkpt lat="37.26078167" lon="-7.07928667">
        <ele>69.0</ele>
        <time>2020-01-18T10:17:03.156Z</time>
      </trkpt>
      <trkpt lat="37.26088" lon="-7.07930167">
        <ele>70.0</ele>
        <time>2020-01-18T10:17:04.168Z</time>
      </trkpt>
      <trkpt lat="37.26092833" lon="-7.07930333">
        <ele>70.0</ele>
        <time>2020-01-18T10:17:05.157Z</time>
      </trkpt>
      <trkpt lat="37.26092833" lon="-7.07930333">
        <ele>70.0</ele>
        <time>2020-01-18T10:17:06.150Z</time>
      </trkpt>
      <trkpt lat="37.26101167" lon="-7.07931667">
        <ele>72.0</ele>
        <time>2020-01-18T10:17:07.156Z</time>
      </trkpt>
      <trkpt lat="37.26101167" lon="-7.07931667">
        <ele>72.0</ele>
        <time>2020-01-18T10:17:08.131Z</time>
      </trkpt>
      <trkpt lat="37.26101167" lon="-7.07931667">
        <ele>72.0</ele>
        <time>2020-01-18T10:17:09.137Z</time>
      </trkpt>
      <trkpt lat="37.26115833" lon="-7.07932333">
        <ele>70.0</ele>
        <time>2020-01-18T10:17:10.183Z</time>
      </trkpt>
      <trkpt lat="37.26120333" lon="-7.07933">
        <ele>70.0</ele>
        <time>2020-01-18T10:17:11.147Z</time>
      </trkpt>
      <trkpt lat="37.26120333" lon="-7.07933">
        <ele>70.0</ele>
        <time>2020-01-18T10:17:12.136Z</time>
      </trkpt>
      <trkpt lat="37.261245" lon="-7.07933667">
        <ele>69.0</ele>
        <time>2020-01-18T10:17:13.146Z</time>
      </trkpt>
      <trkpt lat="37.26132667" lon="-7.07933833">
        <ele>69.0</ele>
        <time>2020-01-18T10:17:14.152Z</time>
      </trkpt>
      <trkpt lat="37.26132667" lon="-7.07933833">
        <ele>69.0</ele>
        <time>2020-01-18T10:17:15.137Z</time>
      </trkpt>
      <trkpt lat="37.26137" lon="-7.079335">
        <ele>70.0</ele>
        <time>2020-01-18T10:17:16.159Z</time>
      </trkpt>
      <trkpt lat="37.26146167" lon="-7.07932833">
        <ele>69.0</ele>
        <time>2020-01-18T10:17:17.168Z</time>
      </trkpt>
      <trkpt lat="37.26146167" lon="-7.07932833">
        <ele>69.0</ele>
        <time>2020-01-18T10:17:18.161Z</time>
      </trkpt>
      <trkpt lat="37.26146167" lon="-7.07932833">
        <ele>69.0</ele>
        <time>2020-01-18T10:17:19.130Z</time>
      </trkpt>
      <trkpt lat="37.26161" lon="-7.07930833">
        <ele>69.0</ele>
        <time>2020-01-18T10:17:20.162Z</time>
      </trkpt>
      <trkpt lat="37.26161" lon="-7.07930833">
        <ele>69.0</ele>
        <time>2020-01-18T10:17:21.167Z</time>
      </trkpt>
      <trkpt lat="37.26161" lon="-7.07930833">
        <ele>69.0</ele>
        <time>2020-01-18T10:17:22.141Z</time>
      </trkpt>
      <trkpt lat="37.26175" lon="-7.07928333">
        <ele>67.0</ele>
        <time>2020-01-18T10:17:23.141Z</time>
      </trkpt>
      <trkpt lat="37.26175" lon="-7.07928333">
        <ele>67.0</ele>
        <time>2020-01-18T10:17:24.132Z</time>
      </trkpt>
      <trkpt lat="37.26175" lon="-7.07928333">
        <ele>67.0</ele>
        <time>2020-01-18T10:17:25.138Z</time>
      </trkpt>
      <trkpt lat="37.26184" lon="-7.079305">
        <ele>68.0</ele>
        <time>2020-01-18T10:17:26.137Z</time>
      </trkpt>
      <trkpt lat="37.26184" lon="-7.079305">
        <ele>68.0</ele>
        <time>2020-01-18T10:17:27.144Z</time>
      </trkpt>
      <trkpt lat="37.26193667" lon="-7.07932833">
        <ele>68.0</ele>
        <time>2020-01-18T10:17:28.142Z</time>
      </trkpt>
      <trkpt lat="37.26203" lon="-7.07934333">
        <ele>68.0</ele>
        <time>2020-01-18T10:17:29.150Z</time>
      </trkpt>
      <trkpt lat="37.26203" lon="-7.07934333">
        <ele>68.0</ele>
        <time>2020-01-18T10:17:30.144Z</time>
      </trkpt>
      <trkpt lat="37.26203" lon="-7.07934333">
        <ele>68.0</ele>
        <time>2020-01-18T10:17:31.132Z</time>
      </trkpt>
      <trkpt lat="37.26211667" lon="-7.07935833">
        <ele>68.0</ele>
        <time>2020-01-18T10:17:32.159Z</time>
      </trkpt>
      <trkpt lat="37.26211667" lon="-7.07935833">
        <ele>68.0</ele>
        <time>2020-01-18T10:17:33.134Z</time>
      </trkpt>
      <trkpt lat="37.26225667" lon="-7.07938333">
        <ele>69.0</ele>
        <time>2020-01-18T10:17:34.140Z</time>
      </trkpt>
      <trkpt lat="37.26225667" lon="-7.07938333">
        <ele>69.0</ele>
        <time>2020-01-18T10:17:35.149Z</time>
      </trkpt>
      <trkpt lat="37.26235167" lon="-7.07940333">
        <ele>69.0</ele>
        <time>2020-01-18T10:17:36.158Z</time>
      </trkpt>
      <trkpt lat="37.26235167" lon="-7.07940333">
        <ele>69.0</ele>
        <time>2020-01-18T10:17:37.132Z</time>
      </trkpt>
      <trkpt lat="37.2624" lon="-7.079415">
        <ele>69.0</ele>
        <time>2020-01-18T10:17:38.144Z</time>
      </trkpt>
      <trkpt lat="37.26249333" lon="-7.07943833">
        <ele>68.0</ele>
        <time>2020-01-18T10:17:39.150Z</time>
      </trkpt>
      <trkpt lat="37.26254167" lon="-7.07945">
        <ele>68.0</ele>
        <time>2020-01-18T10:17:40.159Z</time>
      </trkpt>
      <trkpt lat="37.26254167" lon="-7.07945">
        <ele>68.0</ele>
        <time>2020-01-18T10:17:41.135Z</time>
      </trkpt>
      <trkpt lat="37.26263" lon="-7.07946833">
        <ele>69.0</ele>
        <time>2020-01-18T10:17:42.144Z</time>
      </trkpt>
      <trkpt lat="37.26263" lon="-7.07946833">
        <ele>69.0</ele>
        <time>2020-01-18T10:17:43.150Z</time>
      </trkpt>
      <trkpt lat="37.26271833" lon="-7.07949667">
        <ele>68.0</ele>
        <time>2020-01-18T10:17:44.158Z</time>
      </trkpt>
      <trkpt lat="37.26271833" lon="-7.07949667">
        <ele>68.0</ele>
        <time>2020-01-18T10:17:45.130Z</time>
      </trkpt>
      <trkpt lat="37.26275667" lon="-7.079515">
        <ele>69.0</ele>
        <time>2020-01-18T10:17:46.129Z</time>
      </trkpt>
      <trkpt lat="37.26275667" lon="-7.079515">
        <ele>69.0</ele>
        <time>2020-01-18T10:17:47.137Z</time>
      </trkpt>
      <trkpt lat="37.26284333" lon="-7.07956167">
        <ele>69.0</ele>
        <time>2020-01-18T10:17:48.131Z</time>
      </trkpt>
      <trkpt lat="37.26284333" lon="-7.07956167">
        <ele>69.0</ele>
        <time>2020-01-18T10:17:49.140Z</time>
      </trkpt>
      <trkpt lat="37.262985" lon="-7.07965167">
        <ele>69.0</ele>
        <time>2020-01-18T10:17:50.169Z</time>
      </trkpt>
      <trkpt lat="37.262985" lon="-7.07965167">
        <ele>69.0</ele>
        <time>2020-01-18T10:17:51.136Z</time>
      </trkpt>
      <trkpt lat="37.26306833" lon="-7.0797">
        <ele>70.0</ele>
        <time>2020-01-18T10:17:52.145Z</time>
      </trkpt>
      <trkpt lat="37.26311167" lon="-7.07973333">
        <ele>70.0</ele>
        <time>2020-01-18T10:17:53.149Z</time>
      </trkpt>
      <trkpt lat="37.26311167" lon="-7.07973333">
        <ele>70.0</ele>
        <time>2020-01-18T10:17:54.129Z</time>
      </trkpt>
      <trkpt lat="37.26311167" lon="-7.07973333">
        <ele>70.0</ele>
        <time>2020-01-18T10:17:55.137Z</time>
      </trkpt>
      <trkpt lat="37.26319833" lon="-7.07980667">
        <ele>70.0</ele>
        <time>2020-01-18T10:17:56.140Z</time>
      </trkpt>
      <trkpt lat="37.26323833" lon="-7.079845">
        <ele>70.0</ele>
        <time>2020-01-18T10:17:57.130Z</time>
      </trkpt>
      <trkpt lat="37.26323833" lon="-7.079845">
        <ele>70.0</ele>
        <time>2020-01-18T10:17:58.136Z</time>
      </trkpt>
      <trkpt lat="37.26331333" lon="-7.07994167">
        <ele>70.0</ele>
        <time>2020-01-18T10:17:59.168Z</time>
      </trkpt>
      <trkpt lat="37.26331333" lon="-7.07994167">
        <ele>70.0</ele>
        <time>2020-01-18T10:18:00.133Z</time>
      </trkpt>
      <trkpt lat="37.26338333" lon="-7.08004667">
        <ele>71.0</ele>
        <time>2020-01-18T10:18:01.129Z</time>
      </trkpt>
      <trkpt lat="37.26338333" lon="-7.08004667">
        <ele>71.0</ele>
        <time>2020-01-18T10:18:02.137Z</time>
      </trkpt>
      <trkpt lat="37.26344333" lon="-7.08015333">
        <ele>71.0</ele>
        <time>2020-01-18T10:18:03.139Z</time>
      </trkpt>
      <trkpt lat="37.26350833" lon="-7.080265">
        <ele>70.0</ele>
        <time>2020-01-18T10:18:04.146Z</time>
      </trkpt>
      <trkpt lat="37.26350833" lon="-7.080265">
        <ele>70.0</ele>
        <time>2020-01-18T10:18:05.142Z</time>
      </trkpt>
      <trkpt lat="37.26354" lon="-7.08032667">
        <ele>70.0</ele>
        <time>2020-01-18T10:18:06.129Z</time>
      </trkpt>
      <trkpt lat="37.26354" lon="-7.08032667">
        <ele>70.0</ele>
        <time>2020-01-18T10:18:07.139Z</time>
      </trkpt>
      <trkpt lat="37.263665" lon="-7.08050333">
        <ele>69.0</ele>
        <time>2020-01-18T10:18:08.164Z</time>
      </trkpt>
      <trkpt lat="37.263665" lon="-7.08050333">
        <ele>69.0</ele>
        <time>2020-01-18T10:18:09.155Z</time>
      </trkpt>
      <trkpt lat="37.26375" lon="-7.08062833">
        <ele>69.0</ele>
        <time>2020-01-18T10:18:10.163Z</time>
      </trkpt>
      <trkpt lat="37.26375" lon="-7.08062833">
        <ele>69.0</ele>
        <time>2020-01-18T10:18:11.129Z</time>
      </trkpt>
      <trkpt lat="37.26379" lon="-7.080695">
        <ele>69.0</ele>
        <time>2020-01-18T10:18:12.166Z</time>
      </trkpt>
      <trkpt lat="37.26379" lon="-7.080695">
        <ele>69.0</ele>
        <time>2020-01-18T10:18:13.133Z</time>
      </trkpt>
      <trkpt lat="37.26386167" lon="-7.08083167">
        <ele>69.0</ele>
        <time>2020-01-18T10:18:14.162Z</time>
      </trkpt>
      <trkpt lat="37.26386167" lon="-7.08083167">
        <ele>69.0</ele>
        <time>2020-01-18T10:18:15.133Z</time>
      </trkpt>
      <trkpt lat="37.26392" lon="-7.08096833">
        <ele>69.0</ele>
        <time>2020-01-18T10:18:16.130Z</time>
      </trkpt>
      <trkpt lat="37.26398333" lon="-7.08110167">
        <ele>69.0</ele>
        <time>2020-01-18T10:18:17.156Z</time>
      </trkpt>
      <trkpt lat="37.26398333" lon="-7.08110167">
        <ele>69.0</ele>
        <time>2020-01-18T10:18:18.153Z</time>
      </trkpt>
      <trkpt lat="37.26401667" lon="-7.08116333">
        <ele>69.0</ele>
        <time>2020-01-18T10:18:19.131Z</time>
      </trkpt>
      <trkpt lat="37.26401667" lon="-7.08116333">
        <ele>69.0</ele>
        <time>2020-01-18T10:18:20.140Z</time>
      </trkpt>
      <trkpt lat="37.26407167" lon="-7.08128333">
        <ele>68.0</ele>
        <time>2020-01-18T10:18:21.139Z</time>
      </trkpt>
      <trkpt lat="37.26413333" lon="-7.08140167">
        <ele>68.0</ele>
        <time>2020-01-18T10:18:22.147Z</time>
      </trkpt>
      <trkpt lat="37.26416833" lon="-7.081455">
        <ele>68.0</ele>
        <time>2020-01-18T10:18:23.160Z</time>
      </trkpt>
      <trkpt lat="37.26416833" lon="-7.081455">
        <ele>68.0</ele>
        <time>2020-01-18T10:18:24.159Z</time>
      </trkpt>
      <trkpt lat="37.26416833" lon="-7.081455">
        <ele>68.0</ele>
        <time>2020-01-18T10:18:25.132Z</time>
      </trkpt>
      <trkpt lat="37.26425167" lon="-7.081565">
        <ele>68.0</ele>
        <time>2020-01-18T10:18:26.134Z</time>
      </trkpt>
      <trkpt lat="37.264295" lon="-7.08161667">
        <ele>68.0</ele>
        <time>2020-01-18T10:18:27.147Z</time>
      </trkpt>
      <trkpt lat="37.264295" lon="-7.08161667">
        <ele>68.0</ele>
        <time>2020-01-18T10:18:28.136Z</time>
      </trkpt>
      <trkpt lat="37.26437833" lon="-7.08170667">
        <ele>68.0</ele>
        <time>2020-01-18T10:18:29.145Z</time>
      </trkpt>
      <trkpt lat="37.26446333" lon="-7.081785">
        <ele>68.0</ele>
        <time>2020-01-18T10:18:30.150Z</time>
      </trkpt>
      <trkpt lat="37.26446333" lon="-7.081785">
        <ele>68.0</ele>
        <time>2020-01-18T10:18:31.154Z</time>
      </trkpt>
      <trkpt lat="37.26446333" lon="-7.081785">
        <ele>68.0</ele>
        <time>2020-01-18T10:18:32.135Z</time>
      </trkpt>
      <trkpt lat="37.26454667" lon="-7.08188167">
        <ele>69.0</ele>
        <time>2020-01-18T10:18:33.132Z</time>
      </trkpt>
      <trkpt lat="37.26458833" lon="-7.08193">
        <ele>69.0</ele>
        <time>2020-01-18T10:18:34.139Z</time>
      </trkpt>
      <trkpt lat="37.26467667" lon="-7.08201667">
        <ele>69.0</ele>
        <time>2020-01-18T10:18:35.149Z</time>
      </trkpt>
      <trkpt lat="37.26467667" lon="-7.08201667">
        <ele>69.0</ele>
        <time>2020-01-18T10:18:36.150Z</time>
      </trkpt>
      <trkpt lat="37.26476333" lon="-7.08209167">
        <ele>70.0</ele>
        <time>2020-01-18T10:18:37.158Z</time>
      </trkpt>
      <trkpt lat="37.26480833" lon="-7.08213167">
        <ele>70.0</ele>
        <time>2020-01-18T10:18:38.164Z</time>
      </trkpt>
      <trkpt lat="37.26480833" lon="-7.08213167">
        <ele>70.0</ele>
        <time>2020-01-18T10:18:39.146Z</time>
      </trkpt>
      <trkpt lat="37.26488667" lon="-7.082225">
        <ele>70.0</ele>
        <time>2020-01-18T10:18:40.197Z</time>
      </trkpt>
      <trkpt lat="37.26488667" lon="-7.082225">
        <ele>70.0</ele>
        <time>2020-01-18T10:18:41.149Z</time>
      </trkpt>
      <trkpt lat="37.26495667" lon="-7.08231667">
        <ele>70.0</ele>
        <time>2020-01-18T10:18:42.174Z</time>
      </trkpt>
      <trkpt lat="37.26499167" lon="-7.08234833">
        <ele>70.0</ele>
        <time>2020-01-18T10:18:43.159Z</time>
      </trkpt>
      <trkpt lat="37.26499167" lon="-7.08234833">
        <ele>70.0</ele>
        <time>2020-01-18T10:18:44.135Z</time>
      </trkpt>
      <trkpt lat="37.26505833" lon="-7.082415">
        <ele>70.0</ele>
        <time>2020-01-18T10:18:45.142Z</time>
      </trkpt>
      <trkpt lat="37.26505833" lon="-7.082415">
        <ele>70.0</ele>
        <time>2020-01-18T10:18:46.148Z</time>
      </trkpt>
      <trkpt lat="37.26512333" lon="-7.08248167">
        <ele>69.0</ele>
        <time>2020-01-18T10:18:47.155Z</time>
      </trkpt>
      <trkpt lat="37.26512333" lon="-7.08248167">
        <ele>69.0</ele>
        <time>2020-01-18T10:18:48.133Z</time>
      </trkpt>
      <trkpt lat="37.26515" lon="-7.08252167">
        <ele>69.0</ele>
        <time>2020-01-18T10:18:49.138Z</time>
      </trkpt>
      <trkpt lat="37.26517167" lon="-7.08263167">
        <ele>68.0</ele>
        <time>2020-01-18T10:18:50.144Z</time>
      </trkpt>
      <trkpt lat="37.26517167" lon="-7.08263167">
        <ele>68.0</ele>
        <time>2020-01-18T10:18:51.145Z</time>
      </trkpt>
      <trkpt lat="37.265195" lon="-7.08274833">
        <ele>67.0</ele>
        <time>2020-01-18T10:18:52.152Z</time>
      </trkpt>
      <trkpt lat="37.265195" lon="-7.08274833">
        <ele>67.0</ele>
        <time>2020-01-18T10:18:53.135Z</time>
      </trkpt>
      <trkpt lat="37.265205" lon="-7.08280333">
        <ele>67.0</ele>
        <time>2020-01-18T10:18:54.141Z</time>
      </trkpt>
      <trkpt lat="37.26523" lon="-7.08291333">
        <ele>66.0</ele>
        <time>2020-01-18T10:18:55.148Z</time>
      </trkpt>
      <trkpt lat="37.26523" lon="-7.08291333">
        <ele>66.0</ele>
        <time>2020-01-18T10:18:56.139Z</time>
      </trkpt>
      <trkpt lat="37.265255" lon="-7.08302">
        <ele>67.0</ele>
        <time>2020-01-18T10:18:57.147Z</time>
      </trkpt>
      <trkpt lat="37.26527333" lon="-7.08307667">
        <ele>67.0</ele>
        <time>2020-01-18T10:18:58.149Z</time>
      </trkpt>
      <trkpt lat="37.26527333" lon="-7.08307667">
        <ele>67.0</ele>
        <time>2020-01-18T10:18:59.147Z</time>
      </trkpt>
      <trkpt lat="37.26530833" lon="-7.08319833">
        <ele>67.0</ele>
        <time>2020-01-18T10:19:00.156Z</time>
      </trkpt>
      <trkpt lat="37.26530833" lon="-7.08319833">
        <ele>67.0</ele>
        <time>2020-01-18T10:19:01.144Z</time>
      </trkpt>
      <trkpt lat="37.26535333" lon="-7.08331167">
        <ele>66.0</ele>
        <time>2020-01-18T10:19:02.155Z</time>
      </trkpt>
      <trkpt lat="37.26535333" lon="-7.08331167">
        <ele>66.0</ele>
        <time>2020-01-18T10:19:03.133Z</time>
      </trkpt>
      <trkpt lat="37.26538167" lon="-7.08337167">
        <ele>66.0</ele>
        <time>2020-01-18T10:19:04.149Z</time>
      </trkpt>
      <trkpt lat="37.26544667" lon="-7.083475">
        <ele>66.0</ele>
        <time>2020-01-18T10:19:05.155Z</time>
      </trkpt>
      <trkpt lat="37.26544667" lon="-7.083475">
        <ele>66.0</ele>
        <time>2020-01-18T10:19:06.129Z</time>
      </trkpt>
      <trkpt lat="37.26544667" lon="-7.083475">
        <ele>66.0</ele>
        <time>2020-01-18T10:19:07.135Z</time>
      </trkpt>
      <trkpt lat="37.26552667" lon="-7.08366833">
        <ele>66.0</ele>
        <time>2020-01-18T10:19:08.156Z</time>
      </trkpt>
      <trkpt lat="37.26555333" lon="-7.08374833">
        <ele>66.0</ele>
        <time>2020-01-18T10:19:09.155Z</time>
      </trkpt>
      <trkpt lat="37.26555333" lon="-7.08374833">
        <ele>66.0</ele>
        <time>2020-01-18T10:19:10.149Z</time>
      </trkpt>
      <trkpt lat="37.26559833" lon="-7.083925">
        <ele>65.0</ele>
        <time>2020-01-18T10:19:11.177Z</time>
      </trkpt>
      <trkpt lat="37.26559833" lon="-7.083925">
        <ele>65.0</ele>
        <time>2020-01-18T10:19:12.144Z</time>
      </trkpt>
      <trkpt lat="37.26563" lon="-7.08408333">
        <ele>65.0</ele>
        <time>2020-01-18T10:19:13.154Z</time>
      </trkpt>
      <trkpt lat="37.26565667" lon="-7.08415667">
        <ele>65.0</ele>
        <time>2020-01-18T10:19:14.144Z</time>
      </trkpt>
      <trkpt lat="37.26565667" lon="-7.08415667">
        <ele>65.0</ele>
        <time>2020-01-18T10:19:15.149Z</time>
      </trkpt>
      <trkpt lat="37.26565667" lon="-7.08415667">
        <ele>65.0</ele>
        <time>2020-01-18T10:19:16.158Z</time>
      </trkpt>
      <trkpt lat="37.26576833" lon="-7.08434333">
        <ele>65.0</ele>
        <time>2020-01-18T10:19:17.137Z</time>
      </trkpt>
      <trkpt lat="37.26579833" lon="-7.08441">
        <ele>64.0</ele>
        <time>2020-01-18T10:19:18.156Z</time>
      </trkpt>
      <trkpt lat="37.26579833" lon="-7.08441">
        <ele>64.0</ele>
        <time>2020-01-18T10:19:19.134Z</time>
      </trkpt>
      <trkpt lat="37.26585167" lon="-7.08454">
        <ele>64.0</ele>
        <time>2020-01-18T10:19:20.145Z</time>
      </trkpt>
      <trkpt lat="37.265875" lon="-7.08460667">
        <ele>65.0</ele>
        <time>2020-01-18T10:19:21.142Z</time>
      </trkpt>
      <trkpt lat="37.265875" lon="-7.08460667">
        <ele>65.0</ele>
        <time>2020-01-18T10:19:22.136Z</time>
      </trkpt>
      <trkpt lat="37.265875" lon="-7.08460667">
        <ele>65.0</ele>
        <time>2020-01-18T10:19:23.142Z</time>
      </trkpt>
      <trkpt lat="37.26591167" lon="-7.08474333">
        <ele>65.0</ele>
        <time>2020-01-18T10:19:24.149Z</time>
      </trkpt>
      <trkpt lat="37.26594833" lon="-7.084875">
        <ele>65.0</ele>
        <time>2020-01-18T10:19:25.157Z</time>
      </trkpt>
      <trkpt lat="37.26594833" lon="-7.084875">
        <ele>65.0</ele>
        <time>2020-01-18T10:19:26.159Z</time>
      </trkpt>
      <trkpt lat="37.26594833" lon="-7.084875">
        <ele>65.0</ele>
        <time>2020-01-18T10:19:27.130Z</time>
      </trkpt>
      <trkpt lat="37.26601" lon="-7.08506333">
        <ele>65.0</ele>
        <time>2020-01-18T10:19:28.140Z</time>
      </trkpt>
      <trkpt lat="37.26601" lon="-7.08506333">
        <ele>65.0</ele>
        <time>2020-01-18T10:19:29.154Z</time>
      </trkpt>
      <trkpt lat="37.266055" lon="-7.085175">
        <ele>66.0</ele>
        <time>2020-01-18T10:19:30.162Z</time>
      </trkpt>
      <trkpt lat="37.266055" lon="-7.085175">
        <ele>66.0</ele>
        <time>2020-01-18T10:19:31.134Z</time>
      </trkpt>
      <trkpt lat="37.26609833" lon="-7.08528167">
        <ele>66.0</ele>
        <time>2020-01-18T10:19:32.157Z</time>
      </trkpt>
      <trkpt lat="37.26609833" lon="-7.08528167">
        <ele>66.0</ele>
        <time>2020-01-18T10:19:33.132Z</time>
      </trkpt>
      <trkpt lat="37.26611333" lon="-7.08534167">
        <ele>66.0</ele>
        <time>2020-01-18T10:19:34.149Z</time>
      </trkpt>
      <trkpt lat="37.26613667" lon="-7.08545333">
        <ele>66.0</ele>
        <time>2020-01-18T10:19:35.160Z</time>
      </trkpt>
      <trkpt lat="37.26613667" lon="-7.08545333">
        <ele>66.0</ele>
        <time>2020-01-18T10:19:36.159Z</time>
      </trkpt>
      <trkpt lat="37.26613667" lon="-7.08545333">
        <ele>66.0</ele>
        <time>2020-01-18T10:19:37.131Z</time>
      </trkpt>
      <trkpt lat="37.26615333" lon="-7.08556667">
        <ele>66.0</ele>
        <time>2020-01-18T10:19:38.132Z</time>
      </trkpt>
      <trkpt lat="37.26616167" lon="-7.085625">
        <ele>66.0</ele>
        <time>2020-01-18T10:19:39.129Z</time>
      </trkpt>
      <trkpt lat="37.26617" lon="-7.08568167">
        <ele>66.0</ele>
        <time>2020-01-18T10:19:40.166Z</time>
      </trkpt>
      <trkpt lat="37.26617" lon="-7.08568167">
        <ele>66.0</ele>
        <time>2020-01-18T10:19:41.132Z</time>
      </trkpt>
      <trkpt lat="37.26619" lon="-7.08580333">
        <ele>65.0</ele>
        <time>2020-01-18T10:19:42.141Z</time>
      </trkpt>
      <trkpt lat="37.26622833" lon="-7.08595">
        <ele>65.0</ele>
        <time>2020-01-18T10:19:43.153Z</time>
      </trkpt>
      <trkpt lat="37.26622833" lon="-7.08595">
        <ele>65.0</ele>
        <time>2020-01-18T10:19:44.135Z</time>
      </trkpt>
      <trkpt lat="37.26624667" lon="-7.08602167">
        <ele>65.0</ele>
        <time>2020-01-18T10:19:45.139Z</time>
      </trkpt>
      <trkpt lat="37.266295" lon="-7.08615833">
        <ele>64.0</ele>
        <time>2020-01-18T10:19:46.148Z</time>
      </trkpt>
      <trkpt lat="37.266295" lon="-7.08615833">
        <ele>64.0</ele>
        <time>2020-01-18T10:19:47.148Z</time>
      </trkpt>
      <trkpt lat="37.26632833" lon="-7.08622833">
        <ele>64.0</ele>
        <time>2020-01-18T10:19:48.149Z</time>
      </trkpt>
      <trkpt lat="37.26639167" lon="-7.08637">
        <ele>63.0</ele>
        <time>2020-01-18T10:19:49.159Z</time>
      </trkpt>
      <trkpt lat="37.26639167" lon="-7.08637">
        <ele>63.0</ele>
        <time>2020-01-18T10:19:50.141Z</time>
      </trkpt>
      <trkpt lat="37.26642833" lon="-7.08643833">
        <ele>63.0</ele>
        <time>2020-01-18T10:19:51.132Z</time>
      </trkpt>
      <trkpt lat="37.26642833" lon="-7.08643833">
        <ele>63.0</ele>
        <time>2020-01-18T10:19:52.139Z</time>
      </trkpt>
      <trkpt lat="37.266505" lon="-7.08658167">
        <ele>63.0</ele>
        <time>2020-01-18T10:19:53.148Z</time>
      </trkpt>
      <trkpt lat="37.26656167" lon="-7.086775">
        <ele>62.0</ele>
        <time>2020-01-18T10:19:54.174Z</time>
      </trkpt>
      <trkpt lat="37.26658167" lon="-7.08687833">
        <ele>62.0</ele>
        <time>2020-01-18T10:19:55.149Z</time>
      </trkpt>
      <trkpt lat="37.26658167" lon="-7.08687833">
        <ele>62.0</ele>
        <time>2020-01-18T10:19:56.159Z</time>
      </trkpt>
      <trkpt lat="37.26658167" lon="-7.08687833">
        <ele>62.0</ele>
        <time>2020-01-18T10:19:57.133Z</time>
      </trkpt>
      <trkpt lat="37.26656167" lon="-7.087065">
        <ele>61.0</ele>
        <time>2020-01-18T10:19:58.149Z</time>
      </trkpt>
      <trkpt lat="37.26652" lon="-7.087235">
        <ele>60.0</ele>
        <time>2020-01-18T10:19:59.156Z</time>
      </trkpt>
      <trkpt lat="37.266505" lon="-7.08731667">
        <ele>60.0</ele>
        <time>2020-01-18T10:20:00.194Z</time>
      </trkpt>
      <trkpt lat="37.266505" lon="-7.08731667">
        <ele>60.0</ele>
        <time>2020-01-18T10:20:01.132Z</time>
      </trkpt>
      <trkpt lat="37.266485" lon="-7.08740167">
        <ele>59.0</ele>
        <time>2020-01-18T10:20:02.139Z</time>
      </trkpt>
      <trkpt lat="37.266455" lon="-7.08758">
        <ele>59.0</ele>
        <time>2020-01-18T10:20:03.178Z</time>
      </trkpt>
      <trkpt lat="37.26644" lon="-7.08767">
        <ele>58.0</ele>
        <time>2020-01-18T10:20:04.160Z</time>
      </trkpt>
      <trkpt lat="37.26644" lon="-7.08767">
        <ele>58.0</ele>
        <time>2020-01-18T10:20:05.136Z</time>
      </trkpt>
      <trkpt lat="37.2664" lon="-7.08785167">
        <ele>57.0</ele>
        <time>2020-01-18T10:20:06.160Z</time>
      </trkpt>
      <trkpt lat="37.2664" lon="-7.08785167">
        <ele>57.0</ele>
        <time>2020-01-18T10:20:07.130Z</time>
      </trkpt>
      <trkpt lat="37.266365" lon="-7.08802833">
        <ele>57.0</ele>
        <time>2020-01-18T10:20:08.141Z</time>
      </trkpt>
      <trkpt lat="37.266365" lon="-7.08802833">
        <ele>57.0</ele>
        <time>2020-01-18T10:20:09.154Z</time>
      </trkpt>
      <trkpt lat="37.266335" lon="-7.08820167">
        <ele>56.0</ele>
        <time>2020-01-18T10:20:10.173Z</time>
      </trkpt>
      <trkpt lat="37.266335" lon="-7.08820167">
        <ele>56.0</ele>
        <time>2020-01-18T10:20:11.133Z</time>
      </trkpt>
      <trkpt lat="37.26631833" lon="-7.08837">
        <ele>55.0</ele>
        <time>2020-01-18T10:20:12.153Z</time>
      </trkpt>
      <trkpt lat="37.26631167" lon="-7.08845833">
        <ele>55.0</ele>
        <time>2020-01-18T10:20:13.160Z</time>
      </trkpt>
      <trkpt lat="37.26631167" lon="-7.08845833">
        <ele>55.0</ele>
        <time>2020-01-18T10:20:14.149Z</time>
      </trkpt>
      <trkpt lat="37.266315" lon="-7.08863833">
        <ele>54.0</ele>
        <time>2020-01-18T10:20:15.158Z</time>
      </trkpt>
      <trkpt lat="37.266315" lon="-7.08863833">
        <ele>54.0</ele>
        <time>2020-01-18T10:20:16.133Z</time>
      </trkpt>
      <trkpt lat="37.266315" lon="-7.08863833">
        <ele>54.0</ele>
        <time>2020-01-18T10:20:17.141Z</time>
      </trkpt>
      <trkpt lat="37.26632333" lon="-7.08882667">
        <ele>53.0</ele>
        <time>2020-01-18T10:20:18.139Z</time>
      </trkpt>
      <trkpt lat="37.26634167" lon="-7.089015">
        <ele>52.0</ele>
        <time>2020-01-18T10:20:19.145Z</time>
      </trkpt>
      <trkpt lat="37.26635167" lon="-7.08911">
        <ele>51.0</ele>
        <time>2020-01-18T10:20:20.155Z</time>
      </trkpt>
      <trkpt lat="37.26635167" lon="-7.08911">
        <ele>51.0</ele>
        <time>2020-01-18T10:20:21.136Z</time>
      </trkpt>
      <trkpt lat="37.266365" lon="-7.08920833">
        <ele>51.0</ele>
        <time>2020-01-18T10:20:22.133Z</time>
      </trkpt>
      <trkpt lat="37.266365" lon="-7.08920833">
        <ele>51.0</ele>
        <time>2020-01-18T10:20:23.143Z</time>
      </trkpt>
      <trkpt lat="37.26638667" lon="-7.08939833">
        <ele>50.0</ele>
        <time>2020-01-18T10:20:24.147Z</time>
      </trkpt>
      <trkpt lat="37.26639667" lon="-7.089585">
        <ele>50.0</ele>
        <time>2020-01-18T10:20:25.157Z</time>
      </trkpt>
      <trkpt lat="37.26639667" lon="-7.089585">
        <ele>50.0</ele>
        <time>2020-01-18T10:20:26.154Z</time>
      </trkpt>
      <trkpt lat="37.26641667" lon="-7.089755">
        <ele>49.0</ele>
        <time>2020-01-18T10:20:27.163Z</time>
      </trkpt>
      <trkpt lat="37.26641667" lon="-7.089755">
        <ele>49.0</ele>
        <time>2020-01-18T10:20:28.166Z</time>
      </trkpt>
      <trkpt lat="37.26641667" lon="-7.089755">
        <ele>49.0</ele>
        <time>2020-01-18T10:20:29.135Z</time>
      </trkpt>
      <trkpt lat="37.26646167" lon="-7.08999667">
        <ele>49.0</ele>
        <time>2020-01-18T10:20:30.144Z</time>
      </trkpt>
      <trkpt lat="37.26646167" lon="-7.08999667">
        <ele>49.0</ele>
        <time>2020-01-18T10:20:31.153Z</time>
      </trkpt>
      <trkpt lat="37.26647333" lon="-7.09015167">
        <ele>48.0</ele>
        <time>2020-01-18T10:20:32.168Z</time>
      </trkpt>
      <trkpt lat="37.26647333" lon="-7.09015167">
        <ele>48.0</ele>
        <time>2020-01-18T10:20:33.158Z</time>
      </trkpt>
      <trkpt lat="37.26647333" lon="-7.09015167">
        <ele>48.0</ele>
        <time>2020-01-18T10:20:34.132Z</time>
      </trkpt>
      <trkpt lat="37.26650167" lon="-7.09036333">
        <ele>48.0</ele>
        <time>2020-01-18T10:20:35.160Z</time>
      </trkpt>
      <trkpt lat="37.26650167" lon="-7.09036333">
        <ele>48.0</ele>
        <time>2020-01-18T10:20:36.132Z</time>
      </trkpt>
      <trkpt lat="37.26650167" lon="-7.09036333">
        <ele>48.0</ele>
        <time>2020-01-18T10:20:37.148Z</time>
      </trkpt>
      <trkpt lat="37.266525" lon="-7.09049167">
        <ele>47.0</ele>
        <time>2020-01-18T10:20:38.158Z</time>
      </trkpt>
      <trkpt lat="37.266525" lon="-7.09049167">
        <ele>47.0</ele>
        <time>2020-01-18T10:20:39.165Z</time>
      </trkpt>
      <trkpt lat="37.26656167" lon="-7.09060667">
        <ele>47.0</ele>
        <time>2020-01-18T10:20:40.159Z</time>
      </trkpt>
      <trkpt lat="37.26656167" lon="-7.09060667">
        <ele>47.0</ele>
        <time>2020-01-18T10:20:41.129Z</time>
      </trkpt>
      <trkpt lat="37.26659167" lon="-7.09079333">
        <ele>47.0</ele>
        <time>2020-01-18T10:20:42.155Z</time>
      </trkpt>
      <trkpt lat="37.26659167" lon="-7.09079333">
        <ele>47.0</ele>
        <time>2020-01-18T10:20:43.166Z</time>
      </trkpt>
      <trkpt lat="37.26659167" lon="-7.09079333">
        <ele>47.0</ele>
        <time>2020-01-18T10:20:44.133Z</time>
      </trkpt>
      <trkpt lat="37.26662333" lon="-7.09091667">
        <ele>46.0</ele>
        <time>2020-01-18T10:20:45.148Z</time>
      </trkpt>
      <trkpt lat="37.26662333" lon="-7.09091667">
        <ele>46.0</ele>
        <time>2020-01-18T10:20:46.147Z</time>
      </trkpt>
      <trkpt lat="37.26665667" lon="-7.09103667">
        <ele>46.0</ele>
        <time>2020-01-18T10:20:47.134Z</time>
      </trkpt>
      <trkpt lat="37.26665667" lon="-7.09103667">
        <ele>46.0</ele>
        <time>2020-01-18T10:20:48.146Z</time>
      </trkpt>
      <trkpt lat="37.26669667" lon="-7.09115">
        <ele>46.0</ele>
        <time>2020-01-18T10:20:49.153Z</time>
      </trkpt>
      <trkpt lat="37.26673667" lon="-7.09125">
        <ele>47.0</ele>
        <time>2020-01-18T10:20:50.173Z</time>
      </trkpt>
      <trkpt lat="37.266755" lon="-7.0913">
        <ele>47.0</ele>
        <time>2020-01-18T10:20:51.158Z</time>
      </trkpt>
      <trkpt lat="37.266755" lon="-7.0913">
        <ele>47.0</ele>
        <time>2020-01-18T10:20:52.151Z</time>
      </trkpt>
      <trkpt lat="37.26678833" lon="-7.09139667">
        <ele>47.0</ele>
        <time>2020-01-18T10:20:53.161Z</time>
      </trkpt>
      <trkpt lat="37.26678833" lon="-7.09139667">
        <ele>47.0</ele>
        <time>2020-01-18T10:20:54.149Z</time>
      </trkpt>
      <trkpt lat="37.26682667" lon="-7.09148833">
        <ele>47.0</ele>
        <time>2020-01-18T10:20:55.156Z</time>
      </trkpt>
      <trkpt lat="37.26682667" lon="-7.09148833">
        <ele>47.0</ele>
        <time>2020-01-18T10:20:56.159Z</time>
      </trkpt>
      <trkpt lat="37.26682667" lon="-7.09148833">
        <ele>47.0</ele>
        <time>2020-01-18T10:20:57.131Z</time>
      </trkpt>
      <trkpt lat="37.26686667" lon="-7.09156167">
        <ele>47.0</ele>
        <time>2020-01-18T10:20:58.144Z</time>
      </trkpt>
      <trkpt lat="37.26691667" lon="-7.09166667">
        <ele>47.0</ele>
        <time>2020-01-18T10:20:59.165Z</time>
      </trkpt>
      <trkpt lat="37.26691667" lon="-7.09166667">
        <ele>47.0</ele>
        <time>2020-01-18T10:21:00.157Z</time>
      </trkpt>
      <trkpt lat="37.26691667" lon="-7.09166667">
        <ele>47.0</ele>
        <time>2020-01-18T10:21:01.134Z</time>
      </trkpt>
      <trkpt lat="37.26695833" lon="-7.09176333">
        <ele>47.0</ele>
        <time>2020-01-18T10:21:02.134Z</time>
      </trkpt>
      <trkpt lat="37.26697167" lon="-7.09179833">
        <ele>48.0</ele>
        <time>2020-01-18T10:21:03.149Z</time>
      </trkpt>
      <trkpt lat="37.267015" lon="-7.09188333">
        <ele>49.0</ele>
        <time>2020-01-18T10:21:04.161Z</time>
      </trkpt>
      <trkpt lat="37.26704333" lon="-7.091925">
        <ele>49.0</ele>
        <time>2020-01-18T10:21:05.163Z</time>
      </trkpt>
      <trkpt lat="37.26704333" lon="-7.091925">
        <ele>49.0</ele>
        <time>2020-01-18T10:21:06.144Z</time>
      </trkpt>
      <trkpt lat="37.26710333" lon="-7.09200167">
        <ele>50.0</ele>
        <time>2020-01-18T10:21:07.152Z</time>
      </trkpt>
      <trkpt lat="37.26710333" lon="-7.09200167">
        <ele>50.0</ele>
        <time>2020-01-18T10:21:08.133Z</time>
      </trkpt>
      <trkpt lat="37.26716" lon="-7.09206833">
        <ele>50.0</ele>
        <time>2020-01-18T10:21:09.141Z</time>
      </trkpt>
      <trkpt lat="37.26718667" lon="-7.09210167">
        <ele>51.0</ele>
        <time>2020-01-18T10:21:10.184Z</time>
      </trkpt>
      <trkpt lat="37.26721333" lon="-7.09213833">
        <ele>51.0</ele>
        <time>2020-01-18T10:21:11.162Z</time>
      </trkpt>
      <trkpt lat="37.26721333" lon="-7.09213833">
        <ele>51.0</ele>
        <time>2020-01-18T10:21:12.135Z</time>
      </trkpt>
      <trkpt lat="37.26723667" lon="-7.092175">
        <ele>52.0</ele>
        <time>2020-01-18T10:21:13.130Z</time>
      </trkpt>
      <trkpt lat="37.26723667" lon="-7.092175">
        <ele>52.0</ele>
        <time>2020-01-18T10:21:14.137Z</time>
      </trkpt>
      <trkpt lat="37.26729167" lon="-7.09225333">
        <ele>52.0</ele>
        <time>2020-01-18T10:21:15.145Z</time>
      </trkpt>
      <trkpt lat="37.267345" lon="-7.09234">
        <ele>53.0</ele>
        <time>2020-01-18T10:21:16.159Z</time>
      </trkpt>
      <trkpt lat="37.26737167" lon="-7.09238">
        <ele>53.0</ele>
        <time>2020-01-18T10:21:17.160Z</time>
      </trkpt>
      <trkpt lat="37.26737167" lon="-7.09238">
        <ele>53.0</ele>
        <time>2020-01-18T10:21:18.142Z</time>
      </trkpt>
      <trkpt lat="37.26742" lon="-7.09246167">
        <ele>54.0</ele>
        <time>2020-01-18T10:21:19.153Z</time>
      </trkpt>
      <trkpt lat="37.26742" lon="-7.09246167">
        <ele>54.0</ele>
        <time>2020-01-18T10:21:20.130Z</time>
      </trkpt>
      <trkpt lat="37.26744167" lon="-7.092505">
        <ele>54.0</ele>
        <time>2020-01-18T10:21:21.137Z</time>
      </trkpt>
      <trkpt lat="37.26744167" lon="-7.092505">
        <ele>54.0</ele>
        <time>2020-01-18T10:21:22.144Z</time>
      </trkpt>
      <trkpt lat="37.26749167" lon="-7.09258333">
        <ele>54.0</ele>
        <time>2020-01-18T10:21:23.134Z</time>
      </trkpt>
      <trkpt lat="37.267515" lon="-7.09262167">
        <ele>55.0</ele>
        <time>2020-01-18T10:21:24.151Z</time>
      </trkpt>
      <trkpt lat="37.26755333" lon="-7.09269167">
        <ele>55.0</ele>
        <time>2020-01-18T10:21:25.158Z</time>
      </trkpt>
      <trkpt lat="37.26755333" lon="-7.09269167">
        <ele>55.0</ele>
        <time>2020-01-18T10:21:26.145Z</time>
      </trkpt>
      <trkpt lat="37.26755333" lon="-7.09269167">
        <ele>55.0</ele>
        <time>2020-01-18T10:21:27.156Z</time>
      </trkpt>
      <trkpt lat="37.26759167" lon="-7.09277">
        <ele>56.0</ele>
        <time>2020-01-18T10:21:28.160Z</time>
      </trkpt>
      <trkpt lat="37.26759167" lon="-7.09277">
        <ele>56.0</ele>
        <time>2020-01-18T10:21:29.137Z</time>
      </trkpt>
      <trkpt lat="37.267625" lon="-7.092855">
        <ele>56.0</ele>
        <time>2020-01-18T10:21:30.136Z</time>
      </trkpt>
      <trkpt lat="37.267625" lon="-7.092855">
        <ele>56.0</ele>
        <time>2020-01-18T10:21:31.135Z</time>
      </trkpt>
      <trkpt lat="37.267675" lon="-7.093">
        <ele>56.0</ele>
        <time>2020-01-18T10:21:32.139Z</time>
      </trkpt>
      <trkpt lat="37.267675" lon="-7.093">
        <ele>56.0</ele>
        <time>2020-01-18T10:21:33.132Z</time>
      </trkpt>
      <trkpt lat="37.267675" lon="-7.093">
        <ele>56.0</ele>
        <time>2020-01-18T10:21:34.139Z</time>
      </trkpt>
      <trkpt lat="37.26770667" lon="-7.09316167">
        <ele>56.0</ele>
        <time>2020-01-18T10:21:35.159Z</time>
      </trkpt>
      <trkpt lat="37.26770667" lon="-7.09316167">
        <ele>56.0</ele>
        <time>2020-01-18T10:21:36.130Z</time>
      </trkpt>
      <trkpt lat="37.26770667" lon="-7.09316167">
        <ele>56.0</ele>
        <time>2020-01-18T10:21:37.141Z</time>
      </trkpt>
      <trkpt lat="37.26772333" lon="-7.09326333">
        <ele>55.0</ele>
        <time>2020-01-18T10:21:38.150Z</time>
      </trkpt>
      <trkpt lat="37.26773667" lon="-7.093365">
        <ele>55.0</ele>
        <time>2020-01-18T10:21:39.158Z</time>
      </trkpt>
      <trkpt lat="37.26773667" lon="-7.093365">
        <ele>55.0</ele>
        <time>2020-01-18T10:21:40.133Z</time>
      </trkpt>
      <trkpt lat="37.26773833" lon="-7.093475">
        <ele>55.0</ele>
        <time>2020-01-18T10:21:41.146Z</time>
      </trkpt>
      <trkpt lat="37.26773833" lon="-7.093475">
        <ele>55.0</ele>
        <time>2020-01-18T10:21:42.145Z</time>
      </trkpt>
      <trkpt lat="37.26774167" lon="-7.09358167">
        <ele>54.0</ele>
        <time>2020-01-18T10:21:43.152Z</time>
      </trkpt>
      <trkpt lat="37.26774667" lon="-7.093635">
        <ele>54.0</ele>
        <time>2020-01-18T10:21:44.141Z</time>
      </trkpt>
      <trkpt lat="37.26775167" lon="-7.093685">
        <ele>54.0</ele>
        <time>2020-01-18T10:21:45.153Z</time>
      </trkpt>
      <trkpt lat="37.26775167" lon="-7.093685">
        <ele>54.0</ele>
        <time>2020-01-18T10:21:46.154Z</time>
      </trkpt>
      <trkpt lat="37.26776333" lon="-7.09378667">
        <ele>54.0</ele>
        <time>2020-01-18T10:21:47.168Z</time>
      </trkpt>
      <trkpt lat="37.26776333" lon="-7.09378667">
        <ele>54.0</ele>
        <time>2020-01-18T10:21:48.132Z</time>
      </trkpt>
      <trkpt lat="37.26776333" lon="-7.09378667">
        <ele>54.0</ele>
        <time>2020-01-18T10:21:49.141Z</time>
      </trkpt>
      <trkpt lat="37.26778333" lon="-7.09395">
        <ele>53.0</ele>
        <time>2020-01-18T10:21:50.153Z</time>
      </trkpt>
      <trkpt lat="37.26778333" lon="-7.09395">
        <ele>53.0</ele>
        <time>2020-01-18T10:21:51.159Z</time>
      </trkpt>
      <trkpt lat="37.26778333" lon="-7.09395">
        <ele>53.0</ele>
        <time>2020-01-18T10:21:52.134Z</time>
      </trkpt>
      <trkpt lat="37.26780667" lon="-7.09405167">
        <ele>53.0</ele>
        <time>2020-01-18T10:21:53.134Z</time>
      </trkpt>
      <trkpt lat="37.26782" lon="-7.0941">
        <ele>53.0</ele>
        <time>2020-01-18T10:21:54.139Z</time>
      </trkpt>
      <trkpt lat="37.26782" lon="-7.0941">
        <ele>53.0</ele>
        <time>2020-01-18T10:21:55.145Z</time>
      </trkpt>
      <trkpt lat="37.26783167" lon="-7.09419167">
        <ele>53.0</ele>
        <time>2020-01-18T10:21:56.139Z</time>
      </trkpt>
      <trkpt lat="37.26783167" lon="-7.09419167">
        <ele>53.0</ele>
        <time>2020-01-18T10:21:57.148Z</time>
      </trkpt>
      <trkpt lat="37.26783667" lon="-7.09428667">
        <ele>53.0</ele>
        <time>2020-01-18T10:21:58.141Z</time>
      </trkpt>
      <trkpt lat="37.26784333" lon="-7.094335">
        <ele>53.0</ele>
        <time>2020-01-18T10:21:59.132Z</time>
      </trkpt>
      <trkpt lat="37.26784333" lon="-7.094335">
        <ele>53.0</ele>
        <time>2020-01-18T10:22:00.137Z</time>
      </trkpt>
      <trkpt lat="37.26785667" lon="-7.09443667">
        <ele>53.0</ele>
        <time>2020-01-18T10:22:01.157Z</time>
      </trkpt>
      <trkpt lat="37.26785667" lon="-7.09443667">
        <ele>53.0</ele>
        <time>2020-01-18T10:22:02.133Z</time>
      </trkpt>
      <trkpt lat="37.26789667" lon="-7.094595">
        <ele>54.0</ele>
        <time>2020-01-18T10:22:03.139Z</time>
      </trkpt>
      <trkpt lat="37.26789667" lon="-7.094595">
        <ele>54.0</ele>
        <time>2020-01-18T10:22:04.153Z</time>
      </trkpt>
      <trkpt lat="37.26792667" lon="-7.09467333">
        <ele>55.0</ele>
        <time>2020-01-18T10:22:05.160Z</time>
      </trkpt>
      <trkpt lat="37.26792667" lon="-7.09467333">
        <ele>55.0</ele>
        <time>2020-01-18T10:22:06.131Z</time>
      </trkpt>
      <trkpt lat="37.26792667" lon="-7.09467333">
        <ele>55.0</ele>
        <time>2020-01-18T10:22:07.139Z</time>
      </trkpt>
      <trkpt lat="37.267965" lon="-7.09476333">
        <ele>55.0</ele>
        <time>2020-01-18T10:22:08.134Z</time>
      </trkpt>
      <trkpt lat="37.26799833" lon="-7.09486">
        <ele>56.0</ele>
        <time>2020-01-18T10:22:09.145Z</time>
      </trkpt>
      <trkpt lat="37.26799833" lon="-7.09486">
        <ele>56.0</ele>
        <time>2020-01-18T10:22:10.140Z</time>
      </trkpt>
      <trkpt lat="37.26801167" lon="-7.094905">
        <ele>56.0</ele>
        <time>2020-01-18T10:22:11.159Z</time>
      </trkpt>
      <trkpt lat="37.26801167" lon="-7.094905">
        <ele>56.0</ele>
        <time>2020-01-18T10:22:12.133Z</time>
      </trkpt>
      <trkpt lat="37.26803667" lon="-7.09501167">
        <ele>56.0</ele>
        <time>2020-01-18T10:22:13.154Z</time>
      </trkpt>
      <trkpt lat="37.26806167" lon="-7.09512167">
        <ele>56.0</ele>
        <time>2020-01-18T10:22:14.168Z</time>
      </trkpt>
      <trkpt lat="37.26806167" lon="-7.09512167">
        <ele>56.0</ele>
        <time>2020-01-18T10:22:15.167Z</time>
      </trkpt>
      <trkpt lat="37.26806167" lon="-7.09512167">
        <ele>56.0</ele>
        <time>2020-01-18T10:22:16.135Z</time>
      </trkpt>
      <trkpt lat="37.268085" lon="-7.09523833">
        <ele>56.0</ele>
        <time>2020-01-18T10:22:17.151Z</time>
      </trkpt>
      <trkpt lat="37.26809833" lon="-7.09529333">
        <ele>56.0</ele>
        <time>2020-01-18T10:22:18.149Z</time>
      </trkpt>
      <trkpt lat="37.26813333" lon="-7.095395">
        <ele>56.0</ele>
        <time>2020-01-18T10:22:19.159Z</time>
      </trkpt>
      <trkpt lat="37.26813333" lon="-7.095395">
        <ele>56.0</ele>
        <time>2020-01-18T10:22:20.159Z</time>
      </trkpt>
      <trkpt lat="37.26813333" lon="-7.095395">
        <ele>56.0</ele>
        <time>2020-01-18T10:22:21.129Z</time>
      </trkpt>
      <trkpt lat="37.26819" lon="-7.09552833">
        <ele>56.0</ele>
        <time>2020-01-18T10:22:22.153Z</time>
      </trkpt>
      <trkpt lat="37.26821333" lon="-7.09557167">
        <ele>56.0</ele>
        <time>2020-01-18T10:22:23.150Z</time>
      </trkpt>
      <trkpt lat="37.26821333" lon="-7.09557167">
        <ele>56.0</ele>
        <time>2020-01-18T10:22:24.155Z</time>
      </trkpt>
      <trkpt lat="37.26825333" lon="-7.09565">
        <ele>57.0</ele>
        <time>2020-01-18T10:22:25.163Z</time>
      </trkpt>
      <trkpt lat="37.26825333" lon="-7.09565">
        <ele>57.0</ele>
        <time>2020-01-18T10:22:26.167Z</time>
      </trkpt>
      <trkpt lat="37.26825333" lon="-7.09565">
        <ele>57.0</ele>
        <time>2020-01-18T10:22:27.134Z</time>
      </trkpt>
      <trkpt lat="37.26829667" lon="-7.09577333">
        <ele>58.0</ele>
        <time>2020-01-18T10:22:28.137Z</time>
      </trkpt>
      <trkpt lat="37.26829667" lon="-7.09577333">
        <ele>58.0</ele>
        <time>2020-01-18T10:22:29.160Z</time>
      </trkpt>
      <trkpt lat="37.26829667" lon="-7.09577333">
        <ele>58.0</ele>
        <time>2020-01-18T10:22:30.131Z</time>
      </trkpt>
      <trkpt lat="37.26831667" lon="-7.09587833">
        <ele>59.0</ele>
        <time>2020-01-18T10:22:31.161Z</time>
      </trkpt>
      <trkpt lat="37.26831667" lon="-7.09587833">
        <ele>59.0</ele>
        <time>2020-01-18T10:22:32.129Z</time>
      </trkpt>
      <trkpt lat="37.26834833" lon="-7.096025">
        <ele>59.0</ele>
        <time>2020-01-18T10:22:33.159Z</time>
      </trkpt>
      <trkpt lat="37.26834833" lon="-7.096025">
        <ele>59.0</ele>
        <time>2020-01-18T10:22:34.132Z</time>
      </trkpt>
      <trkpt lat="37.26834833" lon="-7.096025">
        <ele>59.0</ele>
        <time>2020-01-18T10:22:35.139Z</time>
      </trkpt>
      <trkpt lat="37.26837167" lon="-7.096125">
        <ele>60.0</ele>
        <time>2020-01-18T10:22:36.158Z</time>
      </trkpt>
      <trkpt lat="37.26837167" lon="-7.096125">
        <ele>60.0</ele>
        <time>2020-01-18T10:22:37.134Z</time>
      </trkpt>
      <trkpt lat="37.26839833" lon="-7.09622167">
        <ele>60.0</ele>
        <time>2020-01-18T10:22:38.149Z</time>
      </trkpt>
      <trkpt lat="37.26843167" lon="-7.09632167">
        <ele>61.0</ele>
        <time>2020-01-18T10:22:39.156Z</time>
      </trkpt>
      <trkpt lat="37.26843167" lon="-7.09632167">
        <ele>61.0</ele>
        <time>2020-01-18T10:22:40.162Z</time>
      </trkpt>
      <trkpt lat="37.26843167" lon="-7.09632167">
        <ele>61.0</ele>
        <time>2020-01-18T10:22:41.137Z</time>
      </trkpt>
      <trkpt lat="37.26845667" lon="-7.09641">
        <ele>62.0</ele>
        <time>2020-01-18T10:22:42.149Z</time>
      </trkpt>
      <trkpt lat="37.26849" lon="-7.09648833">
        <ele>62.0</ele>
        <time>2020-01-18T10:22:43.158Z</time>
      </trkpt>
      <trkpt lat="37.26849" lon="-7.09648833">
        <ele>62.0</ele>
        <time>2020-01-18T10:22:44.155Z</time>
      </trkpt>
      <trkpt lat="37.26850833" lon="-7.09656833">
        <ele>63.0</ele>
        <time>2020-01-18T10:22:45.162Z</time>
      </trkpt>
      <trkpt lat="37.26850833" lon="-7.09656833">
        <ele>63.0</ele>
        <time>2020-01-18T10:22:46.147Z</time>
      </trkpt>
      <trkpt lat="37.26854" lon="-7.09666">
        <ele>63.0</ele>
        <time>2020-01-18T10:22:47.156Z</time>
      </trkpt>
      <trkpt lat="37.26854" lon="-7.09666">
        <ele>63.0</ele>
        <time>2020-01-18T10:22:48.159Z</time>
      </trkpt>
      <trkpt lat="37.26854" lon="-7.09666">
        <ele>63.0</ele>
        <time>2020-01-18T10:22:49.129Z</time>
      </trkpt>
      <trkpt lat="37.26859167" lon="-7.09680833">
        <ele>64.0</ele>
        <time>2020-01-18T10:22:50.149Z</time>
      </trkpt>
      <trkpt lat="37.26859167" lon="-7.09680833">
        <ele>64.0</ele>
        <time>2020-01-18T10:22:51.155Z</time>
      </trkpt>
      <trkpt lat="37.26863333" lon="-7.09691667">
        <ele>64.0</ele>
        <time>2020-01-18T10:22:52.198Z</time>
      </trkpt>
      <trkpt lat="37.26863333" lon="-7.09691667">
        <ele>64.0</ele>
        <time>2020-01-18T10:22:53.136Z</time>
      </trkpt>
      <trkpt lat="37.26865833" lon="-7.09697">
        <ele>64.0</ele>
        <time>2020-01-18T10:22:54.159Z</time>
      </trkpt>
      <trkpt lat="37.26865833" lon="-7.09697">
        <ele>64.0</ele>
        <time>2020-01-18T10:22:55.131Z</time>
      </trkpt>
      <trkpt lat="37.26870167" lon="-7.09707">
        <ele>64.0</ele>
        <time>2020-01-18T10:22:56.132Z</time>
      </trkpt>
      <trkpt lat="37.26870167" lon="-7.09707">
        <ele>64.0</ele>
        <time>2020-01-18T10:22:57.140Z</time>
      </trkpt>
      <trkpt lat="37.26874667" lon="-7.09716667">
        <ele>64.0</ele>
        <time>2020-01-18T10:22:58.149Z</time>
      </trkpt>
      <trkpt lat="37.26877667" lon="-7.09727333">
        <ele>64.0</ele>
        <time>2020-01-18T10:22:59.155Z</time>
      </trkpt>
      <trkpt lat="37.26877667" lon="-7.09727333">
        <ele>64.0</ele>
        <time>2020-01-18T10:23:00.135Z</time>
      </trkpt>
      <trkpt lat="37.26879" lon="-7.09732833">
        <ele>64.0</ele>
        <time>2020-01-18T10:23:01.139Z</time>
      </trkpt>
      <trkpt lat="37.26883167" lon="-7.09743333">
        <ele>64.0</ele>
        <time>2020-01-18T10:23:02.147Z</time>
      </trkpt>
      <trkpt lat="37.26885667" lon="-7.09748">
        <ele>64.0</ele>
        <time>2020-01-18T10:23:03.159Z</time>
      </trkpt>
      <trkpt lat="37.26885667" lon="-7.09748">
        <ele>64.0</ele>
        <time>2020-01-18T10:23:04.133Z</time>
      </trkpt>
      <trkpt lat="37.26891" lon="-7.09758667">
        <ele>64.0</ele>
        <time>2020-01-18T10:23:05.143Z</time>
      </trkpt>
      <trkpt lat="37.26891" lon="-7.09758667">
        <ele>64.0</ele>
        <time>2020-01-18T10:23:06.154Z</time>
      </trkpt>
      <trkpt lat="37.26895" lon="-7.09769167">
        <ele>64.0</ele>
        <time>2020-01-18T10:23:07.164Z</time>
      </trkpt>
      <trkpt lat="37.26895" lon="-7.09769167">
        <ele>64.0</ele>
        <time>2020-01-18T10:23:08.140Z</time>
      </trkpt>
      <trkpt lat="37.268965" lon="-7.09774833">
        <ele>63.0</ele>
        <time>2020-01-18T10:23:09.166Z</time>
      </trkpt>
      <trkpt lat="37.268965" lon="-7.09774833">
        <ele>63.0</ele>
        <time>2020-01-18T10:23:10.133Z</time>
      </trkpt>
      <trkpt lat="37.26898833" lon="-7.097875">
        <ele>62.0</ele>
        <time>2020-01-18T10:23:11.158Z</time>
      </trkpt>
      <trkpt lat="37.26898833" lon="-7.097875">
        <ele>62.0</ele>
        <time>2020-01-18T10:23:12.133Z</time>
      </trkpt>
      <trkpt lat="37.26900167" lon="-7.09798667">
        <ele>62.0</ele>
        <time>2020-01-18T10:23:13.146Z</time>
      </trkpt>
      <trkpt lat="37.26901333" lon="-7.09809833">
        <ele>62.0</ele>
        <time>2020-01-18T10:23:14.158Z</time>
      </trkpt>
      <trkpt lat="37.26902" lon="-7.09815333">
        <ele>62.0</ele>
        <time>2020-01-18T10:23:15.144Z</time>
      </trkpt>
      <trkpt lat="37.26902" lon="-7.09815333">
        <ele>62.0</ele>
        <time>2020-01-18T10:23:16.142Z</time>
      </trkpt>
      <trkpt lat="37.26903667" lon="-7.09826333">
        <ele>62.0</ele>
        <time>2020-01-18T10:23:17.154Z</time>
      </trkpt>
      <trkpt lat="37.26903667" lon="-7.09826333">
        <ele>62.0</ele>
        <time>2020-01-18T10:23:18.155Z</time>
      </trkpt>
      <trkpt lat="37.26903667" lon="-7.09826333">
        <ele>62.0</ele>
        <time>2020-01-18T10:23:19.170Z</time>
      </trkpt>
      <trkpt lat="37.26907167" lon="-7.09842167">
        <ele>61.0</ele>
        <time>2020-01-18T10:23:20.164Z</time>
      </trkpt>
      <trkpt lat="37.26907167" lon="-7.09842167">
        <ele>61.0</ele>
        <time>2020-01-18T10:23:21.145Z</time>
      </trkpt>
      <trkpt lat="37.269105" lon="-7.09851667">
        <ele>61.0</ele>
        <time>2020-01-18T10:23:22.155Z</time>
      </trkpt>
      <trkpt lat="37.26912" lon="-7.09856333">
        <ele>61.0</ele>
        <time>2020-01-18T10:23:23.172Z</time>
      </trkpt>
      <trkpt lat="37.26912" lon="-7.09856333">
        <ele>61.0</ele>
        <time>2020-01-18T10:23:24.141Z</time>
      </trkpt>
      <trkpt lat="37.26915333" lon="-7.09864167">
        <ele>62.0</ele>
        <time>2020-01-18T10:23:25.148Z</time>
      </trkpt>
      <trkpt lat="37.26915333" lon="-7.09864167">
        <ele>62.0</ele>
        <time>2020-01-18T10:23:26.143Z</time>
      </trkpt>
      <trkpt lat="37.26919" lon="-7.09871667">
        <ele>61.0</ele>
        <time>2020-01-18T10:23:27.178Z</time>
      </trkpt>
      <trkpt lat="37.26920833" lon="-7.098755">
        <ele>61.0</ele>
        <time>2020-01-18T10:23:28.162Z</time>
      </trkpt>
      <trkpt lat="37.26920833" lon="-7.098755">
        <ele>61.0</ele>
        <time>2020-01-18T10:23:29.169Z</time>
      </trkpt>
      <trkpt lat="37.26920833" lon="-7.098755">
        <ele>61.0</ele>
        <time>2020-01-18T10:23:30.148Z</time>
      </trkpt>
      <trkpt lat="37.26924167" lon="-7.09883333">
        <ele>61.0</ele>
        <time>2020-01-18T10:23:31.157Z</time>
      </trkpt>
      <trkpt lat="37.26924167" lon="-7.09883333">
        <ele>61.0</ele>
        <time>2020-01-18T10:23:32.133Z</time>
      </trkpt>
      <trkpt lat="37.26926167" lon="-7.09892167">
        <ele>62.0</ele>
        <time>2020-01-18T10:23:33.133Z</time>
      </trkpt>
      <trkpt lat="37.26927333" lon="-7.09896667">
        <ele>62.0</ele>
        <time>2020-01-18T10:23:34.139Z</time>
      </trkpt>
      <trkpt lat="37.26927667" lon="-7.09903667">
        <ele>62.0</ele>
        <time>2020-01-18T10:23:35.146Z</time>
      </trkpt>
      <trkpt lat="37.26927667" lon="-7.09903667">
        <ele>62.0</ele>
        <time>2020-01-18T10:23:36.131Z</time>
      </trkpt>
      <trkpt lat="37.26927667" lon="-7.09903667">
        <ele>62.0</ele>
        <time>2020-01-18T10:23:37.139Z</time>
      </trkpt>
      <trkpt lat="37.26927167" lon="-7.09909667">
        <ele>63.0</ele>
        <time>2020-01-18T10:23:38.134Z</time>
      </trkpt>
      <trkpt lat="37.26928" lon="-7.099135">
        <ele>63.0</ele>
        <time>2020-01-18T10:23:39.162Z</time>
      </trkpt>
      <trkpt lat="37.26928833" lon="-7.09915167">
        <ele>63.0</ele>
        <time>2020-01-18T10:23:40.154Z</time>
      </trkpt>
      <trkpt lat="37.26930333" lon="-7.09917167">
        <ele>63.0</ele>
        <time>2020-01-18T10:23:41.144Z</time>
      </trkpt>
      <trkpt lat="37.26930333" lon="-7.09917167">
        <ele>63.0</ele>
        <time>2020-01-18T10:23:42.166Z</time>
      </trkpt>
      <trkpt lat="37.26930333" lon="-7.09917167">
        <ele>63.0</ele>
        <time>2020-01-18T10:23:43.133Z</time>
      </trkpt>
      <trkpt lat="37.26932667" lon="-7.099235">
        <ele>63.0</ele>
        <time>2020-01-18T10:23:44.149Z</time>
      </trkpt>
      <trkpt lat="37.26933333" lon="-7.09929">
        <ele>63.0</ele>
        <time>2020-01-18T10:23:45.161Z</time>
      </trkpt>
      <trkpt lat="37.26933333" lon="-7.09929">
        <ele>63.0</ele>
        <time>2020-01-18T10:23:46.132Z</time>
      </trkpt>
      <trkpt lat="37.26934" lon="-7.09931833">
        <ele>63.0</ele>
        <time>2020-01-18T10:23:47.165Z</time>
      </trkpt>
      <trkpt lat="37.26934" lon="-7.09931833">
        <ele>63.0</ele>
        <time>2020-01-18T10:23:48.132Z</time>
      </trkpt>
      <trkpt lat="37.26934" lon="-7.09931833">
        <ele>63.0</ele>
        <time>2020-01-18T10:23:49.143Z</time>
      </trkpt>
      <trkpt lat="37.26933833" lon="-7.09932333">
        <ele>63.0</ele>
        <time>2020-01-18T10:23:50.149Z</time>
      </trkpt>
      <trkpt lat="37.26931833" lon="-7.09945667">
        <ele>57.0</ele>
        <time>2020-01-18T10:23:51.143Z</time>
      </trkpt>
      <trkpt lat="37.26931833" lon="-7.09945667">
        <ele>57.0</ele>
        <time>2020-01-18T10:23:52.159Z</time>
      </trkpt>
      <trkpt lat="37.26933167" lon="-7.09952333">
        <ele>58.0</ele>
        <time>2020-01-18T10:23:53.140Z</time>
      </trkpt>
      <trkpt lat="37.26933167" lon="-7.09952333">
        <ele>58.0</ele>
        <time>2020-01-18T10:23:54.156Z</time>
      </trkpt>
      <trkpt lat="37.26934833" lon="-7.09959167">
        <ele>58.0</ele>
        <time>2020-01-18T10:23:55.134Z</time>
      </trkpt>
      <trkpt lat="37.26935167" lon="-7.09963333">
        <ele>58.0</ele>
        <time>2020-01-18T10:23:56.163Z</time>
      </trkpt>
      <trkpt lat="37.26935167" lon="-7.09963333">
        <ele>58.0</ele>
        <time>2020-01-18T10:23:57.166Z</time>
      </trkpt>
      <trkpt lat="37.26936333" lon="-7.09971167">
        <ele>58.0</ele>
        <time>2020-01-18T10:23:58.153Z</time>
      </trkpt>
      <trkpt lat="37.26936333" lon="-7.09971167">
        <ele>58.0</ele>
        <time>2020-01-18T10:23:59.136Z</time>
      </trkpt>
      <trkpt lat="37.269365" lon="-7.09977833">
        <ele>58.0</ele>
        <time>2020-01-18T10:24:00.150Z</time>
      </trkpt>
      <trkpt lat="37.26936333" lon="-7.09981667">
        <ele>58.0</ele>
        <time>2020-01-18T10:24:01.144Z</time>
      </trkpt>
      <trkpt lat="37.26936333" lon="-7.09981667">
        <ele>58.0</ele>
        <time>2020-01-18T10:24:02.136Z</time>
      </trkpt>
      <trkpt lat="37.269365" lon="-7.09989167">
        <ele>58.0</ele>
        <time>2020-01-18T10:24:03.169Z</time>
      </trkpt>
      <trkpt lat="37.269365" lon="-7.09989167">
        <ele>58.0</ele>
        <time>2020-01-18T10:24:04.160Z</time>
      </trkpt>
      <trkpt lat="37.26938667" lon="-7.09997167">
        <ele>58.0</ele>
        <time>2020-01-18T10:24:05.160Z</time>
      </trkpt>
      <trkpt lat="37.26938667" lon="-7.09997167">
        <ele>58.0</ele>
        <time>2020-01-18T10:24:06.131Z</time>
      </trkpt>
      <trkpt lat="37.269415" lon="-7.10005167">
        <ele>59.0</ele>
        <time>2020-01-18T10:24:07.133Z</time>
      </trkpt>
      <trkpt lat="37.269415" lon="-7.10005167">
        <ele>59.0</ele>
        <time>2020-01-18T10:24:08.133Z</time>
      </trkpt>
      <trkpt lat="37.26943833" lon="-7.10013333">
        <ele>59.0</ele>
        <time>2020-01-18T10:24:09.153Z</time>
      </trkpt>
      <trkpt lat="37.26943833" lon="-7.10013333">
        <ele>59.0</ele>
        <time>2020-01-18T10:24:10.162Z</time>
      </trkpt>
      <trkpt lat="37.26946667" lon="-7.100215">
        <ele>59.0</ele>
        <time>2020-01-18T10:24:11.133Z</time>
      </trkpt>
      <trkpt lat="37.26946667" lon="-7.100215">
        <ele>59.0</ele>
        <time>2020-01-18T10:24:12.167Z</time>
      </trkpt>
      <trkpt lat="37.26947667" lon="-7.1003">
        <ele>59.0</ele>
        <time>2020-01-18T10:24:13.166Z</time>
      </trkpt>
      <trkpt lat="37.26947667" lon="-7.1003">
        <ele>59.0</ele>
        <time>2020-01-18T10:24:14.132Z</time>
      </trkpt>
      <trkpt lat="37.26948167" lon="-7.10038833">
        <ele>60.0</ele>
        <time>2020-01-18T10:24:15.166Z</time>
      </trkpt>
      <trkpt lat="37.26948167" lon="-7.10038833">
        <ele>60.0</ele>
        <time>2020-01-18T10:24:16.146Z</time>
      </trkpt>
      <trkpt lat="37.269495" lon="-7.10048667">
        <ele>60.0</ele>
        <time>2020-01-18T10:24:17.144Z</time>
      </trkpt>
      <trkpt lat="37.269495" lon="-7.10048667">
        <ele>60.0</ele>
        <time>2020-01-18T10:24:18.148Z</time>
      </trkpt>
      <trkpt lat="37.26949333" lon="-7.10059">
        <ele>60.0</ele>
        <time>2020-01-18T10:24:19.156Z</time>
      </trkpt>
      <trkpt lat="37.26949833" lon="-7.10063333">
        <ele>61.0</ele>
        <time>2020-01-18T10:24:20.132Z</time>
      </trkpt>
      <trkpt lat="37.26949833" lon="-7.10063333">
        <ele>61.0</ele>
        <time>2020-01-18T10:24:21.150Z</time>
      </trkpt>
      <trkpt lat="37.26952" lon="-7.10072667">
        <ele>61.0</ele>
        <time>2020-01-18T10:24:22.158Z</time>
      </trkpt>
      <trkpt lat="37.26952" lon="-7.10072667">
        <ele>61.0</ele>
        <time>2020-01-18T10:24:23.169Z</time>
      </trkpt>
      <trkpt lat="37.26954167" lon="-7.10081">
        <ele>61.0</ele>
        <time>2020-01-18T10:24:24.159Z</time>
      </trkpt>
      <trkpt lat="37.26954167" lon="-7.10081">
        <ele>61.0</ele>
        <time>2020-01-18T10:24:25.147Z</time>
      </trkpt>
      <trkpt lat="37.269565" lon="-7.100895">
        <ele>61.0</ele>
        <time>2020-01-18T10:24:26.133Z</time>
      </trkpt>
      <trkpt lat="37.269565" lon="-7.100895">
        <ele>61.0</ele>
        <time>2020-01-18T10:24:27.148Z</time>
      </trkpt>
      <trkpt lat="37.26961167" lon="-7.10096667">
        <ele>62.0</ele>
        <time>2020-01-18T10:24:28.155Z</time>
      </trkpt>
      <trkpt lat="37.26961167" lon="-7.10096667">
        <ele>62.0</ele>
        <time>2020-01-18T10:24:29.130Z</time>
      </trkpt>
      <trkpt lat="37.269655" lon="-7.101025">
        <ele>62.0</ele>
        <time>2020-01-18T10:24:30.153Z</time>
      </trkpt>
      <trkpt lat="37.26968333" lon="-7.10104833">
        <ele>62.0</ele>
        <time>2020-01-18T10:24:31.137Z</time>
      </trkpt>
      <trkpt lat="37.26968333" lon="-7.10104833">
        <ele>62.0</ele>
        <time>2020-01-18T10:24:32.139Z</time>
      </trkpt>
      <trkpt lat="37.26974333" lon="-7.10110333">
        <ele>63.0</ele>
        <time>2020-01-18T10:24:33.129Z</time>
      </trkpt>
      <trkpt lat="37.26977167" lon="-7.10113167">
        <ele>63.0</ele>
        <time>2020-01-18T10:24:34.133Z</time>
      </trkpt>
      <trkpt lat="37.26977167" lon="-7.10113167">
        <ele>63.0</ele>
        <time>2020-01-18T10:24:35.159Z</time>
      </trkpt>
      <trkpt lat="37.26983333" lon="-7.10118333">
        <ele>64.0</ele>
        <time>2020-01-18T10:24:36.156Z</time>
      </trkpt>
      <trkpt lat="37.26986667" lon="-7.101205">
        <ele>64.0</ele>
        <time>2020-01-18T10:24:37.167Z</time>
      </trkpt>
      <trkpt lat="37.26986667" lon="-7.101205">
        <ele>64.0</ele>
        <time>2020-01-18T10:24:38.153Z</time>
      </trkpt>
      <trkpt lat="37.269935" lon="-7.10124667">
        <ele>64.0</ele>
        <time>2020-01-18T10:24:39.138Z</time>
      </trkpt>
      <trkpt lat="37.26996667" lon="-7.10127">
        <ele>65.0</ele>
        <time>2020-01-18T10:24:40.167Z</time>
      </trkpt>
      <trkpt lat="37.27" lon="-7.10129">
        <ele>65.0</ele>
        <time>2020-01-18T10:24:41.134Z</time>
      </trkpt>
      <trkpt lat="37.27" lon="-7.10129">
        <ele>65.0</ele>
        <time>2020-01-18T10:24:42.166Z</time>
      </trkpt>
      <trkpt lat="37.270065" lon="-7.10132333">
        <ele>66.0</ele>
        <time>2020-01-18T10:24:43.168Z</time>
      </trkpt>
      <trkpt lat="37.270065" lon="-7.10132333">
        <ele>66.0</ele>
        <time>2020-01-18T10:24:44.159Z</time>
      </trkpt>
      <trkpt lat="37.27012833" lon="-7.10135">
        <ele>67.0</ele>
        <time>2020-01-18T10:24:45.131Z</time>
      </trkpt>
      <trkpt lat="37.27012833" lon="-7.10135">
        <ele>67.0</ele>
        <time>2020-01-18T10:24:46.149Z</time>
      </trkpt>
      <trkpt lat="37.27019667" lon="-7.10137167">
        <ele>68.0</ele>
        <time>2020-01-18T10:24:47.133Z</time>
      </trkpt>
      <trkpt lat="37.27019667" lon="-7.10137167">
        <ele>68.0</ele>
        <time>2020-01-18T10:24:48.135Z</time>
      </trkpt>
      <trkpt lat="37.270255" lon="-7.10140833">
        <ele>68.0</ele>
        <time>2020-01-18T10:24:49.160Z</time>
      </trkpt>
      <trkpt lat="37.270255" lon="-7.10140833">
        <ele>68.0</ele>
        <time>2020-01-18T10:24:50.134Z</time>
      </trkpt>
      <trkpt lat="37.27031" lon="-7.10145167">
        <ele>69.0</ele>
        <time>2020-01-18T10:24:51.135Z</time>
      </trkpt>
      <trkpt lat="37.27031" lon="-7.10145167">
        <ele>69.0</ele>
        <time>2020-01-18T10:24:52.146Z</time>
      </trkpt>
      <trkpt lat="37.270365" lon="-7.10150667">
        <ele>70.0</ele>
        <time>2020-01-18T10:24:53.151Z</time>
      </trkpt>
      <trkpt lat="37.270365" lon="-7.10150667">
        <ele>70.0</ele>
        <time>2020-01-18T10:24:54.155Z</time>
      </trkpt>
      <trkpt lat="37.27040833" lon="-7.10154167">
        <ele>70.0</ele>
        <time>2020-01-18T10:24:55.156Z</time>
      </trkpt>
      <trkpt lat="37.27042833" lon="-7.10156667">
        <ele>71.0</ele>
        <time>2020-01-18T10:24:56.151Z</time>
      </trkpt>
      <trkpt lat="37.27044667" lon="-7.10159">
        <ele>71.0</ele>
        <time>2020-01-18T10:24:57.172Z</time>
      </trkpt>
      <trkpt lat="37.27044667" lon="-7.10159">
        <ele>71.0</ele>
        <time>2020-01-18T10:24:58.156Z</time>
      </trkpt>
      <trkpt lat="37.27049167" lon="-7.10162833">
        <ele>72.0</ele>
        <time>2020-01-18T10:24:59.169Z</time>
      </trkpt>
      <trkpt lat="37.27051333" lon="-7.10164833">
        <ele>72.0</ele>
        <time>2020-01-18T10:25:00.141Z</time>
      </trkpt>
      <trkpt lat="37.27053667" lon="-7.10167167">
        <ele>73.0</ele>
        <time>2020-01-18T10:25:01.161Z</time>
      </trkpt>
      <trkpt lat="37.27053667" lon="-7.10167167">
        <ele>73.0</ele>
        <time>2020-01-18T10:25:02.158Z</time>
      </trkpt>
      <trkpt lat="37.27058167" lon="-7.10172167">
        <ele>73.0</ele>
        <time>2020-01-18T10:25:03.172Z</time>
      </trkpt>
      <trkpt lat="37.27060333" lon="-7.101745">
        <ele>73.0</ele>
        <time>2020-01-18T10:25:04.153Z</time>
      </trkpt>
      <trkpt lat="37.270625" lon="-7.10176">
        <ele>73.0</ele>
        <time>2020-01-18T10:25:05.163Z</time>
      </trkpt>
      <trkpt lat="37.270625" lon="-7.10176">
        <ele>73.0</ele>
        <time>2020-01-18T10:25:06.130Z</time>
      </trkpt>
      <trkpt lat="37.27066833" lon="-7.101805">
        <ele>74.0</ele>
        <time>2020-01-18T10:25:07.135Z</time>
      </trkpt>
      <trkpt lat="37.27066833" lon="-7.101805">
        <ele>74.0</ele>
        <time>2020-01-18T10:25:08.132Z</time>
      </trkpt>
      <trkpt lat="37.27071333" lon="-7.10184333">
        <ele>75.0</ele>
        <time>2020-01-18T10:25:09.167Z</time>
      </trkpt>
      <trkpt lat="37.27071333" lon="-7.10184333">
        <ele>75.0</ele>
        <time>2020-01-18T10:25:10.154Z</time>
      </trkpt>
      <trkpt lat="37.27076333" lon="-7.10189">
        <ele>75.0</ele>
        <time>2020-01-18T10:25:11.141Z</time>
      </trkpt>
      <trkpt lat="37.27076333" lon="-7.10189">
        <ele>75.0</ele>
        <time>2020-01-18T10:25:12.166Z</time>
      </trkpt>
      <trkpt lat="37.270805" lon="-7.101945">
        <ele>75.0</ele>
        <time>2020-01-18T10:25:13.157Z</time>
      </trkpt>
      <trkpt lat="37.270805" lon="-7.101945">
        <ele>75.0</ele>
        <time>2020-01-18T10:25:14.166Z</time>
      </trkpt>
      <trkpt lat="37.27084" lon="-7.10199333">
        <ele>76.0</ele>
        <time>2020-01-18T10:25:15.150Z</time>
      </trkpt>
      <trkpt lat="37.27085667" lon="-7.10202333">
        <ele>76.0</ele>
        <time>2020-01-18T10:25:16.146Z</time>
      </trkpt>
      <trkpt lat="37.27085667" lon="-7.10202333">
        <ele>76.0</ele>
        <time>2020-01-18T10:25:17.155Z</time>
      </trkpt>
      <trkpt lat="37.27089" lon="-7.10208667">
        <ele>76.0</ele>
        <time>2020-01-18T10:25:18.157Z</time>
      </trkpt>
      <trkpt lat="37.27091167" lon="-7.10211333">
        <ele>76.0</ele>
        <time>2020-01-18T10:25:19.140Z</time>
      </trkpt>
      <trkpt lat="37.27091167" lon="-7.10211333">
        <ele>76.0</ele>
        <time>2020-01-18T10:25:20.161Z</time>
      </trkpt>
      <trkpt lat="37.27094667" lon="-7.102175">
        <ele>76.0</ele>
        <time>2020-01-18T10:25:21.153Z</time>
      </trkpt>
      <trkpt lat="37.27094667" lon="-7.102175">
        <ele>76.0</ele>
        <time>2020-01-18T10:25:22.148Z</time>
      </trkpt>
      <trkpt lat="37.27097333" lon="-7.10225333">
        <ele>77.0</ele>
        <time>2020-01-18T10:25:23.133Z</time>
      </trkpt>
      <trkpt lat="37.27097333" lon="-7.10225333">
        <ele>77.0</ele>
        <time>2020-01-18T10:25:24.147Z</time>
      </trkpt>
      <trkpt lat="37.270995" lon="-7.10234167">
        <ele>77.0</ele>
        <time>2020-01-18T10:25:25.143Z</time>
      </trkpt>
      <trkpt lat="37.271005" lon="-7.10238167">
        <ele>77.0</ele>
        <time>2020-01-18T10:25:26.169Z</time>
      </trkpt>
      <trkpt lat="37.271005" lon="-7.10238167">
        <ele>77.0</ele>
        <time>2020-01-18T10:25:27.148Z</time>
      </trkpt>
      <trkpt lat="37.271025" lon="-7.102465">
        <ele>77.0</ele>
        <time>2020-01-18T10:25:28.151Z</time>
      </trkpt>
      <trkpt lat="37.27103667" lon="-7.10250833">
        <ele>77.0</ele>
        <time>2020-01-18T10:25:29.149Z</time>
      </trkpt>
      <trkpt lat="37.27103667" lon="-7.10250833">
        <ele>77.0</ele>
        <time>2020-01-18T10:25:30.150Z</time>
      </trkpt>
      <trkpt lat="37.271055" lon="-7.10260833">
        <ele>76.0</ele>
        <time>2020-01-18T10:25:31.213Z</time>
      </trkpt>
      <trkpt lat="37.271055" lon="-7.10260833">
        <ele>76.0</ele>
        <time>2020-01-18T10:25:32.146Z</time>
      </trkpt>
      <trkpt lat="37.27107333" lon="-7.10271">
        <ele>76.0</ele>
        <time>2020-01-18T10:25:33.149Z</time>
      </trkpt>
      <trkpt lat="37.27107333" lon="-7.10271">
        <ele>76.0</ele>
        <time>2020-01-18T10:25:34.133Z</time>
      </trkpt>
      <trkpt lat="37.27108667" lon="-7.10281">
        <ele>75.0</ele>
        <time>2020-01-18T10:25:35.153Z</time>
      </trkpt>
      <trkpt lat="37.27109167" lon="-7.10286">
        <ele>75.0</ele>
        <time>2020-01-18T10:25:36.168Z</time>
      </trkpt>
      <trkpt lat="37.27109167" lon="-7.10286">
        <ele>75.0</ele>
        <time>2020-01-18T10:25:37.158Z</time>
      </trkpt>
      <trkpt lat="37.27110667" lon="-7.10295833">
        <ele>75.0</ele>
        <time>2020-01-18T10:25:38.158Z</time>
      </trkpt>
      <trkpt lat="37.27110667" lon="-7.10295833">
        <ele>75.0</ele>
        <time>2020-01-18T10:25:39.129Z</time>
      </trkpt>
      <trkpt lat="37.27111667" lon="-7.10305833">
        <ele>74.0</ele>
        <time>2020-01-18T10:25:40.289Z</time>
      </trkpt>
      <trkpt lat="37.27111667" lon="-7.10305833">
        <ele>74.0</ele>
        <time>2020-01-18T10:25:41.153Z</time>
      </trkpt>
      <trkpt lat="37.27112167" lon="-7.10316167">
        <ele>73.0</ele>
        <time>2020-01-18T10:25:42.160Z</time>
      </trkpt>
      <trkpt lat="37.271125" lon="-7.103215">
        <ele>73.0</ele>
        <time>2020-01-18T10:25:43.140Z</time>
      </trkpt>
      <trkpt lat="37.271125" lon="-7.103215">
        <ele>73.0</ele>
        <time>2020-01-18T10:25:44.147Z</time>
      </trkpt>
      <trkpt lat="37.27112667" lon="-7.10332167">
        <ele>72.0</ele>
        <time>2020-01-18T10:25:45.135Z</time>
      </trkpt>
      <trkpt lat="37.27112667" lon="-7.10332167">
        <ele>72.0</ele>
        <time>2020-01-18T10:25:46.154Z</time>
      </trkpt>
      <trkpt lat="37.27112167" lon="-7.10342333">
        <ele>71.0</ele>
        <time>2020-01-18T10:25:47.168Z</time>
      </trkpt>
      <trkpt lat="37.27112167" lon="-7.10347333">
        <ele>71.0</ele>
        <time>2020-01-18T10:25:48.130Z</time>
      </trkpt>
      <trkpt lat="37.27112167" lon="-7.10351833">
        <ele>71.0</ele>
        <time>2020-01-18T10:25:49.147Z</time>
      </trkpt>
      <trkpt lat="37.27112167" lon="-7.10351833">
        <ele>71.0</ele>
        <time>2020-01-18T10:25:50.149Z</time>
      </trkpt>
      <trkpt lat="37.271125" lon="-7.103615">
        <ele>71.0</ele>
        <time>2020-01-18T10:25:51.144Z</time>
      </trkpt>
      <trkpt lat="37.271135" lon="-7.10366">
        <ele>71.0</ele>
        <time>2020-01-18T10:25:52.137Z</time>
      </trkpt>
      <trkpt lat="37.271135" lon="-7.10366">
        <ele>71.0</ele>
        <time>2020-01-18T10:25:53.138Z</time>
      </trkpt>
      <trkpt lat="37.27116167" lon="-7.10375667">
        <ele>70.0</ele>
        <time>2020-01-18T10:25:54.159Z</time>
      </trkpt>
      <trkpt lat="37.27116167" lon="-7.10375667">
        <ele>70.0</ele>
        <time>2020-01-18T10:25:55.150Z</time>
      </trkpt>
      <trkpt lat="37.27117667" lon="-7.10387667">
        <ele>70.0</ele>
        <time>2020-01-18T10:25:56.147Z</time>
      </trkpt>
      <trkpt lat="37.27117667" lon="-7.10387667">
        <ele>70.0</ele>
        <time>2020-01-18T10:25:57.129Z</time>
      </trkpt>
      <trkpt lat="37.27117167" lon="-7.10396667">
        <ele>70.0</ele>
        <time>2020-01-18T10:25:58.159Z</time>
      </trkpt>
      <trkpt lat="37.27117167" lon="-7.10396667">
        <ele>70.0</ele>
        <time>2020-01-18T10:25:59.160Z</time>
      </trkpt>
      <trkpt lat="37.27116" lon="-7.10407667">
        <ele>70.0</ele>
        <time>2020-01-18T10:26:00.150Z</time>
      </trkpt>
      <trkpt lat="37.27115833" lon="-7.10414667">
        <ele>69.0</ele>
        <time>2020-01-18T10:26:01.144Z</time>
      </trkpt>
      <trkpt lat="37.27115833" lon="-7.10414667">
        <ele>69.0</ele>
        <time>2020-01-18T10:26:02.161Z</time>
      </trkpt>
      <trkpt lat="37.27118667" lon="-7.10431667">
        <ele>69.0</ele>
        <time>2020-01-18T10:26:03.164Z</time>
      </trkpt>
      <trkpt lat="37.271195" lon="-7.104385">
        <ele>68.0</ele>
        <time>2020-01-18T10:26:04.171Z</time>
      </trkpt>
      <trkpt lat="37.271195" lon="-7.104385">
        <ele>68.0</ele>
        <time>2020-01-18T10:26:05.167Z</time>
      </trkpt>
      <trkpt lat="37.27120167" lon="-7.10451667">
        <ele>67.0</ele>
        <time>2020-01-18T10:26:06.148Z</time>
      </trkpt>
      <trkpt lat="37.27120333" lon="-7.10458167">
        <ele>67.0</ele>
        <time>2020-01-18T10:26:07.130Z</time>
      </trkpt>
      <trkpt lat="37.27120333" lon="-7.10458167">
        <ele>67.0</ele>
        <time>2020-01-18T10:26:08.133Z</time>
      </trkpt>
      <trkpt lat="37.27123" lon="-7.10467333">
        <ele>66.0</ele>
        <time>2020-01-18T10:26:09.129Z</time>
      </trkpt>
      <trkpt lat="37.27123" lon="-7.10467333">
        <ele>66.0</ele>
        <time>2020-01-18T10:26:10.164Z</time>
      </trkpt>
      <trkpt lat="37.27125667" lon="-7.10479833">
        <ele>64.0</ele>
        <time>2020-01-18T10:26:11.168Z</time>
      </trkpt>
      <trkpt lat="37.27125667" lon="-7.10479833">
        <ele>64.0</ele>
        <time>2020-01-18T10:26:12.166Z</time>
      </trkpt>
      <trkpt lat="37.27126833" lon="-7.104935">
        <ele>63.0</ele>
        <time>2020-01-18T10:26:13.163Z</time>
      </trkpt>
      <trkpt lat="37.27126833" lon="-7.104935">
        <ele>63.0</ele>
        <time>2020-01-18T10:26:14.168Z</time>
      </trkpt>
      <trkpt lat="37.27128667" lon="-7.10508167">
        <ele>61.0</ele>
        <time>2020-01-18T10:26:15.165Z</time>
      </trkpt>
      <trkpt lat="37.271295" lon="-7.10515">
        <ele>61.0</ele>
        <time>2020-01-18T10:26:16.147Z</time>
      </trkpt>
      <trkpt lat="37.271295" lon="-7.10515">
        <ele>61.0</ele>
        <time>2020-01-18T10:26:17.162Z</time>
      </trkpt>
      <trkpt lat="37.27130667" lon="-7.10528333">
        <ele>60.0</ele>
        <time>2020-01-18T10:26:18.159Z</time>
      </trkpt>
      <trkpt lat="37.27131333" lon="-7.10535">
        <ele>59.0</ele>
        <time>2020-01-18T10:26:19.129Z</time>
      </trkpt>
      <trkpt lat="37.27131333" lon="-7.10535">
        <ele>59.0</ele>
        <time>2020-01-18T10:26:20.158Z</time>
      </trkpt>
      <trkpt lat="37.27132333" lon="-7.10549833">
        <ele>58.0</ele>
        <time>2020-01-18T10:26:21.146Z</time>
      </trkpt>
      <trkpt lat="37.27132333" lon="-7.10549833">
        <ele>58.0</ele>
        <time>2020-01-18T10:26:22.143Z</time>
      </trkpt>
      <trkpt lat="37.27135" lon="-7.10566833">
        <ele>57.0</ele>
        <time>2020-01-18T10:26:23.145Z</time>
      </trkpt>
      <trkpt lat="37.27135" lon="-7.10566833">
        <ele>57.0</ele>
        <time>2020-01-18T10:26:24.162Z</time>
      </trkpt>
      <trkpt lat="37.27141167" lon="-7.10584167">
        <ele>55.0</ele>
        <time>2020-01-18T10:26:25.165Z</time>
      </trkpt>
      <trkpt lat="37.27141167" lon="-7.10584167">
        <ele>55.0</ele>
        <time>2020-01-18T10:26:26.143Z</time>
      </trkpt>
      <trkpt lat="37.27146833" lon="-7.10600333">
        <ele>53.0</ele>
        <time>2020-01-18T10:26:27.151Z</time>
      </trkpt>
      <trkpt lat="37.27150667" lon="-7.10607167">
        <ele>53.0</ele>
        <time>2020-01-18T10:26:28.143Z</time>
      </trkpt>
      <trkpt lat="37.27150667" lon="-7.10607167">
        <ele>53.0</ele>
        <time>2020-01-18T10:26:29.149Z</time>
      </trkpt>
      <trkpt lat="37.27156167" lon="-7.10621333">
        <ele>52.0</ele>
        <time>2020-01-18T10:26:30.145Z</time>
      </trkpt>
      <trkpt lat="37.27156167" lon="-7.10621333">
        <ele>52.0</ele>
        <time>2020-01-18T10:26:31.224Z</time>
      </trkpt>
      <trkpt lat="37.27158333" lon="-7.106355">
        <ele>51.0</ele>
        <time>2020-01-18T10:26:32.156Z</time>
      </trkpt>
      <trkpt lat="37.27158333" lon="-7.106355">
        <ele>51.0</ele>
        <time>2020-01-18T10:26:33.137Z</time>
      </trkpt>
      <trkpt lat="37.27159333" lon="-7.10645667">
        <ele>49.0</ele>
        <time>2020-01-18T10:26:34.134Z</time>
      </trkpt>
      <trkpt lat="37.27159333" lon="-7.10645667">
        <ele>49.0</ele>
        <time>2020-01-18T10:26:35.130Z</time>
      </trkpt>
      <trkpt lat="37.27160667" lon="-7.10652667">
        <ele>48.0</ele>
        <time>2020-01-18T10:26:36.136Z</time>
      </trkpt>
      <trkpt lat="37.27160667" lon="-7.10652667">
        <ele>48.0</ele>
        <time>2020-01-18T10:26:37.158Z</time>
      </trkpt>
      <trkpt lat="37.27162167" lon="-7.10656833">
        <ele>46.0</ele>
        <time>2020-01-18T10:26:38.168Z</time>
      </trkpt>
      <trkpt lat="37.27162333" lon="-7.10656833">
        <ele>46.0</ele>
        <time>2020-01-18T10:26:39.165Z</time>
      </trkpt>
      <trkpt lat="37.27162333" lon="-7.10656833">
        <ele>46.0</ele>
        <time>2020-01-18T10:26:40.166Z</time>
      </trkpt>
      <trkpt lat="37.27163" lon="-7.10656167">
        <ele>45.0</ele>
        <time>2020-01-18T10:26:41.160Z</time>
      </trkpt>
      <trkpt lat="37.27163" lon="-7.10656167">
        <ele>45.0</ele>
        <time>2020-01-18T10:26:42.134Z</time>
      </trkpt>
      <trkpt lat="37.27163" lon="-7.10656167">
        <ele>45.0</ele>
        <time>2020-01-18T10:26:43.132Z</time>
      </trkpt>
      <trkpt lat="37.27158167" lon="-7.10641167">
        <ele>42.0</ele>
        <time>2020-01-18T10:26:44.133Z</time>
      </trkpt>
      <trkpt lat="37.27158167" lon="-7.1064">
        <ele>42.0</ele>
        <time>2020-01-18T10:26:45.172Z</time>
      </trkpt>
      <trkpt lat="37.27158167" lon="-7.1064">
        <ele>42.0</ele>
        <time>2020-01-18T10:26:46.131Z</time>
      </trkpt>
      <trkpt lat="37.27158" lon="-7.10637833">
        <ele>42.0</ele>
        <time>2020-01-18T10:26:47.167Z</time>
      </trkpt>
      <trkpt lat="37.27152667" lon="-7.10624833">
        <ele>45.0</ele>
        <time>2020-01-18T10:26:48.129Z</time>
      </trkpt>
      <trkpt lat="37.27151667" lon="-7.10624">
        <ele>45.0</ele>
        <time>2020-01-18T10:26:49.137Z</time>
      </trkpt>
      <trkpt lat="37.27151667" lon="-7.10624">
        <ele>45.0</ele>
        <time>2020-01-18T10:26:50.144Z</time>
      </trkpt>
      <trkpt lat="37.2715" lon="-7.10622">
        <ele>45.0</ele>
        <time>2020-01-18T10:26:51.156Z</time>
      </trkpt>
      <trkpt lat="37.27145667" lon="-7.10615333">
        <ele>45.0</ele>
        <time>2020-01-18T10:26:52.178Z</time>
      </trkpt>
      <trkpt lat="37.27145667" lon="-7.10615333">
        <ele>45.0</ele>
        <time>2020-01-18T10:26:53.153Z</time>
      </trkpt>
      <trkpt lat="37.27144" lon="-7.10612667">
        <ele>45.0</ele>
        <time>2020-01-18T10:26:54.158Z</time>
      </trkpt>
      <trkpt lat="37.27144" lon="-7.10612667">
        <ele>45.0</ele>
        <time>2020-01-18T10:26:55.164Z</time>
      </trkpt>
      <trkpt lat="37.271435" lon="-7.10609833">
        <ele>45.0</ele>
        <time>2020-01-18T10:26:56.205Z</time>
      </trkpt>
      <trkpt lat="37.271435" lon="-7.10609833">
        <ele>45.0</ele>
        <time>2020-01-18T10:26:57.135Z</time>
      </trkpt>
      <trkpt lat="37.27142833" lon="-7.10606667">
        <ele>45.0</ele>
        <time>2020-01-18T10:26:58.144Z</time>
      </trkpt>
      <trkpt lat="37.27142833" lon="-7.10606667">
        <ele>45.0</ele>
        <time>2020-01-18T10:26:59.143Z</time>
      </trkpt>
      <trkpt lat="37.27142167" lon="-7.106035">
        <ele>45.0</ele>
        <time>2020-01-18T10:27:00.154Z</time>
      </trkpt>
      <trkpt lat="37.27141833" lon="-7.10602">
        <ele>45.0</ele>
        <time>2020-01-18T10:27:01.139Z</time>
      </trkpt>
      <trkpt lat="37.27141333" lon="-7.10600667">
        <ele>45.0</ele>
        <time>2020-01-18T10:27:02.133Z</time>
      </trkpt>
      <trkpt lat="37.27141333" lon="-7.10600667">
        <ele>45.0</ele>
        <time>2020-01-18T10:27:03.143Z</time>
      </trkpt>
      <trkpt lat="37.27141167" lon="-7.10596833">
        <ele>45.0</ele>
        <time>2020-01-18T10:27:04.157Z</time>
      </trkpt>
      <trkpt lat="37.27140833" lon="-7.10595167">
        <ele>45.0</ele>
        <time>2020-01-18T10:27:05.139Z</time>
      </trkpt>
      <trkpt lat="37.27140833" lon="-7.10595167">
        <ele>45.0</ele>
        <time>2020-01-18T10:27:06.132Z</time>
      </trkpt>
      <trkpt lat="37.271405" lon="-7.10592167">
        <ele>45.0</ele>
        <time>2020-01-18T10:27:07.144Z</time>
      </trkpt>
      <trkpt lat="37.27140667" lon="-7.10590667">
        <ele>46.0</ele>
        <time>2020-01-18T10:27:08.156Z</time>
      </trkpt>
      <trkpt lat="37.27140667" lon="-7.10590667">
        <ele>46.0</ele>
        <time>2020-01-18T10:27:09.160Z</time>
      </trkpt>
      <trkpt lat="37.2714" lon="-7.10587167">
        <ele>46.0</ele>
        <time>2020-01-18T10:27:10.168Z</time>
      </trkpt>
      <trkpt lat="37.27139333" lon="-7.10585667">
        <ele>46.0</ele>
        <time>2020-01-18T10:27:11.144Z</time>
      </trkpt>
      <trkpt lat="37.27139333" lon="-7.10585667">
        <ele>46.0</ele>
        <time>2020-01-18T10:27:12.152Z</time>
      </trkpt>
      <trkpt lat="37.27138833" lon="-7.10582667">
        <ele>47.0</ele>
        <time>2020-01-18T10:27:13.163Z</time>
      </trkpt>
      <trkpt lat="37.27138667" lon="-7.10581167">
        <ele>47.0</ele>
        <time>2020-01-18T10:27:14.141Z</time>
      </trkpt>
      <trkpt lat="37.27138667" lon="-7.10581167">
        <ele>47.0</ele>
        <time>2020-01-18T10:27:15.136Z</time>
      </trkpt>
      <trkpt lat="37.27138" lon="-7.10578333">
        <ele>47.0</ele>
        <time>2020-01-18T10:27:16.148Z</time>
      </trkpt>
      <trkpt lat="37.27138" lon="-7.10578333">
        <ele>47.0</ele>
        <time>2020-01-18T10:27:17.153Z</time>
      </trkpt>
      <trkpt lat="37.27137167" lon="-7.10575167">
        <ele>47.0</ele>
        <time>2020-01-18T10:27:18.161Z</time>
      </trkpt>
      <trkpt lat="37.27137167" lon="-7.10575167">
        <ele>47.0</ele>
        <time>2020-01-18T10:27:19.139Z</time>
      </trkpt>
      <trkpt lat="37.27136333" lon="-7.105725">
        <ele>48.0</ele>
        <time>2020-01-18T10:27:20.161Z</time>
      </trkpt>
      <trkpt lat="37.27135667" lon="-7.105715">
        <ele>48.0</ele>
        <time>2020-01-18T10:27:21.149Z</time>
      </trkpt>
      <trkpt lat="37.27135667" lon="-7.105715">
        <ele>48.0</ele>
        <time>2020-01-18T10:27:22.146Z</time>
      </trkpt>
      <trkpt lat="37.27134333" lon="-7.10569">
        <ele>49.0</ele>
        <time>2020-01-18T10:27:23.155Z</time>
      </trkpt>
      <trkpt lat="37.27134333" lon="-7.10569">
        <ele>49.0</ele>
        <time>2020-01-18T10:27:24.147Z</time>
      </trkpt>
      <trkpt lat="37.27132333" lon="-7.10567333">
        <ele>49.0</ele>
        <time>2020-01-18T10:27:25.156Z</time>
      </trkpt>
      <trkpt lat="37.271315" lon="-7.10566167">
        <ele>49.0</ele>
        <time>2020-01-18T10:27:26.156Z</time>
      </trkpt>
      <trkpt lat="37.271315" lon="-7.10566167">
        <ele>49.0</ele>
        <time>2020-01-18T10:27:27.143Z</time>
      </trkpt>
      <trkpt lat="37.27130667" lon="-7.10563167">
        <ele>50.0</ele>
        <time>2020-01-18T10:27:28.159Z</time>
      </trkpt>
      <trkpt lat="37.27130667" lon="-7.10563167">
        <ele>50.0</ele>
        <time>2020-01-18T10:27:29.139Z</time>
      </trkpt>
      <trkpt lat="37.27130667" lon="-7.10563167">
        <ele>50.0</ele>
        <time>2020-01-18T10:27:30.148Z</time>
      </trkpt>
      <trkpt lat="37.271305" lon="-7.10560333">
        <ele>50.0</ele>
        <time>2020-01-18T10:27:31.134Z</time>
      </trkpt>
      <trkpt lat="37.27130667" lon="-7.10557333">
        <ele>50.0</ele>
        <time>2020-01-18T10:27:32.148Z</time>
      </trkpt>
      <trkpt lat="37.27130667" lon="-7.10557333">
        <ele>50.0</ele>
        <time>2020-01-18T10:27:33.162Z</time>
      </trkpt>
      <trkpt lat="37.27131" lon="-7.105535">
        <ele>50.0</ele>
        <time>2020-01-18T10:27:34.141Z</time>
      </trkpt>
      <trkpt lat="37.27130833" lon="-7.10552167">
        <ele>50.0</ele>
        <time>2020-01-18T10:27:35.152Z</time>
      </trkpt>
      <trkpt lat="37.27130833" lon="-7.10552167">
        <ele>50.0</ele>
        <time>2020-01-18T10:27:36.146Z</time>
      </trkpt>
      <trkpt lat="37.27130667" lon="-7.105495">
        <ele>51.0</ele>
        <time>2020-01-18T10:27:37.154Z</time>
      </trkpt>
      <trkpt lat="37.271305" lon="-7.105485">
        <ele>51.0</ele>
        <time>2020-01-18T10:27:38.164Z</time>
      </trkpt>
      <trkpt lat="37.271305" lon="-7.105485">
        <ele>51.0</ele>
        <time>2020-01-18T10:27:39.136Z</time>
      </trkpt>
      <trkpt lat="37.27130667" lon="-7.10546">
        <ele>51.0</ele>
        <time>2020-01-18T10:27:40.153Z</time>
      </trkpt>
      <trkpt lat="37.27130667" lon="-7.10544667">
        <ele>51.0</ele>
        <time>2020-01-18T10:27:41.165Z</time>
      </trkpt>
      <trkpt lat="37.27130667" lon="-7.10544667">
        <ele>51.0</ele>
        <time>2020-01-18T10:27:42.143Z</time>
      </trkpt>
      <trkpt lat="37.27131" lon="-7.10540833">
        <ele>51.0</ele>
        <time>2020-01-18T10:27:43.152Z</time>
      </trkpt>
      <trkpt lat="37.27130667" lon="-7.10539333">
        <ele>51.0</ele>
        <time>2020-01-18T10:27:44.164Z</time>
      </trkpt>
      <trkpt lat="37.27130667" lon="-7.10539333">
        <ele>51.0</ele>
        <time>2020-01-18T10:27:45.165Z</time>
      </trkpt>
      <trkpt lat="37.271295" lon="-7.10537333">
        <ele>51.0</ele>
        <time>2020-01-18T10:27:46.135Z</time>
      </trkpt>
      <trkpt lat="37.271295" lon="-7.10537333">
        <ele>51.0</ele>
        <time>2020-01-18T10:27:47.133Z</time>
      </trkpt>
      <trkpt lat="37.271285" lon="-7.105355">
        <ele>51.0</ele>
        <time>2020-01-18T10:27:48.142Z</time>
      </trkpt>
      <trkpt lat="37.271285" lon="-7.105355">
        <ele>51.0</ele>
        <time>2020-01-18T10:27:49.150Z</time>
      </trkpt>
      <trkpt lat="37.271285" lon="-7.10534833">
        <ele>51.0</ele>
        <time>2020-01-18T10:27:50.171Z</time>
      </trkpt>
      <trkpt lat="37.271285" lon="-7.10534833">
        <ele>51.0</ele>
        <time>2020-01-18T10:27:51.138Z</time>
      </trkpt>
      <trkpt lat="37.27131833" lon="-7.10551833">
        <ele>50.0</ele>
        <time>2020-01-18T10:27:52.139Z</time>
      </trkpt>
      <trkpt lat="37.27132333" lon="-7.105565">
        <ele>49.0</ele>
        <time>2020-01-18T10:27:53.153Z</time>
      </trkpt>
      <trkpt lat="37.27132333" lon="-7.105565">
        <ele>49.0</ele>
        <time>2020-01-18T10:27:54.135Z</time>
      </trkpt>
      <trkpt lat="37.27134333" lon="-7.10567">
        <ele>49.0</ele>
        <time>2020-01-18T10:27:55.154Z</time>
      </trkpt>
      <trkpt lat="37.27134333" lon="-7.10567">
        <ele>49.0</ele>
        <time>2020-01-18T10:27:56.167Z</time>
      </trkpt>
      <trkpt lat="37.27138167" lon="-7.10576833">
        <ele>48.0</ele>
        <time>2020-01-18T10:27:57.149Z</time>
      </trkpt>
      <trkpt lat="37.27140167" lon="-7.10582167">
        <ele>48.0</ele>
        <time>2020-01-18T10:27:58.129Z</time>
      </trkpt>
      <trkpt lat="37.27140167" lon="-7.10582167">
        <ele>48.0</ele>
        <time>2020-01-18T10:27:59.149Z</time>
      </trkpt>
      <trkpt lat="37.27143833" lon="-7.10593667">
        <ele>47.0</ele>
        <time>2020-01-18T10:28:00.149Z</time>
      </trkpt>
      <trkpt lat="37.27143833" lon="-7.10593667">
        <ele>47.0</ele>
        <time>2020-01-18T10:28:01.160Z</time>
      </trkpt>
      <trkpt lat="37.27148833" lon="-7.10605167">
        <ele>47.0</ele>
        <time>2020-01-18T10:28:02.159Z</time>
      </trkpt>
      <trkpt lat="37.27148833" lon="-7.10605167">
        <ele>47.0</ele>
        <time>2020-01-18T10:28:03.164Z</time>
      </trkpt>
      <trkpt lat="37.27155167" lon="-7.106155">
        <ele>46.0</ele>
        <time>2020-01-18T10:28:04.168Z</time>
      </trkpt>
      <trkpt lat="37.27155167" lon="-7.106155">
        <ele>46.0</ele>
        <time>2020-01-18T10:28:05.140Z</time>
      </trkpt>
      <trkpt lat="37.27159333" lon="-7.10625833">
        <ele>45.0</ele>
        <time>2020-01-18T10:28:06.162Z</time>
      </trkpt>
      <trkpt lat="37.27160167" lon="-7.10631">
        <ele>45.0</ele>
        <time>2020-01-18T10:28:07.129Z</time>
      </trkpt>
      <trkpt lat="37.27160167" lon="-7.10631">
        <ele>45.0</ele>
        <time>2020-01-18T10:28:08.145Z</time>
      </trkpt>
      <trkpt lat="37.27160333" lon="-7.10641167">
        <ele>44.0</ele>
        <time>2020-01-18T10:28:09.134Z</time>
      </trkpt>
      <trkpt lat="37.27161" lon="-7.10645333">
        <ele>44.0</ele>
        <time>2020-01-18T10:28:10.162Z</time>
      </trkpt>
      <trkpt lat="37.27161" lon="-7.10645333">
        <ele>44.0</ele>
        <time>2020-01-18T10:28:11.168Z</time>
      </trkpt>
      <trkpt lat="37.27161667" lon="-7.10655333">
        <ele>43.0</ele>
        <time>2020-01-18T10:28:12.164Z</time>
      </trkpt>
      <trkpt lat="37.27161667" lon="-7.10655333">
        <ele>43.0</ele>
        <time>2020-01-18T10:28:13.129Z</time>
      </trkpt>
      <trkpt lat="37.271625" lon="-7.106665">
        <ele>43.0</ele>
        <time>2020-01-18T10:28:14.129Z</time>
      </trkpt>
      <trkpt lat="37.27161667" lon="-7.10672167">
        <ele>42.0</ele>
        <time>2020-01-18T10:28:15.143Z</time>
      </trkpt>
      <trkpt lat="37.27161" lon="-7.10677833">
        <ele>42.0</ele>
        <time>2020-01-18T10:28:16.129Z</time>
      </trkpt>
      <trkpt lat="37.27161" lon="-7.10677833">
        <ele>42.0</ele>
        <time>2020-01-18T10:28:17.148Z</time>
      </trkpt>
      <trkpt lat="37.27159167" lon="-7.10689167">
        <ele>41.0</ele>
        <time>2020-01-18T10:28:18.145Z</time>
      </trkpt>
      <trkpt lat="37.27158333" lon="-7.10695167">
        <ele>41.0</ele>
        <time>2020-01-18T10:28:19.149Z</time>
      </trkpt>
      <trkpt lat="37.27158333" lon="-7.10695167">
        <ele>41.0</ele>
        <time>2020-01-18T10:28:20.162Z</time>
      </trkpt>
      <trkpt lat="37.27156667" lon="-7.10707333">
        <ele>40.0</ele>
        <time>2020-01-18T10:28:21.148Z</time>
      </trkpt>
      <trkpt lat="37.27156667" lon="-7.10707333">
        <ele>40.0</ele>
        <time>2020-01-18T10:28:22.158Z</time>
      </trkpt>
      <trkpt lat="37.271545" lon="-7.10720333">
        <ele>40.0</ele>
        <time>2020-01-18T10:28:23.159Z</time>
      </trkpt>
      <trkpt lat="37.271545" lon="-7.10720333">
        <ele>40.0</ele>
        <time>2020-01-18T10:28:24.132Z</time>
      </trkpt>
      <trkpt lat="37.27154167" lon="-7.10734167">
        <ele>39.0</ele>
        <time>2020-01-18T10:28:25.151Z</time>
      </trkpt>
      <trkpt lat="37.27154167" lon="-7.10734167">
        <ele>39.0</ele>
        <time>2020-01-18T10:28:26.168Z</time>
      </trkpt>
      <trkpt lat="37.27154333" lon="-7.10747333">
        <ele>39.0</ele>
        <time>2020-01-18T10:28:27.157Z</time>
      </trkpt>
      <trkpt lat="37.27154333" lon="-7.10747333">
        <ele>39.0</ele>
        <time>2020-01-18T10:28:28.131Z</time>
      </trkpt>
      <trkpt lat="37.27153833" lon="-7.107595">
        <ele>38.0</ele>
        <time>2020-01-18T10:28:29.129Z</time>
      </trkpt>
      <trkpt lat="37.27153833" lon="-7.107595">
        <ele>38.0</ele>
        <time>2020-01-18T10:28:30.142Z</time>
      </trkpt>
      <trkpt lat="37.27154667" lon="-7.10773167">
        <ele>38.0</ele>
        <time>2020-01-18T10:28:31.156Z</time>
      </trkpt>
      <trkpt lat="37.27155167" lon="-7.10780167">
        <ele>38.0</ele>
        <time>2020-01-18T10:28:32.137Z</time>
      </trkpt>
      <trkpt lat="37.27155167" lon="-7.10780167">
        <ele>38.0</ele>
        <time>2020-01-18T10:28:33.157Z</time>
      </trkpt>
      <trkpt lat="37.271565" lon="-7.10793833">
        <ele>37.0</ele>
        <time>2020-01-18T10:28:34.157Z</time>
      </trkpt>
      <trkpt lat="37.271565" lon="-7.10793833">
        <ele>37.0</ele>
        <time>2020-01-18T10:28:35.166Z</time>
      </trkpt>
      <trkpt lat="37.27159" lon="-7.10805833">
        <ele>36.0</ele>
        <time>2020-01-18T10:28:36.140Z</time>
      </trkpt>
      <trkpt lat="37.27159" lon="-7.10805833">
        <ele>36.0</ele>
        <time>2020-01-18T10:28:37.148Z</time>
      </trkpt>
      <trkpt lat="37.27160667" lon="-7.108175">
        <ele>36.0</ele>
        <time>2020-01-18T10:28:38.148Z</time>
      </trkpt>
      <trkpt lat="37.27160667" lon="-7.108175">
        <ele>36.0</ele>
        <time>2020-01-18T10:28:39.159Z</time>
      </trkpt>
      <trkpt lat="37.27159833" lon="-7.10832">
        <ele>35.0</ele>
        <time>2020-01-18T10:28:40.129Z</time>
      </trkpt>
      <trkpt lat="37.27159833" lon="-7.10832">
        <ele>35.0</ele>
        <time>2020-01-18T10:28:41.131Z</time>
      </trkpt>
      <trkpt lat="37.27157833" lon="-7.108485">
        <ele>35.0</ele>
        <time>2020-01-18T10:28:42.129Z</time>
      </trkpt>
      <trkpt lat="37.27157333" lon="-7.10856833">
        <ele>35.0</ele>
        <time>2020-01-18T10:28:43.161Z</time>
      </trkpt>
      <trkpt lat="37.27157333" lon="-7.10856833">
        <ele>35.0</ele>
        <time>2020-01-18T10:28:44.137Z</time>
      </trkpt>
      <trkpt lat="37.27157" lon="-7.10872833">
        <ele>34.0</ele>
        <time>2020-01-18T10:28:45.149Z</time>
      </trkpt>
      <trkpt lat="37.27157167" lon="-7.10880667">
        <ele>34.0</ele>
        <time>2020-01-18T10:28:46.159Z</time>
      </trkpt>
      <trkpt lat="37.27157167" lon="-7.10880667">
        <ele>34.0</ele>
        <time>2020-01-18T10:28:47.131Z</time>
      </trkpt>
      <trkpt lat="37.271555" lon="-7.10896333">
        <ele>34.0</ele>
        <time>2020-01-18T10:28:48.137Z</time>
      </trkpt>
      <trkpt lat="37.27154167" lon="-7.10903667">
        <ele>34.0</ele>
        <time>2020-01-18T10:28:49.158Z</time>
      </trkpt>
      <trkpt lat="37.27154167" lon="-7.10903667">
        <ele>34.0</ele>
        <time>2020-01-18T10:28:50.139Z</time>
      </trkpt>
      <trkpt lat="37.27151333" lon="-7.10918667">
        <ele>33.0</ele>
        <time>2020-01-18T10:28:51.131Z</time>
      </trkpt>
      <trkpt lat="37.27151333" lon="-7.10918667">
        <ele>33.0</ele>
        <time>2020-01-18T10:28:52.160Z</time>
      </trkpt>
      <trkpt lat="37.27148667" lon="-7.10934333">
        <ele>33.0</ele>
        <time>2020-01-18T10:28:53.129Z</time>
      </trkpt>
      <trkpt lat="37.27148667" lon="-7.10934333">
        <ele>33.0</ele>
        <time>2020-01-18T10:28:54.150Z</time>
      </trkpt>
      <trkpt lat="37.27143667" lon="-7.10949667">
        <ele>33.0</ele>
        <time>2020-01-18T10:28:55.145Z</time>
      </trkpt>
      <trkpt lat="37.27141167" lon="-7.10957167">
        <ele>33.0</ele>
        <time>2020-01-18T10:28:56.149Z</time>
      </trkpt>
      <trkpt lat="37.27141167" lon="-7.10957167">
        <ele>33.0</ele>
        <time>2020-01-18T10:28:57.137Z</time>
      </trkpt>
      <trkpt lat="37.27138" lon="-7.10969333">
        <ele>33.0</ele>
        <time>2020-01-18T10:28:58.149Z</time>
      </trkpt>
      <trkpt lat="37.27138" lon="-7.10969333">
        <ele>33.0</ele>
        <time>2020-01-18T10:28:59.158Z</time>
      </trkpt>
      <trkpt lat="37.27135" lon="-7.109815">
        <ele>33.0</ele>
        <time>2020-01-18T10:29:00.142Z</time>
      </trkpt>
      <trkpt lat="37.27135" lon="-7.109815">
        <ele>33.0</ele>
        <time>2020-01-18T10:29:01.154Z</time>
      </trkpt>
      <trkpt lat="37.27133667" lon="-7.10993833">
        <ele>33.0</ele>
        <time>2020-01-18T10:29:02.161Z</time>
      </trkpt>
      <trkpt lat="37.27133667" lon="-7.10993833">
        <ele>33.0</ele>
        <time>2020-01-18T10:29:03.142Z</time>
      </trkpt>
      <trkpt lat="37.27131" lon="-7.11006">
        <ele>34.0</ele>
        <time>2020-01-18T10:29:04.129Z</time>
      </trkpt>
      <trkpt lat="37.27131" lon="-7.11006">
        <ele>34.0</ele>
        <time>2020-01-18T10:29:05.168Z</time>
      </trkpt>
      <trkpt lat="37.27126167" lon="-7.11017333">
        <ele>34.0</ele>
        <time>2020-01-18T10:29:06.129Z</time>
      </trkpt>
      <trkpt lat="37.271225" lon="-7.110225">
        <ele>34.0</ele>
        <time>2020-01-18T10:29:07.135Z</time>
      </trkpt>
      <trkpt lat="37.271225" lon="-7.110225">
        <ele>34.0</ele>
        <time>2020-01-18T10:29:08.159Z</time>
      </trkpt>
      <trkpt lat="37.271185" lon="-7.11034">
        <ele>35.0</ele>
        <time>2020-01-18T10:29:09.148Z</time>
      </trkpt>
      <trkpt lat="37.27116167" lon="-7.11039333">
        <ele>35.0</ele>
        <time>2020-01-18T10:29:10.148Z</time>
      </trkpt>
      <trkpt lat="37.27116167" lon="-7.11039333">
        <ele>35.0</ele>
        <time>2020-01-18T10:29:11.154Z</time>
      </trkpt>
      <trkpt lat="37.27111167" lon="-7.11051">
        <ele>35.0</ele>
        <time>2020-01-18T10:29:12.166Z</time>
      </trkpt>
      <trkpt lat="37.27111167" lon="-7.11051">
        <ele>35.0</ele>
        <time>2020-01-18T10:29:13.131Z</time>
      </trkpt>
      <trkpt lat="37.271065" lon="-7.110625">
        <ele>35.0</ele>
        <time>2020-01-18T10:29:14.129Z</time>
      </trkpt>
      <trkpt lat="37.271065" lon="-7.110625">
        <ele>35.0</ele>
        <time>2020-01-18T10:29:15.141Z</time>
      </trkpt>
      <trkpt lat="37.27102833" lon="-7.11073">
        <ele>36.0</ele>
        <time>2020-01-18T10:29:16.147Z</time>
      </trkpt>
      <trkpt lat="37.27102833" lon="-7.11073">
        <ele>36.0</ele>
        <time>2020-01-18T10:29:17.161Z</time>
      </trkpt>
      <trkpt lat="37.27099167" lon="-7.11084">
        <ele>37.0</ele>
        <time>2020-01-18T10:29:18.167Z</time>
      </trkpt>
      <trkpt lat="37.27099167" lon="-7.11084">
        <ele>37.0</ele>
        <time>2020-01-18T10:29:19.134Z</time>
      </trkpt>
      <trkpt lat="37.27095667" lon="-7.11096667">
        <ele>37.0</ele>
        <time>2020-01-18T10:29:20.141Z</time>
      </trkpt>
      <trkpt lat="37.27095667" lon="-7.11096667">
        <ele>37.0</ele>
        <time>2020-01-18T10:29:21.152Z</time>
      </trkpt>
      <trkpt lat="37.270905" lon="-7.11110667">
        <ele>38.0</ele>
        <time>2020-01-18T10:29:22.149Z</time>
      </trkpt>
      <trkpt lat="37.27087" lon="-7.11118833">
        <ele>37.0</ele>
        <time>2020-01-18T10:29:23.149Z</time>
      </trkpt>
      <trkpt lat="37.27087" lon="-7.11118833">
        <ele>37.0</ele>
        <time>2020-01-18T10:29:24.157Z</time>
      </trkpt>
      <trkpt lat="37.270795" lon="-7.1113">
        <ele>38.0</ele>
        <time>2020-01-18T10:29:25.159Z</time>
      </trkpt>
      <trkpt lat="37.27076167" lon="-7.11135333">
        <ele>38.0</ele>
        <time>2020-01-18T10:29:26.163Z</time>
      </trkpt>
      <trkpt lat="37.27076167" lon="-7.11135333">
        <ele>38.0</ele>
        <time>2020-01-18T10:29:27.135Z</time>
      </trkpt>
      <trkpt lat="37.270705" lon="-7.11146333">
        <ele>38.0</ele>
        <time>2020-01-18T10:29:28.131Z</time>
      </trkpt>
      <trkpt lat="37.27068333" lon="-7.11151667">
        <ele>38.0</ele>
        <time>2020-01-18T10:29:29.137Z</time>
      </trkpt>
      <trkpt lat="37.27065833" lon="-7.111565">
        <ele>38.0</ele>
        <time>2020-01-18T10:29:30.129Z</time>
      </trkpt>
      <trkpt lat="37.27065833" lon="-7.111565">
        <ele>38.0</ele>
        <time>2020-01-18T10:29:31.383Z</time>
      </trkpt>
      <trkpt lat="37.27063" lon="-7.11167">
        <ele>39.0</ele>
        <time>2020-01-18T10:29:32.139Z</time>
      </trkpt>
      <trkpt lat="37.27063" lon="-7.11167">
        <ele>39.0</ele>
        <time>2020-01-18T10:29:33.152Z</time>
      </trkpt>
      <trkpt lat="37.27063" lon="-7.11180167">
        <ele>39.0</ele>
        <time>2020-01-18T10:29:34.149Z</time>
      </trkpt>
      <trkpt lat="37.27063" lon="-7.11180167">
        <ele>39.0</ele>
        <time>2020-01-18T10:29:35.161Z</time>
      </trkpt>
      <trkpt lat="37.27061333" lon="-7.11192833">
        <ele>40.0</ele>
        <time>2020-01-18T10:29:36.145Z</time>
      </trkpt>
      <trkpt lat="37.27061333" lon="-7.11192833">
        <ele>40.0</ele>
        <time>2020-01-18T10:29:37.168Z</time>
      </trkpt>
      <trkpt lat="37.27056333" lon="-7.11204333">
        <ele>40.0</ele>
        <time>2020-01-18T10:29:38.129Z</time>
      </trkpt>
      <trkpt lat="37.27053" lon="-7.112095">
        <ele>40.0</ele>
        <time>2020-01-18T10:29:39.139Z</time>
      </trkpt>
      <trkpt lat="37.27048333" lon="-7.11213333">
        <ele>40.0</ele>
        <time>2020-01-18T10:29:40.146Z</time>
      </trkpt>
      <trkpt lat="37.27048333" lon="-7.11213333">
        <ele>40.0</ele>
        <time>2020-01-18T10:29:41.168Z</time>
      </trkpt>
      <trkpt lat="37.270395" lon="-7.11219833">
        <ele>40.0</ele>
        <time>2020-01-18T10:29:42.165Z</time>
      </trkpt>
      <trkpt lat="37.27035333" lon="-7.11223333">
        <ele>40.0</ele>
        <time>2020-01-18T10:29:43.159Z</time>
      </trkpt>
      <trkpt lat="37.27035333" lon="-7.11223333">
        <ele>40.0</ele>
        <time>2020-01-18T10:29:44.169Z</time>
      </trkpt>
      <trkpt lat="37.27027333" lon="-7.11229167">
        <ele>40.0</ele>
        <time>2020-01-18T10:29:45.142Z</time>
      </trkpt>
      <trkpt lat="37.270225" lon="-7.112315">
        <ele>40.0</ele>
        <time>2020-01-18T10:29:46.143Z</time>
      </trkpt>
      <trkpt lat="37.270225" lon="-7.112315">
        <ele>40.0</ele>
        <time>2020-01-18T10:29:47.168Z</time>
      </trkpt>
      <trkpt lat="37.27011667" lon="-7.11231167">
        <ele>40.0</ele>
        <time>2020-01-18T10:29:48.269Z</time>
      </trkpt>
      <trkpt lat="37.27011667" lon="-7.11231167">
        <ele>40.0</ele>
        <time>2020-01-18T10:29:49.129Z</time>
      </trkpt>
      <trkpt lat="37.27001167" lon="-7.11230167">
        <ele>41.0</ele>
        <time>2020-01-18T10:29:50.129Z</time>
      </trkpt>
      <trkpt lat="37.27001167" lon="-7.11230167">
        <ele>41.0</ele>
        <time>2020-01-18T10:29:51.148Z</time>
      </trkpt>
      <trkpt lat="37.269915" lon="-7.11227333">
        <ele>41.0</ele>
        <time>2020-01-18T10:29:52.135Z</time>
      </trkpt>
      <trkpt lat="37.269915" lon="-7.11227333">
        <ele>41.0</ele>
        <time>2020-01-18T10:29:53.146Z</time>
      </trkpt>
      <trkpt lat="37.26981167" lon="-7.11224833">
        <ele>40.0</ele>
        <time>2020-01-18T10:29:54.139Z</time>
      </trkpt>
      <trkpt lat="37.26981167" lon="-7.11224833">
        <ele>40.0</ele>
        <time>2020-01-18T10:29:55.151Z</time>
      </trkpt>
      <trkpt lat="37.26970167" lon="-7.11223167">
        <ele>40.0</ele>
        <time>2020-01-18T10:29:56.159Z</time>
      </trkpt>
      <trkpt lat="37.26970167" lon="-7.11223167">
        <ele>40.0</ele>
        <time>2020-01-18T10:29:57.130Z</time>
      </trkpt>
      <trkpt lat="37.26961167" lon="-7.11221333">
        <ele>40.0</ele>
        <time>2020-01-18T10:29:58.153Z</time>
      </trkpt>
      <trkpt lat="37.26961167" lon="-7.11221333">
        <ele>40.0</ele>
        <time>2020-01-18T10:29:59.164Z</time>
      </trkpt>
      <trkpt lat="37.26951333" lon="-7.11224667">
        <ele>39.0</ele>
        <time>2020-01-18T10:30:00.161Z</time>
      </trkpt>
      <trkpt lat="37.26947667" lon="-7.11228667">
        <ele>39.0</ele>
        <time>2020-01-18T10:30:01.162Z</time>
      </trkpt>
      <trkpt lat="37.26947667" lon="-7.11228667">
        <ele>39.0</ele>
        <time>2020-01-18T10:30:02.168Z</time>
      </trkpt>
      <trkpt lat="37.26937833" lon="-7.11234333">
        <ele>38.0</ele>
        <time>2020-01-18T10:30:03.133Z</time>
      </trkpt>
      <trkpt lat="37.26933" lon="-7.11236833">
        <ele>38.0</ele>
        <time>2020-01-18T10:30:04.129Z</time>
      </trkpt>
      <trkpt lat="37.26933" lon="-7.11236833">
        <ele>38.0</ele>
        <time>2020-01-18T10:30:05.141Z</time>
      </trkpt>
      <trkpt lat="37.269225" lon="-7.11244667">
        <ele>38.0</ele>
        <time>2020-01-18T10:30:06.139Z</time>
      </trkpt>
      <trkpt lat="37.269225" lon="-7.11244667">
        <ele>38.0</ele>
        <time>2020-01-18T10:30:07.158Z</time>
      </trkpt>
      <trkpt lat="37.26918333" lon="-7.112545">
        <ele>37.0</ele>
        <time>2020-01-18T10:30:08.159Z</time>
      </trkpt>
      <trkpt lat="37.26918333" lon="-7.112545">
        <ele>37.0</ele>
        <time>2020-01-18T10:30:09.130Z</time>
      </trkpt>
      <trkpt lat="37.269185" lon="-7.11264333">
        <ele>37.0</ele>
        <time>2020-01-18T10:30:10.169Z</time>
      </trkpt>
      <trkpt lat="37.269185" lon="-7.11264333">
        <ele>37.0</ele>
        <time>2020-01-18T10:30:11.159Z</time>
      </trkpt>
      <trkpt lat="37.26921167" lon="-7.112715">
        <ele>37.0</ele>
        <time>2020-01-18T10:30:12.157Z</time>
      </trkpt>
      <trkpt lat="37.26923167" lon="-7.11276167">
        <ele>37.0</ele>
        <time>2020-01-18T10:30:13.160Z</time>
      </trkpt>
      <trkpt lat="37.26923167" lon="-7.11276167">
        <ele>37.0</ele>
        <time>2020-01-18T10:30:14.167Z</time>
      </trkpt>
      <trkpt lat="37.26926833" lon="-7.112855">
        <ele>36.0</ele>
        <time>2020-01-18T10:30:15.159Z</time>
      </trkpt>
      <trkpt lat="37.26928167" lon="-7.11290667">
        <ele>36.0</ele>
        <time>2020-01-18T10:30:16.147Z</time>
      </trkpt>
      <trkpt lat="37.26928167" lon="-7.11290667">
        <ele>36.0</ele>
        <time>2020-01-18T10:30:17.154Z</time>
      </trkpt>
      <trkpt lat="37.26928167" lon="-7.11300333">
        <ele>36.0</ele>
        <time>2020-01-18T10:30:18.129Z</time>
      </trkpt>
      <trkpt lat="37.26928167" lon="-7.11300333">
        <ele>36.0</ele>
        <time>2020-01-18T10:30:19.144Z</time>
      </trkpt>
      <trkpt lat="37.26926" lon="-7.11309667">
        <ele>35.0</ele>
        <time>2020-01-18T10:30:20.145Z</time>
      </trkpt>
      <trkpt lat="37.26925333" lon="-7.11314333">
        <ele>35.0</ele>
        <time>2020-01-18T10:30:21.149Z</time>
      </trkpt>
      <trkpt lat="37.26925333" lon="-7.11314333">
        <ele>35.0</ele>
        <time>2020-01-18T10:30:22.132Z</time>
      </trkpt>
      <trkpt lat="37.26922" lon="-7.11323">
        <ele>34.0</ele>
        <time>2020-01-18T10:30:23.129Z</time>
      </trkpt>
      <trkpt lat="37.26922" lon="-7.11323">
        <ele>34.0</ele>
        <time>2020-01-18T10:30:24.150Z</time>
      </trkpt>
      <trkpt lat="37.26918333" lon="-7.11331333">
        <ele>35.0</ele>
        <time>2020-01-18T10:30:25.165Z</time>
      </trkpt>
      <trkpt lat="37.26917667" lon="-7.11335333">
        <ele>35.0</ele>
        <time>2020-01-18T10:30:26.159Z</time>
      </trkpt>
      <trkpt lat="37.26917667" lon="-7.11335333">
        <ele>35.0</ele>
        <time>2020-01-18T10:30:27.168Z</time>
      </trkpt>
      <trkpt lat="37.26915833" lon="-7.11343667">
        <ele>35.0</ele>
        <time>2020-01-18T10:30:28.129Z</time>
      </trkpt>
      <trkpt lat="37.26915833" lon="-7.11343667">
        <ele>35.0</ele>
        <time>2020-01-18T10:30:29.153Z</time>
      </trkpt>
      <trkpt lat="37.26915167" lon="-7.11351333">
        <ele>35.0</ele>
        <time>2020-01-18T10:30:30.145Z</time>
      </trkpt>
      <trkpt lat="37.26915167" lon="-7.11351333">
        <ele>35.0</ele>
        <time>2020-01-18T10:30:31.160Z</time>
      </trkpt>
      <trkpt lat="37.26914667" lon="-7.11358667">
        <ele>35.0</ele>
        <time>2020-01-18T10:30:32.164Z</time>
      </trkpt>
      <trkpt lat="37.26914667" lon="-7.11358667">
        <ele>35.0</ele>
        <time>2020-01-18T10:30:33.130Z</time>
      </trkpt>
      <trkpt lat="37.269145" lon="-7.11366">
        <ele>36.0</ele>
        <time>2020-01-18T10:30:34.148Z</time>
      </trkpt>
      <trkpt lat="37.269145" lon="-7.11366">
        <ele>36.0</ele>
        <time>2020-01-18T10:30:35.160Z</time>
      </trkpt>
      <trkpt lat="37.26914667" lon="-7.11374833">
        <ele>36.0</ele>
        <time>2020-01-18T10:30:36.147Z</time>
      </trkpt>
      <trkpt lat="37.26914667" lon="-7.11374833">
        <ele>36.0</ele>
        <time>2020-01-18T10:30:37.159Z</time>
      </trkpt>
      <trkpt lat="37.26914333" lon="-7.11383667">
        <ele>37.0</ele>
        <time>2020-01-18T10:30:38.144Z</time>
      </trkpt>
      <trkpt lat="37.26914333" lon="-7.11383667">
        <ele>37.0</ele>
        <time>2020-01-18T10:30:39.158Z</time>
      </trkpt>
      <trkpt lat="37.26914333" lon="-7.11391833">
        <ele>37.0</ele>
        <time>2020-01-18T10:30:40.129Z</time>
      </trkpt>
      <trkpt lat="37.26914333" lon="-7.11391833">
        <ele>37.0</ele>
        <time>2020-01-18T10:30:41.163Z</time>
      </trkpt>
      <trkpt lat="37.269135" lon="-7.113995">
        <ele>37.0</ele>
        <time>2020-01-18T10:30:42.150Z</time>
      </trkpt>
      <trkpt lat="37.26912333" lon="-7.11403333">
        <ele>37.0</ele>
        <time>2020-01-18T10:30:43.149Z</time>
      </trkpt>
      <trkpt lat="37.26912333" lon="-7.11403333">
        <ele>37.0</ele>
        <time>2020-01-18T10:30:44.168Z</time>
      </trkpt>
      <trkpt lat="37.26909" lon="-7.114125">
        <ele>37.0</ele>
        <time>2020-01-18T10:30:45.160Z</time>
      </trkpt>
      <trkpt lat="37.26906833" lon="-7.114175">
        <ele>37.0</ele>
        <time>2020-01-18T10:30:46.168Z</time>
      </trkpt>
      <trkpt lat="37.26906833" lon="-7.114175">
        <ele>37.0</ele>
        <time>2020-01-18T10:30:47.133Z</time>
      </trkpt>
      <trkpt lat="37.26902333" lon="-7.11426667">
        <ele>38.0</ele>
        <time>2020-01-18T10:30:48.169Z</time>
      </trkpt>
      <trkpt lat="37.26902333" lon="-7.11426667">
        <ele>38.0</ele>
        <time>2020-01-18T10:30:49.139Z</time>
      </trkpt>
      <trkpt lat="37.26898667" lon="-7.11435167">
        <ele>37.0</ele>
        <time>2020-01-18T10:30:50.129Z</time>
      </trkpt>
      <trkpt lat="37.26898667" lon="-7.11435167">
        <ele>37.0</ele>
        <time>2020-01-18T10:30:51.153Z</time>
      </trkpt>
      <trkpt lat="37.268955" lon="-7.114425">
        <ele>37.0</ele>
        <time>2020-01-18T10:30:52.164Z</time>
      </trkpt>
      <trkpt lat="37.26893667" lon="-7.114465">
        <ele>37.0</ele>
        <time>2020-01-18T10:30:53.165Z</time>
      </trkpt>
      <trkpt lat="37.26893667" lon="-7.114465">
        <ele>37.0</ele>
        <time>2020-01-18T10:30:54.130Z</time>
      </trkpt>
      <trkpt lat="37.26889667" lon="-7.11454667">
        <ele>37.0</ele>
        <time>2020-01-18T10:30:55.164Z</time>
      </trkpt>
      <trkpt lat="37.26889667" lon="-7.11454667">
        <ele>37.0</ele>
        <time>2020-01-18T10:30:56.129Z</time>
      </trkpt>
      <trkpt lat="37.26885333" lon="-7.11463333">
        <ele>36.0</ele>
        <time>2020-01-18T10:30:57.149Z</time>
      </trkpt>
      <trkpt lat="37.268835" lon="-7.11467333">
        <ele>37.0</ele>
        <time>2020-01-18T10:30:58.140Z</time>
      </trkpt>
      <trkpt lat="37.268835" lon="-7.11467333">
        <ele>37.0</ele>
        <time>2020-01-18T10:30:59.148Z</time>
      </trkpt>
      <trkpt lat="37.26881333" lon="-7.11474333">
        <ele>37.0</ele>
        <time>2020-01-18T10:31:00.137Z</time>
      </trkpt>
      <trkpt lat="37.26880167" lon="-7.11478167">
        <ele>37.0</ele>
        <time>2020-01-18T10:31:01.159Z</time>
      </trkpt>
      <trkpt lat="37.26880167" lon="-7.11478167">
        <ele>37.0</ele>
        <time>2020-01-18T10:31:02.130Z</time>
      </trkpt>
      <trkpt lat="37.26878667" lon="-7.11487667">
        <ele>37.0</ele>
        <time>2020-01-18T10:31:03.139Z</time>
      </trkpt>
      <trkpt lat="37.26878167" lon="-7.11492167">
        <ele>37.0</ele>
        <time>2020-01-18T10:31:04.155Z</time>
      </trkpt>
      <trkpt lat="37.26878167" lon="-7.11492167">
        <ele>37.0</ele>
        <time>2020-01-18T10:31:05.168Z</time>
      </trkpt>
      <trkpt lat="37.268765" lon="-7.11499833">
        <ele>37.0</ele>
        <time>2020-01-18T10:31:06.163Z</time>
      </trkpt>
      <trkpt lat="37.268765" lon="-7.11499833">
        <ele>37.0</ele>
        <time>2020-01-18T10:31:07.129Z</time>
      </trkpt>
      <trkpt lat="37.26875833" lon="-7.11507667">
        <ele>37.0</ele>
        <time>2020-01-18T10:31:08.129Z</time>
      </trkpt>
      <trkpt lat="37.26875833" lon="-7.11507667">
        <ele>37.0</ele>
        <time>2020-01-18T10:31:09.167Z</time>
      </trkpt>
      <trkpt lat="37.268745" lon="-7.11515">
        <ele>37.0</ele>
        <time>2020-01-18T10:31:10.159Z</time>
      </trkpt>
      <trkpt lat="37.268745" lon="-7.11515">
        <ele>37.0</ele>
        <time>2020-01-18T10:31:11.168Z</time>
      </trkpt>
      <trkpt lat="37.268725" lon="-7.11524">
        <ele>37.0</ele>
        <time>2020-01-18T10:31:12.149Z</time>
      </trkpt>
      <trkpt lat="37.26871167" lon="-7.11529167">
        <ele>37.0</ele>
        <time>2020-01-18T10:31:13.160Z</time>
      </trkpt>
      <trkpt lat="37.26871167" lon="-7.11529167">
        <ele>37.0</ele>
        <time>2020-01-18T10:31:14.132Z</time>
      </trkpt>
      <trkpt lat="37.26866167" lon="-7.11540833">
        <ele>37.0</ele>
        <time>2020-01-18T10:31:15.138Z</time>
      </trkpt>
      <trkpt lat="37.26863167" lon="-7.11546667">
        <ele>36.0</ele>
        <time>2020-01-18T10:31:16.131Z</time>
      </trkpt>
      <trkpt lat="37.26863167" lon="-7.11546667">
        <ele>36.0</ele>
        <time>2020-01-18T10:31:17.166Z</time>
      </trkpt>
      <trkpt lat="37.26856" lon="-7.11559167">
        <ele>36.0</ele>
        <time>2020-01-18T10:31:18.129Z</time>
      </trkpt>
      <trkpt lat="37.26856" lon="-7.11559167">
        <ele>36.0</ele>
        <time>2020-01-18T10:31:19.146Z</time>
      </trkpt>
      <trkpt lat="37.26851" lon="-7.11575333">
        <ele>36.0</ele>
        <time>2020-01-18T10:31:20.143Z</time>
      </trkpt>
      <trkpt lat="37.26851" lon="-7.11575333">
        <ele>36.0</ele>
        <time>2020-01-18T10:31:21.155Z</time>
      </trkpt>
      <trkpt lat="37.26848167" lon="-7.115915">
        <ele>36.0</ele>
        <time>2020-01-18T10:31:22.142Z</time>
      </trkpt>
      <trkpt lat="37.26847" lon="-7.115995">
        <ele>36.0</ele>
        <time>2020-01-18T10:31:23.153Z</time>
      </trkpt>
      <trkpt lat="37.26846167" lon="-7.11608">
        <ele>36.0</ele>
        <time>2020-01-18T10:31:24.157Z</time>
      </trkpt>
      <trkpt lat="37.26846167" lon="-7.11608">
        <ele>36.0</ele>
        <time>2020-01-18T10:31:25.141Z</time>
      </trkpt>
      <trkpt lat="37.26844167" lon="-7.11625167">
        <ele>36.0</ele>
        <time>2020-01-18T10:31:26.139Z</time>
      </trkpt>
      <trkpt lat="37.26843167" lon="-7.11634">
        <ele>36.0</ele>
        <time>2020-01-18T10:31:27.167Z</time>
      </trkpt>
      <trkpt lat="37.26843167" lon="-7.11634">
        <ele>36.0</ele>
        <time>2020-01-18T10:31:28.138Z</time>
      </trkpt>
      <trkpt lat="37.26842833" lon="-7.11650167">
        <ele>36.0</ele>
        <time>2020-01-18T10:31:29.137Z</time>
      </trkpt>
      <trkpt lat="37.26842833" lon="-7.11650167">
        <ele>36.0</ele>
        <time>2020-01-18T10:31:30.132Z</time>
      </trkpt>
      <trkpt lat="37.26842" lon="-7.11664167">
        <ele>36.0</ele>
        <time>2020-01-18T10:31:31.154Z</time>
      </trkpt>
      <trkpt lat="37.26842" lon="-7.11672">
        <ele>35.0</ele>
        <time>2020-01-18T10:31:32.156Z</time>
      </trkpt>
      <trkpt lat="37.26842" lon="-7.11672">
        <ele>35.0</ele>
        <time>2020-01-18T10:31:33.129Z</time>
      </trkpt>
      <trkpt lat="37.268435" lon="-7.11686667">
        <ele>34.0</ele>
        <time>2020-01-18T10:31:34.165Z</time>
      </trkpt>
      <trkpt lat="37.268435" lon="-7.11686667">
        <ele>34.0</ele>
        <time>2020-01-18T10:31:35.136Z</time>
      </trkpt>
      <trkpt lat="37.26844333" lon="-7.11700667">
        <ele>33.0</ele>
        <time>2020-01-18T10:31:36.144Z</time>
      </trkpt>
      <trkpt lat="37.26844333" lon="-7.11700667">
        <ele>33.0</ele>
        <time>2020-01-18T10:31:37.155Z</time>
      </trkpt>
      <trkpt lat="37.26843" lon="-7.11715167">
        <ele>32.0</ele>
        <time>2020-01-18T10:31:38.148Z</time>
      </trkpt>
      <trkpt lat="37.26843" lon="-7.11715167">
        <ele>32.0</ele>
        <time>2020-01-18T10:31:39.167Z</time>
      </trkpt>
      <trkpt lat="37.26839167" lon="-7.11730333">
        <ele>31.0</ele>
        <time>2020-01-18T10:31:40.143Z</time>
      </trkpt>
      <trkpt lat="37.26839167" lon="-7.11730333">
        <ele>31.0</ele>
        <time>2020-01-18T10:31:41.162Z</time>
      </trkpt>
      <trkpt lat="37.268335" lon="-7.11744667">
        <ele>31.0</ele>
        <time>2020-01-18T10:31:42.163Z</time>
      </trkpt>
      <trkpt lat="37.268305" lon="-7.11751667">
        <ele>31.0</ele>
        <time>2020-01-18T10:31:43.129Z</time>
      </trkpt>
      <trkpt lat="37.268305" lon="-7.11751667">
        <ele>31.0</ele>
        <time>2020-01-18T10:31:44.141Z</time>
      </trkpt>
      <trkpt lat="37.268245" lon="-7.117645">
        <ele>30.0</ele>
        <time>2020-01-18T10:31:45.139Z</time>
      </trkpt>
      <trkpt lat="37.26821167" lon="-7.117705">
        <ele>30.0</ele>
        <time>2020-01-18T10:31:46.149Z</time>
      </trkpt>
      <trkpt lat="37.268185" lon="-7.11777167">
        <ele>30.0</ele>
        <time>2020-01-18T10:31:47.166Z</time>
      </trkpt>
      <trkpt lat="37.268185" lon="-7.11777167">
        <ele>30.0</ele>
        <time>2020-01-18T10:31:48.131Z</time>
      </trkpt>
      <trkpt lat="37.26815333" lon="-7.11789667">
        <ele>29.0</ele>
        <time>2020-01-18T10:31:49.137Z</time>
      </trkpt>
      <trkpt lat="37.26814" lon="-7.11796">
        <ele>29.0</ele>
        <time>2020-01-18T10:31:50.167Z</time>
      </trkpt>
      <trkpt lat="37.26814" lon="-7.11796">
        <ele>29.0</ele>
        <time>2020-01-18T10:31:51.132Z</time>
      </trkpt>
      <trkpt lat="37.26811167" lon="-7.11805833">
        <ele>29.0</ele>
        <time>2020-01-18T10:31:52.169Z</time>
      </trkpt>
      <trkpt lat="37.26809667" lon="-7.11809833">
        <ele>29.0</ele>
        <time>2020-01-18T10:31:53.149Z</time>
      </trkpt>
      <trkpt lat="37.26809667" lon="-7.11809833">
        <ele>29.0</ele>
        <time>2020-01-18T10:31:54.131Z</time>
      </trkpt>
      <trkpt lat="37.26808333" lon="-7.11817">
        <ele>30.0</ele>
        <time>2020-01-18T10:31:55.129Z</time>
      </trkpt>
      <trkpt lat="37.26808333" lon="-7.11817">
        <ele>30.0</ele>
        <time>2020-01-18T10:31:56.129Z</time>
      </trkpt>
      <trkpt lat="37.268055" lon="-7.11827167">
        <ele>29.0</ele>
        <time>2020-01-18T10:31:57.159Z</time>
      </trkpt>
      <trkpt lat="37.26803667" lon="-7.11835167">
        <ele>29.0</ele>
        <time>2020-01-18T10:31:58.129Z</time>
      </trkpt>
      <trkpt lat="37.26803667" lon="-7.11835167">
        <ele>29.0</ele>
        <time>2020-01-18T10:31:59.168Z</time>
      </trkpt>
      <trkpt lat="37.26801167" lon="-7.118475">
        <ele>29.0</ele>
        <time>2020-01-18T10:32:00.139Z</time>
      </trkpt>
      <trkpt lat="37.26800167" lon="-7.11853833">
        <ele>29.0</ele>
        <time>2020-01-18T10:32:01.168Z</time>
      </trkpt>
      <trkpt lat="37.26800167" lon="-7.11853833">
        <ele>29.0</ele>
        <time>2020-01-18T10:32:02.139Z</time>
      </trkpt>
      <trkpt lat="37.267995" lon="-7.11867">
        <ele>30.0</ele>
        <time>2020-01-18T10:32:03.129Z</time>
      </trkpt>
      <trkpt lat="37.26798667" lon="-7.11873167">
        <ele>30.0</ele>
        <time>2020-01-18T10:32:04.129Z</time>
      </trkpt>
      <trkpt lat="37.26798667" lon="-7.11873167">
        <ele>30.0</ele>
        <time>2020-01-18T10:32:05.168Z</time>
      </trkpt>
      <trkpt lat="37.26796167" lon="-7.11883667">
        <ele>30.0</ele>
        <time>2020-01-18T10:32:06.165Z</time>
      </trkpt>
      <trkpt lat="37.26796167" lon="-7.11883667">
        <ele>30.0</ele>
        <time>2020-01-18T10:32:07.130Z</time>
      </trkpt>
      <trkpt lat="37.26795333" lon="-7.118965">
        <ele>32.0</ele>
        <time>2020-01-18T10:32:08.139Z</time>
      </trkpt>
      <trkpt lat="37.26795333" lon="-7.118965">
        <ele>32.0</ele>
        <time>2020-01-18T10:32:09.149Z</time>
      </trkpt>
      <trkpt lat="37.26795167" lon="-7.119085">
        <ele>33.0</ele>
        <time>2020-01-18T10:32:10.149Z</time>
      </trkpt>
      <trkpt lat="37.26795167" lon="-7.119085">
        <ele>33.0</ele>
        <time>2020-01-18T10:32:11.157Z</time>
      </trkpt>
      <trkpt lat="37.26794" lon="-7.11920333">
        <ele>34.0</ele>
        <time>2020-01-18T10:32:12.159Z</time>
      </trkpt>
      <trkpt lat="37.26793333" lon="-7.11925833">
        <ele>35.0</ele>
        <time>2020-01-18T10:32:13.161Z</time>
      </trkpt>
      <trkpt lat="37.26793333" lon="-7.11925833">
        <ele>35.0</ele>
        <time>2020-01-18T10:32:14.167Z</time>
      </trkpt>
      <trkpt lat="37.2679" lon="-7.119365">
        <ele>36.0</ele>
        <time>2020-01-18T10:32:15.156Z</time>
      </trkpt>
      <trkpt lat="37.26788167" lon="-7.11941667">
        <ele>37.0</ele>
        <time>2020-01-18T10:32:16.155Z</time>
      </trkpt>
      <trkpt lat="37.26788167" lon="-7.11941667">
        <ele>37.0</ele>
        <time>2020-01-18T10:32:17.161Z</time>
      </trkpt>
      <trkpt lat="37.267825" lon="-7.11950833">
        <ele>38.0</ele>
        <time>2020-01-18T10:32:18.139Z</time>
      </trkpt>
      <trkpt lat="37.267825" lon="-7.11950833">
        <ele>38.0</ele>
        <time>2020-01-18T10:32:19.161Z</time>
      </trkpt>
      <trkpt lat="37.26776333" lon="-7.11959333">
        <ele>39.0</ele>
        <time>2020-01-18T10:32:20.161Z</time>
      </trkpt>
      <trkpt lat="37.26776333" lon="-7.11959333">
        <ele>39.0</ele>
        <time>2020-01-18T10:32:21.168Z</time>
      </trkpt>
      <trkpt lat="37.26771" lon="-7.11967833">
        <ele>39.0</ele>
        <time>2020-01-18T10:32:22.129Z</time>
      </trkpt>
      <trkpt lat="37.26767833" lon="-7.11972">
        <ele>39.0</ele>
        <time>2020-01-18T10:32:23.139Z</time>
      </trkpt>
      <trkpt lat="37.26764333" lon="-7.11975833">
        <ele>40.0</ele>
        <time>2020-01-18T10:32:24.155Z</time>
      </trkpt>
      <trkpt lat="37.26764333" lon="-7.11975833">
        <ele>40.0</ele>
        <time>2020-01-18T10:32:25.163Z</time>
      </trkpt>
      <trkpt lat="37.26758167" lon="-7.11984667">
        <ele>40.0</ele>
        <time>2020-01-18T10:32:26.139Z</time>
      </trkpt>
      <trkpt lat="37.26758167" lon="-7.11984667">
        <ele>40.0</ele>
        <time>2020-01-18T10:32:27.151Z</time>
      </trkpt>
      <trkpt lat="37.26751" lon="-7.11993667">
        <ele>39.0</ele>
        <time>2020-01-18T10:32:28.159Z</time>
      </trkpt>
      <trkpt lat="37.26751" lon="-7.11993667">
        <ele>39.0</ele>
        <time>2020-01-18T10:32:29.129Z</time>
      </trkpt>
      <trkpt lat="37.26742667" lon="-7.12005333">
        <ele>39.0</ele>
        <time>2020-01-18T10:32:30.129Z</time>
      </trkpt>
      <trkpt lat="37.26742667" lon="-7.12005333">
        <ele>39.0</ele>
        <time>2020-01-18T10:32:31.161Z</time>
      </trkpt>
      <trkpt lat="37.267335" lon="-7.12014667">
        <ele>40.0</ele>
        <time>2020-01-18T10:32:32.159Z</time>
      </trkpt>
      <trkpt lat="37.267295" lon="-7.12019333">
        <ele>40.0</ele>
        <time>2020-01-18T10:32:33.141Z</time>
      </trkpt>
      <trkpt lat="37.267295" lon="-7.12019333">
        <ele>40.0</ele>
        <time>2020-01-18T10:32:34.167Z</time>
      </trkpt>
      <trkpt lat="37.26719333" lon="-7.12026">
        <ele>40.0</ele>
        <time>2020-01-18T10:32:35.167Z</time>
      </trkpt>
      <trkpt lat="37.26719333" lon="-7.12026">
        <ele>40.0</ele>
        <time>2020-01-18T10:32:36.132Z</time>
      </trkpt>
      <trkpt lat="37.26708167" lon="-7.12030167">
        <ele>39.0</ele>
        <time>2020-01-18T10:32:37.159Z</time>
      </trkpt>
      <trkpt lat="37.26708167" lon="-7.12030167">
        <ele>39.0</ele>
        <time>2020-01-18T10:32:38.168Z</time>
      </trkpt>
      <trkpt lat="37.26697" lon="-7.12032167">
        <ele>39.0</ele>
        <time>2020-01-18T10:32:39.138Z</time>
      </trkpt>
      <trkpt lat="37.26692" lon="-7.12033167">
        <ele>39.0</ele>
        <time>2020-01-18T10:32:40.129Z</time>
      </trkpt>
      <trkpt lat="37.26692" lon="-7.12033167">
        <ele>39.0</ele>
        <time>2020-01-18T10:32:41.148Z</time>
      </trkpt>
      <trkpt lat="37.26680667" lon="-7.12038333">
        <ele>39.0</ele>
        <time>2020-01-18T10:32:42.129Z</time>
      </trkpt>
      <trkpt lat="37.26675167" lon="-7.12040667">
        <ele>39.0</ele>
        <time>2020-01-18T10:32:43.129Z</time>
      </trkpt>
      <trkpt lat="37.26675167" lon="-7.12040667">
        <ele>39.0</ele>
        <time>2020-01-18T10:32:44.141Z</time>
      </trkpt>
      <trkpt lat="37.26664833" lon="-7.12048167">
        <ele>38.0</ele>
        <time>2020-01-18T10:32:45.139Z</time>
      </trkpt>
      <trkpt lat="37.266595" lon="-7.12053">
        <ele>37.0</ele>
        <time>2020-01-18T10:32:46.141Z</time>
      </trkpt>
      <trkpt lat="37.266595" lon="-7.12053">
        <ele>37.0</ele>
        <time>2020-01-18T10:32:47.158Z</time>
      </trkpt>
      <trkpt lat="37.26650667" lon="-7.12064">
        <ele>36.0</ele>
        <time>2020-01-18T10:32:48.149Z</time>
      </trkpt>
      <trkpt lat="37.26650667" lon="-7.12064">
        <ele>36.0</ele>
        <time>2020-01-18T10:32:49.154Z</time>
      </trkpt>
      <trkpt lat="37.26641833" lon="-7.12075667">
        <ele>35.0</ele>
        <time>2020-01-18T10:32:50.159Z</time>
      </trkpt>
      <trkpt lat="37.266375" lon="-7.12081167">
        <ele>35.0</ele>
        <time>2020-01-18T10:32:51.154Z</time>
      </trkpt>
      <trkpt lat="37.266375" lon="-7.12081167">
        <ele>35.0</ele>
        <time>2020-01-18T10:32:52.159Z</time>
      </trkpt>
      <trkpt lat="37.266295" lon="-7.120905">
        <ele>35.0</ele>
        <time>2020-01-18T10:32:53.129Z</time>
      </trkpt>
      <trkpt lat="37.266255" lon="-7.12094833">
        <ele>35.0</ele>
        <time>2020-01-18T10:32:54.158Z</time>
      </trkpt>
      <trkpt lat="37.266255" lon="-7.12094833">
        <ele>35.0</ele>
        <time>2020-01-18T10:32:55.134Z</time>
      </trkpt>
      <trkpt lat="37.26617" lon="-7.12103">
        <ele>35.0</ele>
        <time>2020-01-18T10:32:56.159Z</time>
      </trkpt>
      <trkpt lat="37.26612667" lon="-7.12107833">
        <ele>35.0</ele>
        <time>2020-01-18T10:32:57.145Z</time>
      </trkpt>
      <trkpt lat="37.26612667" lon="-7.12107833">
        <ele>35.0</ele>
        <time>2020-01-18T10:32:58.157Z</time>
      </trkpt>
      <trkpt lat="37.266045" lon="-7.12118333">
        <ele>35.0</ele>
        <time>2020-01-18T10:32:59.166Z</time>
      </trkpt>
      <trkpt lat="37.266045" lon="-7.12118333">
        <ele>35.0</ele>
        <time>2020-01-18T10:33:00.138Z</time>
      </trkpt>
      <trkpt lat="37.26598167" lon="-7.12129">
        <ele>34.0</ele>
        <time>2020-01-18T10:33:01.147Z</time>
      </trkpt>
      <trkpt lat="37.26595333" lon="-7.12134833">
        <ele>34.0</ele>
        <time>2020-01-18T10:33:02.156Z</time>
      </trkpt>
      <trkpt lat="37.26595333" lon="-7.12134833">
        <ele>34.0</ele>
        <time>2020-01-18T10:33:03.166Z</time>
      </trkpt>
      <trkpt lat="37.26590333" lon="-7.12144833">
        <ele>35.0</ele>
        <time>2020-01-18T10:33:04.140Z</time>
      </trkpt>
      <trkpt lat="37.26590333" lon="-7.12144833">
        <ele>35.0</ele>
        <time>2020-01-18T10:33:05.146Z</time>
      </trkpt>
      <trkpt lat="37.26585667" lon="-7.12156833">
        <ele>34.0</ele>
        <time>2020-01-18T10:33:06.139Z</time>
      </trkpt>
      <trkpt lat="37.26585667" lon="-7.12156833">
        <ele>34.0</ele>
        <time>2020-01-18T10:33:07.147Z</time>
      </trkpt>
      <trkpt lat="37.26580667" lon="-7.12168667">
        <ele>34.0</ele>
        <time>2020-01-18T10:33:08.143Z</time>
      </trkpt>
      <trkpt lat="37.26580667" lon="-7.12168667">
        <ele>34.0</ele>
        <time>2020-01-18T10:33:09.155Z</time>
      </trkpt>
      <trkpt lat="37.265755" lon="-7.12181833">
        <ele>33.0</ele>
        <time>2020-01-18T10:33:10.159Z</time>
      </trkpt>
      <trkpt lat="37.265755" lon="-7.12181833">
        <ele>33.0</ele>
        <time>2020-01-18T10:33:11.154Z</time>
      </trkpt>
      <trkpt lat="37.26569167" lon="-7.121935">
        <ele>33.0</ele>
        <time>2020-01-18T10:33:12.148Z</time>
      </trkpt>
      <trkpt lat="37.26565833" lon="-7.121995">
        <ele>32.0</ele>
        <time>2020-01-18T10:33:13.129Z</time>
      </trkpt>
      <trkpt lat="37.26565833" lon="-7.121995">
        <ele>32.0</ele>
        <time>2020-01-18T10:33:14.136Z</time>
      </trkpt>
      <trkpt lat="37.26559833" lon="-7.12210667">
        <ele>31.0</ele>
        <time>2020-01-18T10:33:15.139Z</time>
      </trkpt>
      <trkpt lat="37.26557" lon="-7.122155">
        <ele>31.0</ele>
        <time>2020-01-18T10:33:16.149Z</time>
      </trkpt>
      <trkpt lat="37.26557" lon="-7.122155">
        <ele>31.0</ele>
        <time>2020-01-18T10:33:17.154Z</time>
      </trkpt>
      <trkpt lat="37.26550333" lon="-7.12224833">
        <ele>30.0</ele>
        <time>2020-01-18T10:33:18.149Z</time>
      </trkpt>
      <trkpt lat="37.26550333" lon="-7.12224833">
        <ele>30.0</ele>
        <time>2020-01-18T10:33:19.156Z</time>
      </trkpt>
      <trkpt lat="37.26541667" lon="-7.12231833">
        <ele>29.0</ele>
        <time>2020-01-18T10:33:20.129Z</time>
      </trkpt>
      <trkpt lat="37.26536833" lon="-7.122345">
        <ele>29.0</ele>
        <time>2020-01-18T10:33:21.159Z</time>
      </trkpt>
      <trkpt lat="37.26536833" lon="-7.122345">
        <ele>29.0</ele>
        <time>2020-01-18T10:33:22.166Z</time>
      </trkpt>
      <trkpt lat="37.26528" lon="-7.12240333">
        <ele>29.0</ele>
        <time>2020-01-18T10:33:23.129Z</time>
      </trkpt>
      <trkpt lat="37.26528" lon="-7.12240333">
        <ele>29.0</ele>
        <time>2020-01-18T10:33:24.133Z</time>
      </trkpt>
      <trkpt lat="37.26519333" lon="-7.12249833">
        <ele>28.0</ele>
        <time>2020-01-18T10:33:25.139Z</time>
      </trkpt>
      <trkpt lat="37.26519333" lon="-7.12249833">
        <ele>28.0</ele>
        <time>2020-01-18T10:33:26.158Z</time>
      </trkpt>
      <trkpt lat="37.26511667" lon="-7.12259833">
        <ele>27.0</ele>
        <time>2020-01-18T10:33:27.129Z</time>
      </trkpt>
      <trkpt lat="37.265085" lon="-7.12264167">
        <ele>27.0</ele>
        <time>2020-01-18T10:33:28.149Z</time>
      </trkpt>
      <trkpt lat="37.265085" lon="-7.12264167">
        <ele>27.0</ele>
        <time>2020-01-18T10:33:29.157Z</time>
      </trkpt>
      <trkpt lat="37.26502667" lon="-7.12272667">
        <ele>27.0</ele>
        <time>2020-01-18T10:33:30.166Z</time>
      </trkpt>
      <trkpt lat="37.26502667" lon="-7.12272667">
        <ele>27.0</ele>
        <time>2020-01-18T10:33:31.167Z</time>
      </trkpt>
      <trkpt lat="37.26496333" lon="-7.12280667">
        <ele>27.0</ele>
        <time>2020-01-18T10:33:32.129Z</time>
      </trkpt>
      <trkpt lat="37.26496333" lon="-7.12280667">
        <ele>27.0</ele>
        <time>2020-01-18T10:33:33.156Z</time>
      </trkpt>
      <trkpt lat="37.26490667" lon="-7.12285333">
        <ele>28.0</ele>
        <time>2020-01-18T10:33:34.163Z</time>
      </trkpt>
      <trkpt lat="37.26490667" lon="-7.12285333">
        <ele>28.0</ele>
        <time>2020-01-18T10:33:35.129Z</time>
      </trkpt>
      <trkpt lat="37.26484667" lon="-7.12289167">
        <ele>28.0</ele>
        <time>2020-01-18T10:33:36.139Z</time>
      </trkpt>
      <trkpt lat="37.264815" lon="-7.122915">
        <ele>28.0</ele>
        <time>2020-01-18T10:33:37.145Z</time>
      </trkpt>
      <trkpt lat="37.264815" lon="-7.122915">
        <ele>28.0</ele>
        <time>2020-01-18T10:33:38.156Z</time>
      </trkpt>
      <trkpt lat="37.26475667" lon="-7.12296833">
        <ele>29.0</ele>
        <time>2020-01-18T10:33:39.159Z</time>
      </trkpt>
      <trkpt lat="37.26475667" lon="-7.12296833">
        <ele>29.0</ele>
        <time>2020-01-18T10:33:40.167Z</time>
      </trkpt>
      <trkpt lat="37.264695" lon="-7.12303833">
        <ele>28.0</ele>
        <time>2020-01-18T10:33:41.129Z</time>
      </trkpt>
      <trkpt lat="37.264665" lon="-7.12308333">
        <ele>28.0</ele>
        <time>2020-01-18T10:33:42.158Z</time>
      </trkpt>
      <trkpt lat="37.264665" lon="-7.12308333">
        <ele>28.0</ele>
        <time>2020-01-18T10:33:43.163Z</time>
      </trkpt>
      <trkpt lat="37.26461167" lon="-7.12316667">
        <ele>28.0</ele>
        <time>2020-01-18T10:33:44.138Z</time>
      </trkpt>
      <trkpt lat="37.264585" lon="-7.12320667">
        <ele>28.0</ele>
        <time>2020-01-18T10:33:45.162Z</time>
      </trkpt>
      <trkpt lat="37.26455833" lon="-7.12324333">
        <ele>28.0</ele>
        <time>2020-01-18T10:33:46.129Z</time>
      </trkpt>
      <trkpt lat="37.26455833" lon="-7.12324333">
        <ele>28.0</ele>
        <time>2020-01-18T10:33:47.168Z</time>
      </trkpt>
      <trkpt lat="37.2645" lon="-7.12331333">
        <ele>28.0</ele>
        <time>2020-01-18T10:33:48.165Z</time>
      </trkpt>
      <trkpt lat="37.264475" lon="-7.12334333">
        <ele>28.0</ele>
        <time>2020-01-18T10:33:49.168Z</time>
      </trkpt>
      <trkpt lat="37.264475" lon="-7.12334333">
        <ele>28.0</ele>
        <time>2020-01-18T10:33:50.145Z</time>
      </trkpt>
      <trkpt lat="37.264435" lon="-7.12340167">
        <ele>28.0</ele>
        <time>2020-01-18T10:33:51.129Z</time>
      </trkpt>
      <trkpt lat="37.264435" lon="-7.12340167">
        <ele>28.0</ele>
        <time>2020-01-18T10:33:52.158Z</time>
      </trkpt>
      <trkpt lat="37.26439667" lon="-7.123455">
        <ele>28.0</ele>
        <time>2020-01-18T10:33:53.145Z</time>
      </trkpt>
      <trkpt lat="37.26439667" lon="-7.123455">
        <ele>28.0</ele>
        <time>2020-01-18T10:33:54.157Z</time>
      </trkpt>
      <trkpt lat="37.26434833" lon="-7.12351">
        <ele>28.0</ele>
        <time>2020-01-18T10:33:55.150Z</time>
      </trkpt>
      <trkpt lat="37.26434833" lon="-7.12351">
        <ele>28.0</ele>
        <time>2020-01-18T10:33:56.157Z</time>
      </trkpt>
      <trkpt lat="37.26430833" lon="-7.12357667">
        <ele>28.0</ele>
        <time>2020-01-18T10:33:57.139Z</time>
      </trkpt>
      <trkpt lat="37.26428167" lon="-7.12360667">
        <ele>28.0</ele>
        <time>2020-01-18T10:33:58.164Z</time>
      </trkpt>
      <trkpt lat="37.26428167" lon="-7.12360667">
        <ele>28.0</ele>
        <time>2020-01-18T10:33:59.130Z</time>
      </trkpt>
      <trkpt lat="37.26423833" lon="-7.123655">
        <ele>28.0</ele>
        <time>2020-01-18T10:34:00.163Z</time>
      </trkpt>
      <trkpt lat="37.26423833" lon="-7.123655">
        <ele>28.0</ele>
        <time>2020-01-18T10:34:01.169Z</time>
      </trkpt>
      <trkpt lat="37.264185" lon="-7.12370833">
        <ele>28.0</ele>
        <time>2020-01-18T10:34:02.159Z</time>
      </trkpt>
      <trkpt lat="37.26416167" lon="-7.12373667">
        <ele>29.0</ele>
        <time>2020-01-18T10:34:03.151Z</time>
      </trkpt>
      <trkpt lat="37.26416167" lon="-7.12373667">
        <ele>29.0</ele>
        <time>2020-01-18T10:34:04.157Z</time>
      </trkpt>
      <trkpt lat="37.26412167" lon="-7.12379833">
        <ele>28.0</ele>
        <time>2020-01-18T10:34:05.129Z</time>
      </trkpt>
      <trkpt lat="37.26410167" lon="-7.12382833">
        <ele>28.0</ele>
        <time>2020-01-18T10:34:06.139Z</time>
      </trkpt>
      <trkpt lat="37.26410167" lon="-7.12382833">
        <ele>28.0</ele>
        <time>2020-01-18T10:34:07.159Z</time>
      </trkpt>
      <trkpt lat="37.26406667" lon="-7.12388167">
        <ele>28.0</ele>
        <time>2020-01-18T10:34:08.153Z</time>
      </trkpt>
      <trkpt lat="37.26406667" lon="-7.12388167">
        <ele>28.0</ele>
        <time>2020-01-18T10:34:09.166Z</time>
      </trkpt>
      <trkpt lat="37.26403" lon="-7.12394167">
        <ele>28.0</ele>
        <time>2020-01-18T10:34:10.165Z</time>
      </trkpt>
      <trkpt lat="37.26400833" lon="-7.12397167">
        <ele>28.0</ele>
        <time>2020-01-18T10:34:11.139Z</time>
      </trkpt>
      <trkpt lat="37.26400833" lon="-7.12397167">
        <ele>28.0</ele>
        <time>2020-01-18T10:34:12.149Z</time>
      </trkpt>
      <trkpt lat="37.263965" lon="-7.124045">
        <ele>28.0</ele>
        <time>2020-01-18T10:34:13.159Z</time>
      </trkpt>
      <trkpt lat="37.263965" lon="-7.124045">
        <ele>28.0</ele>
        <time>2020-01-18T10:34:14.167Z</time>
      </trkpt>
      <trkpt lat="37.263925" lon="-7.12414333">
        <ele>28.0</ele>
        <time>2020-01-18T10:34:15.139Z</time>
      </trkpt>
      <trkpt lat="37.26390333" lon="-7.124195">
        <ele>28.0</ele>
        <time>2020-01-18T10:34:16.136Z</time>
      </trkpt>
      <trkpt lat="37.26390333" lon="-7.124195">
        <ele>28.0</ele>
        <time>2020-01-18T10:34:17.141Z</time>
      </trkpt>
      <trkpt lat="37.26385833" lon="-7.12430167">
        <ele>28.0</ele>
        <time>2020-01-18T10:34:18.149Z</time>
      </trkpt>
      <trkpt lat="37.26385833" lon="-7.12430167">
        <ele>28.0</ele>
        <time>2020-01-18T10:34:19.161Z</time>
      </trkpt>
      <trkpt lat="37.26381667" lon="-7.12441667">
        <ele>29.0</ele>
        <time>2020-01-18T10:34:20.132Z</time>
      </trkpt>
      <trkpt lat="37.26381667" lon="-7.12441667">
        <ele>29.0</ele>
        <time>2020-01-18T10:34:21.138Z</time>
      </trkpt>
      <trkpt lat="37.26378167" lon="-7.124535">
        <ele>29.0</ele>
        <time>2020-01-18T10:34:22.129Z</time>
      </trkpt>
      <trkpt lat="37.26375833" lon="-7.12459833">
        <ele>29.0</ele>
        <time>2020-01-18T10:34:23.147Z</time>
      </trkpt>
      <trkpt lat="37.26375833" lon="-7.12459833">
        <ele>29.0</ele>
        <time>2020-01-18T10:34:24.152Z</time>
      </trkpt>
      <trkpt lat="37.26372333" lon="-7.124715">
        <ele>29.0</ele>
        <time>2020-01-18T10:34:25.135Z</time>
      </trkpt>
      <trkpt lat="37.26370333" lon="-7.12477833">
        <ele>29.0</ele>
        <time>2020-01-18T10:34:26.129Z</time>
      </trkpt>
      <trkpt lat="37.26370333" lon="-7.12477833">
        <ele>29.0</ele>
        <time>2020-01-18T10:34:27.149Z</time>
      </trkpt>
      <trkpt lat="37.26366833" lon="-7.12490667">
        <ele>29.0</ele>
        <time>2020-01-18T10:34:28.144Z</time>
      </trkpt>
      <trkpt lat="37.26366833" lon="-7.12490667">
        <ele>29.0</ele>
        <time>2020-01-18T10:34:29.157Z</time>
      </trkpt>
      <trkpt lat="37.26363167" lon="-7.125025">
        <ele>29.0</ele>
        <time>2020-01-18T10:34:30.140Z</time>
      </trkpt>
      <trkpt lat="37.26363167" lon="-7.125025">
        <ele>29.0</ele>
        <time>2020-01-18T10:34:31.140Z</time>
      </trkpt>
      <trkpt lat="37.26360833" lon="-7.125155">
        <ele>30.0</ele>
        <time>2020-01-18T10:34:32.140Z</time>
      </trkpt>
      <trkpt lat="37.26359667" lon="-7.12522667">
        <ele>30.0</ele>
        <time>2020-01-18T10:34:33.152Z</time>
      </trkpt>
      <trkpt lat="37.26359667" lon="-7.12522667">
        <ele>30.0</ele>
        <time>2020-01-18T10:34:34.157Z</time>
      </trkpt>
      <trkpt lat="37.26357167" lon="-7.12535833">
        <ele>30.0</ele>
        <time>2020-01-18T10:34:35.129Z</time>
      </trkpt>
      <trkpt lat="37.26357167" lon="-7.12535833">
        <ele>30.0</ele>
        <time>2020-01-18T10:34:36.155Z</time>
      </trkpt>
      <trkpt lat="37.26356667" lon="-7.12547833">
        <ele>30.0</ele>
        <time>2020-01-18T10:34:37.129Z</time>
      </trkpt>
      <trkpt lat="37.26356667" lon="-7.12547833">
        <ele>30.0</ele>
        <time>2020-01-18T10:34:38.145Z</time>
      </trkpt>
      <trkpt lat="37.26356667" lon="-7.12559167">
        <ele>31.0</ele>
        <time>2020-01-18T10:34:39.134Z</time>
      </trkpt>
      <trkpt lat="37.26356667" lon="-7.12559167">
        <ele>31.0</ele>
        <time>2020-01-18T10:34:40.146Z</time>
      </trkpt>
      <trkpt lat="37.26354667" lon="-7.125725">
        <ele>31.0</ele>
        <time>2020-01-18T10:34:41.149Z</time>
      </trkpt>
      <trkpt lat="37.263535" lon="-7.12579167">
        <ele>31.0</ele>
        <time>2020-01-18T10:34:42.160Z</time>
      </trkpt>
      <trkpt lat="37.263535" lon="-7.12579167">
        <ele>31.0</ele>
        <time>2020-01-18T10:34:43.167Z</time>
      </trkpt>
      <trkpt lat="37.26350833" lon="-7.12593167">
        <ele>32.0</ele>
        <time>2020-01-18T10:34:44.132Z</time>
      </trkpt>
      <trkpt lat="37.26350833" lon="-7.12600333">
        <ele>32.0</ele>
        <time>2020-01-18T10:34:45.159Z</time>
      </trkpt>
      <trkpt lat="37.26350833" lon="-7.12606667">
        <ele>32.0</ele>
        <time>2020-01-18T10:34:46.149Z</time>
      </trkpt>
      <trkpt lat="37.26350833" lon="-7.12606667">
        <ele>32.0</ele>
        <time>2020-01-18T10:34:47.152Z</time>
      </trkpt>
      <trkpt lat="37.263505" lon="-7.126195">
        <ele>32.0</ele>
        <time>2020-01-18T10:34:48.163Z</time>
      </trkpt>
      <trkpt lat="37.263505" lon="-7.126195">
        <ele>32.0</ele>
        <time>2020-01-18T10:34:49.136Z</time>
      </trkpt>
      <trkpt lat="37.26349" lon="-7.12629333">
        <ele>33.0</ele>
        <time>2020-01-18T10:34:50.147Z</time>
      </trkpt>
      <trkpt lat="37.26349" lon="-7.12629333">
        <ele>33.0</ele>
        <time>2020-01-18T10:34:51.166Z</time>
      </trkpt>
      <trkpt lat="37.26347" lon="-7.12637333">
        <ele>33.0</ele>
        <time>2020-01-18T10:34:52.131Z</time>
      </trkpt>
      <trkpt lat="37.26347" lon="-7.12637333">
        <ele>33.0</ele>
        <time>2020-01-18T10:34:53.156Z</time>
      </trkpt>
      <trkpt lat="37.263465" lon="-7.12645333">
        <ele>34.0</ele>
        <time>2020-01-18T10:34:54.138Z</time>
      </trkpt>
      <trkpt lat="37.26346333" lon="-7.12649">
        <ele>34.0</ele>
        <time>2020-01-18T10:34:55.139Z</time>
      </trkpt>
      <trkpt lat="37.26346333" lon="-7.12649">
        <ele>34.0</ele>
        <time>2020-01-18T10:34:56.165Z</time>
      </trkpt>
      <trkpt lat="37.26346667" lon="-7.12655667">
        <ele>34.0</ele>
        <time>2020-01-18T10:34:57.137Z</time>
      </trkpt>
      <trkpt lat="37.263465" lon="-7.126595">
        <ele>34.0</ele>
        <time>2020-01-18T10:34:58.158Z</time>
      </trkpt>
      <trkpt lat="37.263465" lon="-7.126595">
        <ele>34.0</ele>
        <time>2020-01-18T10:34:59.169Z</time>
      </trkpt>
      <trkpt lat="37.263455" lon="-7.126675">
        <ele>35.0</ele>
        <time>2020-01-18T10:35:00.129Z</time>
      </trkpt>
      <trkpt lat="37.263455" lon="-7.126675">
        <ele>35.0</ele>
        <time>2020-01-18T10:35:01.152Z</time>
      </trkpt>
      <trkpt lat="37.26345" lon="-7.12675167">
        <ele>35.0</ele>
        <time>2020-01-18T10:35:02.169Z</time>
      </trkpt>
      <trkpt lat="37.26345" lon="-7.12675167">
        <ele>35.0</ele>
        <time>2020-01-18T10:35:03.140Z</time>
      </trkpt>
      <trkpt lat="37.26342" lon="-7.12683333">
        <ele>36.0</ele>
        <time>2020-01-18T10:35:04.147Z</time>
      </trkpt>
      <trkpt lat="37.26342" lon="-7.12683333">
        <ele>36.0</ele>
        <time>2020-01-18T10:35:05.159Z</time>
      </trkpt>
      <trkpt lat="37.263385" lon="-7.12690167">
        <ele>36.0</ele>
        <time>2020-01-18T10:35:06.157Z</time>
      </trkpt>
      <trkpt lat="37.26336667" lon="-7.12693">
        <ele>37.0</ele>
        <time>2020-01-18T10:35:07.146Z</time>
      </trkpt>
      <trkpt lat="37.26336667" lon="-7.12693">
        <ele>37.0</ele>
        <time>2020-01-18T10:35:08.159Z</time>
      </trkpt>
      <trkpt lat="37.26332667" lon="-7.12697667">
        <ele>38.0</ele>
        <time>2020-01-18T10:35:09.139Z</time>
      </trkpt>
      <trkpt lat="37.26330167" lon="-7.12699333">
        <ele>38.0</ele>
        <time>2020-01-18T10:35:10.139Z</time>
      </trkpt>
      <trkpt lat="37.26330167" lon="-7.12699333">
        <ele>38.0</ele>
        <time>2020-01-18T10:35:11.165Z</time>
      </trkpt>
      <trkpt lat="37.263245" lon="-7.127025">
        <ele>39.0</ele>
        <time>2020-01-18T10:35:12.138Z</time>
      </trkpt>
      <trkpt lat="37.263245" lon="-7.127025">
        <ele>39.0</ele>
        <time>2020-01-18T10:35:13.144Z</time>
      </trkpt>
      <trkpt lat="37.26319333" lon="-7.12706">
        <ele>39.0</ele>
        <time>2020-01-18T10:35:14.149Z</time>
      </trkpt>
      <trkpt lat="37.26316833" lon="-7.12708667">
        <ele>39.0</ele>
        <time>2020-01-18T10:35:15.159Z</time>
      </trkpt>
      <trkpt lat="37.26315167" lon="-7.12711167">
        <ele>39.0</ele>
        <time>2020-01-18T10:35:16.163Z</time>
      </trkpt>
      <trkpt lat="37.26315167" lon="-7.12711167">
        <ele>39.0</ele>
        <time>2020-01-18T10:35:17.143Z</time>
      </trkpt>
      <trkpt lat="37.26312833" lon="-7.12718">
        <ele>39.0</ele>
        <time>2020-01-18T10:35:18.154Z</time>
      </trkpt>
      <trkpt lat="37.26312833" lon="-7.12718">
        <ele>39.0</ele>
        <time>2020-01-18T10:35:19.159Z</time>
      </trkpt>
      <trkpt lat="37.26313167" lon="-7.12724333">
        <ele>40.0</ele>
        <time>2020-01-18T10:35:20.159Z</time>
      </trkpt>
      <trkpt lat="37.26313167" lon="-7.12724333">
        <ele>40.0</ele>
        <time>2020-01-18T10:35:21.152Z</time>
      </trkpt>
      <trkpt lat="37.263135" lon="-7.12731833">
        <ele>40.0</ele>
        <time>2020-01-18T10:35:22.167Z</time>
      </trkpt>
      <trkpt lat="37.263135" lon="-7.12731833">
        <ele>40.0</ele>
        <time>2020-01-18T10:35:23.134Z</time>
      </trkpt>
      <trkpt lat="37.26315667" lon="-7.12739333">
        <ele>40.0</ele>
        <time>2020-01-18T10:35:24.146Z</time>
      </trkpt>
      <trkpt lat="37.26315667" lon="-7.12739333">
        <ele>40.0</ele>
        <time>2020-01-18T10:35:25.157Z</time>
      </trkpt>
      <trkpt lat="37.263185" lon="-7.12746667">
        <ele>40.0</ele>
        <time>2020-01-18T10:35:26.164Z</time>
      </trkpt>
      <trkpt lat="37.26320333" lon="-7.12751167">
        <ele>40.0</ele>
        <time>2020-01-18T10:35:27.129Z</time>
      </trkpt>
      <trkpt lat="37.26320333" lon="-7.12751167">
        <ele>40.0</ele>
        <time>2020-01-18T10:35:28.153Z</time>
      </trkpt>
      <trkpt lat="37.263235" lon="-7.12759833">
        <ele>40.0</ele>
        <time>2020-01-18T10:35:29.129Z</time>
      </trkpt>
      <trkpt lat="37.263235" lon="-7.12759833">
        <ele>40.0</ele>
        <time>2020-01-18T10:35:30.157Z</time>
      </trkpt>
      <trkpt lat="37.263255" lon="-7.12767333">
        <ele>40.0</ele>
        <time>2020-01-18T10:35:31.277Z</time>
      </trkpt>
      <trkpt lat="37.26327" lon="-7.12770333">
        <ele>41.0</ele>
        <time>2020-01-18T10:35:32.165Z</time>
      </trkpt>
      <trkpt lat="37.26327" lon="-7.12770333">
        <ele>41.0</ele>
        <time>2020-01-18T10:35:33.137Z</time>
      </trkpt>
      <trkpt lat="37.263295" lon="-7.12778833">
        <ele>41.0</ele>
        <time>2020-01-18T10:35:34.138Z</time>
      </trkpt>
      <trkpt lat="37.26331167" lon="-7.12783">
        <ele>41.0</ele>
        <time>2020-01-18T10:35:35.139Z</time>
      </trkpt>
      <trkpt lat="37.26331167" lon="-7.12783">
        <ele>41.0</ele>
        <time>2020-01-18T10:35:36.152Z</time>
      </trkpt>
      <trkpt lat="37.26334667" lon="-7.12791667">
        <ele>42.0</ele>
        <time>2020-01-18T10:35:37.144Z</time>
      </trkpt>
      <trkpt lat="37.26334667" lon="-7.12791667">
        <ele>42.0</ele>
        <time>2020-01-18T10:35:38.155Z</time>
      </trkpt>
      <trkpt lat="37.26338" lon="-7.12800167">
        <ele>42.0</ele>
        <time>2020-01-18T10:35:39.159Z</time>
      </trkpt>
      <trkpt lat="37.26339167" lon="-7.12804167">
        <ele>43.0</ele>
        <time>2020-01-18T10:35:40.161Z</time>
      </trkpt>
      <trkpt lat="37.26339167" lon="-7.12804167">
        <ele>43.0</ele>
        <time>2020-01-18T10:35:41.133Z</time>
      </trkpt>
      <trkpt lat="37.26341167" lon="-7.12811333">
        <ele>44.0</ele>
        <time>2020-01-18T10:35:42.132Z</time>
      </trkpt>
      <trkpt lat="37.263425" lon="-7.12815833">
        <ele>44.0</ele>
        <time>2020-01-18T10:35:43.157Z</time>
      </trkpt>
      <trkpt lat="37.263425" lon="-7.12815833">
        <ele>44.0</ele>
        <time>2020-01-18T10:35:44.130Z</time>
      </trkpt>
      <trkpt lat="37.263455" lon="-7.128255">
        <ele>44.0</ele>
        <time>2020-01-18T10:35:45.129Z</time>
      </trkpt>
      <trkpt lat="37.26346" lon="-7.12830667">
        <ele>44.0</ele>
        <time>2020-01-18T10:35:46.130Z</time>
      </trkpt>
      <trkpt lat="37.26346" lon="-7.12830667">
        <ele>44.0</ele>
        <time>2020-01-18T10:35:47.153Z</time>
      </trkpt>
      <trkpt lat="37.26345667" lon="-7.12840833">
        <ele>43.0</ele>
        <time>2020-01-18T10:35:48.145Z</time>
      </trkpt>
      <trkpt lat="37.26345667" lon="-7.12840833">
        <ele>43.0</ele>
        <time>2020-01-18T10:35:49.154Z</time>
      </trkpt>
      <trkpt lat="37.263445" lon="-7.12852667">
        <ele>43.0</ele>
        <time>2020-01-18T10:35:50.149Z</time>
      </trkpt>
      <trkpt lat="37.263445" lon="-7.12852667">
        <ele>43.0</ele>
        <time>2020-01-18T10:35:51.159Z</time>
      </trkpt>
      <trkpt lat="37.26345833" lon="-7.12864333">
        <ele>42.0</ele>
        <time>2020-01-18T10:35:52.133Z</time>
      </trkpt>
      <trkpt lat="37.263465" lon="-7.1287">
        <ele>43.0</ele>
        <time>2020-01-18T10:35:53.152Z</time>
      </trkpt>
      <trkpt lat="37.263465" lon="-7.1287">
        <ele>43.0</ele>
        <time>2020-01-18T10:35:54.162Z</time>
      </trkpt>
      <trkpt lat="37.26349" lon="-7.12881">
        <ele>42.0</ele>
        <time>2020-01-18T10:35:55.164Z</time>
      </trkpt>
      <trkpt lat="37.26349" lon="-7.12881">
        <ele>42.0</ele>
        <time>2020-01-18T10:35:56.129Z</time>
      </trkpt>
      <trkpt lat="37.26352" lon="-7.12891333">
        <ele>42.0</ele>
        <time>2020-01-18T10:35:57.159Z</time>
      </trkpt>
      <trkpt lat="37.263535" lon="-7.12896">
        <ele>42.0</ele>
        <time>2020-01-18T10:35:58.138Z</time>
      </trkpt>
      <trkpt lat="37.263535" lon="-7.12896">
        <ele>42.0</ele>
        <time>2020-01-18T10:35:59.137Z</time>
      </trkpt>
      <trkpt lat="37.26356333" lon="-7.129055">
        <ele>42.0</ele>
        <time>2020-01-18T10:36:00.147Z</time>
      </trkpt>
      <trkpt lat="37.26356333" lon="-7.129055">
        <ele>42.0</ele>
        <time>2020-01-18T10:36:01.154Z</time>
      </trkpt>
      <trkpt lat="37.26361" lon="-7.12915833">
        <ele>42.0</ele>
        <time>2020-01-18T10:36:02.154Z</time>
      </trkpt>
      <trkpt lat="37.26361" lon="-7.12915833">
        <ele>42.0</ele>
        <time>2020-01-18T10:36:03.168Z</time>
      </trkpt>
      <trkpt lat="37.26365" lon="-7.12926167">
        <ele>42.0</ele>
        <time>2020-01-18T10:36:04.138Z</time>
      </trkpt>
      <trkpt lat="37.26365" lon="-7.12926167">
        <ele>42.0</ele>
        <time>2020-01-18T10:36:05.129Z</time>
      </trkpt>
      <trkpt lat="37.26368333" lon="-7.12938667">
        <ele>42.0</ele>
        <time>2020-01-18T10:36:06.129Z</time>
      </trkpt>
      <trkpt lat="37.26368333" lon="-7.12938667">
        <ele>42.0</ele>
        <time>2020-01-18T10:36:07.146Z</time>
      </trkpt>
      <trkpt lat="37.26371167" lon="-7.12953667">
        <ele>41.0</ele>
        <time>2020-01-18T10:36:08.139Z</time>
      </trkpt>
      <trkpt lat="37.26371167" lon="-7.12953667">
        <ele>41.0</ele>
        <time>2020-01-18T10:36:09.145Z</time>
      </trkpt>
      <trkpt lat="37.26373167" lon="-7.12970167">
        <ele>41.0</ele>
        <time>2020-01-18T10:36:10.139Z</time>
      </trkpt>
      <trkpt lat="37.26373167" lon="-7.12970167">
        <ele>41.0</ele>
        <time>2020-01-18T10:36:11.161Z</time>
      </trkpt>
      <trkpt lat="37.26373" lon="-7.129865">
        <ele>39.0</ele>
        <time>2020-01-18T10:36:12.139Z</time>
      </trkpt>
      <trkpt lat="37.26373" lon="-7.129865">
        <ele>39.0</ele>
        <time>2020-01-18T10:36:13.151Z</time>
      </trkpt>
      <trkpt lat="37.263735" lon="-7.13001">
        <ele>39.0</ele>
        <time>2020-01-18T10:36:14.150Z</time>
      </trkpt>
      <trkpt lat="37.263735" lon="-7.13005667">
        <ele>38.0</ele>
        <time>2020-01-18T10:36:15.129Z</time>
      </trkpt>
      <trkpt lat="37.263735" lon="-7.13005667">
        <ele>38.0</ele>
        <time>2020-01-18T10:36:16.142Z</time>
      </trkpt>
      <trkpt lat="37.263745" lon="-7.13008833">
        <ele>38.0</ele>
        <time>2020-01-18T10:36:17.131Z</time>
      </trkpt>
      <trkpt lat="37.263745" lon="-7.13008833">
        <ele>38.0</ele>
        <time>2020-01-18T10:36:18.143Z</time>
      </trkpt>
      <trkpt lat="37.26377833" lon="-7.13008667">
        <ele>37.0</ele>
        <time>2020-01-18T10:36:19.148Z</time>
      </trkpt>
      <trkpt lat="37.263795" lon="-7.13008167">
        <ele>37.0</ele>
        <time>2020-01-18T10:36:20.159Z</time>
      </trkpt>
      <trkpt lat="37.263795" lon="-7.13008167">
        <ele>37.0</ele>
        <time>2020-01-18T10:36:21.168Z</time>
      </trkpt>
      <trkpt lat="37.26382167" lon="-7.13006833">
        <ele>37.0</ele>
        <time>2020-01-18T10:36:22.159Z</time>
      </trkpt>
      <trkpt lat="37.26383333" lon="-7.13006167">
        <ele>37.0</ele>
        <time>2020-01-18T10:36:23.130Z</time>
      </trkpt>
      <trkpt lat="37.26383333" lon="-7.13006167">
        <ele>37.0</ele>
        <time>2020-01-18T10:36:24.136Z</time>
      </trkpt>
      <trkpt lat="37.263855" lon="-7.13006833">
        <ele>37.0</ele>
        <time>2020-01-18T10:36:25.145Z</time>
      </trkpt>
      <trkpt lat="37.263855" lon="-7.13006833">
        <ele>37.0</ele>
        <time>2020-01-18T10:36:26.159Z</time>
      </trkpt>
      <trkpt lat="37.26388667" lon="-7.13008833">
        <ele>37.0</ele>
        <time>2020-01-18T10:36:27.137Z</time>
      </trkpt>
      <trkpt lat="37.26389667" lon="-7.13010667">
        <ele>37.0</ele>
        <time>2020-01-18T10:36:28.160Z</time>
      </trkpt>
      <trkpt lat="37.26389667" lon="-7.13010667">
        <ele>37.0</ele>
        <time>2020-01-18T10:36:29.137Z</time>
      </trkpt>
      <trkpt lat="37.26389833" lon="-7.13014167">
        <ele>37.0</ele>
        <time>2020-01-18T10:36:30.143Z</time>
      </trkpt>
      <trkpt lat="37.26389833" lon="-7.13014167">
        <ele>37.0</ele>
        <time>2020-01-18T10:36:31.151Z</time>
      </trkpt>
      <trkpt lat="37.26389667" lon="-7.13015833">
        <ele>37.0</ele>
        <time>2020-01-18T10:36:32.159Z</time>
      </trkpt>
      <trkpt lat="37.2639" lon="-7.13016167">
        <ele>37.0</ele>
        <time>2020-01-18T10:36:33.167Z</time>
      </trkpt>
      <trkpt lat="37.2639" lon="-7.13016333">
        <ele>37.0</ele>
        <time>2020-01-18T10:36:34.138Z</time>
      </trkpt>
      <trkpt lat="37.2639" lon="-7.13016333">
        <ele>37.0</ele>
        <time>2020-01-18T10:36:35.138Z</time>
      </trkpt>
      <trkpt lat="37.2639" lon="-7.13016333">
        <ele>37.0</ele>
        <time>2020-01-18T10:36:36.129Z</time>
      </trkpt>
      <trkpt lat="37.26398167" lon="-7.13030167">
        <ele>38.0</ele>
        <time>2020-01-18T10:36:37.143Z</time>
      </trkpt>
      <trkpt lat="37.26398167" lon="-7.13030167">
        <ele>38.0</ele>
        <time>2020-01-18T10:36:38.166Z</time>
      </trkpt>
      <trkpt lat="37.26403833" lon="-7.13036667">
        <ele>39.0</ele>
        <time>2020-01-18T10:36:39.132Z</time>
      </trkpt>
      <trkpt lat="37.26403833" lon="-7.13036667">
        <ele>39.0</ele>
        <time>2020-01-18T10:36:40.148Z</time>
      </trkpt>
      <trkpt lat="37.264095" lon="-7.13044">
        <ele>39.0</ele>
        <time>2020-01-18T10:36:41.142Z</time>
      </trkpt>
      <trkpt lat="37.264095" lon="-7.13044">
        <ele>39.0</ele>
        <time>2020-01-18T10:36:42.147Z</time>
      </trkpt>
      <trkpt lat="37.26415833" lon="-7.13052167">
        <ele>38.0</ele>
        <time>2020-01-18T10:36:43.170Z</time>
      </trkpt>
      <trkpt lat="37.26415833" lon="-7.13052167">
        <ele>38.0</ele>
        <time>2020-01-18T10:36:44.138Z</time>
      </trkpt>
      <trkpt lat="37.26422667" lon="-7.1306">
        <ele>38.0</ele>
        <time>2020-01-18T10:36:45.152Z</time>
      </trkpt>
      <trkpt lat="37.26422667" lon="-7.1306">
        <ele>38.0</ele>
        <time>2020-01-18T10:36:46.167Z</time>
      </trkpt>
      <trkpt lat="37.26430167" lon="-7.13066833">
        <ele>38.0</ele>
        <time>2020-01-18T10:36:47.142Z</time>
      </trkpt>
      <trkpt lat="37.26430167" lon="-7.13066833">
        <ele>38.0</ele>
        <time>2020-01-18T10:36:48.164Z</time>
      </trkpt>
      <trkpt lat="37.264365" lon="-7.13076167">
        <ele>37.0</ele>
        <time>2020-01-18T10:36:49.129Z</time>
      </trkpt>
      <trkpt lat="37.264365" lon="-7.13076167">
        <ele>37.0</ele>
        <time>2020-01-18T10:36:50.151Z</time>
      </trkpt>
      <trkpt lat="37.264415" lon="-7.13085">
        <ele>37.0</ele>
        <time>2020-01-18T10:36:51.162Z</time>
      </trkpt>
      <trkpt lat="37.26443167" lon="-7.13090333">
        <ele>37.0</ele>
        <time>2020-01-18T10:36:52.129Z</time>
      </trkpt>
      <trkpt lat="37.26443167" lon="-7.13090333">
        <ele>37.0</ele>
        <time>2020-01-18T10:36:53.150Z</time>
      </trkpt>
      <trkpt lat="37.26447167" lon="-7.13102667">
        <ele>36.0</ele>
        <time>2020-01-18T10:36:54.152Z</time>
      </trkpt>
      <trkpt lat="37.26448667" lon="-7.13109167">
        <ele>35.0</ele>
        <time>2020-01-18T10:36:55.161Z</time>
      </trkpt>
      <trkpt lat="37.26448667" lon="-7.13109167">
        <ele>35.0</ele>
        <time>2020-01-18T10:36:56.168Z</time>
      </trkpt>
      <trkpt lat="37.26450167" lon="-7.1312">
        <ele>34.0</ele>
        <time>2020-01-18T10:36:57.142Z</time>
      </trkpt>
      <trkpt lat="37.26450167" lon="-7.1312">
        <ele>34.0</ele>
        <time>2020-01-18T10:36:58.150Z</time>
      </trkpt>
      <trkpt lat="37.26450333" lon="-7.13131667">
        <ele>34.0</ele>
        <time>2020-01-18T10:36:59.137Z</time>
      </trkpt>
      <trkpt lat="37.26450333" lon="-7.13131667">
        <ele>34.0</ele>
        <time>2020-01-18T10:37:00.149Z</time>
      </trkpt>
      <trkpt lat="37.26451" lon="-7.13144">
        <ele>33.0</ele>
        <time>2020-01-18T10:37:01.155Z</time>
      </trkpt>
      <trkpt lat="37.26451" lon="-7.13144">
        <ele>33.0</ele>
        <time>2020-01-18T10:37:02.161Z</time>
      </trkpt>
      <trkpt lat="37.264495" lon="-7.13153833">
        <ele>33.0</ele>
        <time>2020-01-18T10:37:03.136Z</time>
      </trkpt>
      <trkpt lat="37.26448667" lon="-7.13158833">
        <ele>32.0</ele>
        <time>2020-01-18T10:37:04.146Z</time>
      </trkpt>
      <trkpt lat="37.26448667" lon="-7.13158833">
        <ele>32.0</ele>
        <time>2020-01-18T10:37:05.151Z</time>
      </trkpt>
      <trkpt lat="37.26449" lon="-7.13169667">
        <ele>32.0</ele>
        <time>2020-01-18T10:37:06.156Z</time>
      </trkpt>
      <trkpt lat="37.26449167" lon="-7.13173167">
        <ele>31.0</ele>
        <time>2020-01-18T10:37:07.162Z</time>
      </trkpt>
      <trkpt lat="37.26449167" lon="-7.13173167">
        <ele>31.0</ele>
        <time>2020-01-18T10:37:08.167Z</time>
      </trkpt>
      <trkpt lat="37.26448333" lon="-7.1318">
        <ele>31.0</ele>
        <time>2020-01-18T10:37:09.166Z</time>
      </trkpt>
      <trkpt lat="37.26448333" lon="-7.1318">
        <ele>31.0</ele>
        <time>2020-01-18T10:37:10.131Z</time>
      </trkpt>
      <trkpt lat="37.26448" lon="-7.13189167">
        <ele>30.0</ele>
        <time>2020-01-18T10:37:11.164Z</time>
      </trkpt>
      <trkpt lat="37.26448" lon="-7.13189167">
        <ele>30.0</ele>
        <time>2020-01-18T10:37:12.129Z</time>
      </trkpt>
      <trkpt lat="37.26449833" lon="-7.13199833">
        <ele>29.0</ele>
        <time>2020-01-18T10:37:13.147Z</time>
      </trkpt>
      <trkpt lat="37.26449833" lon="-7.13199833">
        <ele>29.0</ele>
        <time>2020-01-18T10:37:14.159Z</time>
      </trkpt>
      <trkpt lat="37.26456167" lon="-7.132075">
        <ele>29.0</ele>
        <time>2020-01-18T10:37:15.162Z</time>
      </trkpt>
      <trkpt lat="37.26456167" lon="-7.132075">
        <ele>29.0</ele>
        <time>2020-01-18T10:37:16.167Z</time>
      </trkpt>
      <trkpt lat="37.26462333" lon="-7.132145">
        <ele>28.0</ele>
        <time>2020-01-18T10:37:17.152Z</time>
      </trkpt>
      <trkpt lat="37.26462333" lon="-7.132145">
        <ele>28.0</ele>
        <time>2020-01-18T10:37:18.164Z</time>
      </trkpt>
      <trkpt lat="37.264675" lon="-7.13220167">
        <ele>28.0</ele>
        <time>2020-01-18T10:37:19.152Z</time>
      </trkpt>
      <trkpt lat="37.264675" lon="-7.13220167">
        <ele>28.0</ele>
        <time>2020-01-18T10:37:20.164Z</time>
      </trkpt>
      <trkpt lat="37.26473" lon="-7.13221833">
        <ele>28.0</ele>
        <time>2020-01-18T10:37:21.132Z</time>
      </trkpt>
      <trkpt lat="37.26473" lon="-7.13221833">
        <ele>28.0</ele>
        <time>2020-01-18T10:37:22.147Z</time>
      </trkpt>
      <trkpt lat="37.26478667" lon="-7.132235">
        <ele>28.0</ele>
        <time>2020-01-18T10:37:23.129Z</time>
      </trkpt>
      <trkpt lat="37.26478667" lon="-7.132235">
        <ele>28.0</ele>
        <time>2020-01-18T10:37:24.150Z</time>
      </trkpt>
      <trkpt lat="37.26484167" lon="-7.132295">
        <ele>28.0</ele>
        <time>2020-01-18T10:37:25.218Z</time>
      </trkpt>
      <trkpt lat="37.26484167" lon="-7.132295">
        <ele>28.0</ele>
        <time>2020-01-18T10:37:26.163Z</time>
      </trkpt>
      <trkpt lat="37.26491167" lon="-7.13235">
        <ele>29.0</ele>
        <time>2020-01-18T10:37:27.159Z</time>
      </trkpt>
      <trkpt lat="37.26491167" lon="-7.13235">
        <ele>29.0</ele>
        <time>2020-01-18T10:37:28.168Z</time>
      </trkpt>
      <trkpt lat="37.26498833" lon="-7.13240333">
        <ele>29.0</ele>
        <time>2020-01-18T10:37:29.152Z</time>
      </trkpt>
      <trkpt lat="37.26498833" lon="-7.13240333">
        <ele>29.0</ele>
        <time>2020-01-18T10:37:30.169Z</time>
      </trkpt>
      <trkpt lat="37.26506167" lon="-7.13245333">
        <ele>29.0</ele>
        <time>2020-01-18T10:37:31.195Z</time>
      </trkpt>
      <trkpt lat="37.26506167" lon="-7.13245333">
        <ele>29.0</ele>
        <time>2020-01-18T10:37:32.160Z</time>
      </trkpt>
      <trkpt lat="37.265135" lon="-7.13250333">
        <ele>29.0</ele>
        <time>2020-01-18T10:37:33.163Z</time>
      </trkpt>
      <trkpt lat="37.265135" lon="-7.13250333">
        <ele>29.0</ele>
        <time>2020-01-18T10:37:34.169Z</time>
      </trkpt>
      <trkpt lat="37.26521333" lon="-7.13255167">
        <ele>30.0</ele>
        <time>2020-01-18T10:37:35.132Z</time>
      </trkpt>
      <trkpt lat="37.26521333" lon="-7.13255167">
        <ele>30.0</ele>
        <time>2020-01-18T10:37:36.144Z</time>
      </trkpt>
      <trkpt lat="37.26529" lon="-7.13261667">
        <ele>30.0</ele>
        <time>2020-01-18T10:37:37.161Z</time>
      </trkpt>
      <trkpt lat="37.26529" lon="-7.13261667">
        <ele>30.0</ele>
        <time>2020-01-18T10:37:38.166Z</time>
      </trkpt>
      <trkpt lat="37.26536333" lon="-7.132665">
        <ele>30.0</ele>
        <time>2020-01-18T10:37:39.143Z</time>
      </trkpt>
      <trkpt lat="37.26536333" lon="-7.132665">
        <ele>30.0</ele>
        <time>2020-01-18T10:37:40.157Z</time>
      </trkpt>
      <trkpt lat="37.26543" lon="-7.132715">
        <ele>30.0</ele>
        <time>2020-01-18T10:37:41.159Z</time>
      </trkpt>
      <trkpt lat="37.26546833" lon="-7.13274">
        <ele>30.0</ele>
        <time>2020-01-18T10:37:42.162Z</time>
      </trkpt>
      <trkpt lat="37.26546833" lon="-7.13274">
        <ele>30.0</ele>
        <time>2020-01-18T10:37:43.169Z</time>
      </trkpt>
      <trkpt lat="37.26554167" lon="-7.13279">
        <ele>30.0</ele>
        <time>2020-01-18T10:37:44.165Z</time>
      </trkpt>
      <trkpt lat="37.26557833" lon="-7.132815">
        <ele>30.0</ele>
        <time>2020-01-18T10:37:45.149Z</time>
      </trkpt>
      <trkpt lat="37.26561667" lon="-7.13283667">
        <ele>30.0</ele>
        <time>2020-01-18T10:37:46.162Z</time>
      </trkpt>
      <trkpt lat="37.26561667" lon="-7.13283667">
        <ele>30.0</ele>
        <time>2020-01-18T10:37:47.167Z</time>
      </trkpt>
      <trkpt lat="37.26570333" lon="-7.132885">
        <ele>30.0</ele>
        <time>2020-01-18T10:37:48.152Z</time>
      </trkpt>
      <trkpt lat="37.26575167" lon="-7.13291">
        <ele>29.0</ele>
        <time>2020-01-18T10:37:49.148Z</time>
      </trkpt>
      <trkpt lat="37.26575167" lon="-7.13291">
        <ele>29.0</ele>
        <time>2020-01-18T10:37:50.162Z</time>
      </trkpt>
      <trkpt lat="37.265855" lon="-7.13297833">
        <ele>29.0</ele>
        <time>2020-01-18T10:37:51.141Z</time>
      </trkpt>
      <trkpt lat="37.26591333" lon="-7.13301167">
        <ele>28.0</ele>
        <time>2020-01-18T10:37:52.160Z</time>
      </trkpt>
      <trkpt lat="37.26591333" lon="-7.13301167">
        <ele>28.0</ele>
        <time>2020-01-18T10:37:53.166Z</time>
      </trkpt>
      <trkpt lat="37.266035" lon="-7.13308167">
        <ele>27.0</ele>
        <time>2020-01-18T10:37:54.162Z</time>
      </trkpt>
      <trkpt lat="37.26610667" lon="-7.13313167">
        <ele>27.0</ele>
        <time>2020-01-18T10:37:55.168Z</time>
      </trkpt>
      <trkpt lat="37.26610667" lon="-7.13313167">
        <ele>27.0</ele>
        <time>2020-01-18T10:37:56.134Z</time>
      </trkpt>
      <trkpt lat="37.26626667" lon="-7.133235">
        <ele>25.0</ele>
        <time>2020-01-18T10:37:57.162Z</time>
      </trkpt>
      <trkpt lat="37.26626667" lon="-7.133235">
        <ele>25.0</ele>
        <time>2020-01-18T10:37:58.167Z</time>
      </trkpt>
      <trkpt lat="37.266435" lon="-7.13334167">
        <ele>23.0</ele>
        <time>2020-01-18T10:37:59.135Z</time>
      </trkpt>
      <trkpt lat="37.266435" lon="-7.13334167">
        <ele>23.0</ele>
        <time>2020-01-18T10:38:00.131Z</time>
      </trkpt>
      <trkpt lat="37.26661667" lon="-7.13345167">
        <ele>21.0</ele>
        <time>2020-01-18T10:38:01.132Z</time>
      </trkpt>
      <trkpt lat="37.26661667" lon="-7.13345167">
        <ele>21.0</ele>
        <time>2020-01-18T10:38:02.150Z</time>
      </trkpt>
      <trkpt lat="37.266805" lon="-7.13357833">
        <ele>19.0</ele>
        <time>2020-01-18T10:38:03.152Z</time>
      </trkpt>
      <trkpt lat="37.26690333" lon="-7.13364833">
        <ele>18.0</ele>
        <time>2020-01-18T10:38:04.154Z</time>
      </trkpt>
      <trkpt lat="37.26690333" lon="-7.13364833">
        <ele>18.0</ele>
        <time>2020-01-18T10:38:05.162Z</time>
      </trkpt>
      <trkpt lat="37.26708667" lon="-7.13379833">
        <ele>16.0</ele>
        <time>2020-01-18T10:38:06.162Z</time>
      </trkpt>
      <trkpt lat="37.26717167" lon="-7.13388167">
        <ele>15.0</ele>
        <time>2020-01-18T10:38:07.164Z</time>
      </trkpt>
      <trkpt lat="37.26717167" lon="-7.13388167">
        <ele>15.0</ele>
        <time>2020-01-18T10:38:08.129Z</time>
      </trkpt>
      <trkpt lat="37.26732833" lon="-7.13406333">
        <ele>13.0</ele>
        <time>2020-01-18T10:38:09.132Z</time>
      </trkpt>
      <trkpt lat="37.26732833" lon="-7.13406333">
        <ele>13.0</ele>
        <time>2020-01-18T10:38:10.143Z</time>
      </trkpt>
      <trkpt lat="37.26747333" lon="-7.13425">
        <ele>11.0</ele>
        <time>2020-01-18T10:38:11.152Z</time>
      </trkpt>
      <trkpt lat="37.26747333" lon="-7.13425">
        <ele>11.0</ele>
        <time>2020-01-18T10:38:12.157Z</time>
      </trkpt>
      <trkpt lat="37.267605" lon="-7.13444">
        <ele>10.0</ele>
        <time>2020-01-18T10:38:13.132Z</time>
      </trkpt>
      <trkpt lat="37.267605" lon="-7.13444">
        <ele>10.0</ele>
        <time>2020-01-18T10:38:14.147Z</time>
      </trkpt>
      <trkpt lat="37.26772333" lon="-7.13463167">
        <ele>9.0</ele>
        <time>2020-01-18T10:38:15.168Z</time>
      </trkpt>
      <trkpt lat="37.26772333" lon="-7.13463167">
        <ele>9.0</ele>
        <time>2020-01-18T10:38:16.133Z</time>
      </trkpt>
      <trkpt lat="37.26782167" lon="-7.13482">
        <ele>8.0</ele>
        <time>2020-01-18T10:38:17.132Z</time>
      </trkpt>
      <trkpt lat="37.26782167" lon="-7.13482">
        <ele>8.0</ele>
        <time>2020-01-18T10:38:18.148Z</time>
      </trkpt>
      <trkpt lat="37.267905" lon="-7.13500333">
        <ele>8.0</ele>
        <time>2020-01-18T10:38:19.155Z</time>
      </trkpt>
      <trkpt lat="37.267905" lon="-7.13500333">
        <ele>8.0</ele>
        <time>2020-01-18T10:38:20.161Z</time>
      </trkpt>
      <trkpt lat="37.26798167" lon="-7.135175">
        <ele>8.0</ele>
        <time>2020-01-18T10:38:21.132Z</time>
      </trkpt>
      <trkpt lat="37.26801333" lon="-7.13526">
        <ele>8.0</ele>
        <time>2020-01-18T10:38:22.160Z</time>
      </trkpt>
      <trkpt lat="37.26801333" lon="-7.13526">
        <ele>8.0</ele>
        <time>2020-01-18T10:38:23.167Z</time>
      </trkpt>
      <trkpt lat="37.26806667" lon="-7.13543333">
        <ele>7.0</ele>
        <time>2020-01-18T10:38:24.132Z</time>
      </trkpt>
      <trkpt lat="37.26809167" lon="-7.13551833">
        <ele>7.0</ele>
        <time>2020-01-18T10:38:25.132Z</time>
      </trkpt>
      <trkpt lat="37.26809167" lon="-7.13551833">
        <ele>7.0</ele>
        <time>2020-01-18T10:38:26.137Z</time>
      </trkpt>
      <trkpt lat="37.26814167" lon="-7.13568667">
        <ele>7.0</ele>
        <time>2020-01-18T10:38:27.152Z</time>
      </trkpt>
      <trkpt lat="37.26816833" lon="-7.13577167">
        <ele>7.0</ele>
        <time>2020-01-18T10:38:28.139Z</time>
      </trkpt>
      <trkpt lat="37.26816833" lon="-7.13577167">
        <ele>7.0</ele>
        <time>2020-01-18T10:38:29.151Z</time>
      </trkpt>
      <trkpt lat="37.268215" lon="-7.13593667">
        <ele>6.0</ele>
        <time>2020-01-18T10:38:30.155Z</time>
      </trkpt>
      <trkpt lat="37.26823667" lon="-7.13601667">
        <ele>6.0</ele>
        <time>2020-01-18T10:38:31.202Z</time>
      </trkpt>
      <trkpt lat="37.26823667" lon="-7.13601667">
        <ele>6.0</ele>
        <time>2020-01-18T10:38:32.159Z</time>
      </trkpt>
      <trkpt lat="37.26828167" lon="-7.13617833">
        <ele>6.0</ele>
        <time>2020-01-18T10:38:33.162Z</time>
      </trkpt>
      <trkpt lat="37.26830333" lon="-7.13626">
        <ele>6.0</ele>
        <time>2020-01-18T10:38:34.142Z</time>
      </trkpt>
      <trkpt lat="37.26832167" lon="-7.13634">
        <ele>6.0</ele>
        <time>2020-01-18T10:38:35.156Z</time>
      </trkpt>
      <trkpt lat="37.26832167" lon="-7.13634">
        <ele>6.0</ele>
        <time>2020-01-18T10:38:36.164Z</time>
      </trkpt>
      <trkpt lat="37.26835" lon="-7.13650167">
        <ele>5.0</ele>
        <time>2020-01-18T10:38:37.129Z</time>
      </trkpt>
      <trkpt lat="37.26835" lon="-7.13650167">
        <ele>5.0</ele>
        <time>2020-01-18T10:38:38.142Z</time>
      </trkpt>
      <trkpt lat="37.26837667" lon="-7.13666667">
        <ele>5.0</ele>
        <time>2020-01-18T10:38:39.142Z</time>
      </trkpt>
      <trkpt lat="37.26837667" lon="-7.13666667">
        <ele>5.0</ele>
        <time>2020-01-18T10:38:40.156Z</time>
      </trkpt>
      <trkpt lat="37.26840833" lon="-7.136825">
        <ele>5.0</ele>
        <time>2020-01-18T10:38:41.157Z</time>
      </trkpt>
      <trkpt lat="37.26840833" lon="-7.136825">
        <ele>5.0</ele>
        <time>2020-01-18T10:38:42.163Z</time>
      </trkpt>
      <trkpt lat="37.26844167" lon="-7.13697833">
        <ele>5.0</ele>
        <time>2020-01-18T10:38:43.162Z</time>
      </trkpt>
      <trkpt lat="37.26844167" lon="-7.13697833">
        <ele>5.0</ele>
        <time>2020-01-18T10:38:44.167Z</time>
      </trkpt>
      <trkpt lat="37.26847833" lon="-7.13713333">
        <ele>4.0</ele>
        <time>2020-01-18T10:38:45.165Z</time>
      </trkpt>
      <trkpt lat="37.26847833" lon="-7.13713333">
        <ele>4.0</ele>
        <time>2020-01-18T10:38:46.130Z</time>
      </trkpt>
      <trkpt lat="37.26851333" lon="-7.13729">
        <ele>4.0</ele>
        <time>2020-01-18T10:38:47.166Z</time>
      </trkpt>
      <trkpt lat="37.26851333" lon="-7.13729">
        <ele>4.0</ele>
        <time>2020-01-18T10:38:48.131Z</time>
      </trkpt>
      <trkpt lat="37.26854667" lon="-7.13744167">
        <ele>4.0</ele>
        <time>2020-01-18T10:38:49.132Z</time>
      </trkpt>
      <trkpt lat="37.26854667" lon="-7.13744167">
        <ele>4.0</ele>
        <time>2020-01-18T10:38:50.144Z</time>
      </trkpt>
      <trkpt lat="37.26858" lon="-7.13759333">
        <ele>4.0</ele>
        <time>2020-01-18T10:38:51.152Z</time>
      </trkpt>
      <trkpt lat="37.26858" lon="-7.13759333">
        <ele>4.0</ele>
        <time>2020-01-18T10:38:52.162Z</time>
      </trkpt>
      <trkpt lat="37.26861167" lon="-7.13774833">
        <ele>3.0</ele>
        <time>2020-01-18T10:38:53.162Z</time>
      </trkpt>
      <trkpt lat="37.26861167" lon="-7.13774833">
        <ele>3.0</ele>
        <time>2020-01-18T10:38:54.167Z</time>
      </trkpt>
      <trkpt lat="37.26864833" lon="-7.13790167">
        <ele>3.0</ele>
        <time>2020-01-18T10:38:55.147Z</time>
      </trkpt>
      <trkpt lat="37.26864833" lon="-7.13790167">
        <ele>3.0</ele>
        <time>2020-01-18T10:38:56.162Z</time>
      </trkpt>
      <trkpt lat="37.26869667" lon="-7.13804667">
        <ele>3.0</ele>
        <time>2020-01-18T10:38:57.162Z</time>
      </trkpt>
      <trkpt lat="37.26869667" lon="-7.13804667">
        <ele>3.0</ele>
        <time>2020-01-18T10:38:58.134Z</time>
      </trkpt>
      <trkpt lat="37.26872667" lon="-7.13819667">
        <ele>4.0</ele>
        <time>2020-01-18T10:38:59.142Z</time>
      </trkpt>
      <trkpt lat="37.26872667" lon="-7.13819667">
        <ele>4.0</ele>
        <time>2020-01-18T10:39:00.138Z</time>
      </trkpt>
      <trkpt lat="37.26876333" lon="-7.13834333">
        <ele>3.0</ele>
        <time>2020-01-18T10:39:01.147Z</time>
      </trkpt>
      <trkpt lat="37.26876333" lon="-7.13834333">
        <ele>3.0</ele>
        <time>2020-01-18T10:39:02.160Z</time>
      </trkpt>
      <trkpt lat="37.26883833" lon="-7.13847167">
        <ele>3.0</ele>
        <time>2020-01-18T10:39:03.132Z</time>
      </trkpt>
      <trkpt lat="37.26888167" lon="-7.138535">
        <ele>3.0</ele>
        <time>2020-01-18T10:39:04.135Z</time>
      </trkpt>
      <trkpt lat="37.26888167" lon="-7.138535">
        <ele>3.0</ele>
        <time>2020-01-18T10:39:05.148Z</time>
      </trkpt>
      <trkpt lat="37.26896333" lon="-7.13867">
        <ele>3.0</ele>
        <time>2020-01-18T10:39:06.131Z</time>
      </trkpt>
      <trkpt lat="37.269005" lon="-7.13873833">
        <ele>3.0</ele>
        <time>2020-01-18T10:39:07.132Z</time>
      </trkpt>
      <trkpt lat="37.269005" lon="-7.13873833">
        <ele>3.0</ele>
        <time>2020-01-18T10:39:08.137Z</time>
      </trkpt>
      <trkpt lat="37.26908833" lon="-7.138875">
        <ele>3.0</ele>
        <time>2020-01-18T10:39:09.147Z</time>
      </trkpt>
      <trkpt lat="37.26913" lon="-7.13894167">
        <ele>3.0</ele>
        <time>2020-01-18T10:39:10.162Z</time>
      </trkpt>
      <trkpt lat="37.26913" lon="-7.13894167">
        <ele>3.0</ele>
        <time>2020-01-18T10:39:11.167Z</time>
      </trkpt>
      <trkpt lat="37.26921667" lon="-7.13907">
        <ele>3.0</ele>
        <time>2020-01-18T10:39:12.139Z</time>
      </trkpt>
      <trkpt lat="37.26921667" lon="-7.13907">
        <ele>3.0</ele>
        <time>2020-01-18T10:39:13.148Z</time>
      </trkpt>
      <trkpt lat="37.26930333" lon="-7.13919167">
        <ele>3.0</ele>
        <time>2020-01-18T10:39:14.136Z</time>
      </trkpt>
      <trkpt lat="37.26930333" lon="-7.13919167">
        <ele>3.0</ele>
        <time>2020-01-18T10:39:15.144Z</time>
      </trkpt>
      <trkpt lat="37.26939" lon="-7.139305">
        <ele>4.0</ele>
        <time>2020-01-18T10:39:16.135Z</time>
      </trkpt>
      <trkpt lat="37.26939" lon="-7.139305">
        <ele>4.0</ele>
        <time>2020-01-18T10:39:17.148Z</time>
      </trkpt>
      <trkpt lat="37.269475" lon="-7.13939167">
        <ele>5.0</ele>
        <time>2020-01-18T10:39:18.161Z</time>
      </trkpt>
      <trkpt lat="37.269515" lon="-7.13943333">
        <ele>5.0</ele>
        <time>2020-01-18T10:39:19.132Z</time>
      </trkpt>
      <trkpt lat="37.269515" lon="-7.13943333">
        <ele>5.0</ele>
        <time>2020-01-18T10:39:20.148Z</time>
      </trkpt>
      <trkpt lat="37.269605" lon="-7.13951">
        <ele>5.0</ele>
        <time>2020-01-18T10:39:21.152Z</time>
      </trkpt>
      <trkpt lat="37.269605" lon="-7.13951">
        <ele>5.0</ele>
        <time>2020-01-18T10:39:22.164Z</time>
      </trkpt>
      <trkpt lat="37.26971167" lon="-7.13958667">
        <ele>5.0</ele>
        <time>2020-01-18T10:39:23.132Z</time>
      </trkpt>
      <trkpt lat="37.26977" lon="-7.13963167">
        <ele>5.0</ele>
        <time>2020-01-18T10:39:24.148Z</time>
      </trkpt>
      <trkpt lat="37.26977" lon="-7.13963167">
        <ele>5.0</ele>
        <time>2020-01-18T10:39:25.163Z</time>
      </trkpt>
      <trkpt lat="37.26989167" lon="-7.13970667">
        <ele>5.0</ele>
        <time>2020-01-18T10:39:26.147Z</time>
      </trkpt>
      <trkpt lat="37.26989167" lon="-7.13970667">
        <ele>5.0</ele>
        <time>2020-01-18T10:39:27.136Z</time>
      </trkpt>
      <trkpt lat="37.27000333" lon="-7.13978667">
        <ele>5.0</ele>
        <time>2020-01-18T10:39:28.162Z</time>
      </trkpt>
      <trkpt lat="37.270055" lon="-7.139825">
        <ele>5.0</ele>
        <time>2020-01-18T10:39:29.163Z</time>
      </trkpt>
      <trkpt lat="37.270055" lon="-7.139825">
        <ele>5.0</ele>
        <time>2020-01-18T10:39:30.131Z</time>
      </trkpt>
      <trkpt lat="37.270155" lon="-7.13989667">
        <ele>5.0</ele>
        <time>2020-01-18T10:39:31.161Z</time>
      </trkpt>
      <trkpt lat="37.270155" lon="-7.13989667">
        <ele>5.0</ele>
        <time>2020-01-18T10:39:32.130Z</time>
      </trkpt>
      <trkpt lat="37.270265" lon="-7.13997833">
        <ele>5.0</ele>
        <time>2020-01-18T10:39:33.132Z</time>
      </trkpt>
      <trkpt lat="37.27032333" lon="-7.14001833">
        <ele>4.0</ele>
        <time>2020-01-18T10:39:34.157Z</time>
      </trkpt>
      <trkpt lat="37.27032333" lon="-7.14001833">
        <ele>4.0</ele>
        <time>2020-01-18T10:39:35.129Z</time>
      </trkpt>
      <trkpt lat="37.27045167" lon="-7.14010333">
        <ele>4.0</ele>
        <time>2020-01-18T10:39:36.141Z</time>
      </trkpt>
      <trkpt lat="37.27051333" lon="-7.14014333">
        <ele>4.0</ele>
        <time>2020-01-18T10:39:37.152Z</time>
      </trkpt>
      <trkpt lat="37.27051333" lon="-7.14014333">
        <ele>4.0</ele>
        <time>2020-01-18T10:39:38.158Z</time>
      </trkpt>
      <trkpt lat="37.27062" lon="-7.140225">
        <ele>4.0</ele>
        <time>2020-01-18T10:39:39.137Z</time>
      </trkpt>
      <trkpt lat="37.27062" lon="-7.140225">
        <ele>4.0</ele>
        <time>2020-01-18T10:39:40.148Z</time>
      </trkpt>
      <trkpt lat="37.27071333" lon="-7.14031333">
        <ele>4.0</ele>
        <time>2020-01-18T10:39:41.132Z</time>
      </trkpt>
      <trkpt lat="37.27071333" lon="-7.14031333">
        <ele>4.0</ele>
        <time>2020-01-18T10:39:42.149Z</time>
      </trkpt>
      <trkpt lat="37.27083333" lon="-7.14037167">
        <ele>3.0</ele>
        <time>2020-01-18T10:39:43.132Z</time>
      </trkpt>
      <trkpt lat="37.27083333" lon="-7.14037167">
        <ele>3.0</ele>
        <time>2020-01-18T10:39:44.145Z</time>
      </trkpt>
      <trkpt lat="37.27094833" lon="-7.14043333">
        <ele>3.0</ele>
        <time>2020-01-18T10:39:45.142Z</time>
      </trkpt>
      <trkpt lat="37.27100167" lon="-7.14047">
        <ele>3.0</ele>
        <time>2020-01-18T10:39:46.137Z</time>
      </trkpt>
      <trkpt lat="37.27100167" lon="-7.14047">
        <ele>3.0</ele>
        <time>2020-01-18T10:39:47.143Z</time>
      </trkpt>
      <trkpt lat="37.27109667" lon="-7.14055667">
        <ele>3.0</ele>
        <time>2020-01-18T10:39:48.164Z</time>
      </trkpt>
      <trkpt lat="37.27114667" lon="-7.140605">
        <ele>3.0</ele>
        <time>2020-01-18T10:39:49.159Z</time>
      </trkpt>
      <trkpt lat="37.27114667" lon="-7.140605">
        <ele>3.0</ele>
        <time>2020-01-18T10:39:50.163Z</time>
      </trkpt>
      <trkpt lat="37.27123833" lon="-7.14068333">
        <ele>4.0</ele>
        <time>2020-01-18T10:39:51.138Z</time>
      </trkpt>
      <trkpt lat="37.27123833" lon="-7.14068333">
        <ele>4.0</ele>
        <time>2020-01-18T10:39:52.143Z</time>
      </trkpt>
      <trkpt lat="37.27133667" lon="-7.14076667">
        <ele>5.0</ele>
        <time>2020-01-18T10:39:53.142Z</time>
      </trkpt>
      <trkpt lat="37.27133667" lon="-7.14076667">
        <ele>5.0</ele>
        <time>2020-01-18T10:39:54.147Z</time>
      </trkpt>
      <trkpt lat="37.271435" lon="-7.14085167">
        <ele>5.0</ele>
        <time>2020-01-18T10:39:55.136Z</time>
      </trkpt>
      <trkpt lat="37.271435" lon="-7.14085167">
        <ele>5.0</ele>
        <time>2020-01-18T10:39:56.148Z</time>
      </trkpt>
      <trkpt lat="37.27153667" lon="-7.14093833">
        <ele>6.0</ele>
        <time>2020-01-18T10:39:57.142Z</time>
      </trkpt>
      <trkpt lat="37.27153667" lon="-7.14093833">
        <ele>6.0</ele>
        <time>2020-01-18T10:39:58.152Z</time>
      </trkpt>
      <trkpt lat="37.27164" lon="-7.14102833">
        <ele>6.0</ele>
        <time>2020-01-18T10:39:59.146Z</time>
      </trkpt>
      <trkpt lat="37.27164" lon="-7.14102833">
        <ele>6.0</ele>
        <time>2020-01-18T10:40:00.152Z</time>
      </trkpt>
      <trkpt lat="37.27174167" lon="-7.14111167">
        <ele>7.0</ele>
        <time>2020-01-18T10:40:01.162Z</time>
      </trkpt>
      <trkpt lat="37.27174167" lon="-7.14111167">
        <ele>7.0</ele>
        <time>2020-01-18T10:40:02.167Z</time>
      </trkpt>
      <trkpt lat="37.27184167" lon="-7.14119667">
        <ele>8.0</ele>
        <time>2020-01-18T10:40:03.132Z</time>
      </trkpt>
      <trkpt lat="37.27189333" lon="-7.14123833">
        <ele>8.0</ele>
        <time>2020-01-18T10:40:04.141Z</time>
      </trkpt>
      <trkpt lat="37.27189333" lon="-7.14123833">
        <ele>8.0</ele>
        <time>2020-01-18T10:40:05.164Z</time>
      </trkpt>
      <trkpt lat="37.27199167" lon="-7.141335">
        <ele>9.0</ele>
        <time>2020-01-18T10:40:06.132Z</time>
      </trkpt>
      <trkpt lat="37.27203833" lon="-7.14137667">
        <ele>10.0</ele>
        <time>2020-01-18T10:40:07.142Z</time>
      </trkpt>
      <trkpt lat="37.27203833" lon="-7.14137667">
        <ele>10.0</ele>
        <time>2020-01-18T10:40:08.159Z</time>
      </trkpt>
      <trkpt lat="37.27214167" lon="-7.14146333">
        <ele>11.0</ele>
        <time>2020-01-18T10:40:09.135Z</time>
      </trkpt>
      <trkpt lat="37.27214167" lon="-7.14146333">
        <ele>11.0</ele>
        <time>2020-01-18T10:40:10.151Z</time>
      </trkpt>
      <trkpt lat="37.272235" lon="-7.14154">
        <ele>11.0</ele>
        <time>2020-01-18T10:40:11.162Z</time>
      </trkpt>
      <trkpt lat="37.27228167" lon="-7.141575">
        <ele>12.0</ele>
        <time>2020-01-18T10:40:12.137Z</time>
      </trkpt>
      <trkpt lat="37.27233167" lon="-7.14161333">
        <ele>12.0</ele>
        <time>2020-01-18T10:40:13.160Z</time>
      </trkpt>
      <trkpt lat="37.27233167" lon="-7.14161333">
        <ele>12.0</ele>
        <time>2020-01-18T10:40:14.165Z</time>
      </trkpt>
      <trkpt lat="37.27242833" lon="-7.141685">
        <ele>14.0</ele>
        <time>2020-01-18T10:40:15.141Z</time>
      </trkpt>
      <trkpt lat="37.27242833" lon="-7.141685">
        <ele>14.0</ele>
        <time>2020-01-18T10:40:16.163Z</time>
      </trkpt>
      <trkpt lat="37.27253667" lon="-7.14172167">
        <ele>14.0</ele>
        <time>2020-01-18T10:40:17.153Z</time>
      </trkpt>
      <trkpt lat="37.27258833" lon="-7.14174167">
        <ele>14.0</ele>
        <time>2020-01-18T10:40:18.132Z</time>
      </trkpt>
      <trkpt lat="37.27263333" lon="-7.14176833">
        <ele>15.0</ele>
        <time>2020-01-18T10:40:19.158Z</time>
      </trkpt>
      <trkpt lat="37.27263333" lon="-7.14176833">
        <ele>15.0</ele>
        <time>2020-01-18T10:40:20.165Z</time>
      </trkpt>
      <trkpt lat="37.27272167" lon="-7.14183333">
        <ele>14.0</ele>
        <time>2020-01-18T10:40:21.152Z</time>
      </trkpt>
      <trkpt lat="37.27276667" lon="-7.14185667">
        <ele>14.0</ele>
        <time>2020-01-18T10:40:22.162Z</time>
      </trkpt>
      <trkpt lat="37.27276667" lon="-7.14185667">
        <ele>14.0</ele>
        <time>2020-01-18T10:40:23.135Z</time>
      </trkpt>
      <trkpt lat="37.27286333" lon="-7.141895">
        <ele>14.0</ele>
        <time>2020-01-18T10:40:24.133Z</time>
      </trkpt>
      <trkpt lat="37.27291" lon="-7.14192">
        <ele>14.0</ele>
        <time>2020-01-18T10:40:25.143Z</time>
      </trkpt>
      <trkpt lat="37.27291" lon="-7.14192">
        <ele>14.0</ele>
        <time>2020-01-18T10:40:26.148Z</time>
      </trkpt>
      <trkpt lat="37.27300333" lon="-7.141965">
        <ele>14.0</ele>
        <time>2020-01-18T10:40:27.152Z</time>
      </trkpt>
      <trkpt lat="37.27300333" lon="-7.141965">
        <ele>14.0</ele>
        <time>2020-01-18T10:40:28.162Z</time>
      </trkpt>
      <trkpt lat="37.27309833" lon="-7.14201167">
        <ele>14.0</ele>
        <time>2020-01-18T10:40:29.142Z</time>
      </trkpt>
      <trkpt lat="37.27309833" lon="-7.14201167">
        <ele>14.0</ele>
        <time>2020-01-18T10:40:30.159Z</time>
      </trkpt>
      <trkpt lat="37.27319833" lon="-7.14206167">
        <ele>13.0</ele>
        <time>2020-01-18T10:40:31.172Z</time>
      </trkpt>
      <trkpt lat="37.27319833" lon="-7.14206167">
        <ele>13.0</ele>
        <time>2020-01-18T10:40:32.149Z</time>
      </trkpt>
      <trkpt lat="37.27330333" lon="-7.14210667">
        <ele>13.0</ele>
        <time>2020-01-18T10:40:33.168Z</time>
      </trkpt>
      <trkpt lat="37.27335333" lon="-7.14212833">
        <ele>13.0</ele>
        <time>2020-01-18T10:40:34.162Z</time>
      </trkpt>
      <trkpt lat="37.27335333" lon="-7.14212833">
        <ele>13.0</ele>
        <time>2020-01-18T10:40:35.132Z</time>
      </trkpt>
      <trkpt lat="37.273455" lon="-7.14217">
        <ele>13.0</ele>
        <time>2020-01-18T10:40:36.142Z</time>
      </trkpt>
      <trkpt lat="37.27350333" lon="-7.14218667">
        <ele>13.0</ele>
        <time>2020-01-18T10:40:37.165Z</time>
      </trkpt>
      <trkpt lat="37.27350333" lon="-7.14218667">
        <ele>13.0</ele>
        <time>2020-01-18T10:40:38.130Z</time>
      </trkpt>
      <trkpt lat="37.2736" lon="-7.14223">
        <ele>12.0</ele>
        <time>2020-01-18T10:40:39.161Z</time>
      </trkpt>
      <trkpt lat="37.2736" lon="-7.14223">
        <ele>12.0</ele>
        <time>2020-01-18T10:40:40.164Z</time>
      </trkpt>
      <trkpt lat="37.27370167" lon="-7.14227333">
        <ele>12.0</ele>
        <time>2020-01-18T10:40:41.129Z</time>
      </trkpt>
      <trkpt lat="37.27370167" lon="-7.14227333">
        <ele>12.0</ele>
        <time>2020-01-18T10:40:42.139Z</time>
      </trkpt>
      <trkpt lat="37.27380167" lon="-7.14231833">
        <ele>12.0</ele>
        <time>2020-01-18T10:40:43.129Z</time>
      </trkpt>
      <trkpt lat="37.27380167" lon="-7.14231833">
        <ele>12.0</ele>
        <time>2020-01-18T10:40:44.130Z</time>
      </trkpt>
      <trkpt lat="37.27390167" lon="-7.14236">
        <ele>12.0</ele>
        <time>2020-01-18T10:40:45.151Z</time>
      </trkpt>
      <trkpt lat="37.27394833" lon="-7.14238">
        <ele>12.0</ele>
        <time>2020-01-18T10:40:46.162Z</time>
      </trkpt>
      <trkpt lat="37.27394833" lon="-7.14238">
        <ele>12.0</ele>
        <time>2020-01-18T10:40:47.167Z</time>
      </trkpt>
      <trkpt lat="37.27404667" lon="-7.14241667">
        <ele>12.0</ele>
        <time>2020-01-18T10:40:48.162Z</time>
      </trkpt>
      <trkpt lat="37.27409833" lon="-7.14243833">
        <ele>12.0</ele>
        <time>2020-01-18T10:40:49.132Z</time>
      </trkpt>
      <trkpt lat="37.27409833" lon="-7.14243833">
        <ele>12.0</ele>
        <time>2020-01-18T10:40:50.150Z</time>
      </trkpt>
      <trkpt lat="37.27419833" lon="-7.14248">
        <ele>12.0</ele>
        <time>2020-01-18T10:40:51.159Z</time>
      </trkpt>
      <trkpt lat="37.27419833" lon="-7.14248">
        <ele>12.0</ele>
        <time>2020-01-18T10:40:52.164Z</time>
      </trkpt>
      <trkpt lat="37.27428167" lon="-7.14251167">
        <ele>13.0</ele>
        <time>2020-01-18T10:40:53.139Z</time>
      </trkpt>
      <trkpt lat="37.27428167" lon="-7.14251167">
        <ele>13.0</ele>
        <time>2020-01-18T10:40:54.151Z</time>
      </trkpt>
      <trkpt lat="37.27435667" lon="-7.14253667">
        <ele>13.0</ele>
        <time>2020-01-18T10:40:55.163Z</time>
      </trkpt>
      <trkpt lat="37.274395" lon="-7.14255167">
        <ele>13.0</ele>
        <time>2020-01-18T10:40:56.156Z</time>
      </trkpt>
      <trkpt lat="37.274395" lon="-7.14255167">
        <ele>13.0</ele>
        <time>2020-01-18T10:40:57.162Z</time>
      </trkpt>
      <trkpt lat="37.27446667" lon="-7.14257333">
        <ele>12.0</ele>
        <time>2020-01-18T10:40:58.161Z</time>
      </trkpt>
      <trkpt lat="37.27446667" lon="-7.14257333">
        <ele>12.0</ele>
        <time>2020-01-18T10:40:59.133Z</time>
      </trkpt>
      <trkpt lat="37.27453333" lon="-7.14259333">
        <ele>12.0</ele>
        <time>2020-01-18T10:41:00.162Z</time>
      </trkpt>
      <trkpt lat="37.27457" lon="-7.142605">
        <ele>12.0</ele>
        <time>2020-01-18T10:41:01.157Z</time>
      </trkpt>
      <trkpt lat="37.27457" lon="-7.142605">
        <ele>12.0</ele>
        <time>2020-01-18T10:41:02.160Z</time>
      </trkpt>
      <trkpt lat="37.27463833" lon="-7.14264333">
        <ele>12.0</ele>
        <time>2020-01-18T10:41:03.132Z</time>
      </trkpt>
      <trkpt lat="37.274665" lon="-7.14267">
        <ele>12.0</ele>
        <time>2020-01-18T10:41:04.132Z</time>
      </trkpt>
      <trkpt lat="37.274665" lon="-7.14267">
        <ele>12.0</ele>
        <time>2020-01-18T10:41:05.139Z</time>
      </trkpt>
      <trkpt lat="37.27473167" lon="-7.14271">
        <ele>12.0</ele>
        <time>2020-01-18T10:41:06.132Z</time>
      </trkpt>
      <trkpt lat="37.27477167" lon="-7.14272667">
        <ele>12.0</ele>
        <time>2020-01-18T10:41:07.146Z</time>
      </trkpt>
      <trkpt lat="37.27477167" lon="-7.14272667">
        <ele>12.0</ele>
        <time>2020-01-18T10:41:08.151Z</time>
      </trkpt>
      <trkpt lat="37.27485" lon="-7.14276167">
        <ele>12.0</ele>
        <time>2020-01-18T10:41:09.151Z</time>
      </trkpt>
      <trkpt lat="37.27485" lon="-7.14276167">
        <ele>12.0</ele>
        <time>2020-01-18T10:41:10.162Z</time>
      </trkpt>
      <trkpt lat="37.274935" lon="-7.14278833">
        <ele>13.0</ele>
        <time>2020-01-18T10:41:11.149Z</time>
      </trkpt>
      <trkpt lat="37.274935" lon="-7.14278833">
        <ele>13.0</ele>
        <time>2020-01-18T10:41:12.161Z</time>
      </trkpt>
      <trkpt lat="37.27502333" lon="-7.14281333">
        <ele>13.0</ele>
        <time>2020-01-18T10:41:13.162Z</time>
      </trkpt>
      <trkpt lat="37.27502333" lon="-7.14281333">
        <ele>13.0</ele>
        <time>2020-01-18T10:41:14.167Z</time>
      </trkpt>
      <trkpt lat="37.27512167" lon="-7.14284333">
        <ele>13.0</ele>
        <time>2020-01-18T10:41:15.132Z</time>
      </trkpt>
      <trkpt lat="37.27512167" lon="-7.14284333">
        <ele>13.0</ele>
        <time>2020-01-18T10:41:16.144Z</time>
      </trkpt>
      <trkpt lat="37.27522333" lon="-7.14287333">
        <ele>13.0</ele>
        <time>2020-01-18T10:41:17.146Z</time>
      </trkpt>
      <trkpt lat="37.27522333" lon="-7.14287333">
        <ele>13.0</ele>
        <time>2020-01-18T10:41:18.162Z</time>
      </trkpt>
      <trkpt lat="37.27533667" lon="-7.14290667">
        <ele>12.0</ele>
        <time>2020-01-18T10:41:19.162Z</time>
      </trkpt>
      <trkpt lat="37.27533667" lon="-7.14290667">
        <ele>12.0</ele>
        <time>2020-01-18T10:41:20.167Z</time>
      </trkpt>
      <trkpt lat="37.27545" lon="-7.14293167">
        <ele>12.0</ele>
        <time>2020-01-18T10:41:21.139Z</time>
      </trkpt>
      <trkpt lat="37.27550833" lon="-7.14294167">
        <ele>14.0</ele>
        <time>2020-01-18T10:41:22.148Z</time>
      </trkpt>
      <trkpt lat="37.27550833" lon="-7.14294167">
        <ele>14.0</ele>
        <time>2020-01-18T10:41:23.166Z</time>
      </trkpt>
      <trkpt lat="37.27562" lon="-7.14297333">
        <ele>14.0</ele>
        <time>2020-01-18T10:41:24.138Z</time>
      </trkpt>
      <trkpt lat="37.27562" lon="-7.14297333">
        <ele>14.0</ele>
        <time>2020-01-18T10:41:25.144Z</time>
      </trkpt>
      <trkpt lat="37.27573333" lon="-7.14300667">
        <ele>14.0</ele>
        <time>2020-01-18T10:41:26.159Z</time>
      </trkpt>
      <trkpt lat="37.27579167" lon="-7.14302">
        <ele>14.0</ele>
        <time>2020-01-18T10:41:27.162Z</time>
      </trkpt>
      <trkpt lat="37.27585333" lon="-7.14303833">
        <ele>14.0</ele>
        <time>2020-01-18T10:41:28.156Z</time>
      </trkpt>
      <trkpt lat="37.27585333" lon="-7.14303833">
        <ele>14.0</ele>
        <time>2020-01-18T10:41:29.163Z</time>
      </trkpt>
      <trkpt lat="37.27597" lon="-7.14307">
        <ele>14.0</ele>
        <time>2020-01-18T10:41:30.164Z</time>
      </trkpt>
      <trkpt lat="37.27602333" lon="-7.14308667">
        <ele>14.0</ele>
        <time>2020-01-18T10:41:31.149Z</time>
      </trkpt>
      <trkpt lat="37.27602333" lon="-7.14308667">
        <ele>14.0</ele>
        <time>2020-01-18T10:41:32.134Z</time>
      </trkpt>
      <trkpt lat="37.27613333" lon="-7.14312333">
        <ele>13.0</ele>
        <time>2020-01-18T10:41:33.130Z</time>
      </trkpt>
      <trkpt lat="37.27613333" lon="-7.14312333">
        <ele>13.0</ele>
        <time>2020-01-18T10:41:34.140Z</time>
      </trkpt>
      <trkpt lat="37.27625833" lon="-7.14316667">
        <ele>12.0</ele>
        <time>2020-01-18T10:41:35.132Z</time>
      </trkpt>
      <trkpt lat="37.276325" lon="-7.14318833">
        <ele>11.0</ele>
        <time>2020-01-18T10:41:36.140Z</time>
      </trkpt>
      <trkpt lat="37.276385" lon="-7.14320667">
        <ele>12.0</ele>
        <time>2020-01-18T10:41:37.144Z</time>
      </trkpt>
      <trkpt lat="37.276385" lon="-7.14320667">
        <ele>12.0</ele>
        <time>2020-01-18T10:41:38.156Z</time>
      </trkpt>
      <trkpt lat="37.27650167" lon="-7.14324">
        <ele>12.0</ele>
        <time>2020-01-18T10:41:39.147Z</time>
      </trkpt>
      <trkpt lat="37.27650167" lon="-7.14324">
        <ele>12.0</ele>
        <time>2020-01-18T10:41:40.152Z</time>
      </trkpt>
      <trkpt lat="37.27659833" lon="-7.14327667">
        <ele>13.0</ele>
        <time>2020-01-18T10:41:41.131Z</time>
      </trkpt>
      <trkpt lat="37.27659833" lon="-7.14327667">
        <ele>13.0</ele>
        <time>2020-01-18T10:41:42.150Z</time>
      </trkpt>
      <trkpt lat="37.276685" lon="-7.143305">
        <ele>13.0</ele>
        <time>2020-01-18T10:41:43.150Z</time>
      </trkpt>
      <trkpt lat="37.276685" lon="-7.143305">
        <ele>13.0</ele>
        <time>2020-01-18T10:41:44.164Z</time>
      </trkpt>
      <trkpt lat="37.27676667" lon="-7.14334333">
        <ele>13.0</ele>
        <time>2020-01-18T10:41:45.132Z</time>
      </trkpt>
      <trkpt lat="37.27680833" lon="-7.143365">
        <ele>13.0</ele>
        <time>2020-01-18T10:41:46.142Z</time>
      </trkpt>
      <trkpt lat="37.27680833" lon="-7.143365">
        <ele>13.0</ele>
        <time>2020-01-18T10:41:47.154Z</time>
      </trkpt>
      <trkpt lat="37.27689333" lon="-7.143405">
        <ele>14.0</ele>
        <time>2020-01-18T10:41:48.160Z</time>
      </trkpt>
      <trkpt lat="37.27693667" lon="-7.14342167">
        <ele>14.0</ele>
        <time>2020-01-18T10:41:49.156Z</time>
      </trkpt>
      <trkpt lat="37.27693667" lon="-7.14342167">
        <ele>14.0</ele>
        <time>2020-01-18T10:41:50.162Z</time>
      </trkpt>
      <trkpt lat="37.27702333" lon="-7.14346167">
        <ele>14.0</ele>
        <time>2020-01-18T10:41:51.132Z</time>
      </trkpt>
      <trkpt lat="37.27706667" lon="-7.14348667">
        <ele>14.0</ele>
        <time>2020-01-18T10:41:52.152Z</time>
      </trkpt>
      <trkpt lat="37.27706667" lon="-7.14348667">
        <ele>14.0</ele>
        <time>2020-01-18T10:41:53.160Z</time>
      </trkpt>
      <trkpt lat="37.27715333" lon="-7.14353833">
        <ele>14.0</ele>
        <time>2020-01-18T10:41:54.159Z</time>
      </trkpt>
      <trkpt lat="37.27719667" lon="-7.14356333">
        <ele>14.0</ele>
        <time>2020-01-18T10:41:55.156Z</time>
      </trkpt>
      <trkpt lat="37.27719667" lon="-7.14356333">
        <ele>14.0</ele>
        <time>2020-01-18T10:41:56.161Z</time>
      </trkpt>
      <trkpt lat="37.27727833" lon="-7.1436">
        <ele>15.0</ele>
        <time>2020-01-18T10:41:57.157Z</time>
      </trkpt>
      <trkpt lat="37.27727833" lon="-7.1436">
        <ele>15.0</ele>
        <time>2020-01-18T10:41:58.162Z</time>
      </trkpt>
      <trkpt lat="37.27734667" lon="-7.143635">
        <ele>15.0</ele>
        <time>2020-01-18T10:41:59.130Z</time>
      </trkpt>
      <trkpt lat="37.27734667" lon="-7.143635">
        <ele>15.0</ele>
        <time>2020-01-18T10:42:00.137Z</time>
      </trkpt>
      <trkpt lat="37.277425" lon="-7.14367833">
        <ele>16.0</ele>
        <time>2020-01-18T10:42:01.142Z</time>
      </trkpt>
      <trkpt lat="37.277425" lon="-7.14367833">
        <ele>16.0</ele>
        <time>2020-01-18T10:42:02.161Z</time>
      </trkpt>
      <trkpt lat="37.27750667" lon="-7.14372167">
        <ele>16.0</ele>
        <time>2020-01-18T10:42:03.142Z</time>
      </trkpt>
      <trkpt lat="37.27750667" lon="-7.14372167">
        <ele>16.0</ele>
        <time>2020-01-18T10:42:04.154Z</time>
      </trkpt>
      <trkpt lat="37.27758667" lon="-7.14377167">
        <ele>16.0</ele>
        <time>2020-01-18T10:42:05.167Z</time>
      </trkpt>
      <trkpt lat="37.27762833" lon="-7.14379833">
        <ele>16.0</ele>
        <time>2020-01-18T10:42:06.166Z</time>
      </trkpt>
      <trkpt lat="37.27767" lon="-7.14382167">
        <ele>16.0</ele>
        <time>2020-01-18T10:42:07.134Z</time>
      </trkpt>
      <trkpt lat="37.27767" lon="-7.14382167">
        <ele>16.0</ele>
        <time>2020-01-18T10:42:08.147Z</time>
      </trkpt>
      <trkpt lat="37.27774667" lon="-7.143865">
        <ele>16.0</ele>
        <time>2020-01-18T10:42:09.142Z</time>
      </trkpt>
      <trkpt lat="37.277785" lon="-7.143885">
        <ele>17.0</ele>
        <time>2020-01-18T10:42:10.142Z</time>
      </trkpt>
      <trkpt lat="37.277785" lon="-7.143885">
        <ele>17.0</ele>
        <time>2020-01-18T10:42:11.164Z</time>
      </trkpt>
      <trkpt lat="37.27786167" lon="-7.14393333">
        <ele>17.0</ele>
        <time>2020-01-18T10:42:12.165Z</time>
      </trkpt>
      <trkpt lat="37.27790167" lon="-7.14396">
        <ele>17.0</ele>
        <time>2020-01-18T10:42:13.162Z</time>
      </trkpt>
      <trkpt lat="37.27793667" lon="-7.14398833">
        <ele>18.0</ele>
        <time>2020-01-18T10:42:14.133Z</time>
      </trkpt>
      <trkpt lat="37.27793667" lon="-7.14398833">
        <ele>18.0</ele>
        <time>2020-01-18T10:42:15.144Z</time>
      </trkpt>
      <trkpt lat="37.27800833" lon="-7.14405">
        <ele>18.0</ele>
        <time>2020-01-18T10:42:16.410Z</time>
      </trkpt>
      <trkpt lat="37.27800833" lon="-7.14405">
        <ele>18.0</ele>
        <time>2020-01-18T10:42:17.140Z</time>
      </trkpt>
      <trkpt lat="37.27807167" lon="-7.144105">
        <ele>19.0</ele>
        <time>2020-01-18T10:42:18.132Z</time>
      </trkpt>
      <trkpt lat="37.27809833" lon="-7.14413667">
        <ele>19.0</ele>
        <time>2020-01-18T10:42:19.130Z</time>
      </trkpt>
      <trkpt lat="37.27809833" lon="-7.14413667">
        <ele>19.0</ele>
        <time>2020-01-18T10:42:20.136Z</time>
      </trkpt>
      <trkpt lat="37.27816667" lon="-7.14420667">
        <ele>20.0</ele>
        <time>2020-01-18T10:42:21.145Z</time>
      </trkpt>
      <trkpt lat="37.27816667" lon="-7.14420667">
        <ele>20.0</ele>
        <time>2020-01-18T10:42:22.160Z</time>
      </trkpt>
      <trkpt lat="37.27824" lon="-7.14427333">
        <ele>21.0</ele>
        <time>2020-01-18T10:42:23.137Z</time>
      </trkpt>
      <trkpt lat="37.27827833" lon="-7.144305">
        <ele>21.0</ele>
        <time>2020-01-18T10:42:24.132Z</time>
      </trkpt>
      <trkpt lat="37.27831667" lon="-7.14433667">
        <ele>21.0</ele>
        <time>2020-01-18T10:42:25.132Z</time>
      </trkpt>
      <trkpt lat="37.27831667" lon="-7.14433667">
        <ele>21.0</ele>
        <time>2020-01-18T10:42:26.138Z</time>
      </trkpt>
      <trkpt lat="37.278395" lon="-7.144395">
        <ele>21.0</ele>
        <time>2020-01-18T10:42:27.134Z</time>
      </trkpt>
      <trkpt lat="37.278395" lon="-7.144395">
        <ele>21.0</ele>
        <time>2020-01-18T10:42:28.144Z</time>
      </trkpt>
      <trkpt lat="37.27848667" lon="-7.14444167">
        <ele>21.0</ele>
        <time>2020-01-18T10:42:29.142Z</time>
      </trkpt>
      <trkpt lat="37.27848667" lon="-7.14444167">
        <ele>21.0</ele>
        <time>2020-01-18T10:42:30.153Z</time>
      </trkpt>
      <trkpt lat="37.27857167" lon="-7.14449667">
        <ele>21.0</ele>
        <time>2020-01-18T10:42:31.180Z</time>
      </trkpt>
      <trkpt lat="37.278615" lon="-7.14452">
        <ele>21.0</ele>
        <time>2020-01-18T10:42:32.163Z</time>
      </trkpt>
      <trkpt lat="37.278615" lon="-7.14452">
        <ele>21.0</ele>
        <time>2020-01-18T10:42:33.168Z</time>
      </trkpt>
      <trkpt lat="37.27869667" lon="-7.144575">
        <ele>21.0</ele>
        <time>2020-01-18T10:42:34.152Z</time>
      </trkpt>
      <trkpt lat="37.27869667" lon="-7.144575">
        <ele>21.0</ele>
        <time>2020-01-18T10:42:35.158Z</time>
      </trkpt>
      <trkpt lat="37.27877333" lon="-7.14463167">
        <ele>21.0</ele>
        <time>2020-01-18T10:42:36.151Z</time>
      </trkpt>
      <trkpt lat="37.27881167" lon="-7.14465833">
        <ele>21.0</ele>
        <time>2020-01-18T10:42:37.132Z</time>
      </trkpt>
      <trkpt lat="37.27881167" lon="-7.14465833">
        <ele>21.0</ele>
        <time>2020-01-18T10:42:38.146Z</time>
      </trkpt>
      <trkpt lat="37.27888333" lon="-7.14471">
        <ele>21.0</ele>
        <time>2020-01-18T10:42:39.162Z</time>
      </trkpt>
      <trkpt lat="37.27888333" lon="-7.14471">
        <ele>21.0</ele>
        <time>2020-01-18T10:42:40.167Z</time>
      </trkpt>
      <trkpt lat="37.27896" lon="-7.14476333">
        <ele>21.0</ele>
        <time>2020-01-18T10:42:41.133Z</time>
      </trkpt>
      <trkpt lat="37.27896" lon="-7.14476333">
        <ele>21.0</ele>
        <time>2020-01-18T10:42:42.141Z</time>
      </trkpt>
      <trkpt lat="37.27903333" lon="-7.14482333">
        <ele>21.0</ele>
        <time>2020-01-18T10:42:43.152Z</time>
      </trkpt>
      <trkpt lat="37.27903333" lon="-7.14482333">
        <ele>21.0</ele>
        <time>2020-01-18T10:42:44.157Z</time>
      </trkpt>
      <trkpt lat="37.27909333" lon="-7.14488333">
        <ele>21.0</ele>
        <time>2020-01-18T10:42:45.152Z</time>
      </trkpt>
      <trkpt lat="37.27909333" lon="-7.14488333">
        <ele>21.0</ele>
        <time>2020-01-18T10:42:46.157Z</time>
      </trkpt>
      <trkpt lat="37.27915167" lon="-7.14494">
        <ele>21.0</ele>
        <time>2020-01-18T10:42:47.142Z</time>
      </trkpt>
      <trkpt lat="37.27918333" lon="-7.14496667">
        <ele>22.0</ele>
        <time>2020-01-18T10:42:48.156Z</time>
      </trkpt>
      <trkpt lat="37.27920833" lon="-7.14498167">
        <ele>22.0</ele>
        <time>2020-01-18T10:42:49.147Z</time>
      </trkpt>
      <trkpt lat="37.27920833" lon="-7.14498167">
        <ele>22.0</ele>
        <time>2020-01-18T10:42:50.152Z</time>
      </trkpt>
      <trkpt lat="37.27926167" lon="-7.14502667">
        <ele>23.0</ele>
        <time>2020-01-18T10:42:51.157Z</time>
      </trkpt>
      <trkpt lat="37.27926167" lon="-7.14502667">
        <ele>23.0</ele>
        <time>2020-01-18T10:42:52.164Z</time>
      </trkpt>
      <trkpt lat="37.27931" lon="-7.14507333">
        <ele>23.0</ele>
        <time>2020-01-18T10:42:53.149Z</time>
      </trkpt>
      <trkpt lat="37.27931" lon="-7.14507333">
        <ele>23.0</ele>
        <time>2020-01-18T10:42:54.164Z</time>
      </trkpt>
      <trkpt lat="37.279355" lon="-7.14511833">
        <ele>24.0</ele>
        <time>2020-01-18T10:42:55.156Z</time>
      </trkpt>
      <trkpt lat="37.279355" lon="-7.14511833">
        <ele>24.0</ele>
        <time>2020-01-18T10:42:56.162Z</time>
      </trkpt>
      <trkpt lat="37.27939833" lon="-7.14517">
        <ele>24.0</ele>
        <time>2020-01-18T10:42:57.132Z</time>
      </trkpt>
      <trkpt lat="37.27942" lon="-7.1452">
        <ele>24.0</ele>
        <time>2020-01-18T10:42:58.137Z</time>
      </trkpt>
      <trkpt lat="37.27942" lon="-7.1452">
        <ele>24.0</ele>
        <time>2020-01-18T10:42:59.150Z</time>
      </trkpt>
      <trkpt lat="37.27946" lon="-7.14526833">
        <ele>25.0</ele>
        <time>2020-01-18T10:43:00.145Z</time>
      </trkpt>
      <trkpt lat="37.27946" lon="-7.14526833">
        <ele>25.0</ele>
        <time>2020-01-18T10:43:01.150Z</time>
      </trkpt>
      <trkpt lat="37.27949667" lon="-7.14534667">
        <ele>25.0</ele>
        <time>2020-01-18T10:43:02.152Z</time>
      </trkpt>
      <trkpt lat="37.27949667" lon="-7.14534667">
        <ele>25.0</ele>
        <time>2020-01-18T10:43:03.160Z</time>
      </trkpt>
      <trkpt lat="37.27953333" lon="-7.14543167">
        <ele>25.0</ele>
        <time>2020-01-18T10:43:04.132Z</time>
      </trkpt>
      <trkpt lat="37.27953333" lon="-7.14543167">
        <ele>25.0</ele>
        <time>2020-01-18T10:43:05.149Z</time>
      </trkpt>
      <trkpt lat="37.27955833" lon="-7.14550667">
        <ele>24.0</ele>
        <time>2020-01-18T10:43:06.156Z</time>
      </trkpt>
      <trkpt lat="37.27955833" lon="-7.14550667">
        <ele>24.0</ele>
        <time>2020-01-18T10:43:07.164Z</time>
      </trkpt>
      <trkpt lat="37.27957667" lon="-7.14557167">
        <ele>24.0</ele>
        <time>2020-01-18T10:43:08.133Z</time>
      </trkpt>
      <trkpt lat="37.27957667" lon="-7.14557167">
        <ele>24.0</ele>
        <time>2020-01-18T10:43:09.138Z</time>
      </trkpt>
      <trkpt lat="37.279605" lon="-7.14563667">
        <ele>24.0</ele>
        <time>2020-01-18T10:43:10.138Z</time>
      </trkpt>
      <trkpt lat="37.279605" lon="-7.14563667">
        <ele>24.0</ele>
        <time>2020-01-18T10:43:11.150Z</time>
      </trkpt>
      <trkpt lat="37.27962833" lon="-7.14570833">
        <ele>24.0</ele>
        <time>2020-01-18T10:43:12.167Z</time>
      </trkpt>
      <trkpt lat="37.279645" lon="-7.14574333">
        <ele>24.0</ele>
        <time>2020-01-18T10:43:13.133Z</time>
      </trkpt>
      <trkpt lat="37.279645" lon="-7.14574333">
        <ele>24.0</ele>
        <time>2020-01-18T10:43:14.138Z</time>
      </trkpt>
      <trkpt lat="37.27967333" lon="-7.14581667">
        <ele>24.0</ele>
        <time>2020-01-18T10:43:15.141Z</time>
      </trkpt>
      <trkpt lat="37.27969" lon="-7.14585167">
        <ele>23.0</ele>
        <time>2020-01-18T10:43:16.156Z</time>
      </trkpt>
      <trkpt lat="37.27969" lon="-7.14585167">
        <ele>23.0</ele>
        <time>2020-01-18T10:43:17.161Z</time>
      </trkpt>
      <trkpt lat="37.27974167" lon="-7.145905">
        <ele>23.0</ele>
        <time>2020-01-18T10:43:18.162Z</time>
      </trkpt>
      <trkpt lat="37.27974167" lon="-7.145905">
        <ele>23.0</ele>
        <time>2020-01-18T10:43:19.166Z</time>
      </trkpt>
      <trkpt lat="37.27981" lon="-7.14595667">
        <ele>23.0</ele>
        <time>2020-01-18T10:43:20.162Z</time>
      </trkpt>
      <trkpt lat="37.27984" lon="-7.145975">
        <ele>22.0</ele>
        <time>2020-01-18T10:43:21.156Z</time>
      </trkpt>
      <trkpt lat="37.27984" lon="-7.145975">
        <ele>22.0</ele>
        <time>2020-01-18T10:43:22.162Z</time>
      </trkpt>
      <trkpt lat="37.279895" lon="-7.14599833">
        <ele>22.0</ele>
        <time>2020-01-18T10:43:23.161Z</time>
      </trkpt>
      <trkpt lat="37.279895" lon="-7.14599833">
        <ele>22.0</ele>
        <time>2020-01-18T10:43:24.167Z</time>
      </trkpt>
      <trkpt lat="37.27996333" lon="-7.14598833">
        <ele>21.0</ele>
        <time>2020-01-18T10:43:25.129Z</time>
      </trkpt>
      <trkpt lat="37.27996333" lon="-7.14598833">
        <ele>21.0</ele>
        <time>2020-01-18T10:43:26.139Z</time>
      </trkpt>
      <trkpt lat="37.28002167" lon="-7.14599">
        <ele>21.0</ele>
        <time>2020-01-18T10:43:27.149Z</time>
      </trkpt>
      <trkpt lat="37.28004833" lon="-7.14599167">
        <ele>21.0</ele>
        <time>2020-01-18T10:43:28.162Z</time>
      </trkpt>
      <trkpt lat="37.28006667" lon="-7.14599167">
        <ele>21.0</ele>
        <time>2020-01-18T10:43:29.163Z</time>
      </trkpt>
      <trkpt lat="37.28006667" lon="-7.14599167">
        <ele>21.0</ele>
        <time>2020-01-18T10:43:30.129Z</time>
      </trkpt>
      <trkpt lat="37.28008667" lon="-7.14599">
        <ele>21.0</ele>
        <time>2020-01-18T10:43:31.152Z</time>
      </trkpt>
      <trkpt lat="37.28008667" lon="-7.14599">
        <ele>21.0</ele>
        <time>2020-01-18T10:43:32.151Z</time>
      </trkpt>
      <trkpt lat="37.28009" lon="-7.145985">
        <ele>21.0</ele>
        <time>2020-01-18T10:43:33.143Z</time>
      </trkpt>
      <trkpt lat="37.28009" lon="-7.145985">
        <ele>21.0</ele>
        <time>2020-01-18T10:43:34.161Z</time>
      </trkpt>
      <trkpt lat="37.28015833" lon="-7.14592833">
        <ele>20.0</ele>
        <time>2020-01-18T10:43:35.149Z</time>
      </trkpt>
      <trkpt lat="37.28016667" lon="-7.14589833">
        <ele>20.0</ele>
        <time>2020-01-18T10:43:36.166Z</time>
      </trkpt>
      <trkpt lat="37.280165" lon="-7.145875">
        <ele>20.0</ele>
        <time>2020-01-18T10:43:37.138Z</time>
      </trkpt>
      <trkpt lat="37.280165" lon="-7.145875">
        <ele>20.0</ele>
        <time>2020-01-18T10:43:38.156Z</time>
      </trkpt>
      <trkpt lat="37.280185" lon="-7.145825">
        <ele>20.0</ele>
        <time>2020-01-18T10:43:39.156Z</time>
      </trkpt>
      <trkpt lat="37.280185" lon="-7.145825">
        <ele>20.0</ele>
        <time>2020-01-18T10:43:40.161Z</time>
      </trkpt>
      <trkpt lat="37.28022667" lon="-7.145815">
        <ele>20.0</ele>
        <time>2020-01-18T10:43:41.146Z</time>
      </trkpt>
      <trkpt lat="37.28022667" lon="-7.145815">
        <ele>20.0</ele>
        <time>2020-01-18T10:43:42.158Z</time>
      </trkpt>
      <trkpt lat="37.280265" lon="-7.14585">
        <ele>20.0</ele>
        <time>2020-01-18T10:43:43.142Z</time>
      </trkpt>
      <trkpt lat="37.280265" lon="-7.14585">
        <ele>20.0</ele>
        <time>2020-01-18T10:43:44.147Z</time>
      </trkpt>
      <trkpt lat="37.28030667" lon="-7.14590833">
        <ele>21.0</ele>
        <time>2020-01-18T10:43:45.132Z</time>
      </trkpt>
      <trkpt lat="37.280325" lon="-7.14594">
        <ele>21.0</ele>
        <time>2020-01-18T10:43:46.139Z</time>
      </trkpt>
      <trkpt lat="37.280325" lon="-7.14594">
        <ele>21.0</ele>
        <time>2020-01-18T10:43:47.144Z</time>
      </trkpt>
      <trkpt lat="37.28036167" lon="-7.146">
        <ele>21.0</ele>
        <time>2020-01-18T10:43:48.161Z</time>
      </trkpt>
      <trkpt lat="37.28036167" lon="-7.146">
        <ele>21.0</ele>
        <time>2020-01-18T10:43:49.166Z</time>
      </trkpt>
      <trkpt lat="37.28039667" lon="-7.14605667">
        <ele>21.0</ele>
        <time>2020-01-18T10:43:50.159Z</time>
      </trkpt>
      <trkpt lat="37.28039667" lon="-7.14605667">
        <ele>21.0</ele>
        <time>2020-01-18T10:43:51.129Z</time>
      </trkpt>
      <trkpt lat="37.28045167" lon="-7.14604333">
        <ele>21.0</ele>
        <time>2020-01-18T10:43:52.165Z</time>
      </trkpt>
      <trkpt lat="37.28048167" lon="-7.14601667">
        <ele>21.0</ele>
        <time>2020-01-18T10:43:53.162Z</time>
      </trkpt>
      <trkpt lat="37.28048167" lon="-7.14601667">
        <ele>21.0</ele>
        <time>2020-01-18T10:43:54.167Z</time>
      </trkpt>
      <trkpt lat="37.28053833" lon="-7.14596833">
        <ele>22.0</ele>
        <time>2020-01-18T10:43:55.153Z</time>
      </trkpt>
      <trkpt lat="37.28053833" lon="-7.14596833">
        <ele>22.0</ele>
        <time>2020-01-18T10:43:56.159Z</time>
      </trkpt>
      <trkpt lat="37.28057667" lon="-7.14591">
        <ele>23.0</ele>
        <time>2020-01-18T10:43:57.165Z</time>
      </trkpt>
      <trkpt lat="37.28057667" lon="-7.14591">
        <ele>23.0</ele>
        <time>2020-01-18T10:43:58.130Z</time>
      </trkpt>
      <trkpt lat="37.28060833" lon="-7.14590333">
        <ele>24.0</ele>
        <time>2020-01-18T10:43:59.159Z</time>
      </trkpt>
      <trkpt lat="37.28062833" lon="-7.145935">
        <ele>24.0</ele>
        <time>2020-01-18T10:44:00.157Z</time>
      </trkpt>
      <trkpt lat="37.28062833" lon="-7.145935">
        <ele>24.0</ele>
        <time>2020-01-18T10:44:01.131Z</time>
      </trkpt>
      <trkpt lat="37.28066833" lon="-7.14601833">
        <ele>25.0</ele>
        <time>2020-01-18T10:44:02.150Z</time>
      </trkpt>
      <trkpt lat="37.28066833" lon="-7.14601833">
        <ele>25.0</ele>
        <time>2020-01-18T10:44:03.156Z</time>
      </trkpt>
      <trkpt lat="37.280715" lon="-7.14611833">
        <ele>26.0</ele>
        <time>2020-01-18T10:44:04.160Z</time>
      </trkpt>
      <trkpt lat="37.280715" lon="-7.14611833">
        <ele>26.0</ele>
        <time>2020-01-18T10:44:05.168Z</time>
      </trkpt>
      <trkpt lat="37.28075333" lon="-7.14621167">
        <ele>26.0</ele>
        <time>2020-01-18T10:44:06.138Z</time>
      </trkpt>
      <trkpt lat="37.28075333" lon="-7.14621167">
        <ele>26.0</ele>
        <time>2020-01-18T10:44:07.143Z</time>
      </trkpt>
      <trkpt lat="37.28079333" lon="-7.14631167">
        <ele>27.0</ele>
        <time>2020-01-18T10:44:08.164Z</time>
      </trkpt>
      <trkpt lat="37.28079333" lon="-7.14631167">
        <ele>27.0</ele>
        <time>2020-01-18T10:44:09.129Z</time>
      </trkpt>
      <trkpt lat="37.28083333" lon="-7.146385">
        <ele>27.0</ele>
        <time>2020-01-18T10:44:10.163Z</time>
      </trkpt>
      <trkpt lat="37.28083333" lon="-7.146385">
        <ele>27.0</ele>
        <time>2020-01-18T10:44:11.129Z</time>
      </trkpt>
      <trkpt lat="37.28088833" lon="-7.14644">
        <ele>28.0</ele>
        <time>2020-01-18T10:44:12.135Z</time>
      </trkpt>
      <trkpt lat="37.28088833" lon="-7.14644">
        <ele>28.0</ele>
        <time>2020-01-18T10:44:13.140Z</time>
      </trkpt>
      <trkpt lat="37.28096" lon="-7.14640167">
        <ele>28.0</ele>
        <time>2020-01-18T10:44:14.135Z</time>
      </trkpt>
      <trkpt lat="37.28099333" lon="-7.146375">
        <ele>28.0</ele>
        <time>2020-01-18T10:44:15.139Z</time>
      </trkpt>
      <trkpt lat="37.28099333" lon="-7.146375">
        <ele>28.0</ele>
        <time>2020-01-18T10:44:16.159Z</time>
      </trkpt>
      <trkpt lat="37.28105667" lon="-7.14632167">
        <ele>27.0</ele>
        <time>2020-01-18T10:44:17.132Z</time>
      </trkpt>
      <trkpt lat="37.28105667" lon="-7.14632167">
        <ele>27.0</ele>
        <time>2020-01-18T10:44:18.145Z</time>
      </trkpt>
      <trkpt lat="37.28110833" lon="-7.14625">
        <ele>26.0</ele>
        <time>2020-01-18T10:44:19.152Z</time>
      </trkpt>
      <trkpt lat="37.28110833" lon="-7.14625">
        <ele>26.0</ele>
        <time>2020-01-18T10:44:20.158Z</time>
      </trkpt>
      <trkpt lat="37.28115667" lon="-7.14617167">
        <ele>26.0</ele>
        <time>2020-01-18T10:44:21.154Z</time>
      </trkpt>
      <trkpt lat="37.28118167" lon="-7.14613333">
        <ele>25.0</ele>
        <time>2020-01-18T10:44:22.165Z</time>
      </trkpt>
      <trkpt lat="37.28118167" lon="-7.14613333">
        <ele>25.0</ele>
        <time>2020-01-18T10:44:23.130Z</time>
      </trkpt>
      <trkpt lat="37.28122333" lon="-7.146065">
        <ele>25.0</ele>
        <time>2020-01-18T10:44:24.155Z</time>
      </trkpt>
      <trkpt lat="37.28124333" lon="-7.146035">
        <ele>25.0</ele>
        <time>2020-01-18T10:44:25.129Z</time>
      </trkpt>
      <trkpt lat="37.28124333" lon="-7.146035">
        <ele>25.0</ele>
        <time>2020-01-18T10:44:26.141Z</time>
      </trkpt>
      <trkpt lat="37.28127667" lon="-7.14598">
        <ele>24.0</ele>
        <time>2020-01-18T10:44:27.144Z</time>
      </trkpt>
      <trkpt lat="37.281295" lon="-7.14596">
        <ele>24.0</ele>
        <time>2020-01-18T10:44:28.155Z</time>
      </trkpt>
      <trkpt lat="37.28130667" lon="-7.145945">
        <ele>24.0</ele>
        <time>2020-01-18T10:44:29.162Z</time>
      </trkpt>
      <trkpt lat="37.28130667" lon="-7.145945">
        <ele>24.0</ele>
        <time>2020-01-18T10:44:30.167Z</time>
      </trkpt>
      <trkpt lat="37.281315" lon="-7.14594333">
        <ele>24.0</ele>
        <time>2020-01-18T10:44:31.137Z</time>
      </trkpt>
    </trkseg>
  </trk>
</gpx>
